<?xml version="1.0" encoding="UTF-8" standalone="no" ?>
<gpx xmlns="http://www.topografix.com/GPX/1/1" xmlns:xsi="http://www.w3.org/2001/XMLSchema-instance" xsi:schemaLocation="http://www.topografix.com/GPX/1/1 http://www.topografix.com/GPX/1/1/gpx.xsd" version="1.1" creator="VisuGPX - https://www.visugpx.com">
  <metadata>
    <name>Marche octobre 2012</name>
    <desc><![CDATA[marcher « l%u2019Amitié en Marche pour la Recherche contre le Cancer»]]></desc>
  </metadata>
  <trk>
    <name><![CDATA[Marche octobre 2012_1]]></name>
    <trkseg>
      <trkpt lat="45.56365" lon="4.69986">
        <ele>143</ele>
        <time>2012-10-07T06:44:51Z</time>
      </trkpt>
      <trkpt lat="45.5637" lon="4.69978">
        <ele>143</ele>
        <time>2012-10-07T06:44:53Z</time>
      </trkpt>
      <trkpt lat="45.5637" lon="4.69979">
        <ele>144</ele>
        <time>2012-10-07T06:44:55Z</time>
      </trkpt>
      <trkpt lat="45.56369" lon="4.69981">
        <ele>144</ele>
        <time>2012-10-07T06:44:57Z</time>
      </trkpt>
      <trkpt lat="45.56367" lon="4.69983">
        <ele>144</ele>
        <time>2012-10-07T06:44:59Z</time>
      </trkpt>
      <trkpt lat="45.56366" lon="4.69986">
        <ele>144</ele>
        <time>2012-10-07T06:45:01Z</time>
      </trkpt>
      <trkpt lat="45.56364" lon="4.69988">
        <ele>144</ele>
        <time>2012-10-07T06:45:03Z</time>
      </trkpt>
      <trkpt lat="45.56363" lon="4.6999">
        <ele>144</ele>
        <time>2012-10-07T06:45:05Z</time>
      </trkpt>
      <trkpt lat="45.56361" lon="4.69994">
        <ele>143</ele>
        <time>2012-10-07T06:45:07Z</time>
      </trkpt>
      <trkpt lat="45.56359" lon="4.69997">
        <ele>144</ele>
        <time>2012-10-07T06:45:09Z</time>
      </trkpt>
      <trkpt lat="45.56359" lon="4.69999">
        <ele>144</ele>
        <time>2012-10-07T06:45:12Z</time>
      </trkpt>
      <trkpt lat="45.56358" lon="4.70002">
        <ele>143</ele>
        <time>2012-10-07T06:45:14Z</time>
      </trkpt>
      <trkpt lat="45.56358" lon="4.70004">
        <ele>143</ele>
        <time>2012-10-07T06:45:16Z</time>
      </trkpt>
      <trkpt lat="45.56358" lon="4.70006">
        <ele>144</ele>
        <time>2012-10-07T06:45:18Z</time>
      </trkpt>
      <trkpt lat="45.56357" lon="4.70009">
        <ele>144</ele>
        <time>2012-10-07T06:45:20Z</time>
      </trkpt>
      <trkpt lat="45.56357" lon="4.70012">
        <ele>144</ele>
        <time>2012-10-07T06:45:22Z</time>
      </trkpt>
      <trkpt lat="45.56356" lon="4.70015">
        <ele>144</ele>
        <time>2012-10-07T06:45:24Z</time>
      </trkpt>
      <trkpt lat="45.56356" lon="4.70018">
        <ele>144</ele>
        <time>2012-10-07T06:45:26Z</time>
      </trkpt>
      <trkpt lat="45.56355" lon="4.70021">
        <ele>143</ele>
        <time>2012-10-07T06:45:28Z</time>
      </trkpt>
      <trkpt lat="45.56354" lon="4.70025">
        <ele>143</ele>
        <time>2012-10-07T06:45:30Z</time>
      </trkpt>
      <trkpt lat="45.56354" lon="4.70028">
        <ele>144</ele>
        <time>2012-10-07T06:45:32Z</time>
      </trkpt>
      <trkpt lat="45.56354" lon="4.70032">
        <ele>144</ele>
        <time>2012-10-07T06:45:34Z</time>
      </trkpt>
      <trkpt lat="45.56354" lon="4.70036">
        <ele>144</ele>
        <time>2012-10-07T06:45:36Z</time>
      </trkpt>
      <trkpt lat="45.56354" lon="4.7004">
        <ele>144</ele>
        <time>2012-10-07T06:45:38Z</time>
      </trkpt>
      <trkpt lat="45.56354" lon="4.70043">
        <ele>144</ele>
        <time>2012-10-07T06:45:40Z</time>
      </trkpt>
      <trkpt lat="45.56355" lon="4.70045">
        <ele>144</ele>
        <time>2012-10-07T06:45:43Z</time>
      </trkpt>
      <trkpt lat="45.56355" lon="4.70048">
        <ele>144</ele>
        <time>2012-10-07T06:45:45Z</time>
      </trkpt>
      <trkpt lat="45.56356" lon="4.70051">
        <ele>144</ele>
        <time>2012-10-07T06:45:47Z</time>
      </trkpt>
      <trkpt lat="45.56357" lon="4.70053">
        <ele>144</ele>
        <time>2012-10-07T06:45:49Z</time>
      </trkpt>
      <trkpt lat="45.56358" lon="4.70057">
        <ele>145</ele>
        <time>2012-10-07T06:45:51Z</time>
      </trkpt>
      <trkpt lat="45.5636" lon="4.70059">
        <ele>145</ele>
        <time>2012-10-07T06:45:53Z</time>
      </trkpt>
      <trkpt lat="45.56362" lon="4.7006">
        <ele>145</ele>
        <time>2012-10-07T06:45:55Z</time>
      </trkpt>
      <trkpt lat="45.56363" lon="4.70062">
        <ele>145</ele>
        <time>2012-10-07T06:45:58Z</time>
      </trkpt>
      <trkpt lat="45.56364" lon="4.70064">
        <ele>146</ele>
        <time>2012-10-07T06:46:00Z</time>
      </trkpt>
      <trkpt lat="45.56365" lon="4.70067">
        <ele>146</ele>
        <time>2012-10-07T06:46:02Z</time>
      </trkpt>
      <trkpt lat="45.56365" lon="4.70069">
        <ele>146</ele>
        <time>2012-10-07T06:46:04Z</time>
      </trkpt>
      <trkpt lat="45.56366" lon="4.7007">
        <ele>146</ele>
        <time>2012-10-07T06:46:06Z</time>
      </trkpt>
      <trkpt lat="45.56367" lon="4.70072">
        <ele>147</ele>
        <time>2012-10-07T06:46:08Z</time>
      </trkpt>
      <trkpt lat="45.56368" lon="4.70074">
        <ele>147</ele>
        <time>2012-10-07T06:46:10Z</time>
      </trkpt>
      <trkpt lat="45.56368" lon="4.70079">
        <ele>147</ele>
        <time>2012-10-07T06:46:12Z</time>
      </trkpt>
      <trkpt lat="45.56368" lon="4.70081">
        <ele>147</ele>
        <time>2012-10-07T06:46:14Z</time>
      </trkpt>
      <trkpt lat="45.56368" lon="4.70084">
        <ele>147</ele>
        <time>2012-10-07T06:46:16Z</time>
      </trkpt>
      <trkpt lat="45.56369" lon="4.70087">
        <ele>147</ele>
        <time>2012-10-07T06:46:18Z</time>
      </trkpt>
      <trkpt lat="45.56369" lon="4.7009">
        <ele>147</ele>
        <time>2012-10-07T06:46:20Z</time>
      </trkpt>
      <trkpt lat="45.5637" lon="4.70093">
        <ele>147</ele>
        <time>2012-10-07T06:46:22Z</time>
      </trkpt>
      <trkpt lat="45.5637" lon="4.70096">
        <ele>147</ele>
        <time>2012-10-07T06:46:25Z</time>
      </trkpt>
      <trkpt lat="45.56371" lon="4.70099">
        <ele>147</ele>
        <time>2012-10-07T06:46:27Z</time>
      </trkpt>
      <trkpt lat="45.56371" lon="4.70102">
        <ele>147</ele>
        <time>2012-10-07T06:46:29Z</time>
      </trkpt>
      <trkpt lat="45.56372" lon="4.70105">
        <ele>148</ele>
        <time>2012-10-07T06:46:31Z</time>
      </trkpt>
      <trkpt lat="45.56373" lon="4.70108">
        <ele>148</ele>
        <time>2012-10-07T06:46:33Z</time>
      </trkpt>
      <trkpt lat="45.56374" lon="4.7011">
        <ele>148</ele>
        <time>2012-10-07T06:46:35Z</time>
      </trkpt>
      <trkpt lat="45.56375" lon="4.70112">
        <ele>148</ele>
        <time>2012-10-07T06:46:37Z</time>
      </trkpt>
      <trkpt lat="45.56377" lon="4.70113">
        <ele>148</ele>
        <time>2012-10-07T06:46:39Z</time>
      </trkpt>
      <trkpt lat="45.56378" lon="4.70116">
        <ele>148</ele>
        <time>2012-10-07T06:46:41Z</time>
      </trkpt>
      <trkpt lat="45.56379" lon="4.70119">
        <ele>148</ele>
        <time>2012-10-07T06:46:43Z</time>
      </trkpt>
      <trkpt lat="45.5638" lon="4.70122">
        <ele>148</ele>
        <time>2012-10-07T06:46:45Z</time>
      </trkpt>
      <trkpt lat="45.56382" lon="4.70124">
        <ele>148</ele>
        <time>2012-10-07T06:46:47Z</time>
      </trkpt>
      <trkpt lat="45.56382" lon="4.70126">
        <ele>148</ele>
        <time>2012-10-07T06:46:50Z</time>
      </trkpt>
      <trkpt lat="45.56383" lon="4.70128">
        <ele>148</ele>
        <time>2012-10-07T06:46:52Z</time>
      </trkpt>
      <trkpt lat="45.56385" lon="4.70131">
        <ele>148</ele>
        <time>2012-10-07T06:46:54Z</time>
      </trkpt>
      <trkpt lat="45.56387" lon="4.70134">
        <ele>149</ele>
        <time>2012-10-07T06:46:56Z</time>
      </trkpt>
      <trkpt lat="45.56389" lon="4.70136">
        <ele>149</ele>
        <time>2012-10-07T06:46:58Z</time>
      </trkpt>
      <trkpt lat="45.56391" lon="4.70138">
        <ele>149</ele>
        <time>2012-10-07T06:47:00Z</time>
      </trkpt>
      <trkpt lat="45.56392" lon="4.70139">
        <ele>149</ele>
        <time>2012-10-07T06:47:02Z</time>
      </trkpt>
      <trkpt lat="45.56394" lon="4.7014">
        <ele>149</ele>
        <time>2012-10-07T06:47:04Z</time>
      </trkpt>
      <trkpt lat="45.56396" lon="4.70141">
        <ele>149</ele>
        <time>2012-10-07T06:47:06Z</time>
      </trkpt>
      <trkpt lat="45.56397" lon="4.70143">
        <ele>149</ele>
        <time>2012-10-07T06:47:08Z</time>
      </trkpt>
      <trkpt lat="45.56399" lon="4.70145">
        <ele>149</ele>
        <time>2012-10-07T06:47:10Z</time>
      </trkpt>
      <trkpt lat="45.564" lon="4.70147">
        <ele>149</ele>
        <time>2012-10-07T06:47:12Z</time>
      </trkpt>
      <trkpt lat="45.56401" lon="4.7015">
        <ele>149</ele>
        <time>2012-10-07T06:47:14Z</time>
      </trkpt>
      <trkpt lat="45.56402" lon="4.70153">
        <ele>149</ele>
        <time>2012-10-07T06:47:16Z</time>
      </trkpt>
      <trkpt lat="45.56403" lon="4.70154">
        <ele>149</ele>
        <time>2012-10-07T06:47:18Z</time>
      </trkpt>
      <trkpt lat="45.56405" lon="4.70156">
        <ele>149</ele>
        <time>2012-10-07T06:47:20Z</time>
      </trkpt>
      <trkpt lat="45.56407" lon="4.70157">
        <ele>150</ele>
        <time>2012-10-07T06:47:22Z</time>
      </trkpt>
      <trkpt lat="45.56408" lon="4.70158">
        <ele>150</ele>
        <time>2012-10-07T06:47:24Z</time>
      </trkpt>
      <trkpt lat="45.56408" lon="4.70159">
        <ele>150</ele>
        <time>2012-10-07T06:47:26Z</time>
      </trkpt>
      <trkpt lat="45.56408" lon="4.7016">
        <ele>150</ele>
        <time>2012-10-07T06:47:28Z</time>
      </trkpt>
      <trkpt lat="45.56408" lon="4.70162">
        <ele>151</ele>
        <time>2012-10-07T06:47:30Z</time>
      </trkpt>
      <trkpt lat="45.56408" lon="4.70163">
        <ele>151</ele>
        <time>2012-10-07T06:47:32Z</time>
      </trkpt>
      <trkpt lat="45.56407" lon="4.70164">
        <ele>151</ele>
        <time>2012-10-07T06:47:35Z</time>
      </trkpt>
      <trkpt lat="45.56407" lon="4.70164">
        <ele>151</ele>
        <time>2012-10-07T06:47:37Z</time>
      </trkpt>
      <trkpt lat="45.56406" lon="4.70164">
        <ele>150</ele>
        <time>2012-10-07T06:47:39Z</time>
      </trkpt>
      <trkpt lat="45.56406" lon="4.70164">
        <ele>151</ele>
        <time>2012-10-07T06:47:41Z</time>
      </trkpt>
      <trkpt lat="45.56405" lon="4.70164">
        <ele>151</ele>
        <time>2012-10-07T06:47:43Z</time>
      </trkpt>
      <trkpt lat="45.56405" lon="4.70164">
        <ele>151</ele>
        <time>2012-10-07T06:47:45Z</time>
      </trkpt>
      <trkpt lat="45.56405" lon="4.70164">
        <ele>151</ele>
        <time>2012-10-07T06:47:47Z</time>
      </trkpt>
      <trkpt lat="45.56405" lon="4.70164">
        <ele>151</ele>
        <time>2012-10-07T06:47:49Z</time>
      </trkpt>
      <trkpt lat="45.56405" lon="4.70164">
        <ele>150</ele>
        <time>2012-10-07T06:47:51Z</time>
      </trkpt>
      <trkpt lat="45.56405" lon="4.70164">
        <ele>150</ele>
        <time>2012-10-07T06:47:53Z</time>
      </trkpt>
      <trkpt lat="45.56405" lon="4.70164">
        <ele>151</ele>
        <time>2012-10-07T06:47:55Z</time>
      </trkpt>
      <trkpt lat="45.56405" lon="4.70164">
        <ele>151</ele>
        <time>2012-10-07T06:47:57Z</time>
      </trkpt>
      <trkpt lat="45.56405" lon="4.70165">
        <ele>151</ele>
        <time>2012-10-07T06:47:59Z</time>
      </trkpt>
      <trkpt lat="45.56404" lon="4.70165">
        <ele>151</ele>
        <time>2012-10-07T06:48:02Z</time>
      </trkpt>
      <trkpt lat="45.56404" lon="4.70164">
        <ele>151</ele>
        <time>2012-10-07T06:48:04Z</time>
      </trkpt>
      <trkpt lat="45.56404" lon="4.70165">
        <ele>151</ele>
        <time>2012-10-07T06:48:06Z</time>
      </trkpt>
      <trkpt lat="45.56404" lon="4.70165">
        <ele>150</ele>
        <time>2012-10-07T06:48:08Z</time>
      </trkpt>
      <trkpt lat="45.56404" lon="4.70165">
        <ele>150</ele>
        <time>2012-10-07T06:48:10Z</time>
      </trkpt>
      <trkpt lat="45.56404" lon="4.70165">
        <ele>151</ele>
        <time>2012-10-07T06:48:12Z</time>
      </trkpt>
      <trkpt lat="45.56404" lon="4.70165">
        <ele>151</ele>
        <time>2012-10-07T06:48:14Z</time>
      </trkpt>
      <trkpt lat="45.56405" lon="4.70164">
        <ele>151</ele>
        <time>2012-10-07T06:48:16Z</time>
      </trkpt>
      <trkpt lat="45.56406" lon="4.70165">
        <ele>151</ele>
        <time>2012-10-07T06:48:18Z</time>
      </trkpt>
      <trkpt lat="45.56408" lon="4.70166">
        <ele>151</ele>
        <time>2012-10-07T06:48:20Z</time>
      </trkpt>
      <trkpt lat="45.56409" lon="4.70167">
        <ele>151</ele>
        <time>2012-10-07T06:48:22Z</time>
      </trkpt>
      <trkpt lat="45.56411" lon="4.70169">
        <ele>151</ele>
        <time>2012-10-07T06:48:25Z</time>
      </trkpt>
      <trkpt lat="45.56412" lon="4.70171">
        <ele>152</ele>
        <time>2012-10-07T06:48:27Z</time>
      </trkpt>
      <trkpt lat="45.56413" lon="4.70173">
        <ele>152</ele>
        <time>2012-10-07T06:48:29Z</time>
      </trkpt>
      <trkpt lat="45.56414" lon="4.70174">
        <ele>152</ele>
        <time>2012-10-07T06:48:31Z</time>
      </trkpt>
      <trkpt lat="45.56415" lon="4.70177">
        <ele>152</ele>
        <time>2012-10-07T06:48:33Z</time>
      </trkpt>
      <trkpt lat="45.56416" lon="4.70179">
        <ele>152</ele>
        <time>2012-10-07T06:48:35Z</time>
      </trkpt>
      <trkpt lat="45.56417" lon="4.7018">
        <ele>152</ele>
        <time>2012-10-07T06:48:37Z</time>
      </trkpt>
      <trkpt lat="45.56419" lon="4.70182">
        <ele>152</ele>
        <time>2012-10-07T06:48:39Z</time>
      </trkpt>
      <trkpt lat="45.56421" lon="4.70184">
        <ele>152</ele>
        <time>2012-10-07T06:48:41Z</time>
      </trkpt>
      <trkpt lat="45.56422" lon="4.70187">
        <ele>153</ele>
        <time>2012-10-07T06:48:43Z</time>
      </trkpt>
      <trkpt lat="45.56423" lon="4.70189">
        <ele>152</ele>
        <time>2012-10-07T06:48:45Z</time>
      </trkpt>
      <trkpt lat="45.56424" lon="4.70191">
        <ele>152</ele>
        <time>2012-10-07T06:48:47Z</time>
      </trkpt>
      <trkpt lat="45.56425" lon="4.70194">
        <ele>152</ele>
        <time>2012-10-07T06:48:49Z</time>
      </trkpt>
      <trkpt lat="45.56426" lon="4.70196">
        <ele>152</ele>
        <time>2012-10-07T06:48:51Z</time>
      </trkpt>
      <trkpt lat="45.56426" lon="4.70199">
        <ele>152</ele>
        <time>2012-10-07T06:48:54Z</time>
      </trkpt>
      <trkpt lat="45.56427" lon="4.70201">
        <ele>152</ele>
        <time>2012-10-07T06:48:56Z</time>
      </trkpt>
      <trkpt lat="45.56428" lon="4.70204">
        <ele>152</ele>
        <time>2012-10-07T06:48:58Z</time>
      </trkpt>
      <trkpt lat="45.56429" lon="4.70206">
        <ele>152</ele>
        <time>2012-10-07T06:49:00Z</time>
      </trkpt>
      <trkpt lat="45.56431" lon="4.70207">
        <ele>152</ele>
        <time>2012-10-07T06:49:02Z</time>
      </trkpt>
      <trkpt lat="45.56433" lon="4.70209">
        <ele>151</ele>
        <time>2012-10-07T06:49:04Z</time>
      </trkpt>
      <trkpt lat="45.56435" lon="4.70211">
        <ele>151</ele>
        <time>2012-10-07T06:49:06Z</time>
      </trkpt>
      <trkpt lat="45.56437" lon="4.70213">
        <ele>152</ele>
        <time>2012-10-07T06:49:08Z</time>
      </trkpt>
      <trkpt lat="45.5644" lon="4.70216">
        <ele>151</ele>
        <time>2012-10-07T06:49:10Z</time>
      </trkpt>
      <trkpt lat="45.56442" lon="4.70218">
        <ele>151</ele>
        <time>2012-10-07T06:49:12Z</time>
      </trkpt>
      <trkpt lat="45.56444" lon="4.7022">
        <ele>151</ele>
        <time>2012-10-07T06:49:14Z</time>
      </trkpt>
      <trkpt lat="45.56445" lon="4.70222">
        <ele>151</ele>
        <time>2012-10-07T06:49:16Z</time>
      </trkpt>
      <trkpt lat="45.56447" lon="4.70224">
        <ele>151</ele>
        <time>2012-10-07T06:49:18Z</time>
      </trkpt>
      <trkpt lat="45.56448" lon="4.70227">
        <ele>152</ele>
        <time>2012-10-07T06:49:20Z</time>
      </trkpt>
      <trkpt lat="45.5645" lon="4.70229">
        <ele>152</ele>
        <time>2012-10-07T06:49:22Z</time>
      </trkpt>
      <trkpt lat="45.56451" lon="4.70232">
        <ele>151</ele>
        <time>2012-10-07T06:49:24Z</time>
      </trkpt>
      <trkpt lat="45.56453" lon="4.70235">
        <ele>152</ele>
        <time>2012-10-07T06:49:27Z</time>
      </trkpt>
      <trkpt lat="45.56454" lon="4.70237">
        <ele>151</ele>
        <time>2012-10-07T06:49:29Z</time>
      </trkpt>
      <trkpt lat="45.56456" lon="4.7024">
        <ele>151</ele>
        <time>2012-10-07T06:49:31Z</time>
      </trkpt>
      <trkpt lat="45.56456" lon="4.70243">
        <ele>152</ele>
        <time>2012-10-07T06:49:33Z</time>
      </trkpt>
      <trkpt lat="45.56457" lon="4.70246">
        <ele>151</ele>
        <time>2012-10-07T06:49:35Z</time>
      </trkpt>
      <trkpt lat="45.56459" lon="4.7025">
        <ele>152</ele>
        <time>2012-10-07T06:49:37Z</time>
      </trkpt>
      <trkpt lat="45.56459" lon="4.70252">
        <ele>151</ele>
        <time>2012-10-07T06:49:39Z</time>
      </trkpt>
      <trkpt lat="45.5646" lon="4.70255">
        <ele>151</ele>
        <time>2012-10-07T06:49:41Z</time>
      </trkpt>
      <trkpt lat="45.56461" lon="4.70259">
        <ele>151</ele>
        <time>2012-10-07T06:49:43Z</time>
      </trkpt>
      <trkpt lat="45.56462" lon="4.70262">
        <ele>151</ele>
        <time>2012-10-07T06:49:45Z</time>
      </trkpt>
      <trkpt lat="45.56464" lon="4.70265">
        <ele>151</ele>
        <time>2012-10-07T06:49:47Z</time>
      </trkpt>
      <trkpt lat="45.56466" lon="4.70267">
        <ele>150</ele>
        <time>2012-10-07T06:49:49Z</time>
      </trkpt>
      <trkpt lat="45.56467" lon="4.70269">
        <ele>150</ele>
        <time>2012-10-07T06:49:51Z</time>
      </trkpt>
      <trkpt lat="45.56469" lon="4.70272">
        <ele>150</ele>
        <time>2012-10-07T06:49:53Z</time>
      </trkpt>
      <trkpt lat="45.56471" lon="4.70274">
        <ele>150</ele>
        <time>2012-10-07T06:49:55Z</time>
      </trkpt>
      <trkpt lat="45.56473" lon="4.70276">
        <ele>150</ele>
        <time>2012-10-07T06:49:57Z</time>
      </trkpt>
      <trkpt lat="45.56475" lon="4.70279">
        <ele>150</ele>
        <time>2012-10-07T06:50:00Z</time>
      </trkpt>
      <trkpt lat="45.56478" lon="4.70281">
        <ele>150</ele>
        <time>2012-10-07T06:50:02Z</time>
      </trkpt>
      <trkpt lat="45.5648" lon="4.70282">
        <ele>150</ele>
        <time>2012-10-07T06:50:04Z</time>
      </trkpt>
      <trkpt lat="45.56482" lon="4.70284">
        <ele>150</ele>
        <time>2012-10-07T06:50:06Z</time>
      </trkpt>
      <trkpt lat="45.56485" lon="4.70288">
        <ele>150</ele>
        <time>2012-10-07T06:50:08Z</time>
      </trkpt>
      <trkpt lat="45.56487" lon="4.7029">
        <ele>150</ele>
        <time>2012-10-07T06:50:10Z</time>
      </trkpt>
      <trkpt lat="45.5649" lon="4.70292">
        <ele>150</ele>
        <time>2012-10-07T06:50:12Z</time>
      </trkpt>
      <trkpt lat="45.56492" lon="4.70293">
        <ele>149</ele>
        <time>2012-10-07T06:50:14Z</time>
      </trkpt>
      <trkpt lat="45.56494" lon="4.70295">
        <ele>149</ele>
        <time>2012-10-07T06:50:16Z</time>
      </trkpt>
      <trkpt lat="45.56495" lon="4.70297">
        <ele>149</ele>
        <time>2012-10-07T06:50:18Z</time>
      </trkpt>
      <trkpt lat="45.56497" lon="4.70299">
        <ele>149</ele>
        <time>2012-10-07T06:50:21Z</time>
      </trkpt>
      <trkpt lat="45.56498" lon="4.70301">
        <ele>149</ele>
        <time>2012-10-07T06:50:23Z</time>
      </trkpt>
      <trkpt lat="45.56501" lon="4.70302">
        <ele>149</ele>
        <time>2012-10-07T06:50:25Z</time>
      </trkpt>
      <trkpt lat="45.56503" lon="4.70304">
        <ele>149</ele>
        <time>2012-10-07T06:50:27Z</time>
      </trkpt>
      <trkpt lat="45.56505" lon="4.70305">
        <ele>149</ele>
        <time>2012-10-07T06:50:29Z</time>
      </trkpt>
      <trkpt lat="45.56508" lon="4.70306">
        <ele>149</ele>
        <time>2012-10-07T06:50:31Z</time>
      </trkpt>
      <trkpt lat="45.5651" lon="4.70307">
        <ele>148</ele>
        <time>2012-10-07T06:50:33Z</time>
      </trkpt>
      <trkpt lat="45.56512" lon="4.70308">
        <ele>148</ele>
        <time>2012-10-07T06:50:35Z</time>
      </trkpt>
      <trkpt lat="45.56513" lon="4.7031">
        <ele>148</ele>
        <time>2012-10-07T06:50:38Z</time>
      </trkpt>
      <trkpt lat="45.56514" lon="4.70311">
        <ele>148</ele>
        <time>2012-10-07T06:50:40Z</time>
      </trkpt>
      <trkpt lat="45.56517" lon="4.70312">
        <ele>149</ele>
        <time>2012-10-07T06:50:42Z</time>
      </trkpt>
      <trkpt lat="45.56519" lon="4.70313">
        <ele>149</ele>
        <time>2012-10-07T06:50:44Z</time>
      </trkpt>
      <trkpt lat="45.5652" lon="4.70315">
        <ele>149</ele>
        <time>2012-10-07T06:50:46Z</time>
      </trkpt>
      <trkpt lat="45.56522" lon="4.70317">
        <ele>149</ele>
        <time>2012-10-07T06:50:48Z</time>
      </trkpt>
      <trkpt lat="45.56525" lon="4.70319">
        <ele>149</ele>
        <time>2012-10-07T06:50:50Z</time>
      </trkpt>
      <trkpt lat="45.56527" lon="4.70321">
        <ele>149</ele>
        <time>2012-10-07T06:50:52Z</time>
      </trkpt>
      <trkpt lat="45.56529" lon="4.70322">
        <ele>149</ele>
        <time>2012-10-07T06:50:54Z</time>
      </trkpt>
      <trkpt lat="45.56531" lon="4.70324">
        <ele>148</ele>
        <time>2012-10-07T06:50:56Z</time>
      </trkpt>
      <trkpt lat="45.56533" lon="4.70328">
        <ele>149</ele>
        <time>2012-10-07T06:50:58Z</time>
      </trkpt>
      <trkpt lat="45.56535" lon="4.70329">
        <ele>149</ele>
        <time>2012-10-07T06:51:00Z</time>
      </trkpt>
      <trkpt lat="45.56538" lon="4.7033">
        <ele>149</ele>
        <time>2012-10-07T06:51:02Z</time>
      </trkpt>
      <trkpt lat="45.5654" lon="4.7033">
        <ele>149</ele>
        <time>2012-10-07T06:51:04Z</time>
      </trkpt>
      <trkpt lat="45.56542" lon="4.7033">
        <ele>149</ele>
        <time>2012-10-07T06:51:06Z</time>
      </trkpt>
      <trkpt lat="45.56545" lon="4.70331">
        <ele>149</ele>
        <time>2012-10-07T06:51:08Z</time>
      </trkpt>
      <trkpt lat="45.56547" lon="4.70332">
        <ele>149</ele>
        <time>2012-10-07T06:51:10Z</time>
      </trkpt>
      <trkpt lat="45.56549" lon="4.70335">
        <ele>149</ele>
        <time>2012-10-07T06:51:12Z</time>
      </trkpt>
      <trkpt lat="45.5655" lon="4.70336">
        <ele>149</ele>
        <time>2012-10-07T06:51:14Z</time>
      </trkpt>
      <trkpt lat="45.56551" lon="4.70337">
        <ele>149</ele>
        <time>2012-10-07T06:51:16Z</time>
      </trkpt>
      <trkpt lat="45.56552" lon="4.70339">
        <ele>149</ele>
        <time>2012-10-07T06:51:18Z</time>
      </trkpt>
      <trkpt lat="45.56554" lon="4.70341">
        <ele>148</ele>
        <time>2012-10-07T06:51:20Z</time>
      </trkpt>
      <trkpt lat="45.56556" lon="4.70342">
        <ele>148</ele>
        <time>2012-10-07T06:51:23Z</time>
      </trkpt>
      <trkpt lat="45.56558" lon="4.70342">
        <ele>148</ele>
        <time>2012-10-07T06:51:25Z</time>
      </trkpt>
      <trkpt lat="45.56559" lon="4.70342">
        <ele>149</ele>
        <time>2012-10-07T06:51:27Z</time>
      </trkpt>
      <trkpt lat="45.56561" lon="4.70342">
        <ele>149</ele>
        <time>2012-10-07T06:51:29Z</time>
      </trkpt>
      <trkpt lat="45.56562" lon="4.70341">
        <ele>150</ele>
        <time>2012-10-07T06:51:31Z</time>
      </trkpt>
      <trkpt lat="45.56564" lon="4.7034">
        <ele>150</ele>
        <time>2012-10-07T06:51:33Z</time>
      </trkpt>
      <trkpt lat="45.56565" lon="4.70339">
        <ele>151</ele>
        <time>2012-10-07T06:51:35Z</time>
      </trkpt>
      <trkpt lat="45.56567" lon="4.70338">
        <ele>151</ele>
        <time>2012-10-07T06:51:37Z</time>
      </trkpt>
      <trkpt lat="45.56568" lon="4.70337">
        <ele>151</ele>
        <time>2012-10-07T06:51:39Z</time>
      </trkpt>
      <trkpt lat="45.56568" lon="4.70337">
        <ele>151</ele>
        <time>2012-10-07T06:51:41Z</time>
      </trkpt>
      <trkpt lat="45.56569" lon="4.7034">
        <ele>152</ele>
        <time>2012-10-07T06:51:43Z</time>
      </trkpt>
      <trkpt lat="45.56568" lon="4.70343">
        <ele>152</ele>
        <time>2012-10-07T06:51:45Z</time>
      </trkpt>
      <trkpt lat="45.56567" lon="4.70346">
        <ele>153</ele>
        <time>2012-10-07T06:51:47Z</time>
      </trkpt>
      <trkpt lat="45.56566" lon="4.70349">
        <ele>153</ele>
        <time>2012-10-07T06:51:49Z</time>
      </trkpt>
      <trkpt lat="45.56564" lon="4.70351">
        <ele>153</ele>
        <time>2012-10-07T06:51:51Z</time>
      </trkpt>
      <trkpt lat="45.56562" lon="4.70354">
        <ele>153</ele>
        <time>2012-10-07T06:51:53Z</time>
      </trkpt>
      <trkpt lat="45.56561" lon="4.70355">
        <ele>153</ele>
        <time>2012-10-07T06:51:56Z</time>
      </trkpt>
      <trkpt lat="45.56559" lon="4.70357">
        <ele>153</ele>
        <time>2012-10-07T06:51:58Z</time>
      </trkpt>
      <trkpt lat="45.56558" lon="4.7036">
        <ele>152</ele>
        <time>2012-10-07T06:52:00Z</time>
      </trkpt>
      <trkpt lat="45.56556" lon="4.70363">
        <ele>152</ele>
        <time>2012-10-07T06:52:02Z</time>
      </trkpt>
      <trkpt lat="45.56555" lon="4.70365">
        <ele>152</ele>
        <time>2012-10-07T06:52:04Z</time>
      </trkpt>
      <trkpt lat="45.56552" lon="4.70368">
        <ele>152</ele>
        <time>2012-10-07T06:52:06Z</time>
      </trkpt>
      <trkpt lat="45.5655" lon="4.70371">
        <ele>152</ele>
        <time>2012-10-07T06:52:08Z</time>
      </trkpt>
      <trkpt lat="45.56549" lon="4.70373">
        <ele>152</ele>
        <time>2012-10-07T06:52:10Z</time>
      </trkpt>
      <trkpt lat="45.56547" lon="4.70376">
        <ele>152</ele>
        <time>2012-10-07T06:52:12Z</time>
      </trkpt>
      <trkpt lat="45.56546" lon="4.70378">
        <ele>152</ele>
        <time>2012-10-07T06:52:15Z</time>
      </trkpt>
      <trkpt lat="45.56544" lon="4.70381">
        <ele>152</ele>
        <time>2012-10-07T06:52:17Z</time>
      </trkpt>
      <trkpt lat="45.56543" lon="4.70384">
        <ele>152</ele>
        <time>2012-10-07T06:52:19Z</time>
      </trkpt>
      <trkpt lat="45.56541" lon="4.70386">
        <ele>151</ele>
        <time>2012-10-07T06:52:21Z</time>
      </trkpt>
      <trkpt lat="45.56539" lon="4.70389">
        <ele>151</ele>
        <time>2012-10-07T06:52:23Z</time>
      </trkpt>
      <trkpt lat="45.56538" lon="4.70392">
        <ele>151</ele>
        <time>2012-10-07T06:52:25Z</time>
      </trkpt>
      <trkpt lat="45.56536" lon="4.70394">
        <ele>151</ele>
        <time>2012-10-07T06:52:27Z</time>
      </trkpt>
      <trkpt lat="45.56535" lon="4.70397">
        <ele>151</ele>
        <time>2012-10-07T06:52:29Z</time>
      </trkpt>
      <trkpt lat="45.56533" lon="4.70399">
        <ele>151</ele>
        <time>2012-10-07T06:52:31Z</time>
      </trkpt>
      <trkpt lat="45.56531" lon="4.70401">
        <ele>150</ele>
        <time>2012-10-07T06:52:33Z</time>
      </trkpt>
      <trkpt lat="45.56529" lon="4.70404">
        <ele>150</ele>
        <time>2012-10-07T06:52:35Z</time>
      </trkpt>
      <trkpt lat="45.56527" lon="4.70409">
        <ele>150</ele>
        <time>2012-10-07T06:52:37Z</time>
      </trkpt>
      <trkpt lat="45.56525" lon="4.70412">
        <ele>150</ele>
        <time>2012-10-07T06:52:39Z</time>
      </trkpt>
      <trkpt lat="45.56523" lon="4.70415">
        <ele>150</ele>
        <time>2012-10-07T06:52:41Z</time>
      </trkpt>
      <trkpt lat="45.56522" lon="4.70419">
        <ele>150</ele>
        <time>2012-10-07T06:52:43Z</time>
      </trkpt>
      <trkpt lat="45.56521" lon="4.70422">
        <ele>150</ele>
        <time>2012-10-07T06:52:45Z</time>
      </trkpt>
      <trkpt lat="45.5652" lon="4.70426">
        <ele>149</ele>
        <time>2012-10-07T06:52:47Z</time>
      </trkpt>
      <trkpt lat="45.56519" lon="4.70429">
        <ele>149</ele>
        <time>2012-10-07T06:52:49Z</time>
      </trkpt>
      <trkpt lat="45.56518" lon="4.70432">
        <ele>149</ele>
        <time>2012-10-07T06:52:52Z</time>
      </trkpt>
      <trkpt lat="45.56517" lon="4.70435">
        <ele>148</ele>
        <time>2012-10-07T06:52:54Z</time>
      </trkpt>
      <trkpt lat="45.56517" lon="4.70437">
        <ele>148</ele>
        <time>2012-10-07T06:52:56Z</time>
      </trkpt>
      <trkpt lat="45.56517" lon="4.70438">
        <ele>148</ele>
        <time>2012-10-07T06:52:58Z</time>
      </trkpt>
      <trkpt lat="45.56516" lon="4.70441">
        <ele>148</ele>
        <time>2012-10-07T06:53:00Z</time>
      </trkpt>
      <trkpt lat="45.56516" lon="4.70445">
        <ele>147</ele>
        <time>2012-10-07T06:53:02Z</time>
      </trkpt>
      <trkpt lat="45.56515" lon="4.70448">
        <ele>147</ele>
        <time>2012-10-07T06:53:04Z</time>
      </trkpt>
      <trkpt lat="45.56515" lon="4.7045">
        <ele>147</ele>
        <time>2012-10-07T06:53:06Z</time>
      </trkpt>
      <trkpt lat="45.56514" lon="4.70456">
        <ele>147</ele>
        <time>2012-10-07T06:53:08Z</time>
      </trkpt>
      <trkpt lat="45.56514" lon="4.70459">
        <ele>147</ele>
        <time>2012-10-07T06:53:10Z</time>
      </trkpt>
      <trkpt lat="45.56514" lon="4.70463">
        <ele>146</ele>
        <time>2012-10-07T06:53:12Z</time>
      </trkpt>
      <trkpt lat="45.56514" lon="4.70466">
        <ele>146</ele>
        <time>2012-10-07T06:53:14Z</time>
      </trkpt>
      <trkpt lat="45.56514" lon="4.7047">
        <ele>147</ele>
        <time>2012-10-07T06:53:16Z</time>
      </trkpt>
      <trkpt lat="45.56514" lon="4.70473">
        <ele>146</ele>
        <time>2012-10-07T06:53:19Z</time>
      </trkpt>
      <trkpt lat="45.56514" lon="4.70477">
        <ele>146</ele>
        <time>2012-10-07T06:53:21Z</time>
      </trkpt>
      <trkpt lat="45.56514" lon="4.7048">
        <ele>146</ele>
        <time>2012-10-07T06:53:23Z</time>
      </trkpt>
      <trkpt lat="45.56514" lon="4.70484">
        <ele>146</ele>
        <time>2012-10-07T06:53:25Z</time>
      </trkpt>
      <trkpt lat="45.56515" lon="4.70489">
        <ele>146</ele>
        <time>2012-10-07T06:53:27Z</time>
      </trkpt>
      <trkpt lat="45.56515" lon="4.70493">
        <ele>146</ele>
        <time>2012-10-07T06:53:29Z</time>
      </trkpt>
      <trkpt lat="45.56515" lon="4.70495">
        <ele>146</ele>
        <time>2012-10-07T06:53:31Z</time>
      </trkpt>
      <trkpt lat="45.56515" lon="4.70498">
        <ele>146</ele>
        <time>2012-10-07T06:53:33Z</time>
      </trkpt>
      <trkpt lat="45.56515" lon="4.70501">
        <ele>146</ele>
        <time>2012-10-07T06:53:35Z</time>
      </trkpt>
      <trkpt lat="45.56515" lon="4.70505">
        <ele>146</ele>
        <time>2012-10-07T06:53:37Z</time>
      </trkpt>
      <trkpt lat="45.56515" lon="4.70509">
        <ele>146</ele>
        <time>2012-10-07T06:53:39Z</time>
      </trkpt>
      <trkpt lat="45.56515" lon="4.70512">
        <ele>146</ele>
        <time>2012-10-07T06:53:42Z</time>
      </trkpt>
      <trkpt lat="45.56514" lon="4.70516">
        <ele>146</ele>
        <time>2012-10-07T06:53:44Z</time>
      </trkpt>
      <trkpt lat="45.56514" lon="4.70519">
        <ele>146</ele>
        <time>2012-10-07T06:53:46Z</time>
      </trkpt>
      <trkpt lat="45.56515" lon="4.70522">
        <ele>146</ele>
        <time>2012-10-07T06:53:48Z</time>
      </trkpt>
      <trkpt lat="45.56515" lon="4.70526">
        <ele>146</ele>
        <time>2012-10-07T06:53:50Z</time>
      </trkpt>
      <trkpt lat="45.56515" lon="4.70529">
        <ele>146</ele>
        <time>2012-10-07T06:53:52Z</time>
      </trkpt>
      <trkpt lat="45.56516" lon="4.70532">
        <ele>146</ele>
        <time>2012-10-07T06:53:54Z</time>
      </trkpt>
      <trkpt lat="45.56516" lon="4.70536">
        <ele>146</ele>
        <time>2012-10-07T06:53:56Z</time>
      </trkpt>
      <trkpt lat="45.56516" lon="4.7054">
        <ele>146</ele>
        <time>2012-10-07T06:53:58Z</time>
      </trkpt>
      <trkpt lat="45.56516" lon="4.70543">
        <ele>146</ele>
        <time>2012-10-07T06:54:00Z</time>
      </trkpt>
      <trkpt lat="45.56517" lon="4.70546">
        <ele>146</ele>
        <time>2012-10-07T06:54:02Z</time>
      </trkpt>
      <trkpt lat="45.56517" lon="4.7055">
        <ele>146</ele>
        <time>2012-10-07T06:54:05Z</time>
      </trkpt>
      <trkpt lat="45.56516" lon="4.70553">
        <ele>146</ele>
        <time>2012-10-07T06:54:07Z</time>
      </trkpt>
      <trkpt lat="45.56517" lon="4.70557">
        <ele>146</ele>
        <time>2012-10-07T06:54:09Z</time>
      </trkpt>
      <trkpt lat="45.56517" lon="4.7056">
        <ele>146</ele>
        <time>2012-10-07T06:54:11Z</time>
      </trkpt>
      <trkpt lat="45.56517" lon="4.70563">
        <ele>146</ele>
        <time>2012-10-07T06:54:13Z</time>
      </trkpt>
      <trkpt lat="45.56516" lon="4.70567">
        <ele>146</ele>
        <time>2012-10-07T06:54:15Z</time>
      </trkpt>
      <trkpt lat="45.56516" lon="4.7057">
        <ele>146</ele>
        <time>2012-10-07T06:54:17Z</time>
      </trkpt>
      <trkpt lat="45.56516" lon="4.70573">
        <ele>146</ele>
        <time>2012-10-07T06:54:19Z</time>
      </trkpt>
      <trkpt lat="45.56516" lon="4.70576">
        <ele>146</ele>
        <time>2012-10-07T06:54:21Z</time>
      </trkpt>
      <trkpt lat="45.56516" lon="4.70581">
        <ele>146</ele>
        <time>2012-10-07T06:54:23Z</time>
      </trkpt>
      <trkpt lat="45.56516" lon="4.70584">
        <ele>146</ele>
        <time>2012-10-07T06:54:25Z</time>
      </trkpt>
      <trkpt lat="45.56515" lon="4.70588">
        <ele>146</ele>
        <time>2012-10-07T06:54:27Z</time>
      </trkpt>
      <trkpt lat="45.56515" lon="4.70591">
        <ele>146</ele>
        <time>2012-10-07T06:54:29Z</time>
      </trkpt>
      <trkpt lat="45.56514" lon="4.70595">
        <ele>146</ele>
        <time>2012-10-07T06:54:31Z</time>
      </trkpt>
      <trkpt lat="45.56514" lon="4.70598">
        <ele>146</ele>
        <time>2012-10-07T06:54:33Z</time>
      </trkpt>
      <trkpt lat="45.56514" lon="4.70601">
        <ele>146</ele>
        <time>2012-10-07T06:54:35Z</time>
      </trkpt>
      <trkpt lat="45.56514" lon="4.70605">
        <ele>146</ele>
        <time>2012-10-07T06:54:37Z</time>
      </trkpt>
      <trkpt lat="45.56515" lon="4.70608">
        <ele>146</ele>
        <time>2012-10-07T06:54:39Z</time>
      </trkpt>
      <trkpt lat="45.56515" lon="4.70611">
        <ele>146</ele>
        <time>2012-10-07T06:54:41Z</time>
      </trkpt>
      <trkpt lat="45.56515" lon="4.70614">
        <ele>147</ele>
        <time>2012-10-07T06:54:43Z</time>
      </trkpt>
      <trkpt lat="45.56514" lon="4.70618">
        <ele>147</ele>
        <time>2012-10-07T06:54:46Z</time>
      </trkpt>
      <trkpt lat="45.56515" lon="4.70622">
        <ele>147</ele>
        <time>2012-10-07T06:54:48Z</time>
      </trkpt>
      <trkpt lat="45.56515" lon="4.70625">
        <ele>147</ele>
        <time>2012-10-07T06:54:50Z</time>
      </trkpt>
      <trkpt lat="45.56516" lon="4.70628">
        <ele>147</ele>
        <time>2012-10-07T06:54:52Z</time>
      </trkpt>
      <trkpt lat="45.56517" lon="4.7063">
        <ele>147</ele>
        <time>2012-10-07T06:54:54Z</time>
      </trkpt>
      <trkpt lat="45.56517" lon="4.70634">
        <ele>147</ele>
        <time>2012-10-07T06:54:56Z</time>
      </trkpt>
      <trkpt lat="45.56516" lon="4.70638">
        <ele>147</ele>
        <time>2012-10-07T06:54:58Z</time>
      </trkpt>
      <trkpt lat="45.56515" lon="4.70641">
        <ele>147</ele>
        <time>2012-10-07T06:55:00Z</time>
      </trkpt>
      <trkpt lat="45.56515" lon="4.70644">
        <ele>148</ele>
        <time>2012-10-07T06:55:02Z</time>
      </trkpt>
      <trkpt lat="45.56516" lon="4.70648">
        <ele>148</ele>
        <time>2012-10-07T06:55:05Z</time>
      </trkpt>
      <trkpt lat="45.56517" lon="4.70651">
        <ele>148</ele>
        <time>2012-10-07T06:55:07Z</time>
      </trkpt>
      <trkpt lat="45.56517" lon="4.70654">
        <ele>148</ele>
        <time>2012-10-07T06:55:09Z</time>
      </trkpt>
      <trkpt lat="45.56519" lon="4.70658">
        <ele>149</ele>
        <time>2012-10-07T06:55:11Z</time>
      </trkpt>
      <trkpt lat="45.5652" lon="4.70661">
        <ele>149</ele>
        <time>2012-10-07T06:55:13Z</time>
      </trkpt>
      <trkpt lat="45.5652" lon="4.70663">
        <ele>149</ele>
        <time>2012-10-07T06:55:15Z</time>
      </trkpt>
      <trkpt lat="45.56521" lon="4.70666">
        <ele>150</ele>
        <time>2012-10-07T06:55:17Z</time>
      </trkpt>
      <trkpt lat="45.56522" lon="4.70669">
        <ele>150</ele>
        <time>2012-10-07T06:55:20Z</time>
      </trkpt>
      <trkpt lat="45.56523" lon="4.70671">
        <ele>150</ele>
        <time>2012-10-07T06:55:22Z</time>
      </trkpt>
      <trkpt lat="45.56523" lon="4.70671">
        <ele>150</ele>
        <time>2012-10-07T06:55:24Z</time>
      </trkpt>
      <trkpt lat="45.56523" lon="4.70672">
        <ele>150</ele>
        <time>2012-10-07T06:55:26Z</time>
      </trkpt>
      <trkpt lat="45.56523" lon="4.70672">
        <ele>151</ele>
        <time>2012-10-07T06:55:28Z</time>
      </trkpt>
      <trkpt lat="45.56523" lon="4.70673">
        <ele>151</ele>
        <time>2012-10-07T06:55:30Z</time>
      </trkpt>
      <trkpt lat="45.56524" lon="4.70675">
        <ele>151</ele>
        <time>2012-10-07T06:55:32Z</time>
      </trkpt>
      <trkpt lat="45.56525" lon="4.70677">
        <ele>151</ele>
        <time>2012-10-07T06:55:34Z</time>
      </trkpt>
      <trkpt lat="45.56526" lon="4.70679">
        <ele>151</ele>
        <time>2012-10-07T06:55:36Z</time>
      </trkpt>
      <trkpt lat="45.56527" lon="4.70681">
        <ele>151</ele>
        <time>2012-10-07T06:55:38Z</time>
      </trkpt>
      <trkpt lat="45.56527" lon="4.70683">
        <ele>152</ele>
        <time>2012-10-07T06:55:40Z</time>
      </trkpt>
      <trkpt lat="45.56528" lon="4.70685">
        <ele>152</ele>
        <time>2012-10-07T06:55:42Z</time>
      </trkpt>
      <trkpt lat="45.56528" lon="4.70688">
        <ele>152</ele>
        <time>2012-10-07T06:55:44Z</time>
      </trkpt>
      <trkpt lat="45.56529" lon="4.70691">
        <ele>152</ele>
        <time>2012-10-07T06:55:46Z</time>
      </trkpt>
      <trkpt lat="45.5653" lon="4.70694">
        <ele>152</ele>
        <time>2012-10-07T06:55:49Z</time>
      </trkpt>
      <trkpt lat="45.56531" lon="4.70697">
        <ele>152</ele>
        <time>2012-10-07T06:55:51Z</time>
      </trkpt>
      <trkpt lat="45.56533" lon="4.707">
        <ele>152</ele>
        <time>2012-10-07T06:55:53Z</time>
      </trkpt>
      <trkpt lat="45.56534" lon="4.70703">
        <ele>152</ele>
        <time>2012-10-07T06:55:55Z</time>
      </trkpt>
      <trkpt lat="45.56535" lon="4.70705">
        <ele>152</ele>
        <time>2012-10-07T06:55:57Z</time>
      </trkpt>
      <trkpt lat="45.56536" lon="4.70707">
        <ele>152</ele>
        <time>2012-10-07T06:55:59Z</time>
      </trkpt>
      <trkpt lat="45.56538" lon="4.7071">
        <ele>152</ele>
        <time>2012-10-07T06:56:01Z</time>
      </trkpt>
      <trkpt lat="45.5654" lon="4.70712">
        <ele>152</ele>
        <time>2012-10-07T06:56:03Z</time>
      </trkpt>
      <trkpt lat="45.56542" lon="4.70713">
        <ele>152</ele>
        <time>2012-10-07T06:56:05Z</time>
      </trkpt>
      <trkpt lat="45.56543" lon="4.70715">
        <ele>152</ele>
        <time>2012-10-07T06:56:07Z</time>
      </trkpt>
      <trkpt lat="45.56544" lon="4.70717">
        <ele>152</ele>
        <time>2012-10-07T06:56:09Z</time>
      </trkpt>
      <trkpt lat="45.56546" lon="4.70719">
        <ele>151</ele>
        <time>2012-10-07T06:56:11Z</time>
      </trkpt>
      <trkpt lat="45.56547" lon="4.70722">
        <ele>152</ele>
        <time>2012-10-07T06:56:13Z</time>
      </trkpt>
      <trkpt lat="45.56548" lon="4.70724">
        <ele>152</ele>
        <time>2012-10-07T06:56:15Z</time>
      </trkpt>
      <trkpt lat="45.5655" lon="4.70726">
        <ele>152</ele>
        <time>2012-10-07T06:56:18Z</time>
      </trkpt>
      <trkpt lat="45.56551" lon="4.70728">
        <ele>152</ele>
        <time>2012-10-07T06:56:20Z</time>
      </trkpt>
      <trkpt lat="45.56553" lon="4.7073">
        <ele>152</ele>
        <time>2012-10-07T06:56:22Z</time>
      </trkpt>
      <trkpt lat="45.56555" lon="4.70731">
        <ele>152</ele>
        <time>2012-10-07T06:56:24Z</time>
      </trkpt>
      <trkpt lat="45.56556" lon="4.70733">
        <ele>151</ele>
        <time>2012-10-07T06:56:26Z</time>
      </trkpt>
      <trkpt lat="45.56558" lon="4.70735">
        <ele>151</ele>
        <time>2012-10-07T06:56:28Z</time>
      </trkpt>
      <trkpt lat="45.5656" lon="4.70735">
        <ele>151</ele>
        <time>2012-10-07T06:56:30Z</time>
      </trkpt>
      <trkpt lat="45.56561" lon="4.70736">
        <ele>151</ele>
        <time>2012-10-07T06:56:32Z</time>
      </trkpt>
      <trkpt lat="45.56562" lon="4.70738">
        <ele>151</ele>
        <time>2012-10-07T06:56:34Z</time>
      </trkpt>
      <trkpt lat="45.56563" lon="4.70739">
        <ele>151</ele>
        <time>2012-10-07T06:56:36Z</time>
      </trkpt>
      <trkpt lat="45.56564" lon="4.70741">
        <ele>151</ele>
        <time>2012-10-07T06:56:39Z</time>
      </trkpt>
      <trkpt lat="45.56566" lon="4.70742">
        <ele>151</ele>
        <time>2012-10-07T06:56:41Z</time>
      </trkpt>
      <trkpt lat="45.56567" lon="4.70744">
        <ele>151</ele>
        <time>2012-10-07T06:56:43Z</time>
      </trkpt>
      <trkpt lat="45.56569" lon="4.70745">
        <ele>151</ele>
        <time>2012-10-07T06:56:45Z</time>
      </trkpt>
      <trkpt lat="45.5657" lon="4.70746">
        <ele>151</ele>
        <time>2012-10-07T06:56:47Z</time>
      </trkpt>
      <trkpt lat="45.5657" lon="4.70747">
        <ele>151</ele>
        <time>2012-10-07T06:56:49Z</time>
      </trkpt>
      <trkpt lat="45.56571" lon="4.70749">
        <ele>152</ele>
        <time>2012-10-07T06:56:51Z</time>
      </trkpt>
      <trkpt lat="45.56572" lon="4.70751">
        <ele>151</ele>
        <time>2012-10-07T06:56:53Z</time>
      </trkpt>
      <trkpt lat="45.56573" lon="4.70753">
        <ele>151</ele>
        <time>2012-10-07T06:56:55Z</time>
      </trkpt>
      <trkpt lat="45.56574" lon="4.70755">
        <ele>151</ele>
        <time>2012-10-07T06:56:57Z</time>
      </trkpt>
      <trkpt lat="45.56576" lon="4.70759">
        <ele>151</ele>
        <time>2012-10-07T06:56:59Z</time>
      </trkpt>
      <trkpt lat="45.56577" lon="4.70761">
        <ele>151</ele>
        <time>2012-10-07T06:57:01Z</time>
      </trkpt>
      <trkpt lat="45.56578" lon="4.70763">
        <ele>151</ele>
        <time>2012-10-07T06:57:03Z</time>
      </trkpt>
      <trkpt lat="45.5658" lon="4.70766">
        <ele>151</ele>
        <time>2012-10-07T06:57:06Z</time>
      </trkpt>
      <trkpt lat="45.56581" lon="4.70768">
        <ele>151</ele>
        <time>2012-10-07T06:57:08Z</time>
      </trkpt>
      <trkpt lat="45.56583" lon="4.70769">
        <ele>151</ele>
        <time>2012-10-07T06:57:10Z</time>
      </trkpt>
      <trkpt lat="45.56584" lon="4.70774">
        <ele>151</ele>
        <time>2012-10-07T06:57:12Z</time>
      </trkpt>
      <trkpt lat="45.56585" lon="4.70777">
        <ele>151</ele>
        <time>2012-10-07T06:57:14Z</time>
      </trkpt>
      <trkpt lat="45.56587" lon="4.70779">
        <ele>151</ele>
        <time>2012-10-07T06:57:16Z</time>
      </trkpt>
      <trkpt lat="45.56588" lon="4.7078">
        <ele>151</ele>
        <time>2012-10-07T06:57:18Z</time>
      </trkpt>
      <trkpt lat="45.56589" lon="4.70782">
        <ele>151</ele>
        <time>2012-10-07T06:57:20Z</time>
      </trkpt>
      <trkpt lat="45.5659" lon="4.70784">
        <ele>151</ele>
        <time>2012-10-07T06:57:22Z</time>
      </trkpt>
      <trkpt lat="45.56591" lon="4.70786">
        <ele>151</ele>
        <time>2012-10-07T06:57:24Z</time>
      </trkpt>
      <trkpt lat="45.56592" lon="4.70788">
        <ele>151</ele>
        <time>2012-10-07T06:57:26Z</time>
      </trkpt>
      <trkpt lat="45.56592" lon="4.7079">
        <ele>151</ele>
        <time>2012-10-07T06:57:28Z</time>
      </trkpt>
      <trkpt lat="45.56594" lon="4.70792">
        <ele>151</ele>
        <time>2012-10-07T06:57:31Z</time>
      </trkpt>
      <trkpt lat="45.56596" lon="4.70794">
        <ele>151</ele>
        <time>2012-10-07T06:57:33Z</time>
      </trkpt>
      <trkpt lat="45.56597" lon="4.70795">
        <ele>151</ele>
        <time>2012-10-07T06:57:35Z</time>
      </trkpt>
      <trkpt lat="45.56599" lon="4.70798">
        <ele>150</ele>
        <time>2012-10-07T06:57:37Z</time>
      </trkpt>
      <trkpt lat="45.56599" lon="4.70801">
        <ele>150</ele>
        <time>2012-10-07T06:57:39Z</time>
      </trkpt>
      <trkpt lat="45.56599" lon="4.70806">
        <ele>150</ele>
        <time>2012-10-07T06:57:41Z</time>
      </trkpt>
      <trkpt lat="45.56599" lon="4.70809">
        <ele>150</ele>
        <time>2012-10-07T06:57:43Z</time>
      </trkpt>
      <trkpt lat="45.566" lon="4.70812">
        <ele>150</ele>
        <time>2012-10-07T06:57:45Z</time>
      </trkpt>
      <trkpt lat="45.566" lon="4.70815">
        <ele>149</ele>
        <time>2012-10-07T06:57:48Z</time>
      </trkpt>
      <trkpt lat="45.56601" lon="4.70818">
        <ele>149</ele>
        <time>2012-10-07T06:57:50Z</time>
      </trkpt>
      <trkpt lat="45.56601" lon="4.70821">
        <ele>149</ele>
        <time>2012-10-07T06:57:52Z</time>
      </trkpt>
      <trkpt lat="45.56602" lon="4.70824">
        <ele>149</ele>
        <time>2012-10-07T06:57:54Z</time>
      </trkpt>
      <trkpt lat="45.56604" lon="4.70829">
        <ele>149</ele>
        <time>2012-10-07T06:57:56Z</time>
      </trkpt>
      <trkpt lat="45.56604" lon="4.70833">
        <ele>149</ele>
        <time>2012-10-07T06:57:58Z</time>
      </trkpt>
      <trkpt lat="45.56604" lon="4.70836">
        <ele>149</ele>
        <time>2012-10-07T06:58:00Z</time>
      </trkpt>
      <trkpt lat="45.56604" lon="4.7084">
        <ele>149</ele>
        <time>2012-10-07T06:58:02Z</time>
      </trkpt>
      <trkpt lat="45.56604" lon="4.70843">
        <ele>149</ele>
        <time>2012-10-07T06:58:04Z</time>
      </trkpt>
      <trkpt lat="45.56605" lon="4.70846">
        <ele>148</ele>
        <time>2012-10-07T06:58:06Z</time>
      </trkpt>
      <trkpt lat="45.56606" lon="4.70849">
        <ele>148</ele>
        <time>2012-10-07T06:58:08Z</time>
      </trkpt>
      <trkpt lat="45.56607" lon="4.70852">
        <ele>148</ele>
        <time>2012-10-07T06:58:10Z</time>
      </trkpt>
      <trkpt lat="45.56608" lon="4.70855">
        <ele>148</ele>
        <time>2012-10-07T06:58:12Z</time>
      </trkpt>
      <trkpt lat="45.56609" lon="4.70858">
        <ele>148</ele>
        <time>2012-10-07T06:58:14Z</time>
      </trkpt>
      <trkpt lat="45.5661" lon="4.7086">
        <ele>148</ele>
        <time>2012-10-07T06:58:17Z</time>
      </trkpt>
      <trkpt lat="45.56612" lon="4.70863">
        <ele>148</ele>
        <time>2012-10-07T06:58:19Z</time>
      </trkpt>
      <trkpt lat="45.56612" lon="4.70866">
        <ele>148</ele>
        <time>2012-10-07T06:58:21Z</time>
      </trkpt>
      <trkpt lat="45.56614" lon="4.70871">
        <ele>147</ele>
        <time>2012-10-07T06:58:23Z</time>
      </trkpt>
      <trkpt lat="45.56614" lon="4.70874">
        <ele>147</ele>
        <time>2012-10-07T06:58:25Z</time>
      </trkpt>
      <trkpt lat="45.56615" lon="4.70877">
        <ele>147</ele>
        <time>2012-10-07T06:58:27Z</time>
      </trkpt>
      <trkpt lat="45.56616" lon="4.7088">
        <ele>147</ele>
        <time>2012-10-07T06:58:30Z</time>
      </trkpt>
      <trkpt lat="45.56617" lon="4.70882">
        <ele>147</ele>
        <time>2012-10-07T06:58:32Z</time>
      </trkpt>
      <trkpt lat="45.56617" lon="4.70885">
        <ele>147</ele>
        <time>2012-10-07T06:58:34Z</time>
      </trkpt>
      <trkpt lat="45.56618" lon="4.70888">
        <ele>147</ele>
        <time>2012-10-07T06:58:36Z</time>
      </trkpt>
      <trkpt lat="45.5662" lon="4.70892">
        <ele>146</ele>
        <time>2012-10-07T06:58:38Z</time>
      </trkpt>
      <trkpt lat="45.56622" lon="4.70894">
        <ele>146</ele>
        <time>2012-10-07T06:58:40Z</time>
      </trkpt>
      <trkpt lat="45.56623" lon="4.70897">
        <ele>146</ele>
        <time>2012-10-07T06:58:42Z</time>
      </trkpt>
      <trkpt lat="45.56624" lon="4.709">
        <ele>146</ele>
        <time>2012-10-07T06:58:44Z</time>
      </trkpt>
      <trkpt lat="45.56625" lon="4.70903">
        <ele>146</ele>
        <time>2012-10-07T06:58:46Z</time>
      </trkpt>
      <trkpt lat="45.56626" lon="4.70906">
        <ele>146</ele>
        <time>2012-10-07T06:58:49Z</time>
      </trkpt>
      <trkpt lat="45.56627" lon="4.70909">
        <ele>146</ele>
        <time>2012-10-07T06:58:51Z</time>
      </trkpt>
      <trkpt lat="45.56628" lon="4.70912">
        <ele>145</ele>
        <time>2012-10-07T06:58:53Z</time>
      </trkpt>
      <trkpt lat="45.56628" lon="4.70916">
        <ele>145</ele>
        <time>2012-10-07T06:58:55Z</time>
      </trkpt>
      <trkpt lat="45.56628" lon="4.70919">
        <ele>145</ele>
        <time>2012-10-07T06:58:57Z</time>
      </trkpt>
      <trkpt lat="45.56629" lon="4.70922">
        <ele>145</ele>
        <time>2012-10-07T06:58:59Z</time>
      </trkpt>
      <trkpt lat="45.5663" lon="4.70925">
        <ele>145</ele>
        <time>2012-10-07T06:59:01Z</time>
      </trkpt>
      <trkpt lat="45.5663" lon="4.70929">
        <ele>145</ele>
        <time>2012-10-07T06:59:03Z</time>
      </trkpt>
      <trkpt lat="45.5663" lon="4.70933">
        <ele>145</ele>
        <time>2012-10-07T06:59:05Z</time>
      </trkpt>
      <trkpt lat="45.56631" lon="4.70936">
        <ele>145</ele>
        <time>2012-10-07T06:59:07Z</time>
      </trkpt>
      <trkpt lat="45.56631" lon="4.70939">
        <ele>145</ele>
        <time>2012-10-07T06:59:10Z</time>
      </trkpt>
      <trkpt lat="45.56632" lon="4.70942">
        <ele>145</ele>
        <time>2012-10-07T06:59:12Z</time>
      </trkpt>
      <trkpt lat="45.56633" lon="4.70944">
        <ele>145</ele>
        <time>2012-10-07T06:59:14Z</time>
      </trkpt>
      <trkpt lat="45.56634" lon="4.70947">
        <ele>145</ele>
        <time>2012-10-07T06:59:16Z</time>
      </trkpt>
      <trkpt lat="45.56635" lon="4.7095">
        <ele>145</ele>
        <time>2012-10-07T06:59:18Z</time>
      </trkpt>
      <trkpt lat="45.56636" lon="4.70953">
        <ele>145</ele>
        <time>2012-10-07T06:59:20Z</time>
      </trkpt>
      <trkpt lat="45.56637" lon="4.70957">
        <ele>145</ele>
        <time>2012-10-07T06:59:22Z</time>
      </trkpt>
      <trkpt lat="45.56638" lon="4.7096">
        <ele>145</ele>
        <time>2012-10-07T06:59:24Z</time>
      </trkpt>
      <trkpt lat="45.56639" lon="4.70963">
        <ele>145</ele>
        <time>2012-10-07T06:59:26Z</time>
      </trkpt>
      <trkpt lat="45.56641" lon="4.70967">
        <ele>145</ele>
        <time>2012-10-07T06:59:28Z</time>
      </trkpt>
      <trkpt lat="45.56643" lon="4.7097">
        <ele>145</ele>
        <time>2012-10-07T06:59:30Z</time>
      </trkpt>
      <trkpt lat="45.56644" lon="4.70972">
        <ele>145</ele>
        <time>2012-10-07T06:59:32Z</time>
      </trkpt>
      <trkpt lat="45.56646" lon="4.70975">
        <ele>144</ele>
        <time>2012-10-07T06:59:34Z</time>
      </trkpt>
      <trkpt lat="45.56646" lon="4.70979">
        <ele>144</ele>
        <time>2012-10-07T06:59:37Z</time>
      </trkpt>
      <trkpt lat="45.56647" lon="4.70982">
        <ele>144</ele>
        <time>2012-10-07T06:59:39Z</time>
      </trkpt>
      <trkpt lat="45.56648" lon="4.70984">
        <ele>144</ele>
        <time>2012-10-07T06:59:41Z</time>
      </trkpt>
      <trkpt lat="45.56649" lon="4.70987">
        <ele>144</ele>
        <time>2012-10-07T06:59:43Z</time>
      </trkpt>
      <trkpt lat="45.56651" lon="4.70991">
        <ele>144</ele>
        <time>2012-10-07T06:59:45Z</time>
      </trkpt>
      <trkpt lat="45.56652" lon="4.70994">
        <ele>144</ele>
        <time>2012-10-07T06:59:47Z</time>
      </trkpt>
      <trkpt lat="45.56653" lon="4.70997">
        <ele>144</ele>
        <time>2012-10-07T06:59:49Z</time>
      </trkpt>
      <trkpt lat="45.56654" lon="4.71">
        <ele>144</ele>
        <time>2012-10-07T06:59:52Z</time>
      </trkpt>
      <trkpt lat="45.56655" lon="4.71003">
        <ele>144</ele>
        <time>2012-10-07T06:59:54Z</time>
      </trkpt>
      <trkpt lat="45.56657" lon="4.71007">
        <ele>144</ele>
        <time>2012-10-07T06:59:56Z</time>
      </trkpt>
      <trkpt lat="45.56659" lon="4.7101">
        <ele>143</ele>
        <time>2012-10-07T06:59:58Z</time>
      </trkpt>
      <trkpt lat="45.56659" lon="4.71013">
        <ele>143</ele>
        <time>2012-10-07T07:00:00Z</time>
      </trkpt>
      <trkpt lat="45.5666" lon="4.71017">
        <ele>143</ele>
        <time>2012-10-07T07:00:02Z</time>
      </trkpt>
      <trkpt lat="45.56661" lon="4.7102">
        <ele>143</ele>
        <time>2012-10-07T07:00:04Z</time>
      </trkpt>
      <trkpt lat="45.56661" lon="4.71024">
        <ele>143</ele>
        <time>2012-10-07T07:00:06Z</time>
      </trkpt>
      <trkpt lat="45.56662" lon="4.71027">
        <ele>142</ele>
        <time>2012-10-07T07:00:09Z</time>
      </trkpt>
      <trkpt lat="45.56662" lon="4.7103">
        <ele>142</ele>
        <time>2012-10-07T07:00:11Z</time>
      </trkpt>
      <trkpt lat="45.56664" lon="4.71033">
        <ele>142</ele>
        <time>2012-10-07T07:00:13Z</time>
      </trkpt>
      <trkpt lat="45.56665" lon="4.71036">
        <ele>142</ele>
        <time>2012-10-07T07:00:15Z</time>
      </trkpt>
      <trkpt lat="45.56667" lon="4.71041">
        <ele>142</ele>
        <time>2012-10-07T07:00:17Z</time>
      </trkpt>
      <trkpt lat="45.56668" lon="4.71045">
        <ele>142</ele>
        <time>2012-10-07T07:00:19Z</time>
      </trkpt>
      <trkpt lat="45.5667" lon="4.71047">
        <ele>141</ele>
        <time>2012-10-07T07:00:21Z</time>
      </trkpt>
      <trkpt lat="45.56671" lon="4.7105">
        <ele>141</ele>
        <time>2012-10-07T07:00:23Z</time>
      </trkpt>
      <trkpt lat="45.56673" lon="4.71053">
        <ele>140</ele>
        <time>2012-10-07T07:00:25Z</time>
      </trkpt>
      <trkpt lat="45.56674" lon="4.71056">
        <ele>140</ele>
        <time>2012-10-07T07:00:27Z</time>
      </trkpt>
      <trkpt lat="45.56675" lon="4.71059">
        <ele>140</ele>
        <time>2012-10-07T07:00:29Z</time>
      </trkpt>
      <trkpt lat="45.56677" lon="4.71061">
        <ele>140</ele>
        <time>2012-10-07T07:00:31Z</time>
      </trkpt>
      <trkpt lat="45.56678" lon="4.71064">
        <ele>140</ele>
        <time>2012-10-07T07:00:33Z</time>
      </trkpt>
      <trkpt lat="45.56679" lon="4.71067">
        <ele>140</ele>
        <time>2012-10-07T07:00:35Z</time>
      </trkpt>
      <trkpt lat="45.56681" lon="4.7107">
        <ele>140</ele>
        <time>2012-10-07T07:00:38Z</time>
      </trkpt>
      <trkpt lat="45.56682" lon="4.71072">
        <ele>140</ele>
        <time>2012-10-07T07:00:40Z</time>
      </trkpt>
      <trkpt lat="45.56683" lon="4.71075">
        <ele>140</ele>
        <time>2012-10-07T07:00:42Z</time>
      </trkpt>
      <trkpt lat="45.56684" lon="4.71077">
        <ele>140</ele>
        <time>2012-10-07T07:00:44Z</time>
      </trkpt>
      <trkpt lat="45.56686" lon="4.7108">
        <ele>140</ele>
        <time>2012-10-07T07:00:46Z</time>
      </trkpt>
      <trkpt lat="45.56687" lon="4.71083">
        <ele>140</ele>
        <time>2012-10-07T07:00:48Z</time>
      </trkpt>
      <trkpt lat="45.56688" lon="4.71086">
        <ele>140</ele>
        <time>2012-10-07T07:00:50Z</time>
      </trkpt>
      <trkpt lat="45.56689" lon="4.71088">
        <ele>140</ele>
        <time>2012-10-07T07:00:52Z</time>
      </trkpt>
      <trkpt lat="45.56691" lon="4.7109">
        <ele>140</ele>
        <time>2012-10-07T07:00:54Z</time>
      </trkpt>
      <trkpt lat="45.56692" lon="4.71092">
        <ele>140</ele>
        <time>2012-10-07T07:00:56Z</time>
      </trkpt>
      <trkpt lat="45.56692" lon="4.71095">
        <ele>140</ele>
        <time>2012-10-07T07:00:59Z</time>
      </trkpt>
      <trkpt lat="45.56693" lon="4.71099">
        <ele>140</ele>
        <time>2012-10-07T07:01:01Z</time>
      </trkpt>
      <trkpt lat="45.56692" lon="4.71102">
        <ele>140</ele>
        <time>2012-10-07T07:01:03Z</time>
      </trkpt>
      <trkpt lat="45.56692" lon="4.71106">
        <ele>140</ele>
        <time>2012-10-07T07:01:05Z</time>
      </trkpt>
      <trkpt lat="45.56694" lon="4.71108">
        <ele>140</ele>
        <time>2012-10-07T07:01:07Z</time>
      </trkpt>
      <trkpt lat="45.56695" lon="4.7111">
        <ele>140</ele>
        <time>2012-10-07T07:01:09Z</time>
      </trkpt>
      <trkpt lat="45.56696" lon="4.71112">
        <ele>140</ele>
        <time>2012-10-07T07:01:11Z</time>
      </trkpt>
      <trkpt lat="45.56698" lon="4.71116">
        <ele>140</ele>
        <time>2012-10-07T07:01:13Z</time>
      </trkpt>
      <trkpt lat="45.56699" lon="4.71119">
        <ele>140</ele>
        <time>2012-10-07T07:01:15Z</time>
      </trkpt>
      <trkpt lat="45.56699" lon="4.71122">
        <ele>140</ele>
        <time>2012-10-07T07:01:17Z</time>
      </trkpt>
      <trkpt lat="45.567" lon="4.71124">
        <ele>140</ele>
        <time>2012-10-07T07:01:19Z</time>
      </trkpt>
      <trkpt lat="45.56702" lon="4.71127">
        <ele>140</ele>
        <time>2012-10-07T07:01:21Z</time>
      </trkpt>
      <trkpt lat="45.56703" lon="4.7113">
        <ele>140</ele>
        <time>2012-10-07T07:01:23Z</time>
      </trkpt>
      <trkpt lat="45.56704" lon="4.71132">
        <ele>140</ele>
        <time>2012-10-07T07:01:25Z</time>
      </trkpt>
      <trkpt lat="45.56706" lon="4.71134">
        <ele>140</ele>
        <time>2012-10-07T07:01:27Z</time>
      </trkpt>
      <trkpt lat="45.56708" lon="4.71136">
        <ele>140</ele>
        <time>2012-10-07T07:01:29Z</time>
      </trkpt>
      <trkpt lat="45.5671" lon="4.71138">
        <ele>140</ele>
        <time>2012-10-07T07:01:31Z</time>
      </trkpt>
      <trkpt lat="45.56711" lon="4.7114">
        <ele>139</ele>
        <time>2012-10-07T07:01:34Z</time>
      </trkpt>
      <trkpt lat="45.56713" lon="4.71142">
        <ele>139</ele>
        <time>2012-10-07T07:01:36Z</time>
      </trkpt>
      <trkpt lat="45.56714" lon="4.71145">
        <ele>139</ele>
        <time>2012-10-07T07:01:38Z</time>
      </trkpt>
      <trkpt lat="45.56715" lon="4.71147">
        <ele>139</ele>
        <time>2012-10-07T07:01:40Z</time>
      </trkpt>
      <trkpt lat="45.56716" lon="4.71151">
        <ele>139</ele>
        <time>2012-10-07T07:01:42Z</time>
      </trkpt>
      <trkpt lat="45.56718" lon="4.71154">
        <ele>139</ele>
        <time>2012-10-07T07:01:44Z</time>
      </trkpt>
      <trkpt lat="45.5672" lon="4.71157">
        <ele>139</ele>
        <time>2012-10-07T07:01:46Z</time>
      </trkpt>
      <trkpt lat="45.56721" lon="4.7116">
        <ele>139</ele>
        <time>2012-10-07T07:01:48Z</time>
      </trkpt>
      <trkpt lat="45.56723" lon="4.71163">
        <ele>139</ele>
        <time>2012-10-07T07:01:51Z</time>
      </trkpt>
      <trkpt lat="45.56725" lon="4.71165">
        <ele>139</ele>
        <time>2012-10-07T07:01:53Z</time>
      </trkpt>
      <trkpt lat="45.56726" lon="4.71168">
        <ele>139</ele>
        <time>2012-10-07T07:01:55Z</time>
      </trkpt>
      <trkpt lat="45.56728" lon="4.71171">
        <ele>139</ele>
        <time>2012-10-07T07:01:57Z</time>
      </trkpt>
      <trkpt lat="45.56731" lon="4.71174">
        <ele>139</ele>
        <time>2012-10-07T07:01:59Z</time>
      </trkpt>
      <trkpt lat="45.56733" lon="4.71177">
        <ele>139</ele>
        <time>2012-10-07T07:02:01Z</time>
      </trkpt>
      <trkpt lat="45.56735" lon="4.71179">
        <ele>139</ele>
        <time>2012-10-07T07:02:03Z</time>
      </trkpt>
      <trkpt lat="45.56736" lon="4.71182">
        <ele>139</ele>
        <time>2012-10-07T07:02:05Z</time>
      </trkpt>
      <trkpt lat="45.56739" lon="4.71185">
        <ele>139</ele>
        <time>2012-10-07T07:02:07Z</time>
      </trkpt>
      <trkpt lat="45.56741" lon="4.71187">
        <ele>139</ele>
        <time>2012-10-07T07:02:09Z</time>
      </trkpt>
      <trkpt lat="45.56743" lon="4.71189">
        <ele>139</ele>
        <time>2012-10-07T07:02:11Z</time>
      </trkpt>
      <trkpt lat="45.56745" lon="4.71193">
        <ele>139</ele>
        <time>2012-10-07T07:02:13Z</time>
      </trkpt>
      <trkpt lat="45.56747" lon="4.71196">
        <ele>139</ele>
        <time>2012-10-07T07:02:15Z</time>
      </trkpt>
      <trkpt lat="45.56748" lon="4.71199">
        <ele>139</ele>
        <time>2012-10-07T07:02:17Z</time>
      </trkpt>
      <trkpt lat="45.56749" lon="4.71201">
        <ele>139</ele>
        <time>2012-10-07T07:02:20Z</time>
      </trkpt>
      <trkpt lat="45.5675" lon="4.71202">
        <ele>139</ele>
        <time>2012-10-07T07:02:22Z</time>
      </trkpt>
      <trkpt lat="45.56752" lon="4.71204">
        <ele>139</ele>
        <time>2012-10-07T07:02:24Z</time>
      </trkpt>
      <trkpt lat="45.56753" lon="4.71206">
        <ele>138</ele>
        <time>2012-10-07T07:02:26Z</time>
      </trkpt>
      <trkpt lat="45.56755" lon="4.71208">
        <ele>139</ele>
        <time>2012-10-07T07:02:28Z</time>
      </trkpt>
      <trkpt lat="45.56757" lon="4.71211">
        <ele>138</ele>
        <time>2012-10-07T07:02:30Z</time>
      </trkpt>
      <trkpt lat="45.56759" lon="4.71214">
        <ele>138</ele>
        <time>2012-10-07T07:02:32Z</time>
      </trkpt>
      <trkpt lat="45.5676" lon="4.71216">
        <ele>138</ele>
        <time>2012-10-07T07:02:34Z</time>
      </trkpt>
      <trkpt lat="45.56762" lon="4.71218">
        <ele>138</ele>
        <time>2012-10-07T07:02:36Z</time>
      </trkpt>
      <trkpt lat="45.56763" lon="4.7122">
        <ele>138</ele>
        <time>2012-10-07T07:02:38Z</time>
      </trkpt>
      <trkpt lat="45.56766" lon="4.71222">
        <ele>138</ele>
        <time>2012-10-07T07:02:40Z</time>
      </trkpt>
      <trkpt lat="45.56768" lon="4.71223">
        <ele>138</ele>
        <time>2012-10-07T07:02:42Z</time>
      </trkpt>
      <trkpt lat="45.5677" lon="4.71226">
        <ele>138</ele>
        <time>2012-10-07T07:02:44Z</time>
      </trkpt>
      <trkpt lat="45.56771" lon="4.71228">
        <ele>138</ele>
        <time>2012-10-07T07:02:47Z</time>
      </trkpt>
      <trkpt lat="45.56773" lon="4.7123">
        <ele>138</ele>
        <time>2012-10-07T07:02:49Z</time>
      </trkpt>
      <trkpt lat="45.56775" lon="4.71232">
        <ele>139</ele>
        <time>2012-10-07T07:02:51Z</time>
      </trkpt>
      <trkpt lat="45.56776" lon="4.71235">
        <ele>139</ele>
        <time>2012-10-07T07:02:53Z</time>
      </trkpt>
      <trkpt lat="45.56778" lon="4.71237">
        <ele>139</ele>
        <time>2012-10-07T07:02:55Z</time>
      </trkpt>
      <trkpt lat="45.56779" lon="4.7124">
        <ele>139</ele>
        <time>2012-10-07T07:02:57Z</time>
      </trkpt>
      <trkpt lat="45.56782" lon="4.71243">
        <ele>138</ele>
        <time>2012-10-07T07:02:59Z</time>
      </trkpt>
      <trkpt lat="45.56783" lon="4.71244">
        <ele>138</ele>
        <time>2012-10-07T07:03:01Z</time>
      </trkpt>
      <trkpt lat="45.56786" lon="4.71245">
        <ele>138</ele>
        <time>2012-10-07T07:03:03Z</time>
      </trkpt>
      <trkpt lat="45.56787" lon="4.71246">
        <ele>138</ele>
        <time>2012-10-07T07:03:05Z</time>
      </trkpt>
      <trkpt lat="45.56789" lon="4.71249">
        <ele>138</ele>
        <time>2012-10-07T07:03:08Z</time>
      </trkpt>
      <trkpt lat="45.5679" lon="4.71251">
        <ele>138</ele>
        <time>2012-10-07T07:03:10Z</time>
      </trkpt>
      <trkpt lat="45.56791" lon="4.71254">
        <ele>138</ele>
        <time>2012-10-07T07:03:12Z</time>
      </trkpt>
      <trkpt lat="45.56793" lon="4.71256">
        <ele>138</ele>
        <time>2012-10-07T07:03:14Z</time>
      </trkpt>
      <trkpt lat="45.56794" lon="4.71259">
        <ele>138</ele>
        <time>2012-10-07T07:03:16Z</time>
      </trkpt>
      <trkpt lat="45.56797" lon="4.7126">
        <ele>138</ele>
        <time>2012-10-07T07:03:18Z</time>
      </trkpt>
      <trkpt lat="45.56799" lon="4.71263">
        <ele>138</ele>
        <time>2012-10-07T07:03:20Z</time>
      </trkpt>
      <trkpt lat="45.56802" lon="4.71266">
        <ele>138</ele>
        <time>2012-10-07T07:03:22Z</time>
      </trkpt>
      <trkpt lat="45.56803" lon="4.71269">
        <ele>138</ele>
        <time>2012-10-07T07:03:24Z</time>
      </trkpt>
      <trkpt lat="45.56805" lon="4.71272">
        <ele>138</ele>
        <time>2012-10-07T07:03:26Z</time>
      </trkpt>
      <trkpt lat="45.56806" lon="4.71275">
        <ele>138</ele>
        <time>2012-10-07T07:03:28Z</time>
      </trkpt>
      <trkpt lat="45.56807" lon="4.71278">
        <ele>138</ele>
        <time>2012-10-07T07:03:30Z</time>
      </trkpt>
      <trkpt lat="45.56809" lon="4.7128">
        <ele>138</ele>
        <time>2012-10-07T07:03:32Z</time>
      </trkpt>
      <trkpt lat="45.56811" lon="4.71283">
        <ele>138</ele>
        <time>2012-10-07T07:03:34Z</time>
      </trkpt>
      <trkpt lat="45.56813" lon="4.71285">
        <ele>138</ele>
        <time>2012-10-07T07:03:36Z</time>
      </trkpt>
      <trkpt lat="45.56815" lon="4.71287">
        <ele>137</ele>
        <time>2012-10-07T07:03:38Z</time>
      </trkpt>
      <trkpt lat="45.56817" lon="4.7129">
        <ele>137</ele>
        <time>2012-10-07T07:03:40Z</time>
      </trkpt>
      <trkpt lat="45.56819" lon="4.71292">
        <ele>137</ele>
        <time>2012-10-07T07:03:42Z</time>
      </trkpt>
      <trkpt lat="45.56821" lon="4.71294">
        <ele>137</ele>
        <time>2012-10-07T07:03:45Z</time>
      </trkpt>
      <trkpt lat="45.56822" lon="4.71297">
        <ele>137</ele>
        <time>2012-10-07T07:03:47Z</time>
      </trkpt>
      <trkpt lat="45.56824" lon="4.71299">
        <ele>137</ele>
        <time>2012-10-07T07:03:49Z</time>
      </trkpt>
      <trkpt lat="45.56826" lon="4.71301">
        <ele>137</ele>
        <time>2012-10-07T07:03:51Z</time>
      </trkpt>
      <trkpt lat="45.56828" lon="4.71303">
        <ele>137</ele>
        <time>2012-10-07T07:03:53Z</time>
      </trkpt>
      <trkpt lat="45.5683" lon="4.71304">
        <ele>137</ele>
        <time>2012-10-07T07:03:55Z</time>
      </trkpt>
      <trkpt lat="45.56832" lon="4.71305">
        <ele>137</ele>
        <time>2012-10-07T07:03:57Z</time>
      </trkpt>
      <trkpt lat="45.56835" lon="4.71307">
        <ele>136</ele>
        <time>2012-10-07T07:03:59Z</time>
      </trkpt>
      <trkpt lat="45.56837" lon="4.71309">
        <ele>137</ele>
        <time>2012-10-07T07:04:01Z</time>
      </trkpt>
      <trkpt lat="45.56839" lon="4.71311">
        <ele>137</ele>
        <time>2012-10-07T07:04:03Z</time>
      </trkpt>
      <trkpt lat="45.56841" lon="4.71312">
        <ele>137</ele>
        <time>2012-10-07T07:04:05Z</time>
      </trkpt>
      <trkpt lat="45.56842" lon="4.71313">
        <ele>137</ele>
        <time>2012-10-07T07:04:07Z</time>
      </trkpt>
      <trkpt lat="45.56844" lon="4.71314">
        <ele>137</ele>
        <time>2012-10-07T07:04:09Z</time>
      </trkpt>
      <trkpt lat="45.56846" lon="4.71315">
        <ele>137</ele>
        <time>2012-10-07T07:04:11Z</time>
      </trkpt>
      <trkpt lat="45.56847" lon="4.71317">
        <ele>137</ele>
        <time>2012-10-07T07:04:13Z</time>
      </trkpt>
      <trkpt lat="45.56848" lon="4.71319">
        <ele>137</ele>
        <time>2012-10-07T07:04:15Z</time>
      </trkpt>
      <trkpt lat="45.5685" lon="4.7132">
        <ele>137</ele>
        <time>2012-10-07T07:04:18Z</time>
      </trkpt>
      <trkpt lat="45.56851" lon="4.71321">
        <ele>137</ele>
        <time>2012-10-07T07:04:20Z</time>
      </trkpt>
      <trkpt lat="45.56852" lon="4.71324">
        <ele>136</ele>
        <time>2012-10-07T07:04:22Z</time>
      </trkpt>
      <trkpt lat="45.56855" lon="4.71325">
        <ele>136</ele>
        <time>2012-10-07T07:04:24Z</time>
      </trkpt>
      <trkpt lat="45.56859" lon="4.71327">
        <ele>136</ele>
        <time>2012-10-07T07:04:26Z</time>
      </trkpt>
      <trkpt lat="45.56862" lon="4.71328">
        <ele>136</ele>
        <time>2012-10-07T07:04:28Z</time>
      </trkpt>
      <trkpt lat="45.56864" lon="4.71329">
        <ele>136</ele>
        <time>2012-10-07T07:04:30Z</time>
      </trkpt>
      <trkpt lat="45.56866" lon="4.71331">
        <ele>136</ele>
        <time>2012-10-07T07:04:32Z</time>
      </trkpt>
      <trkpt lat="45.56869" lon="4.71333">
        <ele>137</ele>
        <time>2012-10-07T07:04:34Z</time>
      </trkpt>
      <trkpt lat="45.56871" lon="4.71334">
        <ele>137</ele>
        <time>2012-10-07T07:04:36Z</time>
      </trkpt>
      <trkpt lat="45.56873" lon="4.71336">
        <ele>137</ele>
        <time>2012-10-07T07:04:38Z</time>
      </trkpt>
      <trkpt lat="45.56875" lon="4.71337">
        <ele>137</ele>
        <time>2012-10-07T07:04:41Z</time>
      </trkpt>
      <trkpt lat="45.56877" lon="4.71338">
        <ele>136</ele>
        <time>2012-10-07T07:04:43Z</time>
      </trkpt>
      <trkpt lat="45.5688" lon="4.7134">
        <ele>136</ele>
        <time>2012-10-07T07:04:45Z</time>
      </trkpt>
      <trkpt lat="45.56882" lon="4.7134">
        <ele>136</ele>
        <time>2012-10-07T07:04:47Z</time>
      </trkpt>
      <trkpt lat="45.56884" lon="4.71341">
        <ele>136</ele>
        <time>2012-10-07T07:04:49Z</time>
      </trkpt>
      <trkpt lat="45.56886" lon="4.71342">
        <ele>136</ele>
        <time>2012-10-07T07:04:51Z</time>
      </trkpt>
      <trkpt lat="45.56889" lon="4.71345">
        <ele>136</ele>
        <time>2012-10-07T07:04:53Z</time>
      </trkpt>
      <trkpt lat="45.56892" lon="4.71346">
        <ele>136</ele>
        <time>2012-10-07T07:04:55Z</time>
      </trkpt>
      <trkpt lat="45.56894" lon="4.71347">
        <ele>136</ele>
        <time>2012-10-07T07:04:57Z</time>
      </trkpt>
      <trkpt lat="45.56895" lon="4.71349">
        <ele>136</ele>
        <time>2012-10-07T07:04:59Z</time>
      </trkpt>
      <trkpt lat="45.56898" lon="4.71349">
        <ele>136</ele>
        <time>2012-10-07T07:05:01Z</time>
      </trkpt>
      <trkpt lat="45.56902" lon="4.71349">
        <ele>136</ele>
        <time>2012-10-07T07:05:04Z</time>
      </trkpt>
      <trkpt lat="45.56904" lon="4.7135">
        <ele>136</ele>
        <time>2012-10-07T07:05:06Z</time>
      </trkpt>
      <trkpt lat="45.56906" lon="4.71351">
        <ele>136</ele>
        <time>2012-10-07T07:05:08Z</time>
      </trkpt>
      <trkpt lat="45.56909" lon="4.71354">
        <ele>136</ele>
        <time>2012-10-07T07:05:10Z</time>
      </trkpt>
      <trkpt lat="45.5691" lon="4.71356">
        <ele>136</ele>
        <time>2012-10-07T07:05:12Z</time>
      </trkpt>
      <trkpt lat="45.56912" lon="4.71358">
        <ele>136</ele>
        <time>2012-10-07T07:05:14Z</time>
      </trkpt>
      <trkpt lat="45.56913" lon="4.7136">
        <ele>136</ele>
        <time>2012-10-07T07:05:16Z</time>
      </trkpt>
      <trkpt lat="45.56916" lon="4.71361">
        <ele>136</ele>
        <time>2012-10-07T07:05:19Z</time>
      </trkpt>
      <trkpt lat="45.56918" lon="4.71362">
        <ele>136</ele>
        <time>2012-10-07T07:05:21Z</time>
      </trkpt>
      <trkpt lat="45.5692" lon="4.71363">
        <ele>136</ele>
        <time>2012-10-07T07:05:23Z</time>
      </trkpt>
      <trkpt lat="45.56923" lon="4.71365">
        <ele>136</ele>
        <time>2012-10-07T07:05:25Z</time>
      </trkpt>
      <trkpt lat="45.56924" lon="4.71368">
        <ele>136</ele>
        <time>2012-10-07T07:05:27Z</time>
      </trkpt>
      <trkpt lat="45.56927" lon="4.71369">
        <ele>136</ele>
        <time>2012-10-07T07:05:29Z</time>
      </trkpt>
      <trkpt lat="45.56929" lon="4.7137">
        <ele>136</ele>
        <time>2012-10-07T07:05:31Z</time>
      </trkpt>
      <trkpt lat="45.56931" lon="4.71372">
        <ele>136</ele>
        <time>2012-10-07T07:05:33Z</time>
      </trkpt>
      <trkpt lat="45.56934" lon="4.71375">
        <ele>136</ele>
        <time>2012-10-07T07:05:35Z</time>
      </trkpt>
      <trkpt lat="45.56936" lon="4.71377">
        <ele>136</ele>
        <time>2012-10-07T07:05:37Z</time>
      </trkpt>
      <trkpt lat="45.56937" lon="4.71378">
        <ele>135</ele>
        <time>2012-10-07T07:05:39Z</time>
      </trkpt>
      <trkpt lat="45.56939" lon="4.7138">
        <ele>136</ele>
        <time>2012-10-07T07:05:41Z</time>
      </trkpt>
      <trkpt lat="45.56942" lon="4.71382">
        <ele>136</ele>
        <time>2012-10-07T07:05:43Z</time>
      </trkpt>
      <trkpt lat="45.56944" lon="4.71383">
        <ele>136</ele>
        <time>2012-10-07T07:05:45Z</time>
      </trkpt>
      <trkpt lat="45.56947" lon="4.71385">
        <ele>136</ele>
        <time>2012-10-07T07:05:48Z</time>
      </trkpt>
      <trkpt lat="45.56949" lon="4.71386">
        <ele>135</ele>
        <time>2012-10-07T07:05:50Z</time>
      </trkpt>
      <trkpt lat="45.56951" lon="4.71388">
        <ele>135</ele>
        <time>2012-10-07T07:05:52Z</time>
      </trkpt>
      <trkpt lat="45.56954" lon="4.71389">
        <ele>135</ele>
        <time>2012-10-07T07:05:54Z</time>
      </trkpt>
      <trkpt lat="45.56957" lon="4.71391">
        <ele>135</ele>
        <time>2012-10-07T07:05:56Z</time>
      </trkpt>
      <trkpt lat="45.56959" lon="4.71393">
        <ele>135</ele>
        <time>2012-10-07T07:05:58Z</time>
      </trkpt>
      <trkpt lat="45.56961" lon="4.71394">
        <ele>136</ele>
        <time>2012-10-07T07:06:00Z</time>
      </trkpt>
      <trkpt lat="45.56964" lon="4.71396">
        <ele>136</ele>
        <time>2012-10-07T07:06:03Z</time>
      </trkpt>
      <trkpt lat="45.56966" lon="4.71398">
        <ele>135</ele>
        <time>2012-10-07T07:06:05Z</time>
      </trkpt>
      <trkpt lat="45.56969" lon="4.71399">
        <ele>135</ele>
        <time>2012-10-07T07:06:07Z</time>
      </trkpt>
      <trkpt lat="45.56971" lon="4.71403">
        <ele>135</ele>
        <time>2012-10-07T07:06:09Z</time>
      </trkpt>
      <trkpt lat="45.56974" lon="4.71404">
        <ele>135</ele>
        <time>2012-10-07T07:06:11Z</time>
      </trkpt>
      <trkpt lat="45.56977" lon="4.71406">
        <ele>135</ele>
        <time>2012-10-07T07:06:13Z</time>
      </trkpt>
      <trkpt lat="45.56979" lon="4.71408">
        <ele>135</ele>
        <time>2012-10-07T07:06:15Z</time>
      </trkpt>
      <trkpt lat="45.56981" lon="4.71409">
        <ele>135</ele>
        <time>2012-10-07T07:06:17Z</time>
      </trkpt>
      <trkpt lat="45.56983" lon="4.7141">
        <ele>135</ele>
        <time>2012-10-07T07:06:19Z</time>
      </trkpt>
      <trkpt lat="45.56985" lon="4.71412">
        <ele>135</ele>
        <time>2012-10-07T07:06:21Z</time>
      </trkpt>
      <trkpt lat="45.56987" lon="4.71414">
        <ele>135</ele>
        <time>2012-10-07T07:06:23Z</time>
      </trkpt>
      <trkpt lat="45.56989" lon="4.71416">
        <ele>135</ele>
        <time>2012-10-07T07:06:25Z</time>
      </trkpt>
      <trkpt lat="45.56991" lon="4.71418">
        <ele>135</ele>
        <time>2012-10-07T07:06:27Z</time>
      </trkpt>
      <trkpt lat="45.56993" lon="4.71419">
        <ele>135</ele>
        <time>2012-10-07T07:06:29Z</time>
      </trkpt>
      <trkpt lat="45.56995" lon="4.71421">
        <ele>135</ele>
        <time>2012-10-07T07:06:32Z</time>
      </trkpt>
      <trkpt lat="45.56996" lon="4.71422">
        <ele>135</ele>
        <time>2012-10-07T07:06:34Z</time>
      </trkpt>
      <trkpt lat="45.56998" lon="4.71424">
        <ele>135</ele>
        <time>2012-10-07T07:06:36Z</time>
      </trkpt>
      <trkpt lat="45.57" lon="4.71427">
        <ele>135</ele>
        <time>2012-10-07T07:06:38Z</time>
      </trkpt>
      <trkpt lat="45.57001" lon="4.71429">
        <ele>135</ele>
        <time>2012-10-07T07:06:40Z</time>
      </trkpt>
      <trkpt lat="45.57003" lon="4.71431">
        <ele>135</ele>
        <time>2012-10-07T07:06:42Z</time>
      </trkpt>
      <trkpt lat="45.57005" lon="4.71433">
        <ele>135</ele>
        <time>2012-10-07T07:06:44Z</time>
      </trkpt>
      <trkpt lat="45.57007" lon="4.71435">
        <ele>135</ele>
        <time>2012-10-07T07:06:46Z</time>
      </trkpt>
      <trkpt lat="45.5701" lon="4.71438">
        <ele>136</ele>
        <time>2012-10-07T07:06:48Z</time>
      </trkpt>
      <trkpt lat="45.57011" lon="4.7144">
        <ele>135</ele>
        <time>2012-10-07T07:06:50Z</time>
      </trkpt>
      <trkpt lat="45.57013" lon="4.71442">
        <ele>135</ele>
        <time>2012-10-07T07:06:52Z</time>
      </trkpt>
      <trkpt lat="45.57014" lon="4.71444">
        <ele>135</ele>
        <time>2012-10-07T07:06:54Z</time>
      </trkpt>
      <trkpt lat="45.57016" lon="4.71446">
        <ele>135</ele>
        <time>2012-10-07T07:06:56Z</time>
      </trkpt>
      <trkpt lat="45.57018" lon="4.71448">
        <ele>135</ele>
        <time>2012-10-07T07:06:58Z</time>
      </trkpt>
      <trkpt lat="45.57019" lon="4.7145">
        <ele>135</ele>
        <time>2012-10-07T07:07:00Z</time>
      </trkpt>
      <trkpt lat="45.57021" lon="4.71452">
        <ele>135</ele>
        <time>2012-10-07T07:07:02Z</time>
      </trkpt>
      <trkpt lat="45.57023" lon="4.71454">
        <ele>135</ele>
        <time>2012-10-07T07:07:04Z</time>
      </trkpt>
      <trkpt lat="45.57025" lon="4.71456">
        <ele>135</ele>
        <time>2012-10-07T07:07:06Z</time>
      </trkpt>
      <trkpt lat="45.57027" lon="4.71459">
        <ele>135</ele>
        <time>2012-10-07T07:07:08Z</time>
      </trkpt>
      <trkpt lat="45.57029" lon="4.71461">
        <ele>135</ele>
        <time>2012-10-07T07:07:10Z</time>
      </trkpt>
      <trkpt lat="45.57031" lon="4.71463">
        <ele>135</ele>
        <time>2012-10-07T07:07:13Z</time>
      </trkpt>
      <trkpt lat="45.57032" lon="4.71466">
        <ele>135</ele>
        <time>2012-10-07T07:07:15Z</time>
      </trkpt>
      <trkpt lat="45.57034" lon="4.71468">
        <ele>135</ele>
        <time>2012-10-07T07:07:17Z</time>
      </trkpt>
      <trkpt lat="45.57036" lon="4.71471">
        <ele>136</ele>
        <time>2012-10-07T07:07:19Z</time>
      </trkpt>
      <trkpt lat="45.57038" lon="4.71474">
        <ele>136</ele>
        <time>2012-10-07T07:07:21Z</time>
      </trkpt>
      <trkpt lat="45.5704" lon="4.71476">
        <ele>136</ele>
        <time>2012-10-07T07:07:23Z</time>
      </trkpt>
      <trkpt lat="45.57042" lon="4.71478">
        <ele>136</ele>
        <time>2012-10-07T07:07:25Z</time>
      </trkpt>
      <trkpt lat="45.57045" lon="4.71482">
        <ele>136</ele>
        <time>2012-10-07T07:07:27Z</time>
      </trkpt>
      <trkpt lat="45.57046" lon="4.71485">
        <ele>135</ele>
        <time>2012-10-07T07:07:29Z</time>
      </trkpt>
      <trkpt lat="45.57048" lon="4.71487">
        <ele>135</ele>
        <time>2012-10-07T07:07:31Z</time>
      </trkpt>
      <trkpt lat="45.5705" lon="4.71489">
        <ele>135</ele>
        <time>2012-10-07T07:07:33Z</time>
      </trkpt>
      <trkpt lat="45.57052" lon="4.71492">
        <ele>135</ele>
        <time>2012-10-07T07:07:35Z</time>
      </trkpt>
      <trkpt lat="45.57053" lon="4.71495">
        <ele>136</ele>
        <time>2012-10-07T07:07:37Z</time>
      </trkpt>
      <trkpt lat="45.57055" lon="4.71497">
        <ele>136</ele>
        <time>2012-10-07T07:07:39Z</time>
      </trkpt>
      <trkpt lat="45.57056" lon="4.715">
        <ele>136</ele>
        <time>2012-10-07T07:07:41Z</time>
      </trkpt>
      <trkpt lat="45.57057" lon="4.71503">
        <ele>136</ele>
        <time>2012-10-07T07:07:43Z</time>
      </trkpt>
      <trkpt lat="45.57059" lon="4.71506">
        <ele>136</ele>
        <time>2012-10-07T07:07:45Z</time>
      </trkpt>
      <trkpt lat="45.5706" lon="4.71509">
        <ele>136</ele>
        <time>2012-10-07T07:07:48Z</time>
      </trkpt>
      <trkpt lat="45.57062" lon="4.71511">
        <ele>136</ele>
        <time>2012-10-07T07:07:50Z</time>
      </trkpt>
      <trkpt lat="45.57063" lon="4.71514">
        <ele>136</ele>
        <time>2012-10-07T07:07:52Z</time>
      </trkpt>
      <trkpt lat="45.57066" lon="4.71518">
        <ele>135</ele>
        <time>2012-10-07T07:07:54Z</time>
      </trkpt>
      <trkpt lat="45.57067" lon="4.71521">
        <ele>135</ele>
        <time>2012-10-07T07:07:56Z</time>
      </trkpt>
      <trkpt lat="45.57068" lon="4.71523">
        <ele>135</ele>
        <time>2012-10-07T07:07:58Z</time>
      </trkpt>
      <trkpt lat="45.57069" lon="4.71525">
        <ele>135</ele>
        <time>2012-10-07T07:08:00Z</time>
      </trkpt>
      <trkpt lat="45.5707" lon="4.71527">
        <ele>136</ele>
        <time>2012-10-07T07:08:02Z</time>
      </trkpt>
      <trkpt lat="45.57072" lon="4.7153">
        <ele>136</ele>
        <time>2012-10-07T07:08:05Z</time>
      </trkpt>
      <trkpt lat="45.57073" lon="4.71532">
        <ele>136</ele>
        <time>2012-10-07T07:08:07Z</time>
      </trkpt>
      <trkpt lat="45.57074" lon="4.71535">
        <ele>135</ele>
        <time>2012-10-07T07:08:09Z</time>
      </trkpt>
      <trkpt lat="45.57076" lon="4.71538">
        <ele>135</ele>
        <time>2012-10-07T07:08:11Z</time>
      </trkpt>
      <trkpt lat="45.57078" lon="4.7154">
        <ele>135</ele>
        <time>2012-10-07T07:08:13Z</time>
      </trkpt>
      <trkpt lat="45.57079" lon="4.71543">
        <ele>135</ele>
        <time>2012-10-07T07:08:15Z</time>
      </trkpt>
      <trkpt lat="45.57079" lon="4.71547">
        <ele>135</ele>
        <time>2012-10-07T07:08:17Z</time>
      </trkpt>
      <trkpt lat="45.57081" lon="4.71549">
        <ele>135</ele>
        <time>2012-10-07T07:08:19Z</time>
      </trkpt>
      <trkpt lat="45.57084" lon="4.71552">
        <ele>135</ele>
        <time>2012-10-07T07:08:21Z</time>
      </trkpt>
      <trkpt lat="45.57085" lon="4.71555">
        <ele>135</ele>
        <time>2012-10-07T07:08:23Z</time>
      </trkpt>
      <trkpt lat="45.57087" lon="4.71558">
        <ele>135</ele>
        <time>2012-10-07T07:08:25Z</time>
      </trkpt>
      <trkpt lat="45.57088" lon="4.7156">
        <ele>135</ele>
        <time>2012-10-07T07:08:27Z</time>
      </trkpt>
      <trkpt lat="45.5709" lon="4.71562">
        <ele>134</ele>
        <time>2012-10-07T07:08:29Z</time>
      </trkpt>
      <trkpt lat="45.57092" lon="4.71564">
        <ele>135</ele>
        <time>2012-10-07T07:08:31Z</time>
      </trkpt>
      <trkpt lat="45.57094" lon="4.71566">
        <ele>135</ele>
        <time>2012-10-07T07:08:33Z</time>
      </trkpt>
      <trkpt lat="45.57096" lon="4.71568">
        <ele>135</ele>
        <time>2012-10-07T07:08:36Z</time>
      </trkpt>
      <trkpt lat="45.57097" lon="4.71571">
        <ele>135</ele>
        <time>2012-10-07T07:08:38Z</time>
      </trkpt>
      <trkpt lat="45.57099" lon="4.71575">
        <ele>135</ele>
        <time>2012-10-07T07:08:40Z</time>
      </trkpt>
      <trkpt lat="45.571" lon="4.71578">
        <ele>135</ele>
        <time>2012-10-07T07:08:42Z</time>
      </trkpt>
      <trkpt lat="45.57101" lon="4.71581">
        <ele>135</ele>
        <time>2012-10-07T07:08:44Z</time>
      </trkpt>
      <trkpt lat="45.57102" lon="4.71584">
        <ele>135</ele>
        <time>2012-10-07T07:08:46Z</time>
      </trkpt>
      <trkpt lat="45.57103" lon="4.71587">
        <ele>135</ele>
        <time>2012-10-07T07:08:49Z</time>
      </trkpt>
      <trkpt lat="45.57105" lon="4.7159">
        <ele>135</ele>
        <time>2012-10-07T07:08:51Z</time>
      </trkpt>
      <trkpt lat="45.57106" lon="4.71593">
        <ele>135</ele>
        <time>2012-10-07T07:08:53Z</time>
      </trkpt>
      <trkpt lat="45.57109" lon="4.71597">
        <ele>135</ele>
        <time>2012-10-07T07:08:55Z</time>
      </trkpt>
      <trkpt lat="45.5711" lon="4.71599">
        <ele>135</ele>
        <time>2012-10-07T07:08:57Z</time>
      </trkpt>
      <trkpt lat="45.57111" lon="4.71602">
        <ele>135</ele>
        <time>2012-10-07T07:08:59Z</time>
      </trkpt>
      <trkpt lat="45.57112" lon="4.71606">
        <ele>135</ele>
        <time>2012-10-07T07:09:01Z</time>
      </trkpt>
      <trkpt lat="45.57114" lon="4.71608">
        <ele>135</ele>
        <time>2012-10-07T07:09:03Z</time>
      </trkpt>
      <trkpt lat="45.57116" lon="4.71611">
        <ele>134</ele>
        <time>2012-10-07T07:09:05Z</time>
      </trkpt>
      <trkpt lat="45.57117" lon="4.71614">
        <ele>134</ele>
        <time>2012-10-07T07:09:07Z</time>
      </trkpt>
      <trkpt lat="45.57119" lon="4.71616">
        <ele>135</ele>
        <time>2012-10-07T07:09:09Z</time>
      </trkpt>
      <trkpt lat="45.5712" lon="4.7162">
        <ele>135</ele>
        <time>2012-10-07T07:09:11Z</time>
      </trkpt>
      <trkpt lat="45.57121" lon="4.71622">
        <ele>135</ele>
        <time>2012-10-07T07:09:14Z</time>
      </trkpt>
      <trkpt lat="45.57123" lon="4.71625">
        <ele>135</ele>
        <time>2012-10-07T07:09:16Z</time>
      </trkpt>
      <trkpt lat="45.57124" lon="4.71629">
        <ele>134</ele>
        <time>2012-10-07T07:09:18Z</time>
      </trkpt>
      <trkpt lat="45.57125" lon="4.71631">
        <ele>134</ele>
        <time>2012-10-07T07:09:20Z</time>
      </trkpt>
      <trkpt lat="45.57127" lon="4.71634">
        <ele>134</ele>
        <time>2012-10-07T07:09:22Z</time>
      </trkpt>
      <trkpt lat="45.57129" lon="4.71636">
        <ele>134</ele>
        <time>2012-10-07T07:09:24Z</time>
      </trkpt>
      <trkpt lat="45.5713" lon="4.71638">
        <ele>135</ele>
        <time>2012-10-07T07:09:26Z</time>
      </trkpt>
      <trkpt lat="45.57132" lon="4.71641">
        <ele>135</ele>
        <time>2012-10-07T07:09:28Z</time>
      </trkpt>
      <trkpt lat="45.57132" lon="4.71644">
        <ele>135</ele>
        <time>2012-10-07T07:09:30Z</time>
      </trkpt>
      <trkpt lat="45.57133" lon="4.71647">
        <ele>135</ele>
        <time>2012-10-07T07:09:32Z</time>
      </trkpt>
      <trkpt lat="45.57132" lon="4.7165">
        <ele>134</ele>
        <time>2012-10-07T07:09:34Z</time>
      </trkpt>
      <trkpt lat="45.5713" lon="4.71653">
        <ele>134</ele>
        <time>2012-10-07T07:09:36Z</time>
      </trkpt>
      <trkpt lat="45.5713" lon="4.71656">
        <ele>134</ele>
        <time>2012-10-07T07:09:38Z</time>
      </trkpt>
      <trkpt lat="45.57127" lon="4.71659">
        <ele>134</ele>
        <time>2012-10-07T07:09:40Z</time>
      </trkpt>
      <trkpt lat="45.57126" lon="4.71663">
        <ele>134</ele>
        <time>2012-10-07T07:09:42Z</time>
      </trkpt>
      <trkpt lat="45.57125" lon="4.71665">
        <ele>134</ele>
        <time>2012-10-07T07:09:44Z</time>
      </trkpt>
      <trkpt lat="45.57124" lon="4.71667">
        <ele>135</ele>
        <time>2012-10-07T07:09:47Z</time>
      </trkpt>
      <trkpt lat="45.57124" lon="4.71669">
        <ele>135</ele>
        <time>2012-10-07T07:09:49Z</time>
      </trkpt>
      <trkpt lat="45.57123" lon="4.71672">
        <ele>135</ele>
        <time>2012-10-07T07:09:51Z</time>
      </trkpt>
      <trkpt lat="45.57122" lon="4.71674">
        <ele>135</ele>
        <time>2012-10-07T07:09:53Z</time>
      </trkpt>
      <trkpt lat="45.57121" lon="4.71677">
        <ele>134</ele>
        <time>2012-10-07T07:09:55Z</time>
      </trkpt>
      <trkpt lat="45.57119" lon="4.71679">
        <ele>135</ele>
        <time>2012-10-07T07:09:57Z</time>
      </trkpt>
      <trkpt lat="45.57118" lon="4.71684">
        <ele>135</ele>
        <time>2012-10-07T07:09:59Z</time>
      </trkpt>
      <trkpt lat="45.57117" lon="4.71686">
        <ele>135</ele>
        <time>2012-10-07T07:10:01Z</time>
      </trkpt>
      <trkpt lat="45.57116" lon="4.71689">
        <ele>135</ele>
        <time>2012-10-07T07:10:03Z</time>
      </trkpt>
      <trkpt lat="45.57115" lon="4.71692">
        <ele>135</ele>
        <time>2012-10-07T07:10:05Z</time>
      </trkpt>
      <trkpt lat="45.57114" lon="4.71695">
        <ele>135</ele>
        <time>2012-10-07T07:10:07Z</time>
      </trkpt>
      <trkpt lat="45.57113" lon="4.71697">
        <ele>135</ele>
        <time>2012-10-07T07:10:09Z</time>
      </trkpt>
      <trkpt lat="45.57112" lon="4.717">
        <ele>135</ele>
        <time>2012-10-07T07:10:11Z</time>
      </trkpt>
      <trkpt lat="45.57111" lon="4.71703">
        <ele>135</ele>
        <time>2012-10-07T07:10:13Z</time>
      </trkpt>
      <trkpt lat="45.5711" lon="4.71705">
        <ele>135</ele>
        <time>2012-10-07T07:10:15Z</time>
      </trkpt>
      <trkpt lat="45.57109" lon="4.71708">
        <ele>136</ele>
        <time>2012-10-07T07:10:17Z</time>
      </trkpt>
      <trkpt lat="45.57108" lon="4.7171">
        <ele>135</ele>
        <time>2012-10-07T07:10:19Z</time>
      </trkpt>
      <trkpt lat="45.57107" lon="4.71713">
        <ele>135</ele>
        <time>2012-10-07T07:10:21Z</time>
      </trkpt>
      <trkpt lat="45.57106" lon="4.71717">
        <ele>135</ele>
        <time>2012-10-07T07:10:23Z</time>
      </trkpt>
      <trkpt lat="45.57104" lon="4.71719">
        <ele>135</ele>
        <time>2012-10-07T07:10:26Z</time>
      </trkpt>
      <trkpt lat="45.57104" lon="4.71721">
        <ele>135</ele>
        <time>2012-10-07T07:10:28Z</time>
      </trkpt>
      <trkpt lat="45.57103" lon="4.71724">
        <ele>135</ele>
        <time>2012-10-07T07:10:30Z</time>
      </trkpt>
      <trkpt lat="45.57102" lon="4.71725">
        <ele>135</ele>
        <time>2012-10-07T07:10:32Z</time>
      </trkpt>
      <trkpt lat="45.57101" lon="4.71728">
        <ele>136</ele>
        <time>2012-10-07T07:10:34Z</time>
      </trkpt>
      <trkpt lat="45.57099" lon="4.71729">
        <ele>136</ele>
        <time>2012-10-07T07:10:36Z</time>
      </trkpt>
      <trkpt lat="45.57099" lon="4.7173">
        <ele>136</ele>
        <time>2012-10-07T07:10:38Z</time>
      </trkpt>
      <trkpt lat="45.57103" lon="4.7173">
        <ele>136</ele>
        <time>2012-10-07T07:10:41Z</time>
      </trkpt>
      <trkpt lat="45.57109" lon="4.71731">
        <ele>136</ele>
        <time>2012-10-07T07:10:43Z</time>
      </trkpt>
      <trkpt lat="45.57117" lon="4.71734">
        <ele>135</ele>
        <time>2012-10-07T07:10:45Z</time>
      </trkpt>
      <trkpt lat="45.57124" lon="4.71739">
        <ele>135</ele>
        <time>2012-10-07T07:10:47Z</time>
      </trkpt>
      <trkpt lat="45.57125" lon="4.71742">
        <ele>135</ele>
        <time>2012-10-07T07:10:49Z</time>
      </trkpt>
      <trkpt lat="45.57123" lon="4.71745">
        <ele>135</ele>
        <time>2012-10-07T07:10:51Z</time>
      </trkpt>
      <trkpt lat="45.57122" lon="4.71747">
        <ele>136</ele>
        <time>2012-10-07T07:10:53Z</time>
      </trkpt>
      <trkpt lat="45.57119" lon="4.7175">
        <ele>136</ele>
        <time>2012-10-07T07:10:55Z</time>
      </trkpt>
      <trkpt lat="45.57116" lon="4.71754">
        <ele>136</ele>
        <time>2012-10-07T07:10:57Z</time>
      </trkpt>
      <trkpt lat="45.57114" lon="4.71758">
        <ele>135</ele>
        <time>2012-10-07T07:10:59Z</time>
      </trkpt>
      <trkpt lat="45.57112" lon="4.71761">
        <ele>136</ele>
        <time>2012-10-07T07:11:01Z</time>
      </trkpt>
      <trkpt lat="45.5711" lon="4.71764">
        <ele>136</ele>
        <time>2012-10-07T07:11:03Z</time>
      </trkpt>
      <trkpt lat="45.57108" lon="4.71767">
        <ele>136</ele>
        <time>2012-10-07T07:11:05Z</time>
      </trkpt>
      <trkpt lat="45.57106" lon="4.71769">
        <ele>137</ele>
        <time>2012-10-07T07:11:07Z</time>
      </trkpt>
      <trkpt lat="45.57103" lon="4.71771">
        <ele>137</ele>
        <time>2012-10-07T07:11:09Z</time>
      </trkpt>
      <trkpt lat="45.57102" lon="4.71774">
        <ele>138</ele>
        <time>2012-10-07T07:11:11Z</time>
      </trkpt>
      <trkpt lat="45.57101" lon="4.71776">
        <ele>138</ele>
        <time>2012-10-07T07:11:13Z</time>
      </trkpt>
      <trkpt lat="45.571" lon="4.71778">
        <ele>138</ele>
        <time>2012-10-07T07:11:15Z</time>
      </trkpt>
      <trkpt lat="45.57098" lon="4.71781">
        <ele>139</ele>
        <time>2012-10-07T07:11:17Z</time>
      </trkpt>
      <trkpt lat="45.57097" lon="4.71783">
        <ele>139</ele>
        <time>2012-10-07T07:11:19Z</time>
      </trkpt>
      <trkpt lat="45.57096" lon="4.71786">
        <ele>139</ele>
        <time>2012-10-07T07:11:21Z</time>
      </trkpt>
      <trkpt lat="45.57096" lon="4.71789">
        <ele>139</ele>
        <time>2012-10-07T07:11:23Z</time>
      </trkpt>
      <trkpt lat="45.57096" lon="4.71792">
        <ele>140</ele>
        <time>2012-10-07T07:11:26Z</time>
      </trkpt>
      <trkpt lat="45.57095" lon="4.71794">
        <ele>140</ele>
        <time>2012-10-07T07:11:28Z</time>
      </trkpt>
      <trkpt lat="45.57093" lon="4.71798">
        <ele>140</ele>
        <time>2012-10-07T07:11:30Z</time>
      </trkpt>
      <trkpt lat="45.57092" lon="4.718">
        <ele>140</ele>
        <time>2012-10-07T07:11:32Z</time>
      </trkpt>
      <trkpt lat="45.57091" lon="4.71803">
        <ele>141</ele>
        <time>2012-10-07T07:11:34Z</time>
      </trkpt>
      <trkpt lat="45.5709" lon="4.71805">
        <ele>141</ele>
        <time>2012-10-07T07:11:36Z</time>
      </trkpt>
      <trkpt lat="45.5709" lon="4.71807">
        <ele>141</ele>
        <time>2012-10-07T07:11:38Z</time>
      </trkpt>
      <trkpt lat="45.5709" lon="4.71809">
        <ele>141</ele>
        <time>2012-10-07T07:11:41Z</time>
      </trkpt>
      <trkpt lat="45.57089" lon="4.71811">
        <ele>142</ele>
        <time>2012-10-07T07:11:43Z</time>
      </trkpt>
      <trkpt lat="45.57088" lon="4.71813">
        <ele>142</ele>
        <time>2012-10-07T07:11:45Z</time>
      </trkpt>
      <trkpt lat="45.57088" lon="4.71815">
        <ele>142</ele>
        <time>2012-10-07T07:11:47Z</time>
      </trkpt>
      <trkpt lat="45.57087" lon="4.71817">
        <ele>143</ele>
        <time>2012-10-07T07:11:49Z</time>
      </trkpt>
      <trkpt lat="45.57085" lon="4.71819">
        <ele>143</ele>
        <time>2012-10-07T07:11:51Z</time>
      </trkpt>
      <trkpt lat="45.57085" lon="4.71821">
        <ele>143</ele>
        <time>2012-10-07T07:11:53Z</time>
      </trkpt>
      <trkpt lat="45.57084" lon="4.71824">
        <ele>143</ele>
        <time>2012-10-07T07:11:55Z</time>
      </trkpt>
      <trkpt lat="45.57084" lon="4.71827">
        <ele>143</ele>
        <time>2012-10-07T07:11:57Z</time>
      </trkpt>
      <trkpt lat="45.57083" lon="4.71829">
        <ele>144</ele>
        <time>2012-10-07T07:11:59Z</time>
      </trkpt>
      <trkpt lat="45.57083" lon="4.71832">
        <ele>144</ele>
        <time>2012-10-07T07:12:01Z</time>
      </trkpt>
      <trkpt lat="45.57082" lon="4.71834">
        <ele>144</ele>
        <time>2012-10-07T07:12:03Z</time>
      </trkpt>
      <trkpt lat="45.57082" lon="4.71836">
        <ele>144</ele>
        <time>2012-10-07T07:12:05Z</time>
      </trkpt>
      <trkpt lat="45.57081" lon="4.71838">
        <ele>145</ele>
        <time>2012-10-07T07:12:07Z</time>
      </trkpt>
      <trkpt lat="45.5708" lon="4.71841">
        <ele>145</ele>
        <time>2012-10-07T07:12:09Z</time>
      </trkpt>
      <trkpt lat="45.57079" lon="4.71843">
        <ele>145</ele>
        <time>2012-10-07T07:12:12Z</time>
      </trkpt>
      <trkpt lat="45.57079" lon="4.71845">
        <ele>146</ele>
        <time>2012-10-07T07:12:14Z</time>
      </trkpt>
      <trkpt lat="45.57077" lon="4.71848">
        <ele>146</ele>
        <time>2012-10-07T07:12:16Z</time>
      </trkpt>
      <trkpt lat="45.57077" lon="4.71851">
        <ele>146</ele>
        <time>2012-10-07T07:12:18Z</time>
      </trkpt>
      <trkpt lat="45.57075" lon="4.71852">
        <ele>146</ele>
        <time>2012-10-07T07:12:20Z</time>
      </trkpt>
      <trkpt lat="45.57074" lon="4.71854">
        <ele>146</ele>
        <time>2012-10-07T07:12:22Z</time>
      </trkpt>
      <trkpt lat="45.57072" lon="4.71856">
        <ele>147</ele>
        <time>2012-10-07T07:12:24Z</time>
      </trkpt>
      <trkpt lat="45.57071" lon="4.71858">
        <ele>147</ele>
        <time>2012-10-07T07:12:27Z</time>
      </trkpt>
      <trkpt lat="45.5707" lon="4.71859">
        <ele>148</ele>
        <time>2012-10-07T07:12:29Z</time>
      </trkpt>
      <trkpt lat="45.57068" lon="4.71861">
        <ele>148</ele>
        <time>2012-10-07T07:12:31Z</time>
      </trkpt>
      <trkpt lat="45.57066" lon="4.71862">
        <ele>148</ele>
        <time>2012-10-07T07:12:33Z</time>
      </trkpt>
      <trkpt lat="45.57065" lon="4.71864">
        <ele>148</ele>
        <time>2012-10-07T07:12:35Z</time>
      </trkpt>
      <trkpt lat="45.57064" lon="4.71865">
        <ele>149</ele>
        <time>2012-10-07T07:12:37Z</time>
      </trkpt>
      <trkpt lat="45.57064" lon="4.71866">
        <ele>149</ele>
        <time>2012-10-07T07:12:39Z</time>
      </trkpt>
      <trkpt lat="45.57063" lon="4.71867">
        <ele>149</ele>
        <time>2012-10-07T07:12:41Z</time>
      </trkpt>
      <trkpt lat="45.57062" lon="4.71869">
        <ele>149</ele>
        <time>2012-10-07T07:12:43Z</time>
      </trkpt>
      <trkpt lat="45.57061" lon="4.7187">
        <ele>149</ele>
        <time>2012-10-07T07:12:45Z</time>
      </trkpt>
      <trkpt lat="45.57059" lon="4.71872">
        <ele>149</ele>
        <time>2012-10-07T07:12:47Z</time>
      </trkpt>
      <trkpt lat="45.57058" lon="4.71873">
        <ele>149</ele>
        <time>2012-10-07T07:12:49Z</time>
      </trkpt>
      <trkpt lat="45.57056" lon="4.71874">
        <ele>150</ele>
        <time>2012-10-07T07:12:51Z</time>
      </trkpt>
      <trkpt lat="45.57055" lon="4.71876">
        <ele>150</ele>
        <time>2012-10-07T07:12:53Z</time>
      </trkpt>
      <trkpt lat="45.57054" lon="4.71877">
        <ele>150</ele>
        <time>2012-10-07T07:12:55Z</time>
      </trkpt>
      <trkpt lat="45.57053" lon="4.71879">
        <ele>151</ele>
        <time>2012-10-07T07:12:58Z</time>
      </trkpt>
      <trkpt lat="45.57051" lon="4.71881">
        <ele>151</ele>
        <time>2012-10-07T07:13:00Z</time>
      </trkpt>
      <trkpt lat="45.5705" lon="4.71882">
        <ele>151</ele>
        <time>2012-10-07T07:13:02Z</time>
      </trkpt>
      <trkpt lat="45.5705" lon="4.71882">
        <ele>151</ele>
        <time>2012-10-07T07:13:04Z</time>
      </trkpt>
      <trkpt lat="45.57049" lon="4.71883">
        <ele>152</ele>
        <time>2012-10-07T07:13:06Z</time>
      </trkpt>
      <trkpt lat="45.57048" lon="4.71884">
        <ele>152</ele>
        <time>2012-10-07T07:13:09Z</time>
      </trkpt>
      <trkpt lat="45.57048" lon="4.71885">
        <ele>153</ele>
        <time>2012-10-07T07:13:11Z</time>
      </trkpt>
      <trkpt lat="45.57045" lon="4.71888">
        <ele>153</ele>
        <time>2012-10-07T07:13:13Z</time>
      </trkpt>
      <trkpt lat="45.57044" lon="4.7189">
        <ele>153</ele>
        <time>2012-10-07T07:13:15Z</time>
      </trkpt>
      <trkpt lat="45.57042" lon="4.71893">
        <ele>153</ele>
        <time>2012-10-07T07:13:17Z</time>
      </trkpt>
      <trkpt lat="45.57041" lon="4.71896">
        <ele>154</ele>
        <time>2012-10-07T07:13:19Z</time>
      </trkpt>
      <trkpt lat="45.5704" lon="4.71898">
        <ele>154</ele>
        <time>2012-10-07T07:13:21Z</time>
      </trkpt>
      <trkpt lat="45.57039" lon="4.719">
        <ele>155</ele>
        <time>2012-10-07T07:13:23Z</time>
      </trkpt>
      <trkpt lat="45.57038" lon="4.71903">
        <ele>155</ele>
        <time>2012-10-07T07:13:25Z</time>
      </trkpt>
      <trkpt lat="45.57038" lon="4.71904">
        <ele>155</ele>
        <time>2012-10-07T07:13:27Z</time>
      </trkpt>
      <trkpt lat="45.57037" lon="4.71906">
        <ele>155</ele>
        <time>2012-10-07T07:13:29Z</time>
      </trkpt>
      <trkpt lat="45.57036" lon="4.71908">
        <ele>155</ele>
        <time>2012-10-07T07:13:31Z</time>
      </trkpt>
      <trkpt lat="45.57035" lon="4.71911">
        <ele>155</ele>
        <time>2012-10-07T07:13:34Z</time>
      </trkpt>
      <trkpt lat="45.57034" lon="4.71913">
        <ele>156</ele>
        <time>2012-10-07T07:13:36Z</time>
      </trkpt>
      <trkpt lat="45.57033" lon="4.71916">
        <ele>157</ele>
        <time>2012-10-07T07:13:38Z</time>
      </trkpt>
      <trkpt lat="45.57033" lon="4.71917">
        <ele>157</ele>
        <time>2012-10-07T07:13:40Z</time>
      </trkpt>
      <trkpt lat="45.57033" lon="4.71919">
        <ele>157</ele>
        <time>2012-10-07T07:13:42Z</time>
      </trkpt>
      <trkpt lat="45.57032" lon="4.71922">
        <ele>157</ele>
        <time>2012-10-07T07:13:44Z</time>
      </trkpt>
      <trkpt lat="45.57032" lon="4.71925">
        <ele>157</ele>
        <time>2012-10-07T07:13:46Z</time>
      </trkpt>
      <trkpt lat="45.57031" lon="4.71928">
        <ele>157</ele>
        <time>2012-10-07T07:13:48Z</time>
      </trkpt>
      <trkpt lat="45.5703" lon="4.7193">
        <ele>158</ele>
        <time>2012-10-07T07:13:50Z</time>
      </trkpt>
      <trkpt lat="45.5703" lon="4.71932">
        <ele>158</ele>
        <time>2012-10-07T07:13:52Z</time>
      </trkpt>
      <trkpt lat="45.5703" lon="4.71934">
        <ele>159</ele>
        <time>2012-10-07T07:13:54Z</time>
      </trkpt>
      <trkpt lat="45.5703" lon="4.71936">
        <ele>159</ele>
        <time>2012-10-07T07:13:56Z</time>
      </trkpt>
      <trkpt lat="45.5703" lon="4.71938">
        <ele>159</ele>
        <time>2012-10-07T07:13:58Z</time>
      </trkpt>
      <trkpt lat="45.5703" lon="4.7194">
        <ele>160</ele>
        <time>2012-10-07T07:14:00Z</time>
      </trkpt>
      <trkpt lat="45.57032" lon="4.71942">
        <ele>160</ele>
        <time>2012-10-07T07:14:02Z</time>
      </trkpt>
      <trkpt lat="45.57033" lon="4.71943">
        <ele>160</ele>
        <time>2012-10-07T07:14:05Z</time>
      </trkpt>
      <trkpt lat="45.57034" lon="4.71944">
        <ele>161</ele>
        <time>2012-10-07T07:14:07Z</time>
      </trkpt>
      <trkpt lat="45.57036" lon="4.71944">
        <ele>161</ele>
        <time>2012-10-07T07:14:09Z</time>
      </trkpt>
      <trkpt lat="45.57038" lon="4.71945">
        <ele>161</ele>
        <time>2012-10-07T07:14:11Z</time>
      </trkpt>
      <trkpt lat="45.5704" lon="4.71944">
        <ele>162</ele>
        <time>2012-10-07T07:14:13Z</time>
      </trkpt>
      <trkpt lat="45.57041" lon="4.71945">
        <ele>162</ele>
        <time>2012-10-07T07:14:15Z</time>
      </trkpt>
      <trkpt lat="45.57043" lon="4.71945">
        <ele>163</ele>
        <time>2012-10-07T07:14:17Z</time>
      </trkpt>
      <trkpt lat="45.57045" lon="4.71944">
        <ele>163</ele>
        <time>2012-10-07T07:14:20Z</time>
      </trkpt>
      <trkpt lat="45.57047" lon="4.71944">
        <ele>163</ele>
        <time>2012-10-07T07:14:22Z</time>
      </trkpt>
      <trkpt lat="45.57049" lon="4.71944">
        <ele>164</ele>
        <time>2012-10-07T07:14:24Z</time>
      </trkpt>
      <trkpt lat="45.5705" lon="4.71944">
        <ele>164</ele>
        <time>2012-10-07T07:14:26Z</time>
      </trkpt>
      <trkpt lat="45.57051" lon="4.71945">
        <ele>164</ele>
        <time>2012-10-07T07:14:28Z</time>
      </trkpt>
      <trkpt lat="45.57053" lon="4.71945">
        <ele>164</ele>
        <time>2012-10-07T07:14:30Z</time>
      </trkpt>
      <trkpt lat="45.57054" lon="4.71945">
        <ele>165</ele>
        <time>2012-10-07T07:14:32Z</time>
      </trkpt>
      <trkpt lat="45.57056" lon="4.71945">
        <ele>165</ele>
        <time>2012-10-07T07:14:34Z</time>
      </trkpt>
      <trkpt lat="45.57058" lon="4.71946">
        <ele>165</ele>
        <time>2012-10-07T07:14:37Z</time>
      </trkpt>
      <trkpt lat="45.5706" lon="4.71947">
        <ele>165</ele>
        <time>2012-10-07T07:14:39Z</time>
      </trkpt>
      <trkpt lat="45.57062" lon="4.71947">
        <ele>166</ele>
        <time>2012-10-07T07:14:41Z</time>
      </trkpt>
      <trkpt lat="45.57064" lon="4.71948">
        <ele>166</ele>
        <time>2012-10-07T07:14:43Z</time>
      </trkpt>
      <trkpt lat="45.57066" lon="4.71949">
        <ele>166</ele>
        <time>2012-10-07T07:14:45Z</time>
      </trkpt>
      <trkpt lat="45.57068" lon="4.71949">
        <ele>166</ele>
        <time>2012-10-07T07:14:47Z</time>
      </trkpt>
      <trkpt lat="45.57071" lon="4.71949">
        <ele>167</ele>
        <time>2012-10-07T07:14:50Z</time>
      </trkpt>
      <trkpt lat="45.57073" lon="4.71948">
        <ele>167</ele>
        <time>2012-10-07T07:14:52Z</time>
      </trkpt>
      <trkpt lat="45.57076" lon="4.71944">
        <ele>167</ele>
        <time>2012-10-07T07:14:54Z</time>
      </trkpt>
      <trkpt lat="45.57078" lon="4.71941">
        <ele>167</ele>
        <time>2012-10-07T07:14:56Z</time>
      </trkpt>
      <trkpt lat="45.5708" lon="4.71939">
        <ele>166</ele>
        <time>2012-10-07T07:14:58Z</time>
      </trkpt>
      <trkpt lat="45.57082" lon="4.71937">
        <ele>166</ele>
        <time>2012-10-07T07:15:00Z</time>
      </trkpt>
      <trkpt lat="45.57084" lon="4.71937">
        <ele>166</ele>
        <time>2012-10-07T07:15:02Z</time>
      </trkpt>
      <trkpt lat="45.57087" lon="4.71937">
        <ele>165</ele>
        <time>2012-10-07T07:15:04Z</time>
      </trkpt>
      <trkpt lat="45.57089" lon="4.71937">
        <ele>165</ele>
        <time>2012-10-07T07:15:06Z</time>
      </trkpt>
      <trkpt lat="45.57091" lon="4.71939">
        <ele>166</ele>
        <time>2012-10-07T07:15:08Z</time>
      </trkpt>
      <trkpt lat="45.57093" lon="4.7194">
        <ele>166</ele>
        <time>2012-10-07T07:15:10Z</time>
      </trkpt>
      <trkpt lat="45.57095" lon="4.71941">
        <ele>166</ele>
        <time>2012-10-07T07:15:12Z</time>
      </trkpt>
      <trkpt lat="45.57097" lon="4.71942">
        <ele>166</ele>
        <time>2012-10-07T07:15:14Z</time>
      </trkpt>
      <trkpt lat="45.57099" lon="4.71944">
        <ele>166</ele>
        <time>2012-10-07T07:15:16Z</time>
      </trkpt>
      <trkpt lat="45.57101" lon="4.71945">
        <ele>166</ele>
        <time>2012-10-07T07:15:18Z</time>
      </trkpt>
      <trkpt lat="45.57103" lon="4.71947">
        <ele>166</ele>
        <time>2012-10-07T07:15:20Z</time>
      </trkpt>
      <trkpt lat="45.57105" lon="4.71948">
        <ele>166</ele>
        <time>2012-10-07T07:15:23Z</time>
      </trkpt>
      <trkpt lat="45.57107" lon="4.7195">
        <ele>166</ele>
        <time>2012-10-07T07:15:25Z</time>
      </trkpt>
      <trkpt lat="45.57109" lon="4.71951">
        <ele>166</ele>
        <time>2012-10-07T07:15:27Z</time>
      </trkpt>
      <trkpt lat="45.57112" lon="4.71953">
        <ele>166</ele>
        <time>2012-10-07T07:15:29Z</time>
      </trkpt>
      <trkpt lat="45.57114" lon="4.71955">
        <ele>166</ele>
        <time>2012-10-07T07:15:31Z</time>
      </trkpt>
      <trkpt lat="45.57116" lon="4.71956">
        <ele>166</ele>
        <time>2012-10-07T07:15:33Z</time>
      </trkpt>
      <trkpt lat="45.57118" lon="4.71957">
        <ele>167</ele>
        <time>2012-10-07T07:15:35Z</time>
      </trkpt>
      <trkpt lat="45.5712" lon="4.71958">
        <ele>167</ele>
        <time>2012-10-07T07:15:37Z</time>
      </trkpt>
      <trkpt lat="45.57122" lon="4.7196">
        <ele>167</ele>
        <time>2012-10-07T07:15:39Z</time>
      </trkpt>
      <trkpt lat="45.57124" lon="4.71961">
        <ele>167</ele>
        <time>2012-10-07T07:15:41Z</time>
      </trkpt>
      <trkpt lat="45.57127" lon="4.71963">
        <ele>167</ele>
        <time>2012-10-07T07:15:44Z</time>
      </trkpt>
      <trkpt lat="45.57129" lon="4.71964">
        <ele>167</ele>
        <time>2012-10-07T07:15:46Z</time>
      </trkpt>
      <trkpt lat="45.57131" lon="4.71965">
        <ele>167</ele>
        <time>2012-10-07T07:15:48Z</time>
      </trkpt>
      <trkpt lat="45.57134" lon="4.71966">
        <ele>167</ele>
        <time>2012-10-07T07:15:50Z</time>
      </trkpt>
      <trkpt lat="45.57137" lon="4.71968">
        <ele>167</ele>
        <time>2012-10-07T07:15:52Z</time>
      </trkpt>
      <trkpt lat="45.5714" lon="4.7197">
        <ele>167</ele>
        <time>2012-10-07T07:15:54Z</time>
      </trkpt>
      <trkpt lat="45.57142" lon="4.71971">
        <ele>167</ele>
        <time>2012-10-07T07:15:56Z</time>
      </trkpt>
      <trkpt lat="45.57143" lon="4.71972">
        <ele>168</ele>
        <time>2012-10-07T07:15:58Z</time>
      </trkpt>
      <trkpt lat="45.57145" lon="4.71973">
        <ele>168</ele>
        <time>2012-10-07T07:16:00Z</time>
      </trkpt>
      <trkpt lat="45.57147" lon="4.71974">
        <ele>168</ele>
        <time>2012-10-07T07:16:02Z</time>
      </trkpt>
      <trkpt lat="45.5715" lon="4.71975">
        <ele>167</ele>
        <time>2012-10-07T07:16:04Z</time>
      </trkpt>
      <trkpt lat="45.57152" lon="4.71976">
        <ele>168</ele>
        <time>2012-10-07T07:16:06Z</time>
      </trkpt>
      <trkpt lat="45.57154" lon="4.71977">
        <ele>168</ele>
        <time>2012-10-07T07:16:08Z</time>
      </trkpt>
      <trkpt lat="45.57156" lon="4.71978">
        <ele>168</ele>
        <time>2012-10-07T07:16:10Z</time>
      </trkpt>
      <trkpt lat="45.57158" lon="4.71979">
        <ele>168</ele>
        <time>2012-10-07T07:16:12Z</time>
      </trkpt>
      <trkpt lat="45.5716" lon="4.7198">
        <ele>168</ele>
        <time>2012-10-07T07:16:14Z</time>
      </trkpt>
      <trkpt lat="45.57162" lon="4.71981">
        <ele>168</ele>
        <time>2012-10-07T07:16:16Z</time>
      </trkpt>
      <trkpt lat="45.57164" lon="4.71982">
        <ele>168</ele>
        <time>2012-10-07T07:16:18Z</time>
      </trkpt>
      <trkpt lat="45.57166" lon="4.71983">
        <ele>168</ele>
        <time>2012-10-07T07:16:20Z</time>
      </trkpt>
      <trkpt lat="45.57168" lon="4.71984">
        <ele>169</ele>
        <time>2012-10-07T07:16:23Z</time>
      </trkpt>
      <trkpt lat="45.5717" lon="4.71986">
        <ele>169</ele>
        <time>2012-10-07T07:16:25Z</time>
      </trkpt>
      <trkpt lat="45.57171" lon="4.71988">
        <ele>169</ele>
        <time>2012-10-07T07:16:27Z</time>
      </trkpt>
      <trkpt lat="45.57172" lon="4.7199">
        <ele>169</ele>
        <time>2012-10-07T07:16:29Z</time>
      </trkpt>
      <trkpt lat="45.57172" lon="4.71993">
        <ele>169</ele>
        <time>2012-10-07T07:16:31Z</time>
      </trkpt>
      <trkpt lat="45.57172" lon="4.71996">
        <ele>169</ele>
        <time>2012-10-07T07:16:33Z</time>
      </trkpt>
      <trkpt lat="45.57172" lon="4.71999">
        <ele>169</ele>
        <time>2012-10-07T07:16:35Z</time>
      </trkpt>
      <trkpt lat="45.57172" lon="4.72001">
        <ele>169</ele>
        <time>2012-10-07T07:16:37Z</time>
      </trkpt>
      <trkpt lat="45.57171" lon="4.72005">
        <ele>170</ele>
        <time>2012-10-07T07:16:39Z</time>
      </trkpt>
      <trkpt lat="45.57171" lon="4.72008">
        <ele>170</ele>
        <time>2012-10-07T07:16:41Z</time>
      </trkpt>
      <trkpt lat="45.57171" lon="4.72011">
        <ele>170</ele>
        <time>2012-10-07T07:16:44Z</time>
      </trkpt>
      <trkpt lat="45.57171" lon="4.72014">
        <ele>171</ele>
        <time>2012-10-07T07:16:46Z</time>
      </trkpt>
      <trkpt lat="45.57171" lon="4.72016">
        <ele>171</ele>
        <time>2012-10-07T07:16:48Z</time>
      </trkpt>
      <trkpt lat="45.57171" lon="4.72021">
        <ele>171</ele>
        <time>2012-10-07T07:16:50Z</time>
      </trkpt>
      <trkpt lat="45.57172" lon="4.72023">
        <ele>171</ele>
        <time>2012-10-07T07:16:52Z</time>
      </trkpt>
      <trkpt lat="45.57172" lon="4.72026">
        <ele>171</ele>
        <time>2012-10-07T07:16:54Z</time>
      </trkpt>
      <trkpt lat="45.57172" lon="4.72029">
        <ele>171</ele>
        <time>2012-10-07T07:16:56Z</time>
      </trkpt>
      <trkpt lat="45.57172" lon="4.72032">
        <ele>171</ele>
        <time>2012-10-07T07:16:58Z</time>
      </trkpt>
      <trkpt lat="45.57173" lon="4.72035">
        <ele>171</ele>
        <time>2012-10-07T07:17:00Z</time>
      </trkpt>
      <trkpt lat="45.57173" lon="4.72038">
        <ele>171</ele>
        <time>2012-10-07T07:17:02Z</time>
      </trkpt>
      <trkpt lat="45.57174" lon="4.72041">
        <ele>171</ele>
        <time>2012-10-07T07:17:05Z</time>
      </trkpt>
      <trkpt lat="45.57175" lon="4.72045">
        <ele>171</ele>
        <time>2012-10-07T07:17:07Z</time>
      </trkpt>
      <trkpt lat="45.57175" lon="4.72048">
        <ele>171</ele>
        <time>2012-10-07T07:17:09Z</time>
      </trkpt>
      <trkpt lat="45.57175" lon="4.72051">
        <ele>171</ele>
        <time>2012-10-07T07:17:11Z</time>
      </trkpt>
      <trkpt lat="45.57175" lon="4.72053">
        <ele>172</ele>
        <time>2012-10-07T07:17:13Z</time>
      </trkpt>
      <trkpt lat="45.57176" lon="4.72056">
        <ele>172</ele>
        <time>2012-10-07T07:17:15Z</time>
      </trkpt>
      <trkpt lat="45.57177" lon="4.72058">
        <ele>172</ele>
        <time>2012-10-07T07:17:17Z</time>
      </trkpt>
      <trkpt lat="45.57177" lon="4.72061">
        <ele>173</ele>
        <time>2012-10-07T07:17:19Z</time>
      </trkpt>
      <trkpt lat="45.57177" lon="4.72064">
        <ele>172</ele>
        <time>2012-10-07T07:17:21Z</time>
      </trkpt>
      <trkpt lat="45.57178" lon="4.72066">
        <ele>173</ele>
        <time>2012-10-07T07:17:23Z</time>
      </trkpt>
      <trkpt lat="45.57179" lon="4.72068">
        <ele>173</ele>
        <time>2012-10-07T07:17:25Z</time>
      </trkpt>
      <trkpt lat="45.5718" lon="4.72071">
        <ele>173</ele>
        <time>2012-10-07T07:17:27Z</time>
      </trkpt>
      <trkpt lat="45.5718" lon="4.72074">
        <ele>173</ele>
        <time>2012-10-07T07:17:30Z</time>
      </trkpt>
      <trkpt lat="45.5718" lon="4.72076">
        <ele>174</ele>
        <time>2012-10-07T07:17:32Z</time>
      </trkpt>
      <trkpt lat="45.57181" lon="4.72079">
        <ele>174</ele>
        <time>2012-10-07T07:17:34Z</time>
      </trkpt>
      <trkpt lat="45.57182" lon="4.72081">
        <ele>174</ele>
        <time>2012-10-07T07:17:36Z</time>
      </trkpt>
      <trkpt lat="45.57183" lon="4.72085">
        <ele>174</ele>
        <time>2012-10-07T07:17:38Z</time>
      </trkpt>
      <trkpt lat="45.57184" lon="4.72087">
        <ele>174</ele>
        <time>2012-10-07T07:17:40Z</time>
      </trkpt>
      <trkpt lat="45.57184" lon="4.7209">
        <ele>174</ele>
        <time>2012-10-07T07:17:42Z</time>
      </trkpt>
      <trkpt lat="45.57185" lon="4.72093">
        <ele>174</ele>
        <time>2012-10-07T07:17:44Z</time>
      </trkpt>
      <trkpt lat="45.57186" lon="4.72095">
        <ele>174</ele>
        <time>2012-10-07T07:17:46Z</time>
      </trkpt>
      <trkpt lat="45.57187" lon="4.72098">
        <ele>174</ele>
        <time>2012-10-07T07:17:48Z</time>
      </trkpt>
      <trkpt lat="45.57188" lon="4.721">
        <ele>175</ele>
        <time>2012-10-07T07:17:50Z</time>
      </trkpt>
      <trkpt lat="45.57188" lon="4.72103">
        <ele>175</ele>
        <time>2012-10-07T07:17:52Z</time>
      </trkpt>
      <trkpt lat="45.57189" lon="4.72105">
        <ele>175</ele>
        <time>2012-10-07T07:17:54Z</time>
      </trkpt>
      <trkpt lat="45.5719" lon="4.72107">
        <ele>175</ele>
        <time>2012-10-07T07:17:56Z</time>
      </trkpt>
      <trkpt lat="45.5719" lon="4.7211">
        <ele>175</ele>
        <time>2012-10-07T07:17:58Z</time>
      </trkpt>
      <trkpt lat="45.5719" lon="4.72112">
        <ele>175</ele>
        <time>2012-10-07T07:18:01Z</time>
      </trkpt>
      <trkpt lat="45.57191" lon="4.72114">
        <ele>176</ele>
        <time>2012-10-07T07:18:03Z</time>
      </trkpt>
      <trkpt lat="45.5719" lon="4.72116">
        <ele>176</ele>
        <time>2012-10-07T07:18:05Z</time>
      </trkpt>
      <trkpt lat="45.5719" lon="4.7212">
        <ele>176</ele>
        <time>2012-10-07T07:18:07Z</time>
      </trkpt>
      <trkpt lat="45.57191" lon="4.72123">
        <ele>177</ele>
        <time>2012-10-07T07:18:09Z</time>
      </trkpt>
      <trkpt lat="45.57191" lon="4.72126">
        <ele>177</ele>
        <time>2012-10-07T07:18:11Z</time>
      </trkpt>
      <trkpt lat="45.57192" lon="4.72128">
        <ele>177</ele>
        <time>2012-10-07T07:18:13Z</time>
      </trkpt>
      <trkpt lat="45.57193" lon="4.7213">
        <ele>177</ele>
        <time>2012-10-07T07:18:15Z</time>
      </trkpt>
      <trkpt lat="45.57193" lon="4.72133">
        <ele>177</ele>
        <time>2012-10-07T07:18:17Z</time>
      </trkpt>
      <trkpt lat="45.57193" lon="4.72135">
        <ele>177</ele>
        <time>2012-10-07T07:18:19Z</time>
      </trkpt>
      <trkpt lat="45.57193" lon="4.72139">
        <ele>178</ele>
        <time>2012-10-07T07:18:22Z</time>
      </trkpt>
      <trkpt lat="45.57193" lon="4.72142">
        <ele>178</ele>
        <time>2012-10-07T07:18:24Z</time>
      </trkpt>
      <trkpt lat="45.57194" lon="4.72144">
        <ele>179</ele>
        <time>2012-10-07T07:18:26Z</time>
      </trkpt>
      <trkpt lat="45.57194" lon="4.72147">
        <ele>179</ele>
        <time>2012-10-07T07:18:28Z</time>
      </trkpt>
      <trkpt lat="45.57194" lon="4.72149">
        <ele>179</ele>
        <time>2012-10-07T07:18:30Z</time>
      </trkpt>
      <trkpt lat="45.57195" lon="4.72152">
        <ele>179</ele>
        <time>2012-10-07T07:18:32Z</time>
      </trkpt>
      <trkpt lat="45.57195" lon="4.72154">
        <ele>180</ele>
        <time>2012-10-07T07:18:34Z</time>
      </trkpt>
      <trkpt lat="45.57194" lon="4.72155">
        <ele>180</ele>
        <time>2012-10-07T07:18:36Z</time>
      </trkpt>
      <trkpt lat="45.57193" lon="4.72158">
        <ele>180</ele>
        <time>2012-10-07T07:18:38Z</time>
      </trkpt>
      <trkpt lat="45.57193" lon="4.72159">
        <ele>181</ele>
        <time>2012-10-07T07:18:40Z</time>
      </trkpt>
      <trkpt lat="45.57193" lon="4.72161">
        <ele>181</ele>
        <time>2012-10-07T07:18:42Z</time>
      </trkpt>
      <trkpt lat="45.57194" lon="4.72163">
        <ele>181</ele>
        <time>2012-10-07T07:18:44Z</time>
      </trkpt>
      <trkpt lat="45.57194" lon="4.72164">
        <ele>182</ele>
        <time>2012-10-07T07:18:46Z</time>
      </trkpt>
      <trkpt lat="45.57195" lon="4.72166">
        <ele>182</ele>
        <time>2012-10-07T07:18:49Z</time>
      </trkpt>
      <trkpt lat="45.57194" lon="4.72168">
        <ele>182</ele>
        <time>2012-10-07T07:18:51Z</time>
      </trkpt>
      <trkpt lat="45.57195" lon="4.72171">
        <ele>182</ele>
        <time>2012-10-07T07:18:53Z</time>
      </trkpt>
      <trkpt lat="45.57195" lon="4.72172">
        <ele>183</ele>
        <time>2012-10-07T07:18:55Z</time>
      </trkpt>
      <trkpt lat="45.57195" lon="4.72175">
        <ele>183</ele>
        <time>2012-10-07T07:18:57Z</time>
      </trkpt>
      <trkpt lat="45.57195" lon="4.72177">
        <ele>183</ele>
        <time>2012-10-07T07:18:59Z</time>
      </trkpt>
      <trkpt lat="45.57195" lon="4.72179">
        <ele>183</ele>
        <time>2012-10-07T07:19:01Z</time>
      </trkpt>
      <trkpt lat="45.57193" lon="4.72181">
        <ele>183</ele>
        <time>2012-10-07T07:19:03Z</time>
      </trkpt>
      <trkpt lat="45.57193" lon="4.72183">
        <ele>184</ele>
        <time>2012-10-07T07:19:05Z</time>
      </trkpt>
      <trkpt lat="45.57192" lon="4.72186">
        <ele>184</ele>
        <time>2012-10-07T07:19:07Z</time>
      </trkpt>
      <trkpt lat="45.57192" lon="4.72188">
        <ele>184</ele>
        <time>2012-10-07T07:19:09Z</time>
      </trkpt>
      <trkpt lat="45.57191" lon="4.7219">
        <ele>184</ele>
        <time>2012-10-07T07:19:11Z</time>
      </trkpt>
      <trkpt lat="45.57191" lon="4.72193">
        <ele>184</ele>
        <time>2012-10-07T07:19:13Z</time>
      </trkpt>
      <trkpt lat="45.57191" lon="4.72194">
        <ele>184</ele>
        <time>2012-10-07T07:19:15Z</time>
      </trkpt>
      <trkpt lat="45.57191" lon="4.72197">
        <ele>184</ele>
        <time>2012-10-07T07:19:17Z</time>
      </trkpt>
      <trkpt lat="45.5719" lon="4.72199">
        <ele>184</ele>
        <time>2012-10-07T07:19:19Z</time>
      </trkpt>
      <trkpt lat="45.5719" lon="4.72201">
        <ele>185</ele>
        <time>2012-10-07T07:19:21Z</time>
      </trkpt>
      <trkpt lat="45.57189" lon="4.72204">
        <ele>185</ele>
        <time>2012-10-07T07:19:24Z</time>
      </trkpt>
      <trkpt lat="45.57188" lon="4.72206">
        <ele>185</ele>
        <time>2012-10-07T07:19:26Z</time>
      </trkpt>
      <trkpt lat="45.57188" lon="4.7221">
        <ele>185</ele>
        <time>2012-10-07T07:19:28Z</time>
      </trkpt>
      <trkpt lat="45.57187" lon="4.72213">
        <ele>185</ele>
        <time>2012-10-07T07:19:30Z</time>
      </trkpt>
      <trkpt lat="45.57187" lon="4.72215">
        <ele>186</ele>
        <time>2012-10-07T07:19:32Z</time>
      </trkpt>
      <trkpt lat="45.57187" lon="4.72217">
        <ele>186</ele>
        <time>2012-10-07T07:19:34Z</time>
      </trkpt>
      <trkpt lat="45.57186" lon="4.72219">
        <ele>186</ele>
        <time>2012-10-07T07:19:36Z</time>
      </trkpt>
      <trkpt lat="45.57186" lon="4.72222">
        <ele>186</ele>
        <time>2012-10-07T07:19:39Z</time>
      </trkpt>
      <trkpt lat="45.57187" lon="4.72225">
        <ele>186</ele>
        <time>2012-10-07T07:19:41Z</time>
      </trkpt>
      <trkpt lat="45.57186" lon="4.72227">
        <ele>186</ele>
        <time>2012-10-07T07:19:43Z</time>
      </trkpt>
      <trkpt lat="45.57186" lon="4.72229">
        <ele>187</ele>
        <time>2012-10-07T07:19:45Z</time>
      </trkpt>
      <trkpt lat="45.57186" lon="4.72231">
        <ele>187</ele>
        <time>2012-10-07T07:19:47Z</time>
      </trkpt>
      <trkpt lat="45.57185" lon="4.72233">
        <ele>187</ele>
        <time>2012-10-07T07:19:49Z</time>
      </trkpt>
      <trkpt lat="45.57184" lon="4.72236">
        <ele>188</ele>
        <time>2012-10-07T07:19:52Z</time>
      </trkpt>
      <trkpt lat="45.57185" lon="4.72237">
        <ele>188</ele>
        <time>2012-10-07T07:19:54Z</time>
      </trkpt>
      <trkpt lat="45.57185" lon="4.72241">
        <ele>189</ele>
        <time>2012-10-07T07:19:56Z</time>
      </trkpt>
      <trkpt lat="45.57185" lon="4.72244">
        <ele>189</ele>
        <time>2012-10-07T07:19:58Z</time>
      </trkpt>
      <trkpt lat="45.57185" lon="4.72248">
        <ele>189</ele>
        <time>2012-10-07T07:20:00Z</time>
      </trkpt>
      <trkpt lat="45.57185" lon="4.7225">
        <ele>189</ele>
        <time>2012-10-07T07:20:02Z</time>
      </trkpt>
      <trkpt lat="45.57186" lon="4.72252">
        <ele>190</ele>
        <time>2012-10-07T07:20:04Z</time>
      </trkpt>
      <trkpt lat="45.57186" lon="4.72255">
        <ele>190</ele>
        <time>2012-10-07T07:20:06Z</time>
      </trkpt>
      <trkpt lat="45.57187" lon="4.72257">
        <ele>190</ele>
        <time>2012-10-07T07:20:08Z</time>
      </trkpt>
      <trkpt lat="45.57187" lon="4.72259">
        <ele>190</ele>
        <time>2012-10-07T07:20:10Z</time>
      </trkpt>
      <trkpt lat="45.57188" lon="4.7226">
        <ele>190</ele>
        <time>2012-10-07T07:20:12Z</time>
      </trkpt>
      <trkpt lat="45.57188" lon="4.72263">
        <ele>190</ele>
        <time>2012-10-07T07:20:14Z</time>
      </trkpt>
      <trkpt lat="45.57188" lon="4.72265">
        <ele>190</ele>
        <time>2012-10-07T07:20:16Z</time>
      </trkpt>
      <trkpt lat="45.57189" lon="4.72267">
        <ele>191</ele>
        <time>2012-10-07T07:20:19Z</time>
      </trkpt>
      <trkpt lat="45.57189" lon="4.72269">
        <ele>191</ele>
        <time>2012-10-07T07:20:21Z</time>
      </trkpt>
      <trkpt lat="45.5719" lon="4.72272">
        <ele>191</ele>
        <time>2012-10-07T07:20:23Z</time>
      </trkpt>
      <trkpt lat="45.5719" lon="4.72275">
        <ele>191</ele>
        <time>2012-10-07T07:20:25Z</time>
      </trkpt>
      <trkpt lat="45.57191" lon="4.72277">
        <ele>192</ele>
        <time>2012-10-07T07:20:27Z</time>
      </trkpt>
      <trkpt lat="45.57191" lon="4.72279">
        <ele>192</ele>
        <time>2012-10-07T07:20:29Z</time>
      </trkpt>
      <trkpt lat="45.57191" lon="4.72282">
        <ele>192</ele>
        <time>2012-10-07T07:20:31Z</time>
      </trkpt>
      <trkpt lat="45.57191" lon="4.72284">
        <ele>192</ele>
        <time>2012-10-07T07:20:33Z</time>
      </trkpt>
      <trkpt lat="45.57191" lon="4.72286">
        <ele>192</ele>
        <time>2012-10-07T07:20:35Z</time>
      </trkpt>
      <trkpt lat="45.57191" lon="4.72288">
        <ele>193</ele>
        <time>2012-10-07T07:20:37Z</time>
      </trkpt>
      <trkpt lat="45.57191" lon="4.7229">
        <ele>193</ele>
        <time>2012-10-07T07:20:39Z</time>
      </trkpt>
      <trkpt lat="45.57191" lon="4.72292">
        <ele>193</ele>
        <time>2012-10-07T07:20:41Z</time>
      </trkpt>
      <trkpt lat="45.57191" lon="4.72294">
        <ele>193</ele>
        <time>2012-10-07T07:20:44Z</time>
      </trkpt>
      <trkpt lat="45.57191" lon="4.72297">
        <ele>193</ele>
        <time>2012-10-07T07:20:46Z</time>
      </trkpt>
      <trkpt lat="45.57191" lon="4.723">
        <ele>193</ele>
        <time>2012-10-07T07:20:48Z</time>
      </trkpt>
      <trkpt lat="45.57191" lon="4.72302">
        <ele>193</ele>
        <time>2012-10-07T07:20:50Z</time>
      </trkpt>
      <trkpt lat="45.57191" lon="4.72304">
        <ele>193</ele>
        <time>2012-10-07T07:20:52Z</time>
      </trkpt>
      <trkpt lat="45.57191" lon="4.72307">
        <ele>193</ele>
        <time>2012-10-07T07:20:54Z</time>
      </trkpt>
      <trkpt lat="45.57193" lon="4.7231">
        <ele>193</ele>
        <time>2012-10-07T07:20:56Z</time>
      </trkpt>
      <trkpt lat="45.57193" lon="4.72313">
        <ele>194</ele>
        <time>2012-10-07T07:20:58Z</time>
      </trkpt>
      <trkpt lat="45.57193" lon="4.72316">
        <ele>194</ele>
        <time>2012-10-07T07:21:00Z</time>
      </trkpt>
      <trkpt lat="45.57193" lon="4.7232">
        <ele>194</ele>
        <time>2012-10-07T07:21:02Z</time>
      </trkpt>
      <trkpt lat="45.57194" lon="4.72323">
        <ele>194</ele>
        <time>2012-10-07T07:21:04Z</time>
      </trkpt>
      <trkpt lat="45.57195" lon="4.72327">
        <ele>194</ele>
        <time>2012-10-07T07:21:07Z</time>
      </trkpt>
      <trkpt lat="45.57196" lon="4.72332">
        <ele>194</ele>
        <time>2012-10-07T07:21:09Z</time>
      </trkpt>
      <trkpt lat="45.57196" lon="4.72335">
        <ele>194</ele>
        <time>2012-10-07T07:21:11Z</time>
      </trkpt>
      <trkpt lat="45.57197" lon="4.72339">
        <ele>194</ele>
        <time>2012-10-07T07:21:13Z</time>
      </trkpt>
      <trkpt lat="45.57197" lon="4.72342">
        <ele>195</ele>
        <time>2012-10-07T07:21:15Z</time>
      </trkpt>
      <trkpt lat="45.57198" lon="4.72346">
        <ele>195</ele>
        <time>2012-10-07T07:21:17Z</time>
      </trkpt>
      <trkpt lat="45.57198" lon="4.72349">
        <ele>195</ele>
        <time>2012-10-07T07:21:19Z</time>
      </trkpt>
      <trkpt lat="45.57198" lon="4.72352">
        <ele>195</ele>
        <time>2012-10-07T07:21:21Z</time>
      </trkpt>
      <trkpt lat="45.572" lon="4.72355">
        <ele>196</ele>
        <time>2012-10-07T07:21:24Z</time>
      </trkpt>
      <trkpt lat="45.572" lon="4.72359">
        <ele>196</ele>
        <time>2012-10-07T07:21:26Z</time>
      </trkpt>
      <trkpt lat="45.572" lon="4.72363">
        <ele>196</ele>
        <time>2012-10-07T07:21:28Z</time>
      </trkpt>
      <trkpt lat="45.572" lon="4.72366">
        <ele>196</ele>
        <time>2012-10-07T07:21:30Z</time>
      </trkpt>
      <trkpt lat="45.572" lon="4.72369">
        <ele>196</ele>
        <time>2012-10-07T07:21:32Z</time>
      </trkpt>
      <trkpt lat="45.572" lon="4.72372">
        <ele>197</ele>
        <time>2012-10-07T07:21:34Z</time>
      </trkpt>
      <trkpt lat="45.57201" lon="4.72376">
        <ele>197</ele>
        <time>2012-10-07T07:21:36Z</time>
      </trkpt>
      <trkpt lat="45.57201" lon="4.72378">
        <ele>197</ele>
        <time>2012-10-07T07:21:38Z</time>
      </trkpt>
      <trkpt lat="45.57201" lon="4.72381">
        <ele>197</ele>
        <time>2012-10-07T07:21:40Z</time>
      </trkpt>
      <trkpt lat="45.57203" lon="4.72383">
        <ele>197</ele>
        <time>2012-10-07T07:21:42Z</time>
      </trkpt>
      <trkpt lat="45.57203" lon="4.72386">
        <ele>197</ele>
        <time>2012-10-07T07:21:44Z</time>
      </trkpt>
      <trkpt lat="45.57204" lon="4.72387">
        <ele>197</ele>
        <time>2012-10-07T07:21:46Z</time>
      </trkpt>
      <trkpt lat="45.57205" lon="4.72389">
        <ele>197</ele>
        <time>2012-10-07T07:21:48Z</time>
      </trkpt>
      <trkpt lat="45.57206" lon="4.72392">
        <ele>198</ele>
        <time>2012-10-07T07:21:50Z</time>
      </trkpt>
      <trkpt lat="45.57207" lon="4.72394">
        <ele>198</ele>
        <time>2012-10-07T07:21:52Z</time>
      </trkpt>
      <trkpt lat="45.57208" lon="4.72397">
        <ele>198</ele>
        <time>2012-10-07T07:21:55Z</time>
      </trkpt>
      <trkpt lat="45.5721" lon="4.724">
        <ele>198</ele>
        <time>2012-10-07T07:21:57Z</time>
      </trkpt>
      <trkpt lat="45.57212" lon="4.72402">
        <ele>198</ele>
        <time>2012-10-07T07:21:59Z</time>
      </trkpt>
      <trkpt lat="45.57214" lon="4.72405">
        <ele>198</ele>
        <time>2012-10-07T07:22:01Z</time>
      </trkpt>
      <trkpt lat="45.57215" lon="4.72407">
        <ele>198</ele>
        <time>2012-10-07T07:22:03Z</time>
      </trkpt>
      <trkpt lat="45.57216" lon="4.72408">
        <ele>198</ele>
        <time>2012-10-07T07:22:05Z</time>
      </trkpt>
      <trkpt lat="45.57218" lon="4.7241">
        <ele>198</ele>
        <time>2012-10-07T07:22:07Z</time>
      </trkpt>
      <trkpt lat="45.57219" lon="4.72412">
        <ele>199</ele>
        <time>2012-10-07T07:22:09Z</time>
      </trkpt>
      <trkpt lat="45.5722" lon="4.72414">
        <ele>199</ele>
        <time>2012-10-07T07:22:11Z</time>
      </trkpt>
      <trkpt lat="45.57222" lon="4.72416">
        <ele>200</ele>
        <time>2012-10-07T07:22:13Z</time>
      </trkpt>
      <trkpt lat="45.57223" lon="4.72418">
        <ele>200</ele>
        <time>2012-10-07T07:22:15Z</time>
      </trkpt>
      <trkpt lat="45.57224" lon="4.7242">
        <ele>200</ele>
        <time>2012-10-07T07:22:17Z</time>
      </trkpt>
      <trkpt lat="45.57225" lon="4.72421">
        <ele>200</ele>
        <time>2012-10-07T07:22:19Z</time>
      </trkpt>
      <trkpt lat="45.57227" lon="4.72422">
        <ele>200</ele>
        <time>2012-10-07T07:22:21Z</time>
      </trkpt>
      <trkpt lat="45.57227" lon="4.72424">
        <ele>200</ele>
        <time>2012-10-07T07:22:23Z</time>
      </trkpt>
      <trkpt lat="45.57228" lon="4.72426">
        <ele>200</ele>
        <time>2012-10-07T07:22:25Z</time>
      </trkpt>
      <trkpt lat="45.57229" lon="4.72427">
        <ele>200</ele>
        <time>2012-10-07T07:22:27Z</time>
      </trkpt>
      <trkpt lat="45.5723" lon="4.72429">
        <ele>200</ele>
        <time>2012-10-07T07:22:29Z</time>
      </trkpt>
      <trkpt lat="45.57232" lon="4.72431">
        <ele>200</ele>
        <time>2012-10-07T07:22:32Z</time>
      </trkpt>
      <trkpt lat="45.57233" lon="4.72433">
        <ele>201</ele>
        <time>2012-10-07T07:22:34Z</time>
      </trkpt>
      <trkpt lat="45.57235" lon="4.72435">
        <ele>201</ele>
        <time>2012-10-07T07:22:36Z</time>
      </trkpt>
      <trkpt lat="45.57236" lon="4.72438">
        <ele>201</ele>
        <time>2012-10-07T07:22:38Z</time>
      </trkpt>
      <trkpt lat="45.57238" lon="4.72441">
        <ele>201</ele>
        <time>2012-10-07T07:22:40Z</time>
      </trkpt>
      <trkpt lat="45.57239" lon="4.72443">
        <ele>202</ele>
        <time>2012-10-07T07:22:42Z</time>
      </trkpt>
      <trkpt lat="45.57241" lon="4.72445">
        <ele>202</ele>
        <time>2012-10-07T07:22:44Z</time>
      </trkpt>
      <trkpt lat="45.57241" lon="4.72448">
        <ele>202</ele>
        <time>2012-10-07T07:22:46Z</time>
      </trkpt>
      <trkpt lat="45.57243" lon="4.7245">
        <ele>202</ele>
        <time>2012-10-07T07:22:48Z</time>
      </trkpt>
      <trkpt lat="45.57244" lon="4.72453">
        <ele>202</ele>
        <time>2012-10-07T07:22:50Z</time>
      </trkpt>
      <trkpt lat="45.57244" lon="4.72455">
        <ele>202</ele>
        <time>2012-10-07T07:22:52Z</time>
      </trkpt>
      <trkpt lat="45.57245" lon="4.72458">
        <ele>202</ele>
        <time>2012-10-07T07:22:54Z</time>
      </trkpt>
      <trkpt lat="45.57246" lon="4.7246">
        <ele>202</ele>
        <time>2012-10-07T07:22:56Z</time>
      </trkpt>
      <trkpt lat="45.57246" lon="4.72462">
        <ele>203</ele>
        <time>2012-10-07T07:22:58Z</time>
      </trkpt>
      <trkpt lat="45.57248" lon="4.72464">
        <ele>203</ele>
        <time>2012-10-07T07:23:00Z</time>
      </trkpt>
      <trkpt lat="45.57249" lon="4.72466">
        <ele>203</ele>
        <time>2012-10-07T07:23:02Z</time>
      </trkpt>
      <trkpt lat="45.5725" lon="4.72468">
        <ele>204</ele>
        <time>2012-10-07T07:23:05Z</time>
      </trkpt>
      <trkpt lat="45.5725" lon="4.72472">
        <ele>204</ele>
        <time>2012-10-07T07:23:07Z</time>
      </trkpt>
      <trkpt lat="45.5725" lon="4.72475">
        <ele>204</ele>
        <time>2012-10-07T07:23:09Z</time>
      </trkpt>
      <trkpt lat="45.57249" lon="4.72478">
        <ele>204</ele>
        <time>2012-10-07T07:23:11Z</time>
      </trkpt>
      <trkpt lat="45.57248" lon="4.7248">
        <ele>204</ele>
        <time>2012-10-07T07:23:13Z</time>
      </trkpt>
      <trkpt lat="45.57246" lon="4.72483">
        <ele>204</ele>
        <time>2012-10-07T07:23:15Z</time>
      </trkpt>
      <trkpt lat="45.57245" lon="4.72486">
        <ele>205</ele>
        <time>2012-10-07T07:23:17Z</time>
      </trkpt>
      <trkpt lat="45.57243" lon="4.72489">
        <ele>205</ele>
        <time>2012-10-07T07:23:19Z</time>
      </trkpt>
      <trkpt lat="45.57241" lon="4.72492">
        <ele>205</ele>
        <time>2012-10-07T07:23:21Z</time>
      </trkpt>
      <trkpt lat="45.57239" lon="4.72494">
        <ele>205</ele>
        <time>2012-10-07T07:23:23Z</time>
      </trkpt>
      <trkpt lat="45.57237" lon="4.72496">
        <ele>205</ele>
        <time>2012-10-07T07:23:25Z</time>
      </trkpt>
      <trkpt lat="45.57236" lon="4.72498">
        <ele>205</ele>
        <time>2012-10-07T07:23:27Z</time>
      </trkpt>
      <trkpt lat="45.57234" lon="4.72499">
        <ele>205</ele>
        <time>2012-10-07T07:23:29Z</time>
      </trkpt>
      <trkpt lat="45.57232" lon="4.725">
        <ele>205</ele>
        <time>2012-10-07T07:23:31Z</time>
      </trkpt>
      <trkpt lat="45.5723" lon="4.72501">
        <ele>205</ele>
        <time>2012-10-07T07:23:34Z</time>
      </trkpt>
      <trkpt lat="45.57227" lon="4.72503">
        <ele>206</ele>
        <time>2012-10-07T07:23:36Z</time>
      </trkpt>
      <trkpt lat="45.57225" lon="4.72504">
        <ele>206</ele>
        <time>2012-10-07T07:23:38Z</time>
      </trkpt>
      <trkpt lat="45.57223" lon="4.72505">
        <ele>206</ele>
        <time>2012-10-07T07:23:40Z</time>
      </trkpt>
      <trkpt lat="45.57222" lon="4.72506">
        <ele>206</ele>
        <time>2012-10-07T07:23:42Z</time>
      </trkpt>
      <trkpt lat="45.5722" lon="4.72506">
        <ele>206</ele>
        <time>2012-10-07T07:23:44Z</time>
      </trkpt>
      <trkpt lat="45.57218" lon="4.72507">
        <ele>206</ele>
        <time>2012-10-07T07:23:46Z</time>
      </trkpt>
      <trkpt lat="45.57217" lon="4.72507">
        <ele>207</ele>
        <time>2012-10-07T07:23:48Z</time>
      </trkpt>
      <trkpt lat="45.57215" lon="4.72508">
        <ele>207</ele>
        <time>2012-10-07T07:23:50Z</time>
      </trkpt>
      <trkpt lat="45.57214" lon="4.72509">
        <ele>207</ele>
        <time>2012-10-07T07:23:52Z</time>
      </trkpt>
      <trkpt lat="45.57213" lon="4.72509">
        <ele>208</ele>
        <time>2012-10-07T07:23:54Z</time>
      </trkpt>
      <trkpt lat="45.57212" lon="4.72509">
        <ele>207</ele>
        <time>2012-10-07T07:23:56Z</time>
      </trkpt>
      <trkpt lat="45.5721" lon="4.72508">
        <ele>208</ele>
        <time>2012-10-07T07:23:58Z</time>
      </trkpt>
      <trkpt lat="45.57208" lon="4.72507">
        <ele>208</ele>
        <time>2012-10-07T07:24:01Z</time>
      </trkpt>
      <trkpt lat="45.57206" lon="4.72507">
        <ele>208</ele>
        <time>2012-10-07T07:24:03Z</time>
      </trkpt>
      <trkpt lat="45.57203" lon="4.72506">
        <ele>208</ele>
        <time>2012-10-07T07:24:05Z</time>
      </trkpt>
      <trkpt lat="45.57201" lon="4.72506">
        <ele>208</ele>
        <time>2012-10-07T07:24:07Z</time>
      </trkpt>
      <trkpt lat="45.572" lon="4.72505">
        <ele>208</ele>
        <time>2012-10-07T07:24:09Z</time>
      </trkpt>
      <trkpt lat="45.57199" lon="4.72504">
        <ele>209</ele>
        <time>2012-10-07T07:24:11Z</time>
      </trkpt>
      <trkpt lat="45.57198" lon="4.72502">
        <ele>209</ele>
        <time>2012-10-07T07:24:13Z</time>
      </trkpt>
      <trkpt lat="45.57196" lon="4.72501">
        <ele>210</ele>
        <time>2012-10-07T07:24:15Z</time>
      </trkpt>
      <trkpt lat="45.57195" lon="4.72498">
        <ele>210</ele>
        <time>2012-10-07T07:24:17Z</time>
      </trkpt>
      <trkpt lat="45.57193" lon="4.72496">
        <ele>210</ele>
        <time>2012-10-07T07:24:20Z</time>
      </trkpt>
      <trkpt lat="45.57191" lon="4.72494">
        <ele>210</ele>
        <time>2012-10-07T07:24:22Z</time>
      </trkpt>
      <trkpt lat="45.5719" lon="4.72492">
        <ele>210</ele>
        <time>2012-10-07T07:24:24Z</time>
      </trkpt>
      <trkpt lat="45.57189" lon="4.72489">
        <ele>210</ele>
        <time>2012-10-07T07:24:26Z</time>
      </trkpt>
      <trkpt lat="45.57187" lon="4.72488">
        <ele>211</ele>
        <time>2012-10-07T07:24:28Z</time>
      </trkpt>
      <trkpt lat="45.57186" lon="4.72486">
        <ele>211</ele>
        <time>2012-10-07T07:24:30Z</time>
      </trkpt>
      <trkpt lat="45.57185" lon="4.72484">
        <ele>211</ele>
        <time>2012-10-07T07:24:32Z</time>
      </trkpt>
      <trkpt lat="45.57184" lon="4.72482">
        <ele>211</ele>
        <time>2012-10-07T07:24:34Z</time>
      </trkpt>
      <trkpt lat="45.57182" lon="4.72481">
        <ele>212</ele>
        <time>2012-10-07T07:24:37Z</time>
      </trkpt>
      <trkpt lat="45.57181" lon="4.72479">
        <ele>212</ele>
        <time>2012-10-07T07:24:39Z</time>
      </trkpt>
      <trkpt lat="45.57179" lon="4.72477">
        <ele>212</ele>
        <time>2012-10-07T07:24:41Z</time>
      </trkpt>
      <trkpt lat="45.57178" lon="4.72475">
        <ele>212</ele>
        <time>2012-10-07T07:24:43Z</time>
      </trkpt>
      <trkpt lat="45.57177" lon="4.72473">
        <ele>213</ele>
        <time>2012-10-07T07:24:45Z</time>
      </trkpt>
      <trkpt lat="45.57175" lon="4.72471">
        <ele>213</ele>
        <time>2012-10-07T07:24:47Z</time>
      </trkpt>
      <trkpt lat="45.57174" lon="4.72469">
        <ele>213</ele>
        <time>2012-10-07T07:24:49Z</time>
      </trkpt>
      <trkpt lat="45.57173" lon="4.72467">
        <ele>214</ele>
        <time>2012-10-07T07:24:51Z</time>
      </trkpt>
      <trkpt lat="45.57172" lon="4.72465">
        <ele>214</ele>
        <time>2012-10-07T07:24:53Z</time>
      </trkpt>
      <trkpt lat="45.57171" lon="4.72463">
        <ele>214</ele>
        <time>2012-10-07T07:24:55Z</time>
      </trkpt>
      <trkpt lat="45.5717" lon="4.72461">
        <ele>214</ele>
        <time>2012-10-07T07:24:57Z</time>
      </trkpt>
      <trkpt lat="45.57169" lon="4.72459">
        <ele>214</ele>
        <time>2012-10-07T07:24:59Z</time>
      </trkpt>
      <trkpt lat="45.57167" lon="4.72458">
        <ele>214</ele>
        <time>2012-10-07T07:25:01Z</time>
      </trkpt>
      <trkpt lat="45.57167" lon="4.72456">
        <ele>215</ele>
        <time>2012-10-07T07:25:04Z</time>
      </trkpt>
      <trkpt lat="45.57166" lon="4.72454">
        <ele>215</ele>
        <time>2012-10-07T07:25:06Z</time>
      </trkpt>
      <trkpt lat="45.57164" lon="4.72452">
        <ele>216</ele>
        <time>2012-10-07T07:25:08Z</time>
      </trkpt>
      <trkpt lat="45.57163" lon="4.7245">
        <ele>216</ele>
        <time>2012-10-07T07:25:10Z</time>
      </trkpt>
      <trkpt lat="45.57161" lon="4.72448">
        <ele>216</ele>
        <time>2012-10-07T07:25:12Z</time>
      </trkpt>
      <trkpt lat="45.5716" lon="4.72446">
        <ele>216</ele>
        <time>2012-10-07T07:25:14Z</time>
      </trkpt>
      <trkpt lat="45.57159" lon="4.72444">
        <ele>216</ele>
        <time>2012-10-07T07:25:16Z</time>
      </trkpt>
      <trkpt lat="45.57158" lon="4.72443">
        <ele>216</ele>
        <time>2012-10-07T07:25:18Z</time>
      </trkpt>
      <trkpt lat="45.57157" lon="4.72441">
        <ele>216</ele>
        <time>2012-10-07T07:25:20Z</time>
      </trkpt>
      <trkpt lat="45.57156" lon="4.7244">
        <ele>216</ele>
        <time>2012-10-07T07:25:22Z</time>
      </trkpt>
      <trkpt lat="45.57155" lon="4.7244">
        <ele>217</ele>
        <time>2012-10-07T07:25:24Z</time>
      </trkpt>
      <trkpt lat="45.57153" lon="4.72438">
        <ele>217</ele>
        <time>2012-10-07T07:25:26Z</time>
      </trkpt>
      <trkpt lat="45.57151" lon="4.72438">
        <ele>217</ele>
        <time>2012-10-07T07:25:28Z</time>
      </trkpt>
      <trkpt lat="45.5715" lon="4.72437">
        <ele>218</ele>
        <time>2012-10-07T07:25:30Z</time>
      </trkpt>
      <trkpt lat="45.57148" lon="4.72437">
        <ele>218</ele>
        <time>2012-10-07T07:25:33Z</time>
      </trkpt>
      <trkpt lat="45.57146" lon="4.72436">
        <ele>218</ele>
        <time>2012-10-07T07:25:35Z</time>
      </trkpt>
      <trkpt lat="45.57144" lon="4.72436">
        <ele>218</ele>
        <time>2012-10-07T07:25:37Z</time>
      </trkpt>
      <trkpt lat="45.57141" lon="4.72437">
        <ele>219</ele>
        <time>2012-10-07T07:25:39Z</time>
      </trkpt>
      <trkpt lat="45.57139" lon="4.72438">
        <ele>219</ele>
        <time>2012-10-07T07:25:41Z</time>
      </trkpt>
      <trkpt lat="45.57137" lon="4.72439">
        <ele>219</ele>
        <time>2012-10-07T07:25:43Z</time>
      </trkpt>
      <trkpt lat="45.57135" lon="4.7244">
        <ele>219</ele>
        <time>2012-10-07T07:25:45Z</time>
      </trkpt>
      <trkpt lat="45.57133" lon="4.72441">
        <ele>220</ele>
        <time>2012-10-07T07:25:47Z</time>
      </trkpt>
      <trkpt lat="45.57132" lon="4.72441">
        <ele>220</ele>
        <time>2012-10-07T07:25:49Z</time>
      </trkpt>
      <trkpt lat="45.5713" lon="4.72441">
        <ele>220</ele>
        <time>2012-10-07T07:25:51Z</time>
      </trkpt>
      <trkpt lat="45.57129" lon="4.72442">
        <ele>220</ele>
        <time>2012-10-07T07:25:53Z</time>
      </trkpt>
      <trkpt lat="45.57128" lon="4.72443">
        <ele>221</ele>
        <time>2012-10-07T07:25:55Z</time>
      </trkpt>
      <trkpt lat="45.57125" lon="4.72444">
        <ele>221</ele>
        <time>2012-10-07T07:25:58Z</time>
      </trkpt>
      <trkpt lat="45.57122" lon="4.72446">
        <ele>221</ele>
        <time>2012-10-07T07:26:00Z</time>
      </trkpt>
      <trkpt lat="45.57121" lon="4.72447">
        <ele>221</ele>
        <time>2012-10-07T07:26:02Z</time>
      </trkpt>
      <trkpt lat="45.57118" lon="4.7245">
        <ele>221</ele>
        <time>2012-10-07T07:26:04Z</time>
      </trkpt>
      <trkpt lat="45.57117" lon="4.7245">
        <ele>221</ele>
        <time>2012-10-07T07:26:06Z</time>
      </trkpt>
      <trkpt lat="45.57117" lon="4.72451">
        <ele>221</ele>
        <time>2012-10-07T07:26:08Z</time>
      </trkpt>
      <trkpt lat="45.57116" lon="4.72452">
        <ele>220</ele>
        <time>2012-10-07T07:26:10Z</time>
      </trkpt>
      <trkpt lat="45.57115" lon="4.72455">
        <ele>220</ele>
        <time>2012-10-07T07:26:12Z</time>
      </trkpt>
      <trkpt lat="45.57114" lon="4.72458">
        <ele>220</ele>
        <time>2012-10-07T07:26:14Z</time>
      </trkpt>
      <trkpt lat="45.57111" lon="4.72461">
        <ele>220</ele>
        <time>2012-10-07T07:26:17Z</time>
      </trkpt>
      <trkpt lat="45.57107" lon="4.72465">
        <ele>220</ele>
        <time>2012-10-07T07:26:19Z</time>
      </trkpt>
      <trkpt lat="45.57105" lon="4.72467">
        <ele>220</ele>
        <time>2012-10-07T07:26:21Z</time>
      </trkpt>
      <trkpt lat="45.57104" lon="4.72469">
        <ele>220</ele>
        <time>2012-10-07T07:26:23Z</time>
      </trkpt>
      <trkpt lat="45.57102" lon="4.72471">
        <ele>220</ele>
        <time>2012-10-07T07:26:25Z</time>
      </trkpt>
      <trkpt lat="45.57101" lon="4.72473">
        <ele>220</ele>
        <time>2012-10-07T07:26:27Z</time>
      </trkpt>
      <trkpt lat="45.571" lon="4.72475">
        <ele>220</ele>
        <time>2012-10-07T07:26:29Z</time>
      </trkpt>
      <trkpt lat="45.57098" lon="4.72478">
        <ele>220</ele>
        <time>2012-10-07T07:26:31Z</time>
      </trkpt>
      <trkpt lat="45.57096" lon="4.72481">
        <ele>220</ele>
        <time>2012-10-07T07:26:33Z</time>
      </trkpt>
      <trkpt lat="45.57094" lon="4.72483">
        <ele>219</ele>
        <time>2012-10-07T07:26:35Z</time>
      </trkpt>
      <trkpt lat="45.57093" lon="4.72486">
        <ele>219</ele>
        <time>2012-10-07T07:26:37Z</time>
      </trkpt>
      <trkpt lat="45.57091" lon="4.72489">
        <ele>219</ele>
        <time>2012-10-07T07:26:39Z</time>
      </trkpt>
      <trkpt lat="45.5709" lon="4.72491">
        <ele>219</ele>
        <time>2012-10-07T07:26:42Z</time>
      </trkpt>
      <trkpt lat="45.57088" lon="4.72494">
        <ele>219</ele>
        <time>2012-10-07T07:26:44Z</time>
      </trkpt>
      <trkpt lat="45.57086" lon="4.72497">
        <ele>220</ele>
        <time>2012-10-07T07:26:46Z</time>
      </trkpt>
      <trkpt lat="45.57085" lon="4.72499">
        <ele>220</ele>
        <time>2012-10-07T07:26:48Z</time>
      </trkpt>
      <trkpt lat="45.57084" lon="4.72501">
        <ele>220</ele>
        <time>2012-10-07T07:26:50Z</time>
      </trkpt>
      <trkpt lat="45.57082" lon="4.72503">
        <ele>220</ele>
        <time>2012-10-07T07:26:52Z</time>
      </trkpt>
      <trkpt lat="45.57081" lon="4.72506">
        <ele>220</ele>
        <time>2012-10-07T07:26:54Z</time>
      </trkpt>
      <trkpt lat="45.57079" lon="4.72508">
        <ele>220</ele>
        <time>2012-10-07T07:26:56Z</time>
      </trkpt>
      <trkpt lat="45.57078" lon="4.7251">
        <ele>220</ele>
        <time>2012-10-07T07:26:58Z</time>
      </trkpt>
      <trkpt lat="45.57077" lon="4.72512">
        <ele>220</ele>
        <time>2012-10-07T07:27:00Z</time>
      </trkpt>
      <trkpt lat="45.57075" lon="4.72514">
        <ele>220</ele>
        <time>2012-10-07T07:27:02Z</time>
      </trkpt>
      <trkpt lat="45.57073" lon="4.72516">
        <ele>220</ele>
        <time>2012-10-07T07:27:04Z</time>
      </trkpt>
      <trkpt lat="45.57071" lon="4.72518">
        <ele>220</ele>
        <time>2012-10-07T07:27:06Z</time>
      </trkpt>
      <trkpt lat="45.57069" lon="4.72521">
        <ele>219</ele>
        <time>2012-10-07T07:27:08Z</time>
      </trkpt>
      <trkpt lat="45.57068" lon="4.72523">
        <ele>219</ele>
        <time>2012-10-07T07:27:11Z</time>
      </trkpt>
      <trkpt lat="45.57066" lon="4.72526">
        <ele>219</ele>
        <time>2012-10-07T07:27:13Z</time>
      </trkpt>
      <trkpt lat="45.57064" lon="4.72529">
        <ele>218</ele>
        <time>2012-10-07T07:27:15Z</time>
      </trkpt>
      <trkpt lat="45.57062" lon="4.72531">
        <ele>218</ele>
        <time>2012-10-07T07:27:17Z</time>
      </trkpt>
      <trkpt lat="45.57061" lon="4.72534">
        <ele>218</ele>
        <time>2012-10-07T07:27:19Z</time>
      </trkpt>
      <trkpt lat="45.57058" lon="4.72537">
        <ele>218</ele>
        <time>2012-10-07T07:27:21Z</time>
      </trkpt>
      <trkpt lat="45.57056" lon="4.7254">
        <ele>219</ele>
        <time>2012-10-07T07:27:23Z</time>
      </trkpt>
      <trkpt lat="45.57055" lon="4.72542">
        <ele>219</ele>
        <time>2012-10-07T07:27:25Z</time>
      </trkpt>
      <trkpt lat="45.57053" lon="4.72544">
        <ele>218</ele>
        <time>2012-10-07T07:27:27Z</time>
      </trkpt>
      <trkpt lat="45.57051" lon="4.72546">
        <ele>218</ele>
        <time>2012-10-07T07:27:29Z</time>
      </trkpt>
      <trkpt lat="45.5705" lon="4.72548">
        <ele>218</ele>
        <time>2012-10-07T07:27:31Z</time>
      </trkpt>
      <trkpt lat="45.57049" lon="4.7255">
        <ele>218</ele>
        <time>2012-10-07T07:27:33Z</time>
      </trkpt>
      <trkpt lat="45.57048" lon="4.72552">
        <ele>218</ele>
        <time>2012-10-07T07:27:36Z</time>
      </trkpt>
      <trkpt lat="45.57045" lon="4.72555">
        <ele>218</ele>
        <time>2012-10-07T07:27:38Z</time>
      </trkpt>
      <trkpt lat="45.57044" lon="4.72558">
        <ele>218</ele>
        <time>2012-10-07T07:27:40Z</time>
      </trkpt>
      <trkpt lat="45.57043" lon="4.7256">
        <ele>218</ele>
        <time>2012-10-07T07:27:42Z</time>
      </trkpt>
      <trkpt lat="45.57042" lon="4.72563">
        <ele>218</ele>
        <time>2012-10-07T07:27:44Z</time>
      </trkpt>
      <trkpt lat="45.5704" lon="4.72565">
        <ele>218</ele>
        <time>2012-10-07T07:27:46Z</time>
      </trkpt>
      <trkpt lat="45.57039" lon="4.72567">
        <ele>218</ele>
        <time>2012-10-07T07:27:48Z</time>
      </trkpt>
      <trkpt lat="45.57038" lon="4.72569">
        <ele>218</ele>
        <time>2012-10-07T07:27:50Z</time>
      </trkpt>
      <trkpt lat="45.57037" lon="4.72571">
        <ele>218</ele>
        <time>2012-10-07T07:27:52Z</time>
      </trkpt>
      <trkpt lat="45.57036" lon="4.72573">
        <ele>218</ele>
        <time>2012-10-07T07:27:54Z</time>
      </trkpt>
      <trkpt lat="45.57035" lon="4.72576">
        <ele>218</ele>
        <time>2012-10-07T07:27:57Z</time>
      </trkpt>
      <trkpt lat="45.57032" lon="4.72579">
        <ele>217</ele>
        <time>2012-10-07T07:27:59Z</time>
      </trkpt>
      <trkpt lat="45.57032" lon="4.72581">
        <ele>217</ele>
        <time>2012-10-07T07:28:01Z</time>
      </trkpt>
      <trkpt lat="45.57029" lon="4.72583">
        <ele>217</ele>
        <time>2012-10-07T07:28:03Z</time>
      </trkpt>
      <trkpt lat="45.57027" lon="4.72585">
        <ele>217</ele>
        <time>2012-10-07T07:28:05Z</time>
      </trkpt>
      <trkpt lat="45.57025" lon="4.72587">
        <ele>217</ele>
        <time>2012-10-07T07:28:07Z</time>
      </trkpt>
      <trkpt lat="45.57024" lon="4.7259">
        <ele>217</ele>
        <time>2012-10-07T07:28:09Z</time>
      </trkpt>
      <trkpt lat="45.57021" lon="4.72593">
        <ele>217</ele>
        <time>2012-10-07T07:28:11Z</time>
      </trkpt>
      <trkpt lat="45.57019" lon="4.72597">
        <ele>217</ele>
        <time>2012-10-07T07:28:14Z</time>
      </trkpt>
      <trkpt lat="45.57018" lon="4.72599">
        <ele>216</ele>
        <time>2012-10-07T07:28:16Z</time>
      </trkpt>
      <trkpt lat="45.57018" lon="4.72601">
        <ele>216</ele>
        <time>2012-10-07T07:28:18Z</time>
      </trkpt>
      <trkpt lat="45.57017" lon="4.72604">
        <ele>216</ele>
        <time>2012-10-07T07:28:20Z</time>
      </trkpt>
      <trkpt lat="45.57014" lon="4.72605">
        <ele>215</ele>
        <time>2012-10-07T07:28:22Z</time>
      </trkpt>
      <trkpt lat="45.57012" lon="4.72608">
        <ele>215</ele>
        <time>2012-10-07T07:28:25Z</time>
      </trkpt>
      <trkpt lat="45.5701" lon="4.72612">
        <ele>215</ele>
        <time>2012-10-07T07:28:27Z</time>
      </trkpt>
      <trkpt lat="45.5701" lon="4.72614">
        <ele>214</ele>
        <time>2012-10-07T07:28:29Z</time>
      </trkpt>
      <trkpt lat="45.57008" lon="4.72616">
        <ele>214</ele>
        <time>2012-10-07T07:28:31Z</time>
      </trkpt>
      <trkpt lat="45.57008" lon="4.7262">
        <ele>213</ele>
        <time>2012-10-07T07:28:33Z</time>
      </trkpt>
      <trkpt lat="45.57008" lon="4.72623">
        <ele>213</ele>
        <time>2012-10-07T07:28:35Z</time>
      </trkpt>
      <trkpt lat="45.57007" lon="4.72625">
        <ele>213</ele>
        <time>2012-10-07T07:28:37Z</time>
      </trkpt>
      <trkpt lat="45.57007" lon="4.72627">
        <ele>212</ele>
        <time>2012-10-07T07:28:39Z</time>
      </trkpt>
      <trkpt lat="45.57005" lon="4.72629">
        <ele>212</ele>
        <time>2012-10-07T07:28:41Z</time>
      </trkpt>
      <trkpt lat="45.57005" lon="4.72631">
        <ele>212</ele>
        <time>2012-10-07T07:28:43Z</time>
      </trkpt>
      <trkpt lat="45.57005" lon="4.72632">
        <ele>212</ele>
        <time>2012-10-07T07:28:45Z</time>
      </trkpt>
      <trkpt lat="45.57003" lon="4.72634">
        <ele>212</ele>
        <time>2012-10-07T07:28:47Z</time>
      </trkpt>
      <trkpt lat="45.57001" lon="4.72635">
        <ele>211</ele>
        <time>2012-10-07T07:28:49Z</time>
      </trkpt>
      <trkpt lat="45.56999" lon="4.72636">
        <ele>211</ele>
        <time>2012-10-07T07:28:51Z</time>
      </trkpt>
      <trkpt lat="45.56996" lon="4.72637">
        <ele>211</ele>
        <time>2012-10-07T07:28:53Z</time>
      </trkpt>
      <trkpt lat="45.56994" lon="4.72638">
        <ele>211</ele>
        <time>2012-10-07T07:28:55Z</time>
      </trkpt>
      <trkpt lat="45.56992" lon="4.72639">
        <ele>211</ele>
        <time>2012-10-07T07:28:58Z</time>
      </trkpt>
      <trkpt lat="45.56989" lon="4.7264">
        <ele>210</ele>
        <time>2012-10-07T07:29:00Z</time>
      </trkpt>
      <trkpt lat="45.56988" lon="4.7264">
        <ele>210</ele>
        <time>2012-10-07T07:29:02Z</time>
      </trkpt>
      <trkpt lat="45.56986" lon="4.72642">
        <ele>210</ele>
        <time>2012-10-07T07:29:04Z</time>
      </trkpt>
      <trkpt lat="45.56984" lon="4.72643">
        <ele>209</ele>
        <time>2012-10-07T07:29:06Z</time>
      </trkpt>
      <trkpt lat="45.56982" lon="4.72645">
        <ele>209</ele>
        <time>2012-10-07T07:29:08Z</time>
      </trkpt>
      <trkpt lat="45.56979" lon="4.72647">
        <ele>209</ele>
        <time>2012-10-07T07:29:10Z</time>
      </trkpt>
      <trkpt lat="45.56979" lon="4.72648">
        <ele>209</ele>
        <time>2012-10-07T07:29:12Z</time>
      </trkpt>
      <trkpt lat="45.56977" lon="4.7265">
        <ele>208</ele>
        <time>2012-10-07T07:29:14Z</time>
      </trkpt>
      <trkpt lat="45.56976" lon="4.72651">
        <ele>208</ele>
        <time>2012-10-07T07:29:17Z</time>
      </trkpt>
      <trkpt lat="45.56974" lon="4.72653">
        <ele>208</ele>
        <time>2012-10-07T07:29:19Z</time>
      </trkpt>
      <trkpt lat="45.56972" lon="4.72654">
        <ele>208</ele>
        <time>2012-10-07T07:29:21Z</time>
      </trkpt>
      <trkpt lat="45.5697" lon="4.72656">
        <ele>207</ele>
        <time>2012-10-07T07:29:23Z</time>
      </trkpt>
      <trkpt lat="45.56968" lon="4.72658">
        <ele>207</ele>
        <time>2012-10-07T07:29:25Z</time>
      </trkpt>
      <trkpt lat="45.56964" lon="4.7266">
        <ele>207</ele>
        <time>2012-10-07T07:29:27Z</time>
      </trkpt>
      <trkpt lat="45.56961" lon="4.72662">
        <ele>207</ele>
        <time>2012-10-07T07:29:29Z</time>
      </trkpt>
      <trkpt lat="45.56959" lon="4.72664">
        <ele>207</ele>
        <time>2012-10-07T07:29:32Z</time>
      </trkpt>
      <trkpt lat="45.56957" lon="4.72666">
        <ele>207</ele>
        <time>2012-10-07T07:29:34Z</time>
      </trkpt>
      <trkpt lat="45.56955" lon="4.72668">
        <ele>206</ele>
        <time>2012-10-07T07:29:36Z</time>
      </trkpt>
      <trkpt lat="45.56953" lon="4.72671">
        <ele>206</ele>
        <time>2012-10-07T07:29:38Z</time>
      </trkpt>
      <trkpt lat="45.5695" lon="4.72672">
        <ele>206</ele>
        <time>2012-10-07T07:29:40Z</time>
      </trkpt>
      <trkpt lat="45.56949" lon="4.72674">
        <ele>206</ele>
        <time>2012-10-07T07:29:42Z</time>
      </trkpt>
      <trkpt lat="45.56946" lon="4.72675">
        <ele>206</ele>
        <time>2012-10-07T07:29:44Z</time>
      </trkpt>
      <trkpt lat="45.56943" lon="4.72677">
        <ele>206</ele>
        <time>2012-10-07T07:29:47Z</time>
      </trkpt>
      <trkpt lat="45.56942" lon="4.72679">
        <ele>206</ele>
        <time>2012-10-07T07:29:49Z</time>
      </trkpt>
      <trkpt lat="45.56941" lon="4.72682">
        <ele>206</ele>
        <time>2012-10-07T07:29:51Z</time>
      </trkpt>
      <trkpt lat="45.5694" lon="4.72684">
        <ele>206</ele>
        <time>2012-10-07T07:29:53Z</time>
      </trkpt>
      <trkpt lat="45.5694" lon="4.72687">
        <ele>206</ele>
        <time>2012-10-07T07:29:55Z</time>
      </trkpt>
      <trkpt lat="45.56939" lon="4.7269">
        <ele>206</ele>
        <time>2012-10-07T07:29:57Z</time>
      </trkpt>
      <trkpt lat="45.56938" lon="4.72692">
        <ele>205</ele>
        <time>2012-10-07T07:29:59Z</time>
      </trkpt>
      <trkpt lat="45.56938" lon="4.72695">
        <ele>205</ele>
        <time>2012-10-07T07:30:01Z</time>
      </trkpt>
      <trkpt lat="45.56937" lon="4.72698">
        <ele>205</ele>
        <time>2012-10-07T07:30:03Z</time>
      </trkpt>
      <trkpt lat="45.56936" lon="4.727">
        <ele>205</ele>
        <time>2012-10-07T07:30:05Z</time>
      </trkpt>
      <trkpt lat="45.56935" lon="4.72703">
        <ele>205</ele>
        <time>2012-10-07T07:30:07Z</time>
      </trkpt>
      <trkpt lat="45.56935" lon="4.72705">
        <ele>205</ele>
        <time>2012-10-07T07:30:09Z</time>
      </trkpt>
      <trkpt lat="45.56935" lon="4.72708">
        <ele>205</ele>
        <time>2012-10-07T07:30:11Z</time>
      </trkpt>
      <trkpt lat="45.56935" lon="4.72711">
        <ele>205</ele>
        <time>2012-10-07T07:30:14Z</time>
      </trkpt>
      <trkpt lat="45.56935" lon="4.72714">
        <ele>205</ele>
        <time>2012-10-07T07:30:16Z</time>
      </trkpt>
      <trkpt lat="45.56936" lon="4.72715">
        <ele>205</ele>
        <time>2012-10-07T07:30:18Z</time>
      </trkpt>
      <trkpt lat="45.56936" lon="4.72717">
        <ele>206</ele>
        <time>2012-10-07T07:30:20Z</time>
      </trkpt>
      <trkpt lat="45.56936" lon="4.72718">
        <ele>206</ele>
        <time>2012-10-07T07:30:22Z</time>
      </trkpt>
      <trkpt lat="45.56935" lon="4.72721">
        <ele>206</ele>
        <time>2012-10-07T07:30:24Z</time>
      </trkpt>
      <trkpt lat="45.56935" lon="4.72722">
        <ele>206</ele>
        <time>2012-10-07T07:30:26Z</time>
      </trkpt>
      <trkpt lat="45.56935" lon="4.72724">
        <ele>206</ele>
        <time>2012-10-07T07:30:28Z</time>
      </trkpt>
      <trkpt lat="45.56935" lon="4.72727">
        <ele>206</ele>
        <time>2012-10-07T07:30:30Z</time>
      </trkpt>
      <trkpt lat="45.56934" lon="4.72728">
        <ele>206</ele>
        <time>2012-10-07T07:30:32Z</time>
      </trkpt>
      <trkpt lat="45.56934" lon="4.72729">
        <ele>206</ele>
        <time>2012-10-07T07:30:35Z</time>
      </trkpt>
      <trkpt lat="45.56929" lon="4.72731">
        <ele>206</ele>
        <time>2012-10-07T07:30:37Z</time>
      </trkpt>
      <trkpt lat="45.56926" lon="4.72734">
        <ele>206</ele>
        <time>2012-10-07T07:30:39Z</time>
      </trkpt>
      <trkpt lat="45.56924" lon="4.72738">
        <ele>205</ele>
        <time>2012-10-07T07:30:41Z</time>
      </trkpt>
      <trkpt lat="45.56921" lon="4.72739">
        <ele>205</ele>
        <time>2012-10-07T07:30:43Z</time>
      </trkpt>
      <trkpt lat="45.56919" lon="4.7274">
        <ele>205</ele>
        <time>2012-10-07T07:30:45Z</time>
      </trkpt>
      <trkpt lat="45.56918" lon="4.72742">
        <ele>205</ele>
        <time>2012-10-07T07:30:47Z</time>
      </trkpt>
      <trkpt lat="45.56918" lon="4.72744">
        <ele>204</ele>
        <time>2012-10-07T07:30:49Z</time>
      </trkpt>
      <trkpt lat="45.56917" lon="4.72746">
        <ele>204</ele>
        <time>2012-10-07T07:30:51Z</time>
      </trkpt>
      <trkpt lat="45.56918" lon="4.72748">
        <ele>204</ele>
        <time>2012-10-07T07:30:53Z</time>
      </trkpt>
      <trkpt lat="45.56918" lon="4.72749">
        <ele>204</ele>
        <time>2012-10-07T07:30:55Z</time>
      </trkpt>
      <trkpt lat="45.56918" lon="4.72751">
        <ele>204</ele>
        <time>2012-10-07T07:30:57Z</time>
      </trkpt>
      <trkpt lat="45.56918" lon="4.72751">
        <ele>204</ele>
        <time>2012-10-07T07:30:59Z</time>
      </trkpt>
      <trkpt lat="45.5692" lon="4.72752">
        <ele>205</ele>
        <time>2012-10-07T07:31:02Z</time>
      </trkpt>
      <trkpt lat="45.56924" lon="4.72751">
        <ele>205</ele>
        <time>2012-10-07T07:31:04Z</time>
      </trkpt>
      <trkpt lat="45.56925" lon="4.72751">
        <ele>205</ele>
        <time>2012-10-07T07:31:06Z</time>
      </trkpt>
      <trkpt lat="45.56927" lon="4.72752">
        <ele>205</ele>
        <time>2012-10-07T07:31:08Z</time>
      </trkpt>
      <trkpt lat="45.5693" lon="4.72752">
        <ele>205</ele>
        <time>2012-10-07T07:31:10Z</time>
      </trkpt>
      <trkpt lat="45.56932" lon="4.72752">
        <ele>205</ele>
        <time>2012-10-07T07:31:12Z</time>
      </trkpt>
      <trkpt lat="45.56935" lon="4.72751">
        <ele>206</ele>
        <time>2012-10-07T07:31:14Z</time>
      </trkpt>
      <trkpt lat="45.56939" lon="4.72751">
        <ele>206</ele>
        <time>2012-10-07T07:31:16Z</time>
      </trkpt>
      <trkpt lat="45.5694" lon="4.72751">
        <ele>206</ele>
        <time>2012-10-07T07:31:18Z</time>
      </trkpt>
      <trkpt lat="45.56941" lon="4.7275">
        <ele>206</ele>
        <time>2012-10-07T07:31:20Z</time>
      </trkpt>
      <trkpt lat="45.56941" lon="4.72749">
        <ele>206</ele>
        <time>2012-10-07T07:31:22Z</time>
      </trkpt>
      <trkpt lat="45.56942" lon="4.72747">
        <ele>207</ele>
        <time>2012-10-07T07:31:24Z</time>
      </trkpt>
      <trkpt lat="45.56944" lon="4.72746">
        <ele>207</ele>
        <time>2012-10-07T07:31:26Z</time>
      </trkpt>
      <trkpt lat="45.56946" lon="4.72744">
        <ele>207</ele>
        <time>2012-10-07T07:31:28Z</time>
      </trkpt>
      <trkpt lat="45.56948" lon="4.72744">
        <ele>207</ele>
        <time>2012-10-07T07:31:31Z</time>
      </trkpt>
      <trkpt lat="45.5695" lon="4.72743">
        <ele>208</ele>
        <time>2012-10-07T07:31:33Z</time>
      </trkpt>
      <trkpt lat="45.56951" lon="4.72742">
        <ele>208</ele>
        <time>2012-10-07T07:31:35Z</time>
      </trkpt>
      <trkpt lat="45.56952" lon="4.72741">
        <ele>208</ele>
        <time>2012-10-07T07:31:37Z</time>
      </trkpt>
      <trkpt lat="45.56954" lon="4.72741">
        <ele>209</ele>
        <time>2012-10-07T07:31:39Z</time>
      </trkpt>
      <trkpt lat="45.56955" lon="4.72741">
        <ele>209</ele>
        <time>2012-10-07T07:31:41Z</time>
      </trkpt>
      <trkpt lat="45.56957" lon="4.72741">
        <ele>209</ele>
        <time>2012-10-07T07:31:44Z</time>
      </trkpt>
      <trkpt lat="45.56958" lon="4.72739">
        <ele>209</ele>
        <time>2012-10-07T07:31:46Z</time>
      </trkpt>
      <trkpt lat="45.56959" lon="4.72738">
        <ele>210</ele>
        <time>2012-10-07T07:31:48Z</time>
      </trkpt>
      <trkpt lat="45.56959" lon="4.72736">
        <ele>210</ele>
        <time>2012-10-07T07:31:50Z</time>
      </trkpt>
      <trkpt lat="45.56961" lon="4.72736">
        <ele>210</ele>
        <time>2012-10-07T07:31:52Z</time>
      </trkpt>
      <trkpt lat="45.56962" lon="4.72735">
        <ele>210</ele>
        <time>2012-10-07T07:31:54Z</time>
      </trkpt>
      <trkpt lat="45.56963" lon="4.72735">
        <ele>211</ele>
        <time>2012-10-07T07:31:56Z</time>
      </trkpt>
      <trkpt lat="45.56964" lon="4.72734">
        <ele>211</ele>
        <time>2012-10-07T07:31:58Z</time>
      </trkpt>
      <trkpt lat="45.56965" lon="4.72733">
        <ele>211</ele>
        <time>2012-10-07T07:32:00Z</time>
      </trkpt>
      <trkpt lat="45.56966" lon="4.72733">
        <ele>212</ele>
        <time>2012-10-07T07:32:02Z</time>
      </trkpt>
      <trkpt lat="45.56967" lon="4.72732">
        <ele>212</ele>
        <time>2012-10-07T07:32:05Z</time>
      </trkpt>
      <trkpt lat="45.56968" lon="4.72731">
        <ele>212</ele>
        <time>2012-10-07T07:32:07Z</time>
      </trkpt>
      <trkpt lat="45.56971" lon="4.7273">
        <ele>212</ele>
        <time>2012-10-07T07:32:09Z</time>
      </trkpt>
      <trkpt lat="45.56971" lon="4.72729">
        <ele>213</ele>
        <time>2012-10-07T07:32:11Z</time>
      </trkpt>
      <trkpt lat="45.56973" lon="4.72728">
        <ele>213</ele>
        <time>2012-10-07T07:32:13Z</time>
      </trkpt>
      <trkpt lat="45.56974" lon="4.72728">
        <ele>214</ele>
        <time>2012-10-07T07:32:15Z</time>
      </trkpt>
      <trkpt lat="45.56975" lon="4.72728">
        <ele>214</ele>
        <time>2012-10-07T07:32:17Z</time>
      </trkpt>
      <trkpt lat="45.56976" lon="4.72728">
        <ele>214</ele>
        <time>2012-10-07T07:32:19Z</time>
      </trkpt>
      <trkpt lat="45.56977" lon="4.72728">
        <ele>214</ele>
        <time>2012-10-07T07:32:21Z</time>
      </trkpt>
      <trkpt lat="45.56979" lon="4.72728">
        <ele>214</ele>
        <time>2012-10-07T07:32:23Z</time>
      </trkpt>
      <trkpt lat="45.5698" lon="4.72728">
        <ele>215</ele>
        <time>2012-10-07T07:32:25Z</time>
      </trkpt>
      <trkpt lat="45.56982" lon="4.72727">
        <ele>215</ele>
        <time>2012-10-07T07:32:28Z</time>
      </trkpt>
      <trkpt lat="45.56984" lon="4.72727">
        <ele>215</ele>
        <time>2012-10-07T07:32:30Z</time>
      </trkpt>
      <trkpt lat="45.56985" lon="4.72726">
        <ele>215</ele>
        <time>2012-10-07T07:32:32Z</time>
      </trkpt>
      <trkpt lat="45.56987" lon="4.72725">
        <ele>215</ele>
        <time>2012-10-07T07:32:34Z</time>
      </trkpt>
      <trkpt lat="45.56989" lon="4.72725">
        <ele>216</ele>
        <time>2012-10-07T07:32:36Z</time>
      </trkpt>
      <trkpt lat="45.5699" lon="4.72724">
        <ele>216</ele>
        <time>2012-10-07T07:32:38Z</time>
      </trkpt>
      <trkpt lat="45.56993" lon="4.72724">
        <ele>215</ele>
        <time>2012-10-07T07:32:40Z</time>
      </trkpt>
      <trkpt lat="45.56994" lon="4.72723">
        <ele>216</ele>
        <time>2012-10-07T07:32:42Z</time>
      </trkpt>
      <trkpt lat="45.56996" lon="4.72723">
        <ele>216</ele>
        <time>2012-10-07T07:32:44Z</time>
      </trkpt>
      <trkpt lat="45.56998" lon="4.72724">
        <ele>216</ele>
        <time>2012-10-07T07:32:47Z</time>
      </trkpt>
      <trkpt lat="45.57" lon="4.72724">
        <ele>216</ele>
        <time>2012-10-07T07:32:49Z</time>
      </trkpt>
      <trkpt lat="45.57001" lon="4.72723">
        <ele>216</ele>
        <time>2012-10-07T07:32:51Z</time>
      </trkpt>
      <trkpt lat="45.57003" lon="4.72723">
        <ele>216</ele>
        <time>2012-10-07T07:32:53Z</time>
      </trkpt>
      <trkpt lat="45.57004" lon="4.72724">
        <ele>216</ele>
        <time>2012-10-07T07:32:55Z</time>
      </trkpt>
      <trkpt lat="45.57005" lon="4.72724">
        <ele>217</ele>
        <time>2012-10-07T07:32:57Z</time>
      </trkpt>
      <trkpt lat="45.57006" lon="4.72724">
        <ele>217</ele>
        <time>2012-10-07T07:32:59Z</time>
      </trkpt>
      <trkpt lat="45.57009" lon="4.72724">
        <ele>217</ele>
        <time>2012-10-07T07:33:02Z</time>
      </trkpt>
      <trkpt lat="45.57011" lon="4.72724">
        <ele>217</ele>
        <time>2012-10-07T07:33:04Z</time>
      </trkpt>
      <trkpt lat="45.57013" lon="4.72724">
        <ele>217</ele>
        <time>2012-10-07T07:33:06Z</time>
      </trkpt>
      <trkpt lat="45.57014" lon="4.72724">
        <ele>218</ele>
        <time>2012-10-07T07:33:08Z</time>
      </trkpt>
      <trkpt lat="45.57016" lon="4.72724">
        <ele>218</ele>
        <time>2012-10-07T07:33:10Z</time>
      </trkpt>
      <trkpt lat="45.57018" lon="4.72724">
        <ele>218</ele>
        <time>2012-10-07T07:33:12Z</time>
      </trkpt>
      <trkpt lat="45.57019" lon="4.72724">
        <ele>218</ele>
        <time>2012-10-07T07:33:14Z</time>
      </trkpt>
      <trkpt lat="45.57021" lon="4.72725">
        <ele>218</ele>
        <time>2012-10-07T07:33:17Z</time>
      </trkpt>
      <trkpt lat="45.57024" lon="4.72724">
        <ele>218</ele>
        <time>2012-10-07T07:33:19Z</time>
      </trkpt>
      <trkpt lat="45.57027" lon="4.72725">
        <ele>218</ele>
        <time>2012-10-07T07:33:21Z</time>
      </trkpt>
      <trkpt lat="45.57029" lon="4.72725">
        <ele>218</ele>
        <time>2012-10-07T07:33:23Z</time>
      </trkpt>
      <trkpt lat="45.57032" lon="4.72726">
        <ele>218</ele>
        <time>2012-10-07T07:33:25Z</time>
      </trkpt>
      <trkpt lat="45.57034" lon="4.72727">
        <ele>218</ele>
        <time>2012-10-07T07:33:27Z</time>
      </trkpt>
      <trkpt lat="45.57035" lon="4.72727">
        <ele>218</ele>
        <time>2012-10-07T07:33:29Z</time>
      </trkpt>
      <trkpt lat="45.57036" lon="4.72727">
        <ele>218</ele>
        <time>2012-10-07T07:33:31Z</time>
      </trkpt>
      <trkpt lat="45.5704" lon="4.72727">
        <ele>218</ele>
        <time>2012-10-07T07:33:34Z</time>
      </trkpt>
      <trkpt lat="45.57042" lon="4.72726">
        <ele>218</ele>
        <time>2012-10-07T07:33:36Z</time>
      </trkpt>
      <trkpt lat="45.57044" lon="4.72725">
        <ele>218</ele>
        <time>2012-10-07T07:33:38Z</time>
      </trkpt>
      <trkpt lat="45.57046" lon="4.72724">
        <ele>218</ele>
        <time>2012-10-07T07:33:40Z</time>
      </trkpt>
      <trkpt lat="45.57048" lon="4.72722">
        <ele>218</ele>
        <time>2012-10-07T07:33:42Z</time>
      </trkpt>
      <trkpt lat="45.5705" lon="4.72721">
        <ele>217</ele>
        <time>2012-10-07T07:33:44Z</time>
      </trkpt>
      <trkpt lat="45.57052" lon="4.72721">
        <ele>218</ele>
        <time>2012-10-07T07:33:46Z</time>
      </trkpt>
      <trkpt lat="45.57053" lon="4.7272">
        <ele>218</ele>
        <time>2012-10-07T07:33:48Z</time>
      </trkpt>
      <trkpt lat="45.57054" lon="4.72719">
        <ele>218</ele>
        <time>2012-10-07T07:33:50Z</time>
      </trkpt>
      <trkpt lat="45.57056" lon="4.72719">
        <ele>218</ele>
        <time>2012-10-07T07:33:52Z</time>
      </trkpt>
      <trkpt lat="45.57058" lon="4.72718">
        <ele>218</ele>
        <time>2012-10-07T07:33:54Z</time>
      </trkpt>
      <trkpt lat="45.57059" lon="4.72718">
        <ele>218</ele>
        <time>2012-10-07T07:33:56Z</time>
      </trkpt>
      <trkpt lat="45.57063" lon="4.72717">
        <ele>218</ele>
        <time>2012-10-07T07:33:59Z</time>
      </trkpt>
      <trkpt lat="45.57064" lon="4.72716">
        <ele>218</ele>
        <time>2012-10-07T07:34:01Z</time>
      </trkpt>
      <trkpt lat="45.57066" lon="4.72714">
        <ele>218</ele>
        <time>2012-10-07T07:34:03Z</time>
      </trkpt>
      <trkpt lat="45.57066" lon="4.72714">
        <ele>218</ele>
        <time>2012-10-07T07:34:05Z</time>
      </trkpt>
      <trkpt lat="45.57068" lon="4.72713">
        <ele>218</ele>
        <time>2012-10-07T07:34:07Z</time>
      </trkpt>
      <trkpt lat="45.5707" lon="4.72712">
        <ele>217</ele>
        <time>2012-10-07T07:34:09Z</time>
      </trkpt>
      <trkpt lat="45.57072" lon="4.72711">
        <ele>218</ele>
        <time>2012-10-07T07:34:11Z</time>
      </trkpt>
      <trkpt lat="45.57074" lon="4.7271">
        <ele>218</ele>
        <time>2012-10-07T07:34:13Z</time>
      </trkpt>
      <trkpt lat="45.57076" lon="4.72709">
        <ele>218</ele>
        <time>2012-10-07T07:34:15Z</time>
      </trkpt>
      <trkpt lat="45.57079" lon="4.72708">
        <ele>218</ele>
        <time>2012-10-07T07:34:17Z</time>
      </trkpt>
      <trkpt lat="45.57081" lon="4.72707">
        <ele>218</ele>
        <time>2012-10-07T07:34:19Z</time>
      </trkpt>
      <trkpt lat="45.57085" lon="4.72705">
        <ele>218</ele>
        <time>2012-10-07T07:34:22Z</time>
      </trkpt>
      <trkpt lat="45.57087" lon="4.72704">
        <ele>218</ele>
        <time>2012-10-07T07:34:24Z</time>
      </trkpt>
      <trkpt lat="45.57089" lon="4.72704">
        <ele>218</ele>
        <time>2012-10-07T07:34:26Z</time>
      </trkpt>
      <trkpt lat="45.57091" lon="4.72704">
        <ele>218</ele>
        <time>2012-10-07T07:34:28Z</time>
      </trkpt>
      <trkpt lat="45.57092" lon="4.72703">
        <ele>218</ele>
        <time>2012-10-07T07:34:30Z</time>
      </trkpt>
      <trkpt lat="45.57093" lon="4.72703">
        <ele>218</ele>
        <time>2012-10-07T07:34:32Z</time>
      </trkpt>
      <trkpt lat="45.57096" lon="4.72702">
        <ele>219</ele>
        <time>2012-10-07T07:34:34Z</time>
      </trkpt>
      <trkpt lat="45.57098" lon="4.72701">
        <ele>219</ele>
        <time>2012-10-07T07:34:36Z</time>
      </trkpt>
      <trkpt lat="45.571" lon="4.72701">
        <ele>219</ele>
        <time>2012-10-07T07:34:38Z</time>
      </trkpt>
      <trkpt lat="45.57102" lon="4.72701">
        <ele>219</ele>
        <time>2012-10-07T07:34:40Z</time>
      </trkpt>
      <trkpt lat="45.57103" lon="4.72701">
        <ele>219</ele>
        <time>2012-10-07T07:34:42Z</time>
      </trkpt>
      <trkpt lat="45.57105" lon="4.72701">
        <ele>219</ele>
        <time>2012-10-07T07:34:44Z</time>
      </trkpt>
      <trkpt lat="45.57108" lon="4.727">
        <ele>219</ele>
        <time>2012-10-07T07:34:47Z</time>
      </trkpt>
      <trkpt lat="45.5711" lon="4.727">
        <ele>219</ele>
        <time>2012-10-07T07:34:49Z</time>
      </trkpt>
      <trkpt lat="45.57111" lon="4.72701">
        <ele>219</ele>
        <time>2012-10-07T07:34:51Z</time>
      </trkpt>
      <trkpt lat="45.57114" lon="4.72701">
        <ele>220</ele>
        <time>2012-10-07T07:34:53Z</time>
      </trkpt>
      <trkpt lat="45.57116" lon="4.72701">
        <ele>220</ele>
        <time>2012-10-07T07:34:55Z</time>
      </trkpt>
      <trkpt lat="45.57118" lon="4.72702">
        <ele>221</ele>
        <time>2012-10-07T07:34:57Z</time>
      </trkpt>
      <trkpt lat="45.57119" lon="4.72703">
        <ele>221</ele>
        <time>2012-10-07T07:34:59Z</time>
      </trkpt>
      <trkpt lat="45.5712" lon="4.72705">
        <ele>221</ele>
        <time>2012-10-07T07:35:01Z</time>
      </trkpt>
      <trkpt lat="45.57121" lon="4.72705">
        <ele>221</ele>
        <time>2012-10-07T07:35:03Z</time>
      </trkpt>
      <trkpt lat="45.57123" lon="4.72706">
        <ele>222</ele>
        <time>2012-10-07T07:35:05Z</time>
      </trkpt>
      <trkpt lat="45.57124" lon="4.72707">
        <ele>222</ele>
        <time>2012-10-07T07:35:07Z</time>
      </trkpt>
      <trkpt lat="45.57125" lon="4.72707">
        <ele>222</ele>
        <time>2012-10-07T07:35:09Z</time>
      </trkpt>
      <trkpt lat="45.57126" lon="4.72709">
        <ele>222</ele>
        <time>2012-10-07T07:35:11Z</time>
      </trkpt>
      <trkpt lat="45.57127" lon="4.7271">
        <ele>222</ele>
        <time>2012-10-07T07:35:13Z</time>
      </trkpt>
      <trkpt lat="45.57128" lon="4.72712">
        <ele>222</ele>
        <time>2012-10-07T07:35:16Z</time>
      </trkpt>
      <trkpt lat="45.5713" lon="4.72713">
        <ele>223</ele>
        <time>2012-10-07T07:35:18Z</time>
      </trkpt>
      <trkpt lat="45.57131" lon="4.72713">
        <ele>223</ele>
        <time>2012-10-07T07:35:20Z</time>
      </trkpt>
      <trkpt lat="45.57133" lon="4.72714">
        <ele>223</ele>
        <time>2012-10-07T07:35:22Z</time>
      </trkpt>
      <trkpt lat="45.57135" lon="4.72715">
        <ele>223</ele>
        <time>2012-10-07T07:35:24Z</time>
      </trkpt>
      <trkpt lat="45.57136" lon="4.72716">
        <ele>224</ele>
        <time>2012-10-07T07:35:26Z</time>
      </trkpt>
      <trkpt lat="45.57138" lon="4.72716">
        <ele>224</ele>
        <time>2012-10-07T07:35:28Z</time>
      </trkpt>
      <trkpt lat="45.5714" lon="4.72717">
        <ele>225</ele>
        <time>2012-10-07T07:35:30Z</time>
      </trkpt>
      <trkpt lat="45.57142" lon="4.72718">
        <ele>225</ele>
        <time>2012-10-07T07:35:32Z</time>
      </trkpt>
      <trkpt lat="45.57144" lon="4.72719">
        <ele>225</ele>
        <time>2012-10-07T07:35:34Z</time>
      </trkpt>
      <trkpt lat="45.57146" lon="4.7272">
        <ele>225</ele>
        <time>2012-10-07T07:35:36Z</time>
      </trkpt>
      <trkpt lat="45.57148" lon="4.72721">
        <ele>225</ele>
        <time>2012-10-07T07:35:38Z</time>
      </trkpt>
      <trkpt lat="45.5715" lon="4.72722">
        <ele>225</ele>
        <time>2012-10-07T07:35:40Z</time>
      </trkpt>
      <trkpt lat="45.57151" lon="4.72722">
        <ele>225</ele>
        <time>2012-10-07T07:35:42Z</time>
      </trkpt>
      <trkpt lat="45.57153" lon="4.72723">
        <ele>226</ele>
        <time>2012-10-07T07:35:44Z</time>
      </trkpt>
      <trkpt lat="45.57155" lon="4.72724">
        <ele>226</ele>
        <time>2012-10-07T07:35:46Z</time>
      </trkpt>
      <trkpt lat="45.57158" lon="4.72725">
        <ele>226</ele>
        <time>2012-10-07T07:35:48Z</time>
      </trkpt>
      <trkpt lat="45.57159" lon="4.72726">
        <ele>227</ele>
        <time>2012-10-07T07:35:50Z</time>
      </trkpt>
      <trkpt lat="45.57161" lon="4.72727">
        <ele>227</ele>
        <time>2012-10-07T07:35:53Z</time>
      </trkpt>
      <trkpt lat="45.57162" lon="4.72728">
        <ele>227</ele>
        <time>2012-10-07T07:35:55Z</time>
      </trkpt>
      <trkpt lat="45.57163" lon="4.72729">
        <ele>227</ele>
        <time>2012-10-07T07:35:57Z</time>
      </trkpt>
      <trkpt lat="45.57164" lon="4.7273">
        <ele>227</ele>
        <time>2012-10-07T07:35:59Z</time>
      </trkpt>
      <trkpt lat="45.57166" lon="4.72731">
        <ele>228</ele>
        <time>2012-10-07T07:36:01Z</time>
      </trkpt>
      <trkpt lat="45.57166" lon="4.72732">
        <ele>228</ele>
        <time>2012-10-07T07:36:03Z</time>
      </trkpt>
      <trkpt lat="45.57167" lon="4.72733">
        <ele>228</ele>
        <time>2012-10-07T07:36:05Z</time>
      </trkpt>
      <trkpt lat="45.57169" lon="4.72734">
        <ele>228</ele>
        <time>2012-10-07T07:36:07Z</time>
      </trkpt>
      <trkpt lat="45.5717" lon="4.72735">
        <ele>229</ele>
        <time>2012-10-07T07:36:09Z</time>
      </trkpt>
      <trkpt lat="45.57172" lon="4.72736">
        <ele>229</ele>
        <time>2012-10-07T07:36:11Z</time>
      </trkpt>
      <trkpt lat="45.57173" lon="4.72737">
        <ele>229</ele>
        <time>2012-10-07T07:36:13Z</time>
      </trkpt>
      <trkpt lat="45.57175" lon="4.72738">
        <ele>229</ele>
        <time>2012-10-07T07:36:15Z</time>
      </trkpt>
      <trkpt lat="45.57176" lon="4.7274">
        <ele>229</ele>
        <time>2012-10-07T07:36:17Z</time>
      </trkpt>
      <trkpt lat="45.57177" lon="4.72741">
        <ele>230</ele>
        <time>2012-10-07T07:36:19Z</time>
      </trkpt>
      <trkpt lat="45.57178" lon="4.72743">
        <ele>230</ele>
        <time>2012-10-07T07:36:21Z</time>
      </trkpt>
      <trkpt lat="45.57178" lon="4.72745">
        <ele>230</ele>
        <time>2012-10-07T07:36:24Z</time>
      </trkpt>
      <trkpt lat="45.5718" lon="4.72747">
        <ele>231</ele>
        <time>2012-10-07T07:36:26Z</time>
      </trkpt>
      <trkpt lat="45.57182" lon="4.72748">
        <ele>231</ele>
        <time>2012-10-07T07:36:28Z</time>
      </trkpt>
      <trkpt lat="45.57183" lon="4.72749">
        <ele>231</ele>
        <time>2012-10-07T07:36:30Z</time>
      </trkpt>
      <trkpt lat="45.57185" lon="4.72751">
        <ele>232</ele>
        <time>2012-10-07T07:36:32Z</time>
      </trkpt>
      <trkpt lat="45.57185" lon="4.72753">
        <ele>232</ele>
        <time>2012-10-07T07:36:34Z</time>
      </trkpt>
      <trkpt lat="45.57183" lon="4.72755">
        <ele>232</ele>
        <time>2012-10-07T07:36:36Z</time>
      </trkpt>
      <trkpt lat="45.57183" lon="4.72756">
        <ele>233</ele>
        <time>2012-10-07T07:36:39Z</time>
      </trkpt>
      <trkpt lat="45.57182" lon="4.72757">
        <ele>233</ele>
        <time>2012-10-07T07:36:41Z</time>
      </trkpt>
      <trkpt lat="45.5718" lon="4.72758">
        <ele>233</ele>
        <time>2012-10-07T07:36:43Z</time>
      </trkpt>
      <trkpt lat="45.57178" lon="4.72759">
        <ele>233</ele>
        <time>2012-10-07T07:36:45Z</time>
      </trkpt>
      <trkpt lat="45.57177" lon="4.7276">
        <ele>233</ele>
        <time>2012-10-07T07:36:47Z</time>
      </trkpt>
      <trkpt lat="45.57176" lon="4.72762">
        <ele>234</ele>
        <time>2012-10-07T07:36:49Z</time>
      </trkpt>
      <trkpt lat="45.57174" lon="4.72763">
        <ele>235</ele>
        <time>2012-10-07T07:36:51Z</time>
      </trkpt>
      <trkpt lat="45.57172" lon="4.72765">
        <ele>235</ele>
        <time>2012-10-07T07:36:53Z</time>
      </trkpt>
      <trkpt lat="45.57172" lon="4.72766">
        <ele>235</ele>
        <time>2012-10-07T07:36:55Z</time>
      </trkpt>
      <trkpt lat="45.5717" lon="4.72766">
        <ele>235</ele>
        <time>2012-10-07T07:36:57Z</time>
      </trkpt>
      <trkpt lat="45.57169" lon="4.72767">
        <ele>235</ele>
        <time>2012-10-07T07:36:59Z</time>
      </trkpt>
      <trkpt lat="45.57167" lon="4.72769">
        <ele>235</ele>
        <time>2012-10-07T07:37:01Z</time>
      </trkpt>
      <trkpt lat="45.57166" lon="4.7277">
        <ele>235</ele>
        <time>2012-10-07T07:37:03Z</time>
      </trkpt>
      <trkpt lat="45.57164" lon="4.72771">
        <ele>235</ele>
        <time>2012-10-07T07:37:05Z</time>
      </trkpt>
      <trkpt lat="45.57162" lon="4.72772">
        <ele>235</ele>
        <time>2012-10-07T07:37:07Z</time>
      </trkpt>
      <trkpt lat="45.57162" lon="4.72773">
        <ele>236</ele>
        <time>2012-10-07T07:37:09Z</time>
      </trkpt>
      <trkpt lat="45.5716" lon="4.72774">
        <ele>236</ele>
        <time>2012-10-07T07:37:11Z</time>
      </trkpt>
      <trkpt lat="45.57158" lon="4.72776">
        <ele>236</ele>
        <time>2012-10-07T07:37:13Z</time>
      </trkpt>
      <trkpt lat="45.57156" lon="4.72777">
        <ele>236</ele>
        <time>2012-10-07T07:37:15Z</time>
      </trkpt>
      <trkpt lat="45.57154" lon="4.72778">
        <ele>236</ele>
        <time>2012-10-07T07:37:17Z</time>
      </trkpt>
      <trkpt lat="45.57152" lon="4.72779">
        <ele>236</ele>
        <time>2012-10-07T07:37:19Z</time>
      </trkpt>
      <trkpt lat="45.5715" lon="4.7278">
        <ele>236</ele>
        <time>2012-10-07T07:37:21Z</time>
      </trkpt>
      <trkpt lat="45.57148" lon="4.72782">
        <ele>236</ele>
        <time>2012-10-07T07:37:24Z</time>
      </trkpt>
      <trkpt lat="45.57146" lon="4.72783">
        <ele>237</ele>
        <time>2012-10-07T07:37:26Z</time>
      </trkpt>
      <trkpt lat="45.57145" lon="4.72783">
        <ele>237</ele>
        <time>2012-10-07T07:37:28Z</time>
      </trkpt>
      <trkpt lat="45.57143" lon="4.72784">
        <ele>237</ele>
        <time>2012-10-07T07:37:30Z</time>
      </trkpt>
      <trkpt lat="45.57143" lon="4.72785">
        <ele>237</ele>
        <time>2012-10-07T07:37:32Z</time>
      </trkpt>
      <trkpt lat="45.57141" lon="4.72786">
        <ele>237</ele>
        <time>2012-10-07T07:37:34Z</time>
      </trkpt>
      <trkpt lat="45.5714" lon="4.72787">
        <ele>237</ele>
        <time>2012-10-07T07:37:36Z</time>
      </trkpt>
      <trkpt lat="45.57138" lon="4.72789">
        <ele>237</ele>
        <time>2012-10-07T07:37:38Z</time>
      </trkpt>
      <trkpt lat="45.57136" lon="4.7279">
        <ele>238</ele>
        <time>2012-10-07T07:37:40Z</time>
      </trkpt>
      <trkpt lat="45.57134" lon="4.72791">
        <ele>238</ele>
        <time>2012-10-07T07:37:42Z</time>
      </trkpt>
      <trkpt lat="45.57132" lon="4.72792">
        <ele>238</ele>
        <time>2012-10-07T07:37:44Z</time>
      </trkpt>
      <trkpt lat="45.57131" lon="4.72793">
        <ele>238</ele>
        <time>2012-10-07T07:37:46Z</time>
      </trkpt>
      <trkpt lat="45.57129" lon="4.72793">
        <ele>238</ele>
        <time>2012-10-07T07:37:48Z</time>
      </trkpt>
      <trkpt lat="45.57128" lon="4.72794">
        <ele>238</ele>
        <time>2012-10-07T07:37:50Z</time>
      </trkpt>
      <trkpt lat="45.57126" lon="4.72795">
        <ele>238</ele>
        <time>2012-10-07T07:37:52Z</time>
      </trkpt>
      <trkpt lat="45.57125" lon="4.72796">
        <ele>238</ele>
        <time>2012-10-07T07:37:54Z</time>
      </trkpt>
      <trkpt lat="45.57123" lon="4.72797">
        <ele>239</ele>
        <time>2012-10-07T07:37:56Z</time>
      </trkpt>
      <trkpt lat="45.57121" lon="4.72799">
        <ele>239</ele>
        <time>2012-10-07T07:37:58Z</time>
      </trkpt>
      <trkpt lat="45.57119" lon="4.72801">
        <ele>239</ele>
        <time>2012-10-07T07:38:00Z</time>
      </trkpt>
      <trkpt lat="45.57117" lon="4.72803">
        <ele>239</ele>
        <time>2012-10-07T07:38:03Z</time>
      </trkpt>
      <trkpt lat="45.57116" lon="4.72804">
        <ele>239</ele>
        <time>2012-10-07T07:38:05Z</time>
      </trkpt>
      <trkpt lat="45.57114" lon="4.72805">
        <ele>239</ele>
        <time>2012-10-07T07:38:07Z</time>
      </trkpt>
      <trkpt lat="45.57113" lon="4.72807">
        <ele>239</ele>
        <time>2012-10-07T07:38:09Z</time>
      </trkpt>
      <trkpt lat="45.57112" lon="4.72809">
        <ele>240</ele>
        <time>2012-10-07T07:38:11Z</time>
      </trkpt>
      <trkpt lat="45.5711" lon="4.7281">
        <ele>240</ele>
        <time>2012-10-07T07:38:13Z</time>
      </trkpt>
      <trkpt lat="45.57109" lon="4.72812">
        <ele>240</ele>
        <time>2012-10-07T07:38:15Z</time>
      </trkpt>
      <trkpt lat="45.57108" lon="4.72814">
        <ele>240</ele>
        <time>2012-10-07T07:38:17Z</time>
      </trkpt>
      <trkpt lat="45.57107" lon="4.72815">
        <ele>240</ele>
        <time>2012-10-07T07:38:19Z</time>
      </trkpt>
      <trkpt lat="45.57106" lon="4.72817">
        <ele>240</ele>
        <time>2012-10-07T07:38:21Z</time>
      </trkpt>
      <trkpt lat="45.57105" lon="4.72819">
        <ele>241</ele>
        <time>2012-10-07T07:38:23Z</time>
      </trkpt>
      <trkpt lat="45.57103" lon="4.72821">
        <ele>241</ele>
        <time>2012-10-07T07:38:25Z</time>
      </trkpt>
      <trkpt lat="45.57102" lon="4.72823">
        <ele>241</ele>
        <time>2012-10-07T07:38:27Z</time>
      </trkpt>
      <trkpt lat="45.57101" lon="4.72824">
        <ele>241</ele>
        <time>2012-10-07T07:38:29Z</time>
      </trkpt>
      <trkpt lat="45.57098" lon="4.72828">
        <ele>242</ele>
        <time>2012-10-07T07:38:31Z</time>
      </trkpt>
      <trkpt lat="45.57096" lon="4.72829">
        <ele>242</ele>
        <time>2012-10-07T07:38:34Z</time>
      </trkpt>
      <trkpt lat="45.57095" lon="4.72831">
        <ele>242</ele>
        <time>2012-10-07T07:38:36Z</time>
      </trkpt>
      <trkpt lat="45.57094" lon="4.72833">
        <ele>243</ele>
        <time>2012-10-07T07:38:38Z</time>
      </trkpt>
      <trkpt lat="45.57093" lon="4.72834">
        <ele>243</ele>
        <time>2012-10-07T07:38:40Z</time>
      </trkpt>
      <trkpt lat="45.57092" lon="4.72835">
        <ele>243</ele>
        <time>2012-10-07T07:38:42Z</time>
      </trkpt>
      <trkpt lat="45.5709" lon="4.72838">
        <ele>244</ele>
        <time>2012-10-07T07:38:44Z</time>
      </trkpt>
      <trkpt lat="45.57089" lon="4.72839">
        <ele>244</ele>
        <time>2012-10-07T07:38:46Z</time>
      </trkpt>
      <trkpt lat="45.57088" lon="4.72841">
        <ele>245</ele>
        <time>2012-10-07T07:38:48Z</time>
      </trkpt>
      <trkpt lat="45.57087" lon="4.72842">
        <ele>245</ele>
        <time>2012-10-07T07:38:50Z</time>
      </trkpt>
      <trkpt lat="45.57086" lon="4.72844">
        <ele>245</ele>
        <time>2012-10-07T07:38:52Z</time>
      </trkpt>
      <trkpt lat="45.57084" lon="4.72846">
        <ele>246</ele>
        <time>2012-10-07T07:38:54Z</time>
      </trkpt>
      <trkpt lat="45.57081" lon="4.72851">
        <ele>246</ele>
        <time>2012-10-07T07:38:56Z</time>
      </trkpt>
      <trkpt lat="45.5708" lon="4.72853">
        <ele>246</ele>
        <time>2012-10-07T07:38:59Z</time>
      </trkpt>
      <trkpt lat="45.57079" lon="4.72856">
        <ele>246</ele>
        <time>2012-10-07T07:39:01Z</time>
      </trkpt>
      <trkpt lat="45.57078" lon="4.72857">
        <ele>246</ele>
        <time>2012-10-07T07:39:03Z</time>
      </trkpt>
      <trkpt lat="45.57076" lon="4.72859">
        <ele>246</ele>
        <time>2012-10-07T07:39:05Z</time>
      </trkpt>
      <trkpt lat="45.57075" lon="4.72861">
        <ele>246</ele>
        <time>2012-10-07T07:39:07Z</time>
      </trkpt>
      <trkpt lat="45.57074" lon="4.72863">
        <ele>247</ele>
        <time>2012-10-07T07:39:09Z</time>
      </trkpt>
      <trkpt lat="45.57072" lon="4.72866">
        <ele>247</ele>
        <time>2012-10-07T07:39:12Z</time>
      </trkpt>
      <trkpt lat="45.5707" lon="4.72868">
        <ele>247</ele>
        <time>2012-10-07T07:39:14Z</time>
      </trkpt>
      <trkpt lat="45.57069" lon="4.7287">
        <ele>248</ele>
        <time>2012-10-07T07:39:16Z</time>
      </trkpt>
      <trkpt lat="45.57068" lon="4.72872">
        <ele>248</ele>
        <time>2012-10-07T07:39:18Z</time>
      </trkpt>
      <trkpt lat="45.57066" lon="4.72874">
        <ele>248</ele>
        <time>2012-10-07T07:39:20Z</time>
      </trkpt>
      <trkpt lat="45.57065" lon="4.72876">
        <ele>248</ele>
        <time>2012-10-07T07:39:22Z</time>
      </trkpt>
      <trkpt lat="45.57063" lon="4.72879">
        <ele>248</ele>
        <time>2012-10-07T07:39:24Z</time>
      </trkpt>
      <trkpt lat="45.57062" lon="4.72881">
        <ele>248</ele>
        <time>2012-10-07T07:39:26Z</time>
      </trkpt>
      <trkpt lat="45.57061" lon="4.72883">
        <ele>249</ele>
        <time>2012-10-07T07:39:28Z</time>
      </trkpt>
      <trkpt lat="45.57059" lon="4.72884">
        <ele>249</ele>
        <time>2012-10-07T07:39:30Z</time>
      </trkpt>
      <trkpt lat="45.57058" lon="4.72886">
        <ele>249</ele>
        <time>2012-10-07T07:39:32Z</time>
      </trkpt>
      <trkpt lat="45.57056" lon="4.72889">
        <ele>250</ele>
        <time>2012-10-07T07:39:34Z</time>
      </trkpt>
      <trkpt lat="45.57055" lon="4.72891">
        <ele>250</ele>
        <time>2012-10-07T07:39:37Z</time>
      </trkpt>
      <trkpt lat="45.57053" lon="4.72892">
        <ele>250</ele>
        <time>2012-10-07T07:39:39Z</time>
      </trkpt>
      <trkpt lat="45.57051" lon="4.72894">
        <ele>251</ele>
        <time>2012-10-07T07:39:41Z</time>
      </trkpt>
      <trkpt lat="45.5705" lon="4.72896">
        <ele>251</ele>
        <time>2012-10-07T07:39:43Z</time>
      </trkpt>
      <trkpt lat="45.57049" lon="4.72898">
        <ele>251</ele>
        <time>2012-10-07T07:39:45Z</time>
      </trkpt>
      <trkpt lat="45.57048" lon="4.72899">
        <ele>251</ele>
        <time>2012-10-07T07:39:47Z</time>
      </trkpt>
      <trkpt lat="45.57046" lon="4.729">
        <ele>252</ele>
        <time>2012-10-07T07:39:49Z</time>
      </trkpt>
      <trkpt lat="45.57045" lon="4.72902">
        <ele>252</ele>
        <time>2012-10-07T07:39:51Z</time>
      </trkpt>
      <trkpt lat="45.57043" lon="4.72904">
        <ele>252</ele>
        <time>2012-10-07T07:39:53Z</time>
      </trkpt>
      <trkpt lat="45.57042" lon="4.72905">
        <ele>252</ele>
        <time>2012-10-07T07:39:55Z</time>
      </trkpt>
      <trkpt lat="45.57041" lon="4.72907">
        <ele>252</ele>
        <time>2012-10-07T07:39:57Z</time>
      </trkpt>
      <trkpt lat="45.5704" lon="4.72909">
        <ele>252</ele>
        <time>2012-10-07T07:39:59Z</time>
      </trkpt>
      <trkpt lat="45.57038" lon="4.7291">
        <ele>253</ele>
        <time>2012-10-07T07:40:01Z</time>
      </trkpt>
      <trkpt lat="45.57036" lon="4.72913">
        <ele>253</ele>
        <time>2012-10-07T07:40:03Z</time>
      </trkpt>
      <trkpt lat="45.57035" lon="4.72915">
        <ele>253</ele>
        <time>2012-10-07T07:40:05Z</time>
      </trkpt>
      <trkpt lat="45.57034" lon="4.72917">
        <ele>253</ele>
        <time>2012-10-07T07:40:08Z</time>
      </trkpt>
      <trkpt lat="45.57032" lon="4.72919">
        <ele>254</ele>
        <time>2012-10-07T07:40:10Z</time>
      </trkpt>
      <trkpt lat="45.5703" lon="4.72921">
        <ele>254</ele>
        <time>2012-10-07T07:40:12Z</time>
      </trkpt>
      <trkpt lat="45.57029" lon="4.72923">
        <ele>254</ele>
        <time>2012-10-07T07:40:14Z</time>
      </trkpt>
      <trkpt lat="45.57027" lon="4.72924">
        <ele>254</ele>
        <time>2012-10-07T07:40:16Z</time>
      </trkpt>
      <trkpt lat="45.57026" lon="4.72926">
        <ele>254</ele>
        <time>2012-10-07T07:40:18Z</time>
      </trkpt>
      <trkpt lat="45.57025" lon="4.72928">
        <ele>254</ele>
        <time>2012-10-07T07:40:20Z</time>
      </trkpt>
      <trkpt lat="45.57023" lon="4.72929">
        <ele>255</ele>
        <time>2012-10-07T07:40:22Z</time>
      </trkpt>
      <trkpt lat="45.57022" lon="4.72931">
        <ele>255</ele>
        <time>2012-10-07T07:40:24Z</time>
      </trkpt>
      <trkpt lat="45.5702" lon="4.72932">
        <ele>255</ele>
        <time>2012-10-07T07:40:26Z</time>
      </trkpt>
      <trkpt lat="45.57019" lon="4.72934">
        <ele>256</ele>
        <time>2012-10-07T07:40:28Z</time>
      </trkpt>
      <trkpt lat="45.57018" lon="4.72936">
        <ele>256</ele>
        <time>2012-10-07T07:40:30Z</time>
      </trkpt>
      <trkpt lat="45.57015" lon="4.72938">
        <ele>256</ele>
        <time>2012-10-07T07:40:32Z</time>
      </trkpt>
      <trkpt lat="45.57013" lon="4.7294">
        <ele>256</ele>
        <time>2012-10-07T07:40:34Z</time>
      </trkpt>
      <trkpt lat="45.57012" lon="4.72942">
        <ele>256</ele>
        <time>2012-10-07T07:40:36Z</time>
      </trkpt>
      <trkpt lat="45.5701" lon="4.72943">
        <ele>256</ele>
        <time>2012-10-07T07:40:38Z</time>
      </trkpt>
      <trkpt lat="45.57008" lon="4.72945">
        <ele>256</ele>
        <time>2012-10-07T07:40:41Z</time>
      </trkpt>
      <trkpt lat="45.57007" lon="4.72946">
        <ele>257</ele>
        <time>2012-10-07T07:40:43Z</time>
      </trkpt>
      <trkpt lat="45.57005" lon="4.72948">
        <ele>257</ele>
        <time>2012-10-07T07:40:45Z</time>
      </trkpt>
      <trkpt lat="45.57004" lon="4.72949">
        <ele>257</ele>
        <time>2012-10-07T07:40:47Z</time>
      </trkpt>
      <trkpt lat="45.57002" lon="4.72951">
        <ele>257</ele>
        <time>2012-10-07T07:40:49Z</time>
      </trkpt>
      <trkpt lat="45.57001" lon="4.72953">
        <ele>257</ele>
        <time>2012-10-07T07:40:51Z</time>
      </trkpt>
      <trkpt lat="45.56999" lon="4.72955">
        <ele>258</ele>
        <time>2012-10-07T07:40:53Z</time>
      </trkpt>
      <trkpt lat="45.56998" lon="4.72957">
        <ele>258</ele>
        <time>2012-10-07T07:40:55Z</time>
      </trkpt>
      <trkpt lat="45.56996" lon="4.72959">
        <ele>258</ele>
        <time>2012-10-07T07:40:57Z</time>
      </trkpt>
      <trkpt lat="45.56995" lon="4.72961">
        <ele>259</ele>
        <time>2012-10-07T07:40:59Z</time>
      </trkpt>
      <trkpt lat="45.56993" lon="4.72963">
        <ele>259</ele>
        <time>2012-10-07T07:41:01Z</time>
      </trkpt>
      <trkpt lat="45.56992" lon="4.72965">
        <ele>259</ele>
        <time>2012-10-07T07:41:04Z</time>
      </trkpt>
      <trkpt lat="45.5699" lon="4.72967">
        <ele>259</ele>
        <time>2012-10-07T07:41:06Z</time>
      </trkpt>
      <trkpt lat="45.56989" lon="4.72968">
        <ele>259</ele>
        <time>2012-10-07T07:41:08Z</time>
      </trkpt>
      <trkpt lat="45.56988" lon="4.7297">
        <ele>260</ele>
        <time>2012-10-07T07:41:10Z</time>
      </trkpt>
      <trkpt lat="45.56987" lon="4.72972">
        <ele>260</ele>
        <time>2012-10-07T07:41:12Z</time>
      </trkpt>
      <trkpt lat="45.56985" lon="4.72975">
        <ele>260</ele>
        <time>2012-10-07T07:41:14Z</time>
      </trkpt>
      <trkpt lat="45.56984" lon="4.72977">
        <ele>260</ele>
        <time>2012-10-07T07:41:16Z</time>
      </trkpt>
      <trkpt lat="45.56984" lon="4.7298">
        <ele>260</ele>
        <time>2012-10-07T07:41:18Z</time>
      </trkpt>
      <trkpt lat="45.56984" lon="4.72982">
        <ele>260</ele>
        <time>2012-10-07T07:41:20Z</time>
      </trkpt>
      <trkpt lat="45.56984" lon="4.72984">
        <ele>261</ele>
        <time>2012-10-07T07:41:22Z</time>
      </trkpt>
      <trkpt lat="45.56985" lon="4.72987">
        <ele>261</ele>
        <time>2012-10-07T07:41:24Z</time>
      </trkpt>
      <trkpt lat="45.56987" lon="4.72989">
        <ele>261</ele>
        <time>2012-10-07T07:41:27Z</time>
      </trkpt>
      <trkpt lat="45.56987" lon="4.72991">
        <ele>261</ele>
        <time>2012-10-07T07:41:29Z</time>
      </trkpt>
      <trkpt lat="45.56989" lon="4.72993">
        <ele>261</ele>
        <time>2012-10-07T07:41:31Z</time>
      </trkpt>
      <trkpt lat="45.56991" lon="4.72996">
        <ele>261</ele>
        <time>2012-10-07T07:41:33Z</time>
      </trkpt>
      <trkpt lat="45.56991" lon="4.72999">
        <ele>261</ele>
        <time>2012-10-07T07:41:35Z</time>
      </trkpt>
      <trkpt lat="45.56993" lon="4.73001">
        <ele>261</ele>
        <time>2012-10-07T07:41:37Z</time>
      </trkpt>
      <trkpt lat="45.56993" lon="4.73006">
        <ele>261</ele>
        <time>2012-10-07T07:41:39Z</time>
      </trkpt>
      <trkpt lat="45.56993" lon="4.73008">
        <ele>261</ele>
        <time>2012-10-07T07:41:41Z</time>
      </trkpt>
      <trkpt lat="45.56993" lon="4.73012">
        <ele>261</ele>
        <time>2012-10-07T07:41:43Z</time>
      </trkpt>
      <trkpt lat="45.56993" lon="4.73014">
        <ele>261</ele>
        <time>2012-10-07T07:41:45Z</time>
      </trkpt>
      <trkpt lat="45.56994" lon="4.73017">
        <ele>261</ele>
        <time>2012-10-07T07:41:48Z</time>
      </trkpt>
      <trkpt lat="45.56994" lon="4.7302">
        <ele>261</ele>
        <time>2012-10-07T07:41:50Z</time>
      </trkpt>
      <trkpt lat="45.56994" lon="4.73023">
        <ele>261</ele>
        <time>2012-10-07T07:41:52Z</time>
      </trkpt>
      <trkpt lat="45.56995" lon="4.73026">
        <ele>260</ele>
        <time>2012-10-07T07:41:54Z</time>
      </trkpt>
      <trkpt lat="45.56995" lon="4.73029">
        <ele>260</ele>
        <time>2012-10-07T07:41:56Z</time>
      </trkpt>
      <trkpt lat="45.56995" lon="4.73032">
        <ele>260</ele>
        <time>2012-10-07T07:41:58Z</time>
      </trkpt>
      <trkpt lat="45.56995" lon="4.73034">
        <ele>260</ele>
        <time>2012-10-07T07:42:00Z</time>
      </trkpt>
      <trkpt lat="45.56995" lon="4.73037">
        <ele>260</ele>
        <time>2012-10-07T07:42:02Z</time>
      </trkpt>
      <trkpt lat="45.56996" lon="4.7304">
        <ele>260</ele>
        <time>2012-10-07T07:42:04Z</time>
      </trkpt>
      <trkpt lat="45.56997" lon="4.73043">
        <ele>260</ele>
        <time>2012-10-07T07:42:06Z</time>
      </trkpt>
      <trkpt lat="45.56998" lon="4.73048">
        <ele>259</ele>
        <time>2012-10-07T07:42:08Z</time>
      </trkpt>
      <trkpt lat="45.56999" lon="4.7305">
        <ele>259</ele>
        <time>2012-10-07T07:42:11Z</time>
      </trkpt>
      <trkpt lat="45.57" lon="4.73054">
        <ele>259</ele>
        <time>2012-10-07T07:42:13Z</time>
      </trkpt>
      <trkpt lat="45.57001" lon="4.73057">
        <ele>259</ele>
        <time>2012-10-07T07:42:15Z</time>
      </trkpt>
      <trkpt lat="45.57001" lon="4.7306">
        <ele>259</ele>
        <time>2012-10-07T07:42:17Z</time>
      </trkpt>
      <trkpt lat="45.57001" lon="4.73063">
        <ele>259</ele>
        <time>2012-10-07T07:42:19Z</time>
      </trkpt>
      <trkpt lat="45.57001" lon="4.73065">
        <ele>259</ele>
        <time>2012-10-07T07:42:21Z</time>
      </trkpt>
      <trkpt lat="45.57001" lon="4.73068">
        <ele>259</ele>
        <time>2012-10-07T07:42:23Z</time>
      </trkpt>
      <trkpt lat="45.57" lon="4.73073">
        <ele>259</ele>
        <time>2012-10-07T07:42:25Z</time>
      </trkpt>
      <trkpt lat="45.57" lon="4.73075">
        <ele>259</ele>
        <time>2012-10-07T07:42:27Z</time>
      </trkpt>
      <trkpt lat="45.57" lon="4.73078">
        <ele>259</ele>
        <time>2012-10-07T07:42:30Z</time>
      </trkpt>
      <trkpt lat="45.57" lon="4.7308">
        <ele>259</ele>
        <time>2012-10-07T07:42:32Z</time>
      </trkpt>
      <trkpt lat="45.56999" lon="4.73082">
        <ele>259</ele>
        <time>2012-10-07T07:42:34Z</time>
      </trkpt>
      <trkpt lat="45.56998" lon="4.73085">
        <ele>259</ele>
        <time>2012-10-07T07:42:36Z</time>
      </trkpt>
      <trkpt lat="45.56999" lon="4.73089">
        <ele>259</ele>
        <time>2012-10-07T07:42:38Z</time>
      </trkpt>
      <trkpt lat="45.56999" lon="4.73092">
        <ele>259</ele>
        <time>2012-10-07T07:42:40Z</time>
      </trkpt>
      <trkpt lat="45.57" lon="4.73095">
        <ele>259</ele>
        <time>2012-10-07T07:42:43Z</time>
      </trkpt>
      <trkpt lat="45.57" lon="4.73097">
        <ele>259</ele>
        <time>2012-10-07T07:42:45Z</time>
      </trkpt>
      <trkpt lat="45.57001" lon="4.731">
        <ele>260</ele>
        <time>2012-10-07T07:42:47Z</time>
      </trkpt>
      <trkpt lat="45.57003" lon="4.73102">
        <ele>260</ele>
        <time>2012-10-07T07:42:49Z</time>
      </trkpt>
      <trkpt lat="45.57005" lon="4.73104">
        <ele>260</ele>
        <time>2012-10-07T07:42:51Z</time>
      </trkpt>
      <trkpt lat="45.57005" lon="4.73106">
        <ele>261</ele>
        <time>2012-10-07T07:42:53Z</time>
      </trkpt>
      <trkpt lat="45.57005" lon="4.7311">
        <ele>261</ele>
        <time>2012-10-07T07:42:55Z</time>
      </trkpt>
      <trkpt lat="45.57005" lon="4.73112">
        <ele>261</ele>
        <time>2012-10-07T07:42:58Z</time>
      </trkpt>
      <trkpt lat="45.57006" lon="4.73115">
        <ele>261</ele>
        <time>2012-10-07T07:43:00Z</time>
      </trkpt>
      <trkpt lat="45.57007" lon="4.73117">
        <ele>261</ele>
        <time>2012-10-07T07:43:02Z</time>
      </trkpt>
      <trkpt lat="45.57007" lon="4.73119">
        <ele>261</ele>
        <time>2012-10-07T07:43:04Z</time>
      </trkpt>
      <trkpt lat="45.57007" lon="4.73122">
        <ele>261</ele>
        <time>2012-10-07T07:43:06Z</time>
      </trkpt>
      <trkpt lat="45.57008" lon="4.73124">
        <ele>261</ele>
        <time>2012-10-07T07:43:08Z</time>
      </trkpt>
      <trkpt lat="45.57009" lon="4.73127">
        <ele>261</ele>
        <time>2012-10-07T07:43:10Z</time>
      </trkpt>
      <trkpt lat="45.5701" lon="4.73131">
        <ele>261</ele>
        <time>2012-10-07T07:43:12Z</time>
      </trkpt>
      <trkpt lat="45.57011" lon="4.73134">
        <ele>261</ele>
        <time>2012-10-07T07:43:14Z</time>
      </trkpt>
      <trkpt lat="45.57012" lon="4.73136">
        <ele>261</ele>
        <time>2012-10-07T07:43:16Z</time>
      </trkpt>
      <trkpt lat="45.57013" lon="4.73139">
        <ele>261</ele>
        <time>2012-10-07T07:43:18Z</time>
      </trkpt>
      <trkpt lat="45.57013" lon="4.73141">
        <ele>261</ele>
        <time>2012-10-07T07:43:21Z</time>
      </trkpt>
      <trkpt lat="45.57014" lon="4.73143">
        <ele>262</ele>
        <time>2012-10-07T07:43:23Z</time>
      </trkpt>
      <trkpt lat="45.57015" lon="4.73146">
        <ele>262</ele>
        <time>2012-10-07T07:43:25Z</time>
      </trkpt>
      <trkpt lat="45.57017" lon="4.73148">
        <ele>262</ele>
        <time>2012-10-07T07:43:27Z</time>
      </trkpt>
      <trkpt lat="45.57018" lon="4.73151">
        <ele>262</ele>
        <time>2012-10-07T07:43:29Z</time>
      </trkpt>
      <trkpt lat="45.57019" lon="4.73153">
        <ele>262</ele>
        <time>2012-10-07T07:43:31Z</time>
      </trkpt>
      <trkpt lat="45.5702" lon="4.73155">
        <ele>262</ele>
        <time>2012-10-07T07:43:33Z</time>
      </trkpt>
      <trkpt lat="45.57022" lon="4.73158">
        <ele>262</ele>
        <time>2012-10-07T07:43:35Z</time>
      </trkpt>
      <trkpt lat="45.57024" lon="4.73161">
        <ele>263</ele>
        <time>2012-10-07T07:43:37Z</time>
      </trkpt>
      <trkpt lat="45.57025" lon="4.73164">
        <ele>263</ele>
        <time>2012-10-07T07:43:39Z</time>
      </trkpt>
      <trkpt lat="45.57026" lon="4.73166">
        <ele>263</ele>
        <time>2012-10-07T07:43:41Z</time>
      </trkpt>
      <trkpt lat="45.57027" lon="4.73169">
        <ele>263</ele>
        <time>2012-10-07T07:43:43Z</time>
      </trkpt>
      <trkpt lat="45.57028" lon="4.73173">
        <ele>263</ele>
        <time>2012-10-07T07:43:45Z</time>
      </trkpt>
      <trkpt lat="45.57029" lon="4.73176">
        <ele>263</ele>
        <time>2012-10-07T07:43:47Z</time>
      </trkpt>
      <trkpt lat="45.57031" lon="4.7318">
        <ele>263</ele>
        <time>2012-10-07T07:43:49Z</time>
      </trkpt>
      <trkpt lat="45.57032" lon="4.73183">
        <ele>263</ele>
        <time>2012-10-07T07:43:51Z</time>
      </trkpt>
      <trkpt lat="45.57034" lon="4.73186">
        <ele>263</ele>
        <time>2012-10-07T07:43:53Z</time>
      </trkpt>
      <trkpt lat="45.57035" lon="4.73189">
        <ele>263</ele>
        <time>2012-10-07T07:43:55Z</time>
      </trkpt>
      <trkpt lat="45.57036" lon="4.73193">
        <ele>263</ele>
        <time>2012-10-07T07:43:58Z</time>
      </trkpt>
      <trkpt lat="45.57037" lon="4.73195">
        <ele>263</ele>
        <time>2012-10-07T07:44:00Z</time>
      </trkpt>
      <trkpt lat="45.57038" lon="4.73199">
        <ele>263</ele>
        <time>2012-10-07T07:44:02Z</time>
      </trkpt>
      <trkpt lat="45.57039" lon="4.73202">
        <ele>263</ele>
        <time>2012-10-07T07:44:04Z</time>
      </trkpt>
      <trkpt lat="45.57041" lon="4.73206">
        <ele>263</ele>
        <time>2012-10-07T07:44:06Z</time>
      </trkpt>
      <trkpt lat="45.57042" lon="4.73209">
        <ele>263</ele>
        <time>2012-10-07T07:44:08Z</time>
      </trkpt>
      <trkpt lat="45.57044" lon="4.73212">
        <ele>263</ele>
        <time>2012-10-07T07:44:10Z</time>
      </trkpt>
      <trkpt lat="45.57047" lon="4.73217">
        <ele>263</ele>
        <time>2012-10-07T07:44:12Z</time>
      </trkpt>
      <trkpt lat="45.57048" lon="4.7322">
        <ele>263</ele>
        <time>2012-10-07T07:44:15Z</time>
      </trkpt>
      <trkpt lat="45.57049" lon="4.73223">
        <ele>263</ele>
        <time>2012-10-07T07:44:17Z</time>
      </trkpt>
      <trkpt lat="45.5705" lon="4.73226">
        <ele>263</ele>
        <time>2012-10-07T07:44:19Z</time>
      </trkpt>
      <trkpt lat="45.57051" lon="4.73229">
        <ele>263</ele>
        <time>2012-10-07T07:44:21Z</time>
      </trkpt>
      <trkpt lat="45.57051" lon="4.73233">
        <ele>263</ele>
        <time>2012-10-07T07:44:23Z</time>
      </trkpt>
      <trkpt lat="45.57053" lon="4.73238">
        <ele>264</ele>
        <time>2012-10-07T07:44:25Z</time>
      </trkpt>
      <trkpt lat="45.57053" lon="4.73241">
        <ele>264</ele>
        <time>2012-10-07T07:44:27Z</time>
      </trkpt>
      <trkpt lat="45.57053" lon="4.73244">
        <ele>264</ele>
        <time>2012-10-07T07:44:29Z</time>
      </trkpt>
      <trkpt lat="45.57053" lon="4.73247">
        <ele>264</ele>
        <time>2012-10-07T07:44:32Z</time>
      </trkpt>
      <trkpt lat="45.57054" lon="4.7325">
        <ele>264</ele>
        <time>2012-10-07T07:44:34Z</time>
      </trkpt>
      <trkpt lat="45.57053" lon="4.73253">
        <ele>264</ele>
        <time>2012-10-07T07:44:36Z</time>
      </trkpt>
      <trkpt lat="45.57053" lon="4.73256">
        <ele>264</ele>
        <time>2012-10-07T07:44:38Z</time>
      </trkpt>
      <trkpt lat="45.57052" lon="4.73259">
        <ele>264</ele>
        <time>2012-10-07T07:44:40Z</time>
      </trkpt>
      <trkpt lat="45.57052" lon="4.73261">
        <ele>264</ele>
        <time>2012-10-07T07:44:42Z</time>
      </trkpt>
      <trkpt lat="45.57052" lon="4.73265">
        <ele>264</ele>
        <time>2012-10-07T07:44:44Z</time>
      </trkpt>
      <trkpt lat="45.57051" lon="4.73268">
        <ele>264</ele>
        <time>2012-10-07T07:44:47Z</time>
      </trkpt>
      <trkpt lat="45.57051" lon="4.73271">
        <ele>264</ele>
        <time>2012-10-07T07:44:49Z</time>
      </trkpt>
      <trkpt lat="45.57051" lon="4.73273">
        <ele>264</ele>
        <time>2012-10-07T07:44:51Z</time>
      </trkpt>
      <trkpt lat="45.57051" lon="4.73276">
        <ele>264</ele>
        <time>2012-10-07T07:44:53Z</time>
      </trkpt>
      <trkpt lat="45.57051" lon="4.73279">
        <ele>264</ele>
        <time>2012-10-07T07:44:55Z</time>
      </trkpt>
      <trkpt lat="45.57051" lon="4.73282">
        <ele>264</ele>
        <time>2012-10-07T07:44:57Z</time>
      </trkpt>
      <trkpt lat="45.57051" lon="4.73285">
        <ele>264</ele>
        <time>2012-10-07T07:44:59Z</time>
      </trkpt>
      <trkpt lat="45.57051" lon="4.73288">
        <ele>263</ele>
        <time>2012-10-07T07:45:02Z</time>
      </trkpt>
      <trkpt lat="45.57051" lon="4.73291">
        <ele>263</ele>
        <time>2012-10-07T07:45:04Z</time>
      </trkpt>
      <trkpt lat="45.5705" lon="4.73294">
        <ele>263</ele>
        <time>2012-10-07T07:45:06Z</time>
      </trkpt>
      <trkpt lat="45.5705" lon="4.73298">
        <ele>263</ele>
        <time>2012-10-07T07:45:08Z</time>
      </trkpt>
      <trkpt lat="45.5705" lon="4.73301">
        <ele>263</ele>
        <time>2012-10-07T07:45:10Z</time>
      </trkpt>
      <trkpt lat="45.5705" lon="4.73304">
        <ele>263</ele>
        <time>2012-10-07T07:45:12Z</time>
      </trkpt>
      <trkpt lat="45.57049" lon="4.73308">
        <ele>263</ele>
        <time>2012-10-07T07:45:14Z</time>
      </trkpt>
      <trkpt lat="45.57048" lon="4.73311">
        <ele>263</ele>
        <time>2012-10-07T07:45:16Z</time>
      </trkpt>
      <trkpt lat="45.57048" lon="4.73315">
        <ele>263</ele>
        <time>2012-10-07T07:45:18Z</time>
      </trkpt>
      <trkpt lat="45.57047" lon="4.73318">
        <ele>263</ele>
        <time>2012-10-07T07:45:20Z</time>
      </trkpt>
      <trkpt lat="45.57046" lon="4.73322">
        <ele>262</ele>
        <time>2012-10-07T07:45:22Z</time>
      </trkpt>
      <trkpt lat="45.57046" lon="4.73325">
        <ele>262</ele>
        <time>2012-10-07T07:45:24Z</time>
      </trkpt>
      <trkpt lat="45.57044" lon="4.73329">
        <ele>262</ele>
        <time>2012-10-07T07:45:26Z</time>
      </trkpt>
      <trkpt lat="45.57042" lon="4.73334">
        <ele>262</ele>
        <time>2012-10-07T07:45:28Z</time>
      </trkpt>
      <trkpt lat="45.57041" lon="4.73337">
        <ele>262</ele>
        <time>2012-10-07T07:45:31Z</time>
      </trkpt>
      <trkpt lat="45.5704" lon="4.73339">
        <ele>262</ele>
        <time>2012-10-07T07:45:33Z</time>
      </trkpt>
      <trkpt lat="45.5704" lon="4.73342">
        <ele>262</ele>
        <time>2012-10-07T07:45:35Z</time>
      </trkpt>
      <trkpt lat="45.57038" lon="4.73345">
        <ele>262</ele>
        <time>2012-10-07T07:45:37Z</time>
      </trkpt>
      <trkpt lat="45.57038" lon="4.73348">
        <ele>262</ele>
        <time>2012-10-07T07:45:39Z</time>
      </trkpt>
      <trkpt lat="45.57037" lon="4.73352">
        <ele>262</ele>
        <time>2012-10-07T07:45:41Z</time>
      </trkpt>
      <trkpt lat="45.57037" lon="4.73355">
        <ele>262</ele>
        <time>2012-10-07T07:45:43Z</time>
      </trkpt>
      <trkpt lat="45.57036" lon="4.73358">
        <ele>261</ele>
        <time>2012-10-07T07:45:46Z</time>
      </trkpt>
      <trkpt lat="45.57036" lon="4.7336">
        <ele>261</ele>
        <time>2012-10-07T07:45:48Z</time>
      </trkpt>
      <trkpt lat="45.57036" lon="4.73363">
        <ele>261</ele>
        <time>2012-10-07T07:45:50Z</time>
      </trkpt>
      <trkpt lat="45.57035" lon="4.73366">
        <ele>261</ele>
        <time>2012-10-07T07:45:52Z</time>
      </trkpt>
      <trkpt lat="45.57034" lon="4.73369">
        <ele>261</ele>
        <time>2012-10-07T07:45:54Z</time>
      </trkpt>
      <trkpt lat="45.57032" lon="4.73372">
        <ele>261</ele>
        <time>2012-10-07T07:45:56Z</time>
      </trkpt>
      <trkpt lat="45.57031" lon="4.73375">
        <ele>261</ele>
        <time>2012-10-07T07:45:58Z</time>
      </trkpt>
      <trkpt lat="45.57029" lon="4.73378">
        <ele>261</ele>
        <time>2012-10-07T07:46:00Z</time>
      </trkpt>
      <trkpt lat="45.57027" lon="4.7338">
        <ele>261</ele>
        <time>2012-10-07T07:46:02Z</time>
      </trkpt>
      <trkpt lat="45.57026" lon="4.73383">
        <ele>261</ele>
        <time>2012-10-07T07:46:04Z</time>
      </trkpt>
      <trkpt lat="45.57027" lon="4.73386">
        <ele>261</ele>
        <time>2012-10-07T07:46:07Z</time>
      </trkpt>
      <trkpt lat="45.57027" lon="4.73389">
        <ele>261</ele>
        <time>2012-10-07T07:46:09Z</time>
      </trkpt>
      <trkpt lat="45.57028" lon="4.73393">
        <ele>261</ele>
        <time>2012-10-07T07:46:11Z</time>
      </trkpt>
      <trkpt lat="45.57029" lon="4.73395">
        <ele>261</ele>
        <time>2012-10-07T07:46:13Z</time>
      </trkpt>
      <trkpt lat="45.5703" lon="4.73398">
        <ele>261</ele>
        <time>2012-10-07T07:46:15Z</time>
      </trkpt>
      <trkpt lat="45.57033" lon="4.734">
        <ele>261</ele>
        <time>2012-10-07T07:46:17Z</time>
      </trkpt>
      <trkpt lat="45.57035" lon="4.73401">
        <ele>261</ele>
        <time>2012-10-07T07:46:19Z</time>
      </trkpt>
      <trkpt lat="45.57038" lon="4.73405">
        <ele>261</ele>
        <time>2012-10-07T07:46:21Z</time>
      </trkpt>
      <trkpt lat="45.5704" lon="4.73406">
        <ele>262</ele>
        <time>2012-10-07T07:46:23Z</time>
      </trkpt>
      <trkpt lat="45.57041" lon="4.73408">
        <ele>262</ele>
        <time>2012-10-07T07:46:26Z</time>
      </trkpt>
      <trkpt lat="45.57042" lon="4.73409">
        <ele>262</ele>
        <time>2012-10-07T07:46:28Z</time>
      </trkpt>
      <trkpt lat="45.57044" lon="4.7341">
        <ele>262</ele>
        <time>2012-10-07T07:46:30Z</time>
      </trkpt>
      <trkpt lat="45.57047" lon="4.73411">
        <ele>262</ele>
        <time>2012-10-07T07:46:32Z</time>
      </trkpt>
      <trkpt lat="45.57049" lon="4.73412">
        <ele>263</ele>
        <time>2012-10-07T07:46:34Z</time>
      </trkpt>
      <trkpt lat="45.57051" lon="4.73413">
        <ele>263</ele>
        <time>2012-10-07T07:46:36Z</time>
      </trkpt>
      <trkpt lat="45.57053" lon="4.73414">
        <ele>264</ele>
        <time>2012-10-07T07:46:38Z</time>
      </trkpt>
      <trkpt lat="45.57055" lon="4.73416">
        <ele>264</ele>
        <time>2012-10-07T07:46:40Z</time>
      </trkpt>
      <trkpt lat="45.57057" lon="4.73417">
        <ele>264</ele>
        <time>2012-10-07T07:46:42Z</time>
      </trkpt>
      <trkpt lat="45.57058" lon="4.73418">
        <ele>264</ele>
        <time>2012-10-07T07:46:45Z</time>
      </trkpt>
      <trkpt lat="45.57058" lon="4.73418">
        <ele>264</ele>
        <time>2012-10-07T07:46:47Z</time>
      </trkpt>
      <trkpt lat="45.5706" lon="4.73419">
        <ele>265</ele>
        <time>2012-10-07T07:46:49Z</time>
      </trkpt>
      <trkpt lat="45.57062" lon="4.73419">
        <ele>265</ele>
        <time>2012-10-07T07:46:51Z</time>
      </trkpt>
      <trkpt lat="45.57063" lon="4.7342">
        <ele>265</ele>
        <time>2012-10-07T07:46:53Z</time>
      </trkpt>
      <trkpt lat="45.57064" lon="4.73421">
        <ele>265</ele>
        <time>2012-10-07T07:46:55Z</time>
      </trkpt>
      <trkpt lat="45.57066" lon="4.73422">
        <ele>265</ele>
        <time>2012-10-07T07:46:57Z</time>
      </trkpt>
      <trkpt lat="45.57069" lon="4.73424">
        <ele>265</ele>
        <time>2012-10-07T07:46:59Z</time>
      </trkpt>
      <trkpt lat="45.57071" lon="4.73425">
        <ele>265</ele>
        <time>2012-10-07T07:47:01Z</time>
      </trkpt>
      <trkpt lat="45.57074" lon="4.73426">
        <ele>266</ele>
        <time>2012-10-07T07:47:03Z</time>
      </trkpt>
      <trkpt lat="45.57076" lon="4.73427">
        <ele>266</ele>
        <time>2012-10-07T07:47:06Z</time>
      </trkpt>
      <trkpt lat="45.57079" lon="4.73429">
        <ele>266</ele>
        <time>2012-10-07T07:47:08Z</time>
      </trkpt>
      <trkpt lat="45.57081" lon="4.73429">
        <ele>266</ele>
        <time>2012-10-07T07:47:10Z</time>
      </trkpt>
      <trkpt lat="45.57083" lon="4.7343">
        <ele>266</ele>
        <time>2012-10-07T07:47:12Z</time>
      </trkpt>
      <trkpt lat="45.57086" lon="4.7343">
        <ele>266</ele>
        <time>2012-10-07T07:47:14Z</time>
      </trkpt>
      <trkpt lat="45.57088" lon="4.73431">
        <ele>267</ele>
        <time>2012-10-07T07:47:16Z</time>
      </trkpt>
      <trkpt lat="45.5709" lon="4.73433">
        <ele>267</ele>
        <time>2012-10-07T07:47:18Z</time>
      </trkpt>
      <trkpt lat="45.57092" lon="4.73434">
        <ele>268</ele>
        <time>2012-10-07T07:47:20Z</time>
      </trkpt>
      <trkpt lat="45.57093" lon="4.73436">
        <ele>268</ele>
        <time>2012-10-07T07:47:22Z</time>
      </trkpt>
      <trkpt lat="45.57095" lon="4.73437">
        <ele>268</ele>
        <time>2012-10-07T07:47:24Z</time>
      </trkpt>
      <trkpt lat="45.57098" lon="4.7344">
        <ele>269</ele>
        <time>2012-10-07T07:47:26Z</time>
      </trkpt>
      <trkpt lat="45.571" lon="4.73442">
        <ele>269</ele>
        <time>2012-10-07T07:47:28Z</time>
      </trkpt>
      <trkpt lat="45.571" lon="4.73445">
        <ele>270</ele>
        <time>2012-10-07T07:47:31Z</time>
      </trkpt>
      <trkpt lat="45.571" lon="4.73448">
        <ele>270</ele>
        <time>2012-10-07T07:47:33Z</time>
      </trkpt>
      <trkpt lat="45.57098" lon="4.7345">
        <ele>270</ele>
        <time>2012-10-07T07:47:35Z</time>
      </trkpt>
      <trkpt lat="45.57097" lon="4.73452">
        <ele>270</ele>
        <time>2012-10-07T07:47:37Z</time>
      </trkpt>
      <trkpt lat="45.57095" lon="4.73454">
        <ele>270</ele>
        <time>2012-10-07T07:47:39Z</time>
      </trkpt>
      <trkpt lat="45.57093" lon="4.73456">
        <ele>270</ele>
        <time>2012-10-07T07:47:41Z</time>
      </trkpt>
      <trkpt lat="45.57092" lon="4.73458">
        <ele>270</ele>
        <time>2012-10-07T07:47:43Z</time>
      </trkpt>
      <trkpt lat="45.5709" lon="4.7346">
        <ele>270</ele>
        <time>2012-10-07T07:47:45Z</time>
      </trkpt>
      <trkpt lat="45.57088" lon="4.73462">
        <ele>270</ele>
        <time>2012-10-07T07:47:47Z</time>
      </trkpt>
      <trkpt lat="45.57086" lon="4.73465">
        <ele>270</ele>
        <time>2012-10-07T07:47:49Z</time>
      </trkpt>
      <trkpt lat="45.57085" lon="4.73467">
        <ele>271</ele>
        <time>2012-10-07T07:47:51Z</time>
      </trkpt>
      <trkpt lat="45.57083" lon="4.73469">
        <ele>271</ele>
        <time>2012-10-07T07:47:53Z</time>
      </trkpt>
      <trkpt lat="45.57081" lon="4.73471">
        <ele>271</ele>
        <time>2012-10-07T07:47:55Z</time>
      </trkpt>
      <trkpt lat="45.57079" lon="4.73473">
        <ele>271</ele>
        <time>2012-10-07T07:47:57Z</time>
      </trkpt>
      <trkpt lat="45.57077" lon="4.73475">
        <ele>271</ele>
        <time>2012-10-07T07:47:59Z</time>
      </trkpt>
      <trkpt lat="45.57075" lon="4.73477">
        <ele>271</ele>
        <time>2012-10-07T07:48:01Z</time>
      </trkpt>
      <trkpt lat="45.57072" lon="4.73481">
        <ele>271</ele>
        <time>2012-10-07T07:48:03Z</time>
      </trkpt>
      <trkpt lat="45.57071" lon="4.73483">
        <ele>272</ele>
        <time>2012-10-07T07:48:05Z</time>
      </trkpt>
      <trkpt lat="45.57069" lon="4.73484">
        <ele>271</ele>
        <time>2012-10-07T07:48:08Z</time>
      </trkpt>
      <trkpt lat="45.57067" lon="4.73487">
        <ele>271</ele>
        <time>2012-10-07T07:48:10Z</time>
      </trkpt>
      <trkpt lat="45.57066" lon="4.73489">
        <ele>272</ele>
        <time>2012-10-07T07:48:12Z</time>
      </trkpt>
      <trkpt lat="45.57064" lon="4.73491">
        <ele>272</ele>
        <time>2012-10-07T07:48:14Z</time>
      </trkpt>
      <trkpt lat="45.57062" lon="4.73493">
        <ele>272</ele>
        <time>2012-10-07T07:48:16Z</time>
      </trkpt>
      <trkpt lat="45.57061" lon="4.73495">
        <ele>272</ele>
        <time>2012-10-07T07:48:18Z</time>
      </trkpt>
      <trkpt lat="45.57059" lon="4.73497">
        <ele>272</ele>
        <time>2012-10-07T07:48:20Z</time>
      </trkpt>
      <trkpt lat="45.57057" lon="4.735">
        <ele>272</ele>
        <time>2012-10-07T07:48:22Z</time>
      </trkpt>
      <trkpt lat="45.57055" lon="4.73501">
        <ele>272</ele>
        <time>2012-10-07T07:48:24Z</time>
      </trkpt>
      <trkpt lat="45.57054" lon="4.73504">
        <ele>272</ele>
        <time>2012-10-07T07:48:26Z</time>
      </trkpt>
      <trkpt lat="45.57051" lon="4.73507">
        <ele>273</ele>
        <time>2012-10-07T07:48:28Z</time>
      </trkpt>
      <trkpt lat="45.5705" lon="4.73509">
        <ele>272</ele>
        <time>2012-10-07T07:48:30Z</time>
      </trkpt>
      <trkpt lat="45.57048" lon="4.73511">
        <ele>273</ele>
        <time>2012-10-07T07:48:32Z</time>
      </trkpt>
      <trkpt lat="45.57047" lon="4.73514">
        <ele>273</ele>
        <time>2012-10-07T07:48:35Z</time>
      </trkpt>
      <trkpt lat="45.57045" lon="4.73515">
        <ele>273</ele>
        <time>2012-10-07T07:48:37Z</time>
      </trkpt>
      <trkpt lat="45.57043" lon="4.73517">
        <ele>273</ele>
        <time>2012-10-07T07:48:39Z</time>
      </trkpt>
      <trkpt lat="45.57041" lon="4.73519">
        <ele>273</ele>
        <time>2012-10-07T07:48:41Z</time>
      </trkpt>
      <trkpt lat="45.5704" lon="4.73521">
        <ele>273</ele>
        <time>2012-10-07T07:48:43Z</time>
      </trkpt>
      <trkpt lat="45.57038" lon="4.73523">
        <ele>273</ele>
        <time>2012-10-07T07:48:45Z</time>
      </trkpt>
      <trkpt lat="45.57036" lon="4.73524">
        <ele>273</ele>
        <time>2012-10-07T07:48:47Z</time>
      </trkpt>
      <trkpt lat="45.57035" lon="4.73526">
        <ele>273</ele>
        <time>2012-10-07T07:48:49Z</time>
      </trkpt>
      <trkpt lat="45.57033" lon="4.73528">
        <ele>273</ele>
        <time>2012-10-07T07:48:51Z</time>
      </trkpt>
      <trkpt lat="45.57031" lon="4.7353">
        <ele>273</ele>
        <time>2012-10-07T07:48:53Z</time>
      </trkpt>
      <trkpt lat="45.5703" lon="4.73532">
        <ele>274</ele>
        <time>2012-10-07T07:48:56Z</time>
      </trkpt>
      <trkpt lat="45.57029" lon="4.73534">
        <ele>273</ele>
        <time>2012-10-07T07:48:58Z</time>
      </trkpt>
      <trkpt lat="45.57027" lon="4.73536">
        <ele>273</ele>
        <time>2012-10-07T07:49:00Z</time>
      </trkpt>
      <trkpt lat="45.57026" lon="4.73538">
        <ele>274</ele>
        <time>2012-10-07T07:49:02Z</time>
      </trkpt>
      <trkpt lat="45.57024" lon="4.7354">
        <ele>274</ele>
        <time>2012-10-07T07:49:04Z</time>
      </trkpt>
      <trkpt lat="45.57023" lon="4.73542">
        <ele>274</ele>
        <time>2012-10-07T07:49:06Z</time>
      </trkpt>
      <trkpt lat="45.57021" lon="4.73543">
        <ele>274</ele>
        <time>2012-10-07T07:49:08Z</time>
      </trkpt>
      <trkpt lat="45.57021" lon="4.73545">
        <ele>274</ele>
        <time>2012-10-07T07:49:10Z</time>
      </trkpt>
      <trkpt lat="45.57019" lon="4.73547">
        <ele>275</ele>
        <time>2012-10-07T07:49:12Z</time>
      </trkpt>
      <trkpt lat="45.57017" lon="4.73549">
        <ele>275</ele>
        <time>2012-10-07T07:49:14Z</time>
      </trkpt>
      <trkpt lat="45.57016" lon="4.73551">
        <ele>275</ele>
        <time>2012-10-07T07:49:16Z</time>
      </trkpt>
      <trkpt lat="45.57014" lon="4.73553">
        <ele>274</ele>
        <time>2012-10-07T07:49:18Z</time>
      </trkpt>
      <trkpt lat="45.57011" lon="4.73556">
        <ele>275</ele>
        <time>2012-10-07T07:49:20Z</time>
      </trkpt>
      <trkpt lat="45.5701" lon="4.73559">
        <ele>275</ele>
        <time>2012-10-07T07:49:22Z</time>
      </trkpt>
      <trkpt lat="45.57008" lon="4.7356">
        <ele>275</ele>
        <time>2012-10-07T07:49:24Z</time>
      </trkpt>
      <trkpt lat="45.57006" lon="4.73562">
        <ele>275</ele>
        <time>2012-10-07T07:49:27Z</time>
      </trkpt>
      <trkpt lat="45.57004" lon="4.73564">
        <ele>275</ele>
        <time>2012-10-07T07:49:29Z</time>
      </trkpt>
      <trkpt lat="45.57002" lon="4.73566">
        <ele>275</ele>
        <time>2012-10-07T07:49:31Z</time>
      </trkpt>
      <trkpt lat="45.57" lon="4.73568">
        <ele>275</ele>
        <time>2012-10-07T07:49:33Z</time>
      </trkpt>
      <trkpt lat="45.56998" lon="4.7357">
        <ele>276</ele>
        <time>2012-10-07T07:49:35Z</time>
      </trkpt>
      <trkpt lat="45.56996" lon="4.73572">
        <ele>276</ele>
        <time>2012-10-07T07:49:37Z</time>
      </trkpt>
      <trkpt lat="45.56994" lon="4.73574">
        <ele>276</ele>
        <time>2012-10-07T07:49:39Z</time>
      </trkpt>
      <trkpt lat="45.56992" lon="4.73576">
        <ele>276</ele>
        <time>2012-10-07T07:49:41Z</time>
      </trkpt>
      <trkpt lat="45.5699" lon="4.73578">
        <ele>276</ele>
        <time>2012-10-07T07:49:43Z</time>
      </trkpt>
      <trkpt lat="45.56987" lon="4.7358">
        <ele>276</ele>
        <time>2012-10-07T07:49:46Z</time>
      </trkpt>
      <trkpt lat="45.56986" lon="4.73583">
        <ele>276</ele>
        <time>2012-10-07T07:49:48Z</time>
      </trkpt>
      <trkpt lat="45.56984" lon="4.73584">
        <ele>277</ele>
        <time>2012-10-07T07:49:50Z</time>
      </trkpt>
      <trkpt lat="45.56982" lon="4.73586">
        <ele>277</ele>
        <time>2012-10-07T07:49:52Z</time>
      </trkpt>
      <trkpt lat="45.56981" lon="4.73588">
        <ele>277</ele>
        <time>2012-10-07T07:49:54Z</time>
      </trkpt>
      <trkpt lat="45.56979" lon="4.7359">
        <ele>277</ele>
        <time>2012-10-07T07:49:56Z</time>
      </trkpt>
      <trkpt lat="45.56977" lon="4.73591">
        <ele>277</ele>
        <time>2012-10-07T07:49:58Z</time>
      </trkpt>
      <trkpt lat="45.56975" lon="4.73593">
        <ele>278</ele>
        <time>2012-10-07T07:50:00Z</time>
      </trkpt>
      <trkpt lat="45.56974" lon="4.73594">
        <ele>278</ele>
        <time>2012-10-07T07:50:02Z</time>
      </trkpt>
      <trkpt lat="45.56971" lon="4.73597">
        <ele>279</ele>
        <time>2012-10-07T07:50:04Z</time>
      </trkpt>
      <trkpt lat="45.56969" lon="4.73598">
        <ele>279</ele>
        <time>2012-10-07T07:50:06Z</time>
      </trkpt>
      <trkpt lat="45.56967" lon="4.736">
        <ele>279</ele>
        <time>2012-10-07T07:50:08Z</time>
      </trkpt>
      <trkpt lat="45.56965" lon="4.73601">
        <ele>279</ele>
        <time>2012-10-07T07:50:11Z</time>
      </trkpt>
      <trkpt lat="45.56964" lon="4.73602">
        <ele>279</ele>
        <time>2012-10-07T07:50:13Z</time>
      </trkpt>
      <trkpt lat="45.56962" lon="4.73603">
        <ele>279</ele>
        <time>2012-10-07T07:50:15Z</time>
      </trkpt>
      <trkpt lat="45.5696" lon="4.73605">
        <ele>279</ele>
        <time>2012-10-07T07:50:17Z</time>
      </trkpt>
      <trkpt lat="45.56958" lon="4.73607">
        <ele>279</ele>
        <time>2012-10-07T07:50:19Z</time>
      </trkpt>
      <trkpt lat="45.56957" lon="4.73608">
        <ele>279</ele>
        <time>2012-10-07T07:50:21Z</time>
      </trkpt>
      <trkpt lat="45.56955" lon="4.73609">
        <ele>280</ele>
        <time>2012-10-07T07:50:23Z</time>
      </trkpt>
      <trkpt lat="45.56954" lon="4.73611">
        <ele>280</ele>
        <time>2012-10-07T07:50:25Z</time>
      </trkpt>
      <trkpt lat="45.56953" lon="4.73612">
        <ele>280</ele>
        <time>2012-10-07T07:50:27Z</time>
      </trkpt>
      <trkpt lat="45.56951" lon="4.73614">
        <ele>280</ele>
        <time>2012-10-07T07:50:29Z</time>
      </trkpt>
      <trkpt lat="45.56948" lon="4.73615">
        <ele>281</ele>
        <time>2012-10-07T07:50:31Z</time>
      </trkpt>
      <trkpt lat="45.56947" lon="4.73617">
        <ele>280</ele>
        <time>2012-10-07T07:50:33Z</time>
      </trkpt>
      <trkpt lat="45.56945" lon="4.73618">
        <ele>281</ele>
        <time>2012-10-07T07:50:36Z</time>
      </trkpt>
      <trkpt lat="45.56944" lon="4.73619">
        <ele>281</ele>
        <time>2012-10-07T07:50:38Z</time>
      </trkpt>
      <trkpt lat="45.56942" lon="4.73621">
        <ele>281</ele>
        <time>2012-10-07T07:50:40Z</time>
      </trkpt>
      <trkpt lat="45.5694" lon="4.73622">
        <ele>281</ele>
        <time>2012-10-07T07:50:42Z</time>
      </trkpt>
      <trkpt lat="45.56938" lon="4.73623">
        <ele>282</ele>
        <time>2012-10-07T07:50:44Z</time>
      </trkpt>
      <trkpt lat="45.56936" lon="4.73624">
        <ele>282</ele>
        <time>2012-10-07T07:50:46Z</time>
      </trkpt>
      <trkpt lat="45.56934" lon="4.73625">
        <ele>282</ele>
        <time>2012-10-07T07:50:48Z</time>
      </trkpt>
      <trkpt lat="45.56932" lon="4.73626">
        <ele>282</ele>
        <time>2012-10-07T07:50:50Z</time>
      </trkpt>
      <trkpt lat="45.5693" lon="4.73627">
        <ele>282</ele>
        <time>2012-10-07T07:50:52Z</time>
      </trkpt>
      <trkpt lat="45.56928" lon="4.73627">
        <ele>282</ele>
        <time>2012-10-07T07:50:54Z</time>
      </trkpt>
      <trkpt lat="45.56926" lon="4.73628">
        <ele>283</ele>
        <time>2012-10-07T07:50:56Z</time>
      </trkpt>
      <trkpt lat="45.56924" lon="4.73629">
        <ele>283</ele>
        <time>2012-10-07T07:50:58Z</time>
      </trkpt>
      <trkpt lat="45.56921" lon="4.73631">
        <ele>283</ele>
        <time>2012-10-07T07:51:00Z</time>
      </trkpt>
      <trkpt lat="45.56919" lon="4.73631">
        <ele>283</ele>
        <time>2012-10-07T07:51:02Z</time>
      </trkpt>
      <trkpt lat="45.56917" lon="4.73632">
        <ele>283</ele>
        <time>2012-10-07T07:51:04Z</time>
      </trkpt>
      <trkpt lat="45.56915" lon="4.73633">
        <ele>283</ele>
        <time>2012-10-07T07:51:07Z</time>
      </trkpt>
      <trkpt lat="45.56913" lon="4.73633">
        <ele>284</ele>
        <time>2012-10-07T07:51:09Z</time>
      </trkpt>
      <trkpt lat="45.56911" lon="4.73634">
        <ele>284</ele>
        <time>2012-10-07T07:51:11Z</time>
      </trkpt>
      <trkpt lat="45.56909" lon="4.73635">
        <ele>284</ele>
        <time>2012-10-07T07:51:13Z</time>
      </trkpt>
      <trkpt lat="45.56907" lon="4.73636">
        <ele>284</ele>
        <time>2012-10-07T07:51:15Z</time>
      </trkpt>
      <trkpt lat="45.56905" lon="4.73637">
        <ele>284</ele>
        <time>2012-10-07T07:51:17Z</time>
      </trkpt>
      <trkpt lat="45.56903" lon="4.73638">
        <ele>284</ele>
        <time>2012-10-07T07:51:19Z</time>
      </trkpt>
      <trkpt lat="45.56901" lon="4.73639">
        <ele>284</ele>
        <time>2012-10-07T07:51:21Z</time>
      </trkpt>
      <trkpt lat="45.56898" lon="4.7364">
        <ele>284</ele>
        <time>2012-10-07T07:51:23Z</time>
      </trkpt>
      <trkpt lat="45.56896" lon="4.73641">
        <ele>285</ele>
        <time>2012-10-07T07:51:25Z</time>
      </trkpt>
      <trkpt lat="45.56894" lon="4.73642">
        <ele>285</ele>
        <time>2012-10-07T07:51:27Z</time>
      </trkpt>
      <trkpt lat="45.56892" lon="4.73643">
        <ele>285</ele>
        <time>2012-10-07T07:51:29Z</time>
      </trkpt>
      <trkpt lat="45.56889" lon="4.73646">
        <ele>285</ele>
        <time>2012-10-07T07:51:31Z</time>
      </trkpt>
      <trkpt lat="45.56888" lon="4.73648">
        <ele>285</ele>
        <time>2012-10-07T07:51:33Z</time>
      </trkpt>
      <trkpt lat="45.56887" lon="4.73651">
        <ele>285</ele>
        <time>2012-10-07T07:51:36Z</time>
      </trkpt>
      <trkpt lat="45.56887" lon="4.73655">
        <ele>285</ele>
        <time>2012-10-07T07:51:38Z</time>
      </trkpt>
      <trkpt lat="45.56887" lon="4.73658">
        <ele>285</ele>
        <time>2012-10-07T07:51:40Z</time>
      </trkpt>
      <trkpt lat="45.56888" lon="4.73661">
        <ele>286</ele>
        <time>2012-10-07T07:51:42Z</time>
      </trkpt>
      <trkpt lat="45.56888" lon="4.73664">
        <ele>286</ele>
        <time>2012-10-07T07:51:44Z</time>
      </trkpt>
      <trkpt lat="45.56889" lon="4.73668">
        <ele>286</ele>
        <time>2012-10-07T07:51:46Z</time>
      </trkpt>
      <trkpt lat="45.5689" lon="4.73673">
        <ele>286</ele>
        <time>2012-10-07T07:51:48Z</time>
      </trkpt>
      <trkpt lat="45.5689" lon="4.73676">
        <ele>286</ele>
        <time>2012-10-07T07:51:50Z</time>
      </trkpt>
      <trkpt lat="45.5689" lon="4.73679">
        <ele>285</ele>
        <time>2012-10-07T07:51:52Z</time>
      </trkpt>
      <trkpt lat="45.56891" lon="4.73682">
        <ele>285</ele>
        <time>2012-10-07T07:51:55Z</time>
      </trkpt>
      <trkpt lat="45.56891" lon="4.73686">
        <ele>285</ele>
        <time>2012-10-07T07:51:57Z</time>
      </trkpt>
      <trkpt lat="45.56891" lon="4.73689">
        <ele>285</ele>
        <time>2012-10-07T07:51:59Z</time>
      </trkpt>
      <trkpt lat="45.56892" lon="4.73693">
        <ele>285</ele>
        <time>2012-10-07T07:52:01Z</time>
      </trkpt>
      <trkpt lat="45.56891" lon="4.73697">
        <ele>285</ele>
        <time>2012-10-07T07:52:03Z</time>
      </trkpt>
      <trkpt lat="45.56892" lon="4.73702">
        <ele>285</ele>
        <time>2012-10-07T07:52:05Z</time>
      </trkpt>
      <trkpt lat="45.56891" lon="4.73705">
        <ele>285</ele>
        <time>2012-10-07T07:52:07Z</time>
      </trkpt>
      <trkpt lat="45.56891" lon="4.73708">
        <ele>285</ele>
        <time>2012-10-07T07:52:09Z</time>
      </trkpt>
      <trkpt lat="45.56891" lon="4.73711">
        <ele>285</ele>
        <time>2012-10-07T07:52:12Z</time>
      </trkpt>
      <trkpt lat="45.56891" lon="4.73715">
        <ele>285</ele>
        <time>2012-10-07T07:52:14Z</time>
      </trkpt>
      <trkpt lat="45.5689" lon="4.73718">
        <ele>285</ele>
        <time>2012-10-07T07:52:16Z</time>
      </trkpt>
      <trkpt lat="45.5689" lon="4.73722">
        <ele>285</ele>
        <time>2012-10-07T07:52:18Z</time>
      </trkpt>
      <trkpt lat="45.56889" lon="4.73725">
        <ele>285</ele>
        <time>2012-10-07T07:52:20Z</time>
      </trkpt>
      <trkpt lat="45.56889" lon="4.73729">
        <ele>285</ele>
        <time>2012-10-07T07:52:22Z</time>
      </trkpt>
      <trkpt lat="45.56888" lon="4.73733">
        <ele>285</ele>
        <time>2012-10-07T07:52:24Z</time>
      </trkpt>
      <trkpt lat="45.56888" lon="4.73736">
        <ele>285</ele>
        <time>2012-10-07T07:52:26Z</time>
      </trkpt>
      <trkpt lat="45.56887" lon="4.73741">
        <ele>285</ele>
        <time>2012-10-07T07:52:28Z</time>
      </trkpt>
      <trkpt lat="45.56887" lon="4.73744">
        <ele>285</ele>
        <time>2012-10-07T07:52:30Z</time>
      </trkpt>
      <trkpt lat="45.56886" lon="4.73748">
        <ele>285</ele>
        <time>2012-10-07T07:52:32Z</time>
      </trkpt>
      <trkpt lat="45.56886" lon="4.73751">
        <ele>285</ele>
        <time>2012-10-07T07:52:35Z</time>
      </trkpt>
      <trkpt lat="45.56885" lon="4.73755">
        <ele>285</ele>
        <time>2012-10-07T07:52:37Z</time>
      </trkpt>
      <trkpt lat="45.56884" lon="4.73759">
        <ele>285</ele>
        <time>2012-10-07T07:52:39Z</time>
      </trkpt>
      <trkpt lat="45.56884" lon="4.73762">
        <ele>285</ele>
        <time>2012-10-07T07:52:41Z</time>
      </trkpt>
      <trkpt lat="45.56883" lon="4.73765">
        <ele>285</ele>
        <time>2012-10-07T07:52:43Z</time>
      </trkpt>
      <trkpt lat="45.56883" lon="4.73768">
        <ele>285</ele>
        <time>2012-10-07T07:52:45Z</time>
      </trkpt>
      <trkpt lat="45.56882" lon="4.73771">
        <ele>285</ele>
        <time>2012-10-07T07:52:47Z</time>
      </trkpt>
      <trkpt lat="45.56882" lon="4.73775">
        <ele>285</ele>
        <time>2012-10-07T07:52:49Z</time>
      </trkpt>
      <trkpt lat="45.56882" lon="4.73778">
        <ele>285</ele>
        <time>2012-10-07T07:52:51Z</time>
      </trkpt>
      <trkpt lat="45.56881" lon="4.73783">
        <ele>285</ele>
        <time>2012-10-07T07:52:53Z</time>
      </trkpt>
      <trkpt lat="45.5688" lon="4.73786">
        <ele>284</ele>
        <time>2012-10-07T07:52:55Z</time>
      </trkpt>
      <trkpt lat="45.56879" lon="4.7379">
        <ele>284</ele>
        <time>2012-10-07T07:52:57Z</time>
      </trkpt>
      <trkpt lat="45.56878" lon="4.73793">
        <ele>284</ele>
        <time>2012-10-07T07:53:00Z</time>
      </trkpt>
      <trkpt lat="45.56876" lon="4.73796">
        <ele>284</ele>
        <time>2012-10-07T07:53:02Z</time>
      </trkpt>
      <trkpt lat="45.56875" lon="4.73799">
        <ele>284</ele>
        <time>2012-10-07T07:53:04Z</time>
      </trkpt>
      <trkpt lat="45.56874" lon="4.73802">
        <ele>285</ele>
        <time>2012-10-07T07:53:06Z</time>
      </trkpt>
      <trkpt lat="45.56873" lon="4.73806">
        <ele>284</ele>
        <time>2012-10-07T07:53:08Z</time>
      </trkpt>
      <trkpt lat="45.56871" lon="4.73808">
        <ele>284</ele>
        <time>2012-10-07T07:53:10Z</time>
      </trkpt>
      <trkpt lat="45.5687" lon="4.73811">
        <ele>284</ele>
        <time>2012-10-07T07:53:12Z</time>
      </trkpt>
      <trkpt lat="45.56868" lon="4.73815">
        <ele>284</ele>
        <time>2012-10-07T07:53:14Z</time>
      </trkpt>
      <trkpt lat="45.56867" lon="4.73817">
        <ele>284</ele>
        <time>2012-10-07T07:53:16Z</time>
      </trkpt>
      <trkpt lat="45.56866" lon="4.7382">
        <ele>285</ele>
        <time>2012-10-07T07:53:18Z</time>
      </trkpt>
      <trkpt lat="45.56864" lon="4.73823">
        <ele>285</ele>
        <time>2012-10-07T07:53:20Z</time>
      </trkpt>
      <trkpt lat="45.56863" lon="4.73826">
        <ele>285</ele>
        <time>2012-10-07T07:53:22Z</time>
      </trkpt>
      <trkpt lat="45.5686" lon="4.73829">
        <ele>285</ele>
        <time>2012-10-07T07:53:24Z</time>
      </trkpt>
      <trkpt lat="45.56859" lon="4.73832">
        <ele>284</ele>
        <time>2012-10-07T07:53:26Z</time>
      </trkpt>
      <trkpt lat="45.56857" lon="4.73835">
        <ele>285</ele>
        <time>2012-10-07T07:53:29Z</time>
      </trkpt>
      <trkpt lat="45.56856" lon="4.73838">
        <ele>285</ele>
        <time>2012-10-07T07:53:31Z</time>
      </trkpt>
      <trkpt lat="45.56855" lon="4.73841">
        <ele>285</ele>
        <time>2012-10-07T07:53:33Z</time>
      </trkpt>
      <trkpt lat="45.56853" lon="4.73843">
        <ele>285</ele>
        <time>2012-10-07T07:53:35Z</time>
      </trkpt>
      <trkpt lat="45.56852" lon="4.73846">
        <ele>285</ele>
        <time>2012-10-07T07:53:37Z</time>
      </trkpt>
      <trkpt lat="45.5685" lon="4.73849">
        <ele>285</ele>
        <time>2012-10-07T07:53:39Z</time>
      </trkpt>
      <trkpt lat="45.56849" lon="4.73851">
        <ele>285</ele>
        <time>2012-10-07T07:53:41Z</time>
      </trkpt>
      <trkpt lat="45.56847" lon="4.73854">
        <ele>285</ele>
        <time>2012-10-07T07:53:43Z</time>
      </trkpt>
      <trkpt lat="45.56845" lon="4.73857">
        <ele>285</ele>
        <time>2012-10-07T07:53:45Z</time>
      </trkpt>
      <trkpt lat="45.56844" lon="4.73859">
        <ele>285</ele>
        <time>2012-10-07T07:53:47Z</time>
      </trkpt>
      <trkpt lat="45.56842" lon="4.73862">
        <ele>285</ele>
        <time>2012-10-07T07:53:49Z</time>
      </trkpt>
      <trkpt lat="45.56841" lon="4.73865">
        <ele>285</ele>
        <time>2012-10-07T07:53:51Z</time>
      </trkpt>
      <trkpt lat="45.56839" lon="4.73867">
        <ele>285</ele>
        <time>2012-10-07T07:53:53Z</time>
      </trkpt>
      <trkpt lat="45.56838" lon="4.7387">
        <ele>285</ele>
        <time>2012-10-07T07:53:55Z</time>
      </trkpt>
      <trkpt lat="45.56838" lon="4.73875">
        <ele>285</ele>
        <time>2012-10-07T07:53:57Z</time>
      </trkpt>
      <trkpt lat="45.56838" lon="4.73879">
        <ele>285</ele>
        <time>2012-10-07T07:53:59Z</time>
      </trkpt>
      <trkpt lat="45.56839" lon="4.73882">
        <ele>285</ele>
        <time>2012-10-07T07:54:02Z</time>
      </trkpt>
      <trkpt lat="45.5684" lon="4.73885">
        <ele>285</ele>
        <time>2012-10-07T07:54:04Z</time>
      </trkpt>
      <trkpt lat="45.56842" lon="4.73888">
        <ele>285</ele>
        <time>2012-10-07T07:54:06Z</time>
      </trkpt>
      <trkpt lat="45.56844" lon="4.7389">
        <ele>285</ele>
        <time>2012-10-07T07:54:08Z</time>
      </trkpt>
      <trkpt lat="45.56846" lon="4.73892">
        <ele>284</ele>
        <time>2012-10-07T07:54:10Z</time>
      </trkpt>
      <trkpt lat="45.56847" lon="4.73895">
        <ele>284</ele>
        <time>2012-10-07T07:54:12Z</time>
      </trkpt>
      <trkpt lat="45.56847" lon="4.739">
        <ele>284</ele>
        <time>2012-10-07T07:54:14Z</time>
      </trkpt>
      <trkpt lat="45.56846" lon="4.73903">
        <ele>285</ele>
        <time>2012-10-07T07:54:16Z</time>
      </trkpt>
      <trkpt lat="45.56845" lon="4.73906">
        <ele>284</ele>
        <time>2012-10-07T07:54:18Z</time>
      </trkpt>
      <trkpt lat="45.56844" lon="4.73909">
        <ele>284</ele>
        <time>2012-10-07T07:54:20Z</time>
      </trkpt>
      <trkpt lat="45.56844" lon="4.73912">
        <ele>284</ele>
        <time>2012-10-07T07:54:22Z</time>
      </trkpt>
      <trkpt lat="45.56843" lon="4.73915">
        <ele>284</ele>
        <time>2012-10-07T07:54:25Z</time>
      </trkpt>
      <trkpt lat="45.56842" lon="4.73918">
        <ele>284</ele>
        <time>2012-10-07T07:54:27Z</time>
      </trkpt>
      <trkpt lat="45.56841" lon="4.73921">
        <ele>284</ele>
        <time>2012-10-07T07:54:29Z</time>
      </trkpt>
      <trkpt lat="45.5684" lon="4.73923">
        <ele>283</ele>
        <time>2012-10-07T07:54:31Z</time>
      </trkpt>
      <trkpt lat="45.56839" lon="4.73926">
        <ele>283</ele>
        <time>2012-10-07T07:54:33Z</time>
      </trkpt>
      <trkpt lat="45.56838" lon="4.73929">
        <ele>283</ele>
        <time>2012-10-07T07:54:35Z</time>
      </trkpt>
      <trkpt lat="45.56837" lon="4.73932">
        <ele>284</ele>
        <time>2012-10-07T07:54:37Z</time>
      </trkpt>
      <trkpt lat="45.56836" lon="4.73935">
        <ele>284</ele>
        <time>2012-10-07T07:54:39Z</time>
      </trkpt>
      <trkpt lat="45.56835" lon="4.73939">
        <ele>284</ele>
        <time>2012-10-07T07:54:41Z</time>
      </trkpt>
      <trkpt lat="45.56834" lon="4.73942">
        <ele>283</ele>
        <time>2012-10-07T07:54:43Z</time>
      </trkpt>
      <trkpt lat="45.56833" lon="4.73946">
        <ele>283</ele>
        <time>2012-10-07T07:54:45Z</time>
      </trkpt>
      <trkpt lat="45.56832" lon="4.73949">
        <ele>283</ele>
        <time>2012-10-07T07:54:47Z</time>
      </trkpt>
      <trkpt lat="45.56831" lon="4.73952">
        <ele>283</ele>
        <time>2012-10-07T07:54:50Z</time>
      </trkpt>
      <trkpt lat="45.5683" lon="4.73955">
        <ele>283</ele>
        <time>2012-10-07T07:54:52Z</time>
      </trkpt>
      <trkpt lat="45.5683" lon="4.73958">
        <ele>283</ele>
        <time>2012-10-07T07:54:54Z</time>
      </trkpt>
      <trkpt lat="45.56829" lon="4.73961">
        <ele>282</ele>
        <time>2012-10-07T07:54:56Z</time>
      </trkpt>
      <trkpt lat="45.56829" lon="4.73965">
        <ele>282</ele>
        <time>2012-10-07T07:54:58Z</time>
      </trkpt>
      <trkpt lat="45.56828" lon="4.73968">
        <ele>282</ele>
        <time>2012-10-07T07:55:00Z</time>
      </trkpt>
      <trkpt lat="45.56827" lon="4.7397">
        <ele>282</ele>
        <time>2012-10-07T07:55:02Z</time>
      </trkpt>
      <trkpt lat="45.56825" lon="4.73973">
        <ele>283</ele>
        <time>2012-10-07T07:55:04Z</time>
      </trkpt>
      <trkpt lat="45.56825" lon="4.73976">
        <ele>283</ele>
        <time>2012-10-07T07:55:06Z</time>
      </trkpt>
      <trkpt lat="45.56825" lon="4.73979">
        <ele>283</ele>
        <time>2012-10-07T07:55:08Z</time>
      </trkpt>
      <trkpt lat="45.56824" lon="4.73982">
        <ele>283</ele>
        <time>2012-10-07T07:55:10Z</time>
      </trkpt>
      <trkpt lat="45.56824" lon="4.73987">
        <ele>283</ele>
        <time>2012-10-07T07:55:12Z</time>
      </trkpt>
      <trkpt lat="45.56824" lon="4.7399">
        <ele>283</ele>
        <time>2012-10-07T07:55:14Z</time>
      </trkpt>
      <trkpt lat="45.56824" lon="4.73993">
        <ele>282</ele>
        <time>2012-10-07T07:55:16Z</time>
      </trkpt>
      <trkpt lat="45.56823" lon="4.73995">
        <ele>282</ele>
        <time>2012-10-07T07:55:18Z</time>
      </trkpt>
      <trkpt lat="45.56823" lon="4.73998">
        <ele>282</ele>
        <time>2012-10-07T07:55:21Z</time>
      </trkpt>
      <trkpt lat="45.56823" lon="4.74002">
        <ele>282</ele>
        <time>2012-10-07T07:55:23Z</time>
      </trkpt>
      <trkpt lat="45.56822" lon="4.74005">
        <ele>282</ele>
        <time>2012-10-07T07:55:25Z</time>
      </trkpt>
      <trkpt lat="45.56821" lon="4.74008">
        <ele>282</ele>
        <time>2012-10-07T07:55:27Z</time>
      </trkpt>
      <trkpt lat="45.56821" lon="4.7401">
        <ele>282</ele>
        <time>2012-10-07T07:55:29Z</time>
      </trkpt>
      <trkpt lat="45.56821" lon="4.74013">
        <ele>282</ele>
        <time>2012-10-07T07:55:31Z</time>
      </trkpt>
      <trkpt lat="45.5682" lon="4.74016">
        <ele>282</ele>
        <time>2012-10-07T07:55:33Z</time>
      </trkpt>
      <trkpt lat="45.5682" lon="4.74019">
        <ele>281</ele>
        <time>2012-10-07T07:55:35Z</time>
      </trkpt>
      <trkpt lat="45.56819" lon="4.74022">
        <ele>281</ele>
        <time>2012-10-07T07:55:37Z</time>
      </trkpt>
      <trkpt lat="45.56819" lon="4.74025">
        <ele>281</ele>
        <time>2012-10-07T07:55:39Z</time>
      </trkpt>
      <trkpt lat="45.56818" lon="4.74028">
        <ele>281</ele>
        <time>2012-10-07T07:55:41Z</time>
      </trkpt>
      <trkpt lat="45.56818" lon="4.74031">
        <ele>281</ele>
        <time>2012-10-07T07:55:43Z</time>
      </trkpt>
      <trkpt lat="45.56816" lon="4.74034">
        <ele>280</ele>
        <time>2012-10-07T07:55:45Z</time>
      </trkpt>
      <trkpt lat="45.56815" lon="4.74036">
        <ele>280</ele>
        <time>2012-10-07T07:55:47Z</time>
      </trkpt>
      <trkpt lat="45.56813" lon="4.74038">
        <ele>280</ele>
        <time>2012-10-07T07:55:49Z</time>
      </trkpt>
      <trkpt lat="45.56812" lon="4.7404">
        <ele>279</ele>
        <time>2012-10-07T07:55:51Z</time>
      </trkpt>
      <trkpt lat="45.5681" lon="4.7404">
        <ele>279</ele>
        <time>2012-10-07T07:55:53Z</time>
      </trkpt>
      <trkpt lat="45.56808" lon="4.74039">
        <ele>279</ele>
        <time>2012-10-07T07:55:55Z</time>
      </trkpt>
      <trkpt lat="45.56805" lon="4.7404">
        <ele>279</ele>
        <time>2012-10-07T07:55:57Z</time>
      </trkpt>
      <trkpt lat="45.56803" lon="4.7404">
        <ele>279</ele>
        <time>2012-10-07T07:55:59Z</time>
      </trkpt>
      <trkpt lat="45.56801" lon="4.74039">
        <ele>280</ele>
        <time>2012-10-07T07:56:02Z</time>
      </trkpt>
      <trkpt lat="45.56798" lon="4.7404">
        <ele>280</ele>
        <time>2012-10-07T07:56:04Z</time>
      </trkpt>
      <trkpt lat="45.56796" lon="4.74041">
        <ele>280</ele>
        <time>2012-10-07T07:56:06Z</time>
      </trkpt>
      <trkpt lat="45.56794" lon="4.74042">
        <ele>279</ele>
        <time>2012-10-07T07:56:08Z</time>
      </trkpt>
      <trkpt lat="45.56792" lon="4.74044">
        <ele>280</ele>
        <time>2012-10-07T07:56:10Z</time>
      </trkpt>
      <trkpt lat="45.56789" lon="4.74047">
        <ele>279</ele>
        <time>2012-10-07T07:56:12Z</time>
      </trkpt>
      <trkpt lat="45.56788" lon="4.74048">
        <ele>279</ele>
        <time>2012-10-07T07:56:14Z</time>
      </trkpt>
      <trkpt lat="45.56786" lon="4.7405">
        <ele>279</ele>
        <time>2012-10-07T07:56:16Z</time>
      </trkpt>
      <trkpt lat="45.56785" lon="4.74052">
        <ele>279</ele>
        <time>2012-10-07T07:56:19Z</time>
      </trkpt>
      <trkpt lat="45.56784" lon="4.74055">
        <ele>279</ele>
        <time>2012-10-07T07:56:21Z</time>
      </trkpt>
      <trkpt lat="45.56783" lon="4.74057">
        <ele>279</ele>
        <time>2012-10-07T07:56:23Z</time>
      </trkpt>
      <trkpt lat="45.56782" lon="4.7406">
        <ele>279</ele>
        <time>2012-10-07T07:56:25Z</time>
      </trkpt>
      <trkpt lat="45.56781" lon="4.74062">
        <ele>279</ele>
        <time>2012-10-07T07:56:27Z</time>
      </trkpt>
      <trkpt lat="45.5678" lon="4.74065">
        <ele>279</ele>
        <time>2012-10-07T07:56:29Z</time>
      </trkpt>
      <trkpt lat="45.56778" lon="4.74067">
        <ele>279</ele>
        <time>2012-10-07T07:56:31Z</time>
      </trkpt>
      <trkpt lat="45.56778" lon="4.7407">
        <ele>279</ele>
        <time>2012-10-07T07:56:33Z</time>
      </trkpt>
      <trkpt lat="45.56777" lon="4.74072">
        <ele>279</ele>
        <time>2012-10-07T07:56:35Z</time>
      </trkpt>
      <trkpt lat="45.56776" lon="4.74074">
        <ele>279</ele>
        <time>2012-10-07T07:56:37Z</time>
      </trkpt>
      <trkpt lat="45.56776" lon="4.74076">
        <ele>279</ele>
        <time>2012-10-07T07:56:39Z</time>
      </trkpt>
      <trkpt lat="45.56775" lon="4.74079">
        <ele>279</ele>
        <time>2012-10-07T07:56:41Z</time>
      </trkpt>
      <trkpt lat="45.56774" lon="4.74082">
        <ele>279</ele>
        <time>2012-10-07T07:56:43Z</time>
      </trkpt>
      <trkpt lat="45.56773" lon="4.74085">
        <ele>279</ele>
        <time>2012-10-07T07:56:45Z</time>
      </trkpt>
      <trkpt lat="45.56772" lon="4.74087">
        <ele>279</ele>
        <time>2012-10-07T07:56:47Z</time>
      </trkpt>
      <trkpt lat="45.56771" lon="4.7409">
        <ele>279</ele>
        <time>2012-10-07T07:56:49Z</time>
      </trkpt>
      <trkpt lat="45.56769" lon="4.74093">
        <ele>279</ele>
        <time>2012-10-07T07:56:51Z</time>
      </trkpt>
      <trkpt lat="45.56768" lon="4.74096">
        <ele>279</ele>
        <time>2012-10-07T07:56:53Z</time>
      </trkpt>
      <trkpt lat="45.56766" lon="4.74101">
        <ele>279</ele>
        <time>2012-10-07T07:56:55Z</time>
      </trkpt>
      <trkpt lat="45.56765" lon="4.74103">
        <ele>279</ele>
        <time>2012-10-07T07:56:57Z</time>
      </trkpt>
      <trkpt lat="45.56763" lon="4.74106">
        <ele>279</ele>
        <time>2012-10-07T07:57:00Z</time>
      </trkpt>
      <trkpt lat="45.56762" lon="4.74108">
        <ele>280</ele>
        <time>2012-10-07T07:57:02Z</time>
      </trkpt>
      <trkpt lat="45.56761" lon="4.74111">
        <ele>280</ele>
        <time>2012-10-07T07:57:04Z</time>
      </trkpt>
      <trkpt lat="45.5676" lon="4.74113">
        <ele>280</ele>
        <time>2012-10-07T07:57:06Z</time>
      </trkpt>
      <trkpt lat="45.56757" lon="4.74117">
        <ele>280</ele>
        <time>2012-10-07T07:57:08Z</time>
      </trkpt>
      <trkpt lat="45.56756" lon="4.74119">
        <ele>280</ele>
        <time>2012-10-07T07:57:11Z</time>
      </trkpt>
      <trkpt lat="45.56755" lon="4.74121">
        <ele>280</ele>
        <time>2012-10-07T07:57:13Z</time>
      </trkpt>
      <trkpt lat="45.56753" lon="4.74123">
        <ele>280</ele>
        <time>2012-10-07T07:57:15Z</time>
      </trkpt>
      <trkpt lat="45.56752" lon="4.74125">
        <ele>280</ele>
        <time>2012-10-07T07:57:17Z</time>
      </trkpt>
      <trkpt lat="45.56751" lon="4.74127">
        <ele>281</ele>
        <time>2012-10-07T07:57:19Z</time>
      </trkpt>
      <trkpt lat="45.56749" lon="4.7413">
        <ele>281</ele>
        <time>2012-10-07T07:57:21Z</time>
      </trkpt>
      <trkpt lat="45.56748" lon="4.74133">
        <ele>281</ele>
        <time>2012-10-07T07:57:23Z</time>
      </trkpt>
      <trkpt lat="45.56747" lon="4.74135">
        <ele>281</ele>
        <time>2012-10-07T07:57:25Z</time>
      </trkpt>
      <trkpt lat="45.56745" lon="4.74138">
        <ele>281</ele>
        <time>2012-10-07T07:57:27Z</time>
      </trkpt>
      <trkpt lat="45.56743" lon="4.7414">
        <ele>281</ele>
        <time>2012-10-07T07:57:29Z</time>
      </trkpt>
      <trkpt lat="45.56742" lon="4.74142">
        <ele>281</ele>
        <time>2012-10-07T07:57:31Z</time>
      </trkpt>
      <trkpt lat="45.5674" lon="4.74145">
        <ele>281</ele>
        <time>2012-10-07T07:57:33Z</time>
      </trkpt>
      <trkpt lat="45.56737" lon="4.74148">
        <ele>281</ele>
        <time>2012-10-07T07:57:35Z</time>
      </trkpt>
      <trkpt lat="45.56735" lon="4.7415">
        <ele>281</ele>
        <time>2012-10-07T07:57:37Z</time>
      </trkpt>
      <trkpt lat="45.56733" lon="4.74152">
        <ele>281</ele>
        <time>2012-10-07T07:57:40Z</time>
      </trkpt>
      <trkpt lat="45.56731" lon="4.74154">
        <ele>282</ele>
        <time>2012-10-07T07:57:42Z</time>
      </trkpt>
      <trkpt lat="45.5673" lon="4.74155">
        <ele>282</ele>
        <time>2012-10-07T07:57:44Z</time>
      </trkpt>
      <trkpt lat="45.56728" lon="4.74157">
        <ele>282</ele>
        <time>2012-10-07T07:57:46Z</time>
      </trkpt>
      <trkpt lat="45.56726" lon="4.74159">
        <ele>282</ele>
        <time>2012-10-07T07:57:48Z</time>
      </trkpt>
      <trkpt lat="45.56725" lon="4.74161">
        <ele>282</ele>
        <time>2012-10-07T07:57:50Z</time>
      </trkpt>
      <trkpt lat="45.56723" lon="4.74163">
        <ele>282</ele>
        <time>2012-10-07T07:57:52Z</time>
      </trkpt>
      <trkpt lat="45.56721" lon="4.74165">
        <ele>282</ele>
        <time>2012-10-07T07:57:54Z</time>
      </trkpt>
      <trkpt lat="45.5672" lon="4.74167">
        <ele>282</ele>
        <time>2012-10-07T07:57:56Z</time>
      </trkpt>
      <trkpt lat="45.56718" lon="4.74168">
        <ele>283</ele>
        <time>2012-10-07T07:57:58Z</time>
      </trkpt>
      <trkpt lat="45.56716" lon="4.7417">
        <ele>283</ele>
        <time>2012-10-07T07:58:00Z</time>
      </trkpt>
      <trkpt lat="45.56715" lon="4.74172">
        <ele>283</ele>
        <time>2012-10-07T07:58:02Z</time>
      </trkpt>
      <trkpt lat="45.56712" lon="4.74176">
        <ele>283</ele>
        <time>2012-10-07T07:58:04Z</time>
      </trkpt>
      <trkpt lat="45.56711" lon="4.74178">
        <ele>283</ele>
        <time>2012-10-07T07:58:06Z</time>
      </trkpt>
      <trkpt lat="45.56709" lon="4.74181">
        <ele>283</ele>
        <time>2012-10-07T07:58:09Z</time>
      </trkpt>
      <trkpt lat="45.56708" lon="4.74183">
        <ele>283</ele>
        <time>2012-10-07T07:58:11Z</time>
      </trkpt>
      <trkpt lat="45.56707" lon="4.74185">
        <ele>283</ele>
        <time>2012-10-07T07:58:13Z</time>
      </trkpt>
      <trkpt lat="45.56705" lon="4.74188">
        <ele>283</ele>
        <time>2012-10-07T07:58:15Z</time>
      </trkpt>
      <trkpt lat="45.56703" lon="4.7419">
        <ele>283</ele>
        <time>2012-10-07T07:58:17Z</time>
      </trkpt>
      <trkpt lat="45.56701" lon="4.74192">
        <ele>283</ele>
        <time>2012-10-07T07:58:19Z</time>
      </trkpt>
      <trkpt lat="45.56699" lon="4.74195">
        <ele>283</ele>
        <time>2012-10-07T07:58:21Z</time>
      </trkpt>
      <trkpt lat="45.56697" lon="4.74197">
        <ele>283</ele>
        <time>2012-10-07T07:58:23Z</time>
      </trkpt>
      <trkpt lat="45.56695" lon="4.74199">
        <ele>283</ele>
        <time>2012-10-07T07:58:26Z</time>
      </trkpt>
      <trkpt lat="45.56693" lon="4.742">
        <ele>284</ele>
        <time>2012-10-07T07:58:28Z</time>
      </trkpt>
      <trkpt lat="45.56691" lon="4.74202">
        <ele>284</ele>
        <time>2012-10-07T07:58:30Z</time>
      </trkpt>
      <trkpt lat="45.56689" lon="4.74204">
        <ele>284</ele>
        <time>2012-10-07T07:58:32Z</time>
      </trkpt>
      <trkpt lat="45.56687" lon="4.74205">
        <ele>284</ele>
        <time>2012-10-07T07:58:34Z</time>
      </trkpt>
      <trkpt lat="45.56685" lon="4.74207">
        <ele>284</ele>
        <time>2012-10-07T07:58:36Z</time>
      </trkpt>
      <trkpt lat="45.56683" lon="4.74209">
        <ele>284</ele>
        <time>2012-10-07T07:58:38Z</time>
      </trkpt>
      <trkpt lat="45.56682" lon="4.7421">
        <ele>284</ele>
        <time>2012-10-07T07:58:40Z</time>
      </trkpt>
      <trkpt lat="45.5668" lon="4.74212">
        <ele>284</ele>
        <time>2012-10-07T07:58:42Z</time>
      </trkpt>
      <trkpt lat="45.56678" lon="4.74214">
        <ele>284</ele>
        <time>2012-10-07T07:58:44Z</time>
      </trkpt>
      <trkpt lat="45.56675" lon="4.74215">
        <ele>284</ele>
        <time>2012-10-07T07:58:46Z</time>
      </trkpt>
      <trkpt lat="45.56673" lon="4.74216">
        <ele>284</ele>
        <time>2012-10-07T07:58:48Z</time>
      </trkpt>
      <trkpt lat="45.56671" lon="4.74218">
        <ele>284</ele>
        <time>2012-10-07T07:58:50Z</time>
      </trkpt>
      <trkpt lat="45.56669" lon="4.74219">
        <ele>284</ele>
        <time>2012-10-07T07:58:52Z</time>
      </trkpt>
      <trkpt lat="45.56667" lon="4.74222">
        <ele>284</ele>
        <time>2012-10-07T07:58:55Z</time>
      </trkpt>
      <trkpt lat="45.56665" lon="4.74223">
        <ele>284</ele>
        <time>2012-10-07T07:58:57Z</time>
      </trkpt>
      <trkpt lat="45.56663" lon="4.74225">
        <ele>285</ele>
        <time>2012-10-07T07:58:59Z</time>
      </trkpt>
      <trkpt lat="45.56661" lon="4.74227">
        <ele>285</ele>
        <time>2012-10-07T07:59:01Z</time>
      </trkpt>
      <trkpt lat="45.5666" lon="4.74229">
        <ele>285</ele>
        <time>2012-10-07T07:59:03Z</time>
      </trkpt>
      <trkpt lat="45.56658" lon="4.74231">
        <ele>285</ele>
        <time>2012-10-07T07:59:05Z</time>
      </trkpt>
      <trkpt lat="45.56656" lon="4.74232">
        <ele>285</ele>
        <time>2012-10-07T07:59:07Z</time>
      </trkpt>
      <trkpt lat="45.56654" lon="4.74234">
        <ele>285</ele>
        <time>2012-10-07T07:59:09Z</time>
      </trkpt>
      <trkpt lat="45.56651" lon="4.74235">
        <ele>285</ele>
        <time>2012-10-07T07:59:11Z</time>
      </trkpt>
      <trkpt lat="45.56649" lon="4.74237">
        <ele>285</ele>
        <time>2012-10-07T07:59:13Z</time>
      </trkpt>
      <trkpt lat="45.56646" lon="4.74239">
        <ele>285</ele>
        <time>2012-10-07T07:59:15Z</time>
      </trkpt>
      <trkpt lat="45.56644" lon="4.74241">
        <ele>285</ele>
        <time>2012-10-07T07:59:17Z</time>
      </trkpt>
      <trkpt lat="45.56642" lon="4.74242">
        <ele>286</ele>
        <time>2012-10-07T07:59:19Z</time>
      </trkpt>
      <trkpt lat="45.5664" lon="4.74244">
        <ele>286</ele>
        <time>2012-10-07T07:59:21Z</time>
      </trkpt>
      <trkpt lat="45.56638" lon="4.74245">
        <ele>286</ele>
        <time>2012-10-07T07:59:23Z</time>
      </trkpt>
      <trkpt lat="45.56636" lon="4.74247">
        <ele>286</ele>
        <time>2012-10-07T07:59:25Z</time>
      </trkpt>
      <trkpt lat="45.56634" lon="4.74248">
        <ele>286</ele>
        <time>2012-10-07T07:59:28Z</time>
      </trkpt>
      <trkpt lat="45.56632" lon="4.74249">
        <ele>286</ele>
        <time>2012-10-07T07:59:30Z</time>
      </trkpt>
      <trkpt lat="45.5663" lon="4.74251">
        <ele>286</ele>
        <time>2012-10-07T07:59:32Z</time>
      </trkpt>
      <trkpt lat="45.56628" lon="4.74252">
        <ele>285</ele>
        <time>2012-10-07T07:59:34Z</time>
      </trkpt>
      <trkpt lat="45.56626" lon="4.74254">
        <ele>285</ele>
        <time>2012-10-07T07:59:36Z</time>
      </trkpt>
      <trkpt lat="45.56624" lon="4.74255">
        <ele>286</ele>
        <time>2012-10-07T07:59:38Z</time>
      </trkpt>
      <trkpt lat="45.56622" lon="4.74257">
        <ele>286</ele>
        <time>2012-10-07T07:59:40Z</time>
      </trkpt>
      <trkpt lat="45.5662" lon="4.74258">
        <ele>286</ele>
        <time>2012-10-07T07:59:42Z</time>
      </trkpt>
      <trkpt lat="45.56617" lon="4.7426">
        <ele>286</ele>
        <time>2012-10-07T07:59:44Z</time>
      </trkpt>
      <trkpt lat="45.56615" lon="4.74261">
        <ele>286</ele>
        <time>2012-10-07T07:59:46Z</time>
      </trkpt>
      <trkpt lat="45.56613" lon="4.74262">
        <ele>286</ele>
        <time>2012-10-07T07:59:48Z</time>
      </trkpt>
      <trkpt lat="45.56611" lon="4.74264">
        <ele>286</ele>
        <time>2012-10-07T07:59:50Z</time>
      </trkpt>
      <trkpt lat="45.56609" lon="4.74265">
        <ele>286</ele>
        <time>2012-10-07T07:59:53Z</time>
      </trkpt>
      <trkpt lat="45.56607" lon="4.74266">
        <ele>286</ele>
        <time>2012-10-07T07:59:55Z</time>
      </trkpt>
      <trkpt lat="45.56605" lon="4.74268">
        <ele>286</ele>
        <time>2012-10-07T07:59:57Z</time>
      </trkpt>
      <trkpt lat="45.56603" lon="4.74269">
        <ele>286</ele>
        <time>2012-10-07T07:59:59Z</time>
      </trkpt>
      <trkpt lat="45.56601" lon="4.74271">
        <ele>286</ele>
        <time>2012-10-07T08:00:01Z</time>
      </trkpt>
      <trkpt lat="45.56599" lon="4.74272">
        <ele>286</ele>
        <time>2012-10-07T08:00:03Z</time>
      </trkpt>
      <trkpt lat="45.56598" lon="4.74274">
        <ele>286</ele>
        <time>2012-10-07T08:00:05Z</time>
      </trkpt>
      <trkpt lat="45.56596" lon="4.74275">
        <ele>286</ele>
        <time>2012-10-07T08:00:07Z</time>
      </trkpt>
      <trkpt lat="45.56593" lon="4.74276">
        <ele>286</ele>
        <time>2012-10-07T08:00:09Z</time>
      </trkpt>
      <trkpt lat="45.5659" lon="4.74278">
        <ele>286</ele>
        <time>2012-10-07T08:00:11Z</time>
      </trkpt>
      <trkpt lat="45.56588" lon="4.74279">
        <ele>286</ele>
        <time>2012-10-07T08:00:13Z</time>
      </trkpt>
      <trkpt lat="45.56586" lon="4.74281">
        <ele>286</ele>
        <time>2012-10-07T08:00:15Z</time>
      </trkpt>
      <trkpt lat="45.56584" lon="4.74283">
        <ele>286</ele>
        <time>2012-10-07T08:00:18Z</time>
      </trkpt>
      <trkpt lat="45.56582" lon="4.74284">
        <ele>286</ele>
        <time>2012-10-07T08:00:20Z</time>
      </trkpt>
      <trkpt lat="45.5658" lon="4.74285">
        <ele>286</ele>
        <time>2012-10-07T08:00:22Z</time>
      </trkpt>
      <trkpt lat="45.56577" lon="4.74286">
        <ele>286</ele>
        <time>2012-10-07T08:00:24Z</time>
      </trkpt>
      <trkpt lat="45.56575" lon="4.74287">
        <ele>286</ele>
        <time>2012-10-07T08:00:26Z</time>
      </trkpt>
      <trkpt lat="45.56572" lon="4.74289">
        <ele>286</ele>
        <time>2012-10-07T08:00:28Z</time>
      </trkpt>
      <trkpt lat="45.5657" lon="4.7429">
        <ele>286</ele>
        <time>2012-10-07T08:00:30Z</time>
      </trkpt>
      <trkpt lat="45.56568" lon="4.74291">
        <ele>286</ele>
        <time>2012-10-07T08:00:33Z</time>
      </trkpt>
      <trkpt lat="45.56566" lon="4.74293">
        <ele>286</ele>
        <time>2012-10-07T08:00:35Z</time>
      </trkpt>
      <trkpt lat="45.56564" lon="4.74294">
        <ele>287</ele>
        <time>2012-10-07T08:00:37Z</time>
      </trkpt>
      <trkpt lat="45.56562" lon="4.74295">
        <ele>287</ele>
        <time>2012-10-07T08:00:39Z</time>
      </trkpt>
      <trkpt lat="45.56559" lon="4.74297">
        <ele>286</ele>
        <time>2012-10-07T08:00:41Z</time>
      </trkpt>
      <trkpt lat="45.56556" lon="4.74298">
        <ele>286</ele>
        <time>2012-10-07T08:00:43Z</time>
      </trkpt>
      <trkpt lat="45.56553" lon="4.74298">
        <ele>286</ele>
        <time>2012-10-07T08:00:45Z</time>
      </trkpt>
      <trkpt lat="45.56551" lon="4.74299">
        <ele>285</ele>
        <time>2012-10-07T08:00:48Z</time>
      </trkpt>
      <trkpt lat="45.56549" lon="4.743">
        <ele>285</ele>
        <time>2012-10-07T08:00:50Z</time>
      </trkpt>
      <trkpt lat="45.56547" lon="4.74301">
        <ele>285</ele>
        <time>2012-10-07T08:00:52Z</time>
      </trkpt>
      <trkpt lat="45.56545" lon="4.74302">
        <ele>285</ele>
        <time>2012-10-07T08:00:54Z</time>
      </trkpt>
      <trkpt lat="45.56543" lon="4.74303">
        <ele>285</ele>
        <time>2012-10-07T08:00:56Z</time>
      </trkpt>
      <trkpt lat="45.56541" lon="4.74304">
        <ele>285</ele>
        <time>2012-10-07T08:00:58Z</time>
      </trkpt>
      <trkpt lat="45.56538" lon="4.74304">
        <ele>285</ele>
        <time>2012-10-07T08:01:00Z</time>
      </trkpt>
      <trkpt lat="45.56536" lon="4.74303">
        <ele>285</ele>
        <time>2012-10-07T08:01:02Z</time>
      </trkpt>
      <trkpt lat="45.56534" lon="4.74303">
        <ele>285</ele>
        <time>2012-10-07T08:01:04Z</time>
      </trkpt>
      <trkpt lat="45.56532" lon="4.74302">
        <ele>285</ele>
        <time>2012-10-07T08:01:06Z</time>
      </trkpt>
      <trkpt lat="45.5653" lon="4.74301">
        <ele>285</ele>
        <time>2012-10-07T08:01:09Z</time>
      </trkpt>
      <trkpt lat="45.56528" lon="4.74301">
        <ele>285</ele>
        <time>2012-10-07T08:01:11Z</time>
      </trkpt>
      <trkpt lat="45.56526" lon="4.743">
        <ele>285</ele>
        <time>2012-10-07T08:01:13Z</time>
      </trkpt>
      <trkpt lat="45.56524" lon="4.74299">
        <ele>285</ele>
        <time>2012-10-07T08:01:15Z</time>
      </trkpt>
      <trkpt lat="45.56522" lon="4.74299">
        <ele>285</ele>
        <time>2012-10-07T08:01:17Z</time>
      </trkpt>
      <trkpt lat="45.56519" lon="4.74298">
        <ele>285</ele>
        <time>2012-10-07T08:01:19Z</time>
      </trkpt>
      <trkpt lat="45.56517" lon="4.74297">
        <ele>285</ele>
        <time>2012-10-07T08:01:21Z</time>
      </trkpt>
      <trkpt lat="45.56515" lon="4.74297">
        <ele>285</ele>
        <time>2012-10-07T08:01:23Z</time>
      </trkpt>
      <trkpt lat="45.56513" lon="4.74296">
        <ele>285</ele>
        <time>2012-10-07T08:01:25Z</time>
      </trkpt>
      <trkpt lat="45.56511" lon="4.74295">
        <ele>285</ele>
        <time>2012-10-07T08:01:27Z</time>
      </trkpt>
      <trkpt lat="45.56509" lon="4.74294">
        <ele>285</ele>
        <time>2012-10-07T08:01:29Z</time>
      </trkpt>
      <trkpt lat="45.56507" lon="4.74292">
        <ele>285</ele>
        <time>2012-10-07T08:01:31Z</time>
      </trkpt>
      <trkpt lat="45.56505" lon="4.74291">
        <ele>285</ele>
        <time>2012-10-07T08:01:33Z</time>
      </trkpt>
      <trkpt lat="45.56503" lon="4.7429">
        <ele>285</ele>
        <time>2012-10-07T08:01:35Z</time>
      </trkpt>
      <trkpt lat="45.56501" lon="4.74289">
        <ele>285</ele>
        <time>2012-10-07T08:01:37Z</time>
      </trkpt>
      <trkpt lat="45.56498" lon="4.74287">
        <ele>285</ele>
        <time>2012-10-07T08:01:39Z</time>
      </trkpt>
      <trkpt lat="45.56496" lon="4.74285">
        <ele>285</ele>
        <time>2012-10-07T08:01:41Z</time>
      </trkpt>
      <trkpt lat="45.56494" lon="4.74284">
        <ele>285</ele>
        <time>2012-10-07T08:01:43Z</time>
      </trkpt>
      <trkpt lat="45.56492" lon="4.74283">
        <ele>285</ele>
        <time>2012-10-07T08:01:46Z</time>
      </trkpt>
      <trkpt lat="45.5649" lon="4.74282">
        <ele>285</ele>
        <time>2012-10-07T08:01:48Z</time>
      </trkpt>
      <trkpt lat="45.56488" lon="4.74281">
        <ele>286</ele>
        <time>2012-10-07T08:01:50Z</time>
      </trkpt>
      <trkpt lat="45.56486" lon="4.7428">
        <ele>285</ele>
        <time>2012-10-07T08:01:52Z</time>
      </trkpt>
      <trkpt lat="45.56484" lon="4.74278">
        <ele>285</ele>
        <time>2012-10-07T08:01:54Z</time>
      </trkpt>
      <trkpt lat="45.56481" lon="4.74277">
        <ele>285</ele>
        <time>2012-10-07T08:01:56Z</time>
      </trkpt>
      <trkpt lat="45.56479" lon="4.74276">
        <ele>285</ele>
        <time>2012-10-07T08:01:58Z</time>
      </trkpt>
      <trkpt lat="45.56477" lon="4.74275">
        <ele>286</ele>
        <time>2012-10-07T08:02:00Z</time>
      </trkpt>
      <trkpt lat="45.56475" lon="4.74274">
        <ele>286</ele>
        <time>2012-10-07T08:02:02Z</time>
      </trkpt>
      <trkpt lat="45.56472" lon="4.74273">
        <ele>286</ele>
        <time>2012-10-07T08:02:04Z</time>
      </trkpt>
      <trkpt lat="45.56469" lon="4.74273">
        <ele>286</ele>
        <time>2012-10-07T08:02:06Z</time>
      </trkpt>
      <trkpt lat="45.56467" lon="4.74272">
        <ele>286</ele>
        <time>2012-10-07T08:02:08Z</time>
      </trkpt>
      <trkpt lat="45.56465" lon="4.74271">
        <ele>286</ele>
        <time>2012-10-07T08:02:10Z</time>
      </trkpt>
      <trkpt lat="45.56462" lon="4.7427">
        <ele>286</ele>
        <time>2012-10-07T08:02:12Z</time>
      </trkpt>
      <trkpt lat="45.5646" lon="4.74268">
        <ele>286</ele>
        <time>2012-10-07T08:02:14Z</time>
      </trkpt>
      <trkpt lat="45.56458" lon="4.74267">
        <ele>286</ele>
        <time>2012-10-07T08:02:16Z</time>
      </trkpt>
      <trkpt lat="45.56456" lon="4.74267">
        <ele>286</ele>
        <time>2012-10-07T08:02:19Z</time>
      </trkpt>
      <trkpt lat="45.56453" lon="4.74266">
        <ele>286</ele>
        <time>2012-10-07T08:02:21Z</time>
      </trkpt>
      <trkpt lat="45.56451" lon="4.74265">
        <ele>286</ele>
        <time>2012-10-07T08:02:23Z</time>
      </trkpt>
      <trkpt lat="45.56449" lon="4.74264">
        <ele>286</ele>
        <time>2012-10-07T08:02:25Z</time>
      </trkpt>
      <trkpt lat="45.56447" lon="4.74264">
        <ele>286</ele>
        <time>2012-10-07T08:02:27Z</time>
      </trkpt>
      <trkpt lat="45.56445" lon="4.74263">
        <ele>286</ele>
        <time>2012-10-07T08:02:29Z</time>
      </trkpt>
      <trkpt lat="45.56441" lon="4.74263">
        <ele>286</ele>
        <time>2012-10-07T08:02:31Z</time>
      </trkpt>
      <trkpt lat="45.56439" lon="4.74262">
        <ele>286</ele>
        <time>2012-10-07T08:02:33Z</time>
      </trkpt>
      <trkpt lat="45.56437" lon="4.74263">
        <ele>287</ele>
        <time>2012-10-07T08:02:35Z</time>
      </trkpt>
      <trkpt lat="45.56435" lon="4.74263">
        <ele>287</ele>
        <time>2012-10-07T08:02:37Z</time>
      </trkpt>
      <trkpt lat="45.56432" lon="4.74263">
        <ele>287</ele>
        <time>2012-10-07T08:02:39Z</time>
      </trkpt>
      <trkpt lat="45.5643" lon="4.74263">
        <ele>287</ele>
        <time>2012-10-07T08:02:41Z</time>
      </trkpt>
      <trkpt lat="45.56428" lon="4.74263">
        <ele>287</ele>
        <time>2012-10-07T08:02:43Z</time>
      </trkpt>
      <trkpt lat="45.56426" lon="4.74263">
        <ele>287</ele>
        <time>2012-10-07T08:02:45Z</time>
      </trkpt>
      <trkpt lat="45.56424" lon="4.74263">
        <ele>287</ele>
        <time>2012-10-07T08:02:47Z</time>
      </trkpt>
      <trkpt lat="45.56422" lon="4.74264">
        <ele>287</ele>
        <time>2012-10-07T08:02:49Z</time>
      </trkpt>
      <trkpt lat="45.56419" lon="4.74264">
        <ele>287</ele>
        <time>2012-10-07T08:02:52Z</time>
      </trkpt>
      <trkpt lat="45.56417" lon="4.74265">
        <ele>287</ele>
        <time>2012-10-07T08:02:54Z</time>
      </trkpt>
      <trkpt lat="45.56415" lon="4.74265">
        <ele>287</ele>
        <time>2012-10-07T08:02:56Z</time>
      </trkpt>
      <trkpt lat="45.56413" lon="4.74264">
        <ele>287</ele>
        <time>2012-10-07T08:02:58Z</time>
      </trkpt>
      <trkpt lat="45.56409" lon="4.74264">
        <ele>287</ele>
        <time>2012-10-07T08:03:00Z</time>
      </trkpt>
      <trkpt lat="45.56408" lon="4.74264">
        <ele>287</ele>
        <time>2012-10-07T08:03:02Z</time>
      </trkpt>
      <trkpt lat="45.56406" lon="4.74264">
        <ele>287</ele>
        <time>2012-10-07T08:03:04Z</time>
      </trkpt>
      <trkpt lat="45.56403" lon="4.74263">
        <ele>286</ele>
        <time>2012-10-07T08:03:06Z</time>
      </trkpt>
      <trkpt lat="45.56401" lon="4.74263">
        <ele>287</ele>
        <time>2012-10-07T08:03:08Z</time>
      </trkpt>
      <trkpt lat="45.56399" lon="4.74263">
        <ele>287</ele>
        <time>2012-10-07T08:03:10Z</time>
      </trkpt>
      <trkpt lat="45.56396" lon="4.74262">
        <ele>287</ele>
        <time>2012-10-07T08:03:12Z</time>
      </trkpt>
      <trkpt lat="45.56395" lon="4.74262">
        <ele>288</ele>
        <time>2012-10-07T08:03:14Z</time>
      </trkpt>
      <trkpt lat="45.56392" lon="4.74262">
        <ele>288</ele>
        <time>2012-10-07T08:03:17Z</time>
      </trkpt>
      <trkpt lat="45.5639" lon="4.74262">
        <ele>288</ele>
        <time>2012-10-07T08:03:19Z</time>
      </trkpt>
      <trkpt lat="45.56388" lon="4.74261">
        <ele>288</ele>
        <time>2012-10-07T08:03:21Z</time>
      </trkpt>
      <trkpt lat="45.56386" lon="4.7426">
        <ele>288</ele>
        <time>2012-10-07T08:03:23Z</time>
      </trkpt>
      <trkpt lat="45.56384" lon="4.74259">
        <ele>288</ele>
        <time>2012-10-07T08:03:25Z</time>
      </trkpt>
      <trkpt lat="45.56382" lon="4.74259">
        <ele>288</ele>
        <time>2012-10-07T08:03:27Z</time>
      </trkpt>
      <trkpt lat="45.5638" lon="4.74259">
        <ele>288</ele>
        <time>2012-10-07T08:03:29Z</time>
      </trkpt>
      <trkpt lat="45.56378" lon="4.74259">
        <ele>288</ele>
        <time>2012-10-07T08:03:31Z</time>
      </trkpt>
      <trkpt lat="45.56377" lon="4.74261">
        <ele>288</ele>
        <time>2012-10-07T08:03:33Z</time>
      </trkpt>
      <trkpt lat="45.56376" lon="4.74264">
        <ele>288</ele>
        <time>2012-10-07T08:03:36Z</time>
      </trkpt>
      <trkpt lat="45.56376" lon="4.74267">
        <ele>287</ele>
        <time>2012-10-07T08:03:38Z</time>
      </trkpt>
      <trkpt lat="45.56376" lon="4.74269">
        <ele>287</ele>
        <time>2012-10-07T08:03:40Z</time>
      </trkpt>
      <trkpt lat="45.56377" lon="4.74271">
        <ele>287</ele>
        <time>2012-10-07T08:03:42Z</time>
      </trkpt>
      <trkpt lat="45.56377" lon="4.74273">
        <ele>287</ele>
        <time>2012-10-07T08:03:44Z</time>
      </trkpt>
      <trkpt lat="45.56377" lon="4.74275">
        <ele>288</ele>
        <time>2012-10-07T08:03:46Z</time>
      </trkpt>
      <trkpt lat="45.56377" lon="4.74278">
        <ele>287</ele>
        <time>2012-10-07T08:03:48Z</time>
      </trkpt>
      <trkpt lat="45.56377" lon="4.74281">
        <ele>288</ele>
        <time>2012-10-07T08:03:51Z</time>
      </trkpt>
      <trkpt lat="45.56377" lon="4.74284">
        <ele>288</ele>
        <time>2012-10-07T08:03:53Z</time>
      </trkpt>
      <trkpt lat="45.56377" lon="4.74286">
        <ele>288</ele>
        <time>2012-10-07T08:03:55Z</time>
      </trkpt>
      <trkpt lat="45.56377" lon="4.74289">
        <ele>288</ele>
        <time>2012-10-07T08:03:57Z</time>
      </trkpt>
      <trkpt lat="45.56377" lon="4.74292">
        <ele>288</ele>
        <time>2012-10-07T08:03:59Z</time>
      </trkpt>
      <trkpt lat="45.56377" lon="4.74297">
        <ele>288</ele>
        <time>2012-10-07T08:04:01Z</time>
      </trkpt>
      <trkpt lat="45.56377" lon="4.743">
        <ele>288</ele>
        <time>2012-10-07T08:04:03Z</time>
      </trkpt>
      <trkpt lat="45.56377" lon="4.74303">
        <ele>288</ele>
        <time>2012-10-07T08:04:05Z</time>
      </trkpt>
      <trkpt lat="45.56377" lon="4.74306">
        <ele>288</ele>
        <time>2012-10-07T08:04:07Z</time>
      </trkpt>
      <trkpt lat="45.56377" lon="4.74309">
        <ele>288</ele>
        <time>2012-10-07T08:04:10Z</time>
      </trkpt>
      <trkpt lat="45.56377" lon="4.74312">
        <ele>288</ele>
        <time>2012-10-07T08:04:12Z</time>
      </trkpt>
      <trkpt lat="45.56377" lon="4.74316">
        <ele>288</ele>
        <time>2012-10-07T08:04:14Z</time>
      </trkpt>
      <trkpt lat="45.56377" lon="4.74319">
        <ele>288</ele>
        <time>2012-10-07T08:04:16Z</time>
      </trkpt>
      <trkpt lat="45.56377" lon="4.74322">
        <ele>288</ele>
        <time>2012-10-07T08:04:18Z</time>
      </trkpt>
      <trkpt lat="45.56376" lon="4.74325">
        <ele>288</ele>
        <time>2012-10-07T08:04:20Z</time>
      </trkpt>
      <trkpt lat="45.56374" lon="4.74328">
        <ele>288</ele>
        <time>2012-10-07T08:04:22Z</time>
      </trkpt>
      <trkpt lat="45.56373" lon="4.7433">
        <ele>288</ele>
        <time>2012-10-07T08:04:24Z</time>
      </trkpt>
      <trkpt lat="45.56372" lon="4.74333">
        <ele>288</ele>
        <time>2012-10-07T08:04:26Z</time>
      </trkpt>
      <trkpt lat="45.56371" lon="4.74335">
        <ele>287</ele>
        <time>2012-10-07T08:04:28Z</time>
      </trkpt>
      <trkpt lat="45.56369" lon="4.74337">
        <ele>288</ele>
        <time>2012-10-07T08:04:30Z</time>
      </trkpt>
      <trkpt lat="45.56367" lon="4.74339">
        <ele>288</ele>
        <time>2012-10-07T08:04:32Z</time>
      </trkpt>
      <trkpt lat="45.56365" lon="4.74341">
        <ele>288</ele>
        <time>2012-10-07T08:04:34Z</time>
      </trkpt>
      <trkpt lat="45.56364" lon="4.74343">
        <ele>289</ele>
        <time>2012-10-07T08:04:36Z</time>
      </trkpt>
      <trkpt lat="45.56361" lon="4.74346">
        <ele>288</ele>
        <time>2012-10-07T08:04:38Z</time>
      </trkpt>
      <trkpt lat="45.56359" lon="4.74349">
        <ele>288</ele>
        <time>2012-10-07T08:04:40Z</time>
      </trkpt>
      <trkpt lat="45.56358" lon="4.74351">
        <ele>288</ele>
        <time>2012-10-07T08:04:42Z</time>
      </trkpt>
      <trkpt lat="45.56357" lon="4.74353">
        <ele>288</ele>
        <time>2012-10-07T08:04:44Z</time>
      </trkpt>
      <trkpt lat="45.56355" lon="4.74355">
        <ele>288</ele>
        <time>2012-10-07T08:04:46Z</time>
      </trkpt>
      <trkpt lat="45.56354" lon="4.74356">
        <ele>289</ele>
        <time>2012-10-07T08:04:49Z</time>
      </trkpt>
      <trkpt lat="45.56352" lon="4.74358">
        <ele>289</ele>
        <time>2012-10-07T08:04:51Z</time>
      </trkpt>
      <trkpt lat="45.56351" lon="4.7436">
        <ele>289</ele>
        <time>2012-10-07T08:04:53Z</time>
      </trkpt>
      <trkpt lat="45.56349" lon="4.74362">
        <ele>289</ele>
        <time>2012-10-07T08:04:55Z</time>
      </trkpt>
      <trkpt lat="45.56348" lon="4.74364">
        <ele>289</ele>
        <time>2012-10-07T08:04:57Z</time>
      </trkpt>
      <trkpt lat="45.56346" lon="4.74365">
        <ele>289</ele>
        <time>2012-10-07T08:04:59Z</time>
      </trkpt>
      <trkpt lat="45.56345" lon="4.74367">
        <ele>289</ele>
        <time>2012-10-07T08:05:01Z</time>
      </trkpt>
      <trkpt lat="45.56344" lon="4.74369">
        <ele>289</ele>
        <time>2012-10-07T08:05:03Z</time>
      </trkpt>
      <trkpt lat="45.56343" lon="4.7437">
        <ele>289</ele>
        <time>2012-10-07T08:05:05Z</time>
      </trkpt>
      <trkpt lat="45.56341" lon="4.74373">
        <ele>289</ele>
        <time>2012-10-07T08:05:07Z</time>
      </trkpt>
      <trkpt lat="45.56339" lon="4.74374">
        <ele>290</ele>
        <time>2012-10-07T08:05:09Z</time>
      </trkpt>
      <trkpt lat="45.56338" lon="4.74376">
        <ele>290</ele>
        <time>2012-10-07T08:05:11Z</time>
      </trkpt>
      <trkpt lat="45.56336" lon="4.74378">
        <ele>290</ele>
        <time>2012-10-07T08:05:14Z</time>
      </trkpt>
      <trkpt lat="45.56335" lon="4.74379">
        <ele>290</ele>
        <time>2012-10-07T08:05:16Z</time>
      </trkpt>
      <trkpt lat="45.56333" lon="4.7438">
        <ele>290</ele>
        <time>2012-10-07T08:05:18Z</time>
      </trkpt>
      <trkpt lat="45.56331" lon="4.74382">
        <ele>290</ele>
        <time>2012-10-07T08:05:20Z</time>
      </trkpt>
      <trkpt lat="45.56329" lon="4.74383">
        <ele>290</ele>
        <time>2012-10-07T08:05:22Z</time>
      </trkpt>
      <trkpt lat="45.56326" lon="4.74385">
        <ele>290</ele>
        <time>2012-10-07T08:05:24Z</time>
      </trkpt>
      <trkpt lat="45.56324" lon="4.74387">
        <ele>290</ele>
        <time>2012-10-07T08:05:26Z</time>
      </trkpt>
      <trkpt lat="45.56323" lon="4.74388">
        <ele>290</ele>
        <time>2012-10-07T08:05:28Z</time>
      </trkpt>
      <trkpt lat="45.56321" lon="4.74389">
        <ele>290</ele>
        <time>2012-10-07T08:05:30Z</time>
      </trkpt>
      <trkpt lat="45.56319" lon="4.74391">
        <ele>290</ele>
        <time>2012-10-07T08:05:32Z</time>
      </trkpt>
      <trkpt lat="45.56317" lon="4.74392">
        <ele>291</ele>
        <time>2012-10-07T08:05:34Z</time>
      </trkpt>
      <trkpt lat="45.56315" lon="4.74394">
        <ele>291</ele>
        <time>2012-10-07T08:05:37Z</time>
      </trkpt>
      <trkpt lat="45.56313" lon="4.74395">
        <ele>291</ele>
        <time>2012-10-07T08:05:39Z</time>
      </trkpt>
      <trkpt lat="45.56311" lon="4.74397">
        <ele>291</ele>
        <time>2012-10-07T08:05:41Z</time>
      </trkpt>
      <trkpt lat="45.56309" lon="4.74398">
        <ele>291</ele>
        <time>2012-10-07T08:05:43Z</time>
      </trkpt>
      <trkpt lat="45.56308" lon="4.74399">
        <ele>291</ele>
        <time>2012-10-07T08:05:45Z</time>
      </trkpt>
      <trkpt lat="45.56306" lon="4.744">
        <ele>291</ele>
        <time>2012-10-07T08:05:47Z</time>
      </trkpt>
      <trkpt lat="45.56304" lon="4.74401">
        <ele>291</ele>
        <time>2012-10-07T08:05:49Z</time>
      </trkpt>
      <trkpt lat="45.56301" lon="4.74402">
        <ele>292</ele>
        <time>2012-10-07T08:05:51Z</time>
      </trkpt>
      <trkpt lat="45.563" lon="4.74404">
        <ele>292</ele>
        <time>2012-10-07T08:05:53Z</time>
      </trkpt>
      <trkpt lat="45.56298" lon="4.74405">
        <ele>292</ele>
        <time>2012-10-07T08:05:55Z</time>
      </trkpt>
      <trkpt lat="45.56295" lon="4.74407">
        <ele>292</ele>
        <time>2012-10-07T08:05:57Z</time>
      </trkpt>
      <trkpt lat="45.56293" lon="4.74408">
        <ele>291</ele>
        <time>2012-10-07T08:05:59Z</time>
      </trkpt>
      <trkpt lat="45.56292" lon="4.74409">
        <ele>291</ele>
        <time>2012-10-07T08:06:02Z</time>
      </trkpt>
      <trkpt lat="45.5629" lon="4.7441">
        <ele>291</ele>
        <time>2012-10-07T08:06:04Z</time>
      </trkpt>
      <trkpt lat="45.56288" lon="4.74411">
        <ele>292</ele>
        <time>2012-10-07T08:06:06Z</time>
      </trkpt>
      <trkpt lat="45.56287" lon="4.74412">
        <ele>292</ele>
        <time>2012-10-07T08:06:08Z</time>
      </trkpt>
      <trkpt lat="45.56285" lon="4.74413">
        <ele>292</ele>
        <time>2012-10-07T08:06:10Z</time>
      </trkpt>
      <trkpt lat="45.56284" lon="4.74414">
        <ele>292</ele>
        <time>2012-10-07T08:06:12Z</time>
      </trkpt>
      <trkpt lat="45.56284" lon="4.74414">
        <ele>292</ele>
        <time>2012-10-07T08:06:14Z</time>
      </trkpt>
      <trkpt lat="45.56282" lon="4.74414">
        <ele>292</ele>
        <time>2012-10-07T08:06:16Z</time>
      </trkpt>
      <trkpt lat="45.5628" lon="4.74415">
        <ele>292</ele>
        <time>2012-10-07T08:06:18Z</time>
      </trkpt>
      <trkpt lat="45.56278" lon="4.74416">
        <ele>292</ele>
        <time>2012-10-07T08:06:20Z</time>
      </trkpt>
      <trkpt lat="45.56276" lon="4.74417">
        <ele>292</ele>
        <time>2012-10-07T08:06:22Z</time>
      </trkpt>
      <trkpt lat="45.56273" lon="4.74418">
        <ele>292</ele>
        <time>2012-10-07T08:06:24Z</time>
      </trkpt>
      <trkpt lat="45.56272" lon="4.74418">
        <ele>292</ele>
        <time>2012-10-07T08:06:26Z</time>
      </trkpt>
      <trkpt lat="45.5627" lon="4.74419">
        <ele>292</ele>
        <time>2012-10-07T08:06:28Z</time>
      </trkpt>
      <trkpt lat="45.56268" lon="4.7442">
        <ele>292</ele>
        <time>2012-10-07T08:06:31Z</time>
      </trkpt>
      <trkpt lat="45.56266" lon="4.7442">
        <ele>293</ele>
        <time>2012-10-07T08:06:33Z</time>
      </trkpt>
      <trkpt lat="45.56265" lon="4.74421">
        <ele>293</ele>
        <time>2012-10-07T08:06:35Z</time>
      </trkpt>
      <trkpt lat="45.56263" lon="4.74422">
        <ele>293</ele>
        <time>2012-10-07T08:06:37Z</time>
      </trkpt>
      <trkpt lat="45.56261" lon="4.74423">
        <ele>293</ele>
        <time>2012-10-07T08:06:39Z</time>
      </trkpt>
      <trkpt lat="45.5626" lon="4.74423">
        <ele>293</ele>
        <time>2012-10-07T08:06:41Z</time>
      </trkpt>
      <trkpt lat="45.56258" lon="4.74424">
        <ele>293</ele>
        <time>2012-10-07T08:06:43Z</time>
      </trkpt>
      <trkpt lat="45.56256" lon="4.74425">
        <ele>293</ele>
        <time>2012-10-07T08:06:45Z</time>
      </trkpt>
      <trkpt lat="45.56255" lon="4.74426">
        <ele>294</ele>
        <time>2012-10-07T08:06:47Z</time>
      </trkpt>
      <trkpt lat="45.56253" lon="4.74427">
        <ele>294</ele>
        <time>2012-10-07T08:06:49Z</time>
      </trkpt>
      <trkpt lat="45.5625" lon="4.74428">
        <ele>294</ele>
        <time>2012-10-07T08:06:51Z</time>
      </trkpt>
      <trkpt lat="45.56247" lon="4.7443">
        <ele>294</ele>
        <time>2012-10-07T08:06:53Z</time>
      </trkpt>
      <trkpt lat="45.56245" lon="4.7443">
        <ele>294</ele>
        <time>2012-10-07T08:06:56Z</time>
      </trkpt>
      <trkpt lat="45.56243" lon="4.7443">
        <ele>294</ele>
        <time>2012-10-07T08:06:58Z</time>
      </trkpt>
      <trkpt lat="45.56241" lon="4.74431">
        <ele>294</ele>
        <time>2012-10-07T08:07:00Z</time>
      </trkpt>
      <trkpt lat="45.56239" lon="4.74432">
        <ele>294</ele>
        <time>2012-10-07T08:07:02Z</time>
      </trkpt>
      <trkpt lat="45.56237" lon="4.74433">
        <ele>294</ele>
        <time>2012-10-07T08:07:04Z</time>
      </trkpt>
      <trkpt lat="45.56234" lon="4.74434">
        <ele>294</ele>
        <time>2012-10-07T08:07:06Z</time>
      </trkpt>
      <trkpt lat="45.56232" lon="4.74436">
        <ele>295</ele>
        <time>2012-10-07T08:07:08Z</time>
      </trkpt>
      <trkpt lat="45.5623" lon="4.74436">
        <ele>295</ele>
        <time>2012-10-07T08:07:11Z</time>
      </trkpt>
      <trkpt lat="45.56228" lon="4.74437">
        <ele>295</ele>
        <time>2012-10-07T08:07:13Z</time>
      </trkpt>
      <trkpt lat="45.56226" lon="4.74438">
        <ele>295</ele>
        <time>2012-10-07T08:07:15Z</time>
      </trkpt>
      <trkpt lat="45.56224" lon="4.74439">
        <ele>295</ele>
        <time>2012-10-07T08:07:17Z</time>
      </trkpt>
      <trkpt lat="45.56222" lon="4.7444">
        <ele>295</ele>
        <time>2012-10-07T08:07:19Z</time>
      </trkpt>
      <trkpt lat="45.56219" lon="4.74442">
        <ele>295</ele>
        <time>2012-10-07T08:07:21Z</time>
      </trkpt>
      <trkpt lat="45.56218" lon="4.74443">
        <ele>295</ele>
        <time>2012-10-07T08:07:23Z</time>
      </trkpt>
      <trkpt lat="45.56216" lon="4.74444">
        <ele>296</ele>
        <time>2012-10-07T08:07:25Z</time>
      </trkpt>
      <trkpt lat="45.56214" lon="4.74445">
        <ele>296</ele>
        <time>2012-10-07T08:07:27Z</time>
      </trkpt>
      <trkpt lat="45.56212" lon="4.74445">
        <ele>296</ele>
        <time>2012-10-07T08:07:30Z</time>
      </trkpt>
      <trkpt lat="45.5621" lon="4.74445">
        <ele>296</ele>
        <time>2012-10-07T08:07:32Z</time>
      </trkpt>
      <trkpt lat="45.56208" lon="4.74445">
        <ele>296</ele>
        <time>2012-10-07T08:07:34Z</time>
      </trkpt>
      <trkpt lat="45.56206" lon="4.74446">
        <ele>296</ele>
        <time>2012-10-07T08:07:36Z</time>
      </trkpt>
      <trkpt lat="45.56204" lon="4.74445">
        <ele>296</ele>
        <time>2012-10-07T08:07:38Z</time>
      </trkpt>
      <trkpt lat="45.56202" lon="4.74446">
        <ele>296</ele>
        <time>2012-10-07T08:07:40Z</time>
      </trkpt>
      <trkpt lat="45.56199" lon="4.74448">
        <ele>296</ele>
        <time>2012-10-07T08:07:42Z</time>
      </trkpt>
      <trkpt lat="45.56197" lon="4.7445">
        <ele>296</ele>
        <time>2012-10-07T08:07:44Z</time>
      </trkpt>
      <trkpt lat="45.56195" lon="4.74451">
        <ele>296</ele>
        <time>2012-10-07T08:07:46Z</time>
      </trkpt>
      <trkpt lat="45.56193" lon="4.74453">
        <ele>296</ele>
        <time>2012-10-07T08:07:48Z</time>
      </trkpt>
      <trkpt lat="45.56192" lon="4.74455">
        <ele>296</ele>
        <time>2012-10-07T08:07:50Z</time>
      </trkpt>
      <trkpt lat="45.56189" lon="4.74457">
        <ele>297</ele>
        <time>2012-10-07T08:07:52Z</time>
      </trkpt>
      <trkpt lat="45.56187" lon="4.74459">
        <ele>297</ele>
        <time>2012-10-07T08:07:55Z</time>
      </trkpt>
      <trkpt lat="45.56184" lon="4.74461">
        <ele>297</ele>
        <time>2012-10-07T08:07:57Z</time>
      </trkpt>
      <trkpt lat="45.56182" lon="4.74462">
        <ele>297</ele>
        <time>2012-10-07T08:07:59Z</time>
      </trkpt>
      <trkpt lat="45.56179" lon="4.74465">
        <ele>297</ele>
        <time>2012-10-07T08:08:01Z</time>
      </trkpt>
      <trkpt lat="45.56177" lon="4.74466">
        <ele>297</ele>
        <time>2012-10-07T08:08:03Z</time>
      </trkpt>
      <trkpt lat="45.56175" lon="4.74467">
        <ele>297</ele>
        <time>2012-10-07T08:08:05Z</time>
      </trkpt>
      <trkpt lat="45.56173" lon="4.74468">
        <ele>297</ele>
        <time>2012-10-07T08:08:07Z</time>
      </trkpt>
      <trkpt lat="45.5617" lon="4.74469">
        <ele>297</ele>
        <time>2012-10-07T08:08:09Z</time>
      </trkpt>
      <trkpt lat="45.56168" lon="4.7447">
        <ele>297</ele>
        <time>2012-10-07T08:08:12Z</time>
      </trkpt>
      <trkpt lat="45.56166" lon="4.74472">
        <ele>297</ele>
        <time>2012-10-07T08:08:14Z</time>
      </trkpt>
      <trkpt lat="45.56164" lon="4.74473">
        <ele>297</ele>
        <time>2012-10-07T08:08:16Z</time>
      </trkpt>
      <trkpt lat="45.56162" lon="4.74473">
        <ele>297</ele>
        <time>2012-10-07T08:08:18Z</time>
      </trkpt>
      <trkpt lat="45.5616" lon="4.74474">
        <ele>298</ele>
        <time>2012-10-07T08:08:20Z</time>
      </trkpt>
      <trkpt lat="45.56157" lon="4.74476">
        <ele>298</ele>
        <time>2012-10-07T08:08:22Z</time>
      </trkpt>
      <trkpt lat="45.56155" lon="4.74477">
        <ele>298</ele>
        <time>2012-10-07T08:08:24Z</time>
      </trkpt>
      <trkpt lat="45.56153" lon="4.74478">
        <ele>298</ele>
        <time>2012-10-07T08:08:26Z</time>
      </trkpt>
      <trkpt lat="45.56151" lon="4.74479">
        <ele>298</ele>
        <time>2012-10-07T08:08:28Z</time>
      </trkpt>
      <trkpt lat="45.56149" lon="4.7448">
        <ele>298</ele>
        <time>2012-10-07T08:08:30Z</time>
      </trkpt>
      <trkpt lat="45.56148" lon="4.74482">
        <ele>298</ele>
        <time>2012-10-07T08:08:33Z</time>
      </trkpt>
      <trkpt lat="45.56146" lon="4.74483">
        <ele>298</ele>
        <time>2012-10-07T08:08:35Z</time>
      </trkpt>
      <trkpt lat="45.56144" lon="4.74484">
        <ele>298</ele>
        <time>2012-10-07T08:08:37Z</time>
      </trkpt>
      <trkpt lat="45.56142" lon="4.74485">
        <ele>298</ele>
        <time>2012-10-07T08:08:39Z</time>
      </trkpt>
      <trkpt lat="45.56141" lon="4.74486">
        <ele>298</ele>
        <time>2012-10-07T08:08:41Z</time>
      </trkpt>
      <trkpt lat="45.56139" lon="4.74487">
        <ele>299</ele>
        <time>2012-10-07T08:08:43Z</time>
      </trkpt>
      <trkpt lat="45.56137" lon="4.74488">
        <ele>299</ele>
        <time>2012-10-07T08:08:45Z</time>
      </trkpt>
      <trkpt lat="45.56135" lon="4.74489">
        <ele>299</ele>
        <time>2012-10-07T08:08:47Z</time>
      </trkpt>
      <trkpt lat="45.56134" lon="4.74491">
        <ele>299</ele>
        <time>2012-10-07T08:08:49Z</time>
      </trkpt>
      <trkpt lat="45.56131" lon="4.74492">
        <ele>299</ele>
        <time>2012-10-07T08:08:51Z</time>
      </trkpt>
      <trkpt lat="45.5613" lon="4.74493">
        <ele>299</ele>
        <time>2012-10-07T08:08:53Z</time>
      </trkpt>
      <trkpt lat="45.56128" lon="4.74495">
        <ele>299</ele>
        <time>2012-10-07T08:08:55Z</time>
      </trkpt>
      <trkpt lat="45.56127" lon="4.74496">
        <ele>299</ele>
        <time>2012-10-07T08:08:58Z</time>
      </trkpt>
      <trkpt lat="45.56124" lon="4.74497">
        <ele>299</ele>
        <time>2012-10-07T08:09:00Z</time>
      </trkpt>
      <trkpt lat="45.56122" lon="4.74498">
        <ele>299</ele>
        <time>2012-10-07T08:09:02Z</time>
      </trkpt>
      <trkpt lat="45.5612" lon="4.74499">
        <ele>299</ele>
        <time>2012-10-07T08:09:04Z</time>
      </trkpt>
      <trkpt lat="45.56118" lon="4.745">
        <ele>299</ele>
        <time>2012-10-07T08:09:06Z</time>
      </trkpt>
      <trkpt lat="45.56116" lon="4.74501">
        <ele>300</ele>
        <time>2012-10-07T08:09:08Z</time>
      </trkpt>
      <trkpt lat="45.56115" lon="4.74502">
        <ele>300</ele>
        <time>2012-10-07T08:09:10Z</time>
      </trkpt>
      <trkpt lat="45.56113" lon="4.74503">
        <ele>300</ele>
        <time>2012-10-07T08:09:12Z</time>
      </trkpt>
      <trkpt lat="45.56114" lon="4.74502">
        <ele>300</ele>
        <time>2012-10-07T08:09:14Z</time>
      </trkpt>
      <trkpt lat="45.56113" lon="4.74499">
        <ele>300</ele>
        <time>2012-10-07T08:09:16Z</time>
      </trkpt>
      <trkpt lat="45.56113" lon="4.74496">
        <ele>300</ele>
        <time>2012-10-07T08:09:18Z</time>
      </trkpt>
      <trkpt lat="45.56111" lon="4.74495">
        <ele>300</ele>
        <time>2012-10-07T08:09:20Z</time>
      </trkpt>
      <trkpt lat="45.56108" lon="4.74496">
        <ele>301</ele>
        <time>2012-10-07T08:09:22Z</time>
      </trkpt>
      <trkpt lat="45.56105" lon="4.74496">
        <ele>301</ele>
        <time>2012-10-07T08:09:24Z</time>
      </trkpt>
      <trkpt lat="45.56104" lon="4.74496">
        <ele>301</ele>
        <time>2012-10-07T08:09:26Z</time>
      </trkpt>
      <trkpt lat="45.56103" lon="4.74496">
        <ele>301</ele>
        <time>2012-10-07T08:09:28Z</time>
      </trkpt>
      <trkpt lat="45.56102" lon="4.74496">
        <ele>301</ele>
        <time>2012-10-07T08:09:30Z</time>
      </trkpt>
      <trkpt lat="45.56101" lon="4.74496">
        <ele>301</ele>
        <time>2012-10-07T08:09:33Z</time>
      </trkpt>
      <trkpt lat="45.561" lon="4.74496">
        <ele>301</ele>
        <time>2012-10-07T08:09:35Z</time>
      </trkpt>
      <trkpt lat="45.56098" lon="4.74496">
        <ele>301</ele>
        <time>2012-10-07T08:09:37Z</time>
      </trkpt>
      <trkpt lat="45.56097" lon="4.74496">
        <ele>301</ele>
        <time>2012-10-07T08:09:39Z</time>
      </trkpt>
      <trkpt lat="45.56095" lon="4.74497">
        <ele>302</ele>
        <time>2012-10-07T08:09:41Z</time>
      </trkpt>
      <trkpt lat="45.56094" lon="4.74497">
        <ele>302</ele>
        <time>2012-10-07T08:09:43Z</time>
      </trkpt>
      <trkpt lat="45.56092" lon="4.74496">
        <ele>302</ele>
        <time>2012-10-07T08:09:45Z</time>
      </trkpt>
      <trkpt lat="45.56091" lon="4.74495">
        <ele>302</ele>
        <time>2012-10-07T08:09:47Z</time>
      </trkpt>
      <trkpt lat="45.56089" lon="4.74495">
        <ele>302</ele>
        <time>2012-10-07T08:09:49Z</time>
      </trkpt>
      <trkpt lat="45.56087" lon="4.74494">
        <ele>302</ele>
        <time>2012-10-07T08:09:51Z</time>
      </trkpt>
      <trkpt lat="45.56086" lon="4.74494">
        <ele>302</ele>
        <time>2012-10-07T08:09:53Z</time>
      </trkpt>
      <trkpt lat="45.56084" lon="4.74494">
        <ele>302</ele>
        <time>2012-10-07T08:09:55Z</time>
      </trkpt>
      <trkpt lat="45.56083" lon="4.74494">
        <ele>302</ele>
        <time>2012-10-07T08:09:58Z</time>
      </trkpt>
      <trkpt lat="45.56082" lon="4.74495">
        <ele>303</ele>
        <time>2012-10-07T08:10:00Z</time>
      </trkpt>
      <trkpt lat="45.56081" lon="4.74496">
        <ele>303</ele>
        <time>2012-10-07T08:10:02Z</time>
      </trkpt>
      <trkpt lat="45.5608" lon="4.74498">
        <ele>303</ele>
        <time>2012-10-07T08:10:04Z</time>
      </trkpt>
      <trkpt lat="45.56079" lon="4.745">
        <ele>303</ele>
        <time>2012-10-07T08:10:06Z</time>
      </trkpt>
      <trkpt lat="45.56078" lon="4.74501">
        <ele>303</ele>
        <time>2012-10-07T08:10:08Z</time>
      </trkpt>
      <trkpt lat="45.56078" lon="4.74501">
        <ele>303</ele>
        <time>2012-10-07T08:10:10Z</time>
      </trkpt>
      <trkpt lat="45.56078" lon="4.74501">
        <ele>303</ele>
        <time>2012-10-07T08:10:12Z</time>
      </trkpt>
      <trkpt lat="45.56078" lon="4.74502">
        <ele>303</ele>
        <time>2012-10-07T08:10:14Z</time>
      </trkpt>
      <trkpt lat="45.56077" lon="4.74503">
        <ele>303</ele>
        <time>2012-10-07T08:10:16Z</time>
      </trkpt>
      <trkpt lat="45.56077" lon="4.74505">
        <ele>303</ele>
        <time>2012-10-07T08:10:18Z</time>
      </trkpt>
      <trkpt lat="45.56076" lon="4.74508">
        <ele>303</ele>
        <time>2012-10-07T08:10:20Z</time>
      </trkpt>
      <trkpt lat="45.56076" lon="4.7451">
        <ele>303</ele>
        <time>2012-10-07T08:10:22Z</time>
      </trkpt>
      <trkpt lat="45.56076" lon="4.74511">
        <ele>303</ele>
        <time>2012-10-07T08:10:24Z</time>
      </trkpt>
      <trkpt lat="45.56076" lon="4.74512">
        <ele>302</ele>
        <time>2012-10-07T08:10:26Z</time>
      </trkpt>
      <trkpt lat="45.56076" lon="4.74512">
        <ele>303</ele>
        <time>2012-10-07T08:10:28Z</time>
      </trkpt>
      <trkpt lat="45.56076" lon="4.74512">
        <ele>303</ele>
        <time>2012-10-07T08:10:30Z</time>
      </trkpt>
      <trkpt lat="45.56076" lon="4.74512">
        <ele>303</ele>
        <time>2012-10-07T08:10:32Z</time>
      </trkpt>
      <trkpt lat="45.56076" lon="4.74512">
        <ele>303</ele>
        <time>2012-10-07T08:10:34Z</time>
      </trkpt>
      <trkpt lat="45.56076" lon="4.74512">
        <ele>303</ele>
        <time>2012-10-07T08:10:36Z</time>
      </trkpt>
      <trkpt lat="45.56076" lon="4.74512">
        <ele>303</ele>
        <time>2012-10-07T08:10:39Z</time>
      </trkpt>
      <trkpt lat="45.56076" lon="4.74513">
        <ele>303</ele>
        <time>2012-10-07T08:10:41Z</time>
      </trkpt>
      <trkpt lat="45.56075" lon="4.74514">
        <ele>303</ele>
        <time>2012-10-07T08:10:43Z</time>
      </trkpt>
      <trkpt lat="45.56074" lon="4.74516">
        <ele>303</ele>
        <time>2012-10-07T08:10:45Z</time>
      </trkpt>
      <trkpt lat="45.56074" lon="4.74518">
        <ele>303</ele>
        <time>2012-10-07T08:10:47Z</time>
      </trkpt>
      <trkpt lat="45.56073" lon="4.7452">
        <ele>303</ele>
        <time>2012-10-07T08:10:49Z</time>
      </trkpt>
      <trkpt lat="45.56072" lon="4.74522">
        <ele>303</ele>
        <time>2012-10-07T08:10:51Z</time>
      </trkpt>
      <trkpt lat="45.56072" lon="4.74523">
        <ele>303</ele>
        <time>2012-10-07T08:10:53Z</time>
      </trkpt>
      <trkpt lat="45.56073" lon="4.74521">
        <ele>303</ele>
        <time>2012-10-07T08:10:55Z</time>
      </trkpt>
      <trkpt lat="45.56073" lon="4.7452">
        <ele>303</ele>
        <time>2012-10-07T08:10:57Z</time>
      </trkpt>
      <trkpt lat="45.56073" lon="4.74519">
        <ele>303</ele>
        <time>2012-10-07T08:10:59Z</time>
      </trkpt>
      <trkpt lat="45.56073" lon="4.7452">
        <ele>303</ele>
        <time>2012-10-07T08:11:01Z</time>
      </trkpt>
      <trkpt lat="45.56073" lon="4.74521">
        <ele>303</ele>
        <time>2012-10-07T08:11:03Z</time>
      </trkpt>
      <trkpt lat="45.56073" lon="4.74521">
        <ele>303</ele>
        <time>2012-10-07T08:11:05Z</time>
      </trkpt>
      <trkpt lat="45.56074" lon="4.74521">
        <ele>303</ele>
        <time>2012-10-07T08:11:08Z</time>
      </trkpt>
      <trkpt lat="45.56073" lon="4.74521">
        <ele>303</ele>
        <time>2012-10-07T08:11:10Z</time>
      </trkpt>
      <trkpt lat="45.56073" lon="4.74521">
        <ele>303</ele>
        <time>2012-10-07T08:11:12Z</time>
      </trkpt>
      <trkpt lat="45.56074" lon="4.74521">
        <ele>302</ele>
        <time>2012-10-07T08:11:14Z</time>
      </trkpt>
      <trkpt lat="45.56074" lon="4.7452">
        <ele>303</ele>
        <time>2012-10-07T08:11:16Z</time>
      </trkpt>
      <trkpt lat="45.56073" lon="4.7452">
        <ele>303</ele>
        <time>2012-10-07T08:11:18Z</time>
      </trkpt>
      <trkpt lat="45.56073" lon="4.7452">
        <ele>303</ele>
        <time>2012-10-07T08:11:20Z</time>
      </trkpt>
      <trkpt lat="45.56073" lon="4.7452">
        <ele>303</ele>
        <time>2012-10-07T08:11:22Z</time>
      </trkpt>
      <trkpt lat="45.56074" lon="4.7452">
        <ele>303</ele>
        <time>2012-10-07T08:11:24Z</time>
      </trkpt>
      <trkpt lat="45.56073" lon="4.7452">
        <ele>303</ele>
        <time>2012-10-07T08:11:26Z</time>
      </trkpt>
      <trkpt lat="45.56073" lon="4.7452">
        <ele>303</ele>
        <time>2012-10-07T08:11:28Z</time>
      </trkpt>
      <trkpt lat="45.56073" lon="4.74521">
        <ele>303</ele>
        <time>2012-10-07T08:11:30Z</time>
      </trkpt>
      <trkpt lat="45.56074" lon="4.7452">
        <ele>303</ele>
        <time>2012-10-07T08:11:32Z</time>
      </trkpt>
      <trkpt lat="45.56073" lon="4.74519">
        <ele>303</ele>
        <time>2012-10-07T08:11:34Z</time>
      </trkpt>
      <trkpt lat="45.56073" lon="4.74519">
        <ele>303</ele>
        <time>2012-10-07T08:11:36Z</time>
      </trkpt>
      <trkpt lat="45.56073" lon="4.74519">
        <ele>303</ele>
        <time>2012-10-07T08:11:38Z</time>
      </trkpt>
      <trkpt lat="45.56073" lon="4.74519">
        <ele>303</ele>
        <time>2012-10-07T08:11:40Z</time>
      </trkpt>
      <trkpt lat="45.56073" lon="4.74519">
        <ele>303</ele>
        <time>2012-10-07T08:11:42Z</time>
      </trkpt>
      <trkpt lat="45.56073" lon="4.74519">
        <ele>303</ele>
        <time>2012-10-07T08:11:44Z</time>
      </trkpt>
      <trkpt lat="45.56073" lon="4.74519">
        <ele>303</ele>
        <time>2012-10-07T08:11:46Z</time>
      </trkpt>
      <trkpt lat="45.56073" lon="4.74519">
        <ele>303</ele>
        <time>2012-10-07T08:11:48Z</time>
      </trkpt>
      <trkpt lat="45.56073" lon="4.74519">
        <ele>303</ele>
        <time>2012-10-07T08:11:51Z</time>
      </trkpt>
      <trkpt lat="45.56073" lon="4.7452">
        <ele>303</ele>
        <time>2012-10-07T08:11:53Z</time>
      </trkpt>
      <trkpt lat="45.56073" lon="4.74519">
        <ele>303</ele>
        <time>2012-10-07T08:11:55Z</time>
      </trkpt>
      <trkpt lat="45.56073" lon="4.74518">
        <ele>303</ele>
        <time>2012-10-07T08:11:57Z</time>
      </trkpt>
      <trkpt lat="45.56073" lon="4.74518">
        <ele>303</ele>
        <time>2012-10-07T08:11:59Z</time>
      </trkpt>
      <trkpt lat="45.56073" lon="4.74518">
        <ele>303</ele>
        <time>2012-10-07T08:12:01Z</time>
      </trkpt>
      <trkpt lat="45.56073" lon="4.74518">
        <ele>303</ele>
        <time>2012-10-07T08:12:03Z</time>
      </trkpt>
      <trkpt lat="45.56074" lon="4.74518">
        <ele>303</ele>
        <time>2012-10-07T08:12:05Z</time>
      </trkpt>
      <trkpt lat="45.56074" lon="4.74518">
        <ele>303</ele>
        <time>2012-10-07T08:12:07Z</time>
      </trkpt>
      <trkpt lat="45.56074" lon="4.74519">
        <ele>303</ele>
        <time>2012-10-07T08:12:09Z</time>
      </trkpt>
      <trkpt lat="45.56074" lon="4.74519">
        <ele>303</ele>
        <time>2012-10-07T08:12:11Z</time>
      </trkpt>
      <trkpt lat="45.56074" lon="4.74518">
        <ele>303</ele>
        <time>2012-10-07T08:12:13Z</time>
      </trkpt>
      <trkpt lat="45.56074" lon="4.74519">
        <ele>303</ele>
        <time>2012-10-07T08:12:15Z</time>
      </trkpt>
      <trkpt lat="45.56075" lon="4.74519">
        <ele>303</ele>
        <time>2012-10-07T08:12:17Z</time>
      </trkpt>
      <trkpt lat="45.56074" lon="4.7452">
        <ele>303</ele>
        <time>2012-10-07T08:12:19Z</time>
      </trkpt>
      <trkpt lat="45.56074" lon="4.74521">
        <ele>303</ele>
        <time>2012-10-07T08:12:21Z</time>
      </trkpt>
      <trkpt lat="45.56073" lon="4.74523">
        <ele>303</ele>
        <time>2012-10-07T08:12:23Z</time>
      </trkpt>
      <trkpt lat="45.56073" lon="4.74524">
        <ele>303</ele>
        <time>2012-10-07T08:12:25Z</time>
      </trkpt>
      <trkpt lat="45.56072" lon="4.74525">
        <ele>303</ele>
        <time>2012-10-07T08:12:27Z</time>
      </trkpt>
      <trkpt lat="45.56072" lon="4.74527">
        <ele>303</ele>
        <time>2012-10-07T08:12:29Z</time>
      </trkpt>
      <trkpt lat="45.56071" lon="4.74529">
        <ele>303</ele>
        <time>2012-10-07T08:12:31Z</time>
      </trkpt>
      <trkpt lat="45.56071" lon="4.7453">
        <ele>303</ele>
        <time>2012-10-07T08:12:34Z</time>
      </trkpt>
      <trkpt lat="45.56071" lon="4.74531">
        <ele>303</ele>
        <time>2012-10-07T08:12:36Z</time>
      </trkpt>
      <trkpt lat="45.56071" lon="4.74532">
        <ele>303</ele>
        <time>2012-10-07T08:12:38Z</time>
      </trkpt>
      <trkpt lat="45.56071" lon="4.74532">
        <ele>303</ele>
        <time>2012-10-07T08:12:40Z</time>
      </trkpt>
      <trkpt lat="45.56071" lon="4.74532">
        <ele>303</ele>
        <time>2012-10-07T08:12:42Z</time>
      </trkpt>
      <trkpt lat="45.56071" lon="4.74532">
        <ele>303</ele>
        <time>2012-10-07T08:12:44Z</time>
      </trkpt>
      <trkpt lat="45.56071" lon="4.74532">
        <ele>303</ele>
        <time>2012-10-07T08:12:46Z</time>
      </trkpt>
      <trkpt lat="45.56071" lon="4.74532">
        <ele>303</ele>
        <time>2012-10-07T08:12:48Z</time>
      </trkpt>
      <trkpt lat="45.56071" lon="4.74532">
        <ele>303</ele>
        <time>2012-10-07T08:12:50Z</time>
      </trkpt>
      <trkpt lat="45.5607" lon="4.74533">
        <ele>303</ele>
        <time>2012-10-07T08:12:52Z</time>
      </trkpt>
      <trkpt lat="45.5607" lon="4.74535">
        <ele>303</ele>
        <time>2012-10-07T08:12:54Z</time>
      </trkpt>
      <trkpt lat="45.56069" lon="4.74537">
        <ele>304</ele>
        <time>2012-10-07T08:12:56Z</time>
      </trkpt>
      <trkpt lat="45.56068" lon="4.74539">
        <ele>304</ele>
        <time>2012-10-07T08:12:59Z</time>
      </trkpt>
      <trkpt lat="45.56067" lon="4.7454">
        <ele>304</ele>
        <time>2012-10-07T08:13:01Z</time>
      </trkpt>
      <trkpt lat="45.56066" lon="4.74542">
        <ele>303</ele>
        <time>2012-10-07T08:13:03Z</time>
      </trkpt>
      <trkpt lat="45.56065" lon="4.74544">
        <ele>303</ele>
        <time>2012-10-07T08:13:05Z</time>
      </trkpt>
      <trkpt lat="45.56065" lon="4.74546">
        <ele>303</ele>
        <time>2012-10-07T08:13:07Z</time>
      </trkpt>
      <trkpt lat="45.56063" lon="4.74547">
        <ele>303</ele>
        <time>2012-10-07T08:13:09Z</time>
      </trkpt>
      <trkpt lat="45.56062" lon="4.74549">
        <ele>303</ele>
        <time>2012-10-07T08:13:11Z</time>
      </trkpt>
      <trkpt lat="45.56061" lon="4.74551">
        <ele>303</ele>
        <time>2012-10-07T08:13:13Z</time>
      </trkpt>
      <trkpt lat="45.56059" lon="4.74553">
        <ele>303</ele>
        <time>2012-10-07T08:13:15Z</time>
      </trkpt>
      <trkpt lat="45.56057" lon="4.74555">
        <ele>303</ele>
        <time>2012-10-07T08:13:17Z</time>
      </trkpt>
      <trkpt lat="45.56055" lon="4.74557">
        <ele>303</ele>
        <time>2012-10-07T08:13:19Z</time>
      </trkpt>
      <trkpt lat="45.56053" lon="4.74559">
        <ele>303</ele>
        <time>2012-10-07T08:13:21Z</time>
      </trkpt>
      <trkpt lat="45.56052" lon="4.74561">
        <ele>303</ele>
        <time>2012-10-07T08:13:23Z</time>
      </trkpt>
      <trkpt lat="45.5605" lon="4.74563">
        <ele>302</ele>
        <time>2012-10-07T08:13:26Z</time>
      </trkpt>
      <trkpt lat="45.56049" lon="4.74566">
        <ele>302</ele>
        <time>2012-10-07T08:13:28Z</time>
      </trkpt>
      <trkpt lat="45.56049" lon="4.74569">
        <ele>302</ele>
        <time>2012-10-07T08:13:30Z</time>
      </trkpt>
      <trkpt lat="45.56047" lon="4.74571">
        <ele>303</ele>
        <time>2012-10-07T08:13:32Z</time>
      </trkpt>
      <trkpt lat="45.56046" lon="4.74573">
        <ele>303</ele>
        <time>2012-10-07T08:13:34Z</time>
      </trkpt>
      <trkpt lat="45.56045" lon="4.74577">
        <ele>303</ele>
        <time>2012-10-07T08:13:36Z</time>
      </trkpt>
      <trkpt lat="45.56044" lon="4.74579">
        <ele>303</ele>
        <time>2012-10-07T08:13:38Z</time>
      </trkpt>
      <trkpt lat="45.56044" lon="4.74582">
        <ele>303</ele>
        <time>2012-10-07T08:13:40Z</time>
      </trkpt>
      <trkpt lat="45.56043" lon="4.74585">
        <ele>303</ele>
        <time>2012-10-07T08:13:42Z</time>
      </trkpt>
      <trkpt lat="45.56043" lon="4.74586">
        <ele>303</ele>
        <time>2012-10-07T08:13:44Z</time>
      </trkpt>
      <trkpt lat="45.56043" lon="4.74589">
        <ele>303</ele>
        <time>2012-10-07T08:13:46Z</time>
      </trkpt>
      <trkpt lat="45.56042" lon="4.74591">
        <ele>303</ele>
        <time>2012-10-07T08:13:48Z</time>
      </trkpt>
      <trkpt lat="45.56041" lon="4.74594">
        <ele>303</ele>
        <time>2012-10-07T08:13:51Z</time>
      </trkpt>
      <trkpt lat="45.56039" lon="4.74596">
        <ele>303</ele>
        <time>2012-10-07T08:13:53Z</time>
      </trkpt>
      <trkpt lat="45.56038" lon="4.74598">
        <ele>303</ele>
        <time>2012-10-07T08:13:55Z</time>
      </trkpt>
      <trkpt lat="45.56037" lon="4.746">
        <ele>303</ele>
        <time>2012-10-07T08:13:57Z</time>
      </trkpt>
      <trkpt lat="45.56035" lon="4.74602">
        <ele>303</ele>
        <time>2012-10-07T08:13:59Z</time>
      </trkpt>
      <trkpt lat="45.56034" lon="4.74603">
        <ele>303</ele>
        <time>2012-10-07T08:14:01Z</time>
      </trkpt>
      <trkpt lat="45.56032" lon="4.74607">
        <ele>303</ele>
        <time>2012-10-07T08:14:03Z</time>
      </trkpt>
      <trkpt lat="45.5603" lon="4.74608">
        <ele>303</ele>
        <time>2012-10-07T08:14:05Z</time>
      </trkpt>
      <trkpt lat="45.56029" lon="4.7461">
        <ele>303</ele>
        <time>2012-10-07T08:14:07Z</time>
      </trkpt>
      <trkpt lat="45.56027" lon="4.74612">
        <ele>303</ele>
        <time>2012-10-07T08:14:09Z</time>
      </trkpt>
      <trkpt lat="45.56026" lon="4.74614">
        <ele>303</ele>
        <time>2012-10-07T08:14:11Z</time>
      </trkpt>
      <trkpt lat="45.56025" lon="4.74616">
        <ele>303</ele>
        <time>2012-10-07T08:14:14Z</time>
      </trkpt>
      <trkpt lat="45.56023" lon="4.74618">
        <ele>303</ele>
        <time>2012-10-07T08:14:16Z</time>
      </trkpt>
      <trkpt lat="45.56021" lon="4.7462">
        <ele>303</ele>
        <time>2012-10-07T08:14:18Z</time>
      </trkpt>
      <trkpt lat="45.5602" lon="4.74622">
        <ele>303</ele>
        <time>2012-10-07T08:14:20Z</time>
      </trkpt>
      <trkpt lat="45.56019" lon="4.74625">
        <ele>303</ele>
        <time>2012-10-07T08:14:22Z</time>
      </trkpt>
      <trkpt lat="45.56017" lon="4.74627">
        <ele>303</ele>
        <time>2012-10-07T08:14:24Z</time>
      </trkpt>
      <trkpt lat="45.56016" lon="4.74629">
        <ele>303</ele>
        <time>2012-10-07T08:14:26Z</time>
      </trkpt>
      <trkpt lat="45.56015" lon="4.74631">
        <ele>303</ele>
        <time>2012-10-07T08:14:28Z</time>
      </trkpt>
      <trkpt lat="45.56012" lon="4.74634">
        <ele>303</ele>
        <time>2012-10-07T08:14:30Z</time>
      </trkpt>
      <trkpt lat="45.56011" lon="4.74635">
        <ele>303</ele>
        <time>2012-10-07T08:14:32Z</time>
      </trkpt>
      <trkpt lat="45.5601" lon="4.74636">
        <ele>303</ele>
        <time>2012-10-07T08:14:34Z</time>
      </trkpt>
      <trkpt lat="45.56009" lon="4.74638">
        <ele>303</ele>
        <time>2012-10-07T08:14:37Z</time>
      </trkpt>
      <trkpt lat="45.56007" lon="4.7464">
        <ele>303</ele>
        <time>2012-10-07T08:14:39Z</time>
      </trkpt>
      <trkpt lat="45.56007" lon="4.74641">
        <ele>303</ele>
        <time>2012-10-07T08:14:41Z</time>
      </trkpt>
      <trkpt lat="45.56005" lon="4.74643">
        <ele>303</ele>
        <time>2012-10-07T08:14:43Z</time>
      </trkpt>
      <trkpt lat="45.56004" lon="4.74647">
        <ele>302</ele>
        <time>2012-10-07T08:14:45Z</time>
      </trkpt>
      <trkpt lat="45.56003" lon="4.74649">
        <ele>302</ele>
        <time>2012-10-07T08:14:47Z</time>
      </trkpt>
      <trkpt lat="45.56002" lon="4.74652">
        <ele>302</ele>
        <time>2012-10-07T08:14:49Z</time>
      </trkpt>
      <trkpt lat="45.56002" lon="4.74654">
        <ele>302</ele>
        <time>2012-10-07T08:14:51Z</time>
      </trkpt>
      <trkpt lat="45.56001" lon="4.74657">
        <ele>302</ele>
        <time>2012-10-07T08:14:53Z</time>
      </trkpt>
      <trkpt lat="45.56" lon="4.74659">
        <ele>302</ele>
        <time>2012-10-07T08:14:56Z</time>
      </trkpt>
      <trkpt lat="45.56" lon="4.74661">
        <ele>302</ele>
        <time>2012-10-07T08:14:58Z</time>
      </trkpt>
      <trkpt lat="45.55999" lon="4.74664">
        <ele>302</ele>
        <time>2012-10-07T08:15:00Z</time>
      </trkpt>
      <trkpt lat="45.55997" lon="4.74667">
        <ele>302</ele>
        <time>2012-10-07T08:15:02Z</time>
      </trkpt>
      <trkpt lat="45.55996" lon="4.74669">
        <ele>302</ele>
        <time>2012-10-07T08:15:04Z</time>
      </trkpt>
      <trkpt lat="45.55996" lon="4.74672">
        <ele>302</ele>
        <time>2012-10-07T08:15:06Z</time>
      </trkpt>
      <trkpt lat="45.55994" lon="4.74674">
        <ele>302</ele>
        <time>2012-10-07T08:15:08Z</time>
      </trkpt>
      <trkpt lat="45.55993" lon="4.74677">
        <ele>301</ele>
        <time>2012-10-07T08:15:10Z</time>
      </trkpt>
      <trkpt lat="45.55991" lon="4.74681">
        <ele>301</ele>
        <time>2012-10-07T08:15:12Z</time>
      </trkpt>
      <trkpt lat="45.55991" lon="4.74684">
        <ele>301</ele>
        <time>2012-10-07T08:15:14Z</time>
      </trkpt>
      <trkpt lat="45.5599" lon="4.74687">
        <ele>301</ele>
        <time>2012-10-07T08:15:17Z</time>
      </trkpt>
      <trkpt lat="45.5599" lon="4.7469">
        <ele>301</ele>
        <time>2012-10-07T08:15:19Z</time>
      </trkpt>
      <trkpt lat="45.5599" lon="4.74693">
        <ele>301</ele>
        <time>2012-10-07T08:15:21Z</time>
      </trkpt>
      <trkpt lat="45.5599" lon="4.74696">
        <ele>301</ele>
        <time>2012-10-07T08:15:23Z</time>
      </trkpt>
      <trkpt lat="45.5599" lon="4.74698">
        <ele>298</ele>
        <time>2012-10-07T08:15:25Z</time>
      </trkpt>
      <trkpt lat="45.5599" lon="4.74701">
        <ele>298</ele>
        <time>2012-10-07T08:15:27Z</time>
      </trkpt>
      <trkpt lat="45.5599" lon="4.74705">
        <ele>298</ele>
        <time>2012-10-07T08:15:29Z</time>
      </trkpt>
      <trkpt lat="45.5599" lon="4.74707">
        <ele>298</ele>
        <time>2012-10-07T08:15:31Z</time>
      </trkpt>
      <trkpt lat="45.5599" lon="4.74709">
        <ele>298</ele>
        <time>2012-10-07T08:15:33Z</time>
      </trkpt>
      <trkpt lat="45.5599" lon="4.74711">
        <ele>300</ele>
        <time>2012-10-07T08:15:35Z</time>
      </trkpt>
      <trkpt lat="45.5599" lon="4.74714">
        <ele>300</ele>
        <time>2012-10-07T08:15:37Z</time>
      </trkpt>
      <trkpt lat="45.5599" lon="4.74716">
        <ele>301</ele>
        <time>2012-10-07T08:15:39Z</time>
      </trkpt>
      <trkpt lat="45.55991" lon="4.74718">
        <ele>300</ele>
        <time>2012-10-07T08:15:42Z</time>
      </trkpt>
      <trkpt lat="45.55991" lon="4.74718">
        <ele>300</ele>
        <time>2012-10-07T08:15:44Z</time>
      </trkpt>
      <trkpt lat="45.5599" lon="4.7472">
        <ele>300</ele>
        <time>2012-10-07T08:15:46Z</time>
      </trkpt>
      <trkpt lat="45.55989" lon="4.74721">
        <ele>300</ele>
        <time>2012-10-07T08:15:48Z</time>
      </trkpt>
      <trkpt lat="45.55989" lon="4.74721">
        <ele>300</ele>
        <time>2012-10-07T08:15:50Z</time>
      </trkpt>
      <trkpt lat="45.55989" lon="4.74721">
        <ele>300</ele>
        <time>2012-10-07T08:15:52Z</time>
      </trkpt>
      <trkpt lat="45.55991" lon="4.74722">
        <ele>300</ele>
        <time>2012-10-07T08:15:54Z</time>
      </trkpt>
      <trkpt lat="45.5599" lon="4.74723">
        <ele>300</ele>
        <time>2012-10-07T08:15:56Z</time>
      </trkpt>
      <trkpt lat="45.5599" lon="4.74723">
        <ele>300</ele>
        <time>2012-10-07T08:15:58Z</time>
      </trkpt>
      <trkpt lat="45.55991" lon="4.74724">
        <ele>300</ele>
        <time>2012-10-07T08:16:01Z</time>
      </trkpt>
      <trkpt lat="45.5599" lon="4.74725">
        <ele>300</ele>
        <time>2012-10-07T08:16:03Z</time>
      </trkpt>
      <trkpt lat="45.55991" lon="4.74725">
        <ele>300</ele>
        <time>2012-10-07T08:16:05Z</time>
      </trkpt>
      <trkpt lat="45.55991" lon="4.74726">
        <ele>300</ele>
        <time>2012-10-07T08:16:07Z</time>
      </trkpt>
      <trkpt lat="45.55991" lon="4.74725">
        <ele>300</ele>
        <time>2012-10-07T08:16:09Z</time>
      </trkpt>
      <trkpt lat="45.55991" lon="4.74726">
        <ele>300</ele>
        <time>2012-10-07T08:16:11Z</time>
      </trkpt>
      <trkpt lat="45.5599" lon="4.74726">
        <ele>300</ele>
        <time>2012-10-07T08:16:13Z</time>
      </trkpt>
      <trkpt lat="45.5599" lon="4.74726">
        <ele>301</ele>
        <time>2012-10-07T08:16:16Z</time>
      </trkpt>
      <trkpt lat="45.55989" lon="4.74726">
        <ele>300</ele>
        <time>2012-10-07T08:16:18Z</time>
      </trkpt>
      <trkpt lat="45.55989" lon="4.74727">
        <ele>301</ele>
        <time>2012-10-07T08:16:20Z</time>
      </trkpt>
      <trkpt lat="45.55989" lon="4.74727">
        <ele>300</ele>
        <time>2012-10-07T08:16:22Z</time>
      </trkpt>
      <trkpt lat="45.55989" lon="4.74726">
        <ele>300</ele>
        <time>2012-10-07T08:16:24Z</time>
      </trkpt>
      <trkpt lat="45.55988" lon="4.74726">
        <ele>301</ele>
        <time>2012-10-07T08:16:26Z</time>
      </trkpt>
      <trkpt lat="45.55988" lon="4.74726">
        <ele>301</ele>
        <time>2012-10-07T08:16:28Z</time>
      </trkpt>
      <trkpt lat="45.55988" lon="4.74727">
        <ele>301</ele>
        <time>2012-10-07T08:16:30Z</time>
      </trkpt>
      <trkpt lat="45.55987" lon="4.74727">
        <ele>301</ele>
        <time>2012-10-07T08:16:32Z</time>
      </trkpt>
      <trkpt lat="45.55986" lon="4.74728">
        <ele>300</ele>
        <time>2012-10-07T08:16:34Z</time>
      </trkpt>
      <trkpt lat="45.55986" lon="4.7473">
        <ele>300</ele>
        <time>2012-10-07T08:16:36Z</time>
      </trkpt>
      <trkpt lat="45.55986" lon="4.74731">
        <ele>300</ele>
        <time>2012-10-07T08:16:38Z</time>
      </trkpt>
      <trkpt lat="45.55985" lon="4.74732">
        <ele>300</ele>
        <time>2012-10-07T08:16:41Z</time>
      </trkpt>
      <trkpt lat="45.55985" lon="4.74733">
        <ele>300</ele>
        <time>2012-10-07T08:16:43Z</time>
      </trkpt>
      <trkpt lat="45.55985" lon="4.74733">
        <ele>300</ele>
        <time>2012-10-07T08:16:45Z</time>
      </trkpt>
      <trkpt lat="45.55985" lon="4.74733">
        <ele>300</ele>
        <time>2012-10-07T08:16:47Z</time>
      </trkpt>
      <trkpt lat="45.55986" lon="4.74732">
        <ele>300</ele>
        <time>2012-10-07T08:16:49Z</time>
      </trkpt>
      <trkpt lat="45.55985" lon="4.74731">
        <ele>300</ele>
        <time>2012-10-07T08:16:51Z</time>
      </trkpt>
      <trkpt lat="45.55984" lon="4.74729">
        <ele>300</ele>
        <time>2012-10-07T08:16:53Z</time>
      </trkpt>
      <trkpt lat="45.55984" lon="4.74728">
        <ele>300</ele>
        <time>2012-10-07T08:16:56Z</time>
      </trkpt>
      <trkpt lat="45.55984" lon="4.74728">
        <ele>300</ele>
        <time>2012-10-07T08:16:58Z</time>
      </trkpt>
      <trkpt lat="45.55984" lon="4.74727">
        <ele>300</ele>
        <time>2012-10-07T08:17:00Z</time>
      </trkpt>
      <trkpt lat="45.55984" lon="4.74727">
        <ele>300</ele>
        <time>2012-10-07T08:17:02Z</time>
      </trkpt>
      <trkpt lat="45.55984" lon="4.74727">
        <ele>300</ele>
        <time>2012-10-07T08:17:04Z</time>
      </trkpt>
      <trkpt lat="45.55984" lon="4.74726">
        <ele>300</ele>
        <time>2012-10-07T08:17:06Z</time>
      </trkpt>
      <trkpt lat="45.55984" lon="4.74725">
        <ele>300</ele>
        <time>2012-10-07T08:17:08Z</time>
      </trkpt>
      <trkpt lat="45.55985" lon="4.74725">
        <ele>300</ele>
        <time>2012-10-07T08:17:10Z</time>
      </trkpt>
      <trkpt lat="45.55985" lon="4.74724">
        <ele>300</ele>
        <time>2012-10-07T08:17:12Z</time>
      </trkpt>
      <trkpt lat="45.55986" lon="4.74723">
        <ele>300</ele>
        <time>2012-10-07T08:17:14Z</time>
      </trkpt>
      <trkpt lat="45.55986" lon="4.74721">
        <ele>300</ele>
        <time>2012-10-07T08:17:16Z</time>
      </trkpt>
      <trkpt lat="45.55986" lon="4.7472">
        <ele>300</ele>
        <time>2012-10-07T08:17:18Z</time>
      </trkpt>
      <trkpt lat="45.55986" lon="4.74719">
        <ele>300</ele>
        <time>2012-10-07T08:17:20Z</time>
      </trkpt>
      <trkpt lat="45.55986" lon="4.74719">
        <ele>301</ele>
        <time>2012-10-07T08:17:22Z</time>
      </trkpt>
      <trkpt lat="45.55986" lon="4.74719">
        <ele>301</ele>
        <time>2012-10-07T08:17:24Z</time>
      </trkpt>
      <trkpt lat="45.55986" lon="4.7472">
        <ele>301</ele>
        <time>2012-10-07T08:17:26Z</time>
      </trkpt>
      <trkpt lat="45.55986" lon="4.74721">
        <ele>301</ele>
        <time>2012-10-07T08:17:28Z</time>
      </trkpt>
      <trkpt lat="45.55987" lon="4.74719">
        <ele>301</ele>
        <time>2012-10-07T08:17:30Z</time>
      </trkpt>
      <trkpt lat="45.55988" lon="4.74716">
        <ele>301</ele>
        <time>2012-10-07T08:17:32Z</time>
      </trkpt>
      <trkpt lat="45.55989" lon="4.74714">
        <ele>301</ele>
        <time>2012-10-07T08:17:34Z</time>
      </trkpt>
      <trkpt lat="45.5599" lon="4.74712">
        <ele>301</ele>
        <time>2012-10-07T08:17:37Z</time>
      </trkpt>
      <trkpt lat="45.55991" lon="4.74711">
        <ele>301</ele>
        <time>2012-10-07T08:17:39Z</time>
      </trkpt>
      <trkpt lat="45.55991" lon="4.74713">
        <ele>301</ele>
        <time>2012-10-07T08:17:41Z</time>
      </trkpt>
      <trkpt lat="45.55991" lon="4.74713">
        <ele>301</ele>
        <time>2012-10-07T08:17:43Z</time>
      </trkpt>
      <trkpt lat="45.5599" lon="4.74713">
        <ele>300</ele>
        <time>2012-10-07T08:17:45Z</time>
      </trkpt>
      <trkpt lat="45.55989" lon="4.74713">
        <ele>300</ele>
        <time>2012-10-07T08:17:47Z</time>
      </trkpt>
      <trkpt lat="45.55988" lon="4.74716">
        <ele>300</ele>
        <time>2012-10-07T08:17:49Z</time>
      </trkpt>
      <trkpt lat="45.55988" lon="4.74717">
        <ele>300</ele>
        <time>2012-10-07T08:17:51Z</time>
      </trkpt>
      <trkpt lat="45.55988" lon="4.74718">
        <ele>300</ele>
        <time>2012-10-07T08:17:53Z</time>
      </trkpt>
      <trkpt lat="45.55988" lon="4.74718">
        <ele>301</ele>
        <time>2012-10-07T08:17:55Z</time>
      </trkpt>
      <trkpt lat="45.55988" lon="4.74718">
        <ele>300</ele>
        <time>2012-10-07T08:17:57Z</time>
      </trkpt>
      <trkpt lat="45.55987" lon="4.74717">
        <ele>301</ele>
        <time>2012-10-07T08:17:59Z</time>
      </trkpt>
      <trkpt lat="45.55988" lon="4.74718">
        <ele>300</ele>
        <time>2012-10-07T08:18:01Z</time>
      </trkpt>
      <trkpt lat="45.55987" lon="4.74719">
        <ele>300</ele>
        <time>2012-10-07T08:18:04Z</time>
      </trkpt>
      <trkpt lat="45.55987" lon="4.74719">
        <ele>300</ele>
        <time>2012-10-07T08:18:06Z</time>
      </trkpt>
      <trkpt lat="45.55987" lon="4.7472">
        <ele>300</ele>
        <time>2012-10-07T08:18:08Z</time>
      </trkpt>
      <trkpt lat="45.55987" lon="4.7472">
        <ele>300</ele>
        <time>2012-10-07T08:18:10Z</time>
      </trkpt>
      <trkpt lat="45.55986" lon="4.74721">
        <ele>300</ele>
        <time>2012-10-07T08:18:12Z</time>
      </trkpt>
      <trkpt lat="45.55986" lon="4.7472">
        <ele>300</ele>
        <time>2012-10-07T08:18:14Z</time>
      </trkpt>
      <trkpt lat="45.55986" lon="4.7472">
        <ele>300</ele>
        <time>2012-10-07T08:18:16Z</time>
      </trkpt>
      <trkpt lat="45.55986" lon="4.74721">
        <ele>300</ele>
        <time>2012-10-07T08:18:19Z</time>
      </trkpt>
      <trkpt lat="45.55986" lon="4.74722">
        <ele>300</ele>
        <time>2012-10-07T08:18:21Z</time>
      </trkpt>
      <trkpt lat="45.55986" lon="4.74721">
        <ele>300</ele>
        <time>2012-10-07T08:18:23Z</time>
      </trkpt>
      <trkpt lat="45.55986" lon="4.74721">
        <ele>300</ele>
        <time>2012-10-07T08:18:25Z</time>
      </trkpt>
      <trkpt lat="45.55986" lon="4.7472">
        <ele>300</ele>
        <time>2012-10-07T08:18:27Z</time>
      </trkpt>
      <trkpt lat="45.55987" lon="4.7472">
        <ele>301</ele>
        <time>2012-10-07T08:18:29Z</time>
      </trkpt>
      <trkpt lat="45.55988" lon="4.7472">
        <ele>301</ele>
        <time>2012-10-07T08:18:31Z</time>
      </trkpt>
      <trkpt lat="45.55988" lon="4.7472">
        <ele>301</ele>
        <time>2012-10-07T08:18:33Z</time>
      </trkpt>
      <trkpt lat="45.55988" lon="4.7472">
        <ele>301</ele>
        <time>2012-10-07T08:18:36Z</time>
      </trkpt>
      <trkpt lat="45.55988" lon="4.74721">
        <ele>301</ele>
        <time>2012-10-07T08:18:38Z</time>
      </trkpt>
      <trkpt lat="45.55989" lon="4.74721">
        <ele>301</ele>
        <time>2012-10-07T08:18:40Z</time>
      </trkpt>
      <trkpt lat="45.5599" lon="4.74721">
        <ele>301</ele>
        <time>2012-10-07T08:18:42Z</time>
      </trkpt>
      <trkpt lat="45.55989" lon="4.7472">
        <ele>301</ele>
        <time>2012-10-07T08:18:44Z</time>
      </trkpt>
      <trkpt lat="45.55991" lon="4.7472">
        <ele>301</ele>
        <time>2012-10-07T08:18:46Z</time>
      </trkpt>
      <trkpt lat="45.55991" lon="4.7472">
        <ele>301</ele>
        <time>2012-10-07T08:18:48Z</time>
      </trkpt>
      <trkpt lat="45.55991" lon="4.74719">
        <ele>301</ele>
        <time>2012-10-07T08:18:50Z</time>
      </trkpt>
      <trkpt lat="45.55989" lon="4.7472">
        <ele>301</ele>
        <time>2012-10-07T08:18:52Z</time>
      </trkpt>
      <trkpt lat="45.55987" lon="4.7472">
        <ele>301</ele>
        <time>2012-10-07T08:18:54Z</time>
      </trkpt>
      <trkpt lat="45.55985" lon="4.74719">
        <ele>301</ele>
        <time>2012-10-07T08:18:56Z</time>
      </trkpt>
      <trkpt lat="45.55983" lon="4.74719">
        <ele>301</ele>
        <time>2012-10-07T08:18:58Z</time>
      </trkpt>
      <trkpt lat="45.55981" lon="4.7472">
        <ele>301</ele>
        <time>2012-10-07T08:19:00Z</time>
      </trkpt>
      <trkpt lat="45.55982" lon="4.74719">
        <ele>301</ele>
        <time>2012-10-07T08:19:03Z</time>
      </trkpt>
      <trkpt lat="45.55983" lon="4.74719">
        <ele>301</ele>
        <time>2012-10-07T08:19:05Z</time>
      </trkpt>
      <trkpt lat="45.55984" lon="4.74719">
        <ele>301</ele>
        <time>2012-10-07T08:19:07Z</time>
      </trkpt>
      <trkpt lat="45.55984" lon="4.74719">
        <ele>301</ele>
        <time>2012-10-07T08:19:09Z</time>
      </trkpt>
      <trkpt lat="45.55984" lon="4.7472">
        <ele>301</ele>
        <time>2012-10-07T08:19:11Z</time>
      </trkpt>
      <trkpt lat="45.55984" lon="4.7472">
        <ele>301</ele>
        <time>2012-10-07T08:19:13Z</time>
      </trkpt>
      <trkpt lat="45.55984" lon="4.7472">
        <ele>301</ele>
        <time>2012-10-07T08:19:15Z</time>
      </trkpt>
      <trkpt lat="45.55986" lon="4.7472">
        <ele>301</ele>
        <time>2012-10-07T08:19:17Z</time>
      </trkpt>
      <trkpt lat="45.55986" lon="4.7472">
        <ele>301</ele>
        <time>2012-10-07T08:19:19Z</time>
      </trkpt>
      <trkpt lat="45.55986" lon="4.7472">
        <ele>301</ele>
        <time>2012-10-07T08:19:22Z</time>
      </trkpt>
      <trkpt lat="45.55986" lon="4.7472">
        <ele>301</ele>
        <time>2012-10-07T08:19:24Z</time>
      </trkpt>
      <trkpt lat="45.55986" lon="4.7472">
        <ele>301</ele>
        <time>2012-10-07T08:19:26Z</time>
      </trkpt>
      <trkpt lat="45.55986" lon="4.7472">
        <ele>301</ele>
        <time>2012-10-07T08:19:28Z</time>
      </trkpt>
      <trkpt lat="45.55988" lon="4.74719">
        <ele>301</ele>
        <time>2012-10-07T08:19:30Z</time>
      </trkpt>
      <trkpt lat="45.55988" lon="4.74719">
        <ele>300</ele>
        <time>2012-10-07T08:19:32Z</time>
      </trkpt>
      <trkpt lat="45.55987" lon="4.74719">
        <ele>300</ele>
        <time>2012-10-07T08:19:34Z</time>
      </trkpt>
      <trkpt lat="45.55987" lon="4.74719">
        <ele>300</ele>
        <time>2012-10-07T08:19:35Z</time>
      </trkpt>
      <trkpt lat="45.55893" lon="4.74264">
        <ele>319</ele>
        <time>2012-10-07T08:40:52Z</time>
      </trkpt>
      <trkpt lat="45.55893" lon="4.74262">
        <ele>319</ele>
        <time>2012-10-07T08:40:54Z</time>
      </trkpt>
      <trkpt lat="45.55892" lon="4.74261">
        <ele>319</ele>
        <time>2012-10-07T08:40:56Z</time>
      </trkpt>
      <trkpt lat="45.55891" lon="4.74258">
        <ele>319</ele>
        <time>2012-10-07T08:40:58Z</time>
      </trkpt>
      <trkpt lat="45.5589" lon="4.74255">
        <ele>319</ele>
        <time>2012-10-07T08:41:00Z</time>
      </trkpt>
      <trkpt lat="45.55889" lon="4.74253">
        <ele>319</ele>
        <time>2012-10-07T08:41:02Z</time>
      </trkpt>
      <trkpt lat="45.55888" lon="4.74251">
        <ele>319</ele>
        <time>2012-10-07T08:41:04Z</time>
      </trkpt>
      <trkpt lat="45.55886" lon="4.74248">
        <ele>319</ele>
        <time>2012-10-07T08:41:06Z</time>
      </trkpt>
      <trkpt lat="45.55885" lon="4.74246">
        <ele>319</ele>
        <time>2012-10-07T08:41:08Z</time>
      </trkpt>
      <trkpt lat="45.55884" lon="4.74243">
        <ele>319</ele>
        <time>2012-10-07T08:41:10Z</time>
      </trkpt>
      <trkpt lat="45.55883" lon="4.7424">
        <ele>319</ele>
        <time>2012-10-07T08:41:12Z</time>
      </trkpt>
      <trkpt lat="45.55881" lon="4.74236">
        <ele>320</ele>
        <time>2012-10-07T08:41:14Z</time>
      </trkpt>
      <trkpt lat="45.5588" lon="4.74233">
        <ele>320</ele>
        <time>2012-10-07T08:41:16Z</time>
      </trkpt>
      <trkpt lat="45.55879" lon="4.7423">
        <ele>320</ele>
        <time>2012-10-07T08:41:18Z</time>
      </trkpt>
      <trkpt lat="45.55878" lon="4.74228">
        <ele>320</ele>
        <time>2012-10-07T08:41:20Z</time>
      </trkpt>
      <trkpt lat="45.55877" lon="4.74225">
        <ele>320</ele>
        <time>2012-10-07T08:41:22Z</time>
      </trkpt>
      <trkpt lat="45.55876" lon="4.74223">
        <ele>320</ele>
        <time>2012-10-07T08:41:24Z</time>
      </trkpt>
      <trkpt lat="45.55875" lon="4.74223">
        <ele>320</ele>
        <time>2012-10-07T08:41:26Z</time>
      </trkpt>
      <trkpt lat="45.55875" lon="4.7422">
        <ele>320</ele>
        <time>2012-10-07T08:41:28Z</time>
      </trkpt>
      <trkpt lat="45.55873" lon="4.74217">
        <ele>320</ele>
        <time>2012-10-07T08:41:30Z</time>
      </trkpt>
      <trkpt lat="45.55872" lon="4.74215">
        <ele>321</ele>
        <time>2012-10-07T08:41:33Z</time>
      </trkpt>
      <trkpt lat="45.55872" lon="4.74212">
        <ele>321</ele>
        <time>2012-10-07T08:41:35Z</time>
      </trkpt>
      <trkpt lat="45.55871" lon="4.74209">
        <ele>321</ele>
        <time>2012-10-07T08:41:37Z</time>
      </trkpt>
      <trkpt lat="45.5587" lon="4.74207">
        <ele>321</ele>
        <time>2012-10-07T08:41:39Z</time>
      </trkpt>
      <trkpt lat="45.55868" lon="4.74204">
        <ele>321</ele>
        <time>2012-10-07T08:41:41Z</time>
      </trkpt>
      <trkpt lat="45.55867" lon="4.742">
        <ele>321</ele>
        <time>2012-10-07T08:41:43Z</time>
      </trkpt>
      <trkpt lat="45.55866" lon="4.74197">
        <ele>321</ele>
        <time>2012-10-07T08:41:45Z</time>
      </trkpt>
      <trkpt lat="45.55865" lon="4.74194">
        <ele>321</ele>
        <time>2012-10-07T08:41:47Z</time>
      </trkpt>
      <trkpt lat="45.55864" lon="4.74192">
        <ele>322</ele>
        <time>2012-10-07T08:41:49Z</time>
      </trkpt>
      <trkpt lat="45.55863" lon="4.74189">
        <ele>321</ele>
        <time>2012-10-07T08:41:51Z</time>
      </trkpt>
      <trkpt lat="45.55862" lon="4.74186">
        <ele>321</ele>
        <time>2012-10-07T08:41:53Z</time>
      </trkpt>
      <trkpt lat="45.55861" lon="4.74184">
        <ele>321</ele>
        <time>2012-10-07T08:41:55Z</time>
      </trkpt>
      <trkpt lat="45.5586" lon="4.74181">
        <ele>321</ele>
        <time>2012-10-07T08:41:57Z</time>
      </trkpt>
      <trkpt lat="45.55859" lon="4.74178">
        <ele>322</ele>
        <time>2012-10-07T08:42:00Z</time>
      </trkpt>
      <trkpt lat="45.55859" lon="4.74176">
        <ele>321</ele>
        <time>2012-10-07T08:42:02Z</time>
      </trkpt>
      <trkpt lat="45.55858" lon="4.74173">
        <ele>322</ele>
        <time>2012-10-07T08:42:04Z</time>
      </trkpt>
      <trkpt lat="45.55857" lon="4.74171">
        <ele>321</ele>
        <time>2012-10-07T08:42:06Z</time>
      </trkpt>
      <trkpt lat="45.55856" lon="4.74169">
        <ele>322</ele>
        <time>2012-10-07T08:42:08Z</time>
      </trkpt>
      <trkpt lat="45.55856" lon="4.74166">
        <ele>322</ele>
        <time>2012-10-07T08:42:10Z</time>
      </trkpt>
      <trkpt lat="45.55855" lon="4.74164">
        <ele>322</ele>
        <time>2012-10-07T08:42:12Z</time>
      </trkpt>
      <trkpt lat="45.55854" lon="4.74161">
        <ele>322</ele>
        <time>2012-10-07T08:42:14Z</time>
      </trkpt>
      <trkpt lat="45.55853" lon="4.74157">
        <ele>322</ele>
        <time>2012-10-07T08:42:16Z</time>
      </trkpt>
      <trkpt lat="45.55852" lon="4.74155">
        <ele>322</ele>
        <time>2012-10-07T08:42:18Z</time>
      </trkpt>
      <trkpt lat="45.55851" lon="4.74152">
        <ele>322</ele>
        <time>2012-10-07T08:42:20Z</time>
      </trkpt>
      <trkpt lat="45.5585" lon="4.7415">
        <ele>322</ele>
        <time>2012-10-07T08:42:22Z</time>
      </trkpt>
      <trkpt lat="45.55849" lon="4.74147">
        <ele>322</ele>
        <time>2012-10-07T08:42:24Z</time>
      </trkpt>
      <trkpt lat="45.55847" lon="4.74144">
        <ele>322</ele>
        <time>2012-10-07T08:42:26Z</time>
      </trkpt>
      <trkpt lat="45.55847" lon="4.74142">
        <ele>322</ele>
        <time>2012-10-07T08:42:28Z</time>
      </trkpt>
      <trkpt lat="45.55846" lon="4.74138">
        <ele>322</ele>
        <time>2012-10-07T08:42:30Z</time>
      </trkpt>
      <trkpt lat="45.55845" lon="4.74135">
        <ele>322</ele>
        <time>2012-10-07T08:42:32Z</time>
      </trkpt>
      <trkpt lat="45.55844" lon="4.74133">
        <ele>322</ele>
        <time>2012-10-07T08:42:34Z</time>
      </trkpt>
      <trkpt lat="45.55843" lon="4.7413">
        <ele>322</ele>
        <time>2012-10-07T08:42:37Z</time>
      </trkpt>
      <trkpt lat="45.55842" lon="4.74127">
        <ele>322</ele>
        <time>2012-10-07T08:42:39Z</time>
      </trkpt>
      <trkpt lat="45.55841" lon="4.74125">
        <ele>322</ele>
        <time>2012-10-07T08:42:41Z</time>
      </trkpt>
      <trkpt lat="45.55841" lon="4.74122">
        <ele>322</ele>
        <time>2012-10-07T08:42:43Z</time>
      </trkpt>
      <trkpt lat="45.5584" lon="4.7412">
        <ele>322</ele>
        <time>2012-10-07T08:42:45Z</time>
      </trkpt>
      <trkpt lat="45.55838" lon="4.74115">
        <ele>322</ele>
        <time>2012-10-07T08:42:47Z</time>
      </trkpt>
      <trkpt lat="45.55836" lon="4.74113">
        <ele>322</ele>
        <time>2012-10-07T08:42:49Z</time>
      </trkpt>
      <trkpt lat="45.55835" lon="4.74111">
        <ele>321</ele>
        <time>2012-10-07T08:42:52Z</time>
      </trkpt>
      <trkpt lat="45.55834" lon="4.74108">
        <ele>321</ele>
        <time>2012-10-07T08:42:54Z</time>
      </trkpt>
      <trkpt lat="45.55832" lon="4.74106">
        <ele>322</ele>
        <time>2012-10-07T08:42:56Z</time>
      </trkpt>
      <trkpt lat="45.55831" lon="4.74103">
        <ele>322</ele>
        <time>2012-10-07T08:42:58Z</time>
      </trkpt>
      <trkpt lat="45.55829" lon="4.74101">
        <ele>321</ele>
        <time>2012-10-07T08:43:00Z</time>
      </trkpt>
      <trkpt lat="45.55828" lon="4.74097">
        <ele>322</ele>
        <time>2012-10-07T08:43:02Z</time>
      </trkpt>
      <trkpt lat="45.55827" lon="4.74095">
        <ele>321</ele>
        <time>2012-10-07T08:43:04Z</time>
      </trkpt>
      <trkpt lat="45.55825" lon="4.74093">
        <ele>321</ele>
        <time>2012-10-07T08:43:06Z</time>
      </trkpt>
      <trkpt lat="45.55823" lon="4.74091">
        <ele>321</ele>
        <time>2012-10-07T08:43:08Z</time>
      </trkpt>
      <trkpt lat="45.55821" lon="4.74088">
        <ele>321</ele>
        <time>2012-10-07T08:43:11Z</time>
      </trkpt>
      <trkpt lat="45.55819" lon="4.74086">
        <ele>321</ele>
        <time>2012-10-07T08:43:13Z</time>
      </trkpt>
      <trkpt lat="45.55817" lon="4.74084">
        <ele>321</ele>
        <time>2012-10-07T08:43:15Z</time>
      </trkpt>
      <trkpt lat="45.55816" lon="4.74082">
        <ele>321</ele>
        <time>2012-10-07T08:43:17Z</time>
      </trkpt>
      <trkpt lat="45.55814" lon="4.74081">
        <ele>321</ele>
        <time>2012-10-07T08:43:19Z</time>
      </trkpt>
      <trkpt lat="45.55811" lon="4.74079">
        <ele>321</ele>
        <time>2012-10-07T08:43:21Z</time>
      </trkpt>
      <trkpt lat="45.5581" lon="4.74077">
        <ele>321</ele>
        <time>2012-10-07T08:43:23Z</time>
      </trkpt>
      <trkpt lat="45.55808" lon="4.74076">
        <ele>321</ele>
        <time>2012-10-07T08:43:25Z</time>
      </trkpt>
      <trkpt lat="45.55806" lon="4.74076">
        <ele>321</ele>
        <time>2012-10-07T08:43:28Z</time>
      </trkpt>
      <trkpt lat="45.55805" lon="4.74075">
        <ele>321</ele>
        <time>2012-10-07T08:43:30Z</time>
      </trkpt>
      <trkpt lat="45.55803" lon="4.74073">
        <ele>321</ele>
        <time>2012-10-07T08:43:32Z</time>
      </trkpt>
      <trkpt lat="45.55801" lon="4.74072">
        <ele>320</ele>
        <time>2012-10-07T08:43:34Z</time>
      </trkpt>
      <trkpt lat="45.55799" lon="4.74071">
        <ele>320</ele>
        <time>2012-10-07T08:43:36Z</time>
      </trkpt>
      <trkpt lat="45.55797" lon="4.74069">
        <ele>320</ele>
        <time>2012-10-07T08:43:38Z</time>
      </trkpt>
      <trkpt lat="45.55795" lon="4.74067">
        <ele>320</ele>
        <time>2012-10-07T08:43:40Z</time>
      </trkpt>
      <trkpt lat="45.55793" lon="4.74066">
        <ele>320</ele>
        <time>2012-10-07T08:43:42Z</time>
      </trkpt>
      <trkpt lat="45.55791" lon="4.74065">
        <ele>320</ele>
        <time>2012-10-07T08:43:44Z</time>
      </trkpt>
      <trkpt lat="45.55789" lon="4.74063">
        <ele>320</ele>
        <time>2012-10-07T08:43:46Z</time>
      </trkpt>
      <trkpt lat="45.55786" lon="4.74061">
        <ele>319</ele>
        <time>2012-10-07T08:43:48Z</time>
      </trkpt>
      <trkpt lat="45.55783" lon="4.74059">
        <ele>319</ele>
        <time>2012-10-07T08:43:50Z</time>
      </trkpt>
      <trkpt lat="45.55782" lon="4.74057">
        <ele>319</ele>
        <time>2012-10-07T08:43:52Z</time>
      </trkpt>
      <trkpt lat="45.5578" lon="4.74056">
        <ele>319</ele>
        <time>2012-10-07T08:43:54Z</time>
      </trkpt>
      <trkpt lat="45.55778" lon="4.74056">
        <ele>319</ele>
        <time>2012-10-07T08:43:56Z</time>
      </trkpt>
      <trkpt lat="45.55777" lon="4.74054">
        <ele>319</ele>
        <time>2012-10-07T08:43:58Z</time>
      </trkpt>
      <trkpt lat="45.55774" lon="4.74053">
        <ele>318</ele>
        <time>2012-10-07T08:44:01Z</time>
      </trkpt>
      <trkpt lat="45.55772" lon="4.74051">
        <ele>319</ele>
        <time>2012-10-07T08:44:03Z</time>
      </trkpt>
      <trkpt lat="45.5577" lon="4.7405">
        <ele>319</ele>
        <time>2012-10-07T08:44:05Z</time>
      </trkpt>
      <trkpt lat="45.55768" lon="4.74049">
        <ele>319</ele>
        <time>2012-10-07T08:44:07Z</time>
      </trkpt>
      <trkpt lat="45.55766" lon="4.74048">
        <ele>319</ele>
        <time>2012-10-07T08:44:09Z</time>
      </trkpt>
      <trkpt lat="45.55763" lon="4.74046">
        <ele>319</ele>
        <time>2012-10-07T08:44:11Z</time>
      </trkpt>
      <trkpt lat="45.55761" lon="4.74045">
        <ele>318</ele>
        <time>2012-10-07T08:44:13Z</time>
      </trkpt>
      <trkpt lat="45.55759" lon="4.74043">
        <ele>318</ele>
        <time>2012-10-07T08:44:15Z</time>
      </trkpt>
      <trkpt lat="45.55757" lon="4.74042">
        <ele>318</ele>
        <time>2012-10-07T08:44:17Z</time>
      </trkpt>
      <trkpt lat="45.55756" lon="4.74041">
        <ele>318</ele>
        <time>2012-10-07T08:44:19Z</time>
      </trkpt>
      <trkpt lat="45.55754" lon="4.74039">
        <ele>318</ele>
        <time>2012-10-07T08:44:22Z</time>
      </trkpt>
      <trkpt lat="45.55752" lon="4.74038">
        <ele>318</ele>
        <time>2012-10-07T08:44:24Z</time>
      </trkpt>
      <trkpt lat="45.5575" lon="4.74037">
        <ele>318</ele>
        <time>2012-10-07T08:44:26Z</time>
      </trkpt>
      <trkpt lat="45.55748" lon="4.74036">
        <ele>318</ele>
        <time>2012-10-07T08:44:28Z</time>
      </trkpt>
      <trkpt lat="45.55746" lon="4.74035">
        <ele>318</ele>
        <time>2012-10-07T08:44:30Z</time>
      </trkpt>
      <trkpt lat="45.55744" lon="4.74034">
        <ele>318</ele>
        <time>2012-10-07T08:44:32Z</time>
      </trkpt>
      <trkpt lat="45.55743" lon="4.74033">
        <ele>318</ele>
        <time>2012-10-07T08:44:34Z</time>
      </trkpt>
      <trkpt lat="45.55741" lon="4.74031">
        <ele>318</ele>
        <time>2012-10-07T08:44:36Z</time>
      </trkpt>
      <trkpt lat="45.55738" lon="4.7403">
        <ele>318</ele>
        <time>2012-10-07T08:44:38Z</time>
      </trkpt>
      <trkpt lat="45.55737" lon="4.74029">
        <ele>318</ele>
        <time>2012-10-07T08:44:40Z</time>
      </trkpt>
      <trkpt lat="45.55735" lon="4.74028">
        <ele>318</ele>
        <time>2012-10-07T08:44:42Z</time>
      </trkpt>
      <trkpt lat="45.55732" lon="4.74027">
        <ele>317</ele>
        <time>2012-10-07T08:44:44Z</time>
      </trkpt>
      <trkpt lat="45.55729" lon="4.74026">
        <ele>317</ele>
        <time>2012-10-07T08:44:46Z</time>
      </trkpt>
      <trkpt lat="45.55727" lon="4.74025">
        <ele>317</ele>
        <time>2012-10-07T08:44:48Z</time>
      </trkpt>
      <trkpt lat="45.55725" lon="4.74024">
        <ele>317</ele>
        <time>2012-10-07T08:44:50Z</time>
      </trkpt>
      <trkpt lat="45.55722" lon="4.74023">
        <ele>317</ele>
        <time>2012-10-07T08:44:52Z</time>
      </trkpt>
      <trkpt lat="45.55721" lon="4.74022">
        <ele>317</ele>
        <time>2012-10-07T08:44:54Z</time>
      </trkpt>
      <trkpt lat="45.55719" lon="4.74021">
        <ele>317</ele>
        <time>2012-10-07T08:44:56Z</time>
      </trkpt>
      <trkpt lat="45.55717" lon="4.7402">
        <ele>317</ele>
        <time>2012-10-07T08:44:59Z</time>
      </trkpt>
      <trkpt lat="45.55715" lon="4.74019">
        <ele>317</ele>
        <time>2012-10-07T08:45:01Z</time>
      </trkpt>
      <trkpt lat="45.55713" lon="4.74018">
        <ele>316</ele>
        <time>2012-10-07T08:45:03Z</time>
      </trkpt>
      <trkpt lat="45.55711" lon="4.74017">
        <ele>316</ele>
        <time>2012-10-07T08:45:05Z</time>
      </trkpt>
      <trkpt lat="45.55709" lon="4.74016">
        <ele>316</ele>
        <time>2012-10-07T08:45:07Z</time>
      </trkpt>
      <trkpt lat="45.55707" lon="4.74015">
        <ele>316</ele>
        <time>2012-10-07T08:45:09Z</time>
      </trkpt>
      <trkpt lat="45.55705" lon="4.74014">
        <ele>316</ele>
        <time>2012-10-07T08:45:11Z</time>
      </trkpt>
      <trkpt lat="45.55703" lon="4.74013">
        <ele>316</ele>
        <time>2012-10-07T08:45:13Z</time>
      </trkpt>
      <trkpt lat="45.557" lon="4.74011">
        <ele>315</ele>
        <time>2012-10-07T08:45:15Z</time>
      </trkpt>
      <trkpt lat="45.55698" lon="4.74009">
        <ele>315</ele>
        <time>2012-10-07T08:45:17Z</time>
      </trkpt>
      <trkpt lat="45.55697" lon="4.74007">
        <ele>316</ele>
        <time>2012-10-07T08:45:19Z</time>
      </trkpt>
      <trkpt lat="45.55696" lon="4.74004">
        <ele>315</ele>
        <time>2012-10-07T08:45:22Z</time>
      </trkpt>
      <trkpt lat="45.55697" lon="4.74001">
        <ele>315</ele>
        <time>2012-10-07T08:45:24Z</time>
      </trkpt>
      <trkpt lat="45.55699" lon="4.73998">
        <ele>315</ele>
        <time>2012-10-07T08:45:26Z</time>
      </trkpt>
      <trkpt lat="45.55701" lon="4.73997">
        <ele>315</ele>
        <time>2012-10-07T08:45:28Z</time>
      </trkpt>
      <trkpt lat="45.55703" lon="4.73996">
        <ele>315</ele>
        <time>2012-10-07T08:45:30Z</time>
      </trkpt>
      <trkpt lat="45.55706" lon="4.73995">
        <ele>315</ele>
        <time>2012-10-07T08:45:32Z</time>
      </trkpt>
      <trkpt lat="45.55709" lon="4.73994">
        <ele>314</ele>
        <time>2012-10-07T08:45:34Z</time>
      </trkpt>
      <trkpt lat="45.55711" lon="4.73993">
        <ele>314</ele>
        <time>2012-10-07T08:45:36Z</time>
      </trkpt>
      <trkpt lat="45.55713" lon="4.73992">
        <ele>314</ele>
        <time>2012-10-07T08:45:38Z</time>
      </trkpt>
      <trkpt lat="45.55716" lon="4.73991">
        <ele>314</ele>
        <time>2012-10-07T08:45:41Z</time>
      </trkpt>
      <trkpt lat="45.55718" lon="4.7399">
        <ele>314</ele>
        <time>2012-10-07T08:45:43Z</time>
      </trkpt>
      <trkpt lat="45.5572" lon="4.73989">
        <ele>314</ele>
        <time>2012-10-07T08:45:45Z</time>
      </trkpt>
      <trkpt lat="45.55722" lon="4.73988">
        <ele>314</ele>
        <time>2012-10-07T08:45:47Z</time>
      </trkpt>
      <trkpt lat="45.55725" lon="4.73987">
        <ele>314</ele>
        <time>2012-10-07T08:45:49Z</time>
      </trkpt>
      <trkpt lat="45.55728" lon="4.73985">
        <ele>314</ele>
        <time>2012-10-07T08:45:51Z</time>
      </trkpt>
      <trkpt lat="45.55731" lon="4.73984">
        <ele>314</ele>
        <time>2012-10-07T08:45:53Z</time>
      </trkpt>
      <trkpt lat="45.55733" lon="4.73983">
        <ele>314</ele>
        <time>2012-10-07T08:45:55Z</time>
      </trkpt>
      <trkpt lat="45.55735" lon="4.73982">
        <ele>314</ele>
        <time>2012-10-07T08:45:57Z</time>
      </trkpt>
      <trkpt lat="45.55737" lon="4.73981">
        <ele>314</ele>
        <time>2012-10-07T08:45:59Z</time>
      </trkpt>
      <trkpt lat="45.55739" lon="4.7398">
        <ele>314</ele>
        <time>2012-10-07T08:46:01Z</time>
      </trkpt>
      <trkpt lat="45.55742" lon="4.73979">
        <ele>314</ele>
        <time>2012-10-07T08:46:03Z</time>
      </trkpt>
      <trkpt lat="45.55744" lon="4.73978">
        <ele>314</ele>
        <time>2012-10-07T08:46:05Z</time>
      </trkpt>
      <trkpt lat="45.55746" lon="4.73977">
        <ele>314</ele>
        <time>2012-10-07T08:46:08Z</time>
      </trkpt>
      <trkpt lat="45.55748" lon="4.73976">
        <ele>314</ele>
        <time>2012-10-07T08:46:10Z</time>
      </trkpt>
      <trkpt lat="45.5575" lon="4.73975">
        <ele>313</ele>
        <time>2012-10-07T08:46:12Z</time>
      </trkpt>
      <trkpt lat="45.55752" lon="4.73974">
        <ele>313</ele>
        <time>2012-10-07T08:46:14Z</time>
      </trkpt>
      <trkpt lat="45.55754" lon="4.73973">
        <ele>314</ele>
        <time>2012-10-07T08:46:16Z</time>
      </trkpt>
      <trkpt lat="45.55756" lon="4.73972">
        <ele>314</ele>
        <time>2012-10-07T08:46:18Z</time>
      </trkpt>
      <trkpt lat="45.55759" lon="4.73971">
        <ele>314</ele>
        <time>2012-10-07T08:46:20Z</time>
      </trkpt>
      <trkpt lat="45.55761" lon="4.7397">
        <ele>313</ele>
        <time>2012-10-07T08:46:22Z</time>
      </trkpt>
      <trkpt lat="45.55763" lon="4.73969">
        <ele>313</ele>
        <time>2012-10-07T08:46:24Z</time>
      </trkpt>
      <trkpt lat="45.55766" lon="4.73968">
        <ele>314</ele>
        <time>2012-10-07T08:46:26Z</time>
      </trkpt>
      <trkpt lat="45.55769" lon="4.73966">
        <ele>313</ele>
        <time>2012-10-07T08:46:28Z</time>
      </trkpt>
      <trkpt lat="45.55771" lon="4.73965">
        <ele>313</ele>
        <time>2012-10-07T08:46:30Z</time>
      </trkpt>
      <trkpt lat="45.55773" lon="4.73964">
        <ele>313</ele>
        <time>2012-10-07T08:46:32Z</time>
      </trkpt>
      <trkpt lat="45.55775" lon="4.73963">
        <ele>313</ele>
        <time>2012-10-07T08:46:35Z</time>
      </trkpt>
      <trkpt lat="45.55777" lon="4.73962">
        <ele>313</ele>
        <time>2012-10-07T08:46:37Z</time>
      </trkpt>
      <trkpt lat="45.55778" lon="4.73961">
        <ele>313</ele>
        <time>2012-10-07T08:46:39Z</time>
      </trkpt>
      <trkpt lat="45.55781" lon="4.73959">
        <ele>313</ele>
        <time>2012-10-07T08:46:41Z</time>
      </trkpt>
      <trkpt lat="45.55783" lon="4.73958">
        <ele>313</ele>
        <time>2012-10-07T08:46:43Z</time>
      </trkpt>
      <trkpt lat="45.55785" lon="4.73957">
        <ele>312</ele>
        <time>2012-10-07T08:46:45Z</time>
      </trkpt>
      <trkpt lat="45.55787" lon="4.73956">
        <ele>312</ele>
        <time>2012-10-07T08:46:47Z</time>
      </trkpt>
      <trkpt lat="45.55789" lon="4.73955">
        <ele>312</ele>
        <time>2012-10-07T08:46:49Z</time>
      </trkpt>
      <trkpt lat="45.55791" lon="4.73954">
        <ele>312</ele>
        <time>2012-10-07T08:46:51Z</time>
      </trkpt>
      <trkpt lat="45.55793" lon="4.73953">
        <ele>312</ele>
        <time>2012-10-07T08:46:53Z</time>
      </trkpt>
      <trkpt lat="45.55797" lon="4.73952">
        <ele>312</ele>
        <time>2012-10-07T08:46:55Z</time>
      </trkpt>
      <trkpt lat="45.55799" lon="4.73951">
        <ele>312</ele>
        <time>2012-10-07T08:46:57Z</time>
      </trkpt>
      <trkpt lat="45.55801" lon="4.73949">
        <ele>312</ele>
        <time>2012-10-07T08:46:59Z</time>
      </trkpt>
      <trkpt lat="45.55804" lon="4.73948">
        <ele>312</ele>
        <time>2012-10-07T08:47:01Z</time>
      </trkpt>
      <trkpt lat="45.55806" lon="4.73947">
        <ele>312</ele>
        <time>2012-10-07T08:47:03Z</time>
      </trkpt>
      <trkpt lat="45.55808" lon="4.73946">
        <ele>312</ele>
        <time>2012-10-07T08:47:05Z</time>
      </trkpt>
      <trkpt lat="45.5581" lon="4.73945">
        <ele>312</ele>
        <time>2012-10-07T08:47:08Z</time>
      </trkpt>
      <trkpt lat="45.55812" lon="4.73944">
        <ele>312</ele>
        <time>2012-10-07T08:47:10Z</time>
      </trkpt>
      <trkpt lat="45.55814" lon="4.73942">
        <ele>312</ele>
        <time>2012-10-07T08:47:12Z</time>
      </trkpt>
      <trkpt lat="45.55817" lon="4.73941">
        <ele>312</ele>
        <time>2012-10-07T08:47:14Z</time>
      </trkpt>
      <trkpt lat="45.55819" lon="4.73939">
        <ele>312</ele>
        <time>2012-10-07T08:47:16Z</time>
      </trkpt>
      <trkpt lat="45.55821" lon="4.73938">
        <ele>312</ele>
        <time>2012-10-07T08:47:18Z</time>
      </trkpt>
      <trkpt lat="45.55823" lon="4.73937">
        <ele>312</ele>
        <time>2012-10-07T08:47:20Z</time>
      </trkpt>
      <trkpt lat="45.55825" lon="4.73936">
        <ele>311</ele>
        <time>2012-10-07T08:47:22Z</time>
      </trkpt>
      <trkpt lat="45.55829" lon="4.73934">
        <ele>311</ele>
        <time>2012-10-07T08:47:24Z</time>
      </trkpt>
      <trkpt lat="45.55831" lon="4.73933">
        <ele>311</ele>
        <time>2012-10-07T08:47:26Z</time>
      </trkpt>
      <trkpt lat="45.55833" lon="4.73931">
        <ele>311</ele>
        <time>2012-10-07T08:47:28Z</time>
      </trkpt>
      <trkpt lat="45.55835" lon="4.7393">
        <ele>311</ele>
        <time>2012-10-07T08:47:30Z</time>
      </trkpt>
      <trkpt lat="45.55837" lon="4.73929">
        <ele>311</ele>
        <time>2012-10-07T08:47:32Z</time>
      </trkpt>
      <trkpt lat="45.5584" lon="4.73928">
        <ele>311</ele>
        <time>2012-10-07T08:47:34Z</time>
      </trkpt>
      <trkpt lat="45.55842" lon="4.73926">
        <ele>311</ele>
        <time>2012-10-07T08:47:36Z</time>
      </trkpt>
      <trkpt lat="45.55844" lon="4.73925">
        <ele>312</ele>
        <time>2012-10-07T08:47:39Z</time>
      </trkpt>
      <trkpt lat="45.55846" lon="4.73924">
        <ele>312</ele>
        <time>2012-10-07T08:47:41Z</time>
      </trkpt>
      <trkpt lat="45.55848" lon="4.73922">
        <ele>312</ele>
        <time>2012-10-07T08:47:43Z</time>
      </trkpt>
      <trkpt lat="45.5585" lon="4.73921">
        <ele>312</ele>
        <time>2012-10-07T08:47:45Z</time>
      </trkpt>
      <trkpt lat="45.55852" lon="4.7392">
        <ele>312</ele>
        <time>2012-10-07T08:47:47Z</time>
      </trkpt>
      <trkpt lat="45.55854" lon="4.73918">
        <ele>312</ele>
        <time>2012-10-07T08:47:49Z</time>
      </trkpt>
      <trkpt lat="45.55857" lon="4.73917">
        <ele>311</ele>
        <time>2012-10-07T08:47:51Z</time>
      </trkpt>
      <trkpt lat="45.55859" lon="4.73915">
        <ele>312</ele>
        <time>2012-10-07T08:47:53Z</time>
      </trkpt>
      <trkpt lat="45.55862" lon="4.73913">
        <ele>312</ele>
        <time>2012-10-07T08:47:55Z</time>
      </trkpt>
      <trkpt lat="45.55864" lon="4.73912">
        <ele>312</ele>
        <time>2012-10-07T08:47:57Z</time>
      </trkpt>
      <trkpt lat="45.55866" lon="4.73911">
        <ele>312</ele>
        <time>2012-10-07T08:47:59Z</time>
      </trkpt>
      <trkpt lat="45.55869" lon="4.7391">
        <ele>312</ele>
        <time>2012-10-07T08:48:02Z</time>
      </trkpt>
      <trkpt lat="45.55871" lon="4.73908">
        <ele>312</ele>
        <time>2012-10-07T08:48:04Z</time>
      </trkpt>
      <trkpt lat="45.55873" lon="4.73907">
        <ele>312</ele>
        <time>2012-10-07T08:48:06Z</time>
      </trkpt>
      <trkpt lat="45.55875" lon="4.73906">
        <ele>312</ele>
        <time>2012-10-07T08:48:08Z</time>
      </trkpt>
      <trkpt lat="45.55877" lon="4.73904">
        <ele>312</ele>
        <time>2012-10-07T08:48:10Z</time>
      </trkpt>
      <trkpt lat="45.5588" lon="4.73902">
        <ele>312</ele>
        <time>2012-10-07T08:48:12Z</time>
      </trkpt>
      <trkpt lat="45.55883" lon="4.73901">
        <ele>312</ele>
        <time>2012-10-07T08:48:14Z</time>
      </trkpt>
      <trkpt lat="45.55885" lon="4.73899">
        <ele>312</ele>
        <time>2012-10-07T08:48:16Z</time>
      </trkpt>
      <trkpt lat="45.55886" lon="4.73898">
        <ele>312</ele>
        <time>2012-10-07T08:48:18Z</time>
      </trkpt>
      <trkpt lat="45.55888" lon="4.73897">
        <ele>312</ele>
        <time>2012-10-07T08:48:20Z</time>
      </trkpt>
      <trkpt lat="45.5589" lon="4.73896">
        <ele>312</ele>
        <time>2012-10-07T08:48:22Z</time>
      </trkpt>
      <trkpt lat="45.55892" lon="4.73894">
        <ele>312</ele>
        <time>2012-10-07T08:48:24Z</time>
      </trkpt>
      <trkpt lat="45.55894" lon="4.73893">
        <ele>312</ele>
        <time>2012-10-07T08:48:26Z</time>
      </trkpt>
      <trkpt lat="45.55896" lon="4.73892">
        <ele>312</ele>
        <time>2012-10-07T08:48:28Z</time>
      </trkpt>
      <trkpt lat="45.55898" lon="4.7389">
        <ele>312</ele>
        <time>2012-10-07T08:48:31Z</time>
      </trkpt>
      <trkpt lat="45.559" lon="4.73889">
        <ele>312</ele>
        <time>2012-10-07T08:48:33Z</time>
      </trkpt>
      <trkpt lat="45.55902" lon="4.73888">
        <ele>312</ele>
        <time>2012-10-07T08:48:35Z</time>
      </trkpt>
      <trkpt lat="45.55904" lon="4.73886">
        <ele>312</ele>
        <time>2012-10-07T08:48:37Z</time>
      </trkpt>
      <trkpt lat="45.55906" lon="4.73885">
        <ele>312</ele>
        <time>2012-10-07T08:48:39Z</time>
      </trkpt>
      <trkpt lat="45.55908" lon="4.73884">
        <ele>312</ele>
        <time>2012-10-07T08:48:41Z</time>
      </trkpt>
      <trkpt lat="45.55911" lon="4.73882">
        <ele>312</ele>
        <time>2012-10-07T08:48:43Z</time>
      </trkpt>
      <trkpt lat="45.55913" lon="4.7388">
        <ele>312</ele>
        <time>2012-10-07T08:48:45Z</time>
      </trkpt>
      <trkpt lat="45.55915" lon="4.73879">
        <ele>312</ele>
        <time>2012-10-07T08:48:47Z</time>
      </trkpt>
      <trkpt lat="45.55918" lon="4.73878">
        <ele>312</ele>
        <time>2012-10-07T08:48:49Z</time>
      </trkpt>
      <trkpt lat="45.5592" lon="4.73876">
        <ele>312</ele>
        <time>2012-10-07T08:48:51Z</time>
      </trkpt>
      <trkpt lat="45.55922" lon="4.73875">
        <ele>312</ele>
        <time>2012-10-07T08:48:54Z</time>
      </trkpt>
      <trkpt lat="45.55924" lon="4.73874">
        <ele>313</ele>
        <time>2012-10-07T08:48:56Z</time>
      </trkpt>
      <trkpt lat="45.55926" lon="4.73873">
        <ele>313</ele>
        <time>2012-10-07T08:48:58Z</time>
      </trkpt>
      <trkpt lat="45.55928" lon="4.73871">
        <ele>313</ele>
        <time>2012-10-07T08:49:00Z</time>
      </trkpt>
      <trkpt lat="45.5593" lon="4.7387">
        <ele>313</ele>
        <time>2012-10-07T08:49:02Z</time>
      </trkpt>
      <trkpt lat="45.55934" lon="4.73868">
        <ele>313</ele>
        <time>2012-10-07T08:49:04Z</time>
      </trkpt>
      <trkpt lat="45.55936" lon="4.73867">
        <ele>313</ele>
        <time>2012-10-07T08:49:06Z</time>
      </trkpt>
      <trkpt lat="45.55938" lon="4.73865">
        <ele>314</ele>
        <time>2012-10-07T08:49:08Z</time>
      </trkpt>
      <trkpt lat="45.55941" lon="4.73864">
        <ele>314</ele>
        <time>2012-10-07T08:49:10Z</time>
      </trkpt>
      <trkpt lat="45.55943" lon="4.73863">
        <ele>314</ele>
        <time>2012-10-07T08:49:12Z</time>
      </trkpt>
      <trkpt lat="45.55945" lon="4.73861">
        <ele>314</ele>
        <time>2012-10-07T08:49:14Z</time>
      </trkpt>
      <trkpt lat="45.55947" lon="4.7386">
        <ele>314</ele>
        <time>2012-10-07T08:49:16Z</time>
      </trkpt>
      <trkpt lat="45.55949" lon="4.73858">
        <ele>314</ele>
        <time>2012-10-07T08:49:18Z</time>
      </trkpt>
      <trkpt lat="45.55951" lon="4.73857">
        <ele>314</ele>
        <time>2012-10-07T08:49:21Z</time>
      </trkpt>
      <trkpt lat="45.55953" lon="4.73856">
        <ele>314</ele>
        <time>2012-10-07T08:49:23Z</time>
      </trkpt>
      <trkpt lat="45.55955" lon="4.73854">
        <ele>314</ele>
        <time>2012-10-07T08:49:25Z</time>
      </trkpt>
      <trkpt lat="45.55957" lon="4.73853">
        <ele>314</ele>
        <time>2012-10-07T08:49:27Z</time>
      </trkpt>
      <trkpt lat="45.55959" lon="4.73852">
        <ele>314</ele>
        <time>2012-10-07T08:49:29Z</time>
      </trkpt>
      <trkpt lat="45.55961" lon="4.7385">
        <ele>314</ele>
        <time>2012-10-07T08:49:31Z</time>
      </trkpt>
      <trkpt lat="45.55964" lon="4.73848">
        <ele>314</ele>
        <time>2012-10-07T08:49:33Z</time>
      </trkpt>
      <trkpt lat="45.55967" lon="4.73847">
        <ele>314</ele>
        <time>2012-10-07T08:49:35Z</time>
      </trkpt>
      <trkpt lat="45.55968" lon="4.73846">
        <ele>315</ele>
        <time>2012-10-07T08:49:37Z</time>
      </trkpt>
      <trkpt lat="45.5597" lon="4.73844">
        <ele>315</ele>
        <time>2012-10-07T08:49:39Z</time>
      </trkpt>
      <trkpt lat="45.55972" lon="4.73843">
        <ele>315</ele>
        <time>2012-10-07T08:49:41Z</time>
      </trkpt>
      <trkpt lat="45.55974" lon="4.73842">
        <ele>315</ele>
        <time>2012-10-07T08:49:43Z</time>
      </trkpt>
      <trkpt lat="45.55976" lon="4.73841">
        <ele>315</ele>
        <time>2012-10-07T08:49:45Z</time>
      </trkpt>
      <trkpt lat="45.55978" lon="4.7384">
        <ele>315</ele>
        <time>2012-10-07T08:49:47Z</time>
      </trkpt>
      <trkpt lat="45.5598" lon="4.73839">
        <ele>315</ele>
        <time>2012-10-07T08:49:50Z</time>
      </trkpt>
      <trkpt lat="45.55982" lon="4.73837">
        <ele>315</ele>
        <time>2012-10-07T08:49:52Z</time>
      </trkpt>
      <trkpt lat="45.55984" lon="4.73836">
        <ele>315</ele>
        <time>2012-10-07T08:49:54Z</time>
      </trkpt>
      <trkpt lat="45.55986" lon="4.73835">
        <ele>314</ele>
        <time>2012-10-07T08:49:56Z</time>
      </trkpt>
      <trkpt lat="45.55988" lon="4.73833">
        <ele>314</ele>
        <time>2012-10-07T08:49:58Z</time>
      </trkpt>
      <trkpt lat="45.5599" lon="4.73832">
        <ele>314</ele>
        <time>2012-10-07T08:50:00Z</time>
      </trkpt>
      <trkpt lat="45.55992" lon="4.73831">
        <ele>315</ele>
        <time>2012-10-07T08:50:02Z</time>
      </trkpt>
      <trkpt lat="45.55994" lon="4.73829">
        <ele>315</ele>
        <time>2012-10-07T08:50:04Z</time>
      </trkpt>
      <trkpt lat="45.55997" lon="4.73828">
        <ele>315</ele>
        <time>2012-10-07T08:50:06Z</time>
      </trkpt>
      <trkpt lat="45.55999" lon="4.73826">
        <ele>315</ele>
        <time>2012-10-07T08:50:08Z</time>
      </trkpt>
      <trkpt lat="45.56002" lon="4.73825">
        <ele>315</ele>
        <time>2012-10-07T08:50:10Z</time>
      </trkpt>
      <trkpt lat="45.56004" lon="4.73823">
        <ele>315</ele>
        <time>2012-10-07T08:50:12Z</time>
      </trkpt>
      <trkpt lat="45.56006" lon="4.73822">
        <ele>315</ele>
        <time>2012-10-07T08:50:14Z</time>
      </trkpt>
      <trkpt lat="45.56008" lon="4.73821">
        <ele>315</ele>
        <time>2012-10-07T08:50:16Z</time>
      </trkpt>
      <trkpt lat="45.5601" lon="4.73819">
        <ele>314</ele>
        <time>2012-10-07T08:50:18Z</time>
      </trkpt>
      <trkpt lat="45.56012" lon="4.73818">
        <ele>315</ele>
        <time>2012-10-07T08:50:20Z</time>
      </trkpt>
      <trkpt lat="45.56014" lon="4.73816">
        <ele>314</ele>
        <time>2012-10-07T08:50:22Z</time>
      </trkpt>
      <trkpt lat="45.56017" lon="4.73815">
        <ele>314</ele>
        <time>2012-10-07T08:50:25Z</time>
      </trkpt>
      <trkpt lat="45.56019" lon="4.73814">
        <ele>315</ele>
        <time>2012-10-07T08:50:27Z</time>
      </trkpt>
      <trkpt lat="45.56021" lon="4.73812">
        <ele>315</ele>
        <time>2012-10-07T08:50:29Z</time>
      </trkpt>
      <trkpt lat="45.56023" lon="4.73811">
        <ele>315</ele>
        <time>2012-10-07T08:50:31Z</time>
      </trkpt>
      <trkpt lat="45.56027" lon="4.73809">
        <ele>314</ele>
        <time>2012-10-07T08:50:33Z</time>
      </trkpt>
      <trkpt lat="45.56029" lon="4.73807">
        <ele>314</ele>
        <time>2012-10-07T08:50:35Z</time>
      </trkpt>
      <trkpt lat="45.56031" lon="4.73805">
        <ele>314</ele>
        <time>2012-10-07T08:50:37Z</time>
      </trkpt>
      <trkpt lat="45.56033" lon="4.73804">
        <ele>313</ele>
        <time>2012-10-07T08:50:39Z</time>
      </trkpt>
      <trkpt lat="45.56035" lon="4.73803">
        <ele>314</ele>
        <time>2012-10-07T08:50:41Z</time>
      </trkpt>
      <trkpt lat="45.56037" lon="4.73801">
        <ele>313</ele>
        <time>2012-10-07T08:50:43Z</time>
      </trkpt>
      <trkpt lat="45.56039" lon="4.738">
        <ele>313</ele>
        <time>2012-10-07T08:50:45Z</time>
      </trkpt>
      <trkpt lat="45.56041" lon="4.73798">
        <ele>313</ele>
        <time>2012-10-07T08:50:47Z</time>
      </trkpt>
      <trkpt lat="45.56044" lon="4.73797">
        <ele>313</ele>
        <time>2012-10-07T08:50:49Z</time>
      </trkpt>
      <trkpt lat="45.56046" lon="4.73795">
        <ele>313</ele>
        <time>2012-10-07T08:50:51Z</time>
      </trkpt>
      <trkpt lat="45.56048" lon="4.73794">
        <ele>312</ele>
        <time>2012-10-07T08:50:54Z</time>
      </trkpt>
      <trkpt lat="45.5605" lon="4.73792">
        <ele>312</ele>
        <time>2012-10-07T08:50:56Z</time>
      </trkpt>
      <trkpt lat="45.56052" lon="4.73791">
        <ele>312</ele>
        <time>2012-10-07T08:50:58Z</time>
      </trkpt>
      <trkpt lat="45.56054" lon="4.73789">
        <ele>312</ele>
        <time>2012-10-07T08:51:00Z</time>
      </trkpt>
      <trkpt lat="45.56056" lon="4.73787">
        <ele>312</ele>
        <time>2012-10-07T08:51:02Z</time>
      </trkpt>
      <trkpt lat="45.56058" lon="4.73786">
        <ele>312</ele>
        <time>2012-10-07T08:51:04Z</time>
      </trkpt>
      <trkpt lat="45.56059" lon="4.73784">
        <ele>312</ele>
        <time>2012-10-07T08:51:06Z</time>
      </trkpt>
      <trkpt lat="45.56062" lon="4.73782">
        <ele>312</ele>
        <time>2012-10-07T08:51:08Z</time>
      </trkpt>
      <trkpt lat="45.56064" lon="4.73781">
        <ele>312</ele>
        <time>2012-10-07T08:51:10Z</time>
      </trkpt>
      <trkpt lat="45.56067" lon="4.73779">
        <ele>312</ele>
        <time>2012-10-07T08:51:12Z</time>
      </trkpt>
      <trkpt lat="45.56069" lon="4.73778">
        <ele>311</ele>
        <time>2012-10-07T08:51:14Z</time>
      </trkpt>
      <trkpt lat="45.56071" lon="4.73777">
        <ele>311</ele>
        <time>2012-10-07T08:51:16Z</time>
      </trkpt>
      <trkpt lat="45.56073" lon="4.73775">
        <ele>311</ele>
        <time>2012-10-07T08:51:19Z</time>
      </trkpt>
      <trkpt lat="45.56076" lon="4.73774">
        <ele>311</ele>
        <time>2012-10-07T08:51:21Z</time>
      </trkpt>
      <trkpt lat="45.56078" lon="4.73773">
        <ele>311</ele>
        <time>2012-10-07T08:51:23Z</time>
      </trkpt>
      <trkpt lat="45.5608" lon="4.73771">
        <ele>311</ele>
        <time>2012-10-07T08:51:25Z</time>
      </trkpt>
      <trkpt lat="45.56083" lon="4.7377">
        <ele>311</ele>
        <time>2012-10-07T08:51:27Z</time>
      </trkpt>
      <trkpt lat="45.56085" lon="4.73768">
        <ele>311</ele>
        <time>2012-10-07T08:51:29Z</time>
      </trkpt>
      <trkpt lat="45.56087" lon="4.73767">
        <ele>311</ele>
        <time>2012-10-07T08:51:31Z</time>
      </trkpt>
      <trkpt lat="45.56089" lon="4.73766">
        <ele>310</ele>
        <time>2012-10-07T08:51:34Z</time>
      </trkpt>
      <trkpt lat="45.56091" lon="4.73765">
        <ele>310</ele>
        <time>2012-10-07T08:51:36Z</time>
      </trkpt>
      <trkpt lat="45.56093" lon="4.73764">
        <ele>310</ele>
        <time>2012-10-07T08:51:38Z</time>
      </trkpt>
      <trkpt lat="45.56096" lon="4.73763">
        <ele>310</ele>
        <time>2012-10-07T08:51:40Z</time>
      </trkpt>
      <trkpt lat="45.56099" lon="4.73762">
        <ele>310</ele>
        <time>2012-10-07T08:51:42Z</time>
      </trkpt>
      <trkpt lat="45.56101" lon="4.7376">
        <ele>309</ele>
        <time>2012-10-07T08:51:44Z</time>
      </trkpt>
      <trkpt lat="45.56102" lon="4.73759">
        <ele>309</ele>
        <time>2012-10-07T08:51:46Z</time>
      </trkpt>
      <trkpt lat="45.56104" lon="4.73757">
        <ele>309</ele>
        <time>2012-10-07T08:51:48Z</time>
      </trkpt>
      <trkpt lat="45.56106" lon="4.73756">
        <ele>309</ele>
        <time>2012-10-07T08:51:51Z</time>
      </trkpt>
      <trkpt lat="45.56108" lon="4.73755">
        <ele>309</ele>
        <time>2012-10-07T08:51:53Z</time>
      </trkpt>
      <trkpt lat="45.5611" lon="4.73754">
        <ele>309</ele>
        <time>2012-10-07T08:51:55Z</time>
      </trkpt>
      <trkpt lat="45.56112" lon="4.73752">
        <ele>309</ele>
        <time>2012-10-07T08:51:57Z</time>
      </trkpt>
      <trkpt lat="45.56115" lon="4.73751">
        <ele>308</ele>
        <time>2012-10-07T08:51:59Z</time>
      </trkpt>
      <trkpt lat="45.56117" lon="4.73749">
        <ele>308</ele>
        <time>2012-10-07T08:52:01Z</time>
      </trkpt>
      <trkpt lat="45.56119" lon="4.73748">
        <ele>308</ele>
        <time>2012-10-07T08:52:03Z</time>
      </trkpt>
      <trkpt lat="45.56121" lon="4.73747">
        <ele>308</ele>
        <time>2012-10-07T08:52:05Z</time>
      </trkpt>
      <trkpt lat="45.56123" lon="4.73745">
        <ele>307</ele>
        <time>2012-10-07T08:52:07Z</time>
      </trkpt>
      <trkpt lat="45.56126" lon="4.73744">
        <ele>307</ele>
        <time>2012-10-07T08:52:10Z</time>
      </trkpt>
      <trkpt lat="45.56128" lon="4.73743">
        <ele>307</ele>
        <time>2012-10-07T08:52:12Z</time>
      </trkpt>
      <trkpt lat="45.5613" lon="4.73742">
        <ele>307</ele>
        <time>2012-10-07T08:52:14Z</time>
      </trkpt>
      <trkpt lat="45.56132" lon="4.7374">
        <ele>307</ele>
        <time>2012-10-07T08:52:16Z</time>
      </trkpt>
      <trkpt lat="45.56135" lon="4.73738">
        <ele>307</ele>
        <time>2012-10-07T08:52:18Z</time>
      </trkpt>
      <trkpt lat="45.56137" lon="4.73737">
        <ele>307</ele>
        <time>2012-10-07T08:52:20Z</time>
      </trkpt>
      <trkpt lat="45.56139" lon="4.73736">
        <ele>307</ele>
        <time>2012-10-07T08:52:22Z</time>
      </trkpt>
      <trkpt lat="45.56141" lon="4.73734">
        <ele>307</ele>
        <time>2012-10-07T08:52:24Z</time>
      </trkpt>
      <trkpt lat="45.56143" lon="4.73733">
        <ele>307</ele>
        <time>2012-10-07T08:52:26Z</time>
      </trkpt>
      <trkpt lat="45.56145" lon="4.73731">
        <ele>307</ele>
        <time>2012-10-07T08:52:28Z</time>
      </trkpt>
      <trkpt lat="45.56147" lon="4.7373">
        <ele>307</ele>
        <time>2012-10-07T08:52:30Z</time>
      </trkpt>
      <trkpt lat="45.5615" lon="4.73729">
        <ele>306</ele>
        <time>2012-10-07T08:52:32Z</time>
      </trkpt>
      <trkpt lat="45.56152" lon="4.73727">
        <ele>306</ele>
        <time>2012-10-07T08:52:34Z</time>
      </trkpt>
      <trkpt lat="45.56154" lon="4.73726">
        <ele>306</ele>
        <time>2012-10-07T08:52:36Z</time>
      </trkpt>
      <trkpt lat="45.56156" lon="4.73725">
        <ele>305</ele>
        <time>2012-10-07T08:52:38Z</time>
      </trkpt>
      <trkpt lat="45.56158" lon="4.73723">
        <ele>305</ele>
        <time>2012-10-07T08:52:41Z</time>
      </trkpt>
      <trkpt lat="45.5616" lon="4.73722">
        <ele>305</ele>
        <time>2012-10-07T08:52:43Z</time>
      </trkpt>
      <trkpt lat="45.56163" lon="4.7372">
        <ele>305</ele>
        <time>2012-10-07T08:52:45Z</time>
      </trkpt>
      <trkpt lat="45.56165" lon="4.73719">
        <ele>305</ele>
        <time>2012-10-07T08:52:47Z</time>
      </trkpt>
      <trkpt lat="45.56167" lon="4.73717">
        <ele>305</ele>
        <time>2012-10-07T08:52:49Z</time>
      </trkpt>
      <trkpt lat="45.56168" lon="4.73716">
        <ele>305</ele>
        <time>2012-10-07T08:52:51Z</time>
      </trkpt>
      <trkpt lat="45.5617" lon="4.73714">
        <ele>305</ele>
        <time>2012-10-07T08:52:53Z</time>
      </trkpt>
      <trkpt lat="45.56172" lon="4.73712">
        <ele>305</ele>
        <time>2012-10-07T08:52:55Z</time>
      </trkpt>
      <trkpt lat="45.56174" lon="4.7371">
        <ele>304</ele>
        <time>2012-10-07T08:52:57Z</time>
      </trkpt>
      <trkpt lat="45.56176" lon="4.73709">
        <ele>304</ele>
        <time>2012-10-07T08:52:59Z</time>
      </trkpt>
      <trkpt lat="45.56178" lon="4.73707">
        <ele>304</ele>
        <time>2012-10-07T08:53:01Z</time>
      </trkpt>
      <trkpt lat="45.56179" lon="4.73705">
        <ele>304</ele>
        <time>2012-10-07T08:53:03Z</time>
      </trkpt>
      <trkpt lat="45.56181" lon="4.73703">
        <ele>304</ele>
        <time>2012-10-07T08:53:05Z</time>
      </trkpt>
      <trkpt lat="45.56183" lon="4.73701">
        <ele>304</ele>
        <time>2012-10-07T08:53:07Z</time>
      </trkpt>
      <trkpt lat="45.56184" lon="4.73698">
        <ele>303</ele>
        <time>2012-10-07T08:53:09Z</time>
      </trkpt>
      <trkpt lat="45.56186" lon="4.73696">
        <ele>303</ele>
        <time>2012-10-07T08:53:12Z</time>
      </trkpt>
      <trkpt lat="45.56187" lon="4.73693">
        <ele>303</ele>
        <time>2012-10-07T08:53:14Z</time>
      </trkpt>
      <trkpt lat="45.56188" lon="4.7369">
        <ele>303</ele>
        <time>2012-10-07T08:53:16Z</time>
      </trkpt>
      <trkpt lat="45.5619" lon="4.73687">
        <ele>303</ele>
        <time>2012-10-07T08:53:18Z</time>
      </trkpt>
      <trkpt lat="45.56192" lon="4.73684">
        <ele>303</ele>
        <time>2012-10-07T08:53:20Z</time>
      </trkpt>
      <trkpt lat="45.56194" lon="4.7368">
        <ele>303</ele>
        <time>2012-10-07T08:53:22Z</time>
      </trkpt>
      <trkpt lat="45.56195" lon="4.73677">
        <ele>303</ele>
        <time>2012-10-07T08:53:24Z</time>
      </trkpt>
      <trkpt lat="45.56196" lon="4.73675">
        <ele>303</ele>
        <time>2012-10-07T08:53:26Z</time>
      </trkpt>
      <trkpt lat="45.56197" lon="4.73672">
        <ele>303</ele>
        <time>2012-10-07T08:53:28Z</time>
      </trkpt>
      <trkpt lat="45.56199" lon="4.73669">
        <ele>303</ele>
        <time>2012-10-07T08:53:30Z</time>
      </trkpt>
      <trkpt lat="45.562" lon="4.73666">
        <ele>303</ele>
        <time>2012-10-07T08:53:32Z</time>
      </trkpt>
      <trkpt lat="45.56202" lon="4.73664">
        <ele>303</ele>
        <time>2012-10-07T08:53:35Z</time>
      </trkpt>
      <trkpt lat="45.56203" lon="4.73661">
        <ele>302</ele>
        <time>2012-10-07T08:53:37Z</time>
      </trkpt>
      <trkpt lat="45.56205" lon="4.73658">
        <ele>302</ele>
        <time>2012-10-07T08:53:39Z</time>
      </trkpt>
      <trkpt lat="45.56206" lon="4.73655">
        <ele>302</ele>
        <time>2012-10-07T08:53:41Z</time>
      </trkpt>
      <trkpt lat="45.56207" lon="4.73653">
        <ele>302</ele>
        <time>2012-10-07T08:53:43Z</time>
      </trkpt>
      <trkpt lat="45.56209" lon="4.7365">
        <ele>302</ele>
        <time>2012-10-07T08:53:45Z</time>
      </trkpt>
      <trkpt lat="45.5621" lon="4.73647">
        <ele>302</ele>
        <time>2012-10-07T08:53:47Z</time>
      </trkpt>
      <trkpt lat="45.56211" lon="4.73643">
        <ele>301</ele>
        <time>2012-10-07T08:53:49Z</time>
      </trkpt>
      <trkpt lat="45.56213" lon="4.7364">
        <ele>301</ele>
        <time>2012-10-07T08:53:51Z</time>
      </trkpt>
      <trkpt lat="45.56214" lon="4.73638">
        <ele>301</ele>
        <time>2012-10-07T08:53:53Z</time>
      </trkpt>
      <trkpt lat="45.56215" lon="4.73635">
        <ele>301</ele>
        <time>2012-10-07T08:53:55Z</time>
      </trkpt>
      <trkpt lat="45.56217" lon="4.73632">
        <ele>301</ele>
        <time>2012-10-07T08:53:57Z</time>
      </trkpt>
      <trkpt lat="45.56218" lon="4.7363">
        <ele>301</ele>
        <time>2012-10-07T08:53:59Z</time>
      </trkpt>
      <trkpt lat="45.56219" lon="4.73627">
        <ele>301</ele>
        <time>2012-10-07T08:54:01Z</time>
      </trkpt>
      <trkpt lat="45.5622" lon="4.73624">
        <ele>300</ele>
        <time>2012-10-07T08:54:03Z</time>
      </trkpt>
      <trkpt lat="45.56222" lon="4.73621">
        <ele>300</ele>
        <time>2012-10-07T08:54:06Z</time>
      </trkpt>
      <trkpt lat="45.56223" lon="4.73619">
        <ele>300</ele>
        <time>2012-10-07T08:54:08Z</time>
      </trkpt>
      <trkpt lat="45.56224" lon="4.73615">
        <ele>299</ele>
        <time>2012-10-07T08:54:10Z</time>
      </trkpt>
      <trkpt lat="45.56226" lon="4.73611">
        <ele>299</ele>
        <time>2012-10-07T08:54:12Z</time>
      </trkpt>
      <trkpt lat="45.56227" lon="4.73609">
        <ele>299</ele>
        <time>2012-10-07T08:54:14Z</time>
      </trkpt>
      <trkpt lat="45.56228" lon="4.73606">
        <ele>299</ele>
        <time>2012-10-07T08:54:16Z</time>
      </trkpt>
      <trkpt lat="45.56229" lon="4.73604">
        <ele>299</ele>
        <time>2012-10-07T08:54:18Z</time>
      </trkpt>
      <trkpt lat="45.56231" lon="4.73601">
        <ele>298</ele>
        <time>2012-10-07T08:54:20Z</time>
      </trkpt>
      <trkpt lat="45.56232" lon="4.73598">
        <ele>298</ele>
        <time>2012-10-07T08:54:22Z</time>
      </trkpt>
      <trkpt lat="45.56233" lon="4.73595">
        <ele>298</ele>
        <time>2012-10-07T08:54:24Z</time>
      </trkpt>
      <trkpt lat="45.56234" lon="4.73592">
        <ele>298</ele>
        <time>2012-10-07T08:54:26Z</time>
      </trkpt>
      <trkpt lat="45.56234" lon="4.73589">
        <ele>298</ele>
        <time>2012-10-07T08:54:28Z</time>
      </trkpt>
      <trkpt lat="45.56236" lon="4.73587">
        <ele>298</ele>
        <time>2012-10-07T08:54:31Z</time>
      </trkpt>
      <trkpt lat="45.56236" lon="4.73584">
        <ele>297</ele>
        <time>2012-10-07T08:54:33Z</time>
      </trkpt>
      <trkpt lat="45.56237" lon="4.73581">
        <ele>297</ele>
        <time>2012-10-07T08:54:35Z</time>
      </trkpt>
      <trkpt lat="45.56239" lon="4.73579">
        <ele>297</ele>
        <time>2012-10-07T08:54:37Z</time>
      </trkpt>
      <trkpt lat="45.56239" lon="4.73576">
        <ele>297</ele>
        <time>2012-10-07T08:54:39Z</time>
      </trkpt>
      <trkpt lat="45.56241" lon="4.73573">
        <ele>297</ele>
        <time>2012-10-07T08:54:41Z</time>
      </trkpt>
      <trkpt lat="45.56242" lon="4.73569">
        <ele>296</ele>
        <time>2012-10-07T08:54:43Z</time>
      </trkpt>
      <trkpt lat="45.56243" lon="4.73567">
        <ele>296</ele>
        <time>2012-10-07T08:54:45Z</time>
      </trkpt>
      <trkpt lat="45.56245" lon="4.73564">
        <ele>296</ele>
        <time>2012-10-07T08:54:47Z</time>
      </trkpt>
      <trkpt lat="45.56246" lon="4.73561">
        <ele>296</ele>
        <time>2012-10-07T08:54:49Z</time>
      </trkpt>
      <trkpt lat="45.56247" lon="4.73559">
        <ele>296</ele>
        <time>2012-10-07T08:54:51Z</time>
      </trkpt>
      <trkpt lat="45.56248" lon="4.73556">
        <ele>295</ele>
        <time>2012-10-07T08:54:53Z</time>
      </trkpt>
      <trkpt lat="45.5625" lon="4.73554">
        <ele>295</ele>
        <time>2012-10-07T08:54:55Z</time>
      </trkpt>
      <trkpt lat="45.56251" lon="4.73551">
        <ele>295</ele>
        <time>2012-10-07T08:54:57Z</time>
      </trkpt>
      <trkpt lat="45.56252" lon="4.73548">
        <ele>295</ele>
        <time>2012-10-07T08:54:59Z</time>
      </trkpt>
      <trkpt lat="45.56253" lon="4.73545">
        <ele>294</ele>
        <time>2012-10-07T08:55:01Z</time>
      </trkpt>
      <trkpt lat="45.56254" lon="4.73542">
        <ele>294</ele>
        <time>2012-10-07T08:55:04Z</time>
      </trkpt>
      <trkpt lat="45.56255" lon="4.7354">
        <ele>294</ele>
        <time>2012-10-07T08:55:06Z</time>
      </trkpt>
      <trkpt lat="45.56257" lon="4.73537">
        <ele>293</ele>
        <time>2012-10-07T08:55:08Z</time>
      </trkpt>
      <trkpt lat="45.56259" lon="4.73534">
        <ele>293</ele>
        <time>2012-10-07T08:55:10Z</time>
      </trkpt>
      <trkpt lat="45.56261" lon="4.73531">
        <ele>293</ele>
        <time>2012-10-07T08:55:12Z</time>
      </trkpt>
      <trkpt lat="45.56262" lon="4.73528">
        <ele>292</ele>
        <time>2012-10-07T08:55:14Z</time>
      </trkpt>
      <trkpt lat="45.56264" lon="4.73524">
        <ele>292</ele>
        <time>2012-10-07T08:55:16Z</time>
      </trkpt>
      <trkpt lat="45.56266" lon="4.73521">
        <ele>292</ele>
        <time>2012-10-07T08:55:18Z</time>
      </trkpt>
      <trkpt lat="45.56267" lon="4.73518">
        <ele>292</ele>
        <time>2012-10-07T08:55:20Z</time>
      </trkpt>
      <trkpt lat="45.56269" lon="4.73516">
        <ele>292</ele>
        <time>2012-10-07T08:55:22Z</time>
      </trkpt>
      <trkpt lat="45.56271" lon="4.73513">
        <ele>291</ele>
        <time>2012-10-07T08:55:24Z</time>
      </trkpt>
      <trkpt lat="45.56272" lon="4.7351">
        <ele>291</ele>
        <time>2012-10-07T08:55:27Z</time>
      </trkpt>
      <trkpt lat="45.56273" lon="4.73507">
        <ele>291</ele>
        <time>2012-10-07T08:55:29Z</time>
      </trkpt>
      <trkpt lat="45.56274" lon="4.73504">
        <ele>291</ele>
        <time>2012-10-07T08:55:31Z</time>
      </trkpt>
      <trkpt lat="45.56276" lon="4.73501">
        <ele>290</ele>
        <time>2012-10-07T08:55:33Z</time>
      </trkpt>
      <trkpt lat="45.56277" lon="4.73498">
        <ele>290</ele>
        <time>2012-10-07T08:55:35Z</time>
      </trkpt>
      <trkpt lat="45.56278" lon="4.73495">
        <ele>290</ele>
        <time>2012-10-07T08:55:37Z</time>
      </trkpt>
      <trkpt lat="45.56279" lon="4.73492">
        <ele>290</ele>
        <time>2012-10-07T08:55:39Z</time>
      </trkpt>
      <trkpt lat="45.5628" lon="4.73488">
        <ele>290</ele>
        <time>2012-10-07T08:55:41Z</time>
      </trkpt>
      <trkpt lat="45.56281" lon="4.73485">
        <ele>290</ele>
        <time>2012-10-07T08:55:43Z</time>
      </trkpt>
      <trkpt lat="45.56281" lon="4.73482">
        <ele>290</ele>
        <time>2012-10-07T08:55:45Z</time>
      </trkpt>
      <trkpt lat="45.56282" lon="4.73479">
        <ele>289</ele>
        <time>2012-10-07T08:55:47Z</time>
      </trkpt>
      <trkpt lat="45.56283" lon="4.73476">
        <ele>289</ele>
        <time>2012-10-07T08:55:49Z</time>
      </trkpt>
      <trkpt lat="45.56284" lon="4.73473">
        <ele>289</ele>
        <time>2012-10-07T08:55:51Z</time>
      </trkpt>
      <trkpt lat="45.56285" lon="4.73469">
        <ele>288</ele>
        <time>2012-10-07T08:55:53Z</time>
      </trkpt>
      <trkpt lat="45.56285" lon="4.73466">
        <ele>288</ele>
        <time>2012-10-07T08:55:55Z</time>
      </trkpt>
      <trkpt lat="45.56286" lon="4.73462">
        <ele>288</ele>
        <time>2012-10-07T08:55:57Z</time>
      </trkpt>
      <trkpt lat="45.56286" lon="4.73459">
        <ele>287</ele>
        <time>2012-10-07T08:56:00Z</time>
      </trkpt>
      <trkpt lat="45.56287" lon="4.73456">
        <ele>287</ele>
        <time>2012-10-07T08:56:02Z</time>
      </trkpt>
      <trkpt lat="45.56287" lon="4.73453">
        <ele>287</ele>
        <time>2012-10-07T08:56:04Z</time>
      </trkpt>
      <trkpt lat="45.56287" lon="4.73449">
        <ele>287</ele>
        <time>2012-10-07T08:56:06Z</time>
      </trkpt>
      <trkpt lat="45.56287" lon="4.73444">
        <ele>287</ele>
        <time>2012-10-07T08:56:08Z</time>
      </trkpt>
      <trkpt lat="45.56287" lon="4.7344">
        <ele>287</ele>
        <time>2012-10-07T08:56:10Z</time>
      </trkpt>
      <trkpt lat="45.56287" lon="4.73437">
        <ele>287</ele>
        <time>2012-10-07T08:56:12Z</time>
      </trkpt>
      <trkpt lat="45.56288" lon="4.73433">
        <ele>287</ele>
        <time>2012-10-07T08:56:14Z</time>
      </trkpt>
      <trkpt lat="45.56289" lon="4.73429">
        <ele>287</ele>
        <time>2012-10-07T08:56:16Z</time>
      </trkpt>
      <trkpt lat="45.5629" lon="4.73426">
        <ele>287</ele>
        <time>2012-10-07T08:56:19Z</time>
      </trkpt>
      <trkpt lat="45.56291" lon="4.73422">
        <ele>287</ele>
        <time>2012-10-07T08:56:21Z</time>
      </trkpt>
      <trkpt lat="45.56292" lon="4.73419">
        <ele>287</ele>
        <time>2012-10-07T08:56:23Z</time>
      </trkpt>
      <trkpt lat="45.56292" lon="4.73415">
        <ele>287</ele>
        <time>2012-10-07T08:56:25Z</time>
      </trkpt>
      <trkpt lat="45.56293" lon="4.7341">
        <ele>287</ele>
        <time>2012-10-07T08:56:27Z</time>
      </trkpt>
      <trkpt lat="45.56294" lon="4.73406">
        <ele>286</ele>
        <time>2012-10-07T08:56:29Z</time>
      </trkpt>
      <trkpt lat="45.56295" lon="4.73403">
        <ele>286</ele>
        <time>2012-10-07T08:56:31Z</time>
      </trkpt>
      <trkpt lat="45.56295" lon="4.73399">
        <ele>286</ele>
        <time>2012-10-07T08:56:33Z</time>
      </trkpt>
      <trkpt lat="45.56296" lon="4.73396">
        <ele>286</ele>
        <time>2012-10-07T08:56:36Z</time>
      </trkpt>
      <trkpt lat="45.56296" lon="4.73393">
        <ele>286</ele>
        <time>2012-10-07T08:56:38Z</time>
      </trkpt>
      <trkpt lat="45.56297" lon="4.73389">
        <ele>286</ele>
        <time>2012-10-07T08:56:40Z</time>
      </trkpt>
      <trkpt lat="45.56298" lon="4.73386">
        <ele>286</ele>
        <time>2012-10-07T08:56:42Z</time>
      </trkpt>
      <trkpt lat="45.56299" lon="4.73382">
        <ele>286</ele>
        <time>2012-10-07T08:56:44Z</time>
      </trkpt>
      <trkpt lat="45.563" lon="4.73378">
        <ele>286</ele>
        <time>2012-10-07T08:56:46Z</time>
      </trkpt>
      <trkpt lat="45.56301" lon="4.73375">
        <ele>286</ele>
        <time>2012-10-07T08:56:48Z</time>
      </trkpt>
      <trkpt lat="45.56302" lon="4.73372">
        <ele>286</ele>
        <time>2012-10-07T08:56:50Z</time>
      </trkpt>
      <trkpt lat="45.56303" lon="4.73369">
        <ele>285</ele>
        <time>2012-10-07T08:56:52Z</time>
      </trkpt>
      <trkpt lat="45.56303" lon="4.73366">
        <ele>285</ele>
        <time>2012-10-07T08:56:54Z</time>
      </trkpt>
      <trkpt lat="45.56304" lon="4.73362">
        <ele>285</ele>
        <time>2012-10-07T08:56:56Z</time>
      </trkpt>
      <trkpt lat="45.56304" lon="4.73359">
        <ele>286</ele>
        <time>2012-10-07T08:56:58Z</time>
      </trkpt>
      <trkpt lat="45.56305" lon="4.73356">
        <ele>286</ele>
        <time>2012-10-07T08:57:01Z</time>
      </trkpt>
      <trkpt lat="45.56305" lon="4.73353">
        <ele>285</ele>
        <time>2012-10-07T08:57:03Z</time>
      </trkpt>
      <trkpt lat="45.56305" lon="4.7335">
        <ele>285</ele>
        <time>2012-10-07T08:57:05Z</time>
      </trkpt>
      <trkpt lat="45.56305" lon="4.73347">
        <ele>285</ele>
        <time>2012-10-07T08:57:07Z</time>
      </trkpt>
      <trkpt lat="45.56305" lon="4.73344">
        <ele>285</ele>
        <time>2012-10-07T08:57:09Z</time>
      </trkpt>
      <trkpt lat="45.56306" lon="4.7334">
        <ele>285</ele>
        <time>2012-10-07T08:57:11Z</time>
      </trkpt>
      <trkpt lat="45.56306" lon="4.73337">
        <ele>285</ele>
        <time>2012-10-07T08:57:13Z</time>
      </trkpt>
      <trkpt lat="45.56307" lon="4.73334">
        <ele>285</ele>
        <time>2012-10-07T08:57:15Z</time>
      </trkpt>
      <trkpt lat="45.56308" lon="4.73329">
        <ele>285</ele>
        <time>2012-10-07T08:57:17Z</time>
      </trkpt>
      <trkpt lat="45.56308" lon="4.73325">
        <ele>285</ele>
        <time>2012-10-07T08:57:19Z</time>
      </trkpt>
      <trkpt lat="45.56309" lon="4.73322">
        <ele>285</ele>
        <time>2012-10-07T08:57:21Z</time>
      </trkpt>
      <trkpt lat="45.56309" lon="4.73318">
        <ele>285</ele>
        <time>2012-10-07T08:57:23Z</time>
      </trkpt>
      <trkpt lat="45.5631" lon="4.73315">
        <ele>285</ele>
        <time>2012-10-07T08:57:25Z</time>
      </trkpt>
      <trkpt lat="45.5631" lon="4.73312">
        <ele>284</ele>
        <time>2012-10-07T08:57:27Z</time>
      </trkpt>
      <trkpt lat="45.56311" lon="4.73309">
        <ele>284</ele>
        <time>2012-10-07T08:57:29Z</time>
      </trkpt>
      <trkpt lat="45.56311" lon="4.73306">
        <ele>284</ele>
        <time>2012-10-07T08:57:32Z</time>
      </trkpt>
      <trkpt lat="45.56312" lon="4.73303">
        <ele>284</ele>
        <time>2012-10-07T08:57:34Z</time>
      </trkpt>
      <trkpt lat="45.56313" lon="4.733">
        <ele>284</ele>
        <time>2012-10-07T08:57:36Z</time>
      </trkpt>
      <trkpt lat="45.56314" lon="4.73296">
        <ele>284</ele>
        <time>2012-10-07T08:57:38Z</time>
      </trkpt>
      <trkpt lat="45.56315" lon="4.73293">
        <ele>284</ele>
        <time>2012-10-07T08:57:40Z</time>
      </trkpt>
      <trkpt lat="45.56316" lon="4.73289">
        <ele>284</ele>
        <time>2012-10-07T08:57:42Z</time>
      </trkpt>
      <trkpt lat="45.56317" lon="4.73286">
        <ele>284</ele>
        <time>2012-10-07T08:57:44Z</time>
      </trkpt>
      <trkpt lat="45.56318" lon="4.73283">
        <ele>284</ele>
        <time>2012-10-07T08:57:46Z</time>
      </trkpt>
      <trkpt lat="45.56319" lon="4.73278">
        <ele>283</ele>
        <time>2012-10-07T08:57:48Z</time>
      </trkpt>
      <trkpt lat="45.5632" lon="4.73275">
        <ele>283</ele>
        <time>2012-10-07T08:57:50Z</time>
      </trkpt>
      <trkpt lat="45.56321" lon="4.73272">
        <ele>284</ele>
        <time>2012-10-07T08:57:52Z</time>
      </trkpt>
      <trkpt lat="45.56322" lon="4.73269">
        <ele>283</ele>
        <time>2012-10-07T08:57:54Z</time>
      </trkpt>
      <trkpt lat="45.56323" lon="4.73265">
        <ele>283</ele>
        <time>2012-10-07T08:57:56Z</time>
      </trkpt>
      <trkpt lat="45.56324" lon="4.73263">
        <ele>283</ele>
        <time>2012-10-07T08:57:58Z</time>
      </trkpt>
      <trkpt lat="45.56324" lon="4.73259">
        <ele>283</ele>
        <time>2012-10-07T08:58:00Z</time>
      </trkpt>
      <trkpt lat="45.56325" lon="4.73257">
        <ele>283</ele>
        <time>2012-10-07T08:58:02Z</time>
      </trkpt>
      <trkpt lat="45.56326" lon="4.73253">
        <ele>283</ele>
        <time>2012-10-07T08:58:04Z</time>
      </trkpt>
      <trkpt lat="45.56327" lon="4.73251">
        <ele>283</ele>
        <time>2012-10-07T08:58:06Z</time>
      </trkpt>
      <trkpt lat="45.56327" lon="4.73248">
        <ele>283</ele>
        <time>2012-10-07T08:58:08Z</time>
      </trkpt>
      <trkpt lat="45.56328" lon="4.73245">
        <ele>283</ele>
        <time>2012-10-07T08:58:10Z</time>
      </trkpt>
      <trkpt lat="45.56328" lon="4.73242">
        <ele>283</ele>
        <time>2012-10-07T08:58:12Z</time>
      </trkpt>
      <trkpt lat="45.56329" lon="4.73239">
        <ele>283</ele>
        <time>2012-10-07T08:58:14Z</time>
      </trkpt>
      <trkpt lat="45.5633" lon="4.73236">
        <ele>283</ele>
        <time>2012-10-07T08:58:16Z</time>
      </trkpt>
      <trkpt lat="45.5633" lon="4.73233">
        <ele>283</ele>
        <time>2012-10-07T08:58:19Z</time>
      </trkpt>
      <trkpt lat="45.56331" lon="4.7323">
        <ele>283</ele>
        <time>2012-10-07T08:58:21Z</time>
      </trkpt>
      <trkpt lat="45.56332" lon="4.73228">
        <ele>283</ele>
        <time>2012-10-07T08:58:23Z</time>
      </trkpt>
      <trkpt lat="45.56333" lon="4.73225">
        <ele>283</ele>
        <time>2012-10-07T08:58:25Z</time>
      </trkpt>
      <trkpt lat="45.56334" lon="4.73222">
        <ele>283</ele>
        <time>2012-10-07T08:58:27Z</time>
      </trkpt>
      <trkpt lat="45.56334" lon="4.73219">
        <ele>283</ele>
        <time>2012-10-07T08:58:29Z</time>
      </trkpt>
      <trkpt lat="45.56335" lon="4.73216">
        <ele>283</ele>
        <time>2012-10-07T08:58:31Z</time>
      </trkpt>
      <trkpt lat="45.56337" lon="4.73211">
        <ele>283</ele>
        <time>2012-10-07T08:58:33Z</time>
      </trkpt>
      <trkpt lat="45.56338" lon="4.73208">
        <ele>282</ele>
        <time>2012-10-07T08:58:35Z</time>
      </trkpt>
      <trkpt lat="45.56339" lon="4.73205">
        <ele>282</ele>
        <time>2012-10-07T08:58:37Z</time>
      </trkpt>
      <trkpt lat="45.56339" lon="4.73202">
        <ele>282</ele>
        <time>2012-10-07T08:58:39Z</time>
      </trkpt>
      <trkpt lat="45.5634" lon="4.732">
        <ele>282</ele>
        <time>2012-10-07T08:58:41Z</time>
      </trkpt>
      <trkpt lat="45.5634" lon="4.73197">
        <ele>282</ele>
        <time>2012-10-07T08:58:44Z</time>
      </trkpt>
      <trkpt lat="45.56341" lon="4.73194">
        <ele>282</ele>
        <time>2012-10-07T08:58:46Z</time>
      </trkpt>
      <trkpt lat="45.56342" lon="4.73191">
        <ele>282</ele>
        <time>2012-10-07T08:58:48Z</time>
      </trkpt>
      <trkpt lat="45.56342" lon="4.73188">
        <ele>282</ele>
        <time>2012-10-07T08:58:50Z</time>
      </trkpt>
      <trkpt lat="45.56343" lon="4.73185">
        <ele>282</ele>
        <time>2012-10-07T08:58:52Z</time>
      </trkpt>
      <trkpt lat="45.56343" lon="4.73182">
        <ele>282</ele>
        <time>2012-10-07T08:58:54Z</time>
      </trkpt>
      <trkpt lat="45.56344" lon="4.73179">
        <ele>281</ele>
        <time>2012-10-07T08:58:56Z</time>
      </trkpt>
      <trkpt lat="45.56345" lon="4.73174">
        <ele>282</ele>
        <time>2012-10-07T08:58:58Z</time>
      </trkpt>
      <trkpt lat="45.56345" lon="4.7317">
        <ele>281</ele>
        <time>2012-10-07T08:59:00Z</time>
      </trkpt>
      <trkpt lat="45.56346" lon="4.73167">
        <ele>281</ele>
        <time>2012-10-07T08:59:02Z</time>
      </trkpt>
      <trkpt lat="45.56347" lon="4.73164">
        <ele>282</ele>
        <time>2012-10-07T08:59:04Z</time>
      </trkpt>
      <trkpt lat="45.56347" lon="4.73161">
        <ele>282</ele>
        <time>2012-10-07T08:59:06Z</time>
      </trkpt>
      <trkpt lat="45.56348" lon="4.73158">
        <ele>281</ele>
        <time>2012-10-07T08:59:08Z</time>
      </trkpt>
      <trkpt lat="45.56348" lon="4.73154">
        <ele>281</ele>
        <time>2012-10-07T08:59:10Z</time>
      </trkpt>
      <trkpt lat="45.56349" lon="4.73151">
        <ele>281</ele>
        <time>2012-10-07T08:59:13Z</time>
      </trkpt>
      <trkpt lat="45.56349" lon="4.73148">
        <ele>281</ele>
        <time>2012-10-07T08:59:15Z</time>
      </trkpt>
      <trkpt lat="45.56349" lon="4.73145">
        <ele>281</ele>
        <time>2012-10-07T08:59:17Z</time>
      </trkpt>
      <trkpt lat="45.5635" lon="4.73142">
        <ele>281</ele>
        <time>2012-10-07T08:59:19Z</time>
      </trkpt>
      <trkpt lat="45.56351" lon="4.73138">
        <ele>281</ele>
        <time>2012-10-07T08:59:21Z</time>
      </trkpt>
      <trkpt lat="45.56351" lon="4.73134">
        <ele>281</ele>
        <time>2012-10-07T08:59:23Z</time>
      </trkpt>
      <trkpt lat="45.56351" lon="4.7313">
        <ele>281</ele>
        <time>2012-10-07T08:59:25Z</time>
      </trkpt>
      <trkpt lat="45.56351" lon="4.73127">
        <ele>281</ele>
        <time>2012-10-07T08:59:27Z</time>
      </trkpt>
      <trkpt lat="45.56351" lon="4.73122">
        <ele>281</ele>
        <time>2012-10-07T08:59:29Z</time>
      </trkpt>
      <trkpt lat="45.56352" lon="4.73117">
        <ele>281</ele>
        <time>2012-10-07T08:59:31Z</time>
      </trkpt>
      <trkpt lat="45.56351" lon="4.73113">
        <ele>281</ele>
        <time>2012-10-07T08:59:33Z</time>
      </trkpt>
      <trkpt lat="45.56351" lon="4.7311">
        <ele>280</ele>
        <time>2012-10-07T08:59:36Z</time>
      </trkpt>
      <trkpt lat="45.56351" lon="4.73109">
        <ele>280</ele>
        <time>2012-10-07T08:59:38Z</time>
      </trkpt>
      <trkpt lat="45.56351" lon="4.73105">
        <ele>280</ele>
        <time>2012-10-07T08:59:40Z</time>
      </trkpt>
      <trkpt lat="45.56351" lon="4.73102">
        <ele>280</ele>
        <time>2012-10-07T08:59:42Z</time>
      </trkpt>
      <trkpt lat="45.56351" lon="4.73099">
        <ele>280</ele>
        <time>2012-10-07T08:59:44Z</time>
      </trkpt>
      <trkpt lat="45.56352" lon="4.73095">
        <ele>280</ele>
        <time>2012-10-07T08:59:46Z</time>
      </trkpt>
      <trkpt lat="45.56352" lon="4.7309">
        <ele>280</ele>
        <time>2012-10-07T08:59:48Z</time>
      </trkpt>
      <trkpt lat="45.56352" lon="4.73087">
        <ele>280</ele>
        <time>2012-10-07T08:59:50Z</time>
      </trkpt>
      <trkpt lat="45.56351" lon="4.73083">
        <ele>280</ele>
        <time>2012-10-07T08:59:52Z</time>
      </trkpt>
      <trkpt lat="45.56352" lon="4.73078">
        <ele>279</ele>
        <time>2012-10-07T08:59:54Z</time>
      </trkpt>
      <trkpt lat="45.56352" lon="4.7307">
        <ele>279</ele>
        <time>2012-10-07T08:59:57Z</time>
      </trkpt>
      <trkpt lat="45.56352" lon="4.73061">
        <ele>279</ele>
        <time>2012-10-07T08:59:59Z</time>
      </trkpt>
      <trkpt lat="45.56351" lon="4.73049">
        <ele>279</ele>
        <time>2012-10-07T09:00:01Z</time>
      </trkpt>
      <trkpt lat="45.56351" lon="4.7304">
        <ele>279</ele>
        <time>2012-10-07T09:00:03Z</time>
      </trkpt>
      <trkpt lat="45.56351" lon="4.73032">
        <ele>278</ele>
        <time>2012-10-07T09:00:05Z</time>
      </trkpt>
      <trkpt lat="45.5635" lon="4.73025">
        <ele>278</ele>
        <time>2012-10-07T09:00:07Z</time>
      </trkpt>
      <trkpt lat="45.56349" lon="4.73017">
        <ele>278</ele>
        <time>2012-10-07T09:00:09Z</time>
      </trkpt>
      <trkpt lat="45.56349" lon="4.7301">
        <ele>277</ele>
        <time>2012-10-07T09:00:12Z</time>
      </trkpt>
      <trkpt lat="45.5635" lon="4.73003">
        <ele>277</ele>
        <time>2012-10-07T09:00:14Z</time>
      </trkpt>
      <trkpt lat="45.56352" lon="4.72999">
        <ele>276</ele>
        <time>2012-10-07T09:00:16Z</time>
      </trkpt>
      <trkpt lat="45.56353" lon="4.72995">
        <ele>276</ele>
        <time>2012-10-07T09:00:18Z</time>
      </trkpt>
      <trkpt lat="45.56356" lon="4.72992">
        <ele>276</ele>
        <time>2012-10-07T09:00:20Z</time>
      </trkpt>
      <trkpt lat="45.56357" lon="4.72987">
        <ele>276</ele>
        <time>2012-10-07T09:00:22Z</time>
      </trkpt>
      <trkpt lat="45.56357" lon="4.7298">
        <ele>275</ele>
        <time>2012-10-07T09:00:24Z</time>
      </trkpt>
      <trkpt lat="45.56355" lon="4.72975">
        <ele>275</ele>
        <time>2012-10-07T09:00:26Z</time>
      </trkpt>
      <trkpt lat="45.56351" lon="4.7297">
        <ele>276</ele>
        <time>2012-10-07T09:00:28Z</time>
      </trkpt>
      <trkpt lat="45.56348" lon="4.72966">
        <ele>276</ele>
        <time>2012-10-07T09:00:30Z</time>
      </trkpt>
      <trkpt lat="45.56344" lon="4.72962">
        <ele>276</ele>
        <time>2012-10-07T09:00:32Z</time>
      </trkpt>
      <trkpt lat="45.56341" lon="4.72958">
        <ele>276</ele>
        <time>2012-10-07T09:00:34Z</time>
      </trkpt>
      <trkpt lat="45.56337" lon="4.72954">
        <ele>275</ele>
        <time>2012-10-07T09:00:36Z</time>
      </trkpt>
      <trkpt lat="45.56334" lon="4.72952">
        <ele>275</ele>
        <time>2012-10-07T09:00:39Z</time>
      </trkpt>
      <trkpt lat="45.56331" lon="4.7295">
        <ele>274</ele>
        <time>2012-10-07T09:00:41Z</time>
      </trkpt>
      <trkpt lat="45.56329" lon="4.72948">
        <ele>273</ele>
        <time>2012-10-07T09:00:43Z</time>
      </trkpt>
      <trkpt lat="45.56327" lon="4.72946">
        <ele>272</ele>
        <time>2012-10-07T09:00:45Z</time>
      </trkpt>
      <trkpt lat="45.56326" lon="4.72943">
        <ele>271</ele>
        <time>2012-10-07T09:00:47Z</time>
      </trkpt>
      <trkpt lat="45.56324" lon="4.72941">
        <ele>271</ele>
        <time>2012-10-07T09:00:49Z</time>
      </trkpt>
      <trkpt lat="45.56323" lon="4.72939">
        <ele>271</ele>
        <time>2012-10-07T09:00:51Z</time>
      </trkpt>
      <trkpt lat="45.56321" lon="4.72937">
        <ele>270</ele>
        <time>2012-10-07T09:00:53Z</time>
      </trkpt>
      <trkpt lat="45.56321" lon="4.72935">
        <ele>270</ele>
        <time>2012-10-07T09:00:55Z</time>
      </trkpt>
      <trkpt lat="45.56319" lon="4.72933">
        <ele>270</ele>
        <time>2012-10-07T09:00:57Z</time>
      </trkpt>
      <trkpt lat="45.56318" lon="4.72931">
        <ele>269</ele>
        <time>2012-10-07T09:00:59Z</time>
      </trkpt>
      <trkpt lat="45.56318" lon="4.72931">
        <ele>269</ele>
        <time>2012-10-07T09:01:01Z</time>
      </trkpt>
      <trkpt lat="45.56317" lon="4.7293">
        <ele>269</ele>
        <time>2012-10-07T09:01:04Z</time>
      </trkpt>
      <trkpt lat="45.56317" lon="4.72928">
        <ele>269</ele>
        <time>2012-10-07T09:01:06Z</time>
      </trkpt>
      <trkpt lat="45.56316" lon="4.72927">
        <ele>269</ele>
        <time>2012-10-07T09:01:08Z</time>
      </trkpt>
      <trkpt lat="45.56316" lon="4.72926">
        <ele>268</ele>
        <time>2012-10-07T09:01:10Z</time>
      </trkpt>
      <trkpt lat="45.56315" lon="4.72924">
        <ele>268</ele>
        <time>2012-10-07T09:01:12Z</time>
      </trkpt>
      <trkpt lat="45.56314" lon="4.72923">
        <ele>267</ele>
        <time>2012-10-07T09:01:14Z</time>
      </trkpt>
      <trkpt lat="45.56313" lon="4.72921">
        <ele>267</ele>
        <time>2012-10-07T09:01:16Z</time>
      </trkpt>
      <trkpt lat="45.56313" lon="4.7292">
        <ele>266</ele>
        <time>2012-10-07T09:01:18Z</time>
      </trkpt>
      <trkpt lat="45.56311" lon="4.72918">
        <ele>266</ele>
        <time>2012-10-07T09:01:20Z</time>
      </trkpt>
      <trkpt lat="45.5631" lon="4.72918">
        <ele>266</ele>
        <time>2012-10-07T09:01:22Z</time>
      </trkpt>
      <trkpt lat="45.56309" lon="4.72916">
        <ele>265</ele>
        <time>2012-10-07T09:01:24Z</time>
      </trkpt>
      <trkpt lat="45.56308" lon="4.72915">
        <ele>265</ele>
        <time>2012-10-07T09:01:26Z</time>
      </trkpt>
      <trkpt lat="45.56308" lon="4.72915">
        <ele>265</ele>
        <time>2012-10-07T09:01:28Z</time>
      </trkpt>
      <trkpt lat="45.56307" lon="4.72914">
        <ele>265</ele>
        <time>2012-10-07T09:01:31Z</time>
      </trkpt>
      <trkpt lat="45.56306" lon="4.72913">
        <ele>265</ele>
        <time>2012-10-07T09:01:33Z</time>
      </trkpt>
      <trkpt lat="45.56304" lon="4.72911">
        <ele>264</ele>
        <time>2012-10-07T09:01:35Z</time>
      </trkpt>
      <trkpt lat="45.56303" lon="4.7291">
        <ele>264</ele>
        <time>2012-10-07T09:01:37Z</time>
      </trkpt>
      <trkpt lat="45.56301" lon="4.72908">
        <ele>264</ele>
        <time>2012-10-07T09:01:39Z</time>
      </trkpt>
      <trkpt lat="45.563" lon="4.72907">
        <ele>263</ele>
        <time>2012-10-07T09:01:41Z</time>
      </trkpt>
      <trkpt lat="45.56299" lon="4.72906">
        <ele>263</ele>
        <time>2012-10-07T09:01:43Z</time>
      </trkpt>
      <trkpt lat="45.56298" lon="4.72904">
        <ele>262</ele>
        <time>2012-10-07T09:01:46Z</time>
      </trkpt>
      <trkpt lat="45.56297" lon="4.72902">
        <ele>261</ele>
        <time>2012-10-07T09:01:48Z</time>
      </trkpt>
      <trkpt lat="45.56295" lon="4.72901">
        <ele>261</ele>
        <time>2012-10-07T09:01:50Z</time>
      </trkpt>
      <trkpt lat="45.56293" lon="4.72898">
        <ele>261</ele>
        <time>2012-10-07T09:01:52Z</time>
      </trkpt>
      <trkpt lat="45.56292" lon="4.72896">
        <ele>261</ele>
        <time>2012-10-07T09:01:54Z</time>
      </trkpt>
      <trkpt lat="45.56291" lon="4.72896">
        <ele>261</ele>
        <time>2012-10-07T09:01:56Z</time>
      </trkpt>
      <trkpt lat="45.5629" lon="4.72895">
        <ele>261</ele>
        <time>2012-10-07T09:01:58Z</time>
      </trkpt>
      <trkpt lat="45.56289" lon="4.72894">
        <ele>260</ele>
        <time>2012-10-07T09:02:00Z</time>
      </trkpt>
      <trkpt lat="45.56288" lon="4.72893">
        <ele>260</ele>
        <time>2012-10-07T09:02:02Z</time>
      </trkpt>
      <trkpt lat="45.56287" lon="4.72891">
        <ele>259</ele>
        <time>2012-10-07T09:02:04Z</time>
      </trkpt>
      <trkpt lat="45.56285" lon="4.72889">
        <ele>259</ele>
        <time>2012-10-07T09:02:06Z</time>
      </trkpt>
      <trkpt lat="45.56284" lon="4.72887">
        <ele>258</ele>
        <time>2012-10-07T09:02:08Z</time>
      </trkpt>
      <trkpt lat="45.56283" lon="4.72886">
        <ele>258</ele>
        <time>2012-10-07T09:02:11Z</time>
      </trkpt>
      <trkpt lat="45.56282" lon="4.72885">
        <ele>257</ele>
        <time>2012-10-07T09:02:13Z</time>
      </trkpt>
      <trkpt lat="45.56281" lon="4.72883">
        <ele>257</ele>
        <time>2012-10-07T09:02:15Z</time>
      </trkpt>
      <trkpt lat="45.56279" lon="4.72881">
        <ele>257</ele>
        <time>2012-10-07T09:02:17Z</time>
      </trkpt>
      <trkpt lat="45.56278" lon="4.7288">
        <ele>256</ele>
        <time>2012-10-07T09:02:19Z</time>
      </trkpt>
      <trkpt lat="45.56277" lon="4.7288">
        <ele>256</ele>
        <time>2012-10-07T09:02:21Z</time>
      </trkpt>
      <trkpt lat="45.56276" lon="4.72879">
        <ele>256</ele>
        <time>2012-10-07T09:02:23Z</time>
      </trkpt>
      <trkpt lat="45.56275" lon="4.72877">
        <ele>256</ele>
        <time>2012-10-07T09:02:25Z</time>
      </trkpt>
      <trkpt lat="45.56273" lon="4.72876">
        <ele>255</ele>
        <time>2012-10-07T09:02:27Z</time>
      </trkpt>
      <trkpt lat="45.56272" lon="4.72875">
        <ele>255</ele>
        <time>2012-10-07T09:02:29Z</time>
      </trkpt>
      <trkpt lat="45.56271" lon="4.72873">
        <ele>255</ele>
        <time>2012-10-07T09:02:31Z</time>
      </trkpt>
      <trkpt lat="45.56268" lon="4.72871">
        <ele>255</ele>
        <time>2012-10-07T09:02:33Z</time>
      </trkpt>
      <trkpt lat="45.56267" lon="4.72869">
        <ele>254</ele>
        <time>2012-10-07T09:02:35Z</time>
      </trkpt>
      <trkpt lat="45.56265" lon="4.72867">
        <ele>253</ele>
        <time>2012-10-07T09:02:37Z</time>
      </trkpt>
      <trkpt lat="45.56263" lon="4.72865">
        <ele>253</ele>
        <time>2012-10-07T09:02:40Z</time>
      </trkpt>
      <trkpt lat="45.56261" lon="4.72863">
        <ele>253</ele>
        <time>2012-10-07T09:02:42Z</time>
      </trkpt>
      <trkpt lat="45.56259" lon="4.72861">
        <ele>253</ele>
        <time>2012-10-07T09:02:44Z</time>
      </trkpt>
      <trkpt lat="45.56257" lon="4.72859">
        <ele>252</ele>
        <time>2012-10-07T09:02:46Z</time>
      </trkpt>
      <trkpt lat="45.56256" lon="4.72858">
        <ele>252</ele>
        <time>2012-10-07T09:02:48Z</time>
      </trkpt>
      <trkpt lat="45.56254" lon="4.72857">
        <ele>251</ele>
        <time>2012-10-07T09:02:50Z</time>
      </trkpt>
      <trkpt lat="45.56251" lon="4.72855">
        <ele>251</ele>
        <time>2012-10-07T09:02:52Z</time>
      </trkpt>
      <trkpt lat="45.5625" lon="4.72853">
        <ele>250</ele>
        <time>2012-10-07T09:02:54Z</time>
      </trkpt>
      <trkpt lat="45.56248" lon="4.72853">
        <ele>250</ele>
        <time>2012-10-07T09:02:56Z</time>
      </trkpt>
      <trkpt lat="45.56247" lon="4.72852">
        <ele>250</ele>
        <time>2012-10-07T09:02:58Z</time>
      </trkpt>
      <trkpt lat="45.56245" lon="4.72851">
        <ele>250</ele>
        <time>2012-10-07T09:03:00Z</time>
      </trkpt>
      <trkpt lat="45.56243" lon="4.72851">
        <ele>250</ele>
        <time>2012-10-07T09:03:02Z</time>
      </trkpt>
      <trkpt lat="45.56241" lon="4.7285">
        <ele>249</ele>
        <time>2012-10-07T09:03:04Z</time>
      </trkpt>
      <trkpt lat="45.56239" lon="4.72849">
        <ele>249</ele>
        <time>2012-10-07T09:03:06Z</time>
      </trkpt>
      <trkpt lat="45.56237" lon="4.72849">
        <ele>249</ele>
        <time>2012-10-07T09:03:08Z</time>
      </trkpt>
      <trkpt lat="45.56236" lon="4.72849">
        <ele>248</ele>
        <time>2012-10-07T09:03:10Z</time>
      </trkpt>
      <trkpt lat="45.56235" lon="4.72848">
        <ele>248</ele>
        <time>2012-10-07T09:03:13Z</time>
      </trkpt>
      <trkpt lat="45.56233" lon="4.72847">
        <ele>247</ele>
        <time>2012-10-07T09:03:15Z</time>
      </trkpt>
      <trkpt lat="45.56231" lon="4.72847">
        <ele>247</ele>
        <time>2012-10-07T09:03:17Z</time>
      </trkpt>
      <trkpt lat="45.56229" lon="4.72847">
        <ele>247</ele>
        <time>2012-10-07T09:03:19Z</time>
      </trkpt>
      <trkpt lat="45.56228" lon="4.72846">
        <ele>247</ele>
        <time>2012-10-07T09:03:21Z</time>
      </trkpt>
      <trkpt lat="45.56226" lon="4.72847">
        <ele>247</ele>
        <time>2012-10-07T09:03:23Z</time>
      </trkpt>
      <trkpt lat="45.56224" lon="4.72848">
        <ele>247</ele>
        <time>2012-10-07T09:03:25Z</time>
      </trkpt>
      <trkpt lat="45.56223" lon="4.72848">
        <ele>246</ele>
        <time>2012-10-07T09:03:27Z</time>
      </trkpt>
      <trkpt lat="45.56222" lon="4.72848">
        <ele>246</ele>
        <time>2012-10-07T09:03:29Z</time>
      </trkpt>
      <trkpt lat="45.5622" lon="4.72848">
        <ele>246</ele>
        <time>2012-10-07T09:03:31Z</time>
      </trkpt>
      <trkpt lat="45.56218" lon="4.72848">
        <ele>245</ele>
        <time>2012-10-07T09:03:33Z</time>
      </trkpt>
      <trkpt lat="45.56216" lon="4.72848">
        <ele>245</ele>
        <time>2012-10-07T09:03:35Z</time>
      </trkpt>
      <trkpt lat="45.56215" lon="4.72849">
        <ele>244</ele>
        <time>2012-10-07T09:03:37Z</time>
      </trkpt>
      <trkpt lat="45.56214" lon="4.7285">
        <ele>244</ele>
        <time>2012-10-07T09:03:39Z</time>
      </trkpt>
      <trkpt lat="45.56212" lon="4.72851">
        <ele>243</ele>
        <time>2012-10-07T09:03:42Z</time>
      </trkpt>
      <trkpt lat="45.56211" lon="4.72852">
        <ele>243</ele>
        <time>2012-10-07T09:03:44Z</time>
      </trkpt>
      <trkpt lat="45.56209" lon="4.72853">
        <ele>243</ele>
        <time>2012-10-07T09:03:46Z</time>
      </trkpt>
      <trkpt lat="45.56208" lon="4.72854">
        <ele>243</ele>
        <time>2012-10-07T09:03:48Z</time>
      </trkpt>
      <trkpt lat="45.56205" lon="4.72855">
        <ele>243</ele>
        <time>2012-10-07T09:03:50Z</time>
      </trkpt>
      <trkpt lat="45.56203" lon="4.72856">
        <ele>242</ele>
        <time>2012-10-07T09:03:52Z</time>
      </trkpt>
      <trkpt lat="45.56201" lon="4.72856">
        <ele>242</ele>
        <time>2012-10-07T09:03:54Z</time>
      </trkpt>
      <trkpt lat="45.562" lon="4.72858">
        <ele>242</ele>
        <time>2012-10-07T09:03:56Z</time>
      </trkpt>
      <trkpt lat="45.56198" lon="4.72859">
        <ele>242</ele>
        <time>2012-10-07T09:03:58Z</time>
      </trkpt>
      <trkpt lat="45.56196" lon="4.72861">
        <ele>241</ele>
        <time>2012-10-07T09:04:00Z</time>
      </trkpt>
      <trkpt lat="45.56195" lon="4.72862">
        <ele>241</ele>
        <time>2012-10-07T09:04:02Z</time>
      </trkpt>
      <trkpt lat="45.56194" lon="4.72863">
        <ele>241</ele>
        <time>2012-10-07T09:04:04Z</time>
      </trkpt>
      <trkpt lat="45.56192" lon="4.72864">
        <ele>240</ele>
        <time>2012-10-07T09:04:06Z</time>
      </trkpt>
      <trkpt lat="45.56191" lon="4.72865">
        <ele>240</ele>
        <time>2012-10-07T09:04:08Z</time>
      </trkpt>
      <trkpt lat="45.5619" lon="4.72866">
        <ele>240</ele>
        <time>2012-10-07T09:04:11Z</time>
      </trkpt>
      <trkpt lat="45.56188" lon="4.72867">
        <ele>240</ele>
        <time>2012-10-07T09:04:13Z</time>
      </trkpt>
      <trkpt lat="45.56187" lon="4.72869">
        <ele>239</ele>
        <time>2012-10-07T09:04:15Z</time>
      </trkpt>
      <trkpt lat="45.56185" lon="4.72871">
        <ele>239</ele>
        <time>2012-10-07T09:04:17Z</time>
      </trkpt>
      <trkpt lat="45.56184" lon="4.72872">
        <ele>239</ele>
        <time>2012-10-07T09:04:19Z</time>
      </trkpt>
      <trkpt lat="45.56183" lon="4.72873">
        <ele>238</ele>
        <time>2012-10-07T09:04:21Z</time>
      </trkpt>
      <trkpt lat="45.56182" lon="4.72874">
        <ele>238</ele>
        <time>2012-10-07T09:04:23Z</time>
      </trkpt>
      <trkpt lat="45.56181" lon="4.72876">
        <ele>237</ele>
        <time>2012-10-07T09:04:25Z</time>
      </trkpt>
      <trkpt lat="45.5618" lon="4.72878">
        <ele>237</ele>
        <time>2012-10-07T09:04:28Z</time>
      </trkpt>
      <trkpt lat="45.56179" lon="4.7288">
        <ele>237</ele>
        <time>2012-10-07T09:04:30Z</time>
      </trkpt>
      <trkpt lat="45.56176" lon="4.72882">
        <ele>236</ele>
        <time>2012-10-07T09:04:32Z</time>
      </trkpt>
      <trkpt lat="45.56175" lon="4.72883">
        <ele>236</ele>
        <time>2012-10-07T09:04:34Z</time>
      </trkpt>
      <trkpt lat="45.56173" lon="4.72885">
        <ele>236</ele>
        <time>2012-10-07T09:04:36Z</time>
      </trkpt>
      <trkpt lat="45.56173" lon="4.72886">
        <ele>236</ele>
        <time>2012-10-07T09:04:38Z</time>
      </trkpt>
      <trkpt lat="45.56172" lon="4.72886">
        <ele>236</ele>
        <time>2012-10-07T09:04:41Z</time>
      </trkpt>
      <trkpt lat="45.56171" lon="4.72887">
        <ele>235</ele>
        <time>2012-10-07T09:04:43Z</time>
      </trkpt>
      <trkpt lat="45.56169" lon="4.72888">
        <ele>235</ele>
        <time>2012-10-07T09:04:45Z</time>
      </trkpt>
      <trkpt lat="45.56168" lon="4.72889">
        <ele>235</ele>
        <time>2012-10-07T09:04:47Z</time>
      </trkpt>
      <trkpt lat="45.56166" lon="4.7289">
        <ele>235</ele>
        <time>2012-10-07T09:04:49Z</time>
      </trkpt>
      <trkpt lat="45.56165" lon="4.7289">
        <ele>234</ele>
        <time>2012-10-07T09:04:51Z</time>
      </trkpt>
      <trkpt lat="45.56164" lon="4.72891">
        <ele>234</ele>
        <time>2012-10-07T09:04:53Z</time>
      </trkpt>
      <trkpt lat="45.56163" lon="4.72891">
        <ele>234</ele>
        <time>2012-10-07T09:04:56Z</time>
      </trkpt>
      <trkpt lat="45.56162" lon="4.7289">
        <ele>233</ele>
        <time>2012-10-07T09:04:58Z</time>
      </trkpt>
      <trkpt lat="45.5616" lon="4.7289">
        <ele>233</ele>
        <time>2012-10-07T09:05:00Z</time>
      </trkpt>
      <trkpt lat="45.56159" lon="4.72889">
        <ele>232</ele>
        <time>2012-10-07T09:05:02Z</time>
      </trkpt>
      <trkpt lat="45.56158" lon="4.72887">
        <ele>232</ele>
        <time>2012-10-07T09:05:04Z</time>
      </trkpt>
      <trkpt lat="45.56156" lon="4.72885">
        <ele>231</ele>
        <time>2012-10-07T09:05:06Z</time>
      </trkpt>
      <trkpt lat="45.56155" lon="4.72883">
        <ele>231</ele>
        <time>2012-10-07T09:05:09Z</time>
      </trkpt>
      <trkpt lat="45.56154" lon="4.72882">
        <ele>231</ele>
        <time>2012-10-07T09:05:11Z</time>
      </trkpt>
      <trkpt lat="45.56153" lon="4.7288">
        <ele>231</ele>
        <time>2012-10-07T09:05:13Z</time>
      </trkpt>
      <trkpt lat="45.56152" lon="4.72878">
        <ele>231</ele>
        <time>2012-10-07T09:05:15Z</time>
      </trkpt>
      <trkpt lat="45.5615" lon="4.72877">
        <ele>230</ele>
        <time>2012-10-07T09:05:17Z</time>
      </trkpt>
      <trkpt lat="45.56149" lon="4.72875">
        <ele>230</ele>
        <time>2012-10-07T09:05:19Z</time>
      </trkpt>
      <trkpt lat="45.56148" lon="4.72873">
        <ele>230</ele>
        <time>2012-10-07T09:05:21Z</time>
      </trkpt>
      <trkpt lat="45.56147" lon="4.72872">
        <ele>230</ele>
        <time>2012-10-07T09:05:23Z</time>
      </trkpt>
      <trkpt lat="45.56145" lon="4.72872">
        <ele>230</ele>
        <time>2012-10-07T09:05:26Z</time>
      </trkpt>
      <trkpt lat="45.56144" lon="4.72872">
        <ele>229</ele>
        <time>2012-10-07T09:05:28Z</time>
      </trkpt>
      <trkpt lat="45.56143" lon="4.72872">
        <ele>229</ele>
        <time>2012-10-07T09:05:30Z</time>
      </trkpt>
      <trkpt lat="45.56142" lon="4.72871">
        <ele>228</ele>
        <time>2012-10-07T09:05:32Z</time>
      </trkpt>
      <trkpt lat="45.5614" lon="4.72871">
        <ele>228</ele>
        <time>2012-10-07T09:05:34Z</time>
      </trkpt>
      <trkpt lat="45.56139" lon="4.72871">
        <ele>227</ele>
        <time>2012-10-07T09:05:36Z</time>
      </trkpt>
      <trkpt lat="45.56137" lon="4.72871">
        <ele>227</ele>
        <time>2012-10-07T09:05:38Z</time>
      </trkpt>
      <trkpt lat="45.56136" lon="4.72871">
        <ele>227</ele>
        <time>2012-10-07T09:05:41Z</time>
      </trkpt>
      <trkpt lat="45.56134" lon="4.72871">
        <ele>226</ele>
        <time>2012-10-07T09:05:43Z</time>
      </trkpt>
      <trkpt lat="45.56133" lon="4.72871">
        <ele>226</ele>
        <time>2012-10-07T09:05:45Z</time>
      </trkpt>
      <trkpt lat="45.56131" lon="4.72871">
        <ele>226</ele>
        <time>2012-10-07T09:05:47Z</time>
      </trkpt>
      <trkpt lat="45.5613" lon="4.72871">
        <ele>225</ele>
        <time>2012-10-07T09:05:49Z</time>
      </trkpt>
      <trkpt lat="45.56129" lon="4.72871">
        <ele>225</ele>
        <time>2012-10-07T09:05:51Z</time>
      </trkpt>
      <trkpt lat="45.56128" lon="4.72871">
        <ele>225</ele>
        <time>2012-10-07T09:05:53Z</time>
      </trkpt>
      <trkpt lat="45.56126" lon="4.7287">
        <ele>224</ele>
        <time>2012-10-07T09:05:55Z</time>
      </trkpt>
      <trkpt lat="45.56125" lon="4.7287">
        <ele>224</ele>
        <time>2012-10-07T09:05:58Z</time>
      </trkpt>
      <trkpt lat="45.56123" lon="4.7287">
        <ele>224</ele>
        <time>2012-10-07T09:06:00Z</time>
      </trkpt>
      <trkpt lat="45.56122" lon="4.7287">
        <ele>224</ele>
        <time>2012-10-07T09:06:02Z</time>
      </trkpt>
      <trkpt lat="45.56121" lon="4.7287">
        <ele>223</ele>
        <time>2012-10-07T09:06:04Z</time>
      </trkpt>
      <trkpt lat="45.56119" lon="4.72871">
        <ele>223</ele>
        <time>2012-10-07T09:06:06Z</time>
      </trkpt>
      <trkpt lat="45.56117" lon="4.72871">
        <ele>223</ele>
        <time>2012-10-07T09:06:08Z</time>
      </trkpt>
      <trkpt lat="45.56115" lon="4.72872">
        <ele>223</ele>
        <time>2012-10-07T09:06:10Z</time>
      </trkpt>
      <trkpt lat="45.56114" lon="4.72872">
        <ele>223</ele>
        <time>2012-10-07T09:06:12Z</time>
      </trkpt>
      <trkpt lat="45.56112" lon="4.72873">
        <ele>222</ele>
        <time>2012-10-07T09:06:14Z</time>
      </trkpt>
      <trkpt lat="45.56111" lon="4.72874">
        <ele>222</ele>
        <time>2012-10-07T09:06:16Z</time>
      </trkpt>
      <trkpt lat="45.56109" lon="4.72875">
        <ele>222</ele>
        <time>2012-10-07T09:06:18Z</time>
      </trkpt>
      <trkpt lat="45.56107" lon="4.72875">
        <ele>221</ele>
        <time>2012-10-07T09:06:21Z</time>
      </trkpt>
      <trkpt lat="45.56106" lon="4.72875">
        <ele>221</ele>
        <time>2012-10-07T09:06:23Z</time>
      </trkpt>
      <trkpt lat="45.56104" lon="4.72876">
        <ele>221</ele>
        <time>2012-10-07T09:06:25Z</time>
      </trkpt>
      <trkpt lat="45.56102" lon="4.72876">
        <ele>221</ele>
        <time>2012-10-07T09:06:27Z</time>
      </trkpt>
      <trkpt lat="45.56102" lon="4.72876">
        <ele>220</ele>
        <time>2012-10-07T09:06:29Z</time>
      </trkpt>
      <trkpt lat="45.561" lon="4.72876">
        <ele>220</ele>
        <time>2012-10-07T09:06:31Z</time>
      </trkpt>
      <trkpt lat="45.561" lon="4.72876">
        <ele>220</ele>
        <time>2012-10-07T09:06:33Z</time>
      </trkpt>
      <trkpt lat="45.56099" lon="4.72877">
        <ele>219</ele>
        <time>2012-10-07T09:06:35Z</time>
      </trkpt>
      <trkpt lat="45.56097" lon="4.72878">
        <ele>219</ele>
        <time>2012-10-07T09:06:37Z</time>
      </trkpt>
      <trkpt lat="45.56096" lon="4.72878">
        <ele>219</ele>
        <time>2012-10-07T09:06:39Z</time>
      </trkpt>
      <trkpt lat="45.56094" lon="4.72878">
        <ele>219</ele>
        <time>2012-10-07T09:06:41Z</time>
      </trkpt>
      <trkpt lat="45.56093" lon="4.72878">
        <ele>219</ele>
        <time>2012-10-07T09:06:43Z</time>
      </trkpt>
      <trkpt lat="45.56091" lon="4.72878">
        <ele>218</ele>
        <time>2012-10-07T09:06:45Z</time>
      </trkpt>
      <trkpt lat="45.5609" lon="4.72878">
        <ele>218</ele>
        <time>2012-10-07T09:06:47Z</time>
      </trkpt>
      <trkpt lat="45.56088" lon="4.72879">
        <ele>218</ele>
        <time>2012-10-07T09:06:49Z</time>
      </trkpt>
      <trkpt lat="45.56086" lon="4.72879">
        <ele>217</ele>
        <time>2012-10-07T09:06:52Z</time>
      </trkpt>
      <trkpt lat="45.56084" lon="4.7288">
        <ele>217</ele>
        <time>2012-10-07T09:06:54Z</time>
      </trkpt>
      <trkpt lat="45.56082" lon="4.72881">
        <ele>216</ele>
        <time>2012-10-07T09:06:56Z</time>
      </trkpt>
      <trkpt lat="45.56081" lon="4.72881">
        <ele>216</ele>
        <time>2012-10-07T09:06:58Z</time>
      </trkpt>
      <trkpt lat="45.56079" lon="4.7288">
        <ele>216</ele>
        <time>2012-10-07T09:07:00Z</time>
      </trkpt>
      <trkpt lat="45.56078" lon="4.72878">
        <ele>215</ele>
        <time>2012-10-07T09:07:02Z</time>
      </trkpt>
      <trkpt lat="45.56078" lon="4.72877">
        <ele>215</ele>
        <time>2012-10-07T09:07:04Z</time>
      </trkpt>
      <trkpt lat="45.56079" lon="4.72876">
        <ele>215</ele>
        <time>2012-10-07T09:07:06Z</time>
      </trkpt>
      <trkpt lat="45.5608" lon="4.72875">
        <ele>214</ele>
        <time>2012-10-07T09:07:08Z</time>
      </trkpt>
      <trkpt lat="45.56082" lon="4.72874">
        <ele>214</ele>
        <time>2012-10-07T09:07:10Z</time>
      </trkpt>
      <trkpt lat="45.56083" lon="4.72874">
        <ele>214</ele>
        <time>2012-10-07T09:07:12Z</time>
      </trkpt>
      <trkpt lat="45.56083" lon="4.72873">
        <ele>213</ele>
        <time>2012-10-07T09:07:14Z</time>
      </trkpt>
      <trkpt lat="45.56084" lon="4.72872">
        <ele>213</ele>
        <time>2012-10-07T09:07:16Z</time>
      </trkpt>
      <trkpt lat="45.56086" lon="4.72872">
        <ele>212</ele>
        <time>2012-10-07T09:07:18Z</time>
      </trkpt>
      <trkpt lat="45.56086" lon="4.72872">
        <ele>212</ele>
        <time>2012-10-07T09:07:20Z</time>
      </trkpt>
      <trkpt lat="45.56087" lon="4.72872">
        <ele>212</ele>
        <time>2012-10-07T09:07:23Z</time>
      </trkpt>
      <trkpt lat="45.56087" lon="4.72871">
        <ele>212</ele>
        <time>2012-10-07T09:07:25Z</time>
      </trkpt>
      <trkpt lat="45.56088" lon="4.72869">
        <ele>211</ele>
        <time>2012-10-07T09:07:27Z</time>
      </trkpt>
      <trkpt lat="45.56089" lon="4.72867">
        <ele>211</ele>
        <time>2012-10-07T09:07:29Z</time>
      </trkpt>
      <trkpt lat="45.56091" lon="4.72866">
        <ele>212</ele>
        <time>2012-10-07T09:07:31Z</time>
      </trkpt>
      <trkpt lat="45.56092" lon="4.72865">
        <ele>211</ele>
        <time>2012-10-07T09:07:33Z</time>
      </trkpt>
      <trkpt lat="45.56093" lon="4.72864">
        <ele>212</ele>
        <time>2012-10-07T09:07:35Z</time>
      </trkpt>
      <trkpt lat="45.56095" lon="4.72863">
        <ele>212</ele>
        <time>2012-10-07T09:07:37Z</time>
      </trkpt>
      <trkpt lat="45.56096" lon="4.72862">
        <ele>212</ele>
        <time>2012-10-07T09:07:40Z</time>
      </trkpt>
      <trkpt lat="45.56097" lon="4.72861">
        <ele>213</ele>
        <time>2012-10-07T09:07:42Z</time>
      </trkpt>
      <trkpt lat="45.56099" lon="4.7286">
        <ele>213</ele>
        <time>2012-10-07T09:07:44Z</time>
      </trkpt>
      <trkpt lat="45.561" lon="4.72857">
        <ele>213</ele>
        <time>2012-10-07T09:07:46Z</time>
      </trkpt>
      <trkpt lat="45.56101" lon="4.72856">
        <ele>213</ele>
        <time>2012-10-07T09:07:48Z</time>
      </trkpt>
      <trkpt lat="45.56102" lon="4.72854">
        <ele>213</ele>
        <time>2012-10-07T09:07:50Z</time>
      </trkpt>
      <trkpt lat="45.56103" lon="4.72852">
        <ele>213</ele>
        <time>2012-10-07T09:07:52Z</time>
      </trkpt>
      <trkpt lat="45.56105" lon="4.72851">
        <ele>213</ele>
        <time>2012-10-07T09:07:54Z</time>
      </trkpt>
      <trkpt lat="45.56106" lon="4.7285">
        <ele>214</ele>
        <time>2012-10-07T09:07:57Z</time>
      </trkpt>
      <trkpt lat="45.56106" lon="4.72848">
        <ele>214</ele>
        <time>2012-10-07T09:07:59Z</time>
      </trkpt>
      <trkpt lat="45.56108" lon="4.72845">
        <ele>214</ele>
        <time>2012-10-07T09:08:01Z</time>
      </trkpt>
      <trkpt lat="45.56109" lon="4.72843">
        <ele>214</ele>
        <time>2012-10-07T09:08:03Z</time>
      </trkpt>
      <trkpt lat="45.56111" lon="4.72841">
        <ele>213</ele>
        <time>2012-10-07T09:08:05Z</time>
      </trkpt>
      <trkpt lat="45.56111" lon="4.72839">
        <ele>213</ele>
        <time>2012-10-07T09:08:07Z</time>
      </trkpt>
      <trkpt lat="45.56112" lon="4.72837">
        <ele>214</ele>
        <time>2012-10-07T09:08:09Z</time>
      </trkpt>
      <trkpt lat="45.56113" lon="4.72835">
        <ele>214</ele>
        <time>2012-10-07T09:08:12Z</time>
      </trkpt>
      <trkpt lat="45.56115" lon="4.72833">
        <ele>214</ele>
        <time>2012-10-07T09:08:14Z</time>
      </trkpt>
      <trkpt lat="45.56116" lon="4.72832">
        <ele>214</ele>
        <time>2012-10-07T09:08:16Z</time>
      </trkpt>
      <trkpt lat="45.56117" lon="4.7283">
        <ele>214</ele>
        <time>2012-10-07T09:08:18Z</time>
      </trkpt>
      <trkpt lat="45.56118" lon="4.72827">
        <ele>214</ele>
        <time>2012-10-07T09:08:20Z</time>
      </trkpt>
      <trkpt lat="45.5612" lon="4.72825">
        <ele>214</ele>
        <time>2012-10-07T09:08:22Z</time>
      </trkpt>
      <trkpt lat="45.56121" lon="4.72823">
        <ele>214</ele>
        <time>2012-10-07T09:08:24Z</time>
      </trkpt>
      <trkpt lat="45.56122" lon="4.72821">
        <ele>215</ele>
        <time>2012-10-07T09:08:26Z</time>
      </trkpt>
      <trkpt lat="45.56123" lon="4.72819">
        <ele>215</ele>
        <time>2012-10-07T09:08:28Z</time>
      </trkpt>
      <trkpt lat="45.56124" lon="4.72818">
        <ele>215</ele>
        <time>2012-10-07T09:08:30Z</time>
      </trkpt>
      <trkpt lat="45.56124" lon="4.72817">
        <ele>215</ele>
        <time>2012-10-07T09:08:33Z</time>
      </trkpt>
      <trkpt lat="45.56125" lon="4.72815">
        <ele>215</ele>
        <time>2012-10-07T09:08:35Z</time>
      </trkpt>
      <trkpt lat="45.56126" lon="4.72813">
        <ele>216</ele>
        <time>2012-10-07T09:08:37Z</time>
      </trkpt>
      <trkpt lat="45.56126" lon="4.72811">
        <ele>216</ele>
        <time>2012-10-07T09:08:39Z</time>
      </trkpt>
      <trkpt lat="45.56128" lon="4.72809">
        <ele>216</ele>
        <time>2012-10-07T09:08:41Z</time>
      </trkpt>
      <trkpt lat="45.56128" lon="4.72808">
        <ele>216</ele>
        <time>2012-10-07T09:08:43Z</time>
      </trkpt>
      <trkpt lat="45.56128" lon="4.72807">
        <ele>216</ele>
        <time>2012-10-07T09:08:45Z</time>
      </trkpt>
      <trkpt lat="45.56128" lon="4.72805">
        <ele>217</ele>
        <time>2012-10-07T09:08:47Z</time>
      </trkpt>
      <trkpt lat="45.56129" lon="4.72804">
        <ele>217</ele>
        <time>2012-10-07T09:08:49Z</time>
      </trkpt>
      <trkpt lat="45.56131" lon="4.72802">
        <ele>218</ele>
        <time>2012-10-07T09:08:51Z</time>
      </trkpt>
      <trkpt lat="45.56132" lon="4.72801">
        <ele>218</ele>
        <time>2012-10-07T09:08:53Z</time>
      </trkpt>
      <trkpt lat="45.56133" lon="4.72799">
        <ele>218</ele>
        <time>2012-10-07T09:08:56Z</time>
      </trkpt>
      <trkpt lat="45.56134" lon="4.72797">
        <ele>218</ele>
        <time>2012-10-07T09:08:58Z</time>
      </trkpt>
      <trkpt lat="45.56135" lon="4.72794">
        <ele>219</ele>
        <time>2012-10-07T09:09:00Z</time>
      </trkpt>
      <trkpt lat="45.56135" lon="4.72793">
        <ele>219</ele>
        <time>2012-10-07T09:09:02Z</time>
      </trkpt>
      <trkpt lat="45.56136" lon="4.72789">
        <ele>219</ele>
        <time>2012-10-07T09:09:04Z</time>
      </trkpt>
      <trkpt lat="45.56136" lon="4.72787">
        <ele>219</ele>
        <time>2012-10-07T09:09:06Z</time>
      </trkpt>
      <trkpt lat="45.56137" lon="4.72785">
        <ele>220</ele>
        <time>2012-10-07T09:09:08Z</time>
      </trkpt>
      <trkpt lat="45.56138" lon="4.72783">
        <ele>220</ele>
        <time>2012-10-07T09:09:10Z</time>
      </trkpt>
      <trkpt lat="45.56139" lon="4.72781">
        <ele>220</ele>
        <time>2012-10-07T09:09:12Z</time>
      </trkpt>
      <trkpt lat="45.56139" lon="4.7278">
        <ele>220</ele>
        <time>2012-10-07T09:09:14Z</time>
      </trkpt>
      <trkpt lat="45.5614" lon="4.72778">
        <ele>220</ele>
        <time>2012-10-07T09:09:16Z</time>
      </trkpt>
      <trkpt lat="45.56141" lon="4.72776">
        <ele>220</ele>
        <time>2012-10-07T09:09:18Z</time>
      </trkpt>
      <trkpt lat="45.56142" lon="4.72774">
        <ele>220</ele>
        <time>2012-10-07T09:09:20Z</time>
      </trkpt>
      <trkpt lat="45.56142" lon="4.72772">
        <ele>220</ele>
        <time>2012-10-07T09:09:22Z</time>
      </trkpt>
      <trkpt lat="45.56143" lon="4.72771">
        <ele>220</ele>
        <time>2012-10-07T09:09:24Z</time>
      </trkpt>
      <trkpt lat="45.56143" lon="4.72769">
        <ele>220</ele>
        <time>2012-10-07T09:09:27Z</time>
      </trkpt>
      <trkpt lat="45.56144" lon="4.72767">
        <ele>220</ele>
        <time>2012-10-07T09:09:29Z</time>
      </trkpt>
      <trkpt lat="45.56145" lon="4.72765">
        <ele>220</ele>
        <time>2012-10-07T09:09:31Z</time>
      </trkpt>
      <trkpt lat="45.56146" lon="4.72762">
        <ele>220</ele>
        <time>2012-10-07T09:09:33Z</time>
      </trkpt>
      <trkpt lat="45.56147" lon="4.7276">
        <ele>220</ele>
        <time>2012-10-07T09:09:35Z</time>
      </trkpt>
      <trkpt lat="45.56147" lon="4.72759">
        <ele>220</ele>
        <time>2012-10-07T09:09:37Z</time>
      </trkpt>
      <trkpt lat="45.56147" lon="4.72757">
        <ele>220</ele>
        <time>2012-10-07T09:09:39Z</time>
      </trkpt>
      <trkpt lat="45.56148" lon="4.72755">
        <ele>220</ele>
        <time>2012-10-07T09:09:42Z</time>
      </trkpt>
      <trkpt lat="45.56149" lon="4.72753">
        <ele>220</ele>
        <time>2012-10-07T09:09:44Z</time>
      </trkpt>
      <trkpt lat="45.56149" lon="4.72752">
        <ele>220</ele>
        <time>2012-10-07T09:09:46Z</time>
      </trkpt>
      <trkpt lat="45.56151" lon="4.72751">
        <ele>220</ele>
        <time>2012-10-07T09:09:48Z</time>
      </trkpt>
      <trkpt lat="45.56151" lon="4.72751">
        <ele>220</ele>
        <time>2012-10-07T09:09:50Z</time>
      </trkpt>
      <trkpt lat="45.56152" lon="4.7275">
        <ele>221</ele>
        <time>2012-10-07T09:09:52Z</time>
      </trkpt>
      <trkpt lat="45.56153" lon="4.72749">
        <ele>222</ele>
        <time>2012-10-07T09:09:54Z</time>
      </trkpt>
      <trkpt lat="45.56154" lon="4.72748">
        <ele>222</ele>
        <time>2012-10-07T09:09:56Z</time>
      </trkpt>
      <trkpt lat="45.56155" lon="4.72747">
        <ele>222</ele>
        <time>2012-10-07T09:09:58Z</time>
      </trkpt>
      <trkpt lat="45.56156" lon="4.72746">
        <ele>222</ele>
        <time>2012-10-07T09:10:00Z</time>
      </trkpt>
      <trkpt lat="45.56157" lon="4.72745">
        <ele>222</ele>
        <time>2012-10-07T09:10:02Z</time>
      </trkpt>
      <trkpt lat="45.56157" lon="4.72743">
        <ele>222</ele>
        <time>2012-10-07T09:10:04Z</time>
      </trkpt>
      <trkpt lat="45.56157" lon="4.72742">
        <ele>223</ele>
        <time>2012-10-07T09:10:06Z</time>
      </trkpt>
      <trkpt lat="45.56158" lon="4.7274">
        <ele>223</ele>
        <time>2012-10-07T09:10:08Z</time>
      </trkpt>
      <trkpt lat="45.56158" lon="4.72739">
        <ele>223</ele>
        <time>2012-10-07T09:10:11Z</time>
      </trkpt>
      <trkpt lat="45.56159" lon="4.72738">
        <ele>224</ele>
        <time>2012-10-07T09:10:13Z</time>
      </trkpt>
      <trkpt lat="45.56161" lon="4.72736">
        <ele>224</ele>
        <time>2012-10-07T09:10:15Z</time>
      </trkpt>
      <trkpt lat="45.56162" lon="4.72734">
        <ele>224</ele>
        <time>2012-10-07T09:10:17Z</time>
      </trkpt>
      <trkpt lat="45.56163" lon="4.72733">
        <ele>224</ele>
        <time>2012-10-07T09:10:19Z</time>
      </trkpt>
      <trkpt lat="45.56165" lon="4.72731">
        <ele>225</ele>
        <time>2012-10-07T09:10:21Z</time>
      </trkpt>
      <trkpt lat="45.56166" lon="4.72728">
        <ele>225</ele>
        <time>2012-10-07T09:10:23Z</time>
      </trkpt>
      <trkpt lat="45.56167" lon="4.72727">
        <ele>225</ele>
        <time>2012-10-07T09:10:25Z</time>
      </trkpt>
      <trkpt lat="45.56168" lon="4.72725">
        <ele>225</ele>
        <time>2012-10-07T09:10:27Z</time>
      </trkpt>
      <trkpt lat="45.56169" lon="4.72723">
        <ele>226</ele>
        <time>2012-10-07T09:10:29Z</time>
      </trkpt>
      <trkpt lat="45.56169" lon="4.72721">
        <ele>226</ele>
        <time>2012-10-07T09:10:31Z</time>
      </trkpt>
      <trkpt lat="45.5617" lon="4.72719">
        <ele>226</ele>
        <time>2012-10-07T09:10:33Z</time>
      </trkpt>
      <trkpt lat="45.56171" lon="4.72717">
        <ele>226</ele>
        <time>2012-10-07T09:10:35Z</time>
      </trkpt>
      <trkpt lat="45.56173" lon="4.72715">
        <ele>227</ele>
        <time>2012-10-07T09:10:37Z</time>
      </trkpt>
      <trkpt lat="45.56174" lon="4.72713">
        <ele>227</ele>
        <time>2012-10-07T09:10:39Z</time>
      </trkpt>
      <trkpt lat="45.56175" lon="4.72711">
        <ele>227</ele>
        <time>2012-10-07T09:10:42Z</time>
      </trkpt>
      <trkpt lat="45.56176" lon="4.72709">
        <ele>228</ele>
        <time>2012-10-07T09:10:44Z</time>
      </trkpt>
      <trkpt lat="45.56177" lon="4.72707">
        <ele>228</ele>
        <time>2012-10-07T09:10:46Z</time>
      </trkpt>
      <trkpt lat="45.56177" lon="4.72706">
        <ele>229</ele>
        <time>2012-10-07T09:10:48Z</time>
      </trkpt>
      <trkpt lat="45.56177" lon="4.72704">
        <ele>229</ele>
        <time>2012-10-07T09:10:50Z</time>
      </trkpt>
      <trkpt lat="45.56178" lon="4.72703">
        <ele>229</ele>
        <time>2012-10-07T09:10:52Z</time>
      </trkpt>
      <trkpt lat="45.56178" lon="4.72701">
        <ele>229</ele>
        <time>2012-10-07T09:10:54Z</time>
      </trkpt>
      <trkpt lat="45.56178" lon="4.727">
        <ele>230</ele>
        <time>2012-10-07T09:10:56Z</time>
      </trkpt>
      <trkpt lat="45.56178" lon="4.72698">
        <ele>230</ele>
        <time>2012-10-07T09:10:58Z</time>
      </trkpt>
      <trkpt lat="45.56178" lon="4.72697">
        <ele>231</ele>
        <time>2012-10-07T09:11:01Z</time>
      </trkpt>
      <trkpt lat="45.56178" lon="4.72695">
        <ele>231</ele>
        <time>2012-10-07T09:11:03Z</time>
      </trkpt>
      <trkpt lat="45.56178" lon="4.72692">
        <ele>231</ele>
        <time>2012-10-07T09:11:05Z</time>
      </trkpt>
      <trkpt lat="45.56179" lon="4.72691">
        <ele>232</ele>
        <time>2012-10-07T09:11:07Z</time>
      </trkpt>
      <trkpt lat="45.56179" lon="4.72689">
        <ele>232</ele>
        <time>2012-10-07T09:11:09Z</time>
      </trkpt>
      <trkpt lat="45.56178" lon="4.72689">
        <ele>232</ele>
        <time>2012-10-07T09:11:11Z</time>
      </trkpt>
      <trkpt lat="45.56178" lon="4.72687">
        <ele>232</ele>
        <time>2012-10-07T09:11:13Z</time>
      </trkpt>
      <trkpt lat="45.56178" lon="4.72685">
        <ele>232</ele>
        <time>2012-10-07T09:11:15Z</time>
      </trkpt>
      <trkpt lat="45.56178" lon="4.72683">
        <ele>232</ele>
        <time>2012-10-07T09:11:17Z</time>
      </trkpt>
      <trkpt lat="45.56179" lon="4.7268">
        <ele>233</ele>
        <time>2012-10-07T09:11:19Z</time>
      </trkpt>
      <trkpt lat="45.56179" lon="4.72678">
        <ele>233</ele>
        <time>2012-10-07T09:11:22Z</time>
      </trkpt>
      <trkpt lat="45.56179" lon="4.72676">
        <ele>233</ele>
        <time>2012-10-07T09:11:24Z</time>
      </trkpt>
      <trkpt lat="45.56181" lon="4.72673">
        <ele>234</ele>
        <time>2012-10-07T09:11:26Z</time>
      </trkpt>
      <trkpt lat="45.56182" lon="4.72671">
        <ele>234</ele>
        <time>2012-10-07T09:11:28Z</time>
      </trkpt>
      <trkpt lat="45.56182" lon="4.72669">
        <ele>234</ele>
        <time>2012-10-07T09:11:30Z</time>
      </trkpt>
      <trkpt lat="45.56183" lon="4.72668">
        <ele>234</ele>
        <time>2012-10-07T09:11:32Z</time>
      </trkpt>
      <trkpt lat="45.56184" lon="4.72666">
        <ele>235</ele>
        <time>2012-10-07T09:11:34Z</time>
      </trkpt>
      <trkpt lat="45.56185" lon="4.72662">
        <ele>235</ele>
        <time>2012-10-07T09:11:36Z</time>
      </trkpt>
      <trkpt lat="45.56186" lon="4.7266">
        <ele>235</ele>
        <time>2012-10-07T09:11:38Z</time>
      </trkpt>
      <trkpt lat="45.56187" lon="4.72658">
        <ele>236</ele>
        <time>2012-10-07T09:11:40Z</time>
      </trkpt>
      <trkpt lat="45.56188" lon="4.72656">
        <ele>236</ele>
        <time>2012-10-07T09:11:42Z</time>
      </trkpt>
      <trkpt lat="45.56189" lon="4.72653">
        <ele>236</ele>
        <time>2012-10-07T09:11:44Z</time>
      </trkpt>
      <trkpt lat="45.5619" lon="4.72651">
        <ele>236</ele>
        <time>2012-10-07T09:11:47Z</time>
      </trkpt>
      <trkpt lat="45.5619" lon="4.72649">
        <ele>236</ele>
        <time>2012-10-07T09:11:49Z</time>
      </trkpt>
      <trkpt lat="45.56191" lon="4.72648">
        <ele>236</ele>
        <time>2012-10-07T09:11:51Z</time>
      </trkpt>
      <trkpt lat="45.56191" lon="4.72646">
        <ele>237</ele>
        <time>2012-10-07T09:11:53Z</time>
      </trkpt>
      <trkpt lat="45.56191" lon="4.72644">
        <ele>237</ele>
        <time>2012-10-07T09:11:55Z</time>
      </trkpt>
      <trkpt lat="45.56191" lon="4.72642">
        <ele>238</ele>
        <time>2012-10-07T09:11:57Z</time>
      </trkpt>
      <trkpt lat="45.56191" lon="4.7264">
        <ele>238</ele>
        <time>2012-10-07T09:11:59Z</time>
      </trkpt>
      <trkpt lat="45.56192" lon="4.72638">
        <ele>238</ele>
        <time>2012-10-07T09:12:01Z</time>
      </trkpt>
      <trkpt lat="45.56192" lon="4.72635">
        <ele>239</ele>
        <time>2012-10-07T09:12:03Z</time>
      </trkpt>
      <trkpt lat="45.56193" lon="4.72633">
        <ele>239</ele>
        <time>2012-10-07T09:12:05Z</time>
      </trkpt>
      <trkpt lat="45.56193" lon="4.72631">
        <ele>239</ele>
        <time>2012-10-07T09:12:07Z</time>
      </trkpt>
      <trkpt lat="45.56193" lon="4.72628">
        <ele>239</ele>
        <time>2012-10-07T09:12:09Z</time>
      </trkpt>
      <trkpt lat="45.56193" lon="4.72626">
        <ele>239</ele>
        <time>2012-10-07T09:12:11Z</time>
      </trkpt>
      <trkpt lat="45.56194" lon="4.72623">
        <ele>240</ele>
        <time>2012-10-07T09:12:13Z</time>
      </trkpt>
      <trkpt lat="45.56195" lon="4.72621">
        <ele>240</ele>
        <time>2012-10-07T09:12:16Z</time>
      </trkpt>
      <trkpt lat="45.56195" lon="4.72619">
        <ele>240</ele>
        <time>2012-10-07T09:12:18Z</time>
      </trkpt>
      <trkpt lat="45.56196" lon="4.72618">
        <ele>240</ele>
        <time>2012-10-07T09:12:20Z</time>
      </trkpt>
      <trkpt lat="45.56197" lon="4.72616">
        <ele>241</ele>
        <time>2012-10-07T09:12:22Z</time>
      </trkpt>
      <trkpt lat="45.56197" lon="4.72615">
        <ele>241</ele>
        <time>2012-10-07T09:12:24Z</time>
      </trkpt>
      <trkpt lat="45.56197" lon="4.72614">
        <ele>241</ele>
        <time>2012-10-07T09:12:26Z</time>
      </trkpt>
      <trkpt lat="45.56198" lon="4.72612">
        <ele>242</ele>
        <time>2012-10-07T09:12:28Z</time>
      </trkpt>
      <trkpt lat="45.56199" lon="4.72612">
        <ele>242</ele>
        <time>2012-10-07T09:12:30Z</time>
      </trkpt>
      <trkpt lat="45.56199" lon="4.72611">
        <ele>242</ele>
        <time>2012-10-07T09:12:32Z</time>
      </trkpt>
      <trkpt lat="45.56199" lon="4.72611">
        <ele>242</ele>
        <time>2012-10-07T09:12:34Z</time>
      </trkpt>
      <trkpt lat="45.562" lon="4.7261">
        <ele>243</ele>
        <time>2012-10-07T09:12:36Z</time>
      </trkpt>
      <trkpt lat="45.562" lon="4.72608">
        <ele>243</ele>
        <time>2012-10-07T09:12:38Z</time>
      </trkpt>
      <trkpt lat="45.562" lon="4.72607">
        <ele>244</ele>
        <time>2012-10-07T09:12:40Z</time>
      </trkpt>
      <trkpt lat="45.562" lon="4.72607">
        <ele>244</ele>
        <time>2012-10-07T09:12:42Z</time>
      </trkpt>
      <trkpt lat="45.562" lon="4.72604">
        <ele>244</ele>
        <time>2012-10-07T09:12:44Z</time>
      </trkpt>
      <trkpt lat="45.56201" lon="4.72603">
        <ele>245</ele>
        <time>2012-10-07T09:12:47Z</time>
      </trkpt>
      <trkpt lat="45.56202" lon="4.72601">
        <ele>245</ele>
        <time>2012-10-07T09:12:49Z</time>
      </trkpt>
      <trkpt lat="45.56204" lon="4.72597">
        <ele>245</ele>
        <time>2012-10-07T09:12:51Z</time>
      </trkpt>
      <trkpt lat="45.56205" lon="4.72595">
        <ele>245</ele>
        <time>2012-10-07T09:12:53Z</time>
      </trkpt>
      <trkpt lat="45.56205" lon="4.72592">
        <ele>245</ele>
        <time>2012-10-07T09:12:55Z</time>
      </trkpt>
      <trkpt lat="45.56205" lon="4.7259">
        <ele>245</ele>
        <time>2012-10-07T09:12:57Z</time>
      </trkpt>
      <trkpt lat="45.56205" lon="4.72588">
        <ele>246</ele>
        <time>2012-10-07T09:12:59Z</time>
      </trkpt>
      <trkpt lat="45.56205" lon="4.72586">
        <ele>246</ele>
        <time>2012-10-07T09:13:01Z</time>
      </trkpt>
      <trkpt lat="45.56205" lon="4.72583">
        <ele>247</ele>
        <time>2012-10-07T09:13:03Z</time>
      </trkpt>
      <trkpt lat="45.56205" lon="4.72581">
        <ele>247</ele>
        <time>2012-10-07T09:13:05Z</time>
      </trkpt>
      <trkpt lat="45.56205" lon="4.7258">
        <ele>247</ele>
        <time>2012-10-07T09:13:07Z</time>
      </trkpt>
      <trkpt lat="45.56205" lon="4.72578">
        <ele>247</ele>
        <time>2012-10-07T09:13:09Z</time>
      </trkpt>
      <trkpt lat="45.56205" lon="4.72576">
        <ele>247</ele>
        <time>2012-10-07T09:13:11Z</time>
      </trkpt>
      <trkpt lat="45.56205" lon="4.72575">
        <ele>248</ele>
        <time>2012-10-07T09:13:13Z</time>
      </trkpt>
      <trkpt lat="45.56204" lon="4.72573">
        <ele>248</ele>
        <time>2012-10-07T09:13:15Z</time>
      </trkpt>
      <trkpt lat="45.56204" lon="4.72571">
        <ele>248</ele>
        <time>2012-10-07T09:13:17Z</time>
      </trkpt>
      <trkpt lat="45.56203" lon="4.72569">
        <ele>249</ele>
        <time>2012-10-07T09:13:20Z</time>
      </trkpt>
      <trkpt lat="45.56202" lon="4.72567">
        <ele>249</ele>
        <time>2012-10-07T09:13:22Z</time>
      </trkpt>
      <trkpt lat="45.56202" lon="4.72565">
        <ele>249</ele>
        <time>2012-10-07T09:13:24Z</time>
      </trkpt>
      <trkpt lat="45.56202" lon="4.72563">
        <ele>249</ele>
        <time>2012-10-07T09:13:26Z</time>
      </trkpt>
      <trkpt lat="45.56201" lon="4.72561">
        <ele>250</ele>
        <time>2012-10-07T09:13:28Z</time>
      </trkpt>
      <trkpt lat="45.562" lon="4.72559">
        <ele>249</ele>
        <time>2012-10-07T09:13:30Z</time>
      </trkpt>
      <trkpt lat="45.562" lon="4.72556">
        <ele>250</ele>
        <time>2012-10-07T09:13:32Z</time>
      </trkpt>
      <trkpt lat="45.562" lon="4.72553">
        <ele>250</ele>
        <time>2012-10-07T09:13:34Z</time>
      </trkpt>
      <trkpt lat="45.56199" lon="4.72552">
        <ele>250</ele>
        <time>2012-10-07T09:13:36Z</time>
      </trkpt>
      <trkpt lat="45.56197" lon="4.7255">
        <ele>250</ele>
        <time>2012-10-07T09:13:38Z</time>
      </trkpt>
      <trkpt lat="45.56197" lon="4.72548">
        <ele>251</ele>
        <time>2012-10-07T09:13:40Z</time>
      </trkpt>
      <trkpt lat="45.56196" lon="4.72545">
        <ele>251</ele>
        <time>2012-10-07T09:13:42Z</time>
      </trkpt>
      <trkpt lat="45.56196" lon="4.72543">
        <ele>251</ele>
        <time>2012-10-07T09:13:44Z</time>
      </trkpt>
      <trkpt lat="45.56196" lon="4.72541">
        <ele>252</ele>
        <time>2012-10-07T09:13:46Z</time>
      </trkpt>
      <trkpt lat="45.56196" lon="4.72539">
        <ele>252</ele>
        <time>2012-10-07T09:13:48Z</time>
      </trkpt>
      <trkpt lat="45.56197" lon="4.72537">
        <ele>252</ele>
        <time>2012-10-07T09:13:50Z</time>
      </trkpt>
      <trkpt lat="45.56197" lon="4.72535">
        <ele>253</ele>
        <time>2012-10-07T09:13:52Z</time>
      </trkpt>
      <trkpt lat="45.56198" lon="4.72533">
        <ele>253</ele>
        <time>2012-10-07T09:13:54Z</time>
      </trkpt>
      <trkpt lat="45.56199" lon="4.72531">
        <ele>253</ele>
        <time>2012-10-07T09:13:56Z</time>
      </trkpt>
      <trkpt lat="45.562" lon="4.7253">
        <ele>253</ele>
        <time>2012-10-07T09:13:58Z</time>
      </trkpt>
      <trkpt lat="45.56201" lon="4.72528">
        <ele>254</ele>
        <time>2012-10-07T09:14:01Z</time>
      </trkpt>
      <trkpt lat="45.56201" lon="4.72526">
        <ele>254</ele>
        <time>2012-10-07T09:14:03Z</time>
      </trkpt>
      <trkpt lat="45.56202" lon="4.72524">
        <ele>254</ele>
        <time>2012-10-07T09:14:05Z</time>
      </trkpt>
      <trkpt lat="45.56203" lon="4.72521">
        <ele>254</ele>
        <time>2012-10-07T09:14:07Z</time>
      </trkpt>
      <trkpt lat="45.56203" lon="4.72519">
        <ele>255</ele>
        <time>2012-10-07T09:14:09Z</time>
      </trkpt>
      <trkpt lat="45.56203" lon="4.72517">
        <ele>255</ele>
        <time>2012-10-07T09:14:11Z</time>
      </trkpt>
      <trkpt lat="45.56204" lon="4.72515">
        <ele>256</ele>
        <time>2012-10-07T09:14:13Z</time>
      </trkpt>
      <trkpt lat="45.56203" lon="4.72513">
        <ele>256</ele>
        <time>2012-10-07T09:14:15Z</time>
      </trkpt>
      <trkpt lat="45.56203" lon="4.72511">
        <ele>256</ele>
        <time>2012-10-07T09:14:17Z</time>
      </trkpt>
      <trkpt lat="45.56203" lon="4.72509">
        <ele>256</ele>
        <time>2012-10-07T09:14:19Z</time>
      </trkpt>
      <trkpt lat="45.56204" lon="4.72506">
        <ele>257</ele>
        <time>2012-10-07T09:14:21Z</time>
      </trkpt>
      <trkpt lat="45.56204" lon="4.72505">
        <ele>257</ele>
        <time>2012-10-07T09:14:23Z</time>
      </trkpt>
      <trkpt lat="45.56204" lon="4.72503">
        <ele>258</ele>
        <time>2012-10-07T09:14:25Z</time>
      </trkpt>
      <trkpt lat="45.56204" lon="4.72501">
        <ele>258</ele>
        <time>2012-10-07T09:14:27Z</time>
      </trkpt>
      <trkpt lat="45.56203" lon="4.72499">
        <ele>258</ele>
        <time>2012-10-07T09:14:29Z</time>
      </trkpt>
      <trkpt lat="45.56203" lon="4.72496">
        <ele>259</ele>
        <time>2012-10-07T09:14:32Z</time>
      </trkpt>
      <trkpt lat="45.56202" lon="4.72494">
        <ele>259</ele>
        <time>2012-10-07T09:14:34Z</time>
      </trkpt>
      <trkpt lat="45.562" lon="4.72492">
        <ele>259</ele>
        <time>2012-10-07T09:14:36Z</time>
      </trkpt>
      <trkpt lat="45.56199" lon="4.72491">
        <ele>259</ele>
        <time>2012-10-07T09:14:38Z</time>
      </trkpt>
      <trkpt lat="45.56197" lon="4.7249">
        <ele>259</ele>
        <time>2012-10-07T09:14:40Z</time>
      </trkpt>
      <trkpt lat="45.56195" lon="4.72489">
        <ele>260</ele>
        <time>2012-10-07T09:14:42Z</time>
      </trkpt>
      <trkpt lat="45.56193" lon="4.72488">
        <ele>260</ele>
        <time>2012-10-07T09:14:44Z</time>
      </trkpt>
      <trkpt lat="45.56192" lon="4.72488">
        <ele>260</ele>
        <time>2012-10-07T09:14:46Z</time>
      </trkpt>
      <trkpt lat="45.5619" lon="4.72488">
        <ele>260</ele>
        <time>2012-10-07T09:14:48Z</time>
      </trkpt>
      <trkpt lat="45.56189" lon="4.72488">
        <ele>260</ele>
        <time>2012-10-07T09:14:50Z</time>
      </trkpt>
      <trkpt lat="45.56187" lon="4.72487">
        <ele>260</ele>
        <time>2012-10-07T09:14:52Z</time>
      </trkpt>
      <trkpt lat="45.56185" lon="4.72487">
        <ele>260</ele>
        <time>2012-10-07T09:14:54Z</time>
      </trkpt>
      <trkpt lat="45.56184" lon="4.72486">
        <ele>260</ele>
        <time>2012-10-07T09:14:56Z</time>
      </trkpt>
      <trkpt lat="45.56182" lon="4.72486">
        <ele>260</ele>
        <time>2012-10-07T09:14:58Z</time>
      </trkpt>
      <trkpt lat="45.56181" lon="4.72486">
        <ele>260</ele>
        <time>2012-10-07T09:15:01Z</time>
      </trkpt>
      <trkpt lat="45.56179" lon="4.72486">
        <ele>261</ele>
        <time>2012-10-07T09:15:03Z</time>
      </trkpt>
      <trkpt lat="45.56177" lon="4.72486">
        <ele>261</ele>
        <time>2012-10-07T09:15:05Z</time>
      </trkpt>
      <trkpt lat="45.56175" lon="4.72486">
        <ele>261</ele>
        <time>2012-10-07T09:15:07Z</time>
      </trkpt>
      <trkpt lat="45.56173" lon="4.72486">
        <ele>261</ele>
        <time>2012-10-07T09:15:09Z</time>
      </trkpt>
      <trkpt lat="45.56171" lon="4.72486">
        <ele>261</ele>
        <time>2012-10-07T09:15:11Z</time>
      </trkpt>
      <trkpt lat="45.56169" lon="4.72485">
        <ele>261</ele>
        <time>2012-10-07T09:15:13Z</time>
      </trkpt>
      <trkpt lat="45.56167" lon="4.72485">
        <ele>262</ele>
        <time>2012-10-07T09:15:15Z</time>
      </trkpt>
      <trkpt lat="45.56165" lon="4.72484">
        <ele>262</ele>
        <time>2012-10-07T09:15:17Z</time>
      </trkpt>
      <trkpt lat="45.56163" lon="4.72485">
        <ele>262</ele>
        <time>2012-10-07T09:15:19Z</time>
      </trkpt>
      <trkpt lat="45.56161" lon="4.72485">
        <ele>262</ele>
        <time>2012-10-07T09:15:21Z</time>
      </trkpt>
      <trkpt lat="45.56159" lon="4.72485">
        <ele>262</ele>
        <time>2012-10-07T09:15:23Z</time>
      </trkpt>
      <trkpt lat="45.56156" lon="4.72485">
        <ele>262</ele>
        <time>2012-10-07T09:15:26Z</time>
      </trkpt>
      <trkpt lat="45.56154" lon="4.72485">
        <ele>262</ele>
        <time>2012-10-07T09:15:28Z</time>
      </trkpt>
      <trkpt lat="45.56151" lon="4.72484">
        <ele>262</ele>
        <time>2012-10-07T09:15:30Z</time>
      </trkpt>
      <trkpt lat="45.5615" lon="4.72484">
        <ele>262</ele>
        <time>2012-10-07T09:15:32Z</time>
      </trkpt>
      <trkpt lat="45.56148" lon="4.72485">
        <ele>262</ele>
        <time>2012-10-07T09:15:34Z</time>
      </trkpt>
      <trkpt lat="45.56146" lon="4.72484">
        <ele>262</ele>
        <time>2012-10-07T09:15:36Z</time>
      </trkpt>
      <trkpt lat="45.56144" lon="4.72484">
        <ele>262</ele>
        <time>2012-10-07T09:15:38Z</time>
      </trkpt>
      <trkpt lat="45.56142" lon="4.72484">
        <ele>263</ele>
        <time>2012-10-07T09:15:40Z</time>
      </trkpt>
      <trkpt lat="45.5614" lon="4.72484">
        <ele>263</ele>
        <time>2012-10-07T09:15:43Z</time>
      </trkpt>
      <trkpt lat="45.56139" lon="4.72483">
        <ele>263</ele>
        <time>2012-10-07T09:15:45Z</time>
      </trkpt>
      <trkpt lat="45.56137" lon="4.72483">
        <ele>263</ele>
        <time>2012-10-07T09:15:47Z</time>
      </trkpt>
      <trkpt lat="45.56135" lon="4.72484">
        <ele>263</ele>
        <time>2012-10-07T09:15:49Z</time>
      </trkpt>
      <trkpt lat="45.56132" lon="4.72484">
        <ele>263</ele>
        <time>2012-10-07T09:15:51Z</time>
      </trkpt>
      <trkpt lat="45.5613" lon="4.72484">
        <ele>263</ele>
        <time>2012-10-07T09:15:53Z</time>
      </trkpt>
      <trkpt lat="45.56128" lon="4.72484">
        <ele>264</ele>
        <time>2012-10-07T09:15:55Z</time>
      </trkpt>
      <trkpt lat="45.56127" lon="4.72484">
        <ele>264</ele>
        <time>2012-10-07T09:15:57Z</time>
      </trkpt>
      <trkpt lat="45.56125" lon="4.72484">
        <ele>264</ele>
        <time>2012-10-07T09:15:59Z</time>
      </trkpt>
      <trkpt lat="45.56124" lon="4.72484">
        <ele>264</ele>
        <time>2012-10-07T09:16:01Z</time>
      </trkpt>
      <trkpt lat="45.56122" lon="4.72484">
        <ele>264</ele>
        <time>2012-10-07T09:16:03Z</time>
      </trkpt>
      <trkpt lat="45.56121" lon="4.72484">
        <ele>264</ele>
        <time>2012-10-07T09:16:05Z</time>
      </trkpt>
      <trkpt lat="45.56119" lon="4.72484">
        <ele>264</ele>
        <time>2012-10-07T09:16:07Z</time>
      </trkpt>
      <trkpt lat="45.56117" lon="4.72483">
        <ele>264</ele>
        <time>2012-10-07T09:16:09Z</time>
      </trkpt>
      <trkpt lat="45.56115" lon="4.72483">
        <ele>265</ele>
        <time>2012-10-07T09:16:11Z</time>
      </trkpt>
      <trkpt lat="45.56113" lon="4.72482">
        <ele>265</ele>
        <time>2012-10-07T09:16:13Z</time>
      </trkpt>
      <trkpt lat="45.56111" lon="4.72481">
        <ele>265</ele>
        <time>2012-10-07T09:16:16Z</time>
      </trkpt>
      <trkpt lat="45.56109" lon="4.7248">
        <ele>265</ele>
        <time>2012-10-07T09:16:18Z</time>
      </trkpt>
      <trkpt lat="45.56107" lon="4.72479">
        <ele>265</ele>
        <time>2012-10-07T09:16:20Z</time>
      </trkpt>
      <trkpt lat="45.56104" lon="4.72477">
        <ele>265</ele>
        <time>2012-10-07T09:16:22Z</time>
      </trkpt>
      <trkpt lat="45.56102" lon="4.72476">
        <ele>265</ele>
        <time>2012-10-07T09:16:24Z</time>
      </trkpt>
      <trkpt lat="45.56101" lon="4.72475">
        <ele>265</ele>
        <time>2012-10-07T09:16:26Z</time>
      </trkpt>
      <trkpt lat="45.561" lon="4.72474">
        <ele>265</ele>
        <time>2012-10-07T09:16:28Z</time>
      </trkpt>
      <trkpt lat="45.56099" lon="4.72474">
        <ele>265</ele>
        <time>2012-10-07T09:16:30Z</time>
      </trkpt>
      <trkpt lat="45.56098" lon="4.72472">
        <ele>265</ele>
        <time>2012-10-07T09:16:32Z</time>
      </trkpt>
      <trkpt lat="45.56096" lon="4.72472">
        <ele>265</ele>
        <time>2012-10-07T09:16:34Z</time>
      </trkpt>
      <trkpt lat="45.56094" lon="4.72471">
        <ele>265</ele>
        <time>2012-10-07T09:16:36Z</time>
      </trkpt>
      <trkpt lat="45.56093" lon="4.7247">
        <ele>265</ele>
        <time>2012-10-07T09:16:38Z</time>
      </trkpt>
      <trkpt lat="45.56092" lon="4.72469">
        <ele>265</ele>
        <time>2012-10-07T09:16:40Z</time>
      </trkpt>
      <trkpt lat="45.5609" lon="4.72468">
        <ele>265</ele>
        <time>2012-10-07T09:16:42Z</time>
      </trkpt>
      <trkpt lat="45.56088" lon="4.72468">
        <ele>266</ele>
        <time>2012-10-07T09:16:44Z</time>
      </trkpt>
      <trkpt lat="45.56087" lon="4.72467">
        <ele>266</ele>
        <time>2012-10-07T09:16:47Z</time>
      </trkpt>
      <trkpt lat="45.56085" lon="4.72466">
        <ele>266</ele>
        <time>2012-10-07T09:16:49Z</time>
      </trkpt>
      <trkpt lat="45.56084" lon="4.72465">
        <ele>266</ele>
        <time>2012-10-07T09:16:51Z</time>
      </trkpt>
      <trkpt lat="45.56082" lon="4.72464">
        <ele>266</ele>
        <time>2012-10-07T09:16:53Z</time>
      </trkpt>
      <trkpt lat="45.56079" lon="4.72462">
        <ele>266</ele>
        <time>2012-10-07T09:16:55Z</time>
      </trkpt>
      <trkpt lat="45.56077" lon="4.72461">
        <ele>266</ele>
        <time>2012-10-07T09:16:57Z</time>
      </trkpt>
      <trkpt lat="45.56075" lon="4.7246">
        <ele>266</ele>
        <time>2012-10-07T09:16:59Z</time>
      </trkpt>
      <trkpt lat="45.56073" lon="4.72459">
        <ele>266</ele>
        <time>2012-10-07T09:17:01Z</time>
      </trkpt>
      <trkpt lat="45.56071" lon="4.72458">
        <ele>266</ele>
        <time>2012-10-07T09:17:03Z</time>
      </trkpt>
      <trkpt lat="45.56069" lon="4.72458">
        <ele>266</ele>
        <time>2012-10-07T09:17:06Z</time>
      </trkpt>
      <trkpt lat="45.56068" lon="4.72456">
        <ele>266</ele>
        <time>2012-10-07T09:17:08Z</time>
      </trkpt>
      <trkpt lat="45.56064" lon="4.72454">
        <ele>266</ele>
        <time>2012-10-07T09:17:10Z</time>
      </trkpt>
      <trkpt lat="45.56062" lon="4.72452">
        <ele>266</ele>
        <time>2012-10-07T09:17:12Z</time>
      </trkpt>
      <trkpt lat="45.5606" lon="4.72451">
        <ele>266</ele>
        <time>2012-10-07T09:17:14Z</time>
      </trkpt>
      <trkpt lat="45.56058" lon="4.7245">
        <ele>266</ele>
        <time>2012-10-07T09:17:16Z</time>
      </trkpt>
      <trkpt lat="45.56056" lon="4.72449">
        <ele>266</ele>
        <time>2012-10-07T09:17:18Z</time>
      </trkpt>
      <trkpt lat="45.56054" lon="4.72447">
        <ele>266</ele>
        <time>2012-10-07T09:17:20Z</time>
      </trkpt>
      <trkpt lat="45.56052" lon="4.72446">
        <ele>266</ele>
        <time>2012-10-07T09:17:23Z</time>
      </trkpt>
      <trkpt lat="45.5605" lon="4.72445">
        <ele>266</ele>
        <time>2012-10-07T09:17:25Z</time>
      </trkpt>
      <trkpt lat="45.56047" lon="4.72443">
        <ele>266</ele>
        <time>2012-10-07T09:17:27Z</time>
      </trkpt>
      <trkpt lat="45.56044" lon="4.7244">
        <ele>266</ele>
        <time>2012-10-07T09:17:29Z</time>
      </trkpt>
      <trkpt lat="45.56042" lon="4.72439">
        <ele>266</ele>
        <time>2012-10-07T09:17:31Z</time>
      </trkpt>
      <trkpt lat="45.5604" lon="4.72437">
        <ele>266</ele>
        <time>2012-10-07T09:17:33Z</time>
      </trkpt>
      <trkpt lat="45.56038" lon="4.72435">
        <ele>266</ele>
        <time>2012-10-07T09:17:35Z</time>
      </trkpt>
      <trkpt lat="45.56036" lon="4.72434">
        <ele>266</ele>
        <time>2012-10-07T09:17:37Z</time>
      </trkpt>
      <trkpt lat="45.56034" lon="4.72432">
        <ele>266</ele>
        <time>2012-10-07T09:17:39Z</time>
      </trkpt>
      <trkpt lat="45.56033" lon="4.7243">
        <ele>266</ele>
        <time>2012-10-07T09:17:41Z</time>
      </trkpt>
      <trkpt lat="45.56031" lon="4.72429">
        <ele>267</ele>
        <time>2012-10-07T09:17:43Z</time>
      </trkpt>
      <trkpt lat="45.56029" lon="4.72426">
        <ele>266</ele>
        <time>2012-10-07T09:17:45Z</time>
      </trkpt>
      <trkpt lat="45.56027" lon="4.72425">
        <ele>266</ele>
        <time>2012-10-07T09:17:47Z</time>
      </trkpt>
      <trkpt lat="45.56025" lon="4.72423">
        <ele>266</ele>
        <time>2012-10-07T09:17:49Z</time>
      </trkpt>
      <trkpt lat="45.56023" lon="4.7242">
        <ele>266</ele>
        <time>2012-10-07T09:17:51Z</time>
      </trkpt>
      <trkpt lat="45.56022" lon="4.7242">
        <ele>266</ele>
        <time>2012-10-07T09:17:54Z</time>
      </trkpt>
      <trkpt lat="45.5602" lon="4.72418">
        <ele>266</ele>
        <time>2012-10-07T09:17:56Z</time>
      </trkpt>
      <trkpt lat="45.56019" lon="4.72417">
        <ele>266</ele>
        <time>2012-10-07T09:17:58Z</time>
      </trkpt>
      <trkpt lat="45.56017" lon="4.72416">
        <ele>266</ele>
        <time>2012-10-07T09:18:00Z</time>
      </trkpt>
      <trkpt lat="45.56015" lon="4.72414">
        <ele>266</ele>
        <time>2012-10-07T09:18:02Z</time>
      </trkpt>
      <trkpt lat="45.56013" lon="4.72412">
        <ele>266</ele>
        <time>2012-10-07T09:18:04Z</time>
      </trkpt>
      <trkpt lat="45.56011" lon="4.72411">
        <ele>266</ele>
        <time>2012-10-07T09:18:06Z</time>
      </trkpt>
      <trkpt lat="45.56009" lon="4.7241">
        <ele>266</ele>
        <time>2012-10-07T09:18:08Z</time>
      </trkpt>
      <trkpt lat="45.56007" lon="4.72408">
        <ele>266</ele>
        <time>2012-10-07T09:18:10Z</time>
      </trkpt>
      <trkpt lat="45.56005" lon="4.72406">
        <ele>266</ele>
        <time>2012-10-07T09:18:12Z</time>
      </trkpt>
      <trkpt lat="45.56002" lon="4.72404">
        <ele>266</ele>
        <time>2012-10-07T09:18:14Z</time>
      </trkpt>
      <trkpt lat="45.56" lon="4.72403">
        <ele>266</ele>
        <time>2012-10-07T09:18:16Z</time>
      </trkpt>
      <trkpt lat="45.55998" lon="4.72401">
        <ele>266</ele>
        <time>2012-10-07T09:18:18Z</time>
      </trkpt>
      <trkpt lat="45.55995" lon="4.72399">
        <ele>266</ele>
        <time>2012-10-07T09:18:20Z</time>
      </trkpt>
      <trkpt lat="45.55993" lon="4.72397">
        <ele>266</ele>
        <time>2012-10-07T09:18:22Z</time>
      </trkpt>
      <trkpt lat="45.55991" lon="4.72396">
        <ele>266</ele>
        <time>2012-10-07T09:18:24Z</time>
      </trkpt>
      <trkpt lat="45.55989" lon="4.72394">
        <ele>266</ele>
        <time>2012-10-07T09:18:27Z</time>
      </trkpt>
      <trkpt lat="45.55986" lon="4.72392">
        <ele>266</ele>
        <time>2012-10-07T09:18:29Z</time>
      </trkpt>
      <trkpt lat="45.55984" lon="4.7239">
        <ele>266</ele>
        <time>2012-10-07T09:18:31Z</time>
      </trkpt>
      <trkpt lat="45.55981" lon="4.72387">
        <ele>266</ele>
        <time>2012-10-07T09:18:33Z</time>
      </trkpt>
      <trkpt lat="45.55979" lon="4.72385">
        <ele>266</ele>
        <time>2012-10-07T09:18:35Z</time>
      </trkpt>
      <trkpt lat="45.55977" lon="4.72382">
        <ele>267</ele>
        <time>2012-10-07T09:18:37Z</time>
      </trkpt>
      <trkpt lat="45.55975" lon="4.7238">
        <ele>267</ele>
        <time>2012-10-07T09:18:39Z</time>
      </trkpt>
      <trkpt lat="45.55973" lon="4.72378">
        <ele>267</ele>
        <time>2012-10-07T09:18:41Z</time>
      </trkpt>
      <trkpt lat="45.55971" lon="4.72376">
        <ele>267</ele>
        <time>2012-10-07T09:18:43Z</time>
      </trkpt>
      <trkpt lat="45.55969" lon="4.72374">
        <ele>267</ele>
        <time>2012-10-07T09:18:45Z</time>
      </trkpt>
      <trkpt lat="45.55967" lon="4.72372">
        <ele>267</ele>
        <time>2012-10-07T09:18:47Z</time>
      </trkpt>
      <trkpt lat="45.55965" lon="4.72371">
        <ele>267</ele>
        <time>2012-10-07T09:18:49Z</time>
      </trkpt>
      <trkpt lat="45.55964" lon="4.72369">
        <ele>267</ele>
        <time>2012-10-07T09:18:51Z</time>
      </trkpt>
      <trkpt lat="45.55963" lon="4.72366">
        <ele>267</ele>
        <time>2012-10-07T09:18:53Z</time>
      </trkpt>
      <trkpt lat="45.55961" lon="4.72365">
        <ele>267</ele>
        <time>2012-10-07T09:18:55Z</time>
      </trkpt>
      <trkpt lat="45.55959" lon="4.72363">
        <ele>267</ele>
        <time>2012-10-07T09:18:57Z</time>
      </trkpt>
      <trkpt lat="45.55957" lon="4.72361">
        <ele>267</ele>
        <time>2012-10-07T09:19:00Z</time>
      </trkpt>
      <trkpt lat="45.55955" lon="4.72359">
        <ele>267</ele>
        <time>2012-10-07T09:19:02Z</time>
      </trkpt>
      <trkpt lat="45.55952" lon="4.72356">
        <ele>267</ele>
        <time>2012-10-07T09:19:04Z</time>
      </trkpt>
      <trkpt lat="45.5595" lon="4.72355">
        <ele>268</ele>
        <time>2012-10-07T09:19:06Z</time>
      </trkpt>
      <trkpt lat="45.55949" lon="4.72353">
        <ele>268</ele>
        <time>2012-10-07T09:19:08Z</time>
      </trkpt>
      <trkpt lat="45.55947" lon="4.72352">
        <ele>268</ele>
        <time>2012-10-07T09:19:10Z</time>
      </trkpt>
      <trkpt lat="45.55946" lon="4.7235">
        <ele>268</ele>
        <time>2012-10-07T09:19:12Z</time>
      </trkpt>
      <trkpt lat="45.55945" lon="4.72348">
        <ele>268</ele>
        <time>2012-10-07T09:19:14Z</time>
      </trkpt>
      <trkpt lat="45.55943" lon="4.72346">
        <ele>268</ele>
        <time>2012-10-07T09:19:16Z</time>
      </trkpt>
      <trkpt lat="45.55941" lon="4.72344">
        <ele>268</ele>
        <time>2012-10-07T09:19:18Z</time>
      </trkpt>
      <trkpt lat="45.55939" lon="4.72342">
        <ele>268</ele>
        <time>2012-10-07T09:19:21Z</time>
      </trkpt>
      <trkpt lat="45.55938" lon="4.72341">
        <ele>268</ele>
        <time>2012-10-07T09:19:23Z</time>
      </trkpt>
      <trkpt lat="45.55936" lon="4.72339">
        <ele>268</ele>
        <time>2012-10-07T09:19:25Z</time>
      </trkpt>
      <trkpt lat="45.55934" lon="4.72337">
        <ele>268</ele>
        <time>2012-10-07T09:19:27Z</time>
      </trkpt>
      <trkpt lat="45.55933" lon="4.72335">
        <ele>269</ele>
        <time>2012-10-07T09:19:29Z</time>
      </trkpt>
      <trkpt lat="45.5593" lon="4.72331">
        <ele>269</ele>
        <time>2012-10-07T09:19:31Z</time>
      </trkpt>
      <trkpt lat="45.55928" lon="4.7233">
        <ele>269</ele>
        <time>2012-10-07T09:19:33Z</time>
      </trkpt>
      <trkpt lat="45.55927" lon="4.72328">
        <ele>270</ele>
        <time>2012-10-07T09:19:35Z</time>
      </trkpt>
      <trkpt lat="45.55925" lon="4.72326">
        <ele>269</ele>
        <time>2012-10-07T09:19:37Z</time>
      </trkpt>
      <trkpt lat="45.55923" lon="4.72325">
        <ele>269</ele>
        <time>2012-10-07T09:19:39Z</time>
      </trkpt>
      <trkpt lat="45.55921" lon="4.72323">
        <ele>269</ele>
        <time>2012-10-07T09:19:41Z</time>
      </trkpt>
      <trkpt lat="45.5592" lon="4.72321">
        <ele>269</ele>
        <time>2012-10-07T09:19:43Z</time>
      </trkpt>
      <trkpt lat="45.55918" lon="4.72319">
        <ele>270</ele>
        <time>2012-10-07T09:19:45Z</time>
      </trkpt>
      <trkpt lat="45.55917" lon="4.72318">
        <ele>270</ele>
        <time>2012-10-07T09:19:48Z</time>
      </trkpt>
      <trkpt lat="45.55915" lon="4.72316">
        <ele>270</ele>
        <time>2012-10-07T09:19:50Z</time>
      </trkpt>
      <trkpt lat="45.55913" lon="4.72313">
        <ele>270</ele>
        <time>2012-10-07T09:19:52Z</time>
      </trkpt>
      <trkpt lat="45.55911" lon="4.72311">
        <ele>270</ele>
        <time>2012-10-07T09:19:54Z</time>
      </trkpt>
      <trkpt lat="45.5591" lon="4.72309">
        <ele>270</ele>
        <time>2012-10-07T09:19:56Z</time>
      </trkpt>
      <trkpt lat="45.55908" lon="4.72307">
        <ele>271</ele>
        <time>2012-10-07T09:19:58Z</time>
      </trkpt>
      <trkpt lat="45.55907" lon="4.72305">
        <ele>271</ele>
        <time>2012-10-07T09:20:00Z</time>
      </trkpt>
      <trkpt lat="45.55905" lon="4.72303">
        <ele>271</ele>
        <time>2012-10-07T09:20:02Z</time>
      </trkpt>
      <trkpt lat="45.55903" lon="4.72301">
        <ele>271</ele>
        <time>2012-10-07T09:20:04Z</time>
      </trkpt>
      <trkpt lat="45.55901" lon="4.72299">
        <ele>271</ele>
        <time>2012-10-07T09:20:06Z</time>
      </trkpt>
      <trkpt lat="45.559" lon="4.72298">
        <ele>271</ele>
        <time>2012-10-07T09:20:08Z</time>
      </trkpt>
      <trkpt lat="45.55898" lon="4.72296">
        <ele>270</ele>
        <time>2012-10-07T09:20:10Z</time>
      </trkpt>
      <trkpt lat="45.55896" lon="4.72294">
        <ele>271</ele>
        <time>2012-10-07T09:20:13Z</time>
      </trkpt>
      <trkpt lat="45.55896" lon="4.72292">
        <ele>271</ele>
        <time>2012-10-07T09:20:15Z</time>
      </trkpt>
      <trkpt lat="45.55893" lon="4.7229">
        <ele>271</ele>
        <time>2012-10-07T09:20:17Z</time>
      </trkpt>
      <trkpt lat="45.55891" lon="4.72289">
        <ele>271</ele>
        <time>2012-10-07T09:20:19Z</time>
      </trkpt>
      <trkpt lat="45.55889" lon="4.72288">
        <ele>271</ele>
        <time>2012-10-07T09:20:21Z</time>
      </trkpt>
      <trkpt lat="45.55886" lon="4.72287">
        <ele>271</ele>
        <time>2012-10-07T09:20:23Z</time>
      </trkpt>
      <trkpt lat="45.55883" lon="4.72285">
        <ele>271</ele>
        <time>2012-10-07T09:20:25Z</time>
      </trkpt>
      <trkpt lat="45.5588" lon="4.72284">
        <ele>271</ele>
        <time>2012-10-07T09:20:27Z</time>
      </trkpt>
      <trkpt lat="45.55878" lon="4.72282">
        <ele>271</ele>
        <time>2012-10-07T09:20:29Z</time>
      </trkpt>
      <trkpt lat="45.55875" lon="4.72281">
        <ele>271</ele>
        <time>2012-10-07T09:20:31Z</time>
      </trkpt>
      <trkpt lat="45.55873" lon="4.7228">
        <ele>271</ele>
        <time>2012-10-07T09:20:33Z</time>
      </trkpt>
      <trkpt lat="45.5587" lon="4.72279">
        <ele>272</ele>
        <time>2012-10-07T09:20:35Z</time>
      </trkpt>
      <trkpt lat="45.55868" lon="4.72277">
        <ele>271</ele>
        <time>2012-10-07T09:20:37Z</time>
      </trkpt>
      <trkpt lat="45.55866" lon="4.72277">
        <ele>271</ele>
        <time>2012-10-07T09:20:39Z</time>
      </trkpt>
      <trkpt lat="45.55864" lon="4.72276">
        <ele>271</ele>
        <time>2012-10-07T09:20:41Z</time>
      </trkpt>
      <trkpt lat="45.55862" lon="4.72275">
        <ele>271</ele>
        <time>2012-10-07T09:20:43Z</time>
      </trkpt>
      <trkpt lat="45.5586" lon="4.72274">
        <ele>271</ele>
        <time>2012-10-07T09:20:45Z</time>
      </trkpt>
      <trkpt lat="45.55858" lon="4.72274">
        <ele>271</ele>
        <time>2012-10-07T09:20:47Z</time>
      </trkpt>
      <trkpt lat="45.55856" lon="4.72274">
        <ele>271</ele>
        <time>2012-10-07T09:20:50Z</time>
      </trkpt>
      <trkpt lat="45.55854" lon="4.72273">
        <ele>272</ele>
        <time>2012-10-07T09:20:52Z</time>
      </trkpt>
      <trkpt lat="45.55853" lon="4.72272">
        <ele>272</ele>
        <time>2012-10-07T09:20:54Z</time>
      </trkpt>
      <trkpt lat="45.55848" lon="4.72271">
        <ele>272</ele>
        <time>2012-10-07T09:20:56Z</time>
      </trkpt>
      <trkpt lat="45.55847" lon="4.7227">
        <ele>272</ele>
        <time>2012-10-07T09:20:58Z</time>
      </trkpt>
      <trkpt lat="45.55846" lon="4.7227">
        <ele>272</ele>
        <time>2012-10-07T09:21:00Z</time>
      </trkpt>
      <trkpt lat="45.55844" lon="4.72269">
        <ele>272</ele>
        <time>2012-10-07T09:21:02Z</time>
      </trkpt>
      <trkpt lat="45.55842" lon="4.72268">
        <ele>272</ele>
        <time>2012-10-07T09:21:04Z</time>
      </trkpt>
      <trkpt lat="45.55841" lon="4.72268">
        <ele>272</ele>
        <time>2012-10-07T09:21:06Z</time>
      </trkpt>
      <trkpt lat="45.5584" lon="4.72267">
        <ele>272</ele>
        <time>2012-10-07T09:21:09Z</time>
      </trkpt>
      <trkpt lat="45.55838" lon="4.72266">
        <ele>272</ele>
        <time>2012-10-07T09:21:11Z</time>
      </trkpt>
      <trkpt lat="45.55836" lon="4.72265">
        <ele>272</ele>
        <time>2012-10-07T09:21:13Z</time>
      </trkpt>
      <trkpt lat="45.55834" lon="4.72263">
        <ele>272</ele>
        <time>2012-10-07T09:21:15Z</time>
      </trkpt>
      <trkpt lat="45.55832" lon="4.72262">
        <ele>272</ele>
        <time>2012-10-07T09:21:17Z</time>
      </trkpt>
      <trkpt lat="45.5583" lon="4.72261">
        <ele>272</ele>
        <time>2012-10-07T09:21:19Z</time>
      </trkpt>
      <trkpt lat="45.55828" lon="4.7226">
        <ele>272</ele>
        <time>2012-10-07T09:21:21Z</time>
      </trkpt>
      <trkpt lat="45.55825" lon="4.72259">
        <ele>272</ele>
        <time>2012-10-07T09:21:23Z</time>
      </trkpt>
      <trkpt lat="45.55822" lon="4.72259">
        <ele>272</ele>
        <time>2012-10-07T09:21:25Z</time>
      </trkpt>
      <trkpt lat="45.5582" lon="4.72258">
        <ele>272</ele>
        <time>2012-10-07T09:21:27Z</time>
      </trkpt>
      <trkpt lat="45.55818" lon="4.72257">
        <ele>272</ele>
        <time>2012-10-07T09:21:29Z</time>
      </trkpt>
      <trkpt lat="45.55815" lon="4.72257">
        <ele>272</ele>
        <time>2012-10-07T09:21:31Z</time>
      </trkpt>
      <trkpt lat="45.55813" lon="4.72256">
        <ele>272</ele>
        <time>2012-10-07T09:21:33Z</time>
      </trkpt>
      <trkpt lat="45.5581" lon="4.72256">
        <ele>272</ele>
        <time>2012-10-07T09:21:35Z</time>
      </trkpt>
      <trkpt lat="45.55808" lon="4.72255">
        <ele>272</ele>
        <time>2012-10-07T09:21:37Z</time>
      </trkpt>
      <trkpt lat="45.55805" lon="4.72254">
        <ele>272</ele>
        <time>2012-10-07T09:21:39Z</time>
      </trkpt>
      <trkpt lat="45.55803" lon="4.72254">
        <ele>272</ele>
        <time>2012-10-07T09:21:41Z</time>
      </trkpt>
      <trkpt lat="45.55801" lon="4.72253">
        <ele>272</ele>
        <time>2012-10-07T09:21:44Z</time>
      </trkpt>
      <trkpt lat="45.55799" lon="4.72253">
        <ele>272</ele>
        <time>2012-10-07T09:21:46Z</time>
      </trkpt>
      <trkpt lat="45.55795" lon="4.72252">
        <ele>272</ele>
        <time>2012-10-07T09:21:48Z</time>
      </trkpt>
      <trkpt lat="45.55793" lon="4.72252">
        <ele>272</ele>
        <time>2012-10-07T09:21:50Z</time>
      </trkpt>
      <trkpt lat="45.5579" lon="4.72251">
        <ele>272</ele>
        <time>2012-10-07T09:21:52Z</time>
      </trkpt>
      <trkpt lat="45.55788" lon="4.72251">
        <ele>272</ele>
        <time>2012-10-07T09:21:54Z</time>
      </trkpt>
      <trkpt lat="45.55785" lon="4.7225">
        <ele>272</ele>
        <time>2012-10-07T09:21:56Z</time>
      </trkpt>
      <trkpt lat="45.55783" lon="4.72249">
        <ele>272</ele>
        <time>2012-10-07T09:21:58Z</time>
      </trkpt>
      <trkpt lat="45.55781" lon="4.72248">
        <ele>272</ele>
        <time>2012-10-07T09:22:00Z</time>
      </trkpt>
      <trkpt lat="45.55778" lon="4.72248">
        <ele>272</ele>
        <time>2012-10-07T09:22:02Z</time>
      </trkpt>
      <trkpt lat="45.55776" lon="4.72248">
        <ele>272</ele>
        <time>2012-10-07T09:22:04Z</time>
      </trkpt>
      <trkpt lat="45.55773" lon="4.72248">
        <ele>272</ele>
        <time>2012-10-07T09:22:06Z</time>
      </trkpt>
      <trkpt lat="45.55771" lon="4.72248">
        <ele>272</ele>
        <time>2012-10-07T09:22:08Z</time>
      </trkpt>
      <trkpt lat="45.55768" lon="4.72247">
        <ele>272</ele>
        <time>2012-10-07T09:22:10Z</time>
      </trkpt>
      <trkpt lat="45.55765" lon="4.72247">
        <ele>272</ele>
        <time>2012-10-07T09:22:12Z</time>
      </trkpt>
      <trkpt lat="45.55763" lon="4.72247">
        <ele>272</ele>
        <time>2012-10-07T09:22:14Z</time>
      </trkpt>
      <trkpt lat="45.55761" lon="4.72246">
        <ele>272</ele>
        <time>2012-10-07T09:22:16Z</time>
      </trkpt>
      <trkpt lat="45.55759" lon="4.72246">
        <ele>272</ele>
        <time>2012-10-07T09:22:18Z</time>
      </trkpt>
      <trkpt lat="45.55757" lon="4.72244">
        <ele>272</ele>
        <time>2012-10-07T09:22:21Z</time>
      </trkpt>
      <trkpt lat="45.55755" lon="4.72243">
        <ele>272</ele>
        <time>2012-10-07T09:22:23Z</time>
      </trkpt>
      <trkpt lat="45.55752" lon="4.72242">
        <ele>272</ele>
        <time>2012-10-07T09:22:25Z</time>
      </trkpt>
      <trkpt lat="45.5575" lon="4.72241">
        <ele>272</ele>
        <time>2012-10-07T09:22:27Z</time>
      </trkpt>
      <trkpt lat="45.55747" lon="4.7224">
        <ele>272</ele>
        <time>2012-10-07T09:22:29Z</time>
      </trkpt>
      <trkpt lat="45.55745" lon="4.72239">
        <ele>272</ele>
        <time>2012-10-07T09:22:31Z</time>
      </trkpt>
      <trkpt lat="45.55742" lon="4.72239">
        <ele>272</ele>
        <time>2012-10-07T09:22:33Z</time>
      </trkpt>
      <trkpt lat="45.5574" lon="4.72238">
        <ele>272</ele>
        <time>2012-10-07T09:22:35Z</time>
      </trkpt>
      <trkpt lat="45.55738" lon="4.72237">
        <ele>272</ele>
        <time>2012-10-07T09:22:37Z</time>
      </trkpt>
      <trkpt lat="45.55736" lon="4.72236">
        <ele>272</ele>
        <time>2012-10-07T09:22:40Z</time>
      </trkpt>
      <trkpt lat="45.55734" lon="4.72235">
        <ele>272</ele>
        <time>2012-10-07T09:22:42Z</time>
      </trkpt>
      <trkpt lat="45.55732" lon="4.72235">
        <ele>272</ele>
        <time>2012-10-07T09:22:44Z</time>
      </trkpt>
      <trkpt lat="45.5573" lon="4.72235">
        <ele>273</ele>
        <time>2012-10-07T09:22:46Z</time>
      </trkpt>
      <trkpt lat="45.55728" lon="4.72235">
        <ele>273</ele>
        <time>2012-10-07T09:22:48Z</time>
      </trkpt>
      <trkpt lat="45.55727" lon="4.72234">
        <ele>273</ele>
        <time>2012-10-07T09:22:50Z</time>
      </trkpt>
      <trkpt lat="45.55725" lon="4.72233">
        <ele>273</ele>
        <time>2012-10-07T09:22:52Z</time>
      </trkpt>
      <trkpt lat="45.55723" lon="4.72232">
        <ele>273</ele>
        <time>2012-10-07T09:22:54Z</time>
      </trkpt>
      <trkpt lat="45.55721" lon="4.72232">
        <ele>273</ele>
        <time>2012-10-07T09:22:56Z</time>
      </trkpt>
      <trkpt lat="45.55719" lon="4.72232">
        <ele>274</ele>
        <time>2012-10-07T09:22:58Z</time>
      </trkpt>
      <trkpt lat="45.55717" lon="4.72232">
        <ele>274</ele>
        <time>2012-10-07T09:23:00Z</time>
      </trkpt>
      <trkpt lat="45.55715" lon="4.72231">
        <ele>274</ele>
        <time>2012-10-07T09:23:02Z</time>
      </trkpt>
      <trkpt lat="45.55713" lon="4.72231">
        <ele>274</ele>
        <time>2012-10-07T09:23:04Z</time>
      </trkpt>
      <trkpt lat="45.55711" lon="4.72231">
        <ele>274</ele>
        <time>2012-10-07T09:23:07Z</time>
      </trkpt>
      <trkpt lat="45.55709" lon="4.72232">
        <ele>274</ele>
        <time>2012-10-07T09:23:09Z</time>
      </trkpt>
      <trkpt lat="45.55707" lon="4.72231">
        <ele>274</ele>
        <time>2012-10-07T09:23:11Z</time>
      </trkpt>
      <trkpt lat="45.55705" lon="4.7223">
        <ele>274</ele>
        <time>2012-10-07T09:23:13Z</time>
      </trkpt>
      <trkpt lat="45.55703" lon="4.7223">
        <ele>274</ele>
        <time>2012-10-07T09:23:15Z</time>
      </trkpt>
      <trkpt lat="45.55701" lon="4.72229">
        <ele>274</ele>
        <time>2012-10-07T09:23:17Z</time>
      </trkpt>
      <trkpt lat="45.55698" lon="4.72229">
        <ele>274</ele>
        <time>2012-10-07T09:23:19Z</time>
      </trkpt>
      <trkpt lat="45.55696" lon="4.72228">
        <ele>275</ele>
        <time>2012-10-07T09:23:21Z</time>
      </trkpt>
      <trkpt lat="45.55695" lon="4.72228">
        <ele>275</ele>
        <time>2012-10-07T09:23:23Z</time>
      </trkpt>
      <trkpt lat="45.55693" lon="4.72228">
        <ele>276</ele>
        <time>2012-10-07T09:23:25Z</time>
      </trkpt>
      <trkpt lat="45.55691" lon="4.72227">
        <ele>275</ele>
        <time>2012-10-07T09:23:27Z</time>
      </trkpt>
      <trkpt lat="45.55689" lon="4.72226">
        <ele>275</ele>
        <time>2012-10-07T09:23:29Z</time>
      </trkpt>
      <trkpt lat="45.55687" lon="4.72226">
        <ele>276</ele>
        <time>2012-10-07T09:23:31Z</time>
      </trkpt>
      <trkpt lat="45.55685" lon="4.72225">
        <ele>276</ele>
        <time>2012-10-07T09:23:34Z</time>
      </trkpt>
      <trkpt lat="45.55682" lon="4.72223">
        <ele>276</ele>
        <time>2012-10-07T09:23:36Z</time>
      </trkpt>
      <trkpt lat="45.5568" lon="4.72222">
        <ele>276</ele>
        <time>2012-10-07T09:23:38Z</time>
      </trkpt>
      <trkpt lat="45.55679" lon="4.72221">
        <ele>276</ele>
        <time>2012-10-07T09:23:40Z</time>
      </trkpt>
      <trkpt lat="45.55676" lon="4.72221">
        <ele>276</ele>
        <time>2012-10-07T09:23:42Z</time>
      </trkpt>
      <trkpt lat="45.55674" lon="4.72221">
        <ele>277</ele>
        <time>2012-10-07T09:23:44Z</time>
      </trkpt>
      <trkpt lat="45.55672" lon="4.7222">
        <ele>277</ele>
        <time>2012-10-07T09:23:47Z</time>
      </trkpt>
      <trkpt lat="45.55669" lon="4.7222">
        <ele>277</ele>
        <time>2012-10-07T09:23:49Z</time>
      </trkpt>
      <trkpt lat="45.55667" lon="4.7222">
        <ele>277</ele>
        <time>2012-10-07T09:23:51Z</time>
      </trkpt>
      <trkpt lat="45.55665" lon="4.72219">
        <ele>277</ele>
        <time>2012-10-07T09:23:53Z</time>
      </trkpt>
      <trkpt lat="45.55663" lon="4.72219">
        <ele>277</ele>
        <time>2012-10-07T09:23:55Z</time>
      </trkpt>
      <trkpt lat="45.55661" lon="4.72219">
        <ele>277</ele>
        <time>2012-10-07T09:23:57Z</time>
      </trkpt>
      <trkpt lat="45.5566" lon="4.72219">
        <ele>278</ele>
        <time>2012-10-07T09:23:59Z</time>
      </trkpt>
      <trkpt lat="45.55658" lon="4.72218">
        <ele>278</ele>
        <time>2012-10-07T09:24:01Z</time>
      </trkpt>
      <trkpt lat="45.55656" lon="4.72217">
        <ele>278</ele>
        <time>2012-10-07T09:24:03Z</time>
      </trkpt>
      <trkpt lat="45.55655" lon="4.72217">
        <ele>278</ele>
        <time>2012-10-07T09:24:05Z</time>
      </trkpt>
      <trkpt lat="45.55653" lon="4.72217">
        <ele>278</ele>
        <time>2012-10-07T09:24:07Z</time>
      </trkpt>
      <trkpt lat="45.5565" lon="4.72217">
        <ele>278</ele>
        <time>2012-10-07T09:24:09Z</time>
      </trkpt>
      <trkpt lat="45.55649" lon="4.72217">
        <ele>279</ele>
        <time>2012-10-07T09:24:11Z</time>
      </trkpt>
      <trkpt lat="45.55647" lon="4.72218">
        <ele>279</ele>
        <time>2012-10-07T09:24:13Z</time>
      </trkpt>
      <trkpt lat="45.55645" lon="4.72218">
        <ele>280</ele>
        <time>2012-10-07T09:24:15Z</time>
      </trkpt>
      <trkpt lat="45.55643" lon="4.72218">
        <ele>280</ele>
        <time>2012-10-07T09:24:18Z</time>
      </trkpt>
      <trkpt lat="45.55642" lon="4.72218">
        <ele>280</ele>
        <time>2012-10-07T09:24:20Z</time>
      </trkpt>
      <trkpt lat="45.5564" lon="4.72217">
        <ele>280</ele>
        <time>2012-10-07T09:24:22Z</time>
      </trkpt>
      <trkpt lat="45.55638" lon="4.72217">
        <ele>280</ele>
        <time>2012-10-07T09:24:24Z</time>
      </trkpt>
      <trkpt lat="45.55636" lon="4.72216">
        <ele>280</ele>
        <time>2012-10-07T09:24:26Z</time>
      </trkpt>
      <trkpt lat="45.55634" lon="4.72214">
        <ele>280</ele>
        <time>2012-10-07T09:24:28Z</time>
      </trkpt>
      <trkpt lat="45.55632" lon="4.72212">
        <ele>280</ele>
        <time>2012-10-07T09:24:30Z</time>
      </trkpt>
      <trkpt lat="45.5563" lon="4.72211">
        <ele>280</ele>
        <time>2012-10-07T09:24:32Z</time>
      </trkpt>
      <trkpt lat="45.55629" lon="4.72209">
        <ele>281</ele>
        <time>2012-10-07T09:24:34Z</time>
      </trkpt>
      <trkpt lat="45.55627" lon="4.72207">
        <ele>280</ele>
        <time>2012-10-07T09:24:36Z</time>
      </trkpt>
      <trkpt lat="45.55626" lon="4.72205">
        <ele>281</ele>
        <time>2012-10-07T09:24:38Z</time>
      </trkpt>
      <trkpt lat="45.55624" lon="4.72204">
        <ele>281</ele>
        <time>2012-10-07T09:24:40Z</time>
      </trkpt>
      <trkpt lat="45.55623" lon="4.72203">
        <ele>281</ele>
        <time>2012-10-07T09:24:42Z</time>
      </trkpt>
      <trkpt lat="45.55622" lon="4.72202">
        <ele>281</ele>
        <time>2012-10-07T09:24:44Z</time>
      </trkpt>
      <trkpt lat="45.5562" lon="4.722">
        <ele>281</ele>
        <time>2012-10-07T09:24:46Z</time>
      </trkpt>
      <trkpt lat="45.55618" lon="4.72199">
        <ele>281</ele>
        <time>2012-10-07T09:24:49Z</time>
      </trkpt>
      <trkpt lat="45.55616" lon="4.72197">
        <ele>281</ele>
        <time>2012-10-07T09:24:51Z</time>
      </trkpt>
      <trkpt lat="45.55614" lon="4.72195">
        <ele>281</ele>
        <time>2012-10-07T09:24:53Z</time>
      </trkpt>
      <trkpt lat="45.55613" lon="4.72194">
        <ele>282</ele>
        <time>2012-10-07T09:24:55Z</time>
      </trkpt>
      <trkpt lat="45.55611" lon="4.72193">
        <ele>282</ele>
        <time>2012-10-07T09:24:57Z</time>
      </trkpt>
      <trkpt lat="45.5561" lon="4.72191">
        <ele>282</ele>
        <time>2012-10-07T09:24:59Z</time>
      </trkpt>
      <trkpt lat="45.55608" lon="4.7219">
        <ele>282</ele>
        <time>2012-10-07T09:25:01Z</time>
      </trkpt>
      <trkpt lat="45.55606" lon="4.72189">
        <ele>282</ele>
        <time>2012-10-07T09:25:03Z</time>
      </trkpt>
      <trkpt lat="45.55604" lon="4.72188">
        <ele>282</ele>
        <time>2012-10-07T09:25:05Z</time>
      </trkpt>
      <trkpt lat="45.55601" lon="4.72185">
        <ele>282</ele>
        <time>2012-10-07T09:25:08Z</time>
      </trkpt>
      <trkpt lat="45.55599" lon="4.72184">
        <ele>282</ele>
        <time>2012-10-07T09:25:10Z</time>
      </trkpt>
      <trkpt lat="45.55597" lon="4.72182">
        <ele>282</ele>
        <time>2012-10-07T09:25:12Z</time>
      </trkpt>
      <trkpt lat="45.55595" lon="4.72181">
        <ele>282</ele>
        <time>2012-10-07T09:25:14Z</time>
      </trkpt>
      <trkpt lat="45.55594" lon="4.72179">
        <ele>282</ele>
        <time>2012-10-07T09:25:16Z</time>
      </trkpt>
      <trkpt lat="45.55592" lon="4.72177">
        <ele>282</ele>
        <time>2012-10-07T09:25:18Z</time>
      </trkpt>
      <trkpt lat="45.55591" lon="4.72176">
        <ele>282</ele>
        <time>2012-10-07T09:25:21Z</time>
      </trkpt>
      <trkpt lat="45.55589" lon="4.72175">
        <ele>283</ele>
        <time>2012-10-07T09:25:23Z</time>
      </trkpt>
      <trkpt lat="45.55587" lon="4.72174">
        <ele>283</ele>
        <time>2012-10-07T09:25:25Z</time>
      </trkpt>
      <trkpt lat="45.55586" lon="4.72172">
        <ele>283</ele>
        <time>2012-10-07T09:25:27Z</time>
      </trkpt>
      <trkpt lat="45.55584" lon="4.72171">
        <ele>283</ele>
        <time>2012-10-07T09:25:29Z</time>
      </trkpt>
      <trkpt lat="45.55582" lon="4.7217">
        <ele>283</ele>
        <time>2012-10-07T09:25:31Z</time>
      </trkpt>
      <trkpt lat="45.5558" lon="4.72168">
        <ele>283</ele>
        <time>2012-10-07T09:25:33Z</time>
      </trkpt>
      <trkpt lat="45.55578" lon="4.72166">
        <ele>283</ele>
        <time>2012-10-07T09:25:35Z</time>
      </trkpt>
      <trkpt lat="45.55576" lon="4.72165">
        <ele>283</ele>
        <time>2012-10-07T09:25:37Z</time>
      </trkpt>
      <trkpt lat="45.55574" lon="4.72164">
        <ele>283</ele>
        <time>2012-10-07T09:25:39Z</time>
      </trkpt>
      <trkpt lat="45.55573" lon="4.72162">
        <ele>283</ele>
        <time>2012-10-07T09:25:41Z</time>
      </trkpt>
      <trkpt lat="45.55571" lon="4.7216">
        <ele>283</ele>
        <time>2012-10-07T09:25:43Z</time>
      </trkpt>
      <trkpt lat="45.5557" lon="4.72158">
        <ele>283</ele>
        <time>2012-10-07T09:25:45Z</time>
      </trkpt>
      <trkpt lat="45.55569" lon="4.72156">
        <ele>283</ele>
        <time>2012-10-07T09:25:47Z</time>
      </trkpt>
      <trkpt lat="45.55567" lon="4.72154">
        <ele>283</ele>
        <time>2012-10-07T09:25:50Z</time>
      </trkpt>
      <trkpt lat="45.55564" lon="4.72152">
        <ele>283</ele>
        <time>2012-10-07T09:25:52Z</time>
      </trkpt>
      <trkpt lat="45.55562" lon="4.7215">
        <ele>283</ele>
        <time>2012-10-07T09:25:54Z</time>
      </trkpt>
      <trkpt lat="45.5556" lon="4.72148">
        <ele>283</ele>
        <time>2012-10-07T09:25:56Z</time>
      </trkpt>
      <trkpt lat="45.55558" lon="4.72147">
        <ele>283</ele>
        <time>2012-10-07T09:25:58Z</time>
      </trkpt>
      <trkpt lat="45.55556" lon="4.72145">
        <ele>284</ele>
        <time>2012-10-07T09:26:00Z</time>
      </trkpt>
      <trkpt lat="45.55553" lon="4.72144">
        <ele>284</ele>
        <time>2012-10-07T09:26:02Z</time>
      </trkpt>
      <trkpt lat="45.55551" lon="4.72143">
        <ele>284</ele>
        <time>2012-10-07T09:26:04Z</time>
      </trkpt>
      <trkpt lat="45.55549" lon="4.72141">
        <ele>284</ele>
        <time>2012-10-07T09:26:06Z</time>
      </trkpt>
      <trkpt lat="45.55547" lon="4.72139">
        <ele>284</ele>
        <time>2012-10-07T09:26:08Z</time>
      </trkpt>
      <trkpt lat="45.55544" lon="4.72136">
        <ele>284</ele>
        <time>2012-10-07T09:26:10Z</time>
      </trkpt>
      <trkpt lat="45.55543" lon="4.72134">
        <ele>284</ele>
        <time>2012-10-07T09:26:12Z</time>
      </trkpt>
      <trkpt lat="45.55541" lon="4.72132">
        <ele>284</ele>
        <time>2012-10-07T09:26:14Z</time>
      </trkpt>
      <trkpt lat="45.55539" lon="4.7213">
        <ele>284</ele>
        <time>2012-10-07T09:26:16Z</time>
      </trkpt>
      <trkpt lat="45.55539" lon="4.72127">
        <ele>284</ele>
        <time>2012-10-07T09:26:18Z</time>
      </trkpt>
      <trkpt lat="45.55538" lon="4.72123">
        <ele>284</ele>
        <time>2012-10-07T09:26:21Z</time>
      </trkpt>
      <trkpt lat="45.55537" lon="4.7212">
        <ele>285</ele>
        <time>2012-10-07T09:26:23Z</time>
      </trkpt>
      <trkpt lat="45.55537" lon="4.72117">
        <ele>285</ele>
        <time>2012-10-07T09:26:25Z</time>
      </trkpt>
      <trkpt lat="45.55537" lon="4.72114">
        <ele>285</ele>
        <time>2012-10-07T09:26:27Z</time>
      </trkpt>
      <trkpt lat="45.55537" lon="4.7211">
        <ele>285</ele>
        <time>2012-10-07T09:26:29Z</time>
      </trkpt>
      <trkpt lat="45.55537" lon="4.72107">
        <ele>286</ele>
        <time>2012-10-07T09:26:31Z</time>
      </trkpt>
      <trkpt lat="45.55537" lon="4.72104">
        <ele>286</ele>
        <time>2012-10-07T09:26:33Z</time>
      </trkpt>
      <trkpt lat="45.55537" lon="4.72101">
        <ele>286</ele>
        <time>2012-10-07T09:26:35Z</time>
      </trkpt>
      <trkpt lat="45.55536" lon="4.72098">
        <ele>286</ele>
        <time>2012-10-07T09:26:37Z</time>
      </trkpt>
      <trkpt lat="45.55536" lon="4.72095">
        <ele>286</ele>
        <time>2012-10-07T09:26:40Z</time>
      </trkpt>
      <trkpt lat="45.55535" lon="4.72092">
        <ele>286</ele>
        <time>2012-10-07T09:26:42Z</time>
      </trkpt>
      <trkpt lat="45.55535" lon="4.72088">
        <ele>286</ele>
        <time>2012-10-07T09:26:44Z</time>
      </trkpt>
      <trkpt lat="45.55534" lon="4.72085">
        <ele>286</ele>
        <time>2012-10-07T09:26:46Z</time>
      </trkpt>
      <trkpt lat="45.55534" lon="4.72082">
        <ele>286</ele>
        <time>2012-10-07T09:26:48Z</time>
      </trkpt>
      <trkpt lat="45.55534" lon="4.72079">
        <ele>286</ele>
        <time>2012-10-07T09:26:50Z</time>
      </trkpt>
      <trkpt lat="45.55533" lon="4.72076">
        <ele>287</ele>
        <time>2012-10-07T09:26:52Z</time>
      </trkpt>
      <trkpt lat="45.55533" lon="4.72072">
        <ele>287</ele>
        <time>2012-10-07T09:26:54Z</time>
      </trkpt>
      <trkpt lat="45.55533" lon="4.72069">
        <ele>287</ele>
        <time>2012-10-07T09:26:57Z</time>
      </trkpt>
      <trkpt lat="45.55532" lon="4.72065">
        <ele>287</ele>
        <time>2012-10-07T09:26:59Z</time>
      </trkpt>
      <trkpt lat="45.55532" lon="4.72062">
        <ele>287</ele>
        <time>2012-10-07T09:27:01Z</time>
      </trkpt>
      <trkpt lat="45.55531" lon="4.72059">
        <ele>287</ele>
        <time>2012-10-07T09:27:03Z</time>
      </trkpt>
      <trkpt lat="45.55531" lon="4.72055">
        <ele>288</ele>
        <time>2012-10-07T09:27:05Z</time>
      </trkpt>
      <trkpt lat="45.5553" lon="4.72052">
        <ele>287</ele>
        <time>2012-10-07T09:27:07Z</time>
      </trkpt>
      <trkpt lat="45.5553" lon="4.7205">
        <ele>288</ele>
        <time>2012-10-07T09:27:09Z</time>
      </trkpt>
      <trkpt lat="45.55529" lon="4.72047">
        <ele>288</ele>
        <time>2012-10-07T09:27:11Z</time>
      </trkpt>
      <trkpt lat="45.55528" lon="4.72044">
        <ele>288</ele>
        <time>2012-10-07T09:27:13Z</time>
      </trkpt>
      <trkpt lat="45.55528" lon="4.72041">
        <ele>288</ele>
        <time>2012-10-07T09:27:16Z</time>
      </trkpt>
      <trkpt lat="45.55527" lon="4.72037">
        <ele>288</ele>
        <time>2012-10-07T09:27:18Z</time>
      </trkpt>
      <trkpt lat="45.55527" lon="4.72034">
        <ele>289</ele>
        <time>2012-10-07T09:27:20Z</time>
      </trkpt>
      <trkpt lat="45.55526" lon="4.72031">
        <ele>289</ele>
        <time>2012-10-07T09:27:22Z</time>
      </trkpt>
      <trkpt lat="45.55525" lon="4.72027">
        <ele>289</ele>
        <time>2012-10-07T09:27:24Z</time>
      </trkpt>
      <trkpt lat="45.55525" lon="4.72024">
        <ele>290</ele>
        <time>2012-10-07T09:27:26Z</time>
      </trkpt>
      <trkpt lat="45.55525" lon="4.72021">
        <ele>290</ele>
        <time>2012-10-07T09:27:28Z</time>
      </trkpt>
      <trkpt lat="45.55524" lon="4.72018">
        <ele>290</ele>
        <time>2012-10-07T09:27:30Z</time>
      </trkpt>
      <trkpt lat="45.55523" lon="4.72015">
        <ele>291</ele>
        <time>2012-10-07T09:27:32Z</time>
      </trkpt>
      <trkpt lat="45.55521" lon="4.72013">
        <ele>291</ele>
        <time>2012-10-07T09:27:34Z</time>
      </trkpt>
      <trkpt lat="45.5552" lon="4.7201">
        <ele>291</ele>
        <time>2012-10-07T09:27:36Z</time>
      </trkpt>
      <trkpt lat="45.55518" lon="4.72007">
        <ele>291</ele>
        <time>2012-10-07T09:27:38Z</time>
      </trkpt>
      <trkpt lat="45.55518" lon="4.72005">
        <ele>291</ele>
        <time>2012-10-07T09:27:40Z</time>
      </trkpt>
      <trkpt lat="45.55516" lon="4.72002">
        <ele>291</ele>
        <time>2012-10-07T09:27:42Z</time>
      </trkpt>
      <trkpt lat="45.55516" lon="4.72">
        <ele>292</ele>
        <time>2012-10-07T09:27:44Z</time>
      </trkpt>
      <trkpt lat="45.55515" lon="4.71997">
        <ele>292</ele>
        <time>2012-10-07T09:27:47Z</time>
      </trkpt>
      <trkpt lat="45.55514" lon="4.71993">
        <ele>292</ele>
        <time>2012-10-07T09:27:49Z</time>
      </trkpt>
      <trkpt lat="45.55513" lon="4.71991">
        <ele>292</ele>
        <time>2012-10-07T09:27:51Z</time>
      </trkpt>
      <trkpt lat="45.55513" lon="4.71988">
        <ele>292</ele>
        <time>2012-10-07T09:27:53Z</time>
      </trkpt>
      <trkpt lat="45.55512" lon="4.71985">
        <ele>292</ele>
        <time>2012-10-07T09:27:55Z</time>
      </trkpt>
      <trkpt lat="45.55511" lon="4.71983">
        <ele>293</ele>
        <time>2012-10-07T09:27:57Z</time>
      </trkpt>
      <trkpt lat="45.5551" lon="4.7198">
        <ele>293</ele>
        <time>2012-10-07T09:27:59Z</time>
      </trkpt>
      <trkpt lat="45.55509" lon="4.71979">
        <ele>293</ele>
        <time>2012-10-07T09:28:01Z</time>
      </trkpt>
      <trkpt lat="45.55509" lon="4.71976">
        <ele>293</ele>
        <time>2012-10-07T09:28:03Z</time>
      </trkpt>
      <trkpt lat="45.55508" lon="4.71973">
        <ele>293</ele>
        <time>2012-10-07T09:28:05Z</time>
      </trkpt>
      <trkpt lat="45.55507" lon="4.71971">
        <ele>293</ele>
        <time>2012-10-07T09:28:07Z</time>
      </trkpt>
      <trkpt lat="45.55506" lon="4.71969">
        <ele>294</ele>
        <time>2012-10-07T09:28:09Z</time>
      </trkpt>
      <trkpt lat="45.55505" lon="4.71968">
        <ele>294</ele>
        <time>2012-10-07T09:28:11Z</time>
      </trkpt>
      <trkpt lat="45.55505" lon="4.71966">
        <ele>294</ele>
        <time>2012-10-07T09:28:13Z</time>
      </trkpt>
      <trkpt lat="45.55505" lon="4.71966">
        <ele>294</ele>
        <time>2012-10-07T09:28:16Z</time>
      </trkpt>
      <trkpt lat="45.55505" lon="4.71965">
        <ele>294</ele>
        <time>2012-10-07T09:28:18Z</time>
      </trkpt>
      <trkpt lat="45.55504" lon="4.71965">
        <ele>294</ele>
        <time>2012-10-07T09:28:20Z</time>
      </trkpt>
      <trkpt lat="45.55504" lon="4.71964">
        <ele>294</ele>
        <time>2012-10-07T09:28:22Z</time>
      </trkpt>
      <trkpt lat="45.55504" lon="4.71961">
        <ele>294</ele>
        <time>2012-10-07T09:28:24Z</time>
      </trkpt>
      <trkpt lat="45.55503" lon="4.71959">
        <ele>295</ele>
        <time>2012-10-07T09:28:27Z</time>
      </trkpt>
      <trkpt lat="45.55502" lon="4.71956">
        <ele>294</ele>
        <time>2012-10-07T09:28:29Z</time>
      </trkpt>
      <trkpt lat="45.55501" lon="4.71954">
        <ele>294</ele>
        <time>2012-10-07T09:28:31Z</time>
      </trkpt>
      <trkpt lat="45.555" lon="4.71952">
        <ele>294</ele>
        <time>2012-10-07T09:28:33Z</time>
      </trkpt>
      <trkpt lat="45.55499" lon="4.7195">
        <ele>294</ele>
        <time>2012-10-07T09:28:35Z</time>
      </trkpt>
      <trkpt lat="45.55498" lon="4.71947">
        <ele>295</ele>
        <time>2012-10-07T09:28:37Z</time>
      </trkpt>
      <trkpt lat="45.55497" lon="4.71945">
        <ele>295</ele>
        <time>2012-10-07T09:28:39Z</time>
      </trkpt>
      <trkpt lat="45.55495" lon="4.71943">
        <ele>295</ele>
        <time>2012-10-07T09:28:41Z</time>
      </trkpt>
      <trkpt lat="45.55494" lon="4.71941">
        <ele>295</ele>
        <time>2012-10-07T09:28:43Z</time>
      </trkpt>
      <trkpt lat="45.55493" lon="4.71938">
        <ele>295</ele>
        <time>2012-10-07T09:28:45Z</time>
      </trkpt>
      <trkpt lat="45.55492" lon="4.71936">
        <ele>295</ele>
        <time>2012-10-07T09:28:47Z</time>
      </trkpt>
      <trkpt lat="45.55491" lon="4.71934">
        <ele>295</ele>
        <time>2012-10-07T09:28:49Z</time>
      </trkpt>
      <trkpt lat="45.55489" lon="4.71931">
        <ele>296</ele>
        <time>2012-10-07T09:28:51Z</time>
      </trkpt>
      <trkpt lat="45.55489" lon="4.71929">
        <ele>296</ele>
        <time>2012-10-07T09:28:53Z</time>
      </trkpt>
      <trkpt lat="45.55487" lon="4.71927">
        <ele>296</ele>
        <time>2012-10-07T09:28:55Z</time>
      </trkpt>
      <trkpt lat="45.55486" lon="4.71925">
        <ele>296</ele>
        <time>2012-10-07T09:28:57Z</time>
      </trkpt>
      <trkpt lat="45.55486" lon="4.71922">
        <ele>296</ele>
        <time>2012-10-07T09:29:00Z</time>
      </trkpt>
      <trkpt lat="45.55484" lon="4.71918">
        <ele>296</ele>
        <time>2012-10-07T09:29:02Z</time>
      </trkpt>
      <trkpt lat="45.55482" lon="4.71916">
        <ele>296</ele>
        <time>2012-10-07T09:29:04Z</time>
      </trkpt>
      <trkpt lat="45.55482" lon="4.71914">
        <ele>297</ele>
        <time>2012-10-07T09:29:06Z</time>
      </trkpt>
      <trkpt lat="45.55481" lon="4.71912">
        <ele>297</ele>
        <time>2012-10-07T09:29:08Z</time>
      </trkpt>
      <trkpt lat="45.5548" lon="4.7191">
        <ele>297</ele>
        <time>2012-10-07T09:29:10Z</time>
      </trkpt>
      <trkpt lat="45.55479" lon="4.71908">
        <ele>297</ele>
        <time>2012-10-07T09:29:12Z</time>
      </trkpt>
      <trkpt lat="45.55478" lon="4.71906">
        <ele>297</ele>
        <time>2012-10-07T09:29:14Z</time>
      </trkpt>
      <trkpt lat="45.55477" lon="4.71903">
        <ele>297</ele>
        <time>2012-10-07T09:29:16Z</time>
      </trkpt>
      <trkpt lat="45.55476" lon="4.719">
        <ele>297</ele>
        <time>2012-10-07T09:29:18Z</time>
      </trkpt>
      <trkpt lat="45.55475" lon="4.71898">
        <ele>297</ele>
        <time>2012-10-07T09:29:20Z</time>
      </trkpt>
      <trkpt lat="45.55474" lon="4.71896">
        <ele>297</ele>
        <time>2012-10-07T09:29:22Z</time>
      </trkpt>
      <trkpt lat="45.55473" lon="4.71893">
        <ele>297</ele>
        <time>2012-10-07T09:29:24Z</time>
      </trkpt>
      <trkpt lat="45.55472" lon="4.71891">
        <ele>298</ele>
        <time>2012-10-07T09:29:26Z</time>
      </trkpt>
      <trkpt lat="45.55471" lon="4.71889">
        <ele>298</ele>
        <time>2012-10-07T09:29:28Z</time>
      </trkpt>
      <trkpt lat="45.5547" lon="4.71886">
        <ele>298</ele>
        <time>2012-10-07T09:29:30Z</time>
      </trkpt>
      <trkpt lat="45.55468" lon="4.71883">
        <ele>298</ele>
        <time>2012-10-07T09:29:33Z</time>
      </trkpt>
      <trkpt lat="45.55468" lon="4.71881">
        <ele>299</ele>
        <time>2012-10-07T09:29:35Z</time>
      </trkpt>
      <trkpt lat="45.55466" lon="4.71878">
        <ele>299</ele>
        <time>2012-10-07T09:29:37Z</time>
      </trkpt>
      <trkpt lat="45.55465" lon="4.71876">
        <ele>299</ele>
        <time>2012-10-07T09:29:39Z</time>
      </trkpt>
      <trkpt lat="45.55464" lon="4.71873">
        <ele>299</ele>
        <time>2012-10-07T09:29:41Z</time>
      </trkpt>
      <trkpt lat="45.55462" lon="4.7187">
        <ele>299</ele>
        <time>2012-10-07T09:29:44Z</time>
      </trkpt>
      <trkpt lat="45.55461" lon="4.71867">
        <ele>299</ele>
        <time>2012-10-07T09:29:46Z</time>
      </trkpt>
      <trkpt lat="45.5546" lon="4.71864">
        <ele>299</ele>
        <time>2012-10-07T09:29:48Z</time>
      </trkpt>
      <trkpt lat="45.55458" lon="4.71861">
        <ele>299</ele>
        <time>2012-10-07T09:29:50Z</time>
      </trkpt>
      <trkpt lat="45.55458" lon="4.71859">
        <ele>299</ele>
        <time>2012-10-07T09:29:52Z</time>
      </trkpt>
      <trkpt lat="45.55456" lon="4.71856">
        <ele>299</ele>
        <time>2012-10-07T09:29:54Z</time>
      </trkpt>
      <trkpt lat="45.55455" lon="4.71853">
        <ele>299</ele>
        <time>2012-10-07T09:29:56Z</time>
      </trkpt>
      <trkpt lat="45.55453" lon="4.71849">
        <ele>299</ele>
        <time>2012-10-07T09:29:59Z</time>
      </trkpt>
      <trkpt lat="45.55452" lon="4.71847">
        <ele>300</ele>
        <time>2012-10-07T09:30:01Z</time>
      </trkpt>
      <trkpt lat="45.55451" lon="4.71844">
        <ele>300</ele>
        <time>2012-10-07T09:30:03Z</time>
      </trkpt>
      <trkpt lat="45.55449" lon="4.71842">
        <ele>300</ele>
        <time>2012-10-07T09:30:05Z</time>
      </trkpt>
      <trkpt lat="45.55447" lon="4.7184">
        <ele>300</ele>
        <time>2012-10-07T09:30:07Z</time>
      </trkpt>
      <trkpt lat="45.55444" lon="4.7184">
        <ele>300</ele>
        <time>2012-10-07T09:30:09Z</time>
      </trkpt>
      <trkpt lat="45.55442" lon="4.7184">
        <ele>299</ele>
        <time>2012-10-07T09:30:12Z</time>
      </trkpt>
      <trkpt lat="45.5544" lon="4.71842">
        <ele>300</ele>
        <time>2012-10-07T09:30:14Z</time>
      </trkpt>
      <trkpt lat="45.55438" lon="4.71843">
        <ele>300</ele>
        <time>2012-10-07T09:30:16Z</time>
      </trkpt>
      <trkpt lat="45.55436" lon="4.71845">
        <ele>300</ele>
        <time>2012-10-07T09:30:18Z</time>
      </trkpt>
      <trkpt lat="45.55434" lon="4.71847">
        <ele>300</ele>
        <time>2012-10-07T09:30:20Z</time>
      </trkpt>
      <trkpt lat="45.55432" lon="4.71848">
        <ele>301</ele>
        <time>2012-10-07T09:30:22Z</time>
      </trkpt>
      <trkpt lat="45.5543" lon="4.71849">
        <ele>300</ele>
        <time>2012-10-07T09:30:24Z</time>
      </trkpt>
      <trkpt lat="45.55428" lon="4.71851">
        <ele>300</ele>
        <time>2012-10-07T09:30:26Z</time>
      </trkpt>
      <trkpt lat="45.55426" lon="4.71852">
        <ele>301</ele>
        <time>2012-10-07T09:30:28Z</time>
      </trkpt>
      <trkpt lat="45.55424" lon="4.71854">
        <ele>301</ele>
        <time>2012-10-07T09:30:30Z</time>
      </trkpt>
      <trkpt lat="45.55422" lon="4.71855">
        <ele>301</ele>
        <time>2012-10-07T09:30:32Z</time>
      </trkpt>
      <trkpt lat="45.55421" lon="4.71856">
        <ele>302</ele>
        <time>2012-10-07T09:30:34Z</time>
      </trkpt>
      <trkpt lat="45.55419" lon="4.71857">
        <ele>302</ele>
        <time>2012-10-07T09:30:36Z</time>
      </trkpt>
      <trkpt lat="45.55416" lon="4.71858">
        <ele>302</ele>
        <time>2012-10-07T09:30:38Z</time>
      </trkpt>
      <trkpt lat="45.55414" lon="4.71858">
        <ele>302</ele>
        <time>2012-10-07T09:30:40Z</time>
      </trkpt>
      <trkpt lat="45.55412" lon="4.71859">
        <ele>302</ele>
        <time>2012-10-07T09:30:42Z</time>
      </trkpt>
      <trkpt lat="45.55409" lon="4.7186">
        <ele>303</ele>
        <time>2012-10-07T09:30:45Z</time>
      </trkpt>
      <trkpt lat="45.55407" lon="4.71861">
        <ele>303</ele>
        <time>2012-10-07T09:30:47Z</time>
      </trkpt>
      <trkpt lat="45.55405" lon="4.71862">
        <ele>303</ele>
        <time>2012-10-07T09:30:49Z</time>
      </trkpt>
      <trkpt lat="45.55404" lon="4.71863">
        <ele>303</ele>
        <time>2012-10-07T09:30:51Z</time>
      </trkpt>
      <trkpt lat="45.55402" lon="4.71864">
        <ele>304</ele>
        <time>2012-10-07T09:30:53Z</time>
      </trkpt>
      <trkpt lat="45.55401" lon="4.71865">
        <ele>304</ele>
        <time>2012-10-07T09:30:55Z</time>
      </trkpt>
      <trkpt lat="45.55399" lon="4.71866">
        <ele>304</ele>
        <time>2012-10-07T09:30:57Z</time>
      </trkpt>
      <trkpt lat="45.55397" lon="4.71867">
        <ele>304</ele>
        <time>2012-10-07T09:30:59Z</time>
      </trkpt>
      <trkpt lat="45.55395" lon="4.71868">
        <ele>304</ele>
        <time>2012-10-07T09:31:01Z</time>
      </trkpt>
      <trkpt lat="45.55393" lon="4.71869">
        <ele>304</ele>
        <time>2012-10-07T09:31:03Z</time>
      </trkpt>
      <trkpt lat="45.55391" lon="4.7187">
        <ele>304</ele>
        <time>2012-10-07T09:31:05Z</time>
      </trkpt>
      <trkpt lat="45.5539" lon="4.71871">
        <ele>304</ele>
        <time>2012-10-07T09:31:07Z</time>
      </trkpt>
      <trkpt lat="45.55388" lon="4.71873">
        <ele>304</ele>
        <time>2012-10-07T09:31:09Z</time>
      </trkpt>
      <trkpt lat="45.55387" lon="4.71875">
        <ele>305</ele>
        <time>2012-10-07T09:31:11Z</time>
      </trkpt>
      <trkpt lat="45.55385" lon="4.71877">
        <ele>305</ele>
        <time>2012-10-07T09:31:13Z</time>
      </trkpt>
      <trkpt lat="45.55384" lon="4.71878">
        <ele>305</ele>
        <time>2012-10-07T09:31:15Z</time>
      </trkpt>
      <trkpt lat="45.55381" lon="4.7188">
        <ele>305</ele>
        <time>2012-10-07T09:31:18Z</time>
      </trkpt>
      <trkpt lat="45.55379" lon="4.71881">
        <ele>305</ele>
        <time>2012-10-07T09:31:20Z</time>
      </trkpt>
      <trkpt lat="45.55377" lon="4.71881">
        <ele>305</ele>
        <time>2012-10-07T09:31:22Z</time>
      </trkpt>
      <trkpt lat="45.55375" lon="4.71882">
        <ele>305</ele>
        <time>2012-10-07T09:31:24Z</time>
      </trkpt>
      <trkpt lat="45.55372" lon="4.71882">
        <ele>305</ele>
        <time>2012-10-07T09:31:26Z</time>
      </trkpt>
      <trkpt lat="45.5537" lon="4.71883">
        <ele>306</ele>
        <time>2012-10-07T09:31:28Z</time>
      </trkpt>
      <trkpt lat="45.55368" lon="4.71884">
        <ele>306</ele>
        <time>2012-10-07T09:31:30Z</time>
      </trkpt>
      <trkpt lat="45.55365" lon="4.71885">
        <ele>306</ele>
        <time>2012-10-07T09:31:33Z</time>
      </trkpt>
      <trkpt lat="45.55363" lon="4.71887">
        <ele>306</ele>
        <time>2012-10-07T09:31:35Z</time>
      </trkpt>
      <trkpt lat="45.5536" lon="4.71888">
        <ele>306</ele>
        <time>2012-10-07T09:31:37Z</time>
      </trkpt>
      <trkpt lat="45.55359" lon="4.71889">
        <ele>307</ele>
        <time>2012-10-07T09:31:39Z</time>
      </trkpt>
      <trkpt lat="45.55357" lon="4.7189">
        <ele>307</ele>
        <time>2012-10-07T09:31:41Z</time>
      </trkpt>
      <trkpt lat="45.55355" lon="4.71891">
        <ele>307</ele>
        <time>2012-10-07T09:31:43Z</time>
      </trkpt>
      <trkpt lat="45.55353" lon="4.71892">
        <ele>307</ele>
        <time>2012-10-07T09:31:45Z</time>
      </trkpt>
      <trkpt lat="45.55351" lon="4.71893">
        <ele>307</ele>
        <time>2012-10-07T09:31:47Z</time>
      </trkpt>
      <trkpt lat="45.55349" lon="4.71894">
        <ele>307</ele>
        <time>2012-10-07T09:31:49Z</time>
      </trkpt>
      <trkpt lat="45.55347" lon="4.71895">
        <ele>307</ele>
        <time>2012-10-07T09:31:51Z</time>
      </trkpt>
      <trkpt lat="45.55346" lon="4.71895">
        <ele>308</ele>
        <time>2012-10-07T09:31:53Z</time>
      </trkpt>
      <trkpt lat="45.55343" lon="4.71896">
        <ele>308</ele>
        <time>2012-10-07T09:31:55Z</time>
      </trkpt>
      <trkpt lat="45.5534" lon="4.71897">
        <ele>308</ele>
        <time>2012-10-07T09:31:58Z</time>
      </trkpt>
      <trkpt lat="45.55338" lon="4.71898">
        <ele>308</ele>
        <time>2012-10-07T09:32:00Z</time>
      </trkpt>
      <trkpt lat="45.55336" lon="4.71899">
        <ele>308</ele>
        <time>2012-10-07T09:32:02Z</time>
      </trkpt>
      <trkpt lat="45.55334" lon="4.719">
        <ele>308</ele>
        <time>2012-10-07T09:32:04Z</time>
      </trkpt>
      <trkpt lat="45.55332" lon="4.71901">
        <ele>308</ele>
        <time>2012-10-07T09:32:06Z</time>
      </trkpt>
      <trkpt lat="45.5533" lon="4.71902">
        <ele>309</ele>
        <time>2012-10-07T09:32:08Z</time>
      </trkpt>
      <trkpt lat="45.55329" lon="4.71903">
        <ele>309</ele>
        <time>2012-10-07T09:32:10Z</time>
      </trkpt>
      <trkpt lat="45.55327" lon="4.71904">
        <ele>309</ele>
        <time>2012-10-07T09:32:12Z</time>
      </trkpt>
      <trkpt lat="45.55324" lon="4.71904">
        <ele>310</ele>
        <time>2012-10-07T09:32:14Z</time>
      </trkpt>
      <trkpt lat="45.55322" lon="4.71906">
        <ele>310</ele>
        <time>2012-10-07T09:32:17Z</time>
      </trkpt>
      <trkpt lat="45.5532" lon="4.71907">
        <ele>310</ele>
        <time>2012-10-07T09:32:19Z</time>
      </trkpt>
      <trkpt lat="45.55318" lon="4.71907">
        <ele>310</ele>
        <time>2012-10-07T09:32:21Z</time>
      </trkpt>
      <trkpt lat="45.55316" lon="4.71908">
        <ele>310</ele>
        <time>2012-10-07T09:32:23Z</time>
      </trkpt>
      <trkpt lat="45.55314" lon="4.71909">
        <ele>310</ele>
        <time>2012-10-07T09:32:25Z</time>
      </trkpt>
      <trkpt lat="45.55312" lon="4.71908">
        <ele>310</ele>
        <time>2012-10-07T09:32:27Z</time>
      </trkpt>
      <trkpt lat="45.5531" lon="4.71909">
        <ele>310</ele>
        <time>2012-10-07T09:32:29Z</time>
      </trkpt>
      <trkpt lat="45.55309" lon="4.71909">
        <ele>311</ele>
        <time>2012-10-07T09:32:31Z</time>
      </trkpt>
      <trkpt lat="45.55307" lon="4.7191">
        <ele>311</ele>
        <time>2012-10-07T09:32:33Z</time>
      </trkpt>
      <trkpt lat="45.55305" lon="4.7191">
        <ele>311</ele>
        <time>2012-10-07T09:32:35Z</time>
      </trkpt>
      <trkpt lat="45.55303" lon="4.7191">
        <ele>311</ele>
        <time>2012-10-07T09:32:37Z</time>
      </trkpt>
      <trkpt lat="45.55301" lon="4.7191">
        <ele>311</ele>
        <time>2012-10-07T09:32:39Z</time>
      </trkpt>
      <trkpt lat="45.55299" lon="4.7191">
        <ele>311</ele>
        <time>2012-10-07T09:32:41Z</time>
      </trkpt>
      <trkpt lat="45.55296" lon="4.71911">
        <ele>311</ele>
        <time>2012-10-07T09:32:44Z</time>
      </trkpt>
      <trkpt lat="45.55294" lon="4.7191">
        <ele>311</ele>
        <time>2012-10-07T09:32:46Z</time>
      </trkpt>
      <trkpt lat="45.55291" lon="4.7191">
        <ele>311</ele>
        <time>2012-10-07T09:32:48Z</time>
      </trkpt>
      <trkpt lat="45.55289" lon="4.7191">
        <ele>311</ele>
        <time>2012-10-07T09:32:50Z</time>
      </trkpt>
      <trkpt lat="45.55287" lon="4.7191">
        <ele>311</ele>
        <time>2012-10-07T09:32:52Z</time>
      </trkpt>
      <trkpt lat="45.55285" lon="4.7191">
        <ele>312</ele>
        <time>2012-10-07T09:32:54Z</time>
      </trkpt>
      <trkpt lat="45.55283" lon="4.7191">
        <ele>312</ele>
        <time>2012-10-07T09:32:56Z</time>
      </trkpt>
      <trkpt lat="45.5528" lon="4.7191">
        <ele>312</ele>
        <time>2012-10-07T09:32:58Z</time>
      </trkpt>
      <trkpt lat="45.55278" lon="4.71911">
        <ele>312</ele>
        <time>2012-10-07T09:33:00Z</time>
      </trkpt>
      <trkpt lat="45.55277" lon="4.71911">
        <ele>312</ele>
        <time>2012-10-07T09:33:02Z</time>
      </trkpt>
      <trkpt lat="45.55275" lon="4.71911">
        <ele>312</ele>
        <time>2012-10-07T09:33:04Z</time>
      </trkpt>
      <trkpt lat="45.55273" lon="4.71912">
        <ele>312</ele>
        <time>2012-10-07T09:33:06Z</time>
      </trkpt>
      <trkpt lat="45.55272" lon="4.71912">
        <ele>312</ele>
        <time>2012-10-07T09:33:08Z</time>
      </trkpt>
      <trkpt lat="45.5527" lon="4.71913">
        <ele>312</ele>
        <time>2012-10-07T09:33:10Z</time>
      </trkpt>
      <trkpt lat="45.55267" lon="4.71913">
        <ele>312</ele>
        <time>2012-10-07T09:33:12Z</time>
      </trkpt>
      <trkpt lat="45.55265" lon="4.71914">
        <ele>313</ele>
        <time>2012-10-07T09:33:15Z</time>
      </trkpt>
      <trkpt lat="45.55263" lon="4.71913">
        <ele>313</ele>
        <time>2012-10-07T09:33:17Z</time>
      </trkpt>
      <trkpt lat="45.55261" lon="4.71913">
        <ele>313</ele>
        <time>2012-10-07T09:33:19Z</time>
      </trkpt>
      <trkpt lat="45.55259" lon="4.71913">
        <ele>313</ele>
        <time>2012-10-07T09:33:21Z</time>
      </trkpt>
      <trkpt lat="45.55257" lon="4.71913">
        <ele>313</ele>
        <time>2012-10-07T09:33:23Z</time>
      </trkpt>
      <trkpt lat="45.55255" lon="4.71914">
        <ele>313</ele>
        <time>2012-10-07T09:33:25Z</time>
      </trkpt>
      <trkpt lat="45.55253" lon="4.71914">
        <ele>313</ele>
        <time>2012-10-07T09:33:27Z</time>
      </trkpt>
      <trkpt lat="45.55251" lon="4.71915">
        <ele>313</ele>
        <time>2012-10-07T09:33:29Z</time>
      </trkpt>
      <trkpt lat="45.55248" lon="4.71916">
        <ele>313</ele>
        <time>2012-10-07T09:33:31Z</time>
      </trkpt>
      <trkpt lat="45.55245" lon="4.71917">
        <ele>313</ele>
        <time>2012-10-07T09:33:33Z</time>
      </trkpt>
      <trkpt lat="45.55243" lon="4.71917">
        <ele>313</ele>
        <time>2012-10-07T09:33:35Z</time>
      </trkpt>
      <trkpt lat="45.55241" lon="4.71917">
        <ele>314</ele>
        <time>2012-10-07T09:33:37Z</time>
      </trkpt>
      <trkpt lat="45.55238" lon="4.71916">
        <ele>314</ele>
        <time>2012-10-07T09:33:39Z</time>
      </trkpt>
      <trkpt lat="45.55235" lon="4.71917">
        <ele>314</ele>
        <time>2012-10-07T09:33:41Z</time>
      </trkpt>
      <trkpt lat="45.55232" lon="4.71917">
        <ele>314</ele>
        <time>2012-10-07T09:33:43Z</time>
      </trkpt>
      <trkpt lat="45.55228" lon="4.71917">
        <ele>314</ele>
        <time>2012-10-07T09:33:46Z</time>
      </trkpt>
      <trkpt lat="45.55226" lon="4.71917">
        <ele>314</ele>
        <time>2012-10-07T09:33:48Z</time>
      </trkpt>
      <trkpt lat="45.55224" lon="4.71917">
        <ele>314</ele>
        <time>2012-10-07T09:33:50Z</time>
      </trkpt>
      <trkpt lat="45.55221" lon="4.71918">
        <ele>314</ele>
        <time>2012-10-07T09:33:52Z</time>
      </trkpt>
      <trkpt lat="45.55219" lon="4.71918">
        <ele>314</ele>
        <time>2012-10-07T09:33:54Z</time>
      </trkpt>
      <trkpt lat="45.55217" lon="4.71918">
        <ele>314</ele>
        <time>2012-10-07T09:33:56Z</time>
      </trkpt>
      <trkpt lat="45.55214" lon="4.71919">
        <ele>314</ele>
        <time>2012-10-07T09:33:58Z</time>
      </trkpt>
      <trkpt lat="45.55211" lon="4.71919">
        <ele>315</ele>
        <time>2012-10-07T09:34:01Z</time>
      </trkpt>
      <trkpt lat="45.55209" lon="4.71919">
        <ele>315</ele>
        <time>2012-10-07T09:34:03Z</time>
      </trkpt>
      <trkpt lat="45.55207" lon="4.71919">
        <ele>315</ele>
        <time>2012-10-07T09:34:05Z</time>
      </trkpt>
      <trkpt lat="45.55205" lon="4.71918">
        <ele>315</ele>
        <time>2012-10-07T09:34:07Z</time>
      </trkpt>
      <trkpt lat="45.55203" lon="4.71917">
        <ele>315</ele>
        <time>2012-10-07T09:34:09Z</time>
      </trkpt>
      <trkpt lat="45.55201" lon="4.71916">
        <ele>315</ele>
        <time>2012-10-07T09:34:11Z</time>
      </trkpt>
      <trkpt lat="45.55199" lon="4.71915">
        <ele>315</ele>
        <time>2012-10-07T09:34:13Z</time>
      </trkpt>
      <trkpt lat="45.55198" lon="4.71913">
        <ele>315</ele>
        <time>2012-10-07T09:34:15Z</time>
      </trkpt>
      <trkpt lat="45.55196" lon="4.71911">
        <ele>316</ele>
        <time>2012-10-07T09:34:17Z</time>
      </trkpt>
      <trkpt lat="45.55195" lon="4.71909">
        <ele>316</ele>
        <time>2012-10-07T09:34:19Z</time>
      </trkpt>
      <trkpt lat="45.55194" lon="4.71907">
        <ele>316</ele>
        <time>2012-10-07T09:34:21Z</time>
      </trkpt>
      <trkpt lat="45.55193" lon="4.71905">
        <ele>316</ele>
        <time>2012-10-07T09:34:23Z</time>
      </trkpt>
      <trkpt lat="45.55193" lon="4.71904">
        <ele>316</ele>
        <time>2012-10-07T09:34:25Z</time>
      </trkpt>
      <trkpt lat="45.55193" lon="4.71904">
        <ele>316</ele>
        <time>2012-10-07T09:34:27Z</time>
      </trkpt>
      <trkpt lat="45.55191" lon="4.719">
        <ele>316</ele>
        <time>2012-10-07T09:34:30Z</time>
      </trkpt>
      <trkpt lat="45.55191" lon="4.71897">
        <ele>316</ele>
        <time>2012-10-07T09:34:32Z</time>
      </trkpt>
      <trkpt lat="45.55191" lon="4.71893">
        <ele>316</ele>
        <time>2012-10-07T09:34:34Z</time>
      </trkpt>
      <trkpt lat="45.5519" lon="4.7189">
        <ele>316</ele>
        <time>2012-10-07T09:34:36Z</time>
      </trkpt>
      <trkpt lat="45.5519" lon="4.71887">
        <ele>316</ele>
        <time>2012-10-07T09:34:38Z</time>
      </trkpt>
      <trkpt lat="45.55189" lon="4.71884">
        <ele>317</ele>
        <time>2012-10-07T09:34:40Z</time>
      </trkpt>
      <trkpt lat="45.55188" lon="4.71881">
        <ele>317</ele>
        <time>2012-10-07T09:34:42Z</time>
      </trkpt>
      <trkpt lat="45.55188" lon="4.71878">
        <ele>317</ele>
        <time>2012-10-07T09:34:44Z</time>
      </trkpt>
      <trkpt lat="45.55186" lon="4.71875">
        <ele>317</ele>
        <time>2012-10-07T09:34:46Z</time>
      </trkpt>
      <trkpt lat="45.55186" lon="4.71872">
        <ele>317</ele>
        <time>2012-10-07T09:34:48Z</time>
      </trkpt>
      <trkpt lat="45.55185" lon="4.71869">
        <ele>317</ele>
        <time>2012-10-07T09:34:50Z</time>
      </trkpt>
      <trkpt lat="45.55184" lon="4.71866">
        <ele>317</ele>
        <time>2012-10-07T09:34:52Z</time>
      </trkpt>
      <trkpt lat="45.55183" lon="4.71863">
        <ele>317</ele>
        <time>2012-10-07T09:34:54Z</time>
      </trkpt>
      <trkpt lat="45.55182" lon="4.7186">
        <ele>317</ele>
        <time>2012-10-07T09:34:56Z</time>
      </trkpt>
      <trkpt lat="45.55181" lon="4.71855">
        <ele>317</ele>
        <time>2012-10-07T09:34:59Z</time>
      </trkpt>
      <trkpt lat="45.5518" lon="4.71853">
        <ele>317</ele>
        <time>2012-10-07T09:35:01Z</time>
      </trkpt>
      <trkpt lat="45.55179" lon="4.7185">
        <ele>317</ele>
        <time>2012-10-07T09:35:03Z</time>
      </trkpt>
      <trkpt lat="45.55178" lon="4.71847">
        <ele>318</ele>
        <time>2012-10-07T09:35:05Z</time>
      </trkpt>
      <trkpt lat="45.55177" lon="4.71844">
        <ele>317</ele>
        <time>2012-10-07T09:35:07Z</time>
      </trkpt>
      <trkpt lat="45.55176" lon="4.71842">
        <ele>317</ele>
        <time>2012-10-07T09:35:09Z</time>
      </trkpt>
      <trkpt lat="45.55174" lon="4.71839">
        <ele>317</ele>
        <time>2012-10-07T09:35:11Z</time>
      </trkpt>
      <trkpt lat="45.55173" lon="4.71836">
        <ele>317</ele>
        <time>2012-10-07T09:35:13Z</time>
      </trkpt>
      <trkpt lat="45.55172" lon="4.71833">
        <ele>317</ele>
        <time>2012-10-07T09:35:15Z</time>
      </trkpt>
      <trkpt lat="45.55171" lon="4.7183">
        <ele>317</ele>
        <time>2012-10-07T09:35:17Z</time>
      </trkpt>
      <trkpt lat="45.5517" lon="4.71827">
        <ele>317</ele>
        <time>2012-10-07T09:35:19Z</time>
      </trkpt>
      <trkpt lat="45.5517" lon="4.71824">
        <ele>317</ele>
        <time>2012-10-07T09:35:21Z</time>
      </trkpt>
      <trkpt lat="45.55168" lon="4.71822">
        <ele>317</ele>
        <time>2012-10-07T09:35:23Z</time>
      </trkpt>
      <trkpt lat="45.55166" lon="4.71819">
        <ele>317</ele>
        <time>2012-10-07T09:35:25Z</time>
      </trkpt>
      <trkpt lat="45.55165" lon="4.71814">
        <ele>317</ele>
        <time>2012-10-07T09:35:28Z</time>
      </trkpt>
      <trkpt lat="45.55164" lon="4.71811">
        <ele>317</ele>
        <time>2012-10-07T09:35:30Z</time>
      </trkpt>
      <trkpt lat="45.55163" lon="4.71808">
        <ele>317</ele>
        <time>2012-10-07T09:35:32Z</time>
      </trkpt>
      <trkpt lat="45.55161" lon="4.71805">
        <ele>317</ele>
        <time>2012-10-07T09:35:34Z</time>
      </trkpt>
      <trkpt lat="45.5516" lon="4.71803">
        <ele>317</ele>
        <time>2012-10-07T09:35:36Z</time>
      </trkpt>
      <trkpt lat="45.55159" lon="4.718">
        <ele>317</ele>
        <time>2012-10-07T09:35:38Z</time>
      </trkpt>
      <trkpt lat="45.55158" lon="4.71796">
        <ele>317</ele>
        <time>2012-10-07T09:35:40Z</time>
      </trkpt>
      <trkpt lat="45.55156" lon="4.71793">
        <ele>317</ele>
        <time>2012-10-07T09:35:43Z</time>
      </trkpt>
      <trkpt lat="45.55155" lon="4.7179">
        <ele>317</ele>
        <time>2012-10-07T09:35:45Z</time>
      </trkpt>
      <trkpt lat="45.55154" lon="4.71787">
        <ele>317</ele>
        <time>2012-10-07T09:35:47Z</time>
      </trkpt>
      <trkpt lat="45.55153" lon="4.71785">
        <ele>317</ele>
        <time>2012-10-07T09:35:49Z</time>
      </trkpt>
      <trkpt lat="45.55152" lon="4.71782">
        <ele>317</ele>
        <time>2012-10-07T09:35:51Z</time>
      </trkpt>
      <trkpt lat="45.55152" lon="4.71779">
        <ele>317</ele>
        <time>2012-10-07T09:35:53Z</time>
      </trkpt>
      <trkpt lat="45.55151" lon="4.71777">
        <ele>317</ele>
        <time>2012-10-07T09:35:55Z</time>
      </trkpt>
      <trkpt lat="45.5515" lon="4.71774">
        <ele>317</ele>
        <time>2012-10-07T09:35:57Z</time>
      </trkpt>
      <trkpt lat="45.55149" lon="4.71772">
        <ele>317</ele>
        <time>2012-10-07T09:35:59Z</time>
      </trkpt>
      <trkpt lat="45.55149" lon="4.71769">
        <ele>317</ele>
        <time>2012-10-07T09:36:01Z</time>
      </trkpt>
      <trkpt lat="45.55148" lon="4.71766">
        <ele>317</ele>
        <time>2012-10-07T09:36:03Z</time>
      </trkpt>
      <trkpt lat="45.55147" lon="4.71764">
        <ele>317</ele>
        <time>2012-10-07T09:36:05Z</time>
      </trkpt>
      <trkpt lat="45.55146" lon="4.71759">
        <ele>317</ele>
        <time>2012-10-07T09:36:08Z</time>
      </trkpt>
      <trkpt lat="45.55145" lon="4.71757">
        <ele>317</ele>
        <time>2012-10-07T09:36:10Z</time>
      </trkpt>
      <trkpt lat="45.55144" lon="4.71754">
        <ele>317</ele>
        <time>2012-10-07T09:36:12Z</time>
      </trkpt>
      <trkpt lat="45.55144" lon="4.71753">
        <ele>317</ele>
        <time>2012-10-07T09:36:14Z</time>
      </trkpt>
      <trkpt lat="45.55144" lon="4.71753">
        <ele>317</ele>
        <time>2012-10-07T09:36:16Z</time>
      </trkpt>
      <trkpt lat="45.55144" lon="4.71753">
        <ele>317</ele>
        <time>2012-10-07T09:36:18Z</time>
      </trkpt>
      <trkpt lat="45.55144" lon="4.71752">
        <ele>317</ele>
        <time>2012-10-07T09:36:20Z</time>
      </trkpt>
      <trkpt lat="45.55143" lon="4.71752">
        <ele>317</ele>
        <time>2012-10-07T09:36:22Z</time>
      </trkpt>
      <trkpt lat="45.55143" lon="4.71751">
        <ele>317</ele>
        <time>2012-10-07T09:36:24Z</time>
      </trkpt>
      <trkpt lat="45.55143" lon="4.7175">
        <ele>317</ele>
        <time>2012-10-07T09:36:26Z</time>
      </trkpt>
      <trkpt lat="45.55142" lon="4.71751">
        <ele>317</ele>
        <time>2012-10-07T09:36:28Z</time>
      </trkpt>
      <trkpt lat="45.55141" lon="4.71753">
        <ele>317</ele>
        <time>2012-10-07T09:36:30Z</time>
      </trkpt>
      <trkpt lat="45.5514" lon="4.71755">
        <ele>317</ele>
        <time>2012-10-07T09:36:32Z</time>
      </trkpt>
      <trkpt lat="45.55139" lon="4.71757">
        <ele>317</ele>
        <time>2012-10-07T09:36:34Z</time>
      </trkpt>
      <trkpt lat="45.55138" lon="4.71757">
        <ele>316</ele>
        <time>2012-10-07T09:36:36Z</time>
      </trkpt>
      <trkpt lat="45.55138" lon="4.71758">
        <ele>316</ele>
        <time>2012-10-07T09:36:39Z</time>
      </trkpt>
      <trkpt lat="45.55138" lon="4.71758">
        <ele>316</ele>
        <time>2012-10-07T09:36:41Z</time>
      </trkpt>
      <trkpt lat="45.55138" lon="4.71759">
        <ele>316</ele>
        <time>2012-10-07T09:36:43Z</time>
      </trkpt>
      <trkpt lat="45.55137" lon="4.71759">
        <ele>316</ele>
        <time>2012-10-07T09:36:45Z</time>
      </trkpt>
      <trkpt lat="45.55136" lon="4.7176">
        <ele>316</ele>
        <time>2012-10-07T09:36:47Z</time>
      </trkpt>
      <trkpt lat="45.55137" lon="4.71761">
        <ele>316</ele>
        <time>2012-10-07T09:36:49Z</time>
      </trkpt>
      <trkpt lat="45.55137" lon="4.71762">
        <ele>316</ele>
        <time>2012-10-07T09:36:51Z</time>
      </trkpt>
      <trkpt lat="45.55137" lon="4.71763">
        <ele>316</ele>
        <time>2012-10-07T09:36:53Z</time>
      </trkpt>
      <trkpt lat="45.55136" lon="4.71763">
        <ele>316</ele>
        <time>2012-10-07T09:36:55Z</time>
      </trkpt>
      <trkpt lat="45.55135" lon="4.71762">
        <ele>316</ele>
        <time>2012-10-07T09:36:57Z</time>
      </trkpt>
      <trkpt lat="45.55135" lon="4.71762">
        <ele>316</ele>
        <time>2012-10-07T09:36:59Z</time>
      </trkpt>
      <trkpt lat="45.55135" lon="4.71762">
        <ele>316</ele>
        <time>2012-10-07T09:37:01Z</time>
      </trkpt>
      <trkpt lat="45.55134" lon="4.71763">
        <ele>316</ele>
        <time>2012-10-07T09:37:03Z</time>
      </trkpt>
      <trkpt lat="45.55135" lon="4.71764">
        <ele>316</ele>
        <time>2012-10-07T09:37:05Z</time>
      </trkpt>
      <trkpt lat="45.55134" lon="4.71764">
        <ele>316</ele>
        <time>2012-10-07T09:37:08Z</time>
      </trkpt>
      <trkpt lat="45.55134" lon="4.71764">
        <ele>316</ele>
        <time>2012-10-07T09:37:10Z</time>
      </trkpt>
      <trkpt lat="45.55134" lon="4.71764">
        <ele>316</ele>
        <time>2012-10-07T09:37:12Z</time>
      </trkpt>
      <trkpt lat="45.55134" lon="4.71765">
        <ele>316</ele>
        <time>2012-10-07T09:37:14Z</time>
      </trkpt>
      <trkpt lat="45.55134" lon="4.71766">
        <ele>316</ele>
        <time>2012-10-07T09:37:16Z</time>
      </trkpt>
      <trkpt lat="45.55135" lon="4.71766">
        <ele>316</ele>
        <time>2012-10-07T09:37:18Z</time>
      </trkpt>
      <trkpt lat="45.55135" lon="4.71766">
        <ele>316</ele>
        <time>2012-10-07T09:37:20Z</time>
      </trkpt>
      <trkpt lat="45.55136" lon="4.71766">
        <ele>317</ele>
        <time>2012-10-07T09:37:22Z</time>
      </trkpt>
      <trkpt lat="45.55136" lon="4.71768">
        <ele>316</ele>
        <time>2012-10-07T09:37:24Z</time>
      </trkpt>
      <trkpt lat="45.55136" lon="4.71769">
        <ele>317</ele>
        <time>2012-10-07T09:37:26Z</time>
      </trkpt>
      <trkpt lat="45.55136" lon="4.7177">
        <ele>317</ele>
        <time>2012-10-07T09:37:28Z</time>
      </trkpt>
      <trkpt lat="45.55136" lon="4.7177">
        <ele>316</ele>
        <time>2012-10-07T09:37:30Z</time>
      </trkpt>
      <trkpt lat="45.55136" lon="4.7177">
        <ele>317</ele>
        <time>2012-10-07T09:37:32Z</time>
      </trkpt>
      <trkpt lat="45.55136" lon="4.71769">
        <ele>316</ele>
        <time>2012-10-07T09:37:35Z</time>
      </trkpt>
      <trkpt lat="45.55136" lon="4.71769">
        <ele>316</ele>
        <time>2012-10-07T09:37:37Z</time>
      </trkpt>
      <trkpt lat="45.55136" lon="4.71769">
        <ele>316</ele>
        <time>2012-10-07T09:37:39Z</time>
      </trkpt>
      <trkpt lat="45.55136" lon="4.71768">
        <ele>316</ele>
        <time>2012-10-07T09:37:41Z</time>
      </trkpt>
      <trkpt lat="45.55136" lon="4.71767">
        <ele>316</ele>
        <time>2012-10-07T09:37:43Z</time>
      </trkpt>
      <trkpt lat="45.55136" lon="4.71767">
        <ele>316</ele>
        <time>2012-10-07T09:37:45Z</time>
      </trkpt>
      <trkpt lat="45.55136" lon="4.71767">
        <ele>316</ele>
        <time>2012-10-07T09:37:47Z</time>
      </trkpt>
      <trkpt lat="45.55136" lon="4.71767">
        <ele>316</ele>
        <time>2012-10-07T09:37:49Z</time>
      </trkpt>
      <trkpt lat="45.55136" lon="4.71766">
        <ele>316</ele>
        <time>2012-10-07T09:37:51Z</time>
      </trkpt>
      <trkpt lat="45.55136" lon="4.71766">
        <ele>316</ele>
        <time>2012-10-07T09:37:53Z</time>
      </trkpt>
      <trkpt lat="45.55137" lon="4.71766">
        <ele>316</ele>
        <time>2012-10-07T09:37:55Z</time>
      </trkpt>
      <trkpt lat="45.55136" lon="4.71766">
        <ele>316</ele>
        <time>2012-10-07T09:37:57Z</time>
      </trkpt>
      <trkpt lat="45.55136" lon="4.71766">
        <ele>316</ele>
        <time>2012-10-07T09:37:59Z</time>
      </trkpt>
      <trkpt lat="45.55136" lon="4.71766">
        <ele>316</ele>
        <time>2012-10-07T09:38:01Z</time>
      </trkpt>
      <trkpt lat="45.55136" lon="4.71766">
        <ele>316</ele>
        <time>2012-10-07T09:38:04Z</time>
      </trkpt>
      <trkpt lat="45.55136" lon="4.71766">
        <ele>316</ele>
        <time>2012-10-07T09:38:06Z</time>
      </trkpt>
      <trkpt lat="45.55135" lon="4.71766">
        <ele>316</ele>
        <time>2012-10-07T09:38:08Z</time>
      </trkpt>
      <trkpt lat="45.55136" lon="4.71767">
        <ele>316</ele>
        <time>2012-10-07T09:38:10Z</time>
      </trkpt>
      <trkpt lat="45.55137" lon="4.71766">
        <ele>316</ele>
        <time>2012-10-07T09:38:12Z</time>
      </trkpt>
      <trkpt lat="45.55137" lon="4.71766">
        <ele>316</ele>
        <time>2012-10-07T09:38:14Z</time>
      </trkpt>
      <trkpt lat="45.55136" lon="4.71766">
        <ele>316</ele>
        <time>2012-10-07T09:38:16Z</time>
      </trkpt>
      <trkpt lat="45.55136" lon="4.71767">
        <ele>316</ele>
        <time>2012-10-07T09:38:18Z</time>
      </trkpt>
      <trkpt lat="45.55137" lon="4.71766">
        <ele>316</ele>
        <time>2012-10-07T09:38:21Z</time>
      </trkpt>
      <trkpt lat="45.55138" lon="4.71767">
        <ele>316</ele>
        <time>2012-10-07T09:38:23Z</time>
      </trkpt>
      <trkpt lat="45.55138" lon="4.71769">
        <ele>316</ele>
        <time>2012-10-07T09:38:25Z</time>
      </trkpt>
      <trkpt lat="45.55138" lon="4.7177">
        <ele>316</ele>
        <time>2012-10-07T09:38:27Z</time>
      </trkpt>
      <trkpt lat="45.55139" lon="4.7177">
        <ele>316</ele>
        <time>2012-10-07T09:38:29Z</time>
      </trkpt>
      <trkpt lat="45.55138" lon="4.71768">
        <ele>316</ele>
        <time>2012-10-07T09:38:31Z</time>
      </trkpt>
      <trkpt lat="45.55137" lon="4.71767">
        <ele>316</ele>
        <time>2012-10-07T09:38:33Z</time>
      </trkpt>
      <trkpt lat="45.55136" lon="4.71767">
        <ele>316</ele>
        <time>2012-10-07T09:38:36Z</time>
      </trkpt>
      <trkpt lat="45.55137" lon="4.71768">
        <ele>316</ele>
        <time>2012-10-07T09:38:38Z</time>
      </trkpt>
      <trkpt lat="45.55137" lon="4.71769">
        <ele>316</ele>
        <time>2012-10-07T09:38:40Z</time>
      </trkpt>
      <trkpt lat="45.55137" lon="4.7177">
        <ele>316</ele>
        <time>2012-10-07T09:38:42Z</time>
      </trkpt>
      <trkpt lat="45.55138" lon="4.7177">
        <ele>316</ele>
        <time>2012-10-07T09:38:44Z</time>
      </trkpt>
      <trkpt lat="45.55138" lon="4.7177">
        <ele>316</ele>
        <time>2012-10-07T09:38:46Z</time>
      </trkpt>
      <trkpt lat="45.55138" lon="4.71771">
        <ele>316</ele>
        <time>2012-10-07T09:38:48Z</time>
      </trkpt>
      <trkpt lat="45.55138" lon="4.7177">
        <ele>316</ele>
        <time>2012-10-07T09:38:50Z</time>
      </trkpt>
      <trkpt lat="45.55138" lon="4.7177">
        <ele>316</ele>
        <time>2012-10-07T09:38:52Z</time>
      </trkpt>
      <trkpt lat="45.55138" lon="4.7177">
        <ele>316</ele>
        <time>2012-10-07T09:38:54Z</time>
      </trkpt>
      <trkpt lat="45.55138" lon="4.71771">
        <ele>316</ele>
        <time>2012-10-07T09:38:56Z</time>
      </trkpt>
      <trkpt lat="45.55138" lon="4.7177">
        <ele>316</ele>
        <time>2012-10-07T09:38:58Z</time>
      </trkpt>
      <trkpt lat="45.5514" lon="4.71771">
        <ele>316</ele>
        <time>2012-10-07T09:39:01Z</time>
      </trkpt>
      <trkpt lat="45.55141" lon="4.71771">
        <ele>316</ele>
        <time>2012-10-07T09:39:03Z</time>
      </trkpt>
      <trkpt lat="45.5514" lon="4.71772">
        <ele>316</ele>
        <time>2012-10-07T09:39:05Z</time>
      </trkpt>
      <trkpt lat="45.5514" lon="4.71772">
        <ele>316</ele>
        <time>2012-10-07T09:39:07Z</time>
      </trkpt>
      <trkpt lat="45.5514" lon="4.71771">
        <ele>316</ele>
        <time>2012-10-07T09:39:09Z</time>
      </trkpt>
      <trkpt lat="45.55141" lon="4.71771">
        <ele>316</ele>
        <time>2012-10-07T09:39:11Z</time>
      </trkpt>
      <trkpt lat="45.55142" lon="4.71771">
        <ele>316</ele>
        <time>2012-10-07T09:39:13Z</time>
      </trkpt>
      <trkpt lat="45.55142" lon="4.71771">
        <ele>316</ele>
        <time>2012-10-07T09:39:15Z</time>
      </trkpt>
      <trkpt lat="45.55143" lon="4.7177">
        <ele>316</ele>
        <time>2012-10-07T09:39:18Z</time>
      </trkpt>
      <trkpt lat="45.55145" lon="4.7177">
        <ele>316</ele>
        <time>2012-10-07T09:39:20Z</time>
      </trkpt>
      <trkpt lat="45.55145" lon="4.7177">
        <ele>316</ele>
        <time>2012-10-07T09:39:22Z</time>
      </trkpt>
      <trkpt lat="45.55144" lon="4.71771">
        <ele>316</ele>
        <time>2012-10-07T09:39:24Z</time>
      </trkpt>
      <trkpt lat="45.55145" lon="4.7177">
        <ele>316</ele>
        <time>2012-10-07T09:39:26Z</time>
      </trkpt>
      <trkpt lat="45.55145" lon="4.71771">
        <ele>316</ele>
        <time>2012-10-07T09:39:28Z</time>
      </trkpt>
      <trkpt lat="45.55145" lon="4.71771">
        <ele>316</ele>
        <time>2012-10-07T09:39:30Z</time>
      </trkpt>
      <trkpt lat="45.55145" lon="4.71771">
        <ele>316</ele>
        <time>2012-10-07T09:39:32Z</time>
      </trkpt>
      <trkpt lat="45.55146" lon="4.71773">
        <ele>316</ele>
        <time>2012-10-07T09:39:34Z</time>
      </trkpt>
      <trkpt lat="45.55146" lon="4.71773">
        <ele>316</ele>
        <time>2012-10-07T09:39:36Z</time>
      </trkpt>
      <trkpt lat="45.55146" lon="4.71773">
        <ele>316</ele>
        <time>2012-10-07T09:39:38Z</time>
      </trkpt>
      <trkpt lat="45.55144" lon="4.71773">
        <ele>316</ele>
        <time>2012-10-07T09:39:41Z</time>
      </trkpt>
      <trkpt lat="45.55144" lon="4.71772">
        <ele>316</ele>
        <time>2012-10-07T09:39:43Z</time>
      </trkpt>
      <trkpt lat="45.55144" lon="4.71773">
        <ele>316</ele>
        <time>2012-10-07T09:39:45Z</time>
      </trkpt>
      <trkpt lat="45.55145" lon="4.71773">
        <ele>316</ele>
        <time>2012-10-07T09:39:47Z</time>
      </trkpt>
      <trkpt lat="45.55144" lon="4.71773">
        <ele>316</ele>
        <time>2012-10-07T09:39:49Z</time>
      </trkpt>
      <trkpt lat="45.55144" lon="4.71773">
        <ele>316</ele>
        <time>2012-10-07T09:39:51Z</time>
      </trkpt>
      <trkpt lat="45.55143" lon="4.71773">
        <ele>316</ele>
        <time>2012-10-07T09:39:53Z</time>
      </trkpt>
      <trkpt lat="45.55142" lon="4.71773">
        <ele>316</ele>
        <time>2012-10-07T09:39:55Z</time>
      </trkpt>
      <trkpt lat="45.55142" lon="4.71773">
        <ele>316</ele>
        <time>2012-10-07T09:39:57Z</time>
      </trkpt>
      <trkpt lat="45.55141" lon="4.71772">
        <ele>316</ele>
        <time>2012-10-07T09:39:59Z</time>
      </trkpt>
      <trkpt lat="45.55141" lon="4.7177">
        <ele>316</ele>
        <time>2012-10-07T09:40:01Z</time>
      </trkpt>
      <trkpt lat="45.55141" lon="4.71769">
        <ele>316</ele>
        <time>2012-10-07T09:40:03Z</time>
      </trkpt>
      <trkpt lat="45.55141" lon="4.71768">
        <ele>316</ele>
        <time>2012-10-07T09:40:05Z</time>
      </trkpt>
      <trkpt lat="45.55141" lon="4.71769">
        <ele>316</ele>
        <time>2012-10-07T09:40:07Z</time>
      </trkpt>
      <trkpt lat="45.5514" lon="4.71769">
        <ele>316</ele>
        <time>2012-10-07T09:40:10Z</time>
      </trkpt>
      <trkpt lat="45.55139" lon="4.71769">
        <ele>316</ele>
        <time>2012-10-07T09:40:12Z</time>
      </trkpt>
      <trkpt lat="45.55139" lon="4.71769">
        <ele>316</ele>
        <time>2012-10-07T09:40:14Z</time>
      </trkpt>
      <trkpt lat="45.5514" lon="4.71769">
        <ele>316</ele>
        <time>2012-10-07T09:40:16Z</time>
      </trkpt>
      <trkpt lat="45.5514" lon="4.7177">
        <ele>316</ele>
        <time>2012-10-07T09:40:18Z</time>
      </trkpt>
      <trkpt lat="45.55141" lon="4.7177">
        <ele>316</ele>
        <time>2012-10-07T09:40:20Z</time>
      </trkpt>
      <trkpt lat="45.5514" lon="4.7177">
        <ele>316</ele>
        <time>2012-10-07T09:40:22Z</time>
      </trkpt>
      <trkpt lat="45.55139" lon="4.7177">
        <ele>316</ele>
        <time>2012-10-07T09:40:24Z</time>
      </trkpt>
      <trkpt lat="45.55138" lon="4.7177">
        <ele>316</ele>
        <time>2012-10-07T09:40:26Z</time>
      </trkpt>
      <trkpt lat="45.55138" lon="4.7177">
        <ele>316</ele>
        <time>2012-10-07T09:40:28Z</time>
      </trkpt>
      <trkpt lat="45.55138" lon="4.71771">
        <ele>316</ele>
        <time>2012-10-07T09:40:30Z</time>
      </trkpt>
      <trkpt lat="45.55138" lon="4.71771">
        <ele>316</ele>
        <time>2012-10-07T09:40:33Z</time>
      </trkpt>
      <trkpt lat="45.55138" lon="4.71771">
        <ele>316</ele>
        <time>2012-10-07T09:40:35Z</time>
      </trkpt>
      <trkpt lat="45.55138" lon="4.71772">
        <ele>316</ele>
        <time>2012-10-07T09:40:37Z</time>
      </trkpt>
      <trkpt lat="45.55138" lon="4.71772">
        <ele>316</ele>
        <time>2012-10-07T09:40:39Z</time>
      </trkpt>
      <trkpt lat="45.55138" lon="4.71773">
        <ele>316</ele>
        <time>2012-10-07T09:40:41Z</time>
      </trkpt>
      <trkpt lat="45.55139" lon="4.71774">
        <ele>316</ele>
        <time>2012-10-07T09:40:43Z</time>
      </trkpt>
      <trkpt lat="45.5514" lon="4.71773">
        <ele>316</ele>
        <time>2012-10-07T09:40:46Z</time>
      </trkpt>
      <trkpt lat="45.55139" lon="4.71773">
        <ele>316</ele>
        <time>2012-10-07T09:40:48Z</time>
      </trkpt>
      <trkpt lat="45.55139" lon="4.71774">
        <ele>316</ele>
        <time>2012-10-07T09:40:50Z</time>
      </trkpt>
      <trkpt lat="45.55139" lon="4.71774">
        <ele>316</ele>
        <time>2012-10-07T09:40:52Z</time>
      </trkpt>
      <trkpt lat="45.55139" lon="4.71775">
        <ele>316</ele>
        <time>2012-10-07T09:40:54Z</time>
      </trkpt>
      <trkpt lat="45.55139" lon="4.71775">
        <ele>316</ele>
        <time>2012-10-07T09:40:56Z</time>
      </trkpt>
      <trkpt lat="45.55139" lon="4.71775">
        <ele>316</ele>
        <time>2012-10-07T09:40:58Z</time>
      </trkpt>
      <trkpt lat="45.55138" lon="4.71775">
        <ele>316</ele>
        <time>2012-10-07T09:41:01Z</time>
      </trkpt>
      <trkpt lat="45.55138" lon="4.71774">
        <ele>316</ele>
        <time>2012-10-07T09:41:03Z</time>
      </trkpt>
      <trkpt lat="45.55137" lon="4.71774">
        <ele>316</ele>
        <time>2012-10-07T09:41:05Z</time>
      </trkpt>
      <trkpt lat="45.55137" lon="4.71775">
        <ele>316</ele>
        <time>2012-10-07T09:41:07Z</time>
      </trkpt>
      <trkpt lat="45.55137" lon="4.71775">
        <ele>316</ele>
        <time>2012-10-07T09:41:09Z</time>
      </trkpt>
      <trkpt lat="45.55138" lon="4.71775">
        <ele>316</ele>
        <time>2012-10-07T09:41:11Z</time>
      </trkpt>
      <trkpt lat="45.55138" lon="4.71775">
        <ele>316</ele>
        <time>2012-10-07T09:41:13Z</time>
      </trkpt>
      <trkpt lat="45.55138" lon="4.71774">
        <ele>316</ele>
        <time>2012-10-07T09:41:15Z</time>
      </trkpt>
      <trkpt lat="45.55138" lon="4.71774">
        <ele>316</ele>
        <time>2012-10-07T09:41:17Z</time>
      </trkpt>
      <trkpt lat="45.55138" lon="4.71775">
        <ele>316</ele>
        <time>2012-10-07T09:41:19Z</time>
      </trkpt>
      <trkpt lat="45.55139" lon="4.71775">
        <ele>316</ele>
        <time>2012-10-07T09:41:21Z</time>
      </trkpt>
      <trkpt lat="45.55138" lon="4.71774">
        <ele>316</ele>
        <time>2012-10-07T09:41:23Z</time>
      </trkpt>
      <trkpt lat="45.55138" lon="4.71773">
        <ele>316</ele>
        <time>2012-10-07T09:41:25Z</time>
      </trkpt>
      <trkpt lat="45.55136" lon="4.71772">
        <ele>316</ele>
        <time>2012-10-07T09:41:27Z</time>
      </trkpt>
      <trkpt lat="45.55135" lon="4.71771">
        <ele>316</ele>
        <time>2012-10-07T09:41:29Z</time>
      </trkpt>
      <trkpt lat="45.55134" lon="4.71771">
        <ele>316</ele>
        <time>2012-10-07T09:41:32Z</time>
      </trkpt>
      <trkpt lat="45.55133" lon="4.71772">
        <ele>316</ele>
        <time>2012-10-07T09:41:34Z</time>
      </trkpt>
      <trkpt lat="45.55133" lon="4.71771">
        <ele>317</ele>
        <time>2012-10-07T09:41:36Z</time>
      </trkpt>
      <trkpt lat="45.55133" lon="4.71771">
        <ele>317</ele>
        <time>2012-10-07T09:41:38Z</time>
      </trkpt>
      <trkpt lat="45.55133" lon="4.71771">
        <ele>317</ele>
        <time>2012-10-07T09:41:40Z</time>
      </trkpt>
      <trkpt lat="45.55133" lon="4.71771">
        <ele>317</ele>
        <time>2012-10-07T09:41:42Z</time>
      </trkpt>
      <trkpt lat="45.55134" lon="4.71771">
        <ele>317</ele>
        <time>2012-10-07T09:41:44Z</time>
      </trkpt>
      <trkpt lat="45.55134" lon="4.7177">
        <ele>317</ele>
        <time>2012-10-07T09:41:46Z</time>
      </trkpt>
      <trkpt lat="45.55134" lon="4.7177">
        <ele>317</ele>
        <time>2012-10-07T09:41:48Z</time>
      </trkpt>
      <trkpt lat="45.55133" lon="4.7177">
        <ele>316</ele>
        <time>2012-10-07T09:41:50Z</time>
      </trkpt>
      <trkpt lat="45.55134" lon="4.7177">
        <ele>316</ele>
        <time>2012-10-07T09:41:52Z</time>
      </trkpt>
      <trkpt lat="45.55135" lon="4.7177">
        <ele>316</ele>
        <time>2012-10-07T09:41:54Z</time>
      </trkpt>
      <trkpt lat="45.55135" lon="4.71769">
        <ele>316</ele>
        <time>2012-10-07T09:41:56Z</time>
      </trkpt>
      <trkpt lat="45.55135" lon="4.7177">
        <ele>316</ele>
        <time>2012-10-07T09:41:58Z</time>
      </trkpt>
      <trkpt lat="45.55135" lon="4.7177">
        <ele>316</ele>
        <time>2012-10-07T09:42:00Z</time>
      </trkpt>
      <trkpt lat="45.55136" lon="4.7177">
        <ele>316</ele>
        <time>2012-10-07T09:42:02Z</time>
      </trkpt>
      <trkpt lat="45.55136" lon="4.7177">
        <ele>316</ele>
        <time>2012-10-07T09:42:05Z</time>
      </trkpt>
      <trkpt lat="45.55136" lon="4.7177">
        <ele>316</ele>
        <time>2012-10-07T09:42:07Z</time>
      </trkpt>
      <trkpt lat="45.55136" lon="4.7177">
        <ele>316</ele>
        <time>2012-10-07T09:42:09Z</time>
      </trkpt>
      <trkpt lat="45.55137" lon="4.7177">
        <ele>316</ele>
        <time>2012-10-07T09:42:11Z</time>
      </trkpt>
      <trkpt lat="45.55137" lon="4.71769">
        <ele>316</ele>
        <time>2012-10-07T09:42:13Z</time>
      </trkpt>
      <trkpt lat="45.55137" lon="4.71769">
        <ele>316</ele>
        <time>2012-10-07T09:42:15Z</time>
      </trkpt>
      <trkpt lat="45.55137" lon="4.71768">
        <ele>316</ele>
        <time>2012-10-07T09:42:18Z</time>
      </trkpt>
      <trkpt lat="45.55138" lon="4.71768">
        <ele>316</ele>
        <time>2012-10-07T09:42:20Z</time>
      </trkpt>
      <trkpt lat="45.55138" lon="4.71768">
        <ele>316</ele>
        <time>2012-10-07T09:42:22Z</time>
      </trkpt>
      <trkpt lat="45.55138" lon="4.71768">
        <ele>316</ele>
        <time>2012-10-07T09:42:24Z</time>
      </trkpt>
      <trkpt lat="45.55138" lon="4.71768">
        <ele>316</ele>
        <time>2012-10-07T09:42:26Z</time>
      </trkpt>
      <trkpt lat="45.5514" lon="4.71767">
        <ele>316</ele>
        <time>2012-10-07T09:42:28Z</time>
      </trkpt>
      <trkpt lat="45.55142" lon="4.71765">
        <ele>317</ele>
        <time>2012-10-07T09:42:30Z</time>
      </trkpt>
      <trkpt lat="45.55142" lon="4.71764">
        <ele>316</ele>
        <time>2012-10-07T09:42:32Z</time>
      </trkpt>
      <trkpt lat="45.55142" lon="4.71764">
        <ele>317</ele>
        <time>2012-10-07T09:42:34Z</time>
      </trkpt>
      <trkpt lat="45.55141" lon="4.71765">
        <ele>317</ele>
        <time>2012-10-07T09:42:36Z</time>
      </trkpt>
      <trkpt lat="45.55141" lon="4.71765">
        <ele>316</ele>
        <time>2012-10-07T09:42:38Z</time>
      </trkpt>
      <trkpt lat="45.55141" lon="4.71766">
        <ele>317</ele>
        <time>2012-10-07T09:42:40Z</time>
      </trkpt>
      <trkpt lat="45.5514" lon="4.71766">
        <ele>316</ele>
        <time>2012-10-07T09:42:43Z</time>
      </trkpt>
      <trkpt lat="45.55139" lon="4.71766">
        <ele>317</ele>
        <time>2012-10-07T09:42:45Z</time>
      </trkpt>
      <trkpt lat="45.55138" lon="4.71766">
        <ele>317</ele>
        <time>2012-10-07T09:42:47Z</time>
      </trkpt>
      <trkpt lat="45.55138" lon="4.71767">
        <ele>316</ele>
        <time>2012-10-07T09:42:49Z</time>
      </trkpt>
      <trkpt lat="45.55138" lon="4.71767">
        <ele>316</ele>
        <time>2012-10-07T09:42:51Z</time>
      </trkpt>
      <trkpt lat="45.55137" lon="4.71767">
        <ele>316</ele>
        <time>2012-10-07T09:42:53Z</time>
      </trkpt>
      <trkpt lat="45.55137" lon="4.71767">
        <ele>316</ele>
        <time>2012-10-07T09:42:55Z</time>
      </trkpt>
      <trkpt lat="45.55136" lon="4.71767">
        <ele>316</ele>
        <time>2012-10-07T09:42:58Z</time>
      </trkpt>
      <trkpt lat="45.55136" lon="4.71767">
        <ele>316</ele>
        <time>2012-10-07T09:43:00Z</time>
      </trkpt>
      <trkpt lat="45.55136" lon="4.71768">
        <ele>316</ele>
        <time>2012-10-07T09:43:02Z</time>
      </trkpt>
      <trkpt lat="45.55135" lon="4.71769">
        <ele>316</ele>
        <time>2012-10-07T09:43:04Z</time>
      </trkpt>
      <trkpt lat="45.55135" lon="4.71769">
        <ele>316</ele>
        <time>2012-10-07T09:43:06Z</time>
      </trkpt>
      <trkpt lat="45.55135" lon="4.7177">
        <ele>316</ele>
        <time>2012-10-07T09:43:08Z</time>
      </trkpt>
      <trkpt lat="45.55135" lon="4.7177">
        <ele>316</ele>
        <time>2012-10-07T09:43:10Z</time>
      </trkpt>
      <trkpt lat="45.55136" lon="4.7177">
        <ele>316</ele>
        <time>2012-10-07T09:43:12Z</time>
      </trkpt>
      <trkpt lat="45.55136" lon="4.7177">
        <ele>317</ele>
        <time>2012-10-07T09:43:14Z</time>
      </trkpt>
      <trkpt lat="45.55136" lon="4.7177">
        <ele>317</ele>
        <time>2012-10-07T09:43:16Z</time>
      </trkpt>
      <trkpt lat="45.55135" lon="4.7177">
        <ele>317</ele>
        <time>2012-10-07T09:43:18Z</time>
      </trkpt>
      <trkpt lat="45.55135" lon="4.7177">
        <ele>316</ele>
        <time>2012-10-07T09:43:20Z</time>
      </trkpt>
      <trkpt lat="45.55135" lon="4.71769">
        <ele>316</ele>
        <time>2012-10-07T09:43:23Z</time>
      </trkpt>
      <trkpt lat="45.55135" lon="4.71769">
        <ele>316</ele>
        <time>2012-10-07T09:43:25Z</time>
      </trkpt>
      <trkpt lat="45.55135" lon="4.7177">
        <ele>316</ele>
        <time>2012-10-07T09:43:27Z</time>
      </trkpt>
      <trkpt lat="45.55135" lon="4.71769">
        <ele>316</ele>
        <time>2012-10-07T09:43:29Z</time>
      </trkpt>
      <trkpt lat="45.55135" lon="4.7177">
        <ele>316</ele>
        <time>2012-10-07T09:43:31Z</time>
      </trkpt>
      <trkpt lat="45.55135" lon="4.71771">
        <ele>316</ele>
        <time>2012-10-07T09:43:33Z</time>
      </trkpt>
      <trkpt lat="45.55136" lon="4.71771">
        <ele>316</ele>
        <time>2012-10-07T09:43:35Z</time>
      </trkpt>
      <trkpt lat="45.55137" lon="4.71771">
        <ele>316</ele>
        <time>2012-10-07T09:43:37Z</time>
      </trkpt>
      <trkpt lat="45.55137" lon="4.71772">
        <ele>316</ele>
        <time>2012-10-07T09:43:39Z</time>
      </trkpt>
      <trkpt lat="45.55137" lon="4.71772">
        <ele>316</ele>
        <time>2012-10-07T09:43:41Z</time>
      </trkpt>
      <trkpt lat="45.55138" lon="4.71774">
        <ele>316</ele>
        <time>2012-10-07T09:43:43Z</time>
      </trkpt>
      <trkpt lat="45.55138" lon="4.71776">
        <ele>316</ele>
        <time>2012-10-07T09:43:45Z</time>
      </trkpt>
      <trkpt lat="45.55138" lon="4.71777">
        <ele>317</ele>
        <time>2012-10-07T09:43:47Z</time>
      </trkpt>
      <trkpt lat="45.55138" lon="4.71776">
        <ele>317</ele>
        <time>2012-10-07T09:43:49Z</time>
      </trkpt>
      <trkpt lat="45.55137" lon="4.71775">
        <ele>316</ele>
        <time>2012-10-07T09:43:51Z</time>
      </trkpt>
      <trkpt lat="45.55138" lon="4.71774">
        <ele>316</ele>
        <time>2012-10-07T09:43:53Z</time>
      </trkpt>
      <trkpt lat="45.55139" lon="4.71773">
        <ele>316</ele>
        <time>2012-10-07T09:43:55Z</time>
      </trkpt>
      <trkpt lat="45.55139" lon="4.71773">
        <ele>316</ele>
        <time>2012-10-07T09:43:58Z</time>
      </trkpt>
      <trkpt lat="45.5514" lon="4.71772">
        <ele>316</ele>
        <time>2012-10-07T09:44:00Z</time>
      </trkpt>
      <trkpt lat="45.55139" lon="4.71771">
        <ele>316</ele>
        <time>2012-10-07T09:44:02Z</time>
      </trkpt>
      <trkpt lat="45.55139" lon="4.71771">
        <ele>316</ele>
        <time>2012-10-07T09:44:04Z</time>
      </trkpt>
      <trkpt lat="45.55139" lon="4.7177">
        <ele>316</ele>
        <time>2012-10-07T09:44:06Z</time>
      </trkpt>
      <trkpt lat="45.55138" lon="4.7177">
        <ele>316</ele>
        <time>2012-10-07T09:44:08Z</time>
      </trkpt>
      <trkpt lat="45.55137" lon="4.71769">
        <ele>316</ele>
        <time>2012-10-07T09:44:10Z</time>
      </trkpt>
      <trkpt lat="45.55136" lon="4.71769">
        <ele>317</ele>
        <time>2012-10-07T09:44:12Z</time>
      </trkpt>
      <trkpt lat="45.55136" lon="4.71768">
        <ele>317</ele>
        <time>2012-10-07T09:44:14Z</time>
      </trkpt>
      <trkpt lat="45.55136" lon="4.71769">
        <ele>317</ele>
        <time>2012-10-07T09:44:16Z</time>
      </trkpt>
      <trkpt lat="45.55135" lon="4.71769">
        <ele>317</ele>
        <time>2012-10-07T09:44:19Z</time>
      </trkpt>
      <trkpt lat="45.55135" lon="4.71769">
        <ele>317</ele>
        <time>2012-10-07T09:44:21Z</time>
      </trkpt>
      <trkpt lat="45.55135" lon="4.71769">
        <ele>316</ele>
        <time>2012-10-07T09:44:23Z</time>
      </trkpt>
      <trkpt lat="45.55135" lon="4.71768">
        <ele>316</ele>
        <time>2012-10-07T09:44:25Z</time>
      </trkpt>
      <trkpt lat="45.55136" lon="4.71767">
        <ele>316</ele>
        <time>2012-10-07T09:44:27Z</time>
      </trkpt>
      <trkpt lat="45.55136" lon="4.71767">
        <ele>316</ele>
        <time>2012-10-07T09:44:29Z</time>
      </trkpt>
      <trkpt lat="45.55137" lon="4.71767">
        <ele>316</ele>
        <time>2012-10-07T09:44:31Z</time>
      </trkpt>
      <trkpt lat="45.55137" lon="4.71767">
        <ele>316</ele>
        <time>2012-10-07T09:44:33Z</time>
      </trkpt>
      <trkpt lat="45.55138" lon="4.71767">
        <ele>316</ele>
        <time>2012-10-07T09:44:35Z</time>
      </trkpt>
      <trkpt lat="45.55138" lon="4.71766">
        <ele>316</ele>
        <time>2012-10-07T09:44:37Z</time>
      </trkpt>
      <trkpt lat="45.5514" lon="4.71767">
        <ele>316</ele>
        <time>2012-10-07T09:44:39Z</time>
      </trkpt>
      <trkpt lat="45.5514" lon="4.71767">
        <ele>316</ele>
        <time>2012-10-07T09:44:41Z</time>
      </trkpt>
      <trkpt lat="45.5514" lon="4.71768">
        <ele>316</ele>
        <time>2012-10-07T09:44:43Z</time>
      </trkpt>
      <trkpt lat="45.55141" lon="4.7177">
        <ele>316</ele>
        <time>2012-10-07T09:44:46Z</time>
      </trkpt>
      <trkpt lat="45.55141" lon="4.7177">
        <ele>316</ele>
        <time>2012-10-07T09:44:48Z</time>
      </trkpt>
      <trkpt lat="45.55141" lon="4.71771">
        <ele>316</ele>
        <time>2012-10-07T09:44:50Z</time>
      </trkpt>
      <trkpt lat="45.55141" lon="4.71771">
        <ele>316</ele>
        <time>2012-10-07T09:44:52Z</time>
      </trkpt>
      <trkpt lat="45.55142" lon="4.71771">
        <ele>316</ele>
        <time>2012-10-07T09:44:54Z</time>
      </trkpt>
      <trkpt lat="45.55142" lon="4.71771">
        <ele>316</ele>
        <time>2012-10-07T09:44:56Z</time>
      </trkpt>
      <trkpt lat="45.55141" lon="4.71771">
        <ele>316</ele>
        <time>2012-10-07T09:44:58Z</time>
      </trkpt>
      <trkpt lat="45.55141" lon="4.71771">
        <ele>316</ele>
        <time>2012-10-07T09:45:00Z</time>
      </trkpt>
      <trkpt lat="45.5514" lon="4.71772">
        <ele>316</ele>
        <time>2012-10-07T09:45:02Z</time>
      </trkpt>
      <trkpt lat="45.55139" lon="4.71772">
        <ele>316</ele>
        <time>2012-10-07T09:45:04Z</time>
      </trkpt>
      <trkpt lat="45.55138" lon="4.71773">
        <ele>316</ele>
        <time>2012-10-07T09:45:06Z</time>
      </trkpt>
      <trkpt lat="45.55138" lon="4.71773">
        <ele>316</ele>
        <time>2012-10-07T09:45:08Z</time>
      </trkpt>
      <trkpt lat="45.55137" lon="4.71772">
        <ele>316</ele>
        <time>2012-10-07T09:45:10Z</time>
      </trkpt>
      <trkpt lat="45.55137" lon="4.71772">
        <ele>316</ele>
        <time>2012-10-07T09:45:13Z</time>
      </trkpt>
      <trkpt lat="45.55137" lon="4.71771">
        <ele>316</ele>
        <time>2012-10-07T09:45:15Z</time>
      </trkpt>
      <trkpt lat="45.55137" lon="4.7177">
        <ele>316</ele>
        <time>2012-10-07T09:45:17Z</time>
      </trkpt>
      <trkpt lat="45.55137" lon="4.7177">
        <ele>316</ele>
        <time>2012-10-07T09:45:19Z</time>
      </trkpt>
      <trkpt lat="45.55137" lon="4.7177">
        <ele>316</ele>
        <time>2012-10-07T09:45:21Z</time>
      </trkpt>
      <trkpt lat="45.55137" lon="4.71771">
        <ele>316</ele>
        <time>2012-10-07T09:45:23Z</time>
      </trkpt>
      <trkpt lat="45.55137" lon="4.71772">
        <ele>316</ele>
        <time>2012-10-07T09:45:25Z</time>
      </trkpt>
      <trkpt lat="45.55136" lon="4.71772">
        <ele>316</ele>
        <time>2012-10-07T09:45:27Z</time>
      </trkpt>
      <trkpt lat="45.55136" lon="4.71772">
        <ele>316</ele>
        <time>2012-10-07T09:45:29Z</time>
      </trkpt>
      <trkpt lat="45.55135" lon="4.71773">
        <ele>316</ele>
        <time>2012-10-07T09:45:31Z</time>
      </trkpt>
      <trkpt lat="45.55135" lon="4.71772">
        <ele>316</ele>
        <time>2012-10-07T09:45:33Z</time>
      </trkpt>
      <trkpt lat="45.55136" lon="4.71772">
        <ele>316</ele>
        <time>2012-10-07T09:45:35Z</time>
      </trkpt>
      <trkpt lat="45.55137" lon="4.71771">
        <ele>316</ele>
        <time>2012-10-07T09:45:37Z</time>
      </trkpt>
      <trkpt lat="45.55136" lon="4.7177">
        <ele>316</ele>
        <time>2012-10-07T09:45:40Z</time>
      </trkpt>
      <trkpt lat="45.55136" lon="4.7177">
        <ele>316</ele>
        <time>2012-10-07T09:45:42Z</time>
      </trkpt>
      <trkpt lat="45.55136" lon="4.7177">
        <ele>316</ele>
        <time>2012-10-07T09:45:44Z</time>
      </trkpt>
      <trkpt lat="45.55135" lon="4.7177">
        <ele>316</ele>
        <time>2012-10-07T09:45:46Z</time>
      </trkpt>
      <trkpt lat="45.55135" lon="4.71771">
        <ele>316</ele>
        <time>2012-10-07T09:45:48Z</time>
      </trkpt>
      <trkpt lat="45.55134" lon="4.7177">
        <ele>316</ele>
        <time>2012-10-07T09:45:51Z</time>
      </trkpt>
      <trkpt lat="45.55133" lon="4.7177">
        <ele>316</ele>
        <time>2012-10-07T09:45:53Z</time>
      </trkpt>
      <trkpt lat="45.55133" lon="4.71769">
        <ele>316</ele>
        <time>2012-10-07T09:45:55Z</time>
      </trkpt>
      <trkpt lat="45.55133" lon="4.71769">
        <ele>316</ele>
        <time>2012-10-07T09:45:57Z</time>
      </trkpt>
      <trkpt lat="45.55133" lon="4.71768">
        <ele>316</ele>
        <time>2012-10-07T09:45:59Z</time>
      </trkpt>
      <trkpt lat="45.55133" lon="4.71768">
        <ele>316</ele>
        <time>2012-10-07T09:46:01Z</time>
      </trkpt>
      <trkpt lat="45.55134" lon="4.71768">
        <ele>316</ele>
        <time>2012-10-07T09:46:03Z</time>
      </trkpt>
      <trkpt lat="45.55134" lon="4.71768">
        <ele>316</ele>
        <time>2012-10-07T09:46:05Z</time>
      </trkpt>
      <trkpt lat="45.55134" lon="4.71768">
        <ele>316</ele>
        <time>2012-10-07T09:46:07Z</time>
      </trkpt>
      <trkpt lat="45.55133" lon="4.71768">
        <ele>316</ele>
        <time>2012-10-07T09:46:09Z</time>
      </trkpt>
      <trkpt lat="45.55135" lon="4.71769">
        <ele>316</ele>
        <time>2012-10-07T09:46:12Z</time>
      </trkpt>
      <trkpt lat="45.55134" lon="4.7177">
        <ele>316</ele>
        <time>2012-10-07T09:46:14Z</time>
      </trkpt>
      <trkpt lat="45.55134" lon="4.7177">
        <ele>316</ele>
        <time>2012-10-07T09:46:16Z</time>
      </trkpt>
      <trkpt lat="45.55134" lon="4.71769">
        <ele>316</ele>
        <time>2012-10-07T09:46:18Z</time>
      </trkpt>
      <trkpt lat="45.55133" lon="4.71769">
        <ele>316</ele>
        <time>2012-10-07T09:46:20Z</time>
      </trkpt>
      <trkpt lat="45.55133" lon="4.71769">
        <ele>316</ele>
        <time>2012-10-07T09:46:22Z</time>
      </trkpt>
      <trkpt lat="45.55133" lon="4.71769">
        <ele>316</ele>
        <time>2012-10-07T09:46:24Z</time>
      </trkpt>
      <trkpt lat="45.55134" lon="4.71769">
        <ele>316</ele>
        <time>2012-10-07T09:46:26Z</time>
      </trkpt>
      <trkpt lat="45.55133" lon="4.71768">
        <ele>316</ele>
        <time>2012-10-07T09:46:28Z</time>
      </trkpt>
      <trkpt lat="45.55133" lon="4.71767">
        <ele>316</ele>
        <time>2012-10-07T09:46:30Z</time>
      </trkpt>
      <trkpt lat="45.55133" lon="4.71767">
        <ele>316</ele>
        <time>2012-10-07T09:46:32Z</time>
      </trkpt>
      <trkpt lat="45.55133" lon="4.71765">
        <ele>316</ele>
        <time>2012-10-07T09:46:34Z</time>
      </trkpt>
      <trkpt lat="45.55133" lon="4.71764">
        <ele>316</ele>
        <time>2012-10-07T09:46:36Z</time>
      </trkpt>
      <trkpt lat="45.55133" lon="4.71764">
        <ele>316</ele>
        <time>2012-10-07T09:46:38Z</time>
      </trkpt>
      <trkpt lat="45.55133" lon="4.71764">
        <ele>316</ele>
        <time>2012-10-07T09:46:40Z</time>
      </trkpt>
      <trkpt lat="45.55133" lon="4.71764">
        <ele>316</ele>
        <time>2012-10-07T09:46:43Z</time>
      </trkpt>
      <trkpt lat="45.55133" lon="4.71764">
        <ele>316</ele>
        <time>2012-10-07T09:46:45Z</time>
      </trkpt>
      <trkpt lat="45.55133" lon="4.71764">
        <ele>316</ele>
        <time>2012-10-07T09:46:47Z</time>
      </trkpt>
      <trkpt lat="45.55133" lon="4.71764">
        <ele>316</ele>
        <time>2012-10-07T09:46:49Z</time>
      </trkpt>
      <trkpt lat="45.55133" lon="4.71764">
        <ele>316</ele>
        <time>2012-10-07T09:46:51Z</time>
      </trkpt>
      <trkpt lat="45.55135" lon="4.71764">
        <ele>316</ele>
        <time>2012-10-07T09:46:53Z</time>
      </trkpt>
      <trkpt lat="45.55135" lon="4.71763">
        <ele>316</ele>
        <time>2012-10-07T09:46:55Z</time>
      </trkpt>
      <trkpt lat="45.55136" lon="4.71763">
        <ele>315</ele>
        <time>2012-10-07T09:46:57Z</time>
      </trkpt>
      <trkpt lat="45.55136" lon="4.71763">
        <ele>315</ele>
        <time>2012-10-07T09:46:59Z</time>
      </trkpt>
      <trkpt lat="45.55138" lon="4.71763">
        <ele>315</ele>
        <time>2012-10-07T09:47:01Z</time>
      </trkpt>
      <trkpt lat="45.55139" lon="4.71761">
        <ele>315</ele>
        <time>2012-10-07T09:47:03Z</time>
      </trkpt>
      <trkpt lat="45.5514" lon="4.7176">
        <ele>316</ele>
        <time>2012-10-07T09:47:06Z</time>
      </trkpt>
      <trkpt lat="45.55139" lon="4.71759">
        <ele>316</ele>
        <time>2012-10-07T09:47:08Z</time>
      </trkpt>
      <trkpt lat="45.55141" lon="4.71758">
        <ele>316</ele>
        <time>2012-10-07T09:47:10Z</time>
      </trkpt>
      <trkpt lat="45.55141" lon="4.71757">
        <ele>316</ele>
        <time>2012-10-07T09:47:12Z</time>
      </trkpt>
      <trkpt lat="45.55142" lon="4.71755">
        <ele>316</ele>
        <time>2012-10-07T09:47:14Z</time>
      </trkpt>
      <trkpt lat="45.55144" lon="4.71755">
        <ele>315</ele>
        <time>2012-10-07T09:47:16Z</time>
      </trkpt>
      <trkpt lat="45.55145" lon="4.71753">
        <ele>315</ele>
        <time>2012-10-07T09:47:18Z</time>
      </trkpt>
      <trkpt lat="45.55146" lon="4.71751">
        <ele>315</ele>
        <time>2012-10-07T09:47:20Z</time>
      </trkpt>
      <trkpt lat="45.55146" lon="4.7175">
        <ele>316</ele>
        <time>2012-10-07T09:47:22Z</time>
      </trkpt>
      <trkpt lat="45.55146" lon="4.71748">
        <ele>316</ele>
        <time>2012-10-07T09:47:24Z</time>
      </trkpt>
      <trkpt lat="45.55147" lon="4.71745">
        <ele>315</ele>
        <time>2012-10-07T09:47:26Z</time>
      </trkpt>
      <trkpt lat="45.55147" lon="4.71743">
        <ele>315</ele>
        <time>2012-10-07T09:47:28Z</time>
      </trkpt>
      <trkpt lat="45.55146" lon="4.71741">
        <ele>315</ele>
        <time>2012-10-07T09:47:30Z</time>
      </trkpt>
      <trkpt lat="45.55146" lon="4.71737">
        <ele>315</ele>
        <time>2012-10-07T09:47:32Z</time>
      </trkpt>
      <trkpt lat="45.55145" lon="4.71735">
        <ele>315</ele>
        <time>2012-10-07T09:47:34Z</time>
      </trkpt>
      <trkpt lat="45.55145" lon="4.71733">
        <ele>315</ele>
        <time>2012-10-07T09:47:37Z</time>
      </trkpt>
      <trkpt lat="45.55144" lon="4.71731">
        <ele>315</ele>
        <time>2012-10-07T09:47:39Z</time>
      </trkpt>
      <trkpt lat="45.55143" lon="4.71728">
        <ele>315</ele>
        <time>2012-10-07T09:47:41Z</time>
      </trkpt>
      <trkpt lat="45.55143" lon="4.71726">
        <ele>315</ele>
        <time>2012-10-07T09:47:43Z</time>
      </trkpt>
      <trkpt lat="45.55142" lon="4.71723">
        <ele>315</ele>
        <time>2012-10-07T09:47:45Z</time>
      </trkpt>
      <trkpt lat="45.55141" lon="4.71721">
        <ele>315</ele>
        <time>2012-10-07T09:47:47Z</time>
      </trkpt>
      <trkpt lat="45.5514" lon="4.71719">
        <ele>315</ele>
        <time>2012-10-07T09:47:49Z</time>
      </trkpt>
      <trkpt lat="45.5514" lon="4.71716">
        <ele>315</ele>
        <time>2012-10-07T09:47:51Z</time>
      </trkpt>
      <trkpt lat="45.55139" lon="4.71714">
        <ele>315</ele>
        <time>2012-10-07T09:47:53Z</time>
      </trkpt>
      <trkpt lat="45.55138" lon="4.71712">
        <ele>315</ele>
        <time>2012-10-07T09:47:55Z</time>
      </trkpt>
      <trkpt lat="45.55137" lon="4.7171">
        <ele>314</ele>
        <time>2012-10-07T09:47:57Z</time>
      </trkpt>
      <trkpt lat="45.55136" lon="4.71708">
        <ele>314</ele>
        <time>2012-10-07T09:47:59Z</time>
      </trkpt>
      <trkpt lat="45.55136" lon="4.71705">
        <ele>314</ele>
        <time>2012-10-07T09:48:01Z</time>
      </trkpt>
      <trkpt lat="45.55136" lon="4.71702">
        <ele>314</ele>
        <time>2012-10-07T09:48:03Z</time>
      </trkpt>
      <trkpt lat="45.55135" lon="4.71699">
        <ele>314</ele>
        <time>2012-10-07T09:48:05Z</time>
      </trkpt>
      <trkpt lat="45.55135" lon="4.71697">
        <ele>315</ele>
        <time>2012-10-07T09:48:07Z</time>
      </trkpt>
      <trkpt lat="45.55135" lon="4.71693">
        <ele>315</ele>
        <time>2012-10-07T09:48:10Z</time>
      </trkpt>
      <trkpt lat="45.55134" lon="4.71693">
        <ele>315</ele>
        <time>2012-10-07T09:48:12Z</time>
      </trkpt>
      <trkpt lat="45.55134" lon="4.71693">
        <ele>314</ele>
        <time>2012-10-07T09:48:14Z</time>
      </trkpt>
      <trkpt lat="45.55133" lon="4.71693">
        <ele>314</ele>
        <time>2012-10-07T09:48:16Z</time>
      </trkpt>
      <trkpt lat="45.55134" lon="4.71692">
        <ele>314</ele>
        <time>2012-10-07T09:48:18Z</time>
      </trkpt>
      <trkpt lat="45.55134" lon="4.71692">
        <ele>314</ele>
        <time>2012-10-07T09:48:20Z</time>
      </trkpt>
      <trkpt lat="45.55134" lon="4.71692">
        <ele>314</ele>
        <time>2012-10-07T09:48:22Z</time>
      </trkpt>
      <trkpt lat="45.55133" lon="4.71692">
        <ele>314</ele>
        <time>2012-10-07T09:48:24Z</time>
      </trkpt>
      <trkpt lat="45.55134" lon="4.71692">
        <ele>314</ele>
        <time>2012-10-07T09:48:26Z</time>
      </trkpt>
      <trkpt lat="45.55134" lon="4.71691">
        <ele>314</ele>
        <time>2012-10-07T09:48:28Z</time>
      </trkpt>
      <trkpt lat="45.55135" lon="4.7169">
        <ele>314</ele>
        <time>2012-10-07T09:48:30Z</time>
      </trkpt>
      <trkpt lat="45.55135" lon="4.71688">
        <ele>314</ele>
        <time>2012-10-07T09:48:32Z</time>
      </trkpt>
      <trkpt lat="45.55135" lon="4.71685">
        <ele>314</ele>
        <time>2012-10-07T09:48:34Z</time>
      </trkpt>
      <trkpt lat="45.55135" lon="4.71683">
        <ele>314</ele>
        <time>2012-10-07T09:48:37Z</time>
      </trkpt>
      <trkpt lat="45.55135" lon="4.71681">
        <ele>314</ele>
        <time>2012-10-07T09:48:39Z</time>
      </trkpt>
      <trkpt lat="45.55136" lon="4.71679">
        <ele>314</ele>
        <time>2012-10-07T09:48:41Z</time>
      </trkpt>
      <trkpt lat="45.55136" lon="4.71676">
        <ele>314</ele>
        <time>2012-10-07T09:48:43Z</time>
      </trkpt>
      <trkpt lat="45.55137" lon="4.71674">
        <ele>314</ele>
        <time>2012-10-07T09:48:45Z</time>
      </trkpt>
      <trkpt lat="45.55137" lon="4.71672">
        <ele>314</ele>
        <time>2012-10-07T09:48:47Z</time>
      </trkpt>
      <trkpt lat="45.55137" lon="4.71672">
        <ele>314</ele>
        <time>2012-10-07T09:48:49Z</time>
      </trkpt>
      <trkpt lat="45.55138" lon="4.71671">
        <ele>314</ele>
        <time>2012-10-07T09:48:51Z</time>
      </trkpt>
      <trkpt lat="45.55138" lon="4.71669">
        <ele>314</ele>
        <time>2012-10-07T09:48:53Z</time>
      </trkpt>
      <trkpt lat="45.55139" lon="4.71666">
        <ele>314</ele>
        <time>2012-10-07T09:48:55Z</time>
      </trkpt>
      <trkpt lat="45.5514" lon="4.71664">
        <ele>314</ele>
        <time>2012-10-07T09:48:57Z</time>
      </trkpt>
      <trkpt lat="45.55141" lon="4.71663">
        <ele>314</ele>
        <time>2012-10-07T09:48:59Z</time>
      </trkpt>
      <trkpt lat="45.55141" lon="4.71661">
        <ele>314</ele>
        <time>2012-10-07T09:49:01Z</time>
      </trkpt>
      <trkpt lat="45.55141" lon="4.71658">
        <ele>314</ele>
        <time>2012-10-07T09:49:03Z</time>
      </trkpt>
      <trkpt lat="45.55143" lon="4.71656">
        <ele>314</ele>
        <time>2012-10-07T09:49:06Z</time>
      </trkpt>
      <trkpt lat="45.55143" lon="4.71654">
        <ele>314</ele>
        <time>2012-10-07T09:49:08Z</time>
      </trkpt>
      <trkpt lat="45.55143" lon="4.71652">
        <ele>314</ele>
        <time>2012-10-07T09:49:10Z</time>
      </trkpt>
      <trkpt lat="45.55143" lon="4.71651">
        <ele>314</ele>
        <time>2012-10-07T09:49:12Z</time>
      </trkpt>
      <trkpt lat="45.55144" lon="4.71648">
        <ele>314</ele>
        <time>2012-10-07T09:49:14Z</time>
      </trkpt>
      <trkpt lat="45.55145" lon="4.71646">
        <ele>314</ele>
        <time>2012-10-07T09:49:16Z</time>
      </trkpt>
      <trkpt lat="45.55146" lon="4.71644">
        <ele>314</ele>
        <time>2012-10-07T09:49:18Z</time>
      </trkpt>
      <trkpt lat="45.55146" lon="4.7164">
        <ele>314</ele>
        <time>2012-10-07T09:49:20Z</time>
      </trkpt>
      <trkpt lat="45.55147" lon="4.71638">
        <ele>314</ele>
        <time>2012-10-07T09:49:23Z</time>
      </trkpt>
      <trkpt lat="45.55148" lon="4.71635">
        <ele>314</ele>
        <time>2012-10-07T09:49:25Z</time>
      </trkpt>
      <trkpt lat="45.55149" lon="4.71632">
        <ele>314</ele>
        <time>2012-10-07T09:49:27Z</time>
      </trkpt>
      <trkpt lat="45.5515" lon="4.7163">
        <ele>313</ele>
        <time>2012-10-07T09:49:29Z</time>
      </trkpt>
      <trkpt lat="45.55151" lon="4.71628">
        <ele>313</ele>
        <time>2012-10-07T09:49:31Z</time>
      </trkpt>
      <trkpt lat="45.55151" lon="4.71626">
        <ele>313</ele>
        <time>2012-10-07T09:49:33Z</time>
      </trkpt>
      <trkpt lat="45.55153" lon="4.71623">
        <ele>313</ele>
        <time>2012-10-07T09:49:35Z</time>
      </trkpt>
      <trkpt lat="45.55154" lon="4.71619">
        <ele>313</ele>
        <time>2012-10-07T09:49:37Z</time>
      </trkpt>
      <trkpt lat="45.55154" lon="4.71617">
        <ele>313</ele>
        <time>2012-10-07T09:49:40Z</time>
      </trkpt>
      <trkpt lat="45.55154" lon="4.71616">
        <ele>313</ele>
        <time>2012-10-07T09:49:42Z</time>
      </trkpt>
      <trkpt lat="45.55153" lon="4.71614">
        <ele>313</ele>
        <time>2012-10-07T09:49:44Z</time>
      </trkpt>
      <trkpt lat="45.55154" lon="4.71612">
        <ele>313</ele>
        <time>2012-10-07T09:49:46Z</time>
      </trkpt>
      <trkpt lat="45.55155" lon="4.7161">
        <ele>313</ele>
        <time>2012-10-07T09:49:48Z</time>
      </trkpt>
      <trkpt lat="45.55155" lon="4.71608">
        <ele>313</ele>
        <time>2012-10-07T09:49:50Z</time>
      </trkpt>
      <trkpt lat="45.55156" lon="4.71604">
        <ele>313</ele>
        <time>2012-10-07T09:49:52Z</time>
      </trkpt>
      <trkpt lat="45.55157" lon="4.71602">
        <ele>313</ele>
        <time>2012-10-07T09:49:55Z</time>
      </trkpt>
      <trkpt lat="45.55158" lon="4.716">
        <ele>313</ele>
        <time>2012-10-07T09:49:57Z</time>
      </trkpt>
      <trkpt lat="45.55159" lon="4.71598">
        <ele>313</ele>
        <time>2012-10-07T09:49:59Z</time>
      </trkpt>
      <trkpt lat="45.55159" lon="4.71596">
        <ele>313</ele>
        <time>2012-10-07T09:50:01Z</time>
      </trkpt>
      <trkpt lat="45.55161" lon="4.71594">
        <ele>313</ele>
        <time>2012-10-07T09:50:03Z</time>
      </trkpt>
      <trkpt lat="45.55161" lon="4.71591">
        <ele>314</ele>
        <time>2012-10-07T09:50:05Z</time>
      </trkpt>
      <trkpt lat="45.55162" lon="4.71589">
        <ele>314</ele>
        <time>2012-10-07T09:50:07Z</time>
      </trkpt>
      <trkpt lat="45.55162" lon="4.71586">
        <ele>314</ele>
        <time>2012-10-07T09:50:09Z</time>
      </trkpt>
      <trkpt lat="45.55163" lon="4.71583">
        <ele>314</ele>
        <time>2012-10-07T09:50:11Z</time>
      </trkpt>
      <trkpt lat="45.55164" lon="4.71581">
        <ele>314</ele>
        <time>2012-10-07T09:50:13Z</time>
      </trkpt>
      <trkpt lat="45.55165" lon="4.71578">
        <ele>314</ele>
        <time>2012-10-07T09:50:15Z</time>
      </trkpt>
      <trkpt lat="45.55165" lon="4.71576">
        <ele>314</ele>
        <time>2012-10-07T09:50:17Z</time>
      </trkpt>
      <trkpt lat="45.55166" lon="4.71571">
        <ele>314</ele>
        <time>2012-10-07T09:50:19Z</time>
      </trkpt>
      <trkpt lat="45.55166" lon="4.71567">
        <ele>314</ele>
        <time>2012-10-07T09:50:22Z</time>
      </trkpt>
      <trkpt lat="45.55166" lon="4.71564">
        <ele>313</ele>
        <time>2012-10-07T09:50:24Z</time>
      </trkpt>
      <trkpt lat="45.55167" lon="4.71561">
        <ele>314</ele>
        <time>2012-10-07T09:50:26Z</time>
      </trkpt>
      <trkpt lat="45.55166" lon="4.71558">
        <ele>314</ele>
        <time>2012-10-07T09:50:28Z</time>
      </trkpt>
      <trkpt lat="45.55167" lon="4.71555">
        <ele>314</ele>
        <time>2012-10-07T09:50:30Z</time>
      </trkpt>
      <trkpt lat="45.55168" lon="4.7155">
        <ele>314</ele>
        <time>2012-10-07T09:50:32Z</time>
      </trkpt>
      <trkpt lat="45.55168" lon="4.71548">
        <ele>314</ele>
        <time>2012-10-07T09:50:35Z</time>
      </trkpt>
      <trkpt lat="45.55168" lon="4.71544">
        <ele>314</ele>
        <time>2012-10-07T09:50:37Z</time>
      </trkpt>
      <trkpt lat="45.55168" lon="4.71541">
        <ele>314</ele>
        <time>2012-10-07T09:50:39Z</time>
      </trkpt>
      <trkpt lat="45.55169" lon="4.71538">
        <ele>313</ele>
        <time>2012-10-07T09:50:41Z</time>
      </trkpt>
      <trkpt lat="45.5517" lon="4.71534">
        <ele>313</ele>
        <time>2012-10-07T09:50:43Z</time>
      </trkpt>
      <trkpt lat="45.5517" lon="4.71531">
        <ele>313</ele>
        <time>2012-10-07T09:50:46Z</time>
      </trkpt>
      <trkpt lat="45.55171" lon="4.71528">
        <ele>313</ele>
        <time>2012-10-07T09:50:48Z</time>
      </trkpt>
      <trkpt lat="45.55172" lon="4.71524">
        <ele>313</ele>
        <time>2012-10-07T09:50:50Z</time>
      </trkpt>
      <trkpt lat="45.55173" lon="4.71522">
        <ele>313</ele>
        <time>2012-10-07T09:50:52Z</time>
      </trkpt>
      <trkpt lat="45.55175" lon="4.71519">
        <ele>313</ele>
        <time>2012-10-07T09:50:54Z</time>
      </trkpt>
      <trkpt lat="45.55176" lon="4.71516">
        <ele>313</ele>
        <time>2012-10-07T09:50:56Z</time>
      </trkpt>
      <trkpt lat="45.55178" lon="4.71514">
        <ele>313</ele>
        <time>2012-10-07T09:50:58Z</time>
      </trkpt>
      <trkpt lat="45.5518" lon="4.71511">
        <ele>313</ele>
        <time>2012-10-07T09:51:00Z</time>
      </trkpt>
      <trkpt lat="45.55183" lon="4.71511">
        <ele>312</ele>
        <time>2012-10-07T09:51:02Z</time>
      </trkpt>
      <trkpt lat="45.55186" lon="4.71511">
        <ele>312</ele>
        <time>2012-10-07T09:51:04Z</time>
      </trkpt>
      <trkpt lat="45.55188" lon="4.71509">
        <ele>312</ele>
        <time>2012-10-07T09:51:06Z</time>
      </trkpt>
      <trkpt lat="45.5519" lon="4.71509">
        <ele>312</ele>
        <time>2012-10-07T09:51:08Z</time>
      </trkpt>
      <trkpt lat="45.5519" lon="4.71508">
        <ele>312</ele>
        <time>2012-10-07T09:51:10Z</time>
      </trkpt>
      <trkpt lat="45.55191" lon="4.71506">
        <ele>312</ele>
        <time>2012-10-07T09:51:12Z</time>
      </trkpt>
      <trkpt lat="45.55193" lon="4.71505">
        <ele>312</ele>
        <time>2012-10-07T09:51:14Z</time>
      </trkpt>
      <trkpt lat="45.55194" lon="4.71504">
        <ele>312</ele>
        <time>2012-10-07T09:51:17Z</time>
      </trkpt>
      <trkpt lat="45.55195" lon="4.71503">
        <ele>312</ele>
        <time>2012-10-07T09:51:19Z</time>
      </trkpt>
      <trkpt lat="45.55197" lon="4.71502">
        <ele>312</ele>
        <time>2012-10-07T09:51:21Z</time>
      </trkpt>
      <trkpt lat="45.55199" lon="4.71501">
        <ele>312</ele>
        <time>2012-10-07T09:51:23Z</time>
      </trkpt>
      <trkpt lat="45.55202" lon="4.715">
        <ele>311</ele>
        <time>2012-10-07T09:51:25Z</time>
      </trkpt>
      <trkpt lat="45.55204" lon="4.71499">
        <ele>312</ele>
        <time>2012-10-07T09:51:27Z</time>
      </trkpt>
      <trkpt lat="45.55206" lon="4.71497">
        <ele>312</ele>
        <time>2012-10-07T09:51:29Z</time>
      </trkpt>
      <trkpt lat="45.55208" lon="4.71495">
        <ele>312</ele>
        <time>2012-10-07T09:51:31Z</time>
      </trkpt>
      <trkpt lat="45.5521" lon="4.71494">
        <ele>312</ele>
        <time>2012-10-07T09:51:33Z</time>
      </trkpt>
      <trkpt lat="45.55212" lon="4.71492">
        <ele>311</ele>
        <time>2012-10-07T09:51:35Z</time>
      </trkpt>
      <trkpt lat="45.55215" lon="4.71489">
        <ele>311</ele>
        <time>2012-10-07T09:51:37Z</time>
      </trkpt>
      <trkpt lat="45.55218" lon="4.71487">
        <ele>311</ele>
        <time>2012-10-07T09:51:39Z</time>
      </trkpt>
      <trkpt lat="45.55223" lon="4.71483">
        <ele>310</ele>
        <time>2012-10-07T09:51:41Z</time>
      </trkpt>
      <trkpt lat="45.55228" lon="4.71479">
        <ele>310</ele>
        <time>2012-10-07T09:51:43Z</time>
      </trkpt>
      <trkpt lat="45.55231" lon="4.71475">
        <ele>310</ele>
        <time>2012-10-07T09:51:45Z</time>
      </trkpt>
      <trkpt lat="45.55233" lon="4.71473">
        <ele>310</ele>
        <time>2012-10-07T09:51:47Z</time>
      </trkpt>
      <trkpt lat="45.55236" lon="4.71469">
        <ele>310</ele>
        <time>2012-10-07T09:51:49Z</time>
      </trkpt>
      <trkpt lat="45.55237" lon="4.71467">
        <ele>310</ele>
        <time>2012-10-07T09:51:52Z</time>
      </trkpt>
      <trkpt lat="45.55238" lon="4.71465">
        <ele>310</ele>
        <time>2012-10-07T09:51:54Z</time>
      </trkpt>
      <trkpt lat="45.5524" lon="4.71463">
        <ele>309</ele>
        <time>2012-10-07T09:51:56Z</time>
      </trkpt>
      <trkpt lat="45.55241" lon="4.7146">
        <ele>309</ele>
        <time>2012-10-07T09:51:58Z</time>
      </trkpt>
      <trkpt lat="45.55243" lon="4.71457">
        <ele>309</ele>
        <time>2012-10-07T09:52:00Z</time>
      </trkpt>
      <trkpt lat="45.55244" lon="4.71455">
        <ele>309</ele>
        <time>2012-10-07T09:52:02Z</time>
      </trkpt>
      <trkpt lat="45.55245" lon="4.71452">
        <ele>309</ele>
        <time>2012-10-07T09:52:04Z</time>
      </trkpt>
      <trkpt lat="45.55245" lon="4.71449">
        <ele>309</ele>
        <time>2012-10-07T09:52:06Z</time>
      </trkpt>
      <trkpt lat="45.55246" lon="4.71445">
        <ele>309</ele>
        <time>2012-10-07T09:52:08Z</time>
      </trkpt>
      <trkpt lat="45.55246" lon="4.71442">
        <ele>309</ele>
        <time>2012-10-07T09:52:10Z</time>
      </trkpt>
      <trkpt lat="45.55247" lon="4.71438">
        <ele>309</ele>
        <time>2012-10-07T09:52:12Z</time>
      </trkpt>
      <trkpt lat="45.55247" lon="4.71435">
        <ele>308</ele>
        <time>2012-10-07T09:52:14Z</time>
      </trkpt>
      <trkpt lat="45.55248" lon="4.71432">
        <ele>309</ele>
        <time>2012-10-07T09:52:16Z</time>
      </trkpt>
      <trkpt lat="45.55249" lon="4.71427">
        <ele>309</ele>
        <time>2012-10-07T09:52:18Z</time>
      </trkpt>
      <trkpt lat="45.55249" lon="4.71423">
        <ele>309</ele>
        <time>2012-10-07T09:52:21Z</time>
      </trkpt>
      <trkpt lat="45.5525" lon="4.7142">
        <ele>309</ele>
        <time>2012-10-07T09:52:23Z</time>
      </trkpt>
      <trkpt lat="45.55251" lon="4.71417">
        <ele>308</ele>
        <time>2012-10-07T09:52:25Z</time>
      </trkpt>
      <trkpt lat="45.55252" lon="4.71413">
        <ele>308</ele>
        <time>2012-10-07T09:52:27Z</time>
      </trkpt>
      <trkpt lat="45.55253" lon="4.71408">
        <ele>308</ele>
        <time>2012-10-07T09:52:29Z</time>
      </trkpt>
      <trkpt lat="45.55254" lon="4.71404">
        <ele>308</ele>
        <time>2012-10-07T09:52:32Z</time>
      </trkpt>
      <trkpt lat="45.55254" lon="4.714">
        <ele>308</ele>
        <time>2012-10-07T09:52:34Z</time>
      </trkpt>
      <trkpt lat="45.55254" lon="4.71397">
        <ele>308</ele>
        <time>2012-10-07T09:52:36Z</time>
      </trkpt>
      <trkpt lat="45.55255" lon="4.71393">
        <ele>308</ele>
        <time>2012-10-07T09:52:38Z</time>
      </trkpt>
      <trkpt lat="45.55256" lon="4.71389">
        <ele>308</ele>
        <time>2012-10-07T09:52:40Z</time>
      </trkpt>
      <trkpt lat="45.55256" lon="4.71386">
        <ele>308</ele>
        <time>2012-10-07T09:52:42Z</time>
      </trkpt>
      <trkpt lat="45.55257" lon="4.71382">
        <ele>308</ele>
        <time>2012-10-07T09:52:44Z</time>
      </trkpt>
      <trkpt lat="45.55257" lon="4.71379">
        <ele>308</ele>
        <time>2012-10-07T09:52:46Z</time>
      </trkpt>
      <trkpt lat="45.55258" lon="4.71375">
        <ele>308</ele>
        <time>2012-10-07T09:52:48Z</time>
      </trkpt>
      <trkpt lat="45.55259" lon="4.71372">
        <ele>308</ele>
        <time>2012-10-07T09:52:50Z</time>
      </trkpt>
      <trkpt lat="45.5526" lon="4.71369">
        <ele>308</ele>
        <time>2012-10-07T09:52:52Z</time>
      </trkpt>
      <trkpt lat="45.5526" lon="4.71365">
        <ele>308</ele>
        <time>2012-10-07T09:52:54Z</time>
      </trkpt>
      <trkpt lat="45.55261" lon="4.71361">
        <ele>308</ele>
        <time>2012-10-07T09:52:56Z</time>
      </trkpt>
      <trkpt lat="45.55262" lon="4.71358">
        <ele>308</ele>
        <time>2012-10-07T09:52:58Z</time>
      </trkpt>
      <trkpt lat="45.55262" lon="4.71354">
        <ele>308</ele>
        <time>2012-10-07T09:53:00Z</time>
      </trkpt>
      <trkpt lat="45.55263" lon="4.71351">
        <ele>308</ele>
        <time>2012-10-07T09:53:02Z</time>
      </trkpt>
      <trkpt lat="45.55264" lon="4.71347">
        <ele>308</ele>
        <time>2012-10-07T09:53:04Z</time>
      </trkpt>
      <trkpt lat="45.55265" lon="4.71342">
        <ele>308</ele>
        <time>2012-10-07T09:53:06Z</time>
      </trkpt>
      <trkpt lat="45.55266" lon="4.71338">
        <ele>308</ele>
        <time>2012-10-07T09:53:08Z</time>
      </trkpt>
      <trkpt lat="45.55267" lon="4.71335">
        <ele>308</ele>
        <time>2012-10-07T09:53:10Z</time>
      </trkpt>
      <trkpt lat="45.55268" lon="4.71331">
        <ele>308</ele>
        <time>2012-10-07T09:53:13Z</time>
      </trkpt>
      <trkpt lat="45.55268" lon="4.71327">
        <ele>308</ele>
        <time>2012-10-07T09:53:15Z</time>
      </trkpt>
      <trkpt lat="45.55269" lon="4.71323">
        <ele>308</ele>
        <time>2012-10-07T09:53:17Z</time>
      </trkpt>
      <trkpt lat="45.55269" lon="4.7132">
        <ele>308</ele>
        <time>2012-10-07T09:53:19Z</time>
      </trkpt>
      <trkpt lat="45.5527" lon="4.71316">
        <ele>308</ele>
        <time>2012-10-07T09:53:21Z</time>
      </trkpt>
      <trkpt lat="45.55271" lon="4.71313">
        <ele>308</ele>
        <time>2012-10-07T09:53:23Z</time>
      </trkpt>
      <trkpt lat="45.55272" lon="4.71309">
        <ele>308</ele>
        <time>2012-10-07T09:53:25Z</time>
      </trkpt>
      <trkpt lat="45.55272" lon="4.71306">
        <ele>308</ele>
        <time>2012-10-07T09:53:27Z</time>
      </trkpt>
      <trkpt lat="45.55273" lon="4.71302">
        <ele>307</ele>
        <time>2012-10-07T09:53:29Z</time>
      </trkpt>
      <trkpt lat="45.55273" lon="4.71299">
        <ele>307</ele>
        <time>2012-10-07T09:53:31Z</time>
      </trkpt>
      <trkpt lat="45.55274" lon="4.71295">
        <ele>308</ele>
        <time>2012-10-07T09:53:33Z</time>
      </trkpt>
      <trkpt lat="45.55275" lon="4.71291">
        <ele>307</ele>
        <time>2012-10-07T09:53:35Z</time>
      </trkpt>
      <trkpt lat="45.55275" lon="4.71288">
        <ele>307</ele>
        <time>2012-10-07T09:53:37Z</time>
      </trkpt>
      <trkpt lat="45.55275" lon="4.71283">
        <ele>307</ele>
        <time>2012-10-07T09:53:39Z</time>
      </trkpt>
      <trkpt lat="45.55276" lon="4.71279">
        <ele>307</ele>
        <time>2012-10-07T09:53:42Z</time>
      </trkpt>
      <trkpt lat="45.55276" lon="4.71276">
        <ele>307</ele>
        <time>2012-10-07T09:53:44Z</time>
      </trkpt>
      <trkpt lat="45.55277" lon="4.71273">
        <ele>307</ele>
        <time>2012-10-07T09:53:46Z</time>
      </trkpt>
      <trkpt lat="45.55278" lon="4.71269">
        <ele>307</ele>
        <time>2012-10-07T09:53:48Z</time>
      </trkpt>
      <trkpt lat="45.55278" lon="4.71266">
        <ele>307</ele>
        <time>2012-10-07T09:53:50Z</time>
      </trkpt>
      <trkpt lat="45.55279" lon="4.71262">
        <ele>306</ele>
        <time>2012-10-07T09:53:52Z</time>
      </trkpt>
      <trkpt lat="45.5528" lon="4.71258">
        <ele>306</ele>
        <time>2012-10-07T09:53:54Z</time>
      </trkpt>
      <trkpt lat="45.5528" lon="4.71255">
        <ele>306</ele>
        <time>2012-10-07T09:53:56Z</time>
      </trkpt>
      <trkpt lat="45.55281" lon="4.71251">
        <ele>306</ele>
        <time>2012-10-07T09:53:58Z</time>
      </trkpt>
      <trkpt lat="45.55281" lon="4.71248">
        <ele>306</ele>
        <time>2012-10-07T09:54:00Z</time>
      </trkpt>
      <trkpt lat="45.55282" lon="4.71244">
        <ele>306</ele>
        <time>2012-10-07T09:54:02Z</time>
      </trkpt>
      <trkpt lat="45.55282" lon="4.71241">
        <ele>306</ele>
        <time>2012-10-07T09:54:04Z</time>
      </trkpt>
      <trkpt lat="45.55283" lon="4.71235">
        <ele>306</ele>
        <time>2012-10-07T09:54:06Z</time>
      </trkpt>
      <trkpt lat="45.55284" lon="4.71232">
        <ele>306</ele>
        <time>2012-10-07T09:54:08Z</time>
      </trkpt>
      <trkpt lat="45.55284" lon="4.71228">
        <ele>306</ele>
        <time>2012-10-07T09:54:10Z</time>
      </trkpt>
      <trkpt lat="45.55285" lon="4.71224">
        <ele>306</ele>
        <time>2012-10-07T09:54:13Z</time>
      </trkpt>
      <trkpt lat="45.55285" lon="4.7122">
        <ele>306</ele>
        <time>2012-10-07T09:54:15Z</time>
      </trkpt>
      <trkpt lat="45.55285" lon="4.71217">
        <ele>306</ele>
        <time>2012-10-07T09:54:17Z</time>
      </trkpt>
      <trkpt lat="45.55286" lon="4.71214">
        <ele>306</ele>
        <time>2012-10-07T09:54:19Z</time>
      </trkpt>
      <trkpt lat="45.55286" lon="4.71208">
        <ele>305</ele>
        <time>2012-10-07T09:54:21Z</time>
      </trkpt>
      <trkpt lat="45.55285" lon="4.71204">
        <ele>305</ele>
        <time>2012-10-07T09:54:23Z</time>
      </trkpt>
      <trkpt lat="45.55286" lon="4.71201">
        <ele>305</ele>
        <time>2012-10-07T09:54:25Z</time>
      </trkpt>
      <trkpt lat="45.55286" lon="4.71197">
        <ele>305</ele>
        <time>2012-10-07T09:54:28Z</time>
      </trkpt>
      <trkpt lat="45.55286" lon="4.71193">
        <ele>305</ele>
        <time>2012-10-07T09:54:30Z</time>
      </trkpt>
      <trkpt lat="45.55287" lon="4.71189">
        <ele>305</ele>
        <time>2012-10-07T09:54:32Z</time>
      </trkpt>
      <trkpt lat="45.55288" lon="4.71186">
        <ele>304</ele>
        <time>2012-10-07T09:54:34Z</time>
      </trkpt>
      <trkpt lat="45.55288" lon="4.71182">
        <ele>304</ele>
        <time>2012-10-07T09:54:36Z</time>
      </trkpt>
      <trkpt lat="45.55289" lon="4.71179">
        <ele>304</ele>
        <time>2012-10-07T09:54:38Z</time>
      </trkpt>
      <trkpt lat="45.5529" lon="4.71175">
        <ele>304</ele>
        <time>2012-10-07T09:54:40Z</time>
      </trkpt>
      <trkpt lat="45.55291" lon="4.71172">
        <ele>304</ele>
        <time>2012-10-07T09:54:42Z</time>
      </trkpt>
      <trkpt lat="45.55291" lon="4.71169">
        <ele>304</ele>
        <time>2012-10-07T09:54:44Z</time>
      </trkpt>
      <trkpt lat="45.55292" lon="4.71165">
        <ele>304</ele>
        <time>2012-10-07T09:54:46Z</time>
      </trkpt>
      <trkpt lat="45.55293" lon="4.71162">
        <ele>304</ele>
        <time>2012-10-07T09:54:48Z</time>
      </trkpt>
      <trkpt lat="45.55294" lon="4.71158">
        <ele>304</ele>
        <time>2012-10-07T09:54:50Z</time>
      </trkpt>
      <trkpt lat="45.55295" lon="4.71155">
        <ele>304</ele>
        <time>2012-10-07T09:54:52Z</time>
      </trkpt>
      <trkpt lat="45.55296" lon="4.71152">
        <ele>303</ele>
        <time>2012-10-07T09:54:54Z</time>
      </trkpt>
      <trkpt lat="45.55297" lon="4.71149">
        <ele>304</ele>
        <time>2012-10-07T09:54:56Z</time>
      </trkpt>
      <trkpt lat="45.55298" lon="4.71146">
        <ele>304</ele>
        <time>2012-10-07T09:54:58Z</time>
      </trkpt>
      <trkpt lat="45.55299" lon="4.71143">
        <ele>304</ele>
        <time>2012-10-07T09:55:00Z</time>
      </trkpt>
      <trkpt lat="45.55301" lon="4.71139">
        <ele>303</ele>
        <time>2012-10-07T09:55:02Z</time>
      </trkpt>
      <trkpt lat="45.55302" lon="4.71136">
        <ele>303</ele>
        <time>2012-10-07T09:55:04Z</time>
      </trkpt>
      <trkpt lat="45.55304" lon="4.71131">
        <ele>303</ele>
        <time>2012-10-07T09:55:06Z</time>
      </trkpt>
      <trkpt lat="45.55306" lon="4.71128">
        <ele>303</ele>
        <time>2012-10-07T09:55:08Z</time>
      </trkpt>
      <trkpt lat="45.55307" lon="4.71125">
        <ele>303</ele>
        <time>2012-10-07T09:55:10Z</time>
      </trkpt>
      <trkpt lat="45.55308" lon="4.71121">
        <ele>303</ele>
        <time>2012-10-07T09:55:12Z</time>
      </trkpt>
      <trkpt lat="45.55309" lon="4.71118">
        <ele>303</ele>
        <time>2012-10-07T09:55:15Z</time>
      </trkpt>
      <trkpt lat="45.5531" lon="4.71115">
        <ele>303</ele>
        <time>2012-10-07T09:55:17Z</time>
      </trkpt>
      <trkpt lat="45.55312" lon="4.71111">
        <ele>303</ele>
        <time>2012-10-07T09:55:19Z</time>
      </trkpt>
      <trkpt lat="45.55313" lon="4.71109">
        <ele>303</ele>
        <time>2012-10-07T09:55:21Z</time>
      </trkpt>
      <trkpt lat="45.55314" lon="4.71105">
        <ele>303</ele>
        <time>2012-10-07T09:55:23Z</time>
      </trkpt>
      <trkpt lat="45.55315" lon="4.71103">
        <ele>303</ele>
        <time>2012-10-07T09:55:25Z</time>
      </trkpt>
      <trkpt lat="45.55317" lon="4.711">
        <ele>303</ele>
        <time>2012-10-07T09:55:27Z</time>
      </trkpt>
      <trkpt lat="45.55318" lon="4.71096">
        <ele>303</ele>
        <time>2012-10-07T09:55:29Z</time>
      </trkpt>
      <trkpt lat="45.55319" lon="4.71093">
        <ele>303</ele>
        <time>2012-10-07T09:55:31Z</time>
      </trkpt>
      <trkpt lat="45.5532" lon="4.7109">
        <ele>303</ele>
        <time>2012-10-07T09:55:33Z</time>
      </trkpt>
      <trkpt lat="45.55321" lon="4.71087">
        <ele>303</ele>
        <time>2012-10-07T09:55:35Z</time>
      </trkpt>
      <trkpt lat="45.55323" lon="4.71082">
        <ele>302</ele>
        <time>2012-10-07T09:55:37Z</time>
      </trkpt>
      <trkpt lat="45.55323" lon="4.71079">
        <ele>302</ele>
        <time>2012-10-07T09:55:39Z</time>
      </trkpt>
      <trkpt lat="45.55323" lon="4.71078">
        <ele>302</ele>
        <time>2012-10-07T09:55:41Z</time>
      </trkpt>
      <trkpt lat="45.55324" lon="4.71078">
        <ele>302</ele>
        <time>2012-10-07T09:55:44Z</time>
      </trkpt>
      <trkpt lat="45.55324" lon="4.71078">
        <ele>302</ele>
        <time>2012-10-07T09:55:46Z</time>
      </trkpt>
      <trkpt lat="45.55325" lon="4.71076">
        <ele>302</ele>
        <time>2012-10-07T09:55:48Z</time>
      </trkpt>
      <trkpt lat="45.55325" lon="4.71074">
        <ele>302</ele>
        <time>2012-10-07T09:55:50Z</time>
      </trkpt>
      <trkpt lat="45.55325" lon="4.71074">
        <ele>302</ele>
        <time>2012-10-07T09:55:52Z</time>
      </trkpt>
      <trkpt lat="45.55326" lon="4.71076">
        <ele>302</ele>
        <time>2012-10-07T09:55:54Z</time>
      </trkpt>
      <trkpt lat="45.55326" lon="4.71078">
        <ele>302</ele>
        <time>2012-10-07T09:55:56Z</time>
      </trkpt>
      <trkpt lat="45.55326" lon="4.71078">
        <ele>302</ele>
        <time>2012-10-07T09:55:58Z</time>
      </trkpt>
      <trkpt lat="45.55326" lon="4.71078">
        <ele>302</ele>
        <time>2012-10-07T09:56:00Z</time>
      </trkpt>
      <trkpt lat="45.55326" lon="4.71078">
        <ele>302</ele>
        <time>2012-10-07T09:56:02Z</time>
      </trkpt>
      <trkpt lat="45.55326" lon="4.71077">
        <ele>302</ele>
        <time>2012-10-07T09:56:04Z</time>
      </trkpt>
      <trkpt lat="45.55326" lon="4.71074">
        <ele>302</ele>
        <time>2012-10-07T09:56:06Z</time>
      </trkpt>
      <trkpt lat="45.55327" lon="4.71071">
        <ele>302</ele>
        <time>2012-10-07T09:56:08Z</time>
      </trkpt>
      <trkpt lat="45.55328" lon="4.71068">
        <ele>302</ele>
        <time>2012-10-07T09:56:10Z</time>
      </trkpt>
      <trkpt lat="45.55329" lon="4.71066">
        <ele>302</ele>
        <time>2012-10-07T09:56:12Z</time>
      </trkpt>
      <trkpt lat="45.55331" lon="4.71063">
        <ele>302</ele>
        <time>2012-10-07T09:56:15Z</time>
      </trkpt>
      <trkpt lat="45.55331" lon="4.7106">
        <ele>302</ele>
        <time>2012-10-07T09:56:17Z</time>
      </trkpt>
      <trkpt lat="45.55333" lon="4.71057">
        <ele>302</ele>
        <time>2012-10-07T09:56:19Z</time>
      </trkpt>
      <trkpt lat="45.55333" lon="4.71054">
        <ele>302</ele>
        <time>2012-10-07T09:56:21Z</time>
      </trkpt>
      <trkpt lat="45.55335" lon="4.71052">
        <ele>302</ele>
        <time>2012-10-07T09:56:23Z</time>
      </trkpt>
      <trkpt lat="45.55336" lon="4.71049">
        <ele>301</ele>
        <time>2012-10-07T09:56:25Z</time>
      </trkpt>
      <trkpt lat="45.55337" lon="4.71046">
        <ele>301</ele>
        <time>2012-10-07T09:56:27Z</time>
      </trkpt>
      <trkpt lat="45.55338" lon="4.71043">
        <ele>301</ele>
        <time>2012-10-07T09:56:29Z</time>
      </trkpt>
      <trkpt lat="45.55339" lon="4.7104">
        <ele>302</ele>
        <time>2012-10-07T09:56:31Z</time>
      </trkpt>
      <trkpt lat="45.55341" lon="4.71037">
        <ele>302</ele>
        <time>2012-10-07T09:56:33Z</time>
      </trkpt>
      <trkpt lat="45.55342" lon="4.71034">
        <ele>302</ele>
        <time>2012-10-07T09:56:35Z</time>
      </trkpt>
      <trkpt lat="45.55343" lon="4.7103">
        <ele>302</ele>
        <time>2012-10-07T09:56:37Z</time>
      </trkpt>
      <trkpt lat="45.55344" lon="4.71026">
        <ele>301</ele>
        <time>2012-10-07T09:56:39Z</time>
      </trkpt>
      <trkpt lat="45.55345" lon="4.71022">
        <ele>301</ele>
        <time>2012-10-07T09:56:41Z</time>
      </trkpt>
      <trkpt lat="45.55346" lon="4.71019">
        <ele>301</ele>
        <time>2012-10-07T09:56:44Z</time>
      </trkpt>
      <trkpt lat="45.55347" lon="4.71015">
        <ele>301</ele>
        <time>2012-10-07T09:56:46Z</time>
      </trkpt>
      <trkpt lat="45.55347" lon="4.71012">
        <ele>301</ele>
        <time>2012-10-07T09:56:48Z</time>
      </trkpt>
      <trkpt lat="45.55348" lon="4.71008">
        <ele>301</ele>
        <time>2012-10-07T09:56:50Z</time>
      </trkpt>
      <trkpt lat="45.55349" lon="4.71005">
        <ele>301</ele>
        <time>2012-10-07T09:56:52Z</time>
      </trkpt>
      <trkpt lat="45.5535" lon="4.71002">
        <ele>301</ele>
        <time>2012-10-07T09:56:54Z</time>
      </trkpt>
      <trkpt lat="45.55352" lon="4.70997">
        <ele>301</ele>
        <time>2012-10-07T09:56:56Z</time>
      </trkpt>
      <trkpt lat="45.55352" lon="4.70993">
        <ele>301</ele>
        <time>2012-10-07T09:56:58Z</time>
      </trkpt>
      <trkpt lat="45.55353" lon="4.7099">
        <ele>301</ele>
        <time>2012-10-07T09:57:01Z</time>
      </trkpt>
      <trkpt lat="45.55354" lon="4.70986">
        <ele>301</ele>
        <time>2012-10-07T09:57:03Z</time>
      </trkpt>
      <trkpt lat="45.55354" lon="4.70983">
        <ele>301</ele>
        <time>2012-10-07T09:57:05Z</time>
      </trkpt>
      <trkpt lat="45.55354" lon="4.70979">
        <ele>301</ele>
        <time>2012-10-07T09:57:07Z</time>
      </trkpt>
      <trkpt lat="45.55355" lon="4.70976">
        <ele>301</ele>
        <time>2012-10-07T09:57:09Z</time>
      </trkpt>
      <trkpt lat="45.55355" lon="4.70971">
        <ele>301</ele>
        <time>2012-10-07T09:57:11Z</time>
      </trkpt>
      <trkpt lat="45.55355" lon="4.70967">
        <ele>301</ele>
        <time>2012-10-07T09:57:13Z</time>
      </trkpt>
      <trkpt lat="45.55355" lon="4.70963">
        <ele>301</ele>
        <time>2012-10-07T09:57:16Z</time>
      </trkpt>
      <trkpt lat="45.55356" lon="4.7096">
        <ele>301</ele>
        <time>2012-10-07T09:57:18Z</time>
      </trkpt>
      <trkpt lat="45.55356" lon="4.70956">
        <ele>301</ele>
        <time>2012-10-07T09:57:20Z</time>
      </trkpt>
      <trkpt lat="45.55356" lon="4.70953">
        <ele>301</ele>
        <time>2012-10-07T09:57:22Z</time>
      </trkpt>
      <trkpt lat="45.55356" lon="4.70949">
        <ele>301</ele>
        <time>2012-10-07T09:57:24Z</time>
      </trkpt>
      <trkpt lat="45.55356" lon="4.70943">
        <ele>300</ele>
        <time>2012-10-07T09:57:26Z</time>
      </trkpt>
      <trkpt lat="45.55355" lon="4.7094">
        <ele>300</ele>
        <time>2012-10-07T09:57:28Z</time>
      </trkpt>
      <trkpt lat="45.55355" lon="4.70937">
        <ele>300</ele>
        <time>2012-10-07T09:57:31Z</time>
      </trkpt>
      <trkpt lat="45.55354" lon="4.70933">
        <ele>300</ele>
        <time>2012-10-07T09:57:33Z</time>
      </trkpt>
      <trkpt lat="45.55354" lon="4.70929">
        <ele>300</ele>
        <time>2012-10-07T09:57:35Z</time>
      </trkpt>
      <trkpt lat="45.55354" lon="4.70926">
        <ele>300</ele>
        <time>2012-10-07T09:57:37Z</time>
      </trkpt>
      <trkpt lat="45.55354" lon="4.70922">
        <ele>300</ele>
        <time>2012-10-07T09:57:39Z</time>
      </trkpt>
      <trkpt lat="45.55354" lon="4.70919">
        <ele>300</ele>
        <time>2012-10-07T09:57:41Z</time>
      </trkpt>
      <trkpt lat="45.55353" lon="4.70915">
        <ele>300</ele>
        <time>2012-10-07T09:57:43Z</time>
      </trkpt>
      <trkpt lat="45.55353" lon="4.70912">
        <ele>300</ele>
        <time>2012-10-07T09:57:45Z</time>
      </trkpt>
      <trkpt lat="45.55353" lon="4.70909">
        <ele>300</ele>
        <time>2012-10-07T09:57:47Z</time>
      </trkpt>
      <trkpt lat="45.55352" lon="4.70906">
        <ele>300</ele>
        <time>2012-10-07T09:57:49Z</time>
      </trkpt>
      <trkpt lat="45.55352" lon="4.70902">
        <ele>300</ele>
        <time>2012-10-07T09:57:51Z</time>
      </trkpt>
      <trkpt lat="45.55352" lon="4.70897">
        <ele>300</ele>
        <time>2012-10-07T09:57:53Z</time>
      </trkpt>
      <trkpt lat="45.55352" lon="4.70893">
        <ele>300</ele>
        <time>2012-10-07T09:57:55Z</time>
      </trkpt>
      <trkpt lat="45.55352" lon="4.7089">
        <ele>300</ele>
        <time>2012-10-07T09:57:57Z</time>
      </trkpt>
      <trkpt lat="45.55352" lon="4.70887">
        <ele>300</ele>
        <time>2012-10-07T09:57:59Z</time>
      </trkpt>
      <trkpt lat="45.55352" lon="4.70883">
        <ele>300</ele>
        <time>2012-10-07T09:58:01Z</time>
      </trkpt>
      <trkpt lat="45.55352" lon="4.7088">
        <ele>300</ele>
        <time>2012-10-07T09:58:03Z</time>
      </trkpt>
      <trkpt lat="45.55352" lon="4.70876">
        <ele>300</ele>
        <time>2012-10-07T09:58:06Z</time>
      </trkpt>
      <trkpt lat="45.55352" lon="4.70873">
        <ele>299</ele>
        <time>2012-10-07T09:58:08Z</time>
      </trkpt>
      <trkpt lat="45.55352" lon="4.70869">
        <ele>300</ele>
        <time>2012-10-07T09:58:10Z</time>
      </trkpt>
      <trkpt lat="45.55353" lon="4.70865">
        <ele>300</ele>
        <time>2012-10-07T09:58:12Z</time>
      </trkpt>
      <trkpt lat="45.55353" lon="4.70862">
        <ele>300</ele>
        <time>2012-10-07T09:58:14Z</time>
      </trkpt>
      <trkpt lat="45.55353" lon="4.70859">
        <ele>300</ele>
        <time>2012-10-07T09:58:16Z</time>
      </trkpt>
      <trkpt lat="45.55353" lon="4.70856">
        <ele>300</ele>
        <time>2012-10-07T09:58:18Z</time>
      </trkpt>
      <trkpt lat="45.55353" lon="4.70853">
        <ele>300</ele>
        <time>2012-10-07T09:58:20Z</time>
      </trkpt>
      <trkpt lat="45.55354" lon="4.70848">
        <ele>300</ele>
        <time>2012-10-07T09:58:22Z</time>
      </trkpt>
      <trkpt lat="45.55354" lon="4.70844">
        <ele>300</ele>
        <time>2012-10-07T09:58:24Z</time>
      </trkpt>
      <trkpt lat="45.55354" lon="4.70841">
        <ele>300</ele>
        <time>2012-10-07T09:58:26Z</time>
      </trkpt>
      <trkpt lat="45.55354" lon="4.70838">
        <ele>300</ele>
        <time>2012-10-07T09:58:28Z</time>
      </trkpt>
      <trkpt lat="45.55355" lon="4.70835">
        <ele>300</ele>
        <time>2012-10-07T09:58:31Z</time>
      </trkpt>
      <trkpt lat="45.55355" lon="4.70831">
        <ele>300</ele>
        <time>2012-10-07T09:58:33Z</time>
      </trkpt>
      <trkpt lat="45.55356" lon="4.70828">
        <ele>300</ele>
        <time>2012-10-07T09:58:35Z</time>
      </trkpt>
      <trkpt lat="45.55357" lon="4.70824">
        <ele>300</ele>
        <time>2012-10-07T09:58:37Z</time>
      </trkpt>
      <trkpt lat="45.55357" lon="4.70821">
        <ele>299</ele>
        <time>2012-10-07T09:58:39Z</time>
      </trkpt>
      <trkpt lat="45.55359" lon="4.70818">
        <ele>300</ele>
        <time>2012-10-07T09:58:41Z</time>
      </trkpt>
      <trkpt lat="45.55359" lon="4.70814">
        <ele>300</ele>
        <time>2012-10-07T09:58:43Z</time>
      </trkpt>
      <trkpt lat="45.55361" lon="4.70809">
        <ele>300</ele>
        <time>2012-10-07T09:58:45Z</time>
      </trkpt>
      <trkpt lat="45.55362" lon="4.70805">
        <ele>300</ele>
        <time>2012-10-07T09:58:47Z</time>
      </trkpt>
      <trkpt lat="45.55363" lon="4.70802">
        <ele>299</ele>
        <time>2012-10-07T09:58:50Z</time>
      </trkpt>
      <trkpt lat="45.55364" lon="4.70798">
        <ele>299</ele>
        <time>2012-10-07T09:58:52Z</time>
      </trkpt>
      <trkpt lat="45.55365" lon="4.70795">
        <ele>299</ele>
        <time>2012-10-07T09:58:54Z</time>
      </trkpt>
      <trkpt lat="45.55367" lon="4.70792">
        <ele>299</ele>
        <time>2012-10-07T09:58:56Z</time>
      </trkpt>
      <trkpt lat="45.55368" lon="4.70788">
        <ele>299</ele>
        <time>2012-10-07T09:58:58Z</time>
      </trkpt>
      <trkpt lat="45.5537" lon="4.70785">
        <ele>299</ele>
        <time>2012-10-07T09:59:00Z</time>
      </trkpt>
      <trkpt lat="45.55371" lon="4.70782">
        <ele>298</ele>
        <time>2012-10-07T09:59:02Z</time>
      </trkpt>
      <trkpt lat="45.55372" lon="4.70777">
        <ele>298</ele>
        <time>2012-10-07T09:59:04Z</time>
      </trkpt>
      <trkpt lat="45.55374" lon="4.70774">
        <ele>298</ele>
        <time>2012-10-07T09:59:06Z</time>
      </trkpt>
      <trkpt lat="45.55376" lon="4.7077">
        <ele>298</ele>
        <time>2012-10-07T09:59:09Z</time>
      </trkpt>
      <trkpt lat="45.55377" lon="4.70767">
        <ele>298</ele>
        <time>2012-10-07T09:59:11Z</time>
      </trkpt>
      <trkpt lat="45.55378" lon="4.70763">
        <ele>298</ele>
        <time>2012-10-07T09:59:13Z</time>
      </trkpt>
      <trkpt lat="45.5538" lon="4.7076">
        <ele>297</ele>
        <time>2012-10-07T09:59:15Z</time>
      </trkpt>
      <trkpt lat="45.55381" lon="4.70756">
        <ele>297</ele>
        <time>2012-10-07T09:59:17Z</time>
      </trkpt>
      <trkpt lat="45.55383" lon="4.70753">
        <ele>297</ele>
        <time>2012-10-07T09:59:19Z</time>
      </trkpt>
      <trkpt lat="45.55384" lon="4.7075">
        <ele>296</ele>
        <time>2012-10-07T09:59:21Z</time>
      </trkpt>
      <trkpt lat="45.55385" lon="4.70746">
        <ele>296</ele>
        <time>2012-10-07T09:59:23Z</time>
      </trkpt>
      <trkpt lat="45.55386" lon="4.70743">
        <ele>296</ele>
        <time>2012-10-07T09:59:25Z</time>
      </trkpt>
      <trkpt lat="45.55388" lon="4.70739">
        <ele>296</ele>
        <time>2012-10-07T09:59:27Z</time>
      </trkpt>
      <trkpt lat="45.55389" lon="4.70735">
        <ele>296</ele>
        <time>2012-10-07T09:59:29Z</time>
      </trkpt>
      <trkpt lat="45.55391" lon="4.70732">
        <ele>296</ele>
        <time>2012-10-07T09:59:31Z</time>
      </trkpt>
      <trkpt lat="45.55392" lon="4.70729">
        <ele>296</ele>
        <time>2012-10-07T09:59:33Z</time>
      </trkpt>
      <trkpt lat="45.55393" lon="4.70726">
        <ele>295</ele>
        <time>2012-10-07T09:59:35Z</time>
      </trkpt>
      <trkpt lat="45.55395" lon="4.70723">
        <ele>295</ele>
        <time>2012-10-07T09:59:38Z</time>
      </trkpt>
      <trkpt lat="45.55396" lon="4.7072">
        <ele>294</ele>
        <time>2012-10-07T09:59:40Z</time>
      </trkpt>
      <trkpt lat="45.55398" lon="4.70717">
        <ele>294</ele>
        <time>2012-10-07T09:59:42Z</time>
      </trkpt>
      <trkpt lat="45.55399" lon="4.70714">
        <ele>294</ele>
        <time>2012-10-07T09:59:44Z</time>
      </trkpt>
      <trkpt lat="45.55401" lon="4.70711">
        <ele>293</ele>
        <time>2012-10-07T09:59:46Z</time>
      </trkpt>
      <trkpt lat="45.55402" lon="4.70708">
        <ele>293</ele>
        <time>2012-10-07T09:59:48Z</time>
      </trkpt>
      <trkpt lat="45.55404" lon="4.70706">
        <ele>293</ele>
        <time>2012-10-07T09:59:50Z</time>
      </trkpt>
      <trkpt lat="45.55406" lon="4.70702">
        <ele>292</ele>
        <time>2012-10-07T09:59:52Z</time>
      </trkpt>
      <trkpt lat="45.55408" lon="4.70699">
        <ele>292</ele>
        <time>2012-10-07T09:59:54Z</time>
      </trkpt>
      <trkpt lat="45.55409" lon="4.70697">
        <ele>291</ele>
        <time>2012-10-07T09:59:56Z</time>
      </trkpt>
      <trkpt lat="45.55411" lon="4.70695">
        <ele>291</ele>
        <time>2012-10-07T09:59:59Z</time>
      </trkpt>
      <trkpt lat="45.55412" lon="4.70693">
        <ele>291</ele>
        <time>2012-10-07T10:00:01Z</time>
      </trkpt>
      <trkpt lat="45.55414" lon="4.70691">
        <ele>291</ele>
        <time>2012-10-07T10:00:03Z</time>
      </trkpt>
      <trkpt lat="45.55416" lon="4.70689">
        <ele>290</ele>
        <time>2012-10-07T10:00:05Z</time>
      </trkpt>
      <trkpt lat="45.55418" lon="4.70687">
        <ele>290</ele>
        <time>2012-10-07T10:00:07Z</time>
      </trkpt>
      <trkpt lat="45.5542" lon="4.70685">
        <ele>290</ele>
        <time>2012-10-07T10:00:09Z</time>
      </trkpt>
      <trkpt lat="45.55422" lon="4.70684">
        <ele>290</ele>
        <time>2012-10-07T10:00:11Z</time>
      </trkpt>
      <trkpt lat="45.55424" lon="4.70682">
        <ele>290</ele>
        <time>2012-10-07T10:00:13Z</time>
      </trkpt>
      <trkpt lat="45.55426" lon="4.70681">
        <ele>289</ele>
        <time>2012-10-07T10:00:15Z</time>
      </trkpt>
      <trkpt lat="45.55428" lon="4.7068">
        <ele>289</ele>
        <time>2012-10-07T10:00:17Z</time>
      </trkpt>
      <trkpt lat="45.55431" lon="4.70679">
        <ele>289</ele>
        <time>2012-10-07T10:00:19Z</time>
      </trkpt>
      <trkpt lat="45.55433" lon="4.70677">
        <ele>289</ele>
        <time>2012-10-07T10:00:21Z</time>
      </trkpt>
      <trkpt lat="45.55435" lon="4.70676">
        <ele>288</ele>
        <time>2012-10-07T10:00:23Z</time>
      </trkpt>
      <trkpt lat="45.55437" lon="4.70674">
        <ele>288</ele>
        <time>2012-10-07T10:00:25Z</time>
      </trkpt>
      <trkpt lat="45.55439" lon="4.70673">
        <ele>288</ele>
        <time>2012-10-07T10:00:27Z</time>
      </trkpt>
      <trkpt lat="45.55442" lon="4.70671">
        <ele>288</ele>
        <time>2012-10-07T10:00:29Z</time>
      </trkpt>
      <trkpt lat="45.55444" lon="4.70669">
        <ele>288</ele>
        <time>2012-10-07T10:00:31Z</time>
      </trkpt>
      <trkpt lat="45.55446" lon="4.70668">
        <ele>288</ele>
        <time>2012-10-07T10:00:33Z</time>
      </trkpt>
      <trkpt lat="45.55449" lon="4.70666">
        <ele>287</ele>
        <time>2012-10-07T10:00:35Z</time>
      </trkpt>
      <trkpt lat="45.55451" lon="4.70665">
        <ele>287</ele>
        <time>2012-10-07T10:00:37Z</time>
      </trkpt>
      <trkpt lat="45.55453" lon="4.70663">
        <ele>287</ele>
        <time>2012-10-07T10:00:39Z</time>
      </trkpt>
      <trkpt lat="45.55455" lon="4.70661">
        <ele>286</ele>
        <time>2012-10-07T10:00:41Z</time>
      </trkpt>
      <trkpt lat="45.55457" lon="4.7066">
        <ele>286</ele>
        <time>2012-10-07T10:00:44Z</time>
      </trkpt>
      <trkpt lat="45.55459" lon="4.70658">
        <ele>286</ele>
        <time>2012-10-07T10:00:46Z</time>
      </trkpt>
      <trkpt lat="45.55461" lon="4.70656">
        <ele>286</ele>
        <time>2012-10-07T10:00:48Z</time>
      </trkpt>
      <trkpt lat="45.55463" lon="4.70654">
        <ele>285</ele>
        <time>2012-10-07T10:00:50Z</time>
      </trkpt>
      <trkpt lat="45.55465" lon="4.70653">
        <ele>285</ele>
        <time>2012-10-07T10:00:52Z</time>
      </trkpt>
      <trkpt lat="45.55468" lon="4.7065">
        <ele>285</ele>
        <time>2012-10-07T10:00:54Z</time>
      </trkpt>
      <trkpt lat="45.55471" lon="4.70648">
        <ele>285</ele>
        <time>2012-10-07T10:00:56Z</time>
      </trkpt>
      <trkpt lat="45.55473" lon="4.70647">
        <ele>285</ele>
        <time>2012-10-07T10:00:58Z</time>
      </trkpt>
      <trkpt lat="45.55475" lon="4.70645">
        <ele>284</ele>
        <time>2012-10-07T10:01:00Z</time>
      </trkpt>
      <trkpt lat="45.55477" lon="4.70644">
        <ele>284</ele>
        <time>2012-10-07T10:01:02Z</time>
      </trkpt>
      <trkpt lat="45.55479" lon="4.70643">
        <ele>284</ele>
        <time>2012-10-07T10:01:05Z</time>
      </trkpt>
      <trkpt lat="45.55481" lon="4.70641">
        <ele>284</ele>
        <time>2012-10-07T10:01:07Z</time>
      </trkpt>
      <trkpt lat="45.55483" lon="4.7064">
        <ele>284</ele>
        <time>2012-10-07T10:01:09Z</time>
      </trkpt>
      <trkpt lat="45.55486" lon="4.70638">
        <ele>284</ele>
        <time>2012-10-07T10:01:11Z</time>
      </trkpt>
      <trkpt lat="45.55487" lon="4.70637">
        <ele>283</ele>
        <time>2012-10-07T10:01:13Z</time>
      </trkpt>
      <trkpt lat="45.5549" lon="4.70635">
        <ele>283</ele>
        <time>2012-10-07T10:01:15Z</time>
      </trkpt>
      <trkpt lat="45.55492" lon="4.70633">
        <ele>283</ele>
        <time>2012-10-07T10:01:17Z</time>
      </trkpt>
      <trkpt lat="45.55494" lon="4.70632">
        <ele>283</ele>
        <time>2012-10-07T10:01:19Z</time>
      </trkpt>
      <trkpt lat="45.55498" lon="4.7063">
        <ele>283</ele>
        <time>2012-10-07T10:01:21Z</time>
      </trkpt>
      <trkpt lat="45.55501" lon="4.70629">
        <ele>283</ele>
        <time>2012-10-07T10:01:23Z</time>
      </trkpt>
      <trkpt lat="45.55503" lon="4.70628">
        <ele>282</ele>
        <time>2012-10-07T10:01:25Z</time>
      </trkpt>
      <trkpt lat="45.55505" lon="4.70626">
        <ele>282</ele>
        <time>2012-10-07T10:01:27Z</time>
      </trkpt>
      <trkpt lat="45.55507" lon="4.70625">
        <ele>282</ele>
        <time>2012-10-07T10:01:30Z</time>
      </trkpt>
      <trkpt lat="45.55509" lon="4.70624">
        <ele>282</ele>
        <time>2012-10-07T10:01:32Z</time>
      </trkpt>
      <trkpt lat="45.55512" lon="4.70623">
        <ele>282</ele>
        <time>2012-10-07T10:01:34Z</time>
      </trkpt>
      <trkpt lat="45.55514" lon="4.70622">
        <ele>282</ele>
        <time>2012-10-07T10:01:36Z</time>
      </trkpt>
      <trkpt lat="45.55516" lon="4.70621">
        <ele>281</ele>
        <time>2012-10-07T10:01:38Z</time>
      </trkpt>
      <trkpt lat="45.55518" lon="4.7062">
        <ele>281</ele>
        <time>2012-10-07T10:01:40Z</time>
      </trkpt>
      <trkpt lat="45.55521" lon="4.7062">
        <ele>281</ele>
        <time>2012-10-07T10:01:42Z</time>
      </trkpt>
      <trkpt lat="45.55523" lon="4.70618">
        <ele>281</ele>
        <time>2012-10-07T10:01:44Z</time>
      </trkpt>
      <trkpt lat="45.55525" lon="4.70617">
        <ele>281</ele>
        <time>2012-10-07T10:01:46Z</time>
      </trkpt>
      <trkpt lat="45.55527" lon="4.70616">
        <ele>281</ele>
        <time>2012-10-07T10:01:48Z</time>
      </trkpt>
      <trkpt lat="45.5553" lon="4.70616">
        <ele>281</ele>
        <time>2012-10-07T10:01:50Z</time>
      </trkpt>
      <trkpt lat="45.55532" lon="4.70615">
        <ele>281</ele>
        <time>2012-10-07T10:01:52Z</time>
      </trkpt>
      <trkpt lat="45.55534" lon="4.70614">
        <ele>281</ele>
        <time>2012-10-07T10:01:54Z</time>
      </trkpt>
      <trkpt lat="45.55536" lon="4.70613">
        <ele>281</ele>
        <time>2012-10-07T10:01:56Z</time>
      </trkpt>
      <trkpt lat="45.5554" lon="4.70613">
        <ele>281</ele>
        <time>2012-10-07T10:01:58Z</time>
      </trkpt>
      <trkpt lat="45.55543" lon="4.70613">
        <ele>280</ele>
        <time>2012-10-07T10:02:00Z</time>
      </trkpt>
      <trkpt lat="45.55545" lon="4.70612">
        <ele>280</ele>
        <time>2012-10-07T10:02:02Z</time>
      </trkpt>
      <trkpt lat="45.55548" lon="4.70612">
        <ele>280</ele>
        <time>2012-10-07T10:02:05Z</time>
      </trkpt>
      <trkpt lat="45.55551" lon="4.70611">
        <ele>280</ele>
        <time>2012-10-07T10:02:07Z</time>
      </trkpt>
      <trkpt lat="45.55554" lon="4.70611">
        <ele>280</ele>
        <time>2012-10-07T10:02:09Z</time>
      </trkpt>
      <trkpt lat="45.55556" lon="4.70611">
        <ele>280</ele>
        <time>2012-10-07T10:02:11Z</time>
      </trkpt>
      <trkpt lat="45.55558" lon="4.7061">
        <ele>280</ele>
        <time>2012-10-07T10:02:13Z</time>
      </trkpt>
      <trkpt lat="45.5556" lon="4.70609">
        <ele>280</ele>
        <time>2012-10-07T10:02:15Z</time>
      </trkpt>
      <trkpt lat="45.55564" lon="4.70608">
        <ele>280</ele>
        <time>2012-10-07T10:02:17Z</time>
      </trkpt>
      <trkpt lat="45.55566" lon="4.70606">
        <ele>280</ele>
        <time>2012-10-07T10:02:19Z</time>
      </trkpt>
      <trkpt lat="45.55568" lon="4.70605">
        <ele>280</ele>
        <time>2012-10-07T10:02:21Z</time>
      </trkpt>
      <trkpt lat="45.5557" lon="4.70604">
        <ele>280</ele>
        <time>2012-10-07T10:02:23Z</time>
      </trkpt>
      <trkpt lat="45.55573" lon="4.70603">
        <ele>279</ele>
        <time>2012-10-07T10:02:26Z</time>
      </trkpt>
      <trkpt lat="45.55575" lon="4.70601">
        <ele>279</ele>
        <time>2012-10-07T10:02:28Z</time>
      </trkpt>
      <trkpt lat="45.55578" lon="4.706">
        <ele>279</ele>
        <time>2012-10-07T10:02:30Z</time>
      </trkpt>
      <trkpt lat="45.5558" lon="4.70598">
        <ele>279</ele>
        <time>2012-10-07T10:02:32Z</time>
      </trkpt>
      <trkpt lat="45.55582" lon="4.70596">
        <ele>279</ele>
        <time>2012-10-07T10:02:34Z</time>
      </trkpt>
      <trkpt lat="45.55586" lon="4.70594">
        <ele>279</ele>
        <time>2012-10-07T10:02:36Z</time>
      </trkpt>
      <trkpt lat="45.55588" lon="4.70592">
        <ele>279</ele>
        <time>2012-10-07T10:02:39Z</time>
      </trkpt>
      <trkpt lat="45.5559" lon="4.70591">
        <ele>279</ele>
        <time>2012-10-07T10:02:41Z</time>
      </trkpt>
      <trkpt lat="45.55593" lon="4.7059">
        <ele>279</ele>
        <time>2012-10-07T10:02:43Z</time>
      </trkpt>
      <trkpt lat="45.55595" lon="4.70588">
        <ele>278</ele>
        <time>2012-10-07T10:02:45Z</time>
      </trkpt>
      <trkpt lat="45.55597" lon="4.70587">
        <ele>278</ele>
        <time>2012-10-07T10:02:47Z</time>
      </trkpt>
      <trkpt lat="45.556" lon="4.70585">
        <ele>278</ele>
        <time>2012-10-07T10:02:49Z</time>
      </trkpt>
      <trkpt lat="45.55603" lon="4.70583">
        <ele>278</ele>
        <time>2012-10-07T10:02:51Z</time>
      </trkpt>
      <trkpt lat="45.55605" lon="4.70582">
        <ele>278</ele>
        <time>2012-10-07T10:02:53Z</time>
      </trkpt>
      <trkpt lat="45.55608" lon="4.7058">
        <ele>278</ele>
        <time>2012-10-07T10:02:56Z</time>
      </trkpt>
      <trkpt lat="45.55609" lon="4.70579">
        <ele>278</ele>
        <time>2012-10-07T10:02:58Z</time>
      </trkpt>
      <trkpt lat="45.55611" lon="4.70578">
        <ele>278</ele>
        <time>2012-10-07T10:03:00Z</time>
      </trkpt>
      <trkpt lat="45.55613" lon="4.70576">
        <ele>278</ele>
        <time>2012-10-07T10:03:02Z</time>
      </trkpt>
      <trkpt lat="45.55614" lon="4.70575">
        <ele>278</ele>
        <time>2012-10-07T10:03:04Z</time>
      </trkpt>
      <trkpt lat="45.55616" lon="4.70573">
        <ele>278</ele>
        <time>2012-10-07T10:03:06Z</time>
      </trkpt>
      <trkpt lat="45.55618" lon="4.70572">
        <ele>277</ele>
        <time>2012-10-07T10:03:08Z</time>
      </trkpt>
      <trkpt lat="45.5562" lon="4.70571">
        <ele>277</ele>
        <time>2012-10-07T10:03:10Z</time>
      </trkpt>
      <trkpt lat="45.55622" lon="4.70569">
        <ele>277</ele>
        <time>2012-10-07T10:03:12Z</time>
      </trkpt>
      <trkpt lat="45.55625" lon="4.70567">
        <ele>277</ele>
        <time>2012-10-07T10:03:14Z</time>
      </trkpt>
      <trkpt lat="45.55627" lon="4.70565">
        <ele>277</ele>
        <time>2012-10-07T10:03:16Z</time>
      </trkpt>
      <trkpt lat="45.55629" lon="4.70562">
        <ele>277</ele>
        <time>2012-10-07T10:03:18Z</time>
      </trkpt>
      <trkpt lat="45.5563" lon="4.70559">
        <ele>277</ele>
        <time>2012-10-07T10:03:21Z</time>
      </trkpt>
      <trkpt lat="45.55632" lon="4.70557">
        <ele>277</ele>
        <time>2012-10-07T10:03:23Z</time>
      </trkpt>
      <trkpt lat="45.55634" lon="4.70554">
        <ele>277</ele>
        <time>2012-10-07T10:03:25Z</time>
      </trkpt>
      <trkpt lat="45.55635" lon="4.70552">
        <ele>276</ele>
        <time>2012-10-07T10:03:27Z</time>
      </trkpt>
      <trkpt lat="45.55637" lon="4.70549">
        <ele>276</ele>
        <time>2012-10-07T10:03:29Z</time>
      </trkpt>
      <trkpt lat="45.55639" lon="4.70545">
        <ele>277</ele>
        <time>2012-10-07T10:03:31Z</time>
      </trkpt>
      <trkpt lat="45.55641" lon="4.70542">
        <ele>277</ele>
        <time>2012-10-07T10:03:33Z</time>
      </trkpt>
      <trkpt lat="45.55642" lon="4.70539">
        <ele>277</ele>
        <time>2012-10-07T10:03:35Z</time>
      </trkpt>
      <trkpt lat="45.55644" lon="4.70536">
        <ele>277</ele>
        <time>2012-10-07T10:03:38Z</time>
      </trkpt>
      <trkpt lat="45.55645" lon="4.70534">
        <ele>277</ele>
        <time>2012-10-07T10:03:40Z</time>
      </trkpt>
      <trkpt lat="45.55647" lon="4.70531">
        <ele>276</ele>
        <time>2012-10-07T10:03:42Z</time>
      </trkpt>
      <trkpt lat="45.55649" lon="4.70528">
        <ele>276</ele>
        <time>2012-10-07T10:03:44Z</time>
      </trkpt>
      <trkpt lat="45.5565" lon="4.70526">
        <ele>276</ele>
        <time>2012-10-07T10:03:46Z</time>
      </trkpt>
      <trkpt lat="45.55651" lon="4.70523">
        <ele>276</ele>
        <time>2012-10-07T10:03:48Z</time>
      </trkpt>
      <trkpt lat="45.55653" lon="4.7052">
        <ele>276</ele>
        <time>2012-10-07T10:03:50Z</time>
      </trkpt>
      <trkpt lat="45.55654" lon="4.70516">
        <ele>276</ele>
        <time>2012-10-07T10:03:52Z</time>
      </trkpt>
      <trkpt lat="45.55655" lon="4.70514">
        <ele>276</ele>
        <time>2012-10-07T10:03:54Z</time>
      </trkpt>
      <trkpt lat="45.55656" lon="4.70511">
        <ele>276</ele>
        <time>2012-10-07T10:03:56Z</time>
      </trkpt>
      <trkpt lat="45.55658" lon="4.70508">
        <ele>275</ele>
        <time>2012-10-07T10:03:58Z</time>
      </trkpt>
      <trkpt lat="45.55658" lon="4.70505">
        <ele>275</ele>
        <time>2012-10-07T10:04:00Z</time>
      </trkpt>
      <trkpt lat="45.55659" lon="4.70503">
        <ele>275</ele>
        <time>2012-10-07T10:04:02Z</time>
      </trkpt>
      <trkpt lat="45.55661" lon="4.705">
        <ele>275</ele>
        <time>2012-10-07T10:04:05Z</time>
      </trkpt>
      <trkpt lat="45.55662" lon="4.70497">
        <ele>275</ele>
        <time>2012-10-07T10:04:07Z</time>
      </trkpt>
      <trkpt lat="45.55664" lon="4.70495">
        <ele>275</ele>
        <time>2012-10-07T10:04:09Z</time>
      </trkpt>
      <trkpt lat="45.55665" lon="4.70492">
        <ele>275</ele>
        <time>2012-10-07T10:04:11Z</time>
      </trkpt>
      <trkpt lat="45.55666" lon="4.7049">
        <ele>275</ele>
        <time>2012-10-07T10:04:13Z</time>
      </trkpt>
      <trkpt lat="45.55668" lon="4.70487">
        <ele>275</ele>
        <time>2012-10-07T10:04:15Z</time>
      </trkpt>
      <trkpt lat="45.55669" lon="4.70484">
        <ele>275</ele>
        <time>2012-10-07T10:04:17Z</time>
      </trkpt>
      <trkpt lat="45.55671" lon="4.70482">
        <ele>275</ele>
        <time>2012-10-07T10:04:19Z</time>
      </trkpt>
      <trkpt lat="45.55671" lon="4.70479">
        <ele>275</ele>
        <time>2012-10-07T10:04:21Z</time>
      </trkpt>
      <trkpt lat="45.55673" lon="4.70474">
        <ele>275</ele>
        <time>2012-10-07T10:04:23Z</time>
      </trkpt>
      <trkpt lat="45.55674" lon="4.70471">
        <ele>275</ele>
        <time>2012-10-07T10:04:25Z</time>
      </trkpt>
      <trkpt lat="45.55675" lon="4.7047">
        <ele>275</ele>
        <time>2012-10-07T10:04:27Z</time>
      </trkpt>
      <trkpt lat="45.55676" lon="4.70468">
        <ele>274</ele>
        <time>2012-10-07T10:04:29Z</time>
      </trkpt>
      <trkpt lat="45.55677" lon="4.70465">
        <ele>274</ele>
        <time>2012-10-07T10:04:32Z</time>
      </trkpt>
      <trkpt lat="45.55676" lon="4.70463">
        <ele>274</ele>
        <time>2012-10-07T10:04:34Z</time>
      </trkpt>
      <trkpt lat="45.55676" lon="4.7046">
        <ele>274</ele>
        <time>2012-10-07T10:04:36Z</time>
      </trkpt>
      <trkpt lat="45.55677" lon="4.70457">
        <ele>274</ele>
        <time>2012-10-07T10:04:38Z</time>
      </trkpt>
      <trkpt lat="45.55678" lon="4.70454">
        <ele>275</ele>
        <time>2012-10-07T10:04:40Z</time>
      </trkpt>
      <trkpt lat="45.55679" lon="4.70451">
        <ele>274</ele>
        <time>2012-10-07T10:04:42Z</time>
      </trkpt>
      <trkpt lat="45.55679" lon="4.70448">
        <ele>274</ele>
        <time>2012-10-07T10:04:44Z</time>
      </trkpt>
      <trkpt lat="45.5568" lon="4.70445">
        <ele>274</ele>
        <time>2012-10-07T10:04:46Z</time>
      </trkpt>
      <trkpt lat="45.5568" lon="4.70441">
        <ele>274</ele>
        <time>2012-10-07T10:04:48Z</time>
      </trkpt>
      <trkpt lat="45.55681" lon="4.70439">
        <ele>274</ele>
        <time>2012-10-07T10:04:50Z</time>
      </trkpt>
      <trkpt lat="45.55682" lon="4.70434">
        <ele>274</ele>
        <time>2012-10-07T10:04:52Z</time>
      </trkpt>
      <trkpt lat="45.55682" lon="4.70431">
        <ele>274</ele>
        <time>2012-10-07T10:04:55Z</time>
      </trkpt>
      <trkpt lat="45.55682" lon="4.70428">
        <ele>274</ele>
        <time>2012-10-07T10:04:57Z</time>
      </trkpt>
      <trkpt lat="45.55683" lon="4.70425">
        <ele>274</ele>
        <time>2012-10-07T10:04:59Z</time>
      </trkpt>
      <trkpt lat="45.55683" lon="4.70422">
        <ele>274</ele>
        <time>2012-10-07T10:05:01Z</time>
      </trkpt>
      <trkpt lat="45.55684" lon="4.70418">
        <ele>274</ele>
        <time>2012-10-07T10:05:03Z</time>
      </trkpt>
      <trkpt lat="45.55684" lon="4.70415">
        <ele>274</ele>
        <time>2012-10-07T10:05:05Z</time>
      </trkpt>
      <trkpt lat="45.55684" lon="4.70413">
        <ele>274</ele>
        <time>2012-10-07T10:05:07Z</time>
      </trkpt>
      <trkpt lat="45.55684" lon="4.70408">
        <ele>273</ele>
        <time>2012-10-07T10:05:09Z</time>
      </trkpt>
      <trkpt lat="45.55684" lon="4.70406">
        <ele>273</ele>
        <time>2012-10-07T10:05:12Z</time>
      </trkpt>
      <trkpt lat="45.55684" lon="4.70402">
        <ele>273</ele>
        <time>2012-10-07T10:05:14Z</time>
      </trkpt>
      <trkpt lat="45.55684" lon="4.704">
        <ele>273</ele>
        <time>2012-10-07T10:05:16Z</time>
      </trkpt>
      <trkpt lat="45.55684" lon="4.70397">
        <ele>273</ele>
        <time>2012-10-07T10:05:18Z</time>
      </trkpt>
      <trkpt lat="45.55684" lon="4.70394">
        <ele>272</ele>
        <time>2012-10-07T10:05:20Z</time>
      </trkpt>
      <trkpt lat="45.55684" lon="4.70391">
        <ele>272</ele>
        <time>2012-10-07T10:05:22Z</time>
      </trkpt>
      <trkpt lat="45.55684" lon="4.70387">
        <ele>272</ele>
        <time>2012-10-07T10:05:24Z</time>
      </trkpt>
      <trkpt lat="45.55684" lon="4.70384">
        <ele>272</ele>
        <time>2012-10-07T10:05:26Z</time>
      </trkpt>
      <trkpt lat="45.55685" lon="4.70381">
        <ele>271</ele>
        <time>2012-10-07T10:05:28Z</time>
      </trkpt>
      <trkpt lat="45.55685" lon="4.70378">
        <ele>271</ele>
        <time>2012-10-07T10:05:30Z</time>
      </trkpt>
      <trkpt lat="45.55685" lon="4.70375">
        <ele>271</ele>
        <time>2012-10-07T10:05:32Z</time>
      </trkpt>
      <trkpt lat="45.55685" lon="4.70373">
        <ele>271</ele>
        <time>2012-10-07T10:05:34Z</time>
      </trkpt>
      <trkpt lat="45.55686" lon="4.70371">
        <ele>271</ele>
        <time>2012-10-07T10:05:37Z</time>
      </trkpt>
      <trkpt lat="45.55686" lon="4.70367">
        <ele>271</ele>
        <time>2012-10-07T10:05:39Z</time>
      </trkpt>
      <trkpt lat="45.55687" lon="4.70364">
        <ele>271</ele>
        <time>2012-10-07T10:05:41Z</time>
      </trkpt>
      <trkpt lat="45.55687" lon="4.70362">
        <ele>271</ele>
        <time>2012-10-07T10:05:43Z</time>
      </trkpt>
      <trkpt lat="45.55687" lon="4.70359">
        <ele>271</ele>
        <time>2012-10-07T10:05:45Z</time>
      </trkpt>
      <trkpt lat="45.55687" lon="4.70356">
        <ele>271</ele>
        <time>2012-10-07T10:05:47Z</time>
      </trkpt>
      <trkpt lat="45.55687" lon="4.70353">
        <ele>270</ele>
        <time>2012-10-07T10:05:49Z</time>
      </trkpt>
      <trkpt lat="45.55687" lon="4.7035">
        <ele>270</ele>
        <time>2012-10-07T10:05:51Z</time>
      </trkpt>
      <trkpt lat="45.55687" lon="4.70345">
        <ele>270</ele>
        <time>2012-10-07T10:05:53Z</time>
      </trkpt>
      <trkpt lat="45.55687" lon="4.70341">
        <ele>270</ele>
        <time>2012-10-07T10:05:55Z</time>
      </trkpt>
      <trkpt lat="45.55688" lon="4.70338">
        <ele>270</ele>
        <time>2012-10-07T10:05:57Z</time>
      </trkpt>
      <trkpt lat="45.55688" lon="4.70335">
        <ele>270</ele>
        <time>2012-10-07T10:05:59Z</time>
      </trkpt>
      <trkpt lat="45.55689" lon="4.70331">
        <ele>270</ele>
        <time>2012-10-07T10:06:01Z</time>
      </trkpt>
      <trkpt lat="45.55689" lon="4.70329">
        <ele>270</ele>
        <time>2012-10-07T10:06:04Z</time>
      </trkpt>
      <trkpt lat="45.55689" lon="4.70326">
        <ele>270</ele>
        <time>2012-10-07T10:06:06Z</time>
      </trkpt>
      <trkpt lat="45.55688" lon="4.70324">
        <ele>269</ele>
        <time>2012-10-07T10:06:08Z</time>
      </trkpt>
      <trkpt lat="45.55689" lon="4.70321">
        <ele>269</ele>
        <time>2012-10-07T10:06:10Z</time>
      </trkpt>
      <trkpt lat="45.55689" lon="4.70318">
        <ele>269</ele>
        <time>2012-10-07T10:06:12Z</time>
      </trkpt>
      <trkpt lat="45.55688" lon="4.70315">
        <ele>269</ele>
        <time>2012-10-07T10:06:14Z</time>
      </trkpt>
      <trkpt lat="45.55688" lon="4.70312">
        <ele>269</ele>
        <time>2012-10-07T10:06:16Z</time>
      </trkpt>
      <trkpt lat="45.55689" lon="4.70309">
        <ele>268</ele>
        <time>2012-10-07T10:06:18Z</time>
      </trkpt>
      <trkpt lat="45.55689" lon="4.70306">
        <ele>268</ele>
        <time>2012-10-07T10:06:20Z</time>
      </trkpt>
      <trkpt lat="45.55689" lon="4.70302">
        <ele>268</ele>
        <time>2012-10-07T10:06:22Z</time>
      </trkpt>
      <trkpt lat="45.5569" lon="4.70299">
        <ele>267</ele>
        <time>2012-10-07T10:06:24Z</time>
      </trkpt>
      <trkpt lat="45.5569" lon="4.70296">
        <ele>267</ele>
        <time>2012-10-07T10:06:26Z</time>
      </trkpt>
      <trkpt lat="45.55691" lon="4.70294">
        <ele>267</ele>
        <time>2012-10-07T10:06:28Z</time>
      </trkpt>
      <trkpt lat="45.55692" lon="4.70291">
        <ele>266</ele>
        <time>2012-10-07T10:06:30Z</time>
      </trkpt>
      <trkpt lat="45.55691" lon="4.70288">
        <ele>266</ele>
        <time>2012-10-07T10:06:32Z</time>
      </trkpt>
      <trkpt lat="45.55692" lon="4.70287">
        <ele>266</ele>
        <time>2012-10-07T10:06:35Z</time>
      </trkpt>
      <trkpt lat="45.55692" lon="4.70285">
        <ele>266</ele>
        <time>2012-10-07T10:06:37Z</time>
      </trkpt>
      <trkpt lat="45.55693" lon="4.70283">
        <ele>265</ele>
        <time>2012-10-07T10:06:39Z</time>
      </trkpt>
      <trkpt lat="45.55693" lon="4.70281">
        <ele>265</ele>
        <time>2012-10-07T10:06:41Z</time>
      </trkpt>
      <trkpt lat="45.55693" lon="4.70278">
        <ele>265</ele>
        <time>2012-10-07T10:06:43Z</time>
      </trkpt>
      <trkpt lat="45.55693" lon="4.70275">
        <ele>264</ele>
        <time>2012-10-07T10:06:45Z</time>
      </trkpt>
      <trkpt lat="45.55693" lon="4.70271">
        <ele>264</ele>
        <time>2012-10-07T10:06:47Z</time>
      </trkpt>
      <trkpt lat="45.55693" lon="4.70268">
        <ele>263</ele>
        <time>2012-10-07T10:06:49Z</time>
      </trkpt>
      <trkpt lat="45.55693" lon="4.70265">
        <ele>263</ele>
        <time>2012-10-07T10:06:51Z</time>
      </trkpt>
      <trkpt lat="45.55693" lon="4.70263">
        <ele>263</ele>
        <time>2012-10-07T10:06:53Z</time>
      </trkpt>
      <trkpt lat="45.55693" lon="4.70261">
        <ele>263</ele>
        <time>2012-10-07T10:06:56Z</time>
      </trkpt>
      <trkpt lat="45.55693" lon="4.70259">
        <ele>263</ele>
        <time>2012-10-07T10:06:58Z</time>
      </trkpt>
      <trkpt lat="45.55693" lon="4.70256">
        <ele>262</ele>
        <time>2012-10-07T10:07:00Z</time>
      </trkpt>
      <trkpt lat="45.55693" lon="4.70253">
        <ele>262</ele>
        <time>2012-10-07T10:07:02Z</time>
      </trkpt>
      <trkpt lat="45.55693" lon="4.7025">
        <ele>262</ele>
        <time>2012-10-07T10:07:04Z</time>
      </trkpt>
      <trkpt lat="45.55692" lon="4.70247">
        <ele>262</ele>
        <time>2012-10-07T10:07:06Z</time>
      </trkpt>
      <trkpt lat="45.55692" lon="4.70241">
        <ele>261</ele>
        <time>2012-10-07T10:07:08Z</time>
      </trkpt>
      <trkpt lat="45.55692" lon="4.70238">
        <ele>261</ele>
        <time>2012-10-07T10:07:11Z</time>
      </trkpt>
      <trkpt lat="45.55692" lon="4.70236">
        <ele>261</ele>
        <time>2012-10-07T10:07:13Z</time>
      </trkpt>
      <trkpt lat="45.55693" lon="4.70232">
        <ele>260</ele>
        <time>2012-10-07T10:07:15Z</time>
      </trkpt>
      <trkpt lat="45.55693" lon="4.70229">
        <ele>260</ele>
        <time>2012-10-07T10:07:17Z</time>
      </trkpt>
      <trkpt lat="45.55694" lon="4.70225">
        <ele>261</ele>
        <time>2012-10-07T10:07:19Z</time>
      </trkpt>
      <trkpt lat="45.55694" lon="4.70222">
        <ele>260</ele>
        <time>2012-10-07T10:07:22Z</time>
      </trkpt>
      <trkpt lat="45.55694" lon="4.70218">
        <ele>260</ele>
        <time>2012-10-07T10:07:24Z</time>
      </trkpt>
      <trkpt lat="45.55694" lon="4.70215">
        <ele>260</ele>
        <time>2012-10-07T10:07:26Z</time>
      </trkpt>
      <trkpt lat="45.55694" lon="4.70211">
        <ele>259</ele>
        <time>2012-10-07T10:07:28Z</time>
      </trkpt>
      <trkpt lat="45.55694" lon="4.70208">
        <ele>259</ele>
        <time>2012-10-07T10:07:30Z</time>
      </trkpt>
      <trkpt lat="45.55695" lon="4.70202">
        <ele>259</ele>
        <time>2012-10-07T10:07:32Z</time>
      </trkpt>
      <trkpt lat="45.55695" lon="4.70198">
        <ele>258</ele>
        <time>2012-10-07T10:07:34Z</time>
      </trkpt>
      <trkpt lat="45.55695" lon="4.70195">
        <ele>258</ele>
        <time>2012-10-07T10:07:37Z</time>
      </trkpt>
      <trkpt lat="45.55694" lon="4.70191">
        <ele>258</ele>
        <time>2012-10-07T10:07:39Z</time>
      </trkpt>
      <trkpt lat="45.55694" lon="4.70187">
        <ele>258</ele>
        <time>2012-10-07T10:07:41Z</time>
      </trkpt>
      <trkpt lat="45.55695" lon="4.70184">
        <ele>258</ele>
        <time>2012-10-07T10:07:43Z</time>
      </trkpt>
      <trkpt lat="45.55695" lon="4.70181">
        <ele>258</ele>
        <time>2012-10-07T10:07:45Z</time>
      </trkpt>
      <trkpt lat="45.55695" lon="4.70176">
        <ele>258</ele>
        <time>2012-10-07T10:07:47Z</time>
      </trkpt>
      <trkpt lat="45.55695" lon="4.70172">
        <ele>258</ele>
        <time>2012-10-07T10:07:49Z</time>
      </trkpt>
      <trkpt lat="45.55695" lon="4.70168">
        <ele>258</ele>
        <time>2012-10-07T10:07:51Z</time>
      </trkpt>
      <trkpt lat="45.55696" lon="4.70165">
        <ele>258</ele>
        <time>2012-10-07T10:07:54Z</time>
      </trkpt>
      <trkpt lat="45.55698" lon="4.70162">
        <ele>258</ele>
        <time>2012-10-07T10:07:56Z</time>
      </trkpt>
      <trkpt lat="45.55699" lon="4.7016">
        <ele>258</ele>
        <time>2012-10-07T10:07:58Z</time>
      </trkpt>
      <trkpt lat="45.55701" lon="4.70158">
        <ele>257</ele>
        <time>2012-10-07T10:08:00Z</time>
      </trkpt>
      <trkpt lat="45.55702" lon="4.70155">
        <ele>257</ele>
        <time>2012-10-07T10:08:02Z</time>
      </trkpt>
      <trkpt lat="45.55703" lon="4.70152">
        <ele>257</ele>
        <time>2012-10-07T10:08:04Z</time>
      </trkpt>
      <trkpt lat="45.55704" lon="4.70149">
        <ele>257</ele>
        <time>2012-10-07T10:08:06Z</time>
      </trkpt>
      <trkpt lat="45.55705" lon="4.70146">
        <ele>257</ele>
        <time>2012-10-07T10:08:08Z</time>
      </trkpt>
      <trkpt lat="45.55706" lon="4.70143">
        <ele>257</ele>
        <time>2012-10-07T10:08:10Z</time>
      </trkpt>
      <trkpt lat="45.55708" lon="4.7014">
        <ele>256</ele>
        <time>2012-10-07T10:08:12Z</time>
      </trkpt>
      <trkpt lat="45.5571" lon="4.70137">
        <ele>256</ele>
        <time>2012-10-07T10:08:14Z</time>
      </trkpt>
      <trkpt lat="45.55711" lon="4.70133">
        <ele>256</ele>
        <time>2012-10-07T10:08:16Z</time>
      </trkpt>
      <trkpt lat="45.55711" lon="4.7013">
        <ele>256</ele>
        <time>2012-10-07T10:08:18Z</time>
      </trkpt>
      <trkpt lat="45.55713" lon="4.70128">
        <ele>256</ele>
        <time>2012-10-07T10:08:20Z</time>
      </trkpt>
      <trkpt lat="45.55713" lon="4.70126">
        <ele>255</ele>
        <time>2012-10-07T10:08:22Z</time>
      </trkpt>
      <trkpt lat="45.55714" lon="4.70123">
        <ele>255</ele>
        <time>2012-10-07T10:08:24Z</time>
      </trkpt>
      <trkpt lat="45.55714" lon="4.70121">
        <ele>254</ele>
        <time>2012-10-07T10:08:27Z</time>
      </trkpt>
      <trkpt lat="45.55715" lon="4.70119">
        <ele>254</ele>
        <time>2012-10-07T10:08:29Z</time>
      </trkpt>
      <trkpt lat="45.55716" lon="4.70116">
        <ele>253</ele>
        <time>2012-10-07T10:08:31Z</time>
      </trkpt>
      <trkpt lat="45.55716" lon="4.70114">
        <ele>253</ele>
        <time>2012-10-07T10:08:33Z</time>
      </trkpt>
      <trkpt lat="45.55717" lon="4.70112">
        <ele>253</ele>
        <time>2012-10-07T10:08:35Z</time>
      </trkpt>
      <trkpt lat="45.55718" lon="4.70109">
        <ele>253</ele>
        <time>2012-10-07T10:08:37Z</time>
      </trkpt>
      <trkpt lat="45.55719" lon="4.70107">
        <ele>253</ele>
        <time>2012-10-07T10:08:39Z</time>
      </trkpt>
      <trkpt lat="45.55719" lon="4.70106">
        <ele>253</ele>
        <time>2012-10-07T10:08:41Z</time>
      </trkpt>
      <trkpt lat="45.55719" lon="4.70104">
        <ele>252</ele>
        <time>2012-10-07T10:08:43Z</time>
      </trkpt>
      <trkpt lat="45.5572" lon="4.70101">
        <ele>252</ele>
        <time>2012-10-07T10:08:45Z</time>
      </trkpt>
      <trkpt lat="45.55722" lon="4.70098">
        <ele>252</ele>
        <time>2012-10-07T10:08:47Z</time>
      </trkpt>
      <trkpt lat="45.55722" lon="4.70095">
        <ele>252</ele>
        <time>2012-10-07T10:08:49Z</time>
      </trkpt>
      <trkpt lat="45.55724" lon="4.70092">
        <ele>251</ele>
        <time>2012-10-07T10:08:51Z</time>
      </trkpt>
      <trkpt lat="45.55725" lon="4.7009">
        <ele>251</ele>
        <time>2012-10-07T10:08:53Z</time>
      </trkpt>
      <trkpt lat="45.55726" lon="4.70087">
        <ele>251</ele>
        <time>2012-10-07T10:08:55Z</time>
      </trkpt>
      <trkpt lat="45.55727" lon="4.70084">
        <ele>251</ele>
        <time>2012-10-07T10:08:57Z</time>
      </trkpt>
      <trkpt lat="45.55728" lon="4.70082">
        <ele>250</ele>
        <time>2012-10-07T10:09:00Z</time>
      </trkpt>
      <trkpt lat="45.55729" lon="4.7008">
        <ele>250</ele>
        <time>2012-10-07T10:09:02Z</time>
      </trkpt>
      <trkpt lat="45.55729" lon="4.70078">
        <ele>250</ele>
        <time>2012-10-07T10:09:04Z</time>
      </trkpt>
      <trkpt lat="45.5573" lon="4.70075">
        <ele>250</ele>
        <time>2012-10-07T10:09:06Z</time>
      </trkpt>
      <trkpt lat="45.55731" lon="4.70073">
        <ele>250</ele>
        <time>2012-10-07T10:09:08Z</time>
      </trkpt>
      <trkpt lat="45.55733" lon="4.7007">
        <ele>250</ele>
        <time>2012-10-07T10:09:10Z</time>
      </trkpt>
      <trkpt lat="45.55733" lon="4.70068">
        <ele>249</ele>
        <time>2012-10-07T10:09:12Z</time>
      </trkpt>
      <trkpt lat="45.55735" lon="4.70064">
        <ele>249</ele>
        <time>2012-10-07T10:09:14Z</time>
      </trkpt>
      <trkpt lat="45.55737" lon="4.7006">
        <ele>249</ele>
        <time>2012-10-07T10:09:16Z</time>
      </trkpt>
      <trkpt lat="45.55738" lon="4.70057">
        <ele>249</ele>
        <time>2012-10-07T10:09:18Z</time>
      </trkpt>
      <trkpt lat="45.55739" lon="4.70054">
        <ele>248</ele>
        <time>2012-10-07T10:09:20Z</time>
      </trkpt>
      <trkpt lat="45.5574" lon="4.70052">
        <ele>248</ele>
        <time>2012-10-07T10:09:22Z</time>
      </trkpt>
      <trkpt lat="45.5574" lon="4.7005">
        <ele>248</ele>
        <time>2012-10-07T10:09:24Z</time>
      </trkpt>
      <trkpt lat="45.55741" lon="4.70047">
        <ele>248</ele>
        <time>2012-10-07T10:09:26Z</time>
      </trkpt>
      <trkpt lat="45.55742" lon="4.70045">
        <ele>247</ele>
        <time>2012-10-07T10:09:28Z</time>
      </trkpt>
      <trkpt lat="45.55743" lon="4.70043">
        <ele>247</ele>
        <time>2012-10-07T10:09:30Z</time>
      </trkpt>
      <trkpt lat="45.55744" lon="4.70041">
        <ele>246</ele>
        <time>2012-10-07T10:09:33Z</time>
      </trkpt>
      <trkpt lat="45.55745" lon="4.70038">
        <ele>246</ele>
        <time>2012-10-07T10:09:35Z</time>
      </trkpt>
      <trkpt lat="45.55747" lon="4.70036">
        <ele>246</ele>
        <time>2012-10-07T10:09:37Z</time>
      </trkpt>
      <trkpt lat="45.55749" lon="4.70034">
        <ele>246</ele>
        <time>2012-10-07T10:09:39Z</time>
      </trkpt>
      <trkpt lat="45.55751" lon="4.70031">
        <ele>245</ele>
        <time>2012-10-07T10:09:41Z</time>
      </trkpt>
      <trkpt lat="45.55752" lon="4.70027">
        <ele>245</ele>
        <time>2012-10-07T10:09:43Z</time>
      </trkpt>
      <trkpt lat="45.55753" lon="4.70025">
        <ele>244</ele>
        <time>2012-10-07T10:09:45Z</time>
      </trkpt>
      <trkpt lat="45.55753" lon="4.70022">
        <ele>244</ele>
        <time>2012-10-07T10:09:48Z</time>
      </trkpt>
      <trkpt lat="45.55753" lon="4.7002">
        <ele>244</ele>
        <time>2012-10-07T10:09:50Z</time>
      </trkpt>
      <trkpt lat="45.55754" lon="4.70017">
        <ele>243</ele>
        <time>2012-10-07T10:09:52Z</time>
      </trkpt>
      <trkpt lat="45.55756" lon="4.70014">
        <ele>243</ele>
        <time>2012-10-07T10:09:54Z</time>
      </trkpt>
      <trkpt lat="45.55757" lon="4.70012">
        <ele>243</ele>
        <time>2012-10-07T10:09:56Z</time>
      </trkpt>
      <trkpt lat="45.55757" lon="4.7001">
        <ele>242</ele>
        <time>2012-10-07T10:09:58Z</time>
      </trkpt>
      <trkpt lat="45.55757" lon="4.70008">
        <ele>242</ele>
        <time>2012-10-07T10:10:00Z</time>
      </trkpt>
      <trkpt lat="45.55758" lon="4.70006">
        <ele>242</ele>
        <time>2012-10-07T10:10:02Z</time>
      </trkpt>
      <trkpt lat="45.55758" lon="4.70003">
        <ele>242</ele>
        <time>2012-10-07T10:10:04Z</time>
      </trkpt>
      <trkpt lat="45.55758" lon="4.70001">
        <ele>242</ele>
        <time>2012-10-07T10:10:06Z</time>
      </trkpt>
      <trkpt lat="45.55758" lon="4.69999">
        <ele>241</ele>
        <time>2012-10-07T10:10:08Z</time>
      </trkpt>
      <trkpt lat="45.55757" lon="4.69997">
        <ele>241</ele>
        <time>2012-10-07T10:10:10Z</time>
      </trkpt>
      <trkpt lat="45.55757" lon="4.69994">
        <ele>241</ele>
        <time>2012-10-07T10:10:12Z</time>
      </trkpt>
      <trkpt lat="45.55758" lon="4.69993">
        <ele>240</ele>
        <time>2012-10-07T10:10:15Z</time>
      </trkpt>
      <trkpt lat="45.55758" lon="4.69991">
        <ele>240</ele>
        <time>2012-10-07T10:10:17Z</time>
      </trkpt>
      <trkpt lat="45.55759" lon="4.6999">
        <ele>239</ele>
        <time>2012-10-07T10:10:19Z</time>
      </trkpt>
      <trkpt lat="45.5576" lon="4.69988">
        <ele>239</ele>
        <time>2012-10-07T10:10:21Z</time>
      </trkpt>
      <trkpt lat="45.55761" lon="4.69984">
        <ele>238</ele>
        <time>2012-10-07T10:10:23Z</time>
      </trkpt>
      <trkpt lat="45.55762" lon="4.69981">
        <ele>238</ele>
        <time>2012-10-07T10:10:25Z</time>
      </trkpt>
      <trkpt lat="45.55763" lon="4.69979">
        <ele>237</ele>
        <time>2012-10-07T10:10:27Z</time>
      </trkpt>
      <trkpt lat="45.55764" lon="4.69976">
        <ele>237</ele>
        <time>2012-10-07T10:10:30Z</time>
      </trkpt>
      <trkpt lat="45.55764" lon="4.69973">
        <ele>237</ele>
        <time>2012-10-07T10:10:32Z</time>
      </trkpt>
      <trkpt lat="45.55765" lon="4.69971">
        <ele>237</ele>
        <time>2012-10-07T10:10:34Z</time>
      </trkpt>
      <trkpt lat="45.55766" lon="4.69969">
        <ele>237</ele>
        <time>2012-10-07T10:10:36Z</time>
      </trkpt>
      <trkpt lat="45.55767" lon="4.69967">
        <ele>236</ele>
        <time>2012-10-07T10:10:38Z</time>
      </trkpt>
      <trkpt lat="45.55767" lon="4.69964">
        <ele>236</ele>
        <time>2012-10-07T10:10:40Z</time>
      </trkpt>
      <trkpt lat="45.55768" lon="4.69962">
        <ele>236</ele>
        <time>2012-10-07T10:10:42Z</time>
      </trkpt>
      <trkpt lat="45.55768" lon="4.6996">
        <ele>236</ele>
        <time>2012-10-07T10:10:44Z</time>
      </trkpt>
      <trkpt lat="45.55769" lon="4.69958">
        <ele>236</ele>
        <time>2012-10-07T10:10:46Z</time>
      </trkpt>
      <trkpt lat="45.5577" lon="4.69956">
        <ele>235</ele>
        <time>2012-10-07T10:10:48Z</time>
      </trkpt>
      <trkpt lat="45.5577" lon="4.69954">
        <ele>235</ele>
        <time>2012-10-07T10:10:50Z</time>
      </trkpt>
      <trkpt lat="45.55769" lon="4.69952">
        <ele>234</ele>
        <time>2012-10-07T10:10:52Z</time>
      </trkpt>
      <trkpt lat="45.55769" lon="4.69949">
        <ele>234</ele>
        <time>2012-10-07T10:10:54Z</time>
      </trkpt>
      <trkpt lat="45.55769" lon="4.69946">
        <ele>234</ele>
        <time>2012-10-07T10:10:56Z</time>
      </trkpt>
      <trkpt lat="45.55768" lon="4.69943">
        <ele>234</ele>
        <time>2012-10-07T10:10:58Z</time>
      </trkpt>
      <trkpt lat="45.55768" lon="4.69941">
        <ele>234</ele>
        <time>2012-10-07T10:11:01Z</time>
      </trkpt>
      <trkpt lat="45.55767" lon="4.69938">
        <ele>234</ele>
        <time>2012-10-07T10:11:03Z</time>
      </trkpt>
      <trkpt lat="45.55767" lon="4.69935">
        <ele>234</ele>
        <time>2012-10-07T10:11:05Z</time>
      </trkpt>
      <trkpt lat="45.55767" lon="4.69934">
        <ele>233</ele>
        <time>2012-10-07T10:11:07Z</time>
      </trkpt>
      <trkpt lat="45.55767" lon="4.69931">
        <ele>233</ele>
        <time>2012-10-07T10:11:09Z</time>
      </trkpt>
      <trkpt lat="45.55767" lon="4.69931">
        <ele>232</ele>
        <time>2012-10-07T10:11:11Z</time>
      </trkpt>
      <trkpt lat="45.55767" lon="4.69931">
        <ele>232</ele>
        <time>2012-10-07T10:11:13Z</time>
      </trkpt>
      <trkpt lat="45.55767" lon="4.6993">
        <ele>232</ele>
        <time>2012-10-07T10:11:15Z</time>
      </trkpt>
      <trkpt lat="45.55767" lon="4.6993">
        <ele>232</ele>
        <time>2012-10-07T10:11:17Z</time>
      </trkpt>
      <trkpt lat="45.55766" lon="4.69929">
        <ele>232</ele>
        <time>2012-10-07T10:11:20Z</time>
      </trkpt>
      <trkpt lat="45.55765" lon="4.69928">
        <ele>232</ele>
        <time>2012-10-07T10:11:22Z</time>
      </trkpt>
      <trkpt lat="45.55765" lon="4.69928">
        <ele>232</ele>
        <time>2012-10-07T10:11:24Z</time>
      </trkpt>
      <trkpt lat="45.55765" lon="4.69927">
        <ele>232</ele>
        <time>2012-10-07T10:11:26Z</time>
      </trkpt>
      <trkpt lat="45.55764" lon="4.69926">
        <ele>232</ele>
        <time>2012-10-07T10:11:28Z</time>
      </trkpt>
      <trkpt lat="45.55764" lon="4.69926">
        <ele>232</ele>
        <time>2012-10-07T10:11:30Z</time>
      </trkpt>
      <trkpt lat="45.55764" lon="4.69925">
        <ele>232</ele>
        <time>2012-10-07T10:11:32Z</time>
      </trkpt>
      <trkpt lat="45.55763" lon="4.69923">
        <ele>231</ele>
        <time>2012-10-07T10:11:35Z</time>
      </trkpt>
      <trkpt lat="45.55762" lon="4.69922">
        <ele>231</ele>
        <time>2012-10-07T10:11:37Z</time>
      </trkpt>
      <trkpt lat="45.55762" lon="4.6992">
        <ele>231</ele>
        <time>2012-10-07T10:11:39Z</time>
      </trkpt>
      <trkpt lat="45.55762" lon="4.69919">
        <ele>231</ele>
        <time>2012-10-07T10:11:41Z</time>
      </trkpt>
      <trkpt lat="45.55763" lon="4.69917">
        <ele>231</ele>
        <time>2012-10-07T10:11:43Z</time>
      </trkpt>
      <trkpt lat="45.55764" lon="4.69916">
        <ele>230</ele>
        <time>2012-10-07T10:11:45Z</time>
      </trkpt>
      <trkpt lat="45.55766" lon="4.69915">
        <ele>230</ele>
        <time>2012-10-07T10:11:47Z</time>
      </trkpt>
      <trkpt lat="45.55767" lon="4.69913">
        <ele>230</ele>
        <time>2012-10-07T10:11:49Z</time>
      </trkpt>
      <trkpt lat="45.55768" lon="4.69912">
        <ele>230</ele>
        <time>2012-10-07T10:11:52Z</time>
      </trkpt>
      <trkpt lat="45.55769" lon="4.69911">
        <ele>230</ele>
        <time>2012-10-07T10:11:54Z</time>
      </trkpt>
      <trkpt lat="45.55769" lon="4.69911">
        <ele>229</ele>
        <time>2012-10-07T10:11:56Z</time>
      </trkpt>
      <trkpt lat="45.55769" lon="4.6991">
        <ele>229</ele>
        <time>2012-10-07T10:11:58Z</time>
      </trkpt>
      <trkpt lat="45.5577" lon="4.69909">
        <ele>229</ele>
        <time>2012-10-07T10:12:00Z</time>
      </trkpt>
      <trkpt lat="45.55771" lon="4.69908">
        <ele>229</ele>
        <time>2012-10-07T10:12:02Z</time>
      </trkpt>
      <trkpt lat="45.55772" lon="4.69906">
        <ele>229</ele>
        <time>2012-10-07T10:12:04Z</time>
      </trkpt>
      <trkpt lat="45.55773" lon="4.69904">
        <ele>229</ele>
        <time>2012-10-07T10:12:06Z</time>
      </trkpt>
      <trkpt lat="45.55773" lon="4.69902">
        <ele>229</ele>
        <time>2012-10-07T10:12:08Z</time>
      </trkpt>
      <trkpt lat="45.55774" lon="4.69901">
        <ele>228</ele>
        <time>2012-10-07T10:12:10Z</time>
      </trkpt>
      <trkpt lat="45.55775" lon="4.69899">
        <ele>228</ele>
        <time>2012-10-07T10:12:12Z</time>
      </trkpt>
      <trkpt lat="45.55775" lon="4.69899">
        <ele>228</ele>
        <time>2012-10-07T10:12:14Z</time>
      </trkpt>
      <trkpt lat="45.55777" lon="4.69898">
        <ele>228</ele>
        <time>2012-10-07T10:12:16Z</time>
      </trkpt>
      <trkpt lat="45.55777" lon="4.69897">
        <ele>227</ele>
        <time>2012-10-07T10:12:18Z</time>
      </trkpt>
      <trkpt lat="45.55778" lon="4.69895">
        <ele>227</ele>
        <time>2012-10-07T10:12:21Z</time>
      </trkpt>
      <trkpt lat="45.55779" lon="4.69895">
        <ele>227</ele>
        <time>2012-10-07T10:12:23Z</time>
      </trkpt>
      <trkpt lat="45.5578" lon="4.69893">
        <ele>227</ele>
        <time>2012-10-07T10:12:25Z</time>
      </trkpt>
      <trkpt lat="45.55781" lon="4.69892">
        <ele>227</ele>
        <time>2012-10-07T10:12:27Z</time>
      </trkpt>
      <trkpt lat="45.55782" lon="4.69891">
        <ele>226</ele>
        <time>2012-10-07T10:12:29Z</time>
      </trkpt>
      <trkpt lat="45.55784" lon="4.69889">
        <ele>226</ele>
        <time>2012-10-07T10:12:31Z</time>
      </trkpt>
      <trkpt lat="45.55785" lon="4.69888">
        <ele>226</ele>
        <time>2012-10-07T10:12:33Z</time>
      </trkpt>
      <trkpt lat="45.55786" lon="4.69887">
        <ele>225</ele>
        <time>2012-10-07T10:12:35Z</time>
      </trkpt>
      <trkpt lat="45.55787" lon="4.69887">
        <ele>225</ele>
        <time>2012-10-07T10:12:37Z</time>
      </trkpt>
      <trkpt lat="45.55788" lon="4.69886">
        <ele>225</ele>
        <time>2012-10-07T10:12:39Z</time>
      </trkpt>
      <trkpt lat="45.55789" lon="4.69884">
        <ele>225</ele>
        <time>2012-10-07T10:12:41Z</time>
      </trkpt>
      <trkpt lat="45.55789" lon="4.69883">
        <ele>224</ele>
        <time>2012-10-07T10:12:43Z</time>
      </trkpt>
      <trkpt lat="45.5579" lon="4.69882">
        <ele>224</ele>
        <time>2012-10-07T10:12:46Z</time>
      </trkpt>
      <trkpt lat="45.5579" lon="4.6988">
        <ele>224</ele>
        <time>2012-10-07T10:12:48Z</time>
      </trkpt>
      <trkpt lat="45.5579" lon="4.69879">
        <ele>224</ele>
        <time>2012-10-07T10:12:50Z</time>
      </trkpt>
      <trkpt lat="45.5579" lon="4.69878">
        <ele>224</ele>
        <time>2012-10-07T10:12:52Z</time>
      </trkpt>
      <trkpt lat="45.5579" lon="4.69876">
        <ele>223</ele>
        <time>2012-10-07T10:12:54Z</time>
      </trkpt>
      <trkpt lat="45.5579" lon="4.69874">
        <ele>223</ele>
        <time>2012-10-07T10:12:56Z</time>
      </trkpt>
      <trkpt lat="45.5579" lon="4.69873">
        <ele>223</ele>
        <time>2012-10-07T10:12:58Z</time>
      </trkpt>
      <trkpt lat="45.5579" lon="4.69871">
        <ele>222</ele>
        <time>2012-10-07T10:13:00Z</time>
      </trkpt>
      <trkpt lat="45.5579" lon="4.69869">
        <ele>222</ele>
        <time>2012-10-07T10:13:02Z</time>
      </trkpt>
      <trkpt lat="45.5579" lon="4.69867">
        <ele>221</ele>
        <time>2012-10-07T10:13:04Z</time>
      </trkpt>
      <trkpt lat="45.55791" lon="4.69864">
        <ele>221</ele>
        <time>2012-10-07T10:13:06Z</time>
      </trkpt>
      <trkpt lat="45.55792" lon="4.69864">
        <ele>221</ele>
        <time>2012-10-07T10:13:08Z</time>
      </trkpt>
      <trkpt lat="45.55793" lon="4.69863">
        <ele>221</ele>
        <time>2012-10-07T10:13:10Z</time>
      </trkpt>
      <trkpt lat="45.55794" lon="4.69862">
        <ele>221</ele>
        <time>2012-10-07T10:13:12Z</time>
      </trkpt>
      <trkpt lat="45.55795" lon="4.69861">
        <ele>220</ele>
        <time>2012-10-07T10:13:14Z</time>
      </trkpt>
      <trkpt lat="45.55796" lon="4.6986">
        <ele>220</ele>
        <time>2012-10-07T10:13:16Z</time>
      </trkpt>
      <trkpt lat="45.55797" lon="4.69859">
        <ele>220</ele>
        <time>2012-10-07T10:13:19Z</time>
      </trkpt>
      <trkpt lat="45.55798" lon="4.69858">
        <ele>219</ele>
        <time>2012-10-07T10:13:21Z</time>
      </trkpt>
      <trkpt lat="45.55799" lon="4.69857">
        <ele>219</ele>
        <time>2012-10-07T10:13:23Z</time>
      </trkpt>
      <trkpt lat="45.558" lon="4.69855">
        <ele>219</ele>
        <time>2012-10-07T10:13:25Z</time>
      </trkpt>
      <trkpt lat="45.55801" lon="4.69854">
        <ele>218</ele>
        <time>2012-10-07T10:13:27Z</time>
      </trkpt>
      <trkpt lat="45.55802" lon="4.69853">
        <ele>218</ele>
        <time>2012-10-07T10:13:29Z</time>
      </trkpt>
      <trkpt lat="45.55804" lon="4.69851">
        <ele>218</ele>
        <time>2012-10-07T10:13:31Z</time>
      </trkpt>
      <trkpt lat="45.55805" lon="4.6985">
        <ele>217</ele>
        <time>2012-10-07T10:13:33Z</time>
      </trkpt>
      <trkpt lat="45.55806" lon="4.6985">
        <ele>217</ele>
        <time>2012-10-07T10:13:35Z</time>
      </trkpt>
      <trkpt lat="45.55807" lon="4.69849">
        <ele>217</ele>
        <time>2012-10-07T10:13:38Z</time>
      </trkpt>
      <trkpt lat="45.55808" lon="4.69848">
        <ele>217</ele>
        <time>2012-10-07T10:13:40Z</time>
      </trkpt>
      <trkpt lat="45.55809" lon="4.69848">
        <ele>216</ele>
        <time>2012-10-07T10:13:42Z</time>
      </trkpt>
      <trkpt lat="45.55811" lon="4.69847">
        <ele>216</ele>
        <time>2012-10-07T10:13:44Z</time>
      </trkpt>
      <trkpt lat="45.55812" lon="4.69846">
        <ele>216</ele>
        <time>2012-10-07T10:13:46Z</time>
      </trkpt>
      <trkpt lat="45.55814" lon="4.69845">
        <ele>216</ele>
        <time>2012-10-07T10:13:48Z</time>
      </trkpt>
      <trkpt lat="45.55815" lon="4.69843">
        <ele>215</ele>
        <time>2012-10-07T10:13:50Z</time>
      </trkpt>
      <trkpt lat="45.55816" lon="4.69841">
        <ele>215</ele>
        <time>2012-10-07T10:13:53Z</time>
      </trkpt>
      <trkpt lat="45.55817" lon="4.69841">
        <ele>215</ele>
        <time>2012-10-07T10:13:55Z</time>
      </trkpt>
      <trkpt lat="45.55818" lon="4.69841">
        <ele>215</ele>
        <time>2012-10-07T10:13:57Z</time>
      </trkpt>
      <trkpt lat="45.55819" lon="4.6984">
        <ele>214</ele>
        <time>2012-10-07T10:13:59Z</time>
      </trkpt>
      <trkpt lat="45.55821" lon="4.69839">
        <ele>214</ele>
        <time>2012-10-07T10:14:01Z</time>
      </trkpt>
      <trkpt lat="45.55823" lon="4.69839">
        <ele>214</ele>
        <time>2012-10-07T10:14:03Z</time>
      </trkpt>
      <trkpt lat="45.55825" lon="4.69839">
        <ele>214</ele>
        <time>2012-10-07T10:14:05Z</time>
      </trkpt>
      <trkpt lat="45.55827" lon="4.69838">
        <ele>213</ele>
        <time>2012-10-07T10:14:07Z</time>
      </trkpt>
      <trkpt lat="45.55828" lon="4.69838">
        <ele>213</ele>
        <time>2012-10-07T10:14:09Z</time>
      </trkpt>
      <trkpt lat="45.5583" lon="4.69837">
        <ele>213</ele>
        <time>2012-10-07T10:14:11Z</time>
      </trkpt>
      <trkpt lat="45.55831" lon="4.69836">
        <ele>213</ele>
        <time>2012-10-07T10:14:14Z</time>
      </trkpt>
      <trkpt lat="45.55832" lon="4.69836">
        <ele>212</ele>
        <time>2012-10-07T10:14:16Z</time>
      </trkpt>
      <trkpt lat="45.55832" lon="4.69835">
        <ele>212</ele>
        <time>2012-10-07T10:14:18Z</time>
      </trkpt>
      <trkpt lat="45.55832" lon="4.69835">
        <ele>212</ele>
        <time>2012-10-07T10:14:20Z</time>
      </trkpt>
      <trkpt lat="45.55832" lon="4.69835">
        <ele>212</ele>
        <time>2012-10-07T10:14:22Z</time>
      </trkpt>
      <trkpt lat="45.55833" lon="4.69835">
        <ele>212</ele>
        <time>2012-10-07T10:14:24Z</time>
      </trkpt>
      <trkpt lat="45.55834" lon="4.69835">
        <ele>212</ele>
        <time>2012-10-07T10:14:26Z</time>
      </trkpt>
      <trkpt lat="45.55836" lon="4.69834">
        <ele>212</ele>
        <time>2012-10-07T10:14:28Z</time>
      </trkpt>
      <trkpt lat="45.55837" lon="4.69834">
        <ele>212</ele>
        <time>2012-10-07T10:14:30Z</time>
      </trkpt>
      <trkpt lat="45.5584" lon="4.69833">
        <ele>212</ele>
        <time>2012-10-07T10:14:32Z</time>
      </trkpt>
      <trkpt lat="45.55841" lon="4.69832">
        <ele>211</ele>
        <time>2012-10-07T10:14:34Z</time>
      </trkpt>
      <trkpt lat="45.55843" lon="4.69832">
        <ele>211</ele>
        <time>2012-10-07T10:14:37Z</time>
      </trkpt>
      <trkpt lat="45.55845" lon="4.69831">
        <ele>211</ele>
        <time>2012-10-07T10:14:39Z</time>
      </trkpt>
      <trkpt lat="45.55846" lon="4.6983">
        <ele>211</ele>
        <time>2012-10-07T10:14:41Z</time>
      </trkpt>
      <trkpt lat="45.55848" lon="4.6983">
        <ele>211</ele>
        <time>2012-10-07T10:14:43Z</time>
      </trkpt>
      <trkpt lat="45.5585" lon="4.6983">
        <ele>210</ele>
        <time>2012-10-07T10:14:45Z</time>
      </trkpt>
      <trkpt lat="45.55851" lon="4.69829">
        <ele>210</ele>
        <time>2012-10-07T10:14:47Z</time>
      </trkpt>
      <trkpt lat="45.55853" lon="4.69828">
        <ele>210</ele>
        <time>2012-10-07T10:14:49Z</time>
      </trkpt>
      <trkpt lat="45.55854" lon="4.69828">
        <ele>209</ele>
        <time>2012-10-07T10:14:51Z</time>
      </trkpt>
      <trkpt lat="45.55856" lon="4.69827">
        <ele>210</ele>
        <time>2012-10-07T10:14:53Z</time>
      </trkpt>
      <trkpt lat="45.55857" lon="4.69826">
        <ele>210</ele>
        <time>2012-10-07T10:14:55Z</time>
      </trkpt>
      <trkpt lat="45.55859" lon="4.69825">
        <ele>210</ele>
        <time>2012-10-07T10:14:57Z</time>
      </trkpt>
      <trkpt lat="45.5586" lon="4.69824">
        <ele>209</ele>
        <time>2012-10-07T10:14:59Z</time>
      </trkpt>
      <trkpt lat="45.55861" lon="4.69824">
        <ele>209</ele>
        <time>2012-10-07T10:15:01Z</time>
      </trkpt>
      <trkpt lat="45.55863" lon="4.69823">
        <ele>208</ele>
        <time>2012-10-07T10:15:03Z</time>
      </trkpt>
      <trkpt lat="45.55865" lon="4.69823">
        <ele>208</ele>
        <time>2012-10-07T10:15:05Z</time>
      </trkpt>
      <trkpt lat="45.55866" lon="4.69822">
        <ele>208</ele>
        <time>2012-10-07T10:15:07Z</time>
      </trkpt>
      <trkpt lat="45.55868" lon="4.69821">
        <ele>207</ele>
        <time>2012-10-07T10:15:10Z</time>
      </trkpt>
      <trkpt lat="45.55869" lon="4.6982">
        <ele>207</ele>
        <time>2012-10-07T10:15:12Z</time>
      </trkpt>
      <trkpt lat="45.5587" lon="4.69819">
        <ele>207</ele>
        <time>2012-10-07T10:15:14Z</time>
      </trkpt>
      <trkpt lat="45.55872" lon="4.69819">
        <ele>207</ele>
        <time>2012-10-07T10:15:16Z</time>
      </trkpt>
      <trkpt lat="45.55874" lon="4.69819">
        <ele>207</ele>
        <time>2012-10-07T10:15:18Z</time>
      </trkpt>
      <trkpt lat="45.55876" lon="4.69818">
        <ele>207</ele>
        <time>2012-10-07T10:15:20Z</time>
      </trkpt>
      <trkpt lat="45.55877" lon="4.69816">
        <ele>206</ele>
        <time>2012-10-07T10:15:22Z</time>
      </trkpt>
      <trkpt lat="45.55877" lon="4.69814">
        <ele>206</ele>
        <time>2012-10-07T10:15:24Z</time>
      </trkpt>
      <trkpt lat="45.55876" lon="4.69812">
        <ele>206</ele>
        <time>2012-10-07T10:15:26Z</time>
      </trkpt>
      <trkpt lat="45.55876" lon="4.69811">
        <ele>206</ele>
        <time>2012-10-07T10:15:28Z</time>
      </trkpt>
      <trkpt lat="45.55875" lon="4.6981">
        <ele>206</ele>
        <time>2012-10-07T10:15:30Z</time>
      </trkpt>
      <trkpt lat="45.55874" lon="4.69809">
        <ele>205</ele>
        <time>2012-10-07T10:15:32Z</time>
      </trkpt>
      <trkpt lat="45.55873" lon="4.69809">
        <ele>205</ele>
        <time>2012-10-07T10:15:34Z</time>
      </trkpt>
      <trkpt lat="45.55872" lon="4.69807">
        <ele>205</ele>
        <time>2012-10-07T10:15:36Z</time>
      </trkpt>
      <trkpt lat="45.5587" lon="4.69806">
        <ele>204</ele>
        <time>2012-10-07T10:15:38Z</time>
      </trkpt>
      <trkpt lat="45.5587" lon="4.69806">
        <ele>204</ele>
        <time>2012-10-07T10:15:40Z</time>
      </trkpt>
      <trkpt lat="45.55869" lon="4.69805">
        <ele>204</ele>
        <time>2012-10-07T10:15:42Z</time>
      </trkpt>
      <trkpt lat="45.55867" lon="4.69803">
        <ele>204</ele>
        <time>2012-10-07T10:15:44Z</time>
      </trkpt>
      <trkpt lat="45.55866" lon="4.69801">
        <ele>204</ele>
        <time>2012-10-07T10:15:46Z</time>
      </trkpt>
      <trkpt lat="45.55864" lon="4.698">
        <ele>204</ele>
        <time>2012-10-07T10:15:48Z</time>
      </trkpt>
      <trkpt lat="45.55864" lon="4.69799">
        <ele>203</ele>
        <time>2012-10-07T10:15:51Z</time>
      </trkpt>
      <trkpt lat="45.55864" lon="4.69798">
        <ele>203</ele>
        <time>2012-10-07T10:15:53Z</time>
      </trkpt>
      <trkpt lat="45.55865" lon="4.69797">
        <ele>203</ele>
        <time>2012-10-07T10:15:55Z</time>
      </trkpt>
      <trkpt lat="45.55865" lon="4.69796">
        <ele>202</ele>
        <time>2012-10-07T10:15:57Z</time>
      </trkpt>
      <trkpt lat="45.55866" lon="4.69795">
        <ele>202</ele>
        <time>2012-10-07T10:15:59Z</time>
      </trkpt>
      <trkpt lat="45.55867" lon="4.69795">
        <ele>202</ele>
        <time>2012-10-07T10:16:01Z</time>
      </trkpt>
      <trkpt lat="45.55868" lon="4.69794">
        <ele>201</ele>
        <time>2012-10-07T10:16:03Z</time>
      </trkpt>
      <trkpt lat="45.55869" lon="4.69794">
        <ele>201</ele>
        <time>2012-10-07T10:16:05Z</time>
      </trkpt>
      <trkpt lat="45.5587" lon="4.69794">
        <ele>201</ele>
        <time>2012-10-07T10:16:07Z</time>
      </trkpt>
      <trkpt lat="45.55871" lon="4.69794">
        <ele>200</ele>
        <time>2012-10-07T10:16:09Z</time>
      </trkpt>
      <trkpt lat="45.55872" lon="4.69793">
        <ele>200</ele>
        <time>2012-10-07T10:16:11Z</time>
      </trkpt>
      <trkpt lat="45.55873" lon="4.69794">
        <ele>200</ele>
        <time>2012-10-07T10:16:13Z</time>
      </trkpt>
      <trkpt lat="45.55875" lon="4.69794">
        <ele>200</ele>
        <time>2012-10-07T10:16:15Z</time>
      </trkpt>
      <trkpt lat="45.55876" lon="4.69793">
        <ele>200</ele>
        <time>2012-10-07T10:16:17Z</time>
      </trkpt>
      <trkpt lat="45.55878" lon="4.69793">
        <ele>200</ele>
        <time>2012-10-07T10:16:20Z</time>
      </trkpt>
      <trkpt lat="45.55879" lon="4.69792">
        <ele>199</ele>
        <time>2012-10-07T10:16:22Z</time>
      </trkpt>
      <trkpt lat="45.5588" lon="4.69792">
        <ele>199</ele>
        <time>2012-10-07T10:16:24Z</time>
      </trkpt>
      <trkpt lat="45.55881" lon="4.69792">
        <ele>198</ele>
        <time>2012-10-07T10:16:26Z</time>
      </trkpt>
      <trkpt lat="45.55882" lon="4.69792">
        <ele>198</ele>
        <time>2012-10-07T10:16:28Z</time>
      </trkpt>
      <trkpt lat="45.55884" lon="4.69792">
        <ele>198</ele>
        <time>2012-10-07T10:16:30Z</time>
      </trkpt>
      <trkpt lat="45.55888" lon="4.69792">
        <ele>197</ele>
        <time>2012-10-07T10:16:32Z</time>
      </trkpt>
      <trkpt lat="45.5589" lon="4.69791">
        <ele>197</ele>
        <time>2012-10-07T10:16:34Z</time>
      </trkpt>
      <trkpt lat="45.55891" lon="4.69792">
        <ele>197</ele>
        <time>2012-10-07T10:16:36Z</time>
      </trkpt>
      <trkpt lat="45.55893" lon="4.69792">
        <ele>197</ele>
        <time>2012-10-07T10:16:39Z</time>
      </trkpt>
      <trkpt lat="45.55895" lon="4.69792">
        <ele>196</ele>
        <time>2012-10-07T10:16:41Z</time>
      </trkpt>
      <trkpt lat="45.55898" lon="4.69792">
        <ele>196</ele>
        <time>2012-10-07T10:16:43Z</time>
      </trkpt>
      <trkpt lat="45.55901" lon="4.69792">
        <ele>195</ele>
        <time>2012-10-07T10:16:45Z</time>
      </trkpt>
      <trkpt lat="45.55904" lon="4.69792">
        <ele>195</ele>
        <time>2012-10-07T10:16:47Z</time>
      </trkpt>
      <trkpt lat="45.55906" lon="4.69792">
        <ele>195</ele>
        <time>2012-10-07T10:16:49Z</time>
      </trkpt>
      <trkpt lat="45.55909" lon="4.69793">
        <ele>194</ele>
        <time>2012-10-07T10:16:51Z</time>
      </trkpt>
      <trkpt lat="45.55911" lon="4.69794">
        <ele>194</ele>
        <time>2012-10-07T10:16:53Z</time>
      </trkpt>
      <trkpt lat="45.55913" lon="4.69795">
        <ele>194</ele>
        <time>2012-10-07T10:16:55Z</time>
      </trkpt>
      <trkpt lat="45.55915" lon="4.69795">
        <ele>193</ele>
        <time>2012-10-07T10:16:57Z</time>
      </trkpt>
      <trkpt lat="45.55917" lon="4.69795">
        <ele>193</ele>
        <time>2012-10-07T10:16:59Z</time>
      </trkpt>
      <trkpt lat="45.55919" lon="4.69794">
        <ele>193</ele>
        <time>2012-10-07T10:17:01Z</time>
      </trkpt>
      <trkpt lat="45.5592" lon="4.69791">
        <ele>192</ele>
        <time>2012-10-07T10:17:03Z</time>
      </trkpt>
      <trkpt lat="45.55921" lon="4.69789">
        <ele>192</ele>
        <time>2012-10-07T10:17:05Z</time>
      </trkpt>
      <trkpt lat="45.55921" lon="4.69786">
        <ele>192</ele>
        <time>2012-10-07T10:17:07Z</time>
      </trkpt>
      <trkpt lat="45.55921" lon="4.69784">
        <ele>191</ele>
        <time>2012-10-07T10:17:10Z</time>
      </trkpt>
      <trkpt lat="45.5592" lon="4.69783">
        <ele>191</ele>
        <time>2012-10-07T10:17:12Z</time>
      </trkpt>
      <trkpt lat="45.5592" lon="4.69782">
        <ele>191</ele>
        <time>2012-10-07T10:17:14Z</time>
      </trkpt>
      <trkpt lat="45.55919" lon="4.69781">
        <ele>190</ele>
        <time>2012-10-07T10:17:16Z</time>
      </trkpt>
      <trkpt lat="45.55919" lon="4.69779">
        <ele>190</ele>
        <time>2012-10-07T10:17:18Z</time>
      </trkpt>
      <trkpt lat="45.55918" lon="4.69778">
        <ele>189</ele>
        <time>2012-10-07T10:17:20Z</time>
      </trkpt>
      <trkpt lat="45.55917" lon="4.69776">
        <ele>189</ele>
        <time>2012-10-07T10:17:22Z</time>
      </trkpt>
      <trkpt lat="45.55916" lon="4.69775">
        <ele>189</ele>
        <time>2012-10-07T10:17:24Z</time>
      </trkpt>
      <trkpt lat="45.55916" lon="4.69773">
        <ele>189</ele>
        <time>2012-10-07T10:17:26Z</time>
      </trkpt>
      <trkpt lat="45.55915" lon="4.69771">
        <ele>188</ele>
        <time>2012-10-07T10:17:28Z</time>
      </trkpt>
      <trkpt lat="45.55916" lon="4.6977">
        <ele>188</ele>
        <time>2012-10-07T10:17:30Z</time>
      </trkpt>
      <trkpt lat="45.55916" lon="4.69768">
        <ele>188</ele>
        <time>2012-10-07T10:17:32Z</time>
      </trkpt>
      <trkpt lat="45.55917" lon="4.69767">
        <ele>188</ele>
        <time>2012-10-07T10:17:34Z</time>
      </trkpt>
      <trkpt lat="45.55918" lon="4.69766">
        <ele>188</ele>
        <time>2012-10-07T10:17:36Z</time>
      </trkpt>
      <trkpt lat="45.5592" lon="4.69766">
        <ele>187</ele>
        <time>2012-10-07T10:17:38Z</time>
      </trkpt>
      <trkpt lat="45.55922" lon="4.69766">
        <ele>187</ele>
        <time>2012-10-07T10:17:40Z</time>
      </trkpt>
      <trkpt lat="45.55923" lon="4.69767">
        <ele>187</ele>
        <time>2012-10-07T10:17:42Z</time>
      </trkpt>
      <trkpt lat="45.55925" lon="4.69768">
        <ele>186</ele>
        <time>2012-10-07T10:17:45Z</time>
      </trkpt>
      <trkpt lat="45.55926" lon="4.69768">
        <ele>186</ele>
        <time>2012-10-07T10:17:47Z</time>
      </trkpt>
      <trkpt lat="45.55927" lon="4.69769">
        <ele>186</ele>
        <time>2012-10-07T10:17:49Z</time>
      </trkpt>
      <trkpt lat="45.55928" lon="4.6977">
        <ele>185</ele>
        <time>2012-10-07T10:17:51Z</time>
      </trkpt>
      <trkpt lat="45.5593" lon="4.6977">
        <ele>185</ele>
        <time>2012-10-07T10:17:53Z</time>
      </trkpt>
      <trkpt lat="45.55931" lon="4.69771">
        <ele>185</ele>
        <time>2012-10-07T10:17:55Z</time>
      </trkpt>
      <trkpt lat="45.55933" lon="4.69772">
        <ele>184</ele>
        <time>2012-10-07T10:17:57Z</time>
      </trkpt>
      <trkpt lat="45.55935" lon="4.69773">
        <ele>184</ele>
        <time>2012-10-07T10:17:59Z</time>
      </trkpt>
      <trkpt lat="45.55936" lon="4.69773">
        <ele>184</ele>
        <time>2012-10-07T10:18:01Z</time>
      </trkpt>
      <trkpt lat="45.55937" lon="4.69773">
        <ele>184</ele>
        <time>2012-10-07T10:18:03Z</time>
      </trkpt>
      <trkpt lat="45.55938" lon="4.69772">
        <ele>183</ele>
        <time>2012-10-07T10:18:05Z</time>
      </trkpt>
      <trkpt lat="45.55939" lon="4.69771">
        <ele>183</ele>
        <time>2012-10-07T10:18:07Z</time>
      </trkpt>
      <trkpt lat="45.5594" lon="4.69769">
        <ele>183</ele>
        <time>2012-10-07T10:18:09Z</time>
      </trkpt>
      <trkpt lat="45.5594" lon="4.69766">
        <ele>182</ele>
        <time>2012-10-07T10:18:11Z</time>
      </trkpt>
      <trkpt lat="45.55941" lon="4.69763">
        <ele>182</ele>
        <time>2012-10-07T10:18:13Z</time>
      </trkpt>
      <trkpt lat="45.5594" lon="4.6976">
        <ele>182</ele>
        <time>2012-10-07T10:18:16Z</time>
      </trkpt>
      <trkpt lat="45.55939" lon="4.69758">
        <ele>181</ele>
        <time>2012-10-07T10:18:18Z</time>
      </trkpt>
      <trkpt lat="45.55939" lon="4.69757">
        <ele>181</ele>
        <time>2012-10-07T10:18:20Z</time>
      </trkpt>
      <trkpt lat="45.55938" lon="4.69755">
        <ele>181</ele>
        <time>2012-10-07T10:18:22Z</time>
      </trkpt>
      <trkpt lat="45.55938" lon="4.69753">
        <ele>181</ele>
        <time>2012-10-07T10:18:24Z</time>
      </trkpt>
      <trkpt lat="45.55936" lon="4.69749">
        <ele>181</ele>
        <time>2012-10-07T10:18:26Z</time>
      </trkpt>
      <trkpt lat="45.55936" lon="4.69747">
        <ele>181</ele>
        <time>2012-10-07T10:18:28Z</time>
      </trkpt>
      <trkpt lat="45.55935" lon="4.69745">
        <ele>180</ele>
        <time>2012-10-07T10:18:30Z</time>
      </trkpt>
      <trkpt lat="45.55933" lon="4.69744">
        <ele>180</ele>
        <time>2012-10-07T10:18:32Z</time>
      </trkpt>
      <trkpt lat="45.55931" lon="4.69743">
        <ele>180</ele>
        <time>2012-10-07T10:18:34Z</time>
      </trkpt>
      <trkpt lat="45.5593" lon="4.69742">
        <ele>180</ele>
        <time>2012-10-07T10:18:37Z</time>
      </trkpt>
      <trkpt lat="45.55929" lon="4.69742">
        <ele>179</ele>
        <time>2012-10-07T10:18:39Z</time>
      </trkpt>
      <trkpt lat="45.55927" lon="4.69742">
        <ele>179</ele>
        <time>2012-10-07T10:18:41Z</time>
      </trkpt>
      <trkpt lat="45.55925" lon="4.69741">
        <ele>179</ele>
        <time>2012-10-07T10:18:43Z</time>
      </trkpt>
      <trkpt lat="45.55923" lon="4.69739">
        <ele>179</ele>
        <time>2012-10-07T10:18:45Z</time>
      </trkpt>
      <trkpt lat="45.55921" lon="4.69738">
        <ele>178</ele>
        <time>2012-10-07T10:18:47Z</time>
      </trkpt>
      <trkpt lat="45.5592" lon="4.69736">
        <ele>178</ele>
        <time>2012-10-07T10:18:49Z</time>
      </trkpt>
      <trkpt lat="45.55917" lon="4.69735">
        <ele>178</ele>
        <time>2012-10-07T10:18:51Z</time>
      </trkpt>
      <trkpt lat="45.55915" lon="4.69734">
        <ele>178</ele>
        <time>2012-10-07T10:18:53Z</time>
      </trkpt>
      <trkpt lat="45.55912" lon="4.69733">
        <ele>177</ele>
        <time>2012-10-07T10:18:55Z</time>
      </trkpt>
      <trkpt lat="45.5591" lon="4.69732">
        <ele>177</ele>
        <time>2012-10-07T10:18:57Z</time>
      </trkpt>
      <trkpt lat="45.55909" lon="4.69731">
        <ele>177</ele>
        <time>2012-10-07T10:18:59Z</time>
      </trkpt>
      <trkpt lat="45.55909" lon="4.6973">
        <ele>177</ele>
        <time>2012-10-07T10:19:01Z</time>
      </trkpt>
      <trkpt lat="45.55908" lon="4.69729">
        <ele>177</ele>
        <time>2012-10-07T10:19:03Z</time>
      </trkpt>
      <trkpt lat="45.55908" lon="4.69728">
        <ele>177</ele>
        <time>2012-10-07T10:19:06Z</time>
      </trkpt>
      <trkpt lat="45.55908" lon="4.69727">
        <ele>176</ele>
        <time>2012-10-07T10:19:08Z</time>
      </trkpt>
      <trkpt lat="45.55909" lon="4.69726">
        <ele>176</ele>
        <time>2012-10-07T10:19:10Z</time>
      </trkpt>
      <trkpt lat="45.55908" lon="4.69725">
        <ele>176</ele>
        <time>2012-10-07T10:19:12Z</time>
      </trkpt>
      <trkpt lat="45.55908" lon="4.69724">
        <ele>176</ele>
        <time>2012-10-07T10:19:14Z</time>
      </trkpt>
      <trkpt lat="45.55907" lon="4.69723">
        <ele>176</ele>
        <time>2012-10-07T10:19:16Z</time>
      </trkpt>
      <trkpt lat="45.55909" lon="4.69722">
        <ele>176</ele>
        <time>2012-10-07T10:19:18Z</time>
      </trkpt>
      <trkpt lat="45.55909" lon="4.69721">
        <ele>176</ele>
        <time>2012-10-07T10:19:21Z</time>
      </trkpt>
      <trkpt lat="45.55909" lon="4.69721">
        <ele>175</ele>
        <time>2012-10-07T10:19:23Z</time>
      </trkpt>
      <trkpt lat="45.5591" lon="4.69721">
        <ele>175</ele>
        <time>2012-10-07T10:19:25Z</time>
      </trkpt>
      <trkpt lat="45.55912" lon="4.69721">
        <ele>175</ele>
        <time>2012-10-07T10:19:27Z</time>
      </trkpt>
      <trkpt lat="45.55913" lon="4.69721">
        <ele>174</ele>
        <time>2012-10-07T10:19:29Z</time>
      </trkpt>
      <trkpt lat="45.55915" lon="4.69721">
        <ele>174</ele>
        <time>2012-10-07T10:19:31Z</time>
      </trkpt>
      <trkpt lat="45.55916" lon="4.6972">
        <ele>174</ele>
        <time>2012-10-07T10:19:33Z</time>
      </trkpt>
      <trkpt lat="45.55918" lon="4.6972">
        <ele>174</ele>
        <time>2012-10-07T10:19:35Z</time>
      </trkpt>
      <trkpt lat="45.55919" lon="4.6972">
        <ele>173</ele>
        <time>2012-10-07T10:19:37Z</time>
      </trkpt>
      <trkpt lat="45.55921" lon="4.6972">
        <ele>173</ele>
        <time>2012-10-07T10:19:39Z</time>
      </trkpt>
      <trkpt lat="45.55924" lon="4.6972">
        <ele>172</ele>
        <time>2012-10-07T10:19:41Z</time>
      </trkpt>
      <trkpt lat="45.55926" lon="4.6972">
        <ele>172</ele>
        <time>2012-10-07T10:19:43Z</time>
      </trkpt>
      <trkpt lat="45.55928" lon="4.69719">
        <ele>172</ele>
        <time>2012-10-07T10:19:46Z</time>
      </trkpt>
      <trkpt lat="45.5593" lon="4.6972">
        <ele>172</ele>
        <time>2012-10-07T10:19:48Z</time>
      </trkpt>
      <trkpt lat="45.55931" lon="4.69719">
        <ele>172</ele>
        <time>2012-10-07T10:19:50Z</time>
      </trkpt>
      <trkpt lat="45.55932" lon="4.69719">
        <ele>171</ele>
        <time>2012-10-07T10:19:52Z</time>
      </trkpt>
      <trkpt lat="45.55934" lon="4.69719">
        <ele>171</ele>
        <time>2012-10-07T10:19:54Z</time>
      </trkpt>
      <trkpt lat="45.55935" lon="4.69719">
        <ele>171</ele>
        <time>2012-10-07T10:19:56Z</time>
      </trkpt>
      <trkpt lat="45.55936" lon="4.69718">
        <ele>170</ele>
        <time>2012-10-07T10:19:58Z</time>
      </trkpt>
      <trkpt lat="45.55938" lon="4.69717">
        <ele>170</ele>
        <time>2012-10-07T10:20:00Z</time>
      </trkpt>
      <trkpt lat="45.5594" lon="4.69716">
        <ele>170</ele>
        <time>2012-10-07T10:20:02Z</time>
      </trkpt>
      <trkpt lat="45.55941" lon="4.69716">
        <ele>169</ele>
        <time>2012-10-07T10:20:04Z</time>
      </trkpt>
      <trkpt lat="45.55943" lon="4.69715">
        <ele>169</ele>
        <time>2012-10-07T10:20:06Z</time>
      </trkpt>
      <trkpt lat="45.55944" lon="4.69715">
        <ele>169</ele>
        <time>2012-10-07T10:20:08Z</time>
      </trkpt>
      <trkpt lat="45.55945" lon="4.69714">
        <ele>169</ele>
        <time>2012-10-07T10:20:10Z</time>
      </trkpt>
      <trkpt lat="45.55946" lon="4.69715">
        <ele>169</ele>
        <time>2012-10-07T10:20:12Z</time>
      </trkpt>
      <trkpt lat="45.55947" lon="4.69714">
        <ele>169</ele>
        <time>2012-10-07T10:20:14Z</time>
      </trkpt>
      <trkpt lat="45.55948" lon="4.69714">
        <ele>169</ele>
        <time>2012-10-07T10:20:16Z</time>
      </trkpt>
      <trkpt lat="45.55949" lon="4.69714">
        <ele>169</ele>
        <time>2012-10-07T10:20:18Z</time>
      </trkpt>
      <trkpt lat="45.5595" lon="4.69713">
        <ele>169</ele>
        <time>2012-10-07T10:20:20Z</time>
      </trkpt>
      <trkpt lat="45.55952" lon="4.69712">
        <ele>169</ele>
        <time>2012-10-07T10:20:22Z</time>
      </trkpt>
      <trkpt lat="45.55954" lon="4.69711">
        <ele>168</ele>
        <time>2012-10-07T10:20:25Z</time>
      </trkpt>
      <trkpt lat="45.55956" lon="4.6971">
        <ele>168</ele>
        <time>2012-10-07T10:20:27Z</time>
      </trkpt>
      <trkpt lat="45.55957" lon="4.6971">
        <ele>167</ele>
        <time>2012-10-07T10:20:29Z</time>
      </trkpt>
      <trkpt lat="45.55959" lon="4.69709">
        <ele>167</ele>
        <time>2012-10-07T10:20:31Z</time>
      </trkpt>
      <trkpt lat="45.55959" lon="4.69708">
        <ele>167</ele>
        <time>2012-10-07T10:20:33Z</time>
      </trkpt>
      <trkpt lat="45.55961" lon="4.69707">
        <ele>167</ele>
        <time>2012-10-07T10:20:35Z</time>
      </trkpt>
      <trkpt lat="45.55963" lon="4.69705">
        <ele>166</ele>
        <time>2012-10-07T10:20:37Z</time>
      </trkpt>
      <trkpt lat="45.55966" lon="4.69703">
        <ele>166</ele>
        <time>2012-10-07T10:20:39Z</time>
      </trkpt>
      <trkpt lat="45.55968" lon="4.69702">
        <ele>166</ele>
        <time>2012-10-07T10:20:41Z</time>
      </trkpt>
      <trkpt lat="45.5597" lon="4.69701">
        <ele>165</ele>
        <time>2012-10-07T10:20:43Z</time>
      </trkpt>
      <trkpt lat="45.55972" lon="4.69701">
        <ele>165</ele>
        <time>2012-10-07T10:20:46Z</time>
      </trkpt>
      <trkpt lat="45.55973" lon="4.69701">
        <ele>165</ele>
        <time>2012-10-07T10:20:48Z</time>
      </trkpt>
      <trkpt lat="45.55975" lon="4.697">
        <ele>165</ele>
        <time>2012-10-07T10:20:50Z</time>
      </trkpt>
      <trkpt lat="45.55977" lon="4.69699">
        <ele>165</ele>
        <time>2012-10-07T10:20:52Z</time>
      </trkpt>
      <trkpt lat="45.55979" lon="4.69698">
        <ele>164</ele>
        <time>2012-10-07T10:20:54Z</time>
      </trkpt>
      <trkpt lat="45.55981" lon="4.69696">
        <ele>164</ele>
        <time>2012-10-07T10:20:56Z</time>
      </trkpt>
      <trkpt lat="45.55981" lon="4.69693">
        <ele>163</ele>
        <time>2012-10-07T10:20:58Z</time>
      </trkpt>
      <trkpt lat="45.55981" lon="4.69691">
        <ele>163</ele>
        <time>2012-10-07T10:21:00Z</time>
      </trkpt>
      <trkpt lat="45.55982" lon="4.6969">
        <ele>163</ele>
        <time>2012-10-07T10:21:02Z</time>
      </trkpt>
      <trkpt lat="45.55981" lon="4.69689">
        <ele>163</ele>
        <time>2012-10-07T10:21:04Z</time>
      </trkpt>
      <trkpt lat="45.5598" lon="4.69688">
        <ele>163</ele>
        <time>2012-10-07T10:21:06Z</time>
      </trkpt>
      <trkpt lat="45.55979" lon="4.69688">
        <ele>163</ele>
        <time>2012-10-07T10:21:08Z</time>
      </trkpt>
      <trkpt lat="45.55977" lon="4.69689">
        <ele>162</ele>
        <time>2012-10-07T10:21:10Z</time>
      </trkpt>
      <trkpt lat="45.55976" lon="4.69689">
        <ele>162</ele>
        <time>2012-10-07T10:21:13Z</time>
      </trkpt>
      <trkpt lat="45.55974" lon="4.69689">
        <ele>161</ele>
        <time>2012-10-07T10:21:15Z</time>
      </trkpt>
      <trkpt lat="45.55973" lon="4.6969">
        <ele>161</ele>
        <time>2012-10-07T10:21:17Z</time>
      </trkpt>
      <trkpt lat="45.55972" lon="4.69689">
        <ele>161</ele>
        <time>2012-10-07T10:21:19Z</time>
      </trkpt>
      <trkpt lat="45.55972" lon="4.69688">
        <ele>161</ele>
        <time>2012-10-07T10:21:21Z</time>
      </trkpt>
      <trkpt lat="45.55972" lon="4.69686">
        <ele>160</ele>
        <time>2012-10-07T10:21:23Z</time>
      </trkpt>
      <trkpt lat="45.55972" lon="4.69686">
        <ele>160</ele>
        <time>2012-10-07T10:21:25Z</time>
      </trkpt>
      <trkpt lat="45.55973" lon="4.69683">
        <ele>159</ele>
        <time>2012-10-07T10:21:27Z</time>
      </trkpt>
      <trkpt lat="45.55973" lon="4.69681">
        <ele>159</ele>
        <time>2012-10-07T10:21:29Z</time>
      </trkpt>
      <trkpt lat="45.55974" lon="4.69679">
        <ele>158</ele>
        <time>2012-10-07T10:21:31Z</time>
      </trkpt>
      <trkpt lat="45.55975" lon="4.69677">
        <ele>158</ele>
        <time>2012-10-07T10:21:33Z</time>
      </trkpt>
      <trkpt lat="45.55976" lon="4.69676">
        <ele>158</ele>
        <time>2012-10-07T10:21:36Z</time>
      </trkpt>
      <trkpt lat="45.55977" lon="4.69674">
        <ele>158</ele>
        <time>2012-10-07T10:21:38Z</time>
      </trkpt>
      <trkpt lat="45.55978" lon="4.69672">
        <ele>157</ele>
        <time>2012-10-07T10:21:40Z</time>
      </trkpt>
      <trkpt lat="45.55978" lon="4.6967">
        <ele>157</ele>
        <time>2012-10-07T10:21:42Z</time>
      </trkpt>
      <trkpt lat="45.55979" lon="4.69668">
        <ele>157</ele>
        <time>2012-10-07T10:21:44Z</time>
      </trkpt>
      <trkpt lat="45.55981" lon="4.69666">
        <ele>156</ele>
        <time>2012-10-07T10:21:46Z</time>
      </trkpt>
      <trkpt lat="45.55982" lon="4.69664">
        <ele>156</ele>
        <time>2012-10-07T10:21:48Z</time>
      </trkpt>
      <trkpt lat="45.55983" lon="4.69663">
        <ele>155</ele>
        <time>2012-10-07T10:21:50Z</time>
      </trkpt>
      <trkpt lat="45.55984" lon="4.69661">
        <ele>155</ele>
        <time>2012-10-07T10:21:52Z</time>
      </trkpt>
      <trkpt lat="45.55985" lon="4.6966">
        <ele>154</ele>
        <time>2012-10-07T10:21:54Z</time>
      </trkpt>
      <trkpt lat="45.55986" lon="4.69657">
        <ele>154</ele>
        <time>2012-10-07T10:21:56Z</time>
      </trkpt>
      <trkpt lat="45.55988" lon="4.69654">
        <ele>154</ele>
        <time>2012-10-07T10:21:58Z</time>
      </trkpt>
      <trkpt lat="45.55989" lon="4.69652">
        <ele>154</ele>
        <time>2012-10-07T10:22:01Z</time>
      </trkpt>
      <trkpt lat="45.5599" lon="4.6965">
        <ele>154</ele>
        <time>2012-10-07T10:22:03Z</time>
      </trkpt>
      <trkpt lat="45.55991" lon="4.69648">
        <ele>154</ele>
        <time>2012-10-07T10:22:05Z</time>
      </trkpt>
      <trkpt lat="45.55991" lon="4.69646">
        <ele>154</ele>
        <time>2012-10-07T10:22:07Z</time>
      </trkpt>
      <trkpt lat="45.55992" lon="4.69643">
        <ele>153</ele>
        <time>2012-10-07T10:22:09Z</time>
      </trkpt>
      <trkpt lat="45.55994" lon="4.69641">
        <ele>153</ele>
        <time>2012-10-07T10:22:11Z</time>
      </trkpt>
      <trkpt lat="45.55996" lon="4.6964">
        <ele>152</ele>
        <time>2012-10-07T10:22:13Z</time>
      </trkpt>
      <trkpt lat="45.55997" lon="4.69641">
        <ele>152</ele>
        <time>2012-10-07T10:22:16Z</time>
      </trkpt>
      <trkpt lat="45.55999" lon="4.69641">
        <ele>152</ele>
        <time>2012-10-07T10:22:18Z</time>
      </trkpt>
      <trkpt lat="45.56" lon="4.69642">
        <ele>152</ele>
        <time>2012-10-07T10:22:20Z</time>
      </trkpt>
      <trkpt lat="45.56002" lon="4.69643">
        <ele>151</ele>
        <time>2012-10-07T10:22:22Z</time>
      </trkpt>
      <trkpt lat="45.56003" lon="4.69644">
        <ele>151</ele>
        <time>2012-10-07T10:22:24Z</time>
      </trkpt>
      <trkpt lat="45.56004" lon="4.69644">
        <ele>151</ele>
        <time>2012-10-07T10:22:26Z</time>
      </trkpt>
      <trkpt lat="45.56005" lon="4.69644">
        <ele>151</ele>
        <time>2012-10-07T10:22:28Z</time>
      </trkpt>
      <trkpt lat="45.56007" lon="4.69642">
        <ele>150</ele>
        <time>2012-10-07T10:22:30Z</time>
      </trkpt>
      <trkpt lat="45.56008" lon="4.69641">
        <ele>150</ele>
        <time>2012-10-07T10:22:32Z</time>
      </trkpt>
      <trkpt lat="45.56009" lon="4.69639">
        <ele>150</ele>
        <time>2012-10-07T10:22:34Z</time>
      </trkpt>
      <trkpt lat="45.5601" lon="4.69637">
        <ele>149</ele>
        <time>2012-10-07T10:22:36Z</time>
      </trkpt>
      <trkpt lat="45.5601" lon="4.69635">
        <ele>149</ele>
        <time>2012-10-07T10:22:38Z</time>
      </trkpt>
      <trkpt lat="45.5601" lon="4.69634">
        <ele>148</ele>
        <time>2012-10-07T10:22:40Z</time>
      </trkpt>
      <trkpt lat="45.5601" lon="4.69633">
        <ele>148</ele>
        <time>2012-10-07T10:22:42Z</time>
      </trkpt>
      <trkpt lat="45.5601" lon="4.69631">
        <ele>147</ele>
        <time>2012-10-07T10:22:45Z</time>
      </trkpt>
      <trkpt lat="45.56009" lon="4.69629">
        <ele>147</ele>
        <time>2012-10-07T10:22:47Z</time>
      </trkpt>
      <trkpt lat="45.56009" lon="4.69628">
        <ele>147</ele>
        <time>2012-10-07T10:22:49Z</time>
      </trkpt>
      <trkpt lat="45.56008" lon="4.69626">
        <ele>147</ele>
        <time>2012-10-07T10:22:51Z</time>
      </trkpt>
      <trkpt lat="45.56007" lon="4.69625">
        <ele>146</ele>
        <time>2012-10-07T10:22:53Z</time>
      </trkpt>
      <trkpt lat="45.56007" lon="4.69624">
        <ele>146</ele>
        <time>2012-10-07T10:22:55Z</time>
      </trkpt>
      <trkpt lat="45.56008" lon="4.69622">
        <ele>145</ele>
        <time>2012-10-07T10:22:57Z</time>
      </trkpt>
      <trkpt lat="45.56008" lon="4.6962">
        <ele>145</ele>
        <time>2012-10-07T10:22:59Z</time>
      </trkpt>
      <trkpt lat="45.56007" lon="4.69618">
        <ele>144</ele>
        <time>2012-10-07T10:23:01Z</time>
      </trkpt>
      <trkpt lat="45.56006" lon="4.69616">
        <ele>144</ele>
        <time>2012-10-07T10:23:03Z</time>
      </trkpt>
      <trkpt lat="45.56006" lon="4.69614">
        <ele>144</ele>
        <time>2012-10-07T10:23:05Z</time>
      </trkpt>
      <trkpt lat="45.56005" lon="4.69611">
        <ele>143</ele>
        <time>2012-10-07T10:23:07Z</time>
      </trkpt>
      <trkpt lat="45.56005" lon="4.69609">
        <ele>143</ele>
        <time>2012-10-07T10:23:09Z</time>
      </trkpt>
      <trkpt lat="45.56004" lon="4.69607">
        <ele>143</ele>
        <time>2012-10-07T10:23:11Z</time>
      </trkpt>
      <trkpt lat="45.56004" lon="4.69606">
        <ele>143</ele>
        <time>2012-10-07T10:23:13Z</time>
      </trkpt>
      <trkpt lat="45.56004" lon="4.69603">
        <ele>142</ele>
        <time>2012-10-07T10:23:15Z</time>
      </trkpt>
      <trkpt lat="45.56004" lon="4.696">
        <ele>142</ele>
        <time>2012-10-07T10:23:18Z</time>
      </trkpt>
      <trkpt lat="45.56004" lon="4.69597">
        <ele>141</ele>
        <time>2012-10-07T10:23:20Z</time>
      </trkpt>
      <trkpt lat="45.56004" lon="4.69595">
        <ele>141</ele>
        <time>2012-10-07T10:23:22Z</time>
      </trkpt>
      <trkpt lat="45.56004" lon="4.69591">
        <ele>140</ele>
        <time>2012-10-07T10:23:24Z</time>
      </trkpt>
      <trkpt lat="45.56004" lon="4.69588">
        <ele>140</ele>
        <time>2012-10-07T10:23:26Z</time>
      </trkpt>
      <trkpt lat="45.56004" lon="4.69585">
        <ele>140</ele>
        <time>2012-10-07T10:23:28Z</time>
      </trkpt>
      <trkpt lat="45.56003" lon="4.69582">
        <ele>139</ele>
        <time>2012-10-07T10:23:31Z</time>
      </trkpt>
      <trkpt lat="45.56004" lon="4.69579">
        <ele>139</ele>
        <time>2012-10-07T10:23:33Z</time>
      </trkpt>
      <trkpt lat="45.56004" lon="4.69577">
        <ele>139</ele>
        <time>2012-10-07T10:23:35Z</time>
      </trkpt>
      <trkpt lat="45.56003" lon="4.69574">
        <ele>138</ele>
        <time>2012-10-07T10:23:37Z</time>
      </trkpt>
      <trkpt lat="45.56005" lon="4.69571">
        <ele>138</ele>
        <time>2012-10-07T10:23:39Z</time>
      </trkpt>
      <trkpt lat="45.56006" lon="4.69568">
        <ele>138</ele>
        <time>2012-10-07T10:23:41Z</time>
      </trkpt>
      <trkpt lat="45.56008" lon="4.69566">
        <ele>137</ele>
        <time>2012-10-07T10:23:43Z</time>
      </trkpt>
      <trkpt lat="45.56009" lon="4.69563">
        <ele>137</ele>
        <time>2012-10-07T10:23:45Z</time>
      </trkpt>
      <trkpt lat="45.5601" lon="4.69561">
        <ele>137</ele>
        <time>2012-10-07T10:23:47Z</time>
      </trkpt>
      <trkpt lat="45.56012" lon="4.69559">
        <ele>137</ele>
        <time>2012-10-07T10:23:49Z</time>
      </trkpt>
      <trkpt lat="45.56013" lon="4.6956">
        <ele>137</ele>
        <time>2012-10-07T10:23:51Z</time>
      </trkpt>
      <trkpt lat="45.56015" lon="4.69561">
        <ele>137</ele>
        <time>2012-10-07T10:23:53Z</time>
      </trkpt>
      <trkpt lat="45.56018" lon="4.69562">
        <ele>137</ele>
        <time>2012-10-07T10:23:55Z</time>
      </trkpt>
      <trkpt lat="45.56019" lon="4.69563">
        <ele>137</ele>
        <time>2012-10-07T10:23:57Z</time>
      </trkpt>
      <trkpt lat="45.5602" lon="4.69564">
        <ele>137</ele>
        <time>2012-10-07T10:24:00Z</time>
      </trkpt>
      <trkpt lat="45.56021" lon="4.69565">
        <ele>137</ele>
        <time>2012-10-07T10:24:02Z</time>
      </trkpt>
      <trkpt lat="45.56023" lon="4.69566">
        <ele>136</ele>
        <time>2012-10-07T10:24:04Z</time>
      </trkpt>
      <trkpt lat="45.56024" lon="4.69568">
        <ele>136</ele>
        <time>2012-10-07T10:24:06Z</time>
      </trkpt>
      <trkpt lat="45.56025" lon="4.6957">
        <ele>136</ele>
        <time>2012-10-07T10:24:08Z</time>
      </trkpt>
      <trkpt lat="45.56027" lon="4.69573">
        <ele>136</ele>
        <time>2012-10-07T10:24:10Z</time>
      </trkpt>
      <trkpt lat="45.56029" lon="4.69574">
        <ele>136</ele>
        <time>2012-10-07T10:24:12Z</time>
      </trkpt>
      <trkpt lat="45.56031" lon="4.69576">
        <ele>136</ele>
        <time>2012-10-07T10:24:14Z</time>
      </trkpt>
      <trkpt lat="45.56033" lon="4.6958">
        <ele>136</ele>
        <time>2012-10-07T10:24:16Z</time>
      </trkpt>
      <trkpt lat="45.56034" lon="4.69582">
        <ele>135</ele>
        <time>2012-10-07T10:24:18Z</time>
      </trkpt>
      <trkpt lat="45.56036" lon="4.69584">
        <ele>135</ele>
        <time>2012-10-07T10:24:20Z</time>
      </trkpt>
      <trkpt lat="45.56037" lon="4.69587">
        <ele>136</ele>
        <time>2012-10-07T10:24:22Z</time>
      </trkpt>
      <trkpt lat="45.56039" lon="4.6959">
        <ele>135</ele>
        <time>2012-10-07T10:24:24Z</time>
      </trkpt>
      <trkpt lat="45.5604" lon="4.69592">
        <ele>135</ele>
        <time>2012-10-07T10:24:26Z</time>
      </trkpt>
      <trkpt lat="45.56042" lon="4.69594">
        <ele>135</ele>
        <time>2012-10-07T10:24:28Z</time>
      </trkpt>
      <trkpt lat="45.56044" lon="4.69596">
        <ele>135</ele>
        <time>2012-10-07T10:24:30Z</time>
      </trkpt>
      <trkpt lat="45.56045" lon="4.69598">
        <ele>135</ele>
        <time>2012-10-07T10:24:33Z</time>
      </trkpt>
      <trkpt lat="45.56046" lon="4.696">
        <ele>135</ele>
        <time>2012-10-07T10:24:35Z</time>
      </trkpt>
      <trkpt lat="45.56047" lon="4.69601">
        <ele>135</ele>
        <time>2012-10-07T10:24:37Z</time>
      </trkpt>
      <trkpt lat="45.56049" lon="4.69603">
        <ele>135</ele>
        <time>2012-10-07T10:24:39Z</time>
      </trkpt>
      <trkpt lat="45.56051" lon="4.69607">
        <ele>135</ele>
        <time>2012-10-07T10:24:41Z</time>
      </trkpt>
      <trkpt lat="45.56053" lon="4.69608">
        <ele>135</ele>
        <time>2012-10-07T10:24:43Z</time>
      </trkpt>
      <trkpt lat="45.56054" lon="4.6961">
        <ele>135</ele>
        <time>2012-10-07T10:24:45Z</time>
      </trkpt>
      <trkpt lat="45.56056" lon="4.69612">
        <ele>135</ele>
        <time>2012-10-07T10:24:47Z</time>
      </trkpt>
      <trkpt lat="45.56058" lon="4.69614">
        <ele>135</ele>
        <time>2012-10-07T10:24:50Z</time>
      </trkpt>
      <trkpt lat="45.5606" lon="4.69616">
        <ele>135</ele>
        <time>2012-10-07T10:24:52Z</time>
      </trkpt>
      <trkpt lat="45.56063" lon="4.69618">
        <ele>135</ele>
        <time>2012-10-07T10:24:54Z</time>
      </trkpt>
      <trkpt lat="45.56065" lon="4.6962">
        <ele>135</ele>
        <time>2012-10-07T10:24:56Z</time>
      </trkpt>
      <trkpt lat="45.56067" lon="4.69621">
        <ele>135</ele>
        <time>2012-10-07T10:24:58Z</time>
      </trkpt>
      <trkpt lat="45.56068" lon="4.69623">
        <ele>135</ele>
        <time>2012-10-07T10:25:00Z</time>
      </trkpt>
      <trkpt lat="45.5607" lon="4.69627">
        <ele>135</ele>
        <time>2012-10-07T10:25:02Z</time>
      </trkpt>
      <trkpt lat="45.56072" lon="4.69629">
        <ele>135</ele>
        <time>2012-10-07T10:25:04Z</time>
      </trkpt>
      <trkpt lat="45.56073" lon="4.69631">
        <ele>135</ele>
        <time>2012-10-07T10:25:06Z</time>
      </trkpt>
      <trkpt lat="45.56075" lon="4.69633">
        <ele>135</ele>
        <time>2012-10-07T10:25:08Z</time>
      </trkpt>
      <trkpt lat="45.56077" lon="4.69635">
        <ele>135</ele>
        <time>2012-10-07T10:25:10Z</time>
      </trkpt>
      <trkpt lat="45.56078" lon="4.69637">
        <ele>135</ele>
        <time>2012-10-07T10:25:13Z</time>
      </trkpt>
      <trkpt lat="45.56078" lon="4.6964">
        <ele>135</ele>
        <time>2012-10-07T10:25:15Z</time>
      </trkpt>
      <trkpt lat="45.5608" lon="4.69643">
        <ele>135</ele>
        <time>2012-10-07T10:25:17Z</time>
      </trkpt>
      <trkpt lat="45.56082" lon="4.69645">
        <ele>135</ele>
        <time>2012-10-07T10:25:19Z</time>
      </trkpt>
      <trkpt lat="45.56084" lon="4.69646">
        <ele>135</ele>
        <time>2012-10-07T10:25:21Z</time>
      </trkpt>
      <trkpt lat="45.56086" lon="4.69648">
        <ele>135</ele>
        <time>2012-10-07T10:25:23Z</time>
      </trkpt>
      <trkpt lat="45.56087" lon="4.6965">
        <ele>135</ele>
        <time>2012-10-07T10:25:25Z</time>
      </trkpt>
      <trkpt lat="45.56089" lon="4.69652">
        <ele>135</ele>
        <time>2012-10-07T10:25:27Z</time>
      </trkpt>
      <trkpt lat="45.56091" lon="4.69655">
        <ele>135</ele>
        <time>2012-10-07T10:25:29Z</time>
      </trkpt>
      <trkpt lat="45.56092" lon="4.69658">
        <ele>135</ele>
        <time>2012-10-07T10:25:31Z</time>
      </trkpt>
      <trkpt lat="45.56093" lon="4.6966">
        <ele>135</ele>
        <time>2012-10-07T10:25:33Z</time>
      </trkpt>
      <trkpt lat="45.56092" lon="4.69663">
        <ele>135</ele>
        <time>2012-10-07T10:25:35Z</time>
      </trkpt>
      <trkpt lat="45.56092" lon="4.69666">
        <ele>135</ele>
        <time>2012-10-07T10:25:38Z</time>
      </trkpt>
      <trkpt lat="45.56093" lon="4.69668">
        <ele>135</ele>
        <time>2012-10-07T10:25:40Z</time>
      </trkpt>
      <trkpt lat="45.56094" lon="4.69671">
        <ele>135</ele>
        <time>2012-10-07T10:25:42Z</time>
      </trkpt>
      <trkpt lat="45.56096" lon="4.69673">
        <ele>135</ele>
        <time>2012-10-07T10:25:44Z</time>
      </trkpt>
      <trkpt lat="45.56097" lon="4.69678">
        <ele>135</ele>
        <time>2012-10-07T10:25:46Z</time>
      </trkpt>
      <trkpt lat="45.56097" lon="4.69682">
        <ele>136</ele>
        <time>2012-10-07T10:25:48Z</time>
      </trkpt>
      <trkpt lat="45.56098" lon="4.69686">
        <ele>136</ele>
        <time>2012-10-07T10:25:50Z</time>
      </trkpt>
      <trkpt lat="45.56098" lon="4.69691">
        <ele>136</ele>
        <time>2012-10-07T10:25:52Z</time>
      </trkpt>
      <trkpt lat="45.56099" lon="4.69694">
        <ele>135</ele>
        <time>2012-10-07T10:25:54Z</time>
      </trkpt>
      <trkpt lat="45.56099" lon="4.69698">
        <ele>136</ele>
        <time>2012-10-07T10:25:56Z</time>
      </trkpt>
      <trkpt lat="45.561" lon="4.69701">
        <ele>136</ele>
        <time>2012-10-07T10:25:59Z</time>
      </trkpt>
      <trkpt lat="45.56101" lon="4.69704">
        <ele>136</ele>
        <time>2012-10-07T10:26:01Z</time>
      </trkpt>
      <trkpt lat="45.56102" lon="4.69708">
        <ele>136</ele>
        <time>2012-10-07T10:26:03Z</time>
      </trkpt>
      <trkpt lat="45.56103" lon="4.69711">
        <ele>136</ele>
        <time>2012-10-07T10:26:05Z</time>
      </trkpt>
      <trkpt lat="45.56104" lon="4.69715">
        <ele>136</ele>
        <time>2012-10-07T10:26:07Z</time>
      </trkpt>
      <trkpt lat="45.56105" lon="4.69719">
        <ele>136</ele>
        <time>2012-10-07T10:26:09Z</time>
      </trkpt>
      <trkpt lat="45.56106" lon="4.69722">
        <ele>136</ele>
        <time>2012-10-07T10:26:11Z</time>
      </trkpt>
      <trkpt lat="45.56106" lon="4.69724">
        <ele>137</ele>
        <time>2012-10-07T10:26:13Z</time>
      </trkpt>
      <trkpt lat="45.56107" lon="4.69726">
        <ele>136</ele>
        <time>2012-10-07T10:26:15Z</time>
      </trkpt>
      <trkpt lat="45.56107" lon="4.69729">
        <ele>137</ele>
        <time>2012-10-07T10:26:17Z</time>
      </trkpt>
      <trkpt lat="45.56106" lon="4.69731">
        <ele>137</ele>
        <time>2012-10-07T10:26:19Z</time>
      </trkpt>
      <trkpt lat="45.56105" lon="4.69734">
        <ele>137</ele>
        <time>2012-10-07T10:26:21Z</time>
      </trkpt>
      <trkpt lat="45.56105" lon="4.69738">
        <ele>137</ele>
        <time>2012-10-07T10:26:23Z</time>
      </trkpt>
      <trkpt lat="45.56105" lon="4.69741">
        <ele>137</ele>
        <time>2012-10-07T10:26:25Z</time>
      </trkpt>
      <trkpt lat="45.56105" lon="4.69745">
        <ele>138</ele>
        <time>2012-10-07T10:26:28Z</time>
      </trkpt>
      <trkpt lat="45.56104" lon="4.69749">
        <ele>138</ele>
        <time>2012-10-07T10:26:30Z</time>
      </trkpt>
      <trkpt lat="45.56104" lon="4.69753">
        <ele>138</ele>
        <time>2012-10-07T10:26:32Z</time>
      </trkpt>
      <trkpt lat="45.56104" lon="4.69756">
        <ele>139</ele>
        <time>2012-10-07T10:26:34Z</time>
      </trkpt>
      <trkpt lat="45.56103" lon="4.69761">
        <ele>139</ele>
        <time>2012-10-07T10:26:36Z</time>
      </trkpt>
      <trkpt lat="45.56103" lon="4.69764">
        <ele>140</ele>
        <time>2012-10-07T10:26:38Z</time>
      </trkpt>
      <trkpt lat="45.56104" lon="4.69768">
        <ele>140</ele>
        <time>2012-10-07T10:26:40Z</time>
      </trkpt>
      <trkpt lat="45.56105" lon="4.69771">
        <ele>140</ele>
        <time>2012-10-07T10:26:42Z</time>
      </trkpt>
      <trkpt lat="45.56107" lon="4.69773">
        <ele>140</ele>
        <time>2012-10-07T10:26:44Z</time>
      </trkpt>
      <trkpt lat="45.5611" lon="4.69775">
        <ele>141</ele>
        <time>2012-10-07T10:26:46Z</time>
      </trkpt>
      <trkpt lat="45.56113" lon="4.69778">
        <ele>141</ele>
        <time>2012-10-07T10:26:48Z</time>
      </trkpt>
      <trkpt lat="45.56114" lon="4.6978">
        <ele>141</ele>
        <time>2012-10-07T10:26:50Z</time>
      </trkpt>
      <trkpt lat="45.56116" lon="4.69782">
        <ele>141</ele>
        <time>2012-10-07T10:26:52Z</time>
      </trkpt>
      <trkpt lat="45.56117" lon="4.69785">
        <ele>141</ele>
        <time>2012-10-07T10:26:54Z</time>
      </trkpt>
      <trkpt lat="45.56118" lon="4.69787">
        <ele>142</ele>
        <time>2012-10-07T10:26:57Z</time>
      </trkpt>
      <trkpt lat="45.5612" lon="4.6979">
        <ele>142</ele>
        <time>2012-10-07T10:26:59Z</time>
      </trkpt>
      <trkpt lat="45.56121" lon="4.69793">
        <ele>142</ele>
        <time>2012-10-07T10:27:01Z</time>
      </trkpt>
      <trkpt lat="45.56123" lon="4.69796">
        <ele>142</ele>
        <time>2012-10-07T10:27:03Z</time>
      </trkpt>
      <trkpt lat="45.56125" lon="4.698">
        <ele>143</ele>
        <time>2012-10-07T10:27:05Z</time>
      </trkpt>
      <trkpt lat="45.56126" lon="4.69802">
        <ele>143</ele>
        <time>2012-10-07T10:27:07Z</time>
      </trkpt>
      <trkpt lat="45.56128" lon="4.69805">
        <ele>143</ele>
        <time>2012-10-07T10:27:10Z</time>
      </trkpt>
      <trkpt lat="45.5613" lon="4.69808">
        <ele>143</ele>
        <time>2012-10-07T10:27:12Z</time>
      </trkpt>
      <trkpt lat="45.56133" lon="4.6981">
        <ele>143</ele>
        <time>2012-10-07T10:27:14Z</time>
      </trkpt>
      <trkpt lat="45.56134" lon="4.69813">
        <ele>143</ele>
        <time>2012-10-07T10:27:16Z</time>
      </trkpt>
      <trkpt lat="45.56137" lon="4.69815">
        <ele>144</ele>
        <time>2012-10-07T10:27:18Z</time>
      </trkpt>
      <trkpt lat="45.56139" lon="4.69817">
        <ele>144</ele>
        <time>2012-10-07T10:27:20Z</time>
      </trkpt>
      <trkpt lat="45.56141" lon="4.69819">
        <ele>143</ele>
        <time>2012-10-07T10:27:22Z</time>
      </trkpt>
      <trkpt lat="45.56143" lon="4.69821">
        <ele>144</ele>
        <time>2012-10-07T10:27:24Z</time>
      </trkpt>
      <trkpt lat="45.56145" lon="4.69823">
        <ele>144</ele>
        <time>2012-10-07T10:27:26Z</time>
      </trkpt>
      <trkpt lat="45.56146" lon="4.69823">
        <ele>143</ele>
        <time>2012-10-07T10:27:28Z</time>
      </trkpt>
      <trkpt lat="45.56147" lon="4.69824">
        <ele>143</ele>
        <time>2012-10-07T10:27:30Z</time>
      </trkpt>
      <trkpt lat="45.56148" lon="4.69824">
        <ele>143</ele>
        <time>2012-10-07T10:27:32Z</time>
      </trkpt>
      <trkpt lat="45.56149" lon="4.69825">
        <ele>144</ele>
        <time>2012-10-07T10:27:34Z</time>
      </trkpt>
      <trkpt lat="45.5615" lon="4.69827">
        <ele>144</ele>
        <time>2012-10-07T10:27:36Z</time>
      </trkpt>
      <trkpt lat="45.56151" lon="4.6983">
        <ele>144</ele>
        <time>2012-10-07T10:27:38Z</time>
      </trkpt>
      <trkpt lat="45.56153" lon="4.69832">
        <ele>143</ele>
        <time>2012-10-07T10:27:41Z</time>
      </trkpt>
      <trkpt lat="45.56154" lon="4.69834">
        <ele>143</ele>
        <time>2012-10-07T10:27:43Z</time>
      </trkpt>
      <trkpt lat="45.56155" lon="4.69836">
        <ele>143</ele>
        <time>2012-10-07T10:27:45Z</time>
      </trkpt>
      <trkpt lat="45.56156" lon="4.69838">
        <ele>143</ele>
        <time>2012-10-07T10:27:47Z</time>
      </trkpt>
      <trkpt lat="45.56158" lon="4.69841">
        <ele>143</ele>
        <time>2012-10-07T10:27:49Z</time>
      </trkpt>
      <trkpt lat="45.56159" lon="4.69843">
        <ele>143</ele>
        <time>2012-10-07T10:27:51Z</time>
      </trkpt>
      <trkpt lat="45.5616" lon="4.69846">
        <ele>143</ele>
        <time>2012-10-07T10:27:53Z</time>
      </trkpt>
      <trkpt lat="45.56162" lon="4.69849">
        <ele>143</ele>
        <time>2012-10-07T10:27:56Z</time>
      </trkpt>
      <trkpt lat="45.56162" lon="4.69851">
        <ele>143</ele>
        <time>2012-10-07T10:27:58Z</time>
      </trkpt>
      <trkpt lat="45.56163" lon="4.69854">
        <ele>142</ele>
        <time>2012-10-07T10:28:00Z</time>
      </trkpt>
      <trkpt lat="45.56165" lon="4.69856">
        <ele>142</ele>
        <time>2012-10-07T10:28:02Z</time>
      </trkpt>
      <trkpt lat="45.56166" lon="4.6986">
        <ele>142</ele>
        <time>2012-10-07T10:28:04Z</time>
      </trkpt>
      <trkpt lat="45.56167" lon="4.69863">
        <ele>142</ele>
        <time>2012-10-07T10:28:06Z</time>
      </trkpt>
      <trkpt lat="45.56168" lon="4.69865">
        <ele>142</ele>
        <time>2012-10-07T10:28:08Z</time>
      </trkpt>
      <trkpt lat="45.5617" lon="4.69868">
        <ele>142</ele>
        <time>2012-10-07T10:28:10Z</time>
      </trkpt>
      <trkpt lat="45.56171" lon="4.6987">
        <ele>142</ele>
        <time>2012-10-07T10:28:12Z</time>
      </trkpt>
      <trkpt lat="45.56173" lon="4.69873">
        <ele>141</ele>
        <time>2012-10-07T10:28:14Z</time>
      </trkpt>
      <trkpt lat="45.56175" lon="4.69875">
        <ele>141</ele>
        <time>2012-10-07T10:28:17Z</time>
      </trkpt>
      <trkpt lat="45.56176" lon="4.69878">
        <ele>141</ele>
        <time>2012-10-07T10:28:19Z</time>
      </trkpt>
      <trkpt lat="45.56179" lon="4.6988">
        <ele>141</ele>
        <time>2012-10-07T10:28:21Z</time>
      </trkpt>
      <trkpt lat="45.5618" lon="4.69883">
        <ele>141</ele>
        <time>2012-10-07T10:28:23Z</time>
      </trkpt>
      <trkpt lat="45.56182" lon="4.69886">
        <ele>141</ele>
        <time>2012-10-07T10:28:25Z</time>
      </trkpt>
      <trkpt lat="45.56184" lon="4.6989">
        <ele>141</ele>
        <time>2012-10-07T10:28:27Z</time>
      </trkpt>
      <trkpt lat="45.56186" lon="4.69893">
        <ele>141</ele>
        <time>2012-10-07T10:28:29Z</time>
      </trkpt>
      <trkpt lat="45.56187" lon="4.69896">
        <ele>141</ele>
        <time>2012-10-07T10:28:31Z</time>
      </trkpt>
      <trkpt lat="45.56188" lon="4.69899">
        <ele>141</ele>
        <time>2012-10-07T10:28:33Z</time>
      </trkpt>
      <trkpt lat="45.56189" lon="4.69903">
        <ele>141</ele>
        <time>2012-10-07T10:28:36Z</time>
      </trkpt>
      <trkpt lat="45.5619" lon="4.69907">
        <ele>141</ele>
        <time>2012-10-07T10:28:38Z</time>
      </trkpt>
      <trkpt lat="45.56192" lon="4.6991">
        <ele>141</ele>
        <time>2012-10-07T10:28:40Z</time>
      </trkpt>
      <trkpt lat="45.56192" lon="4.69913">
        <ele>141</ele>
        <time>2012-10-07T10:28:42Z</time>
      </trkpt>
      <trkpt lat="45.56193" lon="4.69917">
        <ele>141</ele>
        <time>2012-10-07T10:28:44Z</time>
      </trkpt>
      <trkpt lat="45.56195" lon="4.69923">
        <ele>141</ele>
        <time>2012-10-07T10:28:46Z</time>
      </trkpt>
      <trkpt lat="45.56197" lon="4.69926">
        <ele>141</ele>
        <time>2012-10-07T10:28:48Z</time>
      </trkpt>
      <trkpt lat="45.56198" lon="4.69929">
        <ele>141</ele>
        <time>2012-10-07T10:28:50Z</time>
      </trkpt>
      <trkpt lat="45.56199" lon="4.69932">
        <ele>141</ele>
        <time>2012-10-07T10:28:53Z</time>
      </trkpt>
      <trkpt lat="45.562" lon="4.69936">
        <ele>141</ele>
        <time>2012-10-07T10:28:55Z</time>
      </trkpt>
      <trkpt lat="45.56202" lon="4.69939">
        <ele>141</ele>
        <time>2012-10-07T10:28:57Z</time>
      </trkpt>
      <trkpt lat="45.56203" lon="4.69942">
        <ele>141</ele>
        <time>2012-10-07T10:28:59Z</time>
      </trkpt>
      <trkpt lat="45.56205" lon="4.69947">
        <ele>141</ele>
        <time>2012-10-07T10:29:01Z</time>
      </trkpt>
      <trkpt lat="45.56206" lon="4.6995">
        <ele>141</ele>
        <time>2012-10-07T10:29:03Z</time>
      </trkpt>
      <trkpt lat="45.56207" lon="4.69953">
        <ele>140</ele>
        <time>2012-10-07T10:29:06Z</time>
      </trkpt>
      <trkpt lat="45.56207" lon="4.69956">
        <ele>140</ele>
        <time>2012-10-07T10:29:08Z</time>
      </trkpt>
      <trkpt lat="45.56208" lon="4.69959">
        <ele>140</ele>
        <time>2012-10-07T10:29:10Z</time>
      </trkpt>
      <trkpt lat="45.56208" lon="4.69962">
        <ele>140</ele>
        <time>2012-10-07T10:29:12Z</time>
      </trkpt>
      <trkpt lat="45.56209" lon="4.69965">
        <ele>140</ele>
        <time>2012-10-07T10:29:14Z</time>
      </trkpt>
      <trkpt lat="45.5621" lon="4.6997">
        <ele>140</ele>
        <time>2012-10-07T10:29:16Z</time>
      </trkpt>
      <trkpt lat="45.5621" lon="4.69971">
        <ele>139</ele>
        <time>2012-10-07T10:29:18Z</time>
      </trkpt>
      <trkpt lat="45.5621" lon="4.69976">
        <ele>139</ele>
        <time>2012-10-07T10:29:21Z</time>
      </trkpt>
      <trkpt lat="45.56211" lon="4.69979">
        <ele>139</ele>
        <time>2012-10-07T10:29:23Z</time>
      </trkpt>
      <trkpt lat="45.56211" lon="4.69982">
        <ele>138</ele>
        <time>2012-10-07T10:29:25Z</time>
      </trkpt>
      <trkpt lat="45.56212" lon="4.69987">
        <ele>138</ele>
        <time>2012-10-07T10:29:27Z</time>
      </trkpt>
      <trkpt lat="45.56213" lon="4.69989">
        <ele>138</ele>
        <time>2012-10-07T10:29:29Z</time>
      </trkpt>
      <trkpt lat="45.56214" lon="4.69993">
        <ele>138</ele>
        <time>2012-10-07T10:29:31Z</time>
      </trkpt>
      <trkpt lat="45.56215" lon="4.69997">
        <ele>137</ele>
        <time>2012-10-07T10:29:33Z</time>
      </trkpt>
      <trkpt lat="45.56216" lon="4.7">
        <ele>137</ele>
        <time>2012-10-07T10:29:35Z</time>
      </trkpt>
      <trkpt lat="45.56217" lon="4.70003">
        <ele>137</ele>
        <time>2012-10-07T10:29:37Z</time>
      </trkpt>
      <trkpt lat="45.56217" lon="4.70005">
        <ele>137</ele>
        <time>2012-10-07T10:29:39Z</time>
      </trkpt>
      <trkpt lat="45.56218" lon="4.70009">
        <ele>136</ele>
        <time>2012-10-07T10:29:41Z</time>
      </trkpt>
      <trkpt lat="45.56219" lon="4.70012">
        <ele>136</ele>
        <time>2012-10-07T10:29:44Z</time>
      </trkpt>
      <trkpt lat="45.56219" lon="4.70015">
        <ele>136</ele>
        <time>2012-10-07T10:29:46Z</time>
      </trkpt>
      <trkpt lat="45.5622" lon="4.70019">
        <ele>136</ele>
        <time>2012-10-07T10:29:48Z</time>
      </trkpt>
      <trkpt lat="45.56221" lon="4.70022">
        <ele>136</ele>
        <time>2012-10-07T10:29:50Z</time>
      </trkpt>
      <trkpt lat="45.56222" lon="4.70025">
        <ele>136</ele>
        <time>2012-10-07T10:29:52Z</time>
      </trkpt>
      <trkpt lat="45.56223" lon="4.70029">
        <ele>135</ele>
        <time>2012-10-07T10:29:54Z</time>
      </trkpt>
      <trkpt lat="45.56224" lon="4.70033">
        <ele>135</ele>
        <time>2012-10-07T10:29:56Z</time>
      </trkpt>
      <trkpt lat="45.56225" lon="4.70036">
        <ele>135</ele>
        <time>2012-10-07T10:29:58Z</time>
      </trkpt>
      <trkpt lat="45.56226" lon="4.70039">
        <ele>135</ele>
        <time>2012-10-07T10:30:01Z</time>
      </trkpt>
      <trkpt lat="45.56227" lon="4.70043">
        <ele>135</ele>
        <time>2012-10-07T10:30:03Z</time>
      </trkpt>
      <trkpt lat="45.56227" lon="4.70046">
        <ele>135</ele>
        <time>2012-10-07T10:30:05Z</time>
      </trkpt>
      <trkpt lat="45.56228" lon="4.70049">
        <ele>134</ele>
        <time>2012-10-07T10:30:07Z</time>
      </trkpt>
      <trkpt lat="45.56229" lon="4.70054">
        <ele>135</ele>
        <time>2012-10-07T10:30:09Z</time>
      </trkpt>
      <trkpt lat="45.56229" lon="4.70058">
        <ele>134</ele>
        <time>2012-10-07T10:30:11Z</time>
      </trkpt>
      <trkpt lat="45.5623" lon="4.70062">
        <ele>134</ele>
        <time>2012-10-07T10:30:13Z</time>
      </trkpt>
      <trkpt lat="45.56231" lon="4.70065">
        <ele>134</ele>
        <time>2012-10-07T10:30:15Z</time>
      </trkpt>
      <trkpt lat="45.56232" lon="4.70068">
        <ele>134</ele>
        <time>2012-10-07T10:30:18Z</time>
      </trkpt>
      <trkpt lat="45.56232" lon="4.70071">
        <ele>134</ele>
        <time>2012-10-07T10:30:20Z</time>
      </trkpt>
      <trkpt lat="45.56232" lon="4.70074">
        <ele>134</ele>
        <time>2012-10-07T10:30:22Z</time>
      </trkpt>
      <trkpt lat="45.56232" lon="4.70078">
        <ele>134</ele>
        <time>2012-10-07T10:30:24Z</time>
      </trkpt>
      <trkpt lat="45.56234" lon="4.70082">
        <ele>134</ele>
        <time>2012-10-07T10:30:26Z</time>
      </trkpt>
      <trkpt lat="45.56235" lon="4.70084">
        <ele>134</ele>
        <time>2012-10-07T10:30:28Z</time>
      </trkpt>
      <trkpt lat="45.56236" lon="4.70087">
        <ele>133</ele>
        <time>2012-10-07T10:30:31Z</time>
      </trkpt>
      <trkpt lat="45.56236" lon="4.7009">
        <ele>134</ele>
        <time>2012-10-07T10:30:33Z</time>
      </trkpt>
      <trkpt lat="45.56236" lon="4.70093">
        <ele>134</ele>
        <time>2012-10-07T10:30:35Z</time>
      </trkpt>
      <trkpt lat="45.56235" lon="4.70095">
        <ele>134</ele>
        <time>2012-10-07T10:30:37Z</time>
      </trkpt>
      <trkpt lat="45.56236" lon="4.701">
        <ele>134</ele>
        <time>2012-10-07T10:30:39Z</time>
      </trkpt>
      <trkpt lat="45.56237" lon="4.70104">
        <ele>134</ele>
        <time>2012-10-07T10:30:41Z</time>
      </trkpt>
      <trkpt lat="45.56239" lon="4.70107">
        <ele>134</ele>
        <time>2012-10-07T10:30:43Z</time>
      </trkpt>
      <trkpt lat="45.56239" lon="4.7011">
        <ele>135</ele>
        <time>2012-10-07T10:30:45Z</time>
      </trkpt>
      <trkpt lat="45.5624" lon="4.70114">
        <ele>135</ele>
        <time>2012-10-07T10:30:47Z</time>
      </trkpt>
      <trkpt lat="45.5624" lon="4.70117">
        <ele>135</ele>
        <time>2012-10-07T10:30:49Z</time>
      </trkpt>
      <trkpt lat="45.56242" lon="4.70121">
        <ele>135</ele>
        <time>2012-10-07T10:30:51Z</time>
      </trkpt>
      <trkpt lat="45.56245" lon="4.70124">
        <ele>135</ele>
        <time>2012-10-07T10:30:53Z</time>
      </trkpt>
      <trkpt lat="45.56246" lon="4.70128">
        <ele>135</ele>
        <time>2012-10-07T10:30:55Z</time>
      </trkpt>
      <trkpt lat="45.56247" lon="4.70132">
        <ele>135</ele>
        <time>2012-10-07T10:30:57Z</time>
      </trkpt>
      <trkpt lat="45.56247" lon="4.70135">
        <ele>135</ele>
        <time>2012-10-07T10:31:00Z</time>
      </trkpt>
      <trkpt lat="45.56247" lon="4.70139">
        <ele>135</ele>
        <time>2012-10-07T10:31:02Z</time>
      </trkpt>
      <trkpt lat="45.56247" lon="4.70143">
        <ele>135</ele>
        <time>2012-10-07T10:31:04Z</time>
      </trkpt>
      <trkpt lat="45.56248" lon="4.70146">
        <ele>135</ele>
        <time>2012-10-07T10:31:06Z</time>
      </trkpt>
      <trkpt lat="45.56249" lon="4.70151">
        <ele>135</ele>
        <time>2012-10-07T10:31:08Z</time>
      </trkpt>
      <trkpt lat="45.56249" lon="4.70154">
        <ele>135</ele>
        <time>2012-10-07T10:31:10Z</time>
      </trkpt>
      <trkpt lat="45.56248" lon="4.70158">
        <ele>134</ele>
        <time>2012-10-07T10:31:12Z</time>
      </trkpt>
      <trkpt lat="45.56249" lon="4.70162">
        <ele>135</ele>
        <time>2012-10-07T10:31:14Z</time>
      </trkpt>
      <trkpt lat="45.5625" lon="4.70165">
        <ele>135</ele>
        <time>2012-10-07T10:31:17Z</time>
      </trkpt>
      <trkpt lat="45.5625" lon="4.70168">
        <ele>135</ele>
        <time>2012-10-07T10:31:19Z</time>
      </trkpt>
      <trkpt lat="45.5625" lon="4.70172">
        <ele>134</ele>
        <time>2012-10-07T10:31:21Z</time>
      </trkpt>
      <trkpt lat="45.56251" lon="4.70176">
        <ele>134</ele>
        <time>2012-10-07T10:31:23Z</time>
      </trkpt>
      <trkpt lat="45.56251" lon="4.70181">
        <ele>134</ele>
        <time>2012-10-07T10:31:25Z</time>
      </trkpt>
      <trkpt lat="45.56251" lon="4.70185">
        <ele>134</ele>
        <time>2012-10-07T10:31:27Z</time>
      </trkpt>
      <trkpt lat="45.56251" lon="4.70188">
        <ele>134</ele>
        <time>2012-10-07T10:31:29Z</time>
      </trkpt>
      <trkpt lat="45.56252" lon="4.70192">
        <ele>134</ele>
        <time>2012-10-07T10:31:31Z</time>
      </trkpt>
      <trkpt lat="45.56252" lon="4.70195">
        <ele>134</ele>
        <time>2012-10-07T10:31:34Z</time>
      </trkpt>
      <trkpt lat="45.56253" lon="4.70199">
        <ele>134</ele>
        <time>2012-10-07T10:31:36Z</time>
      </trkpt>
      <trkpt lat="45.56253" lon="4.70202">
        <ele>134</ele>
        <time>2012-10-07T10:31:38Z</time>
      </trkpt>
      <trkpt lat="45.56254" lon="4.70208">
        <ele>134</ele>
        <time>2012-10-07T10:31:40Z</time>
      </trkpt>
      <trkpt lat="45.56255" lon="4.70211">
        <ele>134</ele>
        <time>2012-10-07T10:31:42Z</time>
      </trkpt>
      <trkpt lat="45.56256" lon="4.70215">
        <ele>134</ele>
        <time>2012-10-07T10:31:44Z</time>
      </trkpt>
      <trkpt lat="45.56256" lon="4.70219">
        <ele>134</ele>
        <time>2012-10-07T10:31:46Z</time>
      </trkpt>
      <trkpt lat="45.56256" lon="4.70222">
        <ele>133</ele>
        <time>2012-10-07T10:31:48Z</time>
      </trkpt>
      <trkpt lat="45.56256" lon="4.70225">
        <ele>134</ele>
        <time>2012-10-07T10:31:50Z</time>
      </trkpt>
      <trkpt lat="45.56256" lon="4.70229">
        <ele>134</ele>
        <time>2012-10-07T10:31:52Z</time>
      </trkpt>
      <trkpt lat="45.56255" lon="4.70232">
        <ele>134</ele>
        <time>2012-10-07T10:31:54Z</time>
      </trkpt>
      <trkpt lat="45.56255" lon="4.70236">
        <ele>134</ele>
        <time>2012-10-07T10:31:57Z</time>
      </trkpt>
      <trkpt lat="45.56255" lon="4.70239">
        <ele>133</ele>
        <time>2012-10-07T10:31:59Z</time>
      </trkpt>
      <trkpt lat="45.56255" lon="4.70243">
        <ele>133</ele>
        <time>2012-10-07T10:32:01Z</time>
      </trkpt>
      <trkpt lat="45.56254" lon="4.70246">
        <ele>133</ele>
        <time>2012-10-07T10:32:03Z</time>
      </trkpt>
      <trkpt lat="45.56254" lon="4.70249">
        <ele>133</ele>
        <time>2012-10-07T10:32:05Z</time>
      </trkpt>
      <trkpt lat="45.56253" lon="4.70253">
        <ele>133</ele>
        <time>2012-10-07T10:32:07Z</time>
      </trkpt>
      <trkpt lat="45.56253" lon="4.70256">
        <ele>133</ele>
        <time>2012-10-07T10:32:09Z</time>
      </trkpt>
      <trkpt lat="45.56254" lon="4.70261">
        <ele>133</ele>
        <time>2012-10-07T10:32:11Z</time>
      </trkpt>
      <trkpt lat="45.56254" lon="4.70264">
        <ele>133</ele>
        <time>2012-10-07T10:32:13Z</time>
      </trkpt>
      <trkpt lat="45.56256" lon="4.70267">
        <ele>133</ele>
        <time>2012-10-07T10:32:15Z</time>
      </trkpt>
      <trkpt lat="45.56257" lon="4.7027">
        <ele>133</ele>
        <time>2012-10-07T10:32:17Z</time>
      </trkpt>
      <trkpt lat="45.56259" lon="4.70273">
        <ele>133</ele>
        <time>2012-10-07T10:32:19Z</time>
      </trkpt>
      <trkpt lat="45.5626" lon="4.70275">
        <ele>133</ele>
        <time>2012-10-07T10:32:21Z</time>
      </trkpt>
      <trkpt lat="45.56261" lon="4.70279">
        <ele>133</ele>
        <time>2012-10-07T10:32:23Z</time>
      </trkpt>
      <trkpt lat="45.56261" lon="4.70282">
        <ele>133</ele>
        <time>2012-10-07T10:32:25Z</time>
      </trkpt>
      <trkpt lat="45.56262" lon="4.70284">
        <ele>133</ele>
        <time>2012-10-07T10:32:28Z</time>
      </trkpt>
      <trkpt lat="45.56263" lon="4.70287">
        <ele>133</ele>
        <time>2012-10-07T10:32:30Z</time>
      </trkpt>
      <trkpt lat="45.56264" lon="4.70289">
        <ele>133</ele>
        <time>2012-10-07T10:32:32Z</time>
      </trkpt>
      <trkpt lat="45.56266" lon="4.70293">
        <ele>133</ele>
        <time>2012-10-07T10:32:34Z</time>
      </trkpt>
      <trkpt lat="45.56267" lon="4.70296">
        <ele>133</ele>
        <time>2012-10-07T10:32:36Z</time>
      </trkpt>
      <trkpt lat="45.56268" lon="4.70299">
        <ele>133</ele>
        <time>2012-10-07T10:32:38Z</time>
      </trkpt>
      <trkpt lat="45.56269" lon="4.70301">
        <ele>133</ele>
        <time>2012-10-07T10:32:40Z</time>
      </trkpt>
      <trkpt lat="45.56271" lon="4.70304">
        <ele>132</ele>
        <time>2012-10-07T10:32:42Z</time>
      </trkpt>
      <trkpt lat="45.56272" lon="4.70308">
        <ele>132</ele>
        <time>2012-10-07T10:32:44Z</time>
      </trkpt>
      <trkpt lat="45.56273" lon="4.70311">
        <ele>132</ele>
        <time>2012-10-07T10:32:46Z</time>
      </trkpt>
      <trkpt lat="45.56274" lon="4.70314">
        <ele>132</ele>
        <time>2012-10-07T10:32:48Z</time>
      </trkpt>
      <trkpt lat="45.56275" lon="4.70317">
        <ele>132</ele>
        <time>2012-10-07T10:32:50Z</time>
      </trkpt>
      <trkpt lat="45.56276" lon="4.7032">
        <ele>132</ele>
        <time>2012-10-07T10:32:53Z</time>
      </trkpt>
      <trkpt lat="45.56278" lon="4.70322">
        <ele>132</ele>
        <time>2012-10-07T10:32:55Z</time>
      </trkpt>
      <trkpt lat="45.56279" lon="4.70325">
        <ele>132</ele>
        <time>2012-10-07T10:32:57Z</time>
      </trkpt>
      <trkpt lat="45.56279" lon="4.70327">
        <ele>132</ele>
        <time>2012-10-07T10:32:59Z</time>
      </trkpt>
      <trkpt lat="45.56279" lon="4.7033">
        <ele>132</ele>
        <time>2012-10-07T10:33:01Z</time>
      </trkpt>
      <trkpt lat="45.56281" lon="4.70335">
        <ele>132</ele>
        <time>2012-10-07T10:33:03Z</time>
      </trkpt>
      <trkpt lat="45.56282" lon="4.70338">
        <ele>132</ele>
        <time>2012-10-07T10:33:05Z</time>
      </trkpt>
      <trkpt lat="45.56283" lon="4.70341">
        <ele>132</ele>
        <time>2012-10-07T10:33:07Z</time>
      </trkpt>
      <trkpt lat="45.56284" lon="4.70345">
        <ele>132</ele>
        <time>2012-10-07T10:33:09Z</time>
      </trkpt>
      <trkpt lat="45.56285" lon="4.70349">
        <ele>132</ele>
        <time>2012-10-07T10:33:11Z</time>
      </trkpt>
      <trkpt lat="45.56284" lon="4.70352">
        <ele>132</ele>
        <time>2012-10-07T10:33:13Z</time>
      </trkpt>
      <trkpt lat="45.56285" lon="4.70355">
        <ele>132</ele>
        <time>2012-10-07T10:33:15Z</time>
      </trkpt>
      <trkpt lat="45.56284" lon="4.70358">
        <ele>132</ele>
        <time>2012-10-07T10:33:17Z</time>
      </trkpt>
      <trkpt lat="45.56283" lon="4.70362">
        <ele>132</ele>
        <time>2012-10-07T10:33:19Z</time>
      </trkpt>
      <trkpt lat="45.5628" lon="4.70365">
        <ele>132</ele>
        <time>2012-10-07T10:33:22Z</time>
      </trkpt>
      <trkpt lat="45.56277" lon="4.70366">
        <ele>132</ele>
        <time>2012-10-07T10:33:24Z</time>
      </trkpt>
      <trkpt lat="45.56277" lon="4.70369">
        <ele>132</ele>
        <time>2012-10-07T10:33:26Z</time>
      </trkpt>
      <trkpt lat="45.56279" lon="4.70372">
        <ele>132</ele>
        <time>2012-10-07T10:33:28Z</time>
      </trkpt>
      <trkpt lat="45.56281" lon="4.70375">
        <ele>132</ele>
        <time>2012-10-07T10:33:30Z</time>
      </trkpt>
      <trkpt lat="45.56281" lon="4.70378">
        <ele>132</ele>
        <time>2012-10-07T10:33:32Z</time>
      </trkpt>
      <trkpt lat="45.56281" lon="4.70382">
        <ele>132</ele>
        <time>2012-10-07T10:33:34Z</time>
      </trkpt>
      <trkpt lat="45.56284" lon="4.70385">
        <ele>132</ele>
        <time>2012-10-07T10:33:36Z</time>
      </trkpt>
      <trkpt lat="45.56286" lon="4.70387">
        <ele>131</ele>
        <time>2012-10-07T10:33:38Z</time>
      </trkpt>
      <trkpt lat="45.56287" lon="4.7039">
        <ele>132</ele>
        <time>2012-10-07T10:33:40Z</time>
      </trkpt>
      <trkpt lat="45.56289" lon="4.70393">
        <ele>132</ele>
        <time>2012-10-07T10:33:42Z</time>
      </trkpt>
      <trkpt lat="45.56291" lon="4.70396">
        <ele>132</ele>
        <time>2012-10-07T10:33:44Z</time>
      </trkpt>
      <trkpt lat="45.56293" lon="4.70398">
        <ele>132</ele>
        <time>2012-10-07T10:33:46Z</time>
      </trkpt>
      <trkpt lat="45.56295" lon="4.704">
        <ele>132</ele>
        <time>2012-10-07T10:33:48Z</time>
      </trkpt>
      <trkpt lat="45.56297" lon="4.70403">
        <ele>132</ele>
        <time>2012-10-07T10:33:50Z</time>
      </trkpt>
      <trkpt lat="45.56299" lon="4.70406">
        <ele>132</ele>
        <time>2012-10-07T10:33:52Z</time>
      </trkpt>
      <trkpt lat="45.56301" lon="4.70409">
        <ele>132</ele>
        <time>2012-10-07T10:33:54Z</time>
      </trkpt>
      <trkpt lat="45.56303" lon="4.70413">
        <ele>132</ele>
        <time>2012-10-07T10:33:57Z</time>
      </trkpt>
      <trkpt lat="45.56306" lon="4.70416">
        <ele>132</ele>
        <time>2012-10-07T10:33:59Z</time>
      </trkpt>
      <trkpt lat="45.56309" lon="4.70419">
        <ele>132</ele>
        <time>2012-10-07T10:34:01Z</time>
      </trkpt>
      <trkpt lat="45.56311" lon="4.70421">
        <ele>132</ele>
        <time>2012-10-07T10:34:03Z</time>
      </trkpt>
      <trkpt lat="45.56314" lon="4.70423">
        <ele>132</ele>
        <time>2012-10-07T10:34:05Z</time>
      </trkpt>
      <trkpt lat="45.56315" lon="4.70425">
        <ele>132</ele>
        <time>2012-10-07T10:34:07Z</time>
      </trkpt>
      <trkpt lat="45.56317" lon="4.70427">
        <ele>132</ele>
        <time>2012-10-07T10:34:09Z</time>
      </trkpt>
      <trkpt lat="45.56319" lon="4.7043">
        <ele>132</ele>
        <time>2012-10-07T10:34:11Z</time>
      </trkpt>
      <trkpt lat="45.56321" lon="4.70432">
        <ele>132</ele>
        <time>2012-10-07T10:34:13Z</time>
      </trkpt>
      <trkpt lat="45.56323" lon="4.70435">
        <ele>132</ele>
        <time>2012-10-07T10:34:15Z</time>
      </trkpt>
      <trkpt lat="45.56323" lon="4.70438">
        <ele>132</ele>
        <time>2012-10-07T10:34:17Z</time>
      </trkpt>
      <trkpt lat="45.56324" lon="4.7044">
        <ele>132</ele>
        <time>2012-10-07T10:34:19Z</time>
      </trkpt>
      <trkpt lat="45.56326" lon="4.70442">
        <ele>132</ele>
        <time>2012-10-07T10:34:21Z</time>
      </trkpt>
      <trkpt lat="45.56328" lon="4.70444">
        <ele>132</ele>
        <time>2012-10-07T10:34:24Z</time>
      </trkpt>
      <trkpt lat="45.5633" lon="4.70446">
        <ele>132</ele>
        <time>2012-10-07T10:34:26Z</time>
      </trkpt>
      <trkpt lat="45.56331" lon="4.70448">
        <ele>132</ele>
        <time>2012-10-07T10:34:28Z</time>
      </trkpt>
      <trkpt lat="45.56333" lon="4.70452">
        <ele>132</ele>
        <time>2012-10-07T10:34:30Z</time>
      </trkpt>
      <trkpt lat="45.56335" lon="4.70454">
        <ele>132</ele>
        <time>2012-10-07T10:34:32Z</time>
      </trkpt>
      <trkpt lat="45.56337" lon="4.70458">
        <ele>132</ele>
        <time>2012-10-07T10:34:34Z</time>
      </trkpt>
      <trkpt lat="45.56341" lon="4.7046">
        <ele>132</ele>
        <time>2012-10-07T10:34:36Z</time>
      </trkpt>
      <trkpt lat="45.56342" lon="4.70462">
        <ele>131</ele>
        <time>2012-10-07T10:34:38Z</time>
      </trkpt>
      <trkpt lat="45.56344" lon="4.70465">
        <ele>132</ele>
        <time>2012-10-07T10:34:40Z</time>
      </trkpt>
      <trkpt lat="45.56345" lon="4.70466">
        <ele>132</ele>
        <time>2012-10-07T10:34:42Z</time>
      </trkpt>
      <trkpt lat="45.56347" lon="4.70468">
        <ele>132</ele>
        <time>2012-10-07T10:34:44Z</time>
      </trkpt>
      <trkpt lat="45.56349" lon="4.7047">
        <ele>132</ele>
        <time>2012-10-07T10:34:46Z</time>
      </trkpt>
      <trkpt lat="45.5635" lon="4.70472">
        <ele>131</ele>
        <time>2012-10-07T10:34:48Z</time>
      </trkpt>
      <trkpt lat="45.56351" lon="4.70473">
        <ele>132</ele>
        <time>2012-10-07T10:34:50Z</time>
      </trkpt>
      <trkpt lat="45.56353" lon="4.70475">
        <ele>132</ele>
        <time>2012-10-07T10:34:52Z</time>
      </trkpt>
      <trkpt lat="45.56354" lon="4.70478">
        <ele>132</ele>
        <time>2012-10-07T10:34:55Z</time>
      </trkpt>
      <trkpt lat="45.56354" lon="4.7048">
        <ele>132</ele>
        <time>2012-10-07T10:34:57Z</time>
      </trkpt>
      <trkpt lat="45.56355" lon="4.70483">
        <ele>132</ele>
        <time>2012-10-07T10:34:59Z</time>
      </trkpt>
      <trkpt lat="45.56359" lon="4.70487">
        <ele>132</ele>
        <time>2012-10-07T10:35:01Z</time>
      </trkpt>
      <trkpt lat="45.56359" lon="4.70487">
        <ele>132</ele>
        <time>2012-10-07T10:35:03Z</time>
      </trkpt>
      <trkpt lat="45.5636" lon="4.70489">
        <ele>132</ele>
        <time>2012-10-07T10:35:05Z</time>
      </trkpt>
      <trkpt lat="45.56361" lon="4.7049">
        <ele>131</ele>
        <time>2012-10-07T10:35:07Z</time>
      </trkpt>
      <trkpt lat="45.56364" lon="4.70492">
        <ele>131</ele>
        <time>2012-10-07T10:35:09Z</time>
      </trkpt>
      <trkpt lat="45.56366" lon="4.70493">
        <ele>132</ele>
        <time>2012-10-07T10:35:12Z</time>
      </trkpt>
      <trkpt lat="45.56368" lon="4.70496">
        <ele>132</ele>
        <time>2012-10-07T10:35:14Z</time>
      </trkpt>
      <trkpt lat="45.56371" lon="4.70498">
        <ele>132</ele>
        <time>2012-10-07T10:35:16Z</time>
      </trkpt>
      <trkpt lat="45.56374" lon="4.705">
        <ele>132</ele>
        <time>2012-10-07T10:35:18Z</time>
      </trkpt>
      <trkpt lat="45.56379" lon="4.70503">
        <ele>132</ele>
        <time>2012-10-07T10:35:20Z</time>
      </trkpt>
      <trkpt lat="45.56381" lon="4.70505">
        <ele>132</ele>
        <time>2012-10-07T10:35:22Z</time>
      </trkpt>
      <trkpt lat="45.56385" lon="4.70507">
        <ele>132</ele>
        <time>2012-10-07T10:35:24Z</time>
      </trkpt>
      <trkpt lat="45.56387" lon="4.7051">
        <ele>132</ele>
        <time>2012-10-07T10:35:26Z</time>
      </trkpt>
      <trkpt lat="45.5639" lon="4.70512">
        <ele>132</ele>
        <time>2012-10-07T10:35:28Z</time>
      </trkpt>
      <trkpt lat="45.56391" lon="4.70512">
        <ele>132</ele>
        <time>2012-10-07T10:35:30Z</time>
      </trkpt>
      <trkpt lat="45.56393" lon="4.70515">
        <ele>132</ele>
        <time>2012-10-07T10:35:32Z</time>
      </trkpt>
      <trkpt lat="45.56397" lon="4.70518">
        <ele>132</ele>
        <time>2012-10-07T10:35:34Z</time>
      </trkpt>
      <trkpt lat="45.564" lon="4.70521">
        <ele>131</ele>
        <time>2012-10-07T10:35:36Z</time>
      </trkpt>
      <trkpt lat="45.56403" lon="4.70525">
        <ele>131</ele>
        <time>2012-10-07T10:35:38Z</time>
      </trkpt>
      <trkpt lat="45.56406" lon="4.70529">
        <ele>132</ele>
        <time>2012-10-07T10:35:41Z</time>
      </trkpt>
      <trkpt lat="45.56409" lon="4.70532">
        <ele>132</ele>
        <time>2012-10-07T10:35:43Z</time>
      </trkpt>
      <trkpt lat="45.56411" lon="4.70534">
        <ele>132</ele>
        <time>2012-10-07T10:35:45Z</time>
      </trkpt>
      <trkpt lat="45.56414" lon="4.70537">
        <ele>132</ele>
        <time>2012-10-07T10:35:47Z</time>
      </trkpt>
      <trkpt lat="45.56417" lon="4.7054">
        <ele>131</ele>
        <time>2012-10-07T10:35:49Z</time>
      </trkpt>
      <trkpt lat="45.56419" lon="4.70543">
        <ele>131</ele>
        <time>2012-10-07T10:35:51Z</time>
      </trkpt>
      <trkpt lat="45.56421" lon="4.70544">
        <ele>131</ele>
        <time>2012-10-07T10:35:53Z</time>
      </trkpt>
      <trkpt lat="45.56423" lon="4.70546">
        <ele>131</ele>
        <time>2012-10-07T10:35:55Z</time>
      </trkpt>
      <trkpt lat="45.56425" lon="4.70548">
        <ele>132</ele>
        <time>2012-10-07T10:35:57Z</time>
      </trkpt>
      <trkpt lat="45.56427" lon="4.70548">
        <ele>132</ele>
        <time>2012-10-07T10:35:59Z</time>
      </trkpt>
      <trkpt lat="45.56429" lon="4.70548">
        <ele>132</ele>
        <time>2012-10-07T10:36:01Z</time>
      </trkpt>
      <trkpt lat="45.5643" lon="4.70548">
        <ele>131</ele>
        <time>2012-10-07T10:36:03Z</time>
      </trkpt>
      <trkpt lat="45.56432" lon="4.70549">
        <ele>131</ele>
        <time>2012-10-07T10:36:05Z</time>
      </trkpt>
      <trkpt lat="45.56434" lon="4.70549">
        <ele>131</ele>
        <time>2012-10-07T10:36:07Z</time>
      </trkpt>
      <trkpt lat="45.56437" lon="4.7055">
        <ele>131</ele>
        <time>2012-10-07T10:36:10Z</time>
      </trkpt>
      <trkpt lat="45.56439" lon="4.70552">
        <ele>132</ele>
        <time>2012-10-07T10:36:12Z</time>
      </trkpt>
      <trkpt lat="45.56442" lon="4.70557">
        <ele>132</ele>
        <time>2012-10-07T10:36:14Z</time>
      </trkpt>
      <trkpt lat="45.56445" lon="4.7056">
        <ele>132</ele>
        <time>2012-10-07T10:36:16Z</time>
      </trkpt>
      <trkpt lat="45.56447" lon="4.70562">
        <ele>132</ele>
        <time>2012-10-07T10:36:18Z</time>
      </trkpt>
      <trkpt lat="45.56449" lon="4.70564">
        <ele>132</ele>
        <time>2012-10-07T10:36:20Z</time>
      </trkpt>
      <trkpt lat="45.56451" lon="4.70565">
        <ele>132</ele>
        <time>2012-10-07T10:36:23Z</time>
      </trkpt>
      <trkpt lat="45.56453" lon="4.70566">
        <ele>132</ele>
        <time>2012-10-07T10:36:25Z</time>
      </trkpt>
      <trkpt lat="45.56455" lon="4.70568">
        <ele>132</ele>
        <time>2012-10-07T10:36:27Z</time>
      </trkpt>
      <trkpt lat="45.56456" lon="4.7057">
        <ele>132</ele>
        <time>2012-10-07T10:36:29Z</time>
      </trkpt>
      <trkpt lat="45.56459" lon="4.70572">
        <ele>132</ele>
        <time>2012-10-07T10:36:31Z</time>
      </trkpt>
      <trkpt lat="45.56461" lon="4.70575">
        <ele>132</ele>
        <time>2012-10-07T10:36:33Z</time>
      </trkpt>
      <trkpt lat="45.56464" lon="4.70577">
        <ele>132</ele>
        <time>2012-10-07T10:36:35Z</time>
      </trkpt>
      <trkpt lat="45.56467" lon="4.7058">
        <ele>132</ele>
        <time>2012-10-07T10:36:37Z</time>
      </trkpt>
      <trkpt lat="45.5647" lon="4.70581">
        <ele>132</ele>
        <time>2012-10-07T10:36:39Z</time>
      </trkpt>
      <trkpt lat="45.56472" lon="4.70583">
        <ele>132</ele>
        <time>2012-10-07T10:36:41Z</time>
      </trkpt>
      <trkpt lat="45.56474" lon="4.70586">
        <ele>132</ele>
        <time>2012-10-07T10:36:43Z</time>
      </trkpt>
      <trkpt lat="45.56476" lon="4.70589">
        <ele>132</ele>
        <time>2012-10-07T10:36:45Z</time>
      </trkpt>
      <trkpt lat="45.56477" lon="4.70592">
        <ele>132</ele>
        <time>2012-10-07T10:36:47Z</time>
      </trkpt>
      <trkpt lat="45.56479" lon="4.70594">
        <ele>132</ele>
        <time>2012-10-07T10:36:49Z</time>
      </trkpt>
      <trkpt lat="45.56481" lon="4.70596">
        <ele>132</ele>
        <time>2012-10-07T10:36:52Z</time>
      </trkpt>
      <trkpt lat="45.56483" lon="4.70598">
        <ele>132</ele>
        <time>2012-10-07T10:36:54Z</time>
      </trkpt>
      <trkpt lat="45.56485" lon="4.706">
        <ele>133</ele>
        <time>2012-10-07T10:36:56Z</time>
      </trkpt>
      <trkpt lat="45.56487" lon="4.70601">
        <ele>132</ele>
        <time>2012-10-07T10:36:58Z</time>
      </trkpt>
      <trkpt lat="45.5649" lon="4.70601">
        <ele>133</ele>
        <time>2012-10-07T10:37:00Z</time>
      </trkpt>
      <trkpt lat="45.56492" lon="4.70602">
        <ele>133</ele>
        <time>2012-10-07T10:37:02Z</time>
      </trkpt>
      <trkpt lat="45.56495" lon="4.70601">
        <ele>133</ele>
        <time>2012-10-07T10:37:04Z</time>
      </trkpt>
      <trkpt lat="45.56498" lon="4.706">
        <ele>133</ele>
        <time>2012-10-07T10:37:06Z</time>
      </trkpt>
      <trkpt lat="45.56501" lon="4.70599">
        <ele>133</ele>
        <time>2012-10-07T10:37:09Z</time>
      </trkpt>
      <trkpt lat="45.56504" lon="4.70598">
        <ele>133</ele>
        <time>2012-10-07T10:37:11Z</time>
      </trkpt>
      <trkpt lat="45.56506" lon="4.70596">
        <ele>133</ele>
        <time>2012-10-07T10:37:13Z</time>
      </trkpt>
      <trkpt lat="45.56507" lon="4.70593">
        <ele>133</ele>
        <time>2012-10-07T10:37:15Z</time>
      </trkpt>
      <trkpt lat="45.56508" lon="4.7059">
        <ele>133</ele>
        <time>2012-10-07T10:37:17Z</time>
      </trkpt>
      <trkpt lat="45.56509" lon="4.70586">
        <ele>134</ele>
        <time>2012-10-07T10:37:19Z</time>
      </trkpt>
      <trkpt lat="45.56511" lon="4.70583">
        <ele>134</ele>
        <time>2012-10-07T10:37:21Z</time>
      </trkpt>
      <trkpt lat="45.56512" lon="4.70577">
        <ele>134</ele>
        <time>2012-10-07T10:37:23Z</time>
      </trkpt>
      <trkpt lat="45.56513" lon="4.70573">
        <ele>133</ele>
        <time>2012-10-07T10:37:25Z</time>
      </trkpt>
      <trkpt lat="45.56513" lon="4.7057">
        <ele>134</ele>
        <time>2012-10-07T10:37:27Z</time>
      </trkpt>
      <trkpt lat="45.56514" lon="4.70566">
        <ele>133</ele>
        <time>2012-10-07T10:37:29Z</time>
      </trkpt>
      <trkpt lat="45.56514" lon="4.70563">
        <ele>134</ele>
        <time>2012-10-07T10:37:31Z</time>
      </trkpt>
      <trkpt lat="45.56514" lon="4.70559">
        <ele>134</ele>
        <time>2012-10-07T10:37:33Z</time>
      </trkpt>
      <trkpt lat="45.56515" lon="4.70555">
        <ele>133</ele>
        <time>2012-10-07T10:37:35Z</time>
      </trkpt>
      <trkpt lat="45.56515" lon="4.70552">
        <ele>134</ele>
        <time>2012-10-07T10:37:38Z</time>
      </trkpt>
      <trkpt lat="45.56515" lon="4.70549">
        <ele>133</ele>
        <time>2012-10-07T10:37:40Z</time>
      </trkpt>
      <trkpt lat="45.56516" lon="4.70545">
        <ele>133</ele>
        <time>2012-10-07T10:37:42Z</time>
      </trkpt>
      <trkpt lat="45.56516" lon="4.7054">
        <ele>133</ele>
        <time>2012-10-07T10:37:44Z</time>
      </trkpt>
      <trkpt lat="45.56516" lon="4.70537">
        <ele>134</ele>
        <time>2012-10-07T10:37:46Z</time>
      </trkpt>
      <trkpt lat="45.56516" lon="4.70534">
        <ele>134</ele>
        <time>2012-10-07T10:37:48Z</time>
      </trkpt>
      <trkpt lat="45.56516" lon="4.70531">
        <ele>134</ele>
        <time>2012-10-07T10:37:50Z</time>
      </trkpt>
      <trkpt lat="45.56516" lon="4.70528">
        <ele>134</ele>
        <time>2012-10-07T10:37:53Z</time>
      </trkpt>
      <trkpt lat="45.56516" lon="4.70524">
        <ele>134</ele>
        <time>2012-10-07T10:37:55Z</time>
      </trkpt>
      <trkpt lat="45.56516" lon="4.70521">
        <ele>134</ele>
        <time>2012-10-07T10:37:57Z</time>
      </trkpt>
      <trkpt lat="45.56517" lon="4.70516">
        <ele>134</ele>
        <time>2012-10-07T10:37:59Z</time>
      </trkpt>
      <trkpt lat="45.56517" lon="4.70513">
        <ele>134</ele>
        <time>2012-10-07T10:38:01Z</time>
      </trkpt>
      <trkpt lat="45.56518" lon="4.70509">
        <ele>134</ele>
        <time>2012-10-07T10:38:03Z</time>
      </trkpt>
      <trkpt lat="45.56519" lon="4.70506">
        <ele>134</ele>
        <time>2012-10-07T10:38:05Z</time>
      </trkpt>
      <trkpt lat="45.56519" lon="4.70503">
        <ele>134</ele>
        <time>2012-10-07T10:38:07Z</time>
      </trkpt>
      <trkpt lat="45.5652" lon="4.70499">
        <ele>134</ele>
        <time>2012-10-07T10:38:10Z</time>
      </trkpt>
      <trkpt lat="45.5652" lon="4.70496">
        <ele>134</ele>
        <time>2012-10-07T10:38:12Z</time>
      </trkpt>
      <trkpt lat="45.56521" lon="4.70491">
        <ele>134</ele>
        <time>2012-10-07T10:38:14Z</time>
      </trkpt>
      <trkpt lat="45.56521" lon="4.70487">
        <ele>134</ele>
        <time>2012-10-07T10:38:16Z</time>
      </trkpt>
      <trkpt lat="45.56521" lon="4.70483">
        <ele>134</ele>
        <time>2012-10-07T10:38:18Z</time>
      </trkpt>
      <trkpt lat="45.56522" lon="4.7048">
        <ele>134</ele>
        <time>2012-10-07T10:38:20Z</time>
      </trkpt>
      <trkpt lat="45.56524" lon="4.70478">
        <ele>134</ele>
        <time>2012-10-07T10:38:22Z</time>
      </trkpt>
      <trkpt lat="45.56524" lon="4.70474">
        <ele>134</ele>
        <time>2012-10-07T10:38:24Z</time>
      </trkpt>
      <trkpt lat="45.56524" lon="4.70471">
        <ele>134</ele>
        <time>2012-10-07T10:38:26Z</time>
      </trkpt>
      <trkpt lat="45.56525" lon="4.70468">
        <ele>134</ele>
        <time>2012-10-07T10:38:28Z</time>
      </trkpt>
      <trkpt lat="45.56525" lon="4.70464">
        <ele>134</ele>
        <time>2012-10-07T10:38:30Z</time>
      </trkpt>
      <trkpt lat="45.56526" lon="4.70461">
        <ele>134</ele>
        <time>2012-10-07T10:38:32Z</time>
      </trkpt>
      <trkpt lat="45.56526" lon="4.70458">
        <ele>135</ele>
        <time>2012-10-07T10:38:34Z</time>
      </trkpt>
      <trkpt lat="45.56527" lon="4.70455">
        <ele>135</ele>
        <time>2012-10-07T10:38:36Z</time>
      </trkpt>
      <trkpt lat="45.56526" lon="4.70451">
        <ele>135</ele>
        <time>2012-10-07T10:38:39Z</time>
      </trkpt>
      <trkpt lat="45.56527" lon="4.70448">
        <ele>135</ele>
        <time>2012-10-07T10:38:41Z</time>
      </trkpt>
      <trkpt lat="45.56526" lon="4.70445">
        <ele>135</ele>
        <time>2012-10-07T10:38:43Z</time>
      </trkpt>
      <trkpt lat="45.56526" lon="4.70442">
        <ele>135</ele>
        <time>2012-10-07T10:38:45Z</time>
      </trkpt>
      <trkpt lat="45.56527" lon="4.70439">
        <ele>136</ele>
        <time>2012-10-07T10:38:47Z</time>
      </trkpt>
      <trkpt lat="45.56527" lon="4.70436">
        <ele>136</ele>
        <time>2012-10-07T10:38:49Z</time>
      </trkpt>
      <trkpt lat="45.56528" lon="4.70432">
        <ele>136</ele>
        <time>2012-10-07T10:38:51Z</time>
      </trkpt>
      <trkpt lat="45.56529" lon="4.7043">
        <ele>136</ele>
        <time>2012-10-07T10:38:53Z</time>
      </trkpt>
      <trkpt lat="45.5653" lon="4.70427">
        <ele>136</ele>
        <time>2012-10-07T10:38:55Z</time>
      </trkpt>
      <trkpt lat="45.56532" lon="4.70423">
        <ele>137</ele>
        <time>2012-10-07T10:38:57Z</time>
      </trkpt>
      <trkpt lat="45.56533" lon="4.7042">
        <ele>137</ele>
        <time>2012-10-07T10:38:59Z</time>
      </trkpt>
      <trkpt lat="45.56533" lon="4.70417">
        <ele>137</ele>
        <time>2012-10-07T10:39:01Z</time>
      </trkpt>
      <trkpt lat="45.56535" lon="4.70415">
        <ele>137</ele>
        <time>2012-10-07T10:39:03Z</time>
      </trkpt>
      <trkpt lat="45.56535" lon="4.70412">
        <ele>137</ele>
        <time>2012-10-07T10:39:05Z</time>
      </trkpt>
      <trkpt lat="45.56536" lon="4.70409">
        <ele>138</ele>
        <time>2012-10-07T10:39:08Z</time>
      </trkpt>
      <trkpt lat="45.56538" lon="4.70406">
        <ele>138</ele>
        <time>2012-10-07T10:39:10Z</time>
      </trkpt>
      <trkpt lat="45.56539" lon="4.70403">
        <ele>138</ele>
        <time>2012-10-07T10:39:12Z</time>
      </trkpt>
      <trkpt lat="45.56541" lon="4.704">
        <ele>138</ele>
        <time>2012-10-07T10:39:14Z</time>
      </trkpt>
      <trkpt lat="45.56542" lon="4.70398">
        <ele>138</ele>
        <time>2012-10-07T10:39:16Z</time>
      </trkpt>
      <trkpt lat="45.56543" lon="4.70395">
        <ele>138</ele>
        <time>2012-10-07T10:39:18Z</time>
      </trkpt>
      <trkpt lat="45.56545" lon="4.70393">
        <ele>139</ele>
        <time>2012-10-07T10:39:20Z</time>
      </trkpt>
      <trkpt lat="45.56546" lon="4.7039">
        <ele>139</ele>
        <time>2012-10-07T10:39:22Z</time>
      </trkpt>
      <trkpt lat="45.56548" lon="4.70388">
        <ele>139</ele>
        <time>2012-10-07T10:39:25Z</time>
      </trkpt>
      <trkpt lat="45.56548" lon="4.70386">
        <ele>139</ele>
        <time>2012-10-07T10:39:27Z</time>
      </trkpt>
      <trkpt lat="45.5655" lon="4.70383">
        <ele>139</ele>
        <time>2012-10-07T10:39:29Z</time>
      </trkpt>
      <trkpt lat="45.56552" lon="4.70382">
        <ele>139</ele>
        <time>2012-10-07T10:39:31Z</time>
      </trkpt>
      <trkpt lat="45.56554" lon="4.70379">
        <ele>139</ele>
        <time>2012-10-07T10:39:33Z</time>
      </trkpt>
      <trkpt lat="45.56555" lon="4.70377">
        <ele>139</ele>
        <time>2012-10-07T10:39:35Z</time>
      </trkpt>
      <trkpt lat="45.56556" lon="4.70374">
        <ele>139</ele>
        <time>2012-10-07T10:39:37Z</time>
      </trkpt>
      <trkpt lat="45.56558" lon="4.70372">
        <ele>139</ele>
        <time>2012-10-07T10:39:39Z</time>
      </trkpt>
      <trkpt lat="45.56559" lon="4.70369">
        <ele>139</ele>
        <time>2012-10-07T10:39:41Z</time>
      </trkpt>
      <trkpt lat="45.56561" lon="4.70367">
        <ele>139</ele>
        <time>2012-10-07T10:39:43Z</time>
      </trkpt>
      <trkpt lat="45.56563" lon="4.70364">
        <ele>140</ele>
        <time>2012-10-07T10:39:45Z</time>
      </trkpt>
      <trkpt lat="45.56564" lon="4.70362">
        <ele>140</ele>
        <time>2012-10-07T10:39:47Z</time>
      </trkpt>
      <trkpt lat="45.56566" lon="4.70359">
        <ele>140</ele>
        <time>2012-10-07T10:39:49Z</time>
      </trkpt>
      <trkpt lat="45.56568" lon="4.70356">
        <ele>140</ele>
        <time>2012-10-07T10:39:51Z</time>
      </trkpt>
      <trkpt lat="45.56569" lon="4.70354">
        <ele>140</ele>
        <time>2012-10-07T10:39:53Z</time>
      </trkpt>
      <trkpt lat="45.5657" lon="4.70351">
        <ele>140</ele>
        <time>2012-10-07T10:39:55Z</time>
      </trkpt>
      <trkpt lat="45.56571" lon="4.70349">
        <ele>141</ele>
        <time>2012-10-07T10:39:57Z</time>
      </trkpt>
      <trkpt lat="45.56572" lon="4.70346">
        <ele>141</ele>
        <time>2012-10-07T10:40:00Z</time>
      </trkpt>
      <trkpt lat="45.56572" lon="4.70343">
        <ele>141</ele>
        <time>2012-10-07T10:40:02Z</time>
      </trkpt>
      <trkpt lat="45.56572" lon="4.70341">
        <ele>141</ele>
        <time>2012-10-07T10:40:04Z</time>
      </trkpt>
      <trkpt lat="45.56572" lon="4.7034">
        <ele>140</ele>
        <time>2012-10-07T10:40:06Z</time>
      </trkpt>
      <trkpt lat="45.56571" lon="4.70339">
        <ele>140</ele>
        <time>2012-10-07T10:40:08Z</time>
      </trkpt>
      <trkpt lat="45.5657" lon="4.7034">
        <ele>140</ele>
        <time>2012-10-07T10:40:10Z</time>
      </trkpt>
      <trkpt lat="45.56569" lon="4.70341">
        <ele>139</ele>
        <time>2012-10-07T10:40:12Z</time>
      </trkpt>
      <trkpt lat="45.56568" lon="4.70343">
        <ele>139</ele>
        <time>2012-10-07T10:40:14Z</time>
      </trkpt>
      <trkpt lat="45.56567" lon="4.70345">
        <ele>138</ele>
        <time>2012-10-07T10:40:16Z</time>
      </trkpt>
      <trkpt lat="45.56565" lon="4.70346">
        <ele>138</ele>
        <time>2012-10-07T10:40:18Z</time>
      </trkpt>
      <trkpt lat="45.56564" lon="4.70347">
        <ele>137</ele>
        <time>2012-10-07T10:40:20Z</time>
      </trkpt>
      <trkpt lat="45.56562" lon="4.70346">
        <ele>137</ele>
        <time>2012-10-07T10:40:23Z</time>
      </trkpt>
      <trkpt lat="45.56561" lon="4.70347">
        <ele>136</ele>
        <time>2012-10-07T10:40:25Z</time>
      </trkpt>
      <trkpt lat="45.5656" lon="4.70346">
        <ele>136</ele>
        <time>2012-10-07T10:40:27Z</time>
      </trkpt>
      <trkpt lat="45.56558" lon="4.70345">
        <ele>135</ele>
        <time>2012-10-07T10:40:29Z</time>
      </trkpt>
      <trkpt lat="45.56557" lon="4.70346">
        <ele>135</ele>
        <time>2012-10-07T10:40:31Z</time>
      </trkpt>
      <trkpt lat="45.56556" lon="4.70345">
        <ele>135</ele>
        <time>2012-10-07T10:40:33Z</time>
      </trkpt>
      <trkpt lat="45.56554" lon="4.70345">
        <ele>135</ele>
        <time>2012-10-07T10:40:36Z</time>
      </trkpt>
      <trkpt lat="45.56553" lon="4.70343">
        <ele>135</ele>
        <time>2012-10-07T10:40:38Z</time>
      </trkpt>
      <trkpt lat="45.56551" lon="4.70342">
        <ele>135</ele>
        <time>2012-10-07T10:40:40Z</time>
      </trkpt>
      <trkpt lat="45.5655" lon="4.70341">
        <ele>136</ele>
        <time>2012-10-07T10:40:42Z</time>
      </trkpt>
      <trkpt lat="45.56548" lon="4.7034">
        <ele>136</ele>
        <time>2012-10-07T10:40:44Z</time>
      </trkpt>
      <trkpt lat="45.56547" lon="4.70339">
        <ele>136</ele>
        <time>2012-10-07T10:40:46Z</time>
      </trkpt>
      <trkpt lat="45.56544" lon="4.70338">
        <ele>136</ele>
        <time>2012-10-07T10:40:49Z</time>
      </trkpt>
      <trkpt lat="45.56543" lon="4.70336">
        <ele>136</ele>
        <time>2012-10-07T10:40:51Z</time>
      </trkpt>
      <trkpt lat="45.56541" lon="4.70334">
        <ele>136</ele>
        <time>2012-10-07T10:40:53Z</time>
      </trkpt>
      <trkpt lat="45.56539" lon="4.70333">
        <ele>136</ele>
        <time>2012-10-07T10:40:55Z</time>
      </trkpt>
      <trkpt lat="45.56537" lon="4.70331">
        <ele>136</ele>
        <time>2012-10-07T10:40:57Z</time>
      </trkpt>
      <trkpt lat="45.56535" lon="4.7033">
        <ele>136</ele>
        <time>2012-10-07T10:40:59Z</time>
      </trkpt>
      <trkpt lat="45.56533" lon="4.70329">
        <ele>136</ele>
        <time>2012-10-07T10:41:01Z</time>
      </trkpt>
      <trkpt lat="45.56531" lon="4.70328">
        <ele>136</ele>
        <time>2012-10-07T10:41:03Z</time>
      </trkpt>
      <trkpt lat="45.5653" lon="4.70326">
        <ele>136</ele>
        <time>2012-10-07T10:41:05Z</time>
      </trkpt>
      <trkpt lat="45.56527" lon="4.70325">
        <ele>136</ele>
        <time>2012-10-07T10:41:07Z</time>
      </trkpt>
      <trkpt lat="45.56525" lon="4.70323">
        <ele>136</ele>
        <time>2012-10-07T10:41:09Z</time>
      </trkpt>
      <trkpt lat="45.56524" lon="4.70321">
        <ele>136</ele>
        <time>2012-10-07T10:41:11Z</time>
      </trkpt>
      <trkpt lat="45.56522" lon="4.70319">
        <ele>136</ele>
        <time>2012-10-07T10:41:14Z</time>
      </trkpt>
      <trkpt lat="45.5652" lon="4.70318">
        <ele>136</ele>
        <time>2012-10-07T10:41:16Z</time>
      </trkpt>
      <trkpt lat="45.56518" lon="4.70317">
        <ele>136</ele>
        <time>2012-10-07T10:41:18Z</time>
      </trkpt>
      <trkpt lat="45.56516" lon="4.70316">
        <ele>136</ele>
        <time>2012-10-07T10:41:20Z</time>
      </trkpt>
      <trkpt lat="45.56515" lon="4.70314">
        <ele>136</ele>
        <time>2012-10-07T10:41:22Z</time>
      </trkpt>
      <trkpt lat="45.56512" lon="4.70312">
        <ele>136</ele>
        <time>2012-10-07T10:41:24Z</time>
      </trkpt>
      <trkpt lat="45.5651" lon="4.7031">
        <ele>136</ele>
        <time>2012-10-07T10:41:26Z</time>
      </trkpt>
      <trkpt lat="45.56509" lon="4.70309">
        <ele>136</ele>
        <time>2012-10-07T10:41:28Z</time>
      </trkpt>
      <trkpt lat="45.56507" lon="4.70308">
        <ele>135</ele>
        <time>2012-10-07T10:41:30Z</time>
      </trkpt>
      <trkpt lat="45.56505" lon="4.70306">
        <ele>136</ele>
        <time>2012-10-07T10:41:32Z</time>
      </trkpt>
      <trkpt lat="45.56504" lon="4.70304">
        <ele>136</ele>
        <time>2012-10-07T10:41:34Z</time>
      </trkpt>
      <trkpt lat="45.56502" lon="4.70302">
        <ele>136</ele>
        <time>2012-10-07T10:41:36Z</time>
      </trkpt>
      <trkpt lat="45.56501" lon="4.70301">
        <ele>136</ele>
        <time>2012-10-07T10:41:39Z</time>
      </trkpt>
      <trkpt lat="45.56499" lon="4.70299">
        <ele>136</ele>
        <time>2012-10-07T10:41:41Z</time>
      </trkpt>
      <trkpt lat="45.56497" lon="4.70296">
        <ele>136</ele>
        <time>2012-10-07T10:41:43Z</time>
      </trkpt>
      <trkpt lat="45.56495" lon="4.70295">
        <ele>136</ele>
        <time>2012-10-07T10:41:45Z</time>
      </trkpt>
      <trkpt lat="45.56493" lon="4.70294">
        <ele>136</ele>
        <time>2012-10-07T10:41:47Z</time>
      </trkpt>
      <trkpt lat="45.56492" lon="4.70293">
        <ele>136</ele>
        <time>2012-10-07T10:41:49Z</time>
      </trkpt>
      <trkpt lat="45.5649" lon="4.70291">
        <ele>136</ele>
        <time>2012-10-07T10:41:51Z</time>
      </trkpt>
      <trkpt lat="45.56489" lon="4.7029">
        <ele>136</ele>
        <time>2012-10-07T10:41:54Z</time>
      </trkpt>
      <trkpt lat="45.56487" lon="4.70288">
        <ele>137</ele>
        <time>2012-10-07T10:41:56Z</time>
      </trkpt>
      <trkpt lat="45.56485" lon="4.70285">
        <ele>137</ele>
        <time>2012-10-07T10:41:58Z</time>
      </trkpt>
      <trkpt lat="45.56484" lon="4.70283">
        <ele>137</ele>
        <time>2012-10-07T10:42:00Z</time>
      </trkpt>
      <trkpt lat="45.56482" lon="4.70282">
        <ele>137</ele>
        <time>2012-10-07T10:42:02Z</time>
      </trkpt>
      <trkpt lat="45.56481" lon="4.7028">
        <ele>137</ele>
        <time>2012-10-07T10:42:04Z</time>
      </trkpt>
      <trkpt lat="45.56479" lon="4.70279">
        <ele>138</ele>
        <time>2012-10-07T10:42:06Z</time>
      </trkpt>
      <trkpt lat="45.56478" lon="4.70277">
        <ele>138</ele>
        <time>2012-10-07T10:42:08Z</time>
      </trkpt>
      <trkpt lat="45.56477" lon="4.70275">
        <ele>138</ele>
        <time>2012-10-07T10:42:10Z</time>
      </trkpt>
      <trkpt lat="45.56475" lon="4.70274">
        <ele>138</ele>
        <time>2012-10-07T10:42:12Z</time>
      </trkpt>
      <trkpt lat="45.56474" lon="4.70272">
        <ele>138</ele>
        <time>2012-10-07T10:42:14Z</time>
      </trkpt>
      <trkpt lat="45.56472" lon="4.7027">
        <ele>138</ele>
        <time>2012-10-07T10:42:16Z</time>
      </trkpt>
      <trkpt lat="45.56471" lon="4.70269">
        <ele>138</ele>
        <time>2012-10-07T10:42:19Z</time>
      </trkpt>
      <trkpt lat="45.56469" lon="4.70267">
        <ele>138</ele>
        <time>2012-10-07T10:42:21Z</time>
      </trkpt>
      <trkpt lat="45.56468" lon="4.70265">
        <ele>138</ele>
        <time>2012-10-07T10:42:23Z</time>
      </trkpt>
      <trkpt lat="45.56466" lon="4.70263">
        <ele>139</ele>
        <time>2012-10-07T10:42:25Z</time>
      </trkpt>
      <trkpt lat="45.56464" lon="4.70261">
        <ele>139</ele>
        <time>2012-10-07T10:42:27Z</time>
      </trkpt>
      <trkpt lat="45.56463" lon="4.70259">
        <ele>139</ele>
        <time>2012-10-07T10:42:29Z</time>
      </trkpt>
      <trkpt lat="45.56461" lon="4.70257">
        <ele>139</ele>
        <time>2012-10-07T10:42:31Z</time>
      </trkpt>
      <trkpt lat="45.56459" lon="4.70255">
        <ele>138</ele>
        <time>2012-10-07T10:42:33Z</time>
      </trkpt>
      <trkpt lat="45.56458" lon="4.70254">
        <ele>139</ele>
        <time>2012-10-07T10:42:35Z</time>
      </trkpt>
      <trkpt lat="45.56456" lon="4.70251">
        <ele>139</ele>
        <time>2012-10-07T10:42:37Z</time>
      </trkpt>
      <trkpt lat="45.56455" lon="4.7025">
        <ele>139</ele>
        <time>2012-10-07T10:42:39Z</time>
      </trkpt>
      <trkpt lat="45.56454" lon="4.70248">
        <ele>139</ele>
        <time>2012-10-07T10:42:41Z</time>
      </trkpt>
      <trkpt lat="45.56452" lon="4.70245">
        <ele>139</ele>
        <time>2012-10-07T10:42:43Z</time>
      </trkpt>
      <trkpt lat="45.56451" lon="4.70243">
        <ele>140</ele>
        <time>2012-10-07T10:42:45Z</time>
      </trkpt>
      <trkpt lat="45.56449" lon="4.7024">
        <ele>140</ele>
        <time>2012-10-07T10:42:48Z</time>
      </trkpt>
      <trkpt lat="45.56448" lon="4.70238">
        <ele>140</ele>
        <time>2012-10-07T10:42:50Z</time>
      </trkpt>
      <trkpt lat="45.56446" lon="4.70235">
        <ele>139</ele>
        <time>2012-10-07T10:42:52Z</time>
      </trkpt>
      <trkpt lat="45.56444" lon="4.70233">
        <ele>139</ele>
        <time>2012-10-07T10:42:54Z</time>
      </trkpt>
      <trkpt lat="45.56443" lon="4.70232">
        <ele>139</ele>
        <time>2012-10-07T10:42:56Z</time>
      </trkpt>
      <trkpt lat="45.56442" lon="4.7023">
        <ele>139</ele>
        <time>2012-10-07T10:42:58Z</time>
      </trkpt>
      <trkpt lat="45.5644" lon="4.70228">
        <ele>139</ele>
        <time>2012-10-07T10:43:00Z</time>
      </trkpt>
      <trkpt lat="45.56439" lon="4.70226">
        <ele>139</ele>
        <time>2012-10-07T10:43:02Z</time>
      </trkpt>
      <trkpt lat="45.56438" lon="4.70224">
        <ele>139</ele>
        <time>2012-10-07T10:43:04Z</time>
      </trkpt>
      <trkpt lat="45.56437" lon="4.70222">
        <ele>139</ele>
        <time>2012-10-07T10:43:06Z</time>
      </trkpt>
      <trkpt lat="45.56435" lon="4.7022">
        <ele>140</ele>
        <time>2012-10-07T10:43:08Z</time>
      </trkpt>
      <trkpt lat="45.56434" lon="4.70218">
        <ele>140</ele>
        <time>2012-10-07T10:43:10Z</time>
      </trkpt>
      <trkpt lat="45.56433" lon="4.70216">
        <ele>140</ele>
        <time>2012-10-07T10:43:13Z</time>
      </trkpt>
      <trkpt lat="45.56432" lon="4.70213">
        <ele>140</ele>
        <time>2012-10-07T10:43:15Z</time>
      </trkpt>
      <trkpt lat="45.56431" lon="4.70211">
        <ele>140</ele>
        <time>2012-10-07T10:43:17Z</time>
      </trkpt>
      <trkpt lat="45.5643" lon="4.70208">
        <ele>140</ele>
        <time>2012-10-07T10:43:19Z</time>
      </trkpt>
      <trkpt lat="45.56429" lon="4.70206">
        <ele>140</ele>
        <time>2012-10-07T10:43:21Z</time>
      </trkpt>
      <trkpt lat="45.56428" lon="4.70203">
        <ele>140</ele>
        <time>2012-10-07T10:43:23Z</time>
      </trkpt>
      <trkpt lat="45.56427" lon="4.70201">
        <ele>140</ele>
        <time>2012-10-07T10:43:25Z</time>
      </trkpt>
      <trkpt lat="45.56425" lon="4.70198">
        <ele>140</ele>
        <time>2012-10-07T10:43:27Z</time>
      </trkpt>
      <trkpt lat="45.56424" lon="4.70195">
        <ele>140</ele>
        <time>2012-10-07T10:43:29Z</time>
      </trkpt>
      <trkpt lat="45.56424" lon="4.70193">
        <ele>140</ele>
        <time>2012-10-07T10:43:31Z</time>
      </trkpt>
      <trkpt lat="45.56423" lon="4.70191">
        <ele>140</ele>
        <time>2012-10-07T10:43:33Z</time>
      </trkpt>
      <trkpt lat="45.56422" lon="4.70189">
        <ele>140</ele>
        <time>2012-10-07T10:43:35Z</time>
      </trkpt>
      <trkpt lat="45.5642" lon="4.70186">
        <ele>140</ele>
        <time>2012-10-07T10:43:37Z</time>
      </trkpt>
      <trkpt lat="45.56419" lon="4.70184">
        <ele>140</ele>
        <time>2012-10-07T10:43:39Z</time>
      </trkpt>
      <trkpt lat="45.56417" lon="4.70182">
        <ele>140</ele>
        <time>2012-10-07T10:43:41Z</time>
      </trkpt>
      <trkpt lat="45.56416" lon="4.7018">
        <ele>140</ele>
        <time>2012-10-07T10:43:44Z</time>
      </trkpt>
      <trkpt lat="45.56414" lon="4.70178">
        <ele>140</ele>
        <time>2012-10-07T10:43:46Z</time>
      </trkpt>
      <trkpt lat="45.56412" lon="4.70174">
        <ele>140</ele>
        <time>2012-10-07T10:43:48Z</time>
      </trkpt>
      <trkpt lat="45.56411" lon="4.70171">
        <ele>139</ele>
        <time>2012-10-07T10:43:50Z</time>
      </trkpt>
      <trkpt lat="45.56409" lon="4.70169">
        <ele>139</ele>
        <time>2012-10-07T10:43:52Z</time>
      </trkpt>
      <trkpt lat="45.56408" lon="4.70166">
        <ele>139</ele>
        <time>2012-10-07T10:43:55Z</time>
      </trkpt>
      <trkpt lat="45.56406" lon="4.70164">
        <ele>138</ele>
        <time>2012-10-07T10:43:57Z</time>
      </trkpt>
      <trkpt lat="45.56405" lon="4.70161">
        <ele>138</ele>
        <time>2012-10-07T10:43:59Z</time>
      </trkpt>
      <trkpt lat="45.56404" lon="4.70159">
        <ele>137</ele>
        <time>2012-10-07T10:44:01Z</time>
      </trkpt>
      <trkpt lat="45.56403" lon="4.70156">
        <ele>137</ele>
        <time>2012-10-07T10:44:03Z</time>
      </trkpt>
      <trkpt lat="45.56401" lon="4.70154">
        <ele>137</ele>
        <time>2012-10-07T10:44:05Z</time>
      </trkpt>
      <trkpt lat="45.564" lon="4.70152">
        <ele>137</ele>
        <time>2012-10-07T10:44:07Z</time>
      </trkpt>
      <trkpt lat="45.56398" lon="4.7015">
        <ele>137</ele>
        <time>2012-10-07T10:44:09Z</time>
      </trkpt>
      <trkpt lat="45.56397" lon="4.70148">
        <ele>137</ele>
        <time>2012-10-07T10:44:11Z</time>
      </trkpt>
      <trkpt lat="45.56395" lon="4.70146">
        <ele>137</ele>
        <time>2012-10-07T10:44:13Z</time>
      </trkpt>
      <trkpt lat="45.56395" lon="4.70142">
        <ele>137</ele>
        <time>2012-10-07T10:44:15Z</time>
      </trkpt>
      <trkpt lat="45.56394" lon="4.7014">
        <ele>137</ele>
        <time>2012-10-07T10:44:17Z</time>
      </trkpt>
      <trkpt lat="45.56393" lon="4.70138">
        <ele>137</ele>
        <time>2012-10-07T10:44:19Z</time>
      </trkpt>
      <trkpt lat="45.56392" lon="4.70135">
        <ele>137</ele>
        <time>2012-10-07T10:44:21Z</time>
      </trkpt>
      <trkpt lat="45.56391" lon="4.70134">
        <ele>137</ele>
        <time>2012-10-07T10:44:24Z</time>
      </trkpt>
      <trkpt lat="45.56389" lon="4.70131">
        <ele>137</ele>
        <time>2012-10-07T10:44:26Z</time>
      </trkpt>
      <trkpt lat="45.56388" lon="4.70129">
        <ele>137</ele>
        <time>2012-10-07T10:44:28Z</time>
      </trkpt>
      <trkpt lat="45.56387" lon="4.70126">
        <ele>137</ele>
        <time>2012-10-07T10:44:30Z</time>
      </trkpt>
      <trkpt lat="45.56385" lon="4.70124">
        <ele>137</ele>
        <time>2012-10-07T10:44:32Z</time>
      </trkpt>
      <trkpt lat="45.56384" lon="4.70122">
        <ele>136</ele>
        <time>2012-10-07T10:44:34Z</time>
      </trkpt>
      <trkpt lat="45.56382" lon="4.70121">
        <ele>136</ele>
        <time>2012-10-07T10:44:36Z</time>
      </trkpt>
      <trkpt lat="45.5638" lon="4.70119">
        <ele>136</ele>
        <time>2012-10-07T10:44:39Z</time>
      </trkpt>
      <trkpt lat="45.56378" lon="4.70117">
        <ele>136</ele>
        <time>2012-10-07T10:44:41Z</time>
      </trkpt>
      <trkpt lat="45.56377" lon="4.70115">
        <ele>136</ele>
        <time>2012-10-07T10:44:43Z</time>
      </trkpt>
      <trkpt lat="45.56376" lon="4.70113">
        <ele>136</ele>
        <time>2012-10-07T10:44:45Z</time>
      </trkpt>
      <trkpt lat="45.56375" lon="4.7011">
        <ele>136</ele>
        <time>2012-10-07T10:44:47Z</time>
      </trkpt>
      <trkpt lat="45.56375" lon="4.70106">
        <ele>136</ele>
        <time>2012-10-07T10:44:49Z</time>
      </trkpt>
      <trkpt lat="45.56374" lon="4.70103">
        <ele>136</ele>
        <time>2012-10-07T10:44:51Z</time>
      </trkpt>
      <trkpt lat="45.56374" lon="4.70099">
        <ele>136</ele>
        <time>2012-10-07T10:44:53Z</time>
      </trkpt>
      <trkpt lat="45.56373" lon="4.70096">
        <ele>136</ele>
        <time>2012-10-07T10:44:55Z</time>
      </trkpt>
      <trkpt lat="45.56373" lon="4.70094">
        <ele>135</ele>
        <time>2012-10-07T10:44:57Z</time>
      </trkpt>
      <trkpt lat="45.56372" lon="4.70091">
        <ele>135</ele>
        <time>2012-10-07T10:44:59Z</time>
      </trkpt>
      <trkpt lat="45.56372" lon="4.70089">
        <ele>135</ele>
        <time>2012-10-07T10:45:01Z</time>
      </trkpt>
      <trkpt lat="45.56372" lon="4.70086">
        <ele>135</ele>
        <time>2012-10-07T10:45:03Z</time>
      </trkpt>
      <trkpt lat="45.56372" lon="4.70084">
        <ele>135</ele>
        <time>2012-10-07T10:45:05Z</time>
      </trkpt>
      <trkpt lat="45.5637" lon="4.70081">
        <ele>135</ele>
        <time>2012-10-07T10:45:07Z</time>
      </trkpt>
      <trkpt lat="45.56369" lon="4.70079">
        <ele>135</ele>
        <time>2012-10-07T10:45:09Z</time>
      </trkpt>
      <trkpt lat="45.56369" lon="4.70078">
        <ele>135</ele>
        <time>2012-10-07T10:45:11Z</time>
      </trkpt>
      <trkpt lat="45.56368" lon="4.70076">
        <ele>135</ele>
        <time>2012-10-07T10:45:14Z</time>
      </trkpt>
      <trkpt lat="45.56366" lon="4.70073">
        <ele>135</ele>
        <time>2012-10-07T10:45:16Z</time>
      </trkpt>
      <trkpt lat="45.56365" lon="4.70071">
        <ele>134</ele>
        <time>2012-10-07T10:45:18Z</time>
      </trkpt>
      <trkpt lat="45.56364" lon="4.70069">
        <ele>134</ele>
        <time>2012-10-07T10:45:20Z</time>
      </trkpt>
      <trkpt lat="45.56363" lon="4.70068">
        <ele>134</ele>
        <time>2012-10-07T10:45:22Z</time>
      </trkpt>
      <trkpt lat="45.56362" lon="4.70067">
        <ele>134</ele>
        <time>2012-10-07T10:45:24Z</time>
      </trkpt>
      <trkpt lat="45.56361" lon="4.70065">
        <ele>133</ele>
        <time>2012-10-07T10:45:26Z</time>
      </trkpt>
      <trkpt lat="45.5636" lon="4.70062">
        <ele>133</ele>
        <time>2012-10-07T10:45:28Z</time>
      </trkpt>
      <trkpt lat="45.56359" lon="4.70059">
        <ele>133</ele>
        <time>2012-10-07T10:45:30Z</time>
      </trkpt>
      <trkpt lat="45.56358" lon="4.70057">
        <ele>133</ele>
        <time>2012-10-07T10:45:32Z</time>
      </trkpt>
      <trkpt lat="45.56357" lon="4.70054">
        <ele>133</ele>
        <time>2012-10-07T10:45:34Z</time>
      </trkpt>
      <trkpt lat="45.56357" lon="4.7005">
        <ele>133</ele>
        <time>2012-10-07T10:45:36Z</time>
      </trkpt>
      <trkpt lat="45.56356" lon="4.70047">
        <ele>133</ele>
        <time>2012-10-07T10:45:38Z</time>
      </trkpt>
      <trkpt lat="45.56356" lon="4.70044">
        <ele>133</ele>
        <time>2012-10-07T10:45:40Z</time>
      </trkpt>
      <trkpt lat="45.56357" lon="4.70041">
        <ele>133</ele>
        <time>2012-10-07T10:45:42Z</time>
      </trkpt>
      <trkpt lat="45.56358" lon="4.70039">
        <ele>132</ele>
        <time>2012-10-07T10:45:45Z</time>
      </trkpt>
      <trkpt lat="45.56358" lon="4.70035">
        <ele>132</ele>
        <time>2012-10-07T10:45:47Z</time>
      </trkpt>
      <trkpt lat="45.56358" lon="4.70031">
        <ele>132</ele>
        <time>2012-10-07T10:45:49Z</time>
      </trkpt>
      <trkpt lat="45.56359" lon="4.70028">
        <ele>132</ele>
        <time>2012-10-07T10:45:51Z</time>
      </trkpt>
      <trkpt lat="45.56359" lon="4.70025">
        <ele>132</ele>
        <time>2012-10-07T10:45:53Z</time>
      </trkpt>
      <trkpt lat="45.5636" lon="4.70022">
        <ele>132</ele>
        <time>2012-10-07T10:45:55Z</time>
      </trkpt>
      <trkpt lat="45.5636" lon="4.70016">
        <ele>132</ele>
        <time>2012-10-07T10:45:57Z</time>
      </trkpt>
      <trkpt lat="45.56361" lon="4.70013">
        <ele>132</ele>
        <time>2012-10-07T10:45:59Z</time>
      </trkpt>
      <trkpt lat="45.56361" lon="4.70011">
        <ele>132</ele>
        <time>2012-10-07T10:46:01Z</time>
      </trkpt>
      <trkpt lat="45.56362" lon="4.70008">
        <ele>132</ele>
        <time>2012-10-07T10:46:03Z</time>
      </trkpt>
      <trkpt lat="45.56362" lon="4.70005">
        <ele>132</ele>
        <time>2012-10-07T10:46:05Z</time>
      </trkpt>
      <trkpt lat="45.56363" lon="4.70002">
        <ele>132</ele>
        <time>2012-10-07T10:46:07Z</time>
      </trkpt>
      <trkpt lat="45.56364" lon="4.69998">
        <ele>132</ele>
        <time>2012-10-07T10:46:09Z</time>
      </trkpt>
      <trkpt lat="45.56365" lon="4.69995">
        <ele>132</ele>
        <time>2012-10-07T10:46:11Z</time>
      </trkpt>
      <trkpt lat="45.56366" lon="4.69993">
        <ele>132</ele>
        <time>2012-10-07T10:46:13Z</time>
      </trkpt>
      <trkpt lat="45.56367" lon="4.69991">
        <ele>132</ele>
        <time>2012-10-07T10:46:15Z</time>
      </trkpt>
      <trkpt lat="45.56368" lon="4.69988">
        <ele>132</ele>
        <time>2012-10-07T10:46:17Z</time>
      </trkpt>
      <trkpt lat="45.56369" lon="4.69986">
        <ele>132</ele>
        <time>2012-10-07T10:46:19Z</time>
      </trkpt>
      <trkpt lat="45.56371" lon="4.69984">
        <ele>132</ele>
        <time>2012-10-07T10:46:21Z</time>
      </trkpt>
      <trkpt lat="45.56372" lon="4.69981">
        <ele>132</ele>
        <time>2012-10-07T10:46:23Z</time>
      </trkpt>
      <trkpt lat="45.56373" lon="4.69979">
        <ele>132</ele>
        <time>2012-10-07T10:46:26Z</time>
      </trkpt>
      <trkpt lat="45.56374" lon="4.69976">
        <ele>132</ele>
        <time>2012-10-07T10:46:28Z</time>
      </trkpt>
      <trkpt lat="45.56375" lon="4.69973">
        <ele>132</ele>
        <time>2012-10-07T10:46:30Z</time>
      </trkpt>
      <trkpt lat="45.56376" lon="4.6997">
        <ele>132</ele>
        <time>2012-10-07T10:46:32Z</time>
      </trkpt>
      <trkpt lat="45.56377" lon="4.69968">
        <ele>132</ele>
        <time>2012-10-07T10:46:34Z</time>
      </trkpt>
      <trkpt lat="45.56379" lon="4.69965">
        <ele>132</ele>
        <time>2012-10-07T10:46:36Z</time>
      </trkpt>
      <trkpt lat="45.5638" lon="4.6996">
        <ele>132</ele>
        <time>2012-10-07T10:46:38Z</time>
      </trkpt>
      <trkpt lat="45.56381" lon="4.69958">
        <ele>132</ele>
        <time>2012-10-07T10:46:40Z</time>
      </trkpt>
      <trkpt lat="45.56383" lon="4.69955">
        <ele>132</ele>
        <time>2012-10-07T10:46:42Z</time>
      </trkpt>
      <trkpt lat="45.56385" lon="4.69953">
        <ele>132</ele>
        <time>2012-10-07T10:46:44Z</time>
      </trkpt>
      <trkpt lat="45.56386" lon="4.6995">
        <ele>132</ele>
        <time>2012-10-07T10:46:46Z</time>
      </trkpt>
      <trkpt lat="45.56387" lon="4.69947">
        <ele>132</ele>
        <time>2012-10-07T10:46:48Z</time>
      </trkpt>
      <trkpt lat="45.56388" lon="4.69944">
        <ele>132</ele>
        <time>2012-10-07T10:46:50Z</time>
      </trkpt>
      <trkpt lat="45.56389" lon="4.69941">
        <ele>132</ele>
        <time>2012-10-07T10:46:53Z</time>
      </trkpt>
      <trkpt lat="45.56391" lon="4.69938">
        <ele>132</ele>
        <time>2012-10-07T10:46:55Z</time>
      </trkpt>
      <trkpt lat="45.56392" lon="4.69935">
        <ele>132</ele>
        <time>2012-10-07T10:46:57Z</time>
      </trkpt>
      <trkpt lat="45.56392" lon="4.69931">
        <ele>132</ele>
        <time>2012-10-07T10:46:59Z</time>
      </trkpt>
      <trkpt lat="45.56392" lon="4.69928">
        <ele>132</ele>
        <time>2012-10-07T10:47:01Z</time>
      </trkpt>
      <trkpt lat="45.56393" lon="4.69924">
        <ele>132</ele>
        <time>2012-10-07T10:47:03Z</time>
      </trkpt>
      <trkpt lat="45.56393" lon="4.69921">
        <ele>132</ele>
        <time>2012-10-07T10:47:05Z</time>
      </trkpt>
      <trkpt lat="45.56393" lon="4.69918">
        <ele>132</ele>
        <time>2012-10-07T10:47:07Z</time>
      </trkpt>
      <trkpt lat="45.56394" lon="4.69913">
        <ele>132</ele>
        <time>2012-10-07T10:47:09Z</time>
      </trkpt>
      <trkpt lat="45.56394" lon="4.6991">
        <ele>132</ele>
        <time>2012-10-07T10:47:11Z</time>
      </trkpt>
      <trkpt lat="45.56394" lon="4.69907">
        <ele>132</ele>
        <time>2012-10-07T10:47:13Z</time>
      </trkpt>
      <trkpt lat="45.56395" lon="4.69905">
        <ele>132</ele>
        <time>2012-10-07T10:47:15Z</time>
      </trkpt>
      <trkpt lat="45.56396" lon="4.69902">
        <ele>132</ele>
        <time>2012-10-07T10:47:17Z</time>
      </trkpt>
      <trkpt lat="45.56397" lon="4.69899">
        <ele>132</ele>
        <time>2012-10-07T10:47:20Z</time>
      </trkpt>
      <trkpt lat="45.56398" lon="4.69896">
        <ele>132</ele>
        <time>2012-10-07T10:47:22Z</time>
      </trkpt>
      <trkpt lat="45.56398" lon="4.69893">
        <ele>132</ele>
        <time>2012-10-07T10:47:24Z</time>
      </trkpt>
      <trkpt lat="45.56399" lon="4.6989">
        <ele>133</ele>
        <time>2012-10-07T10:47:26Z</time>
      </trkpt>
      <trkpt lat="45.564" lon="4.69886">
        <ele>132</ele>
        <time>2012-10-07T10:47:28Z</time>
      </trkpt>
      <trkpt lat="45.56401" lon="4.69883">
        <ele>132</ele>
        <time>2012-10-07T10:47:30Z</time>
      </trkpt>
      <trkpt lat="45.56401" lon="4.6988">
        <ele>132</ele>
        <time>2012-10-07T10:47:32Z</time>
      </trkpt>
      <trkpt lat="45.56401" lon="4.69876">
        <ele>132</ele>
        <time>2012-10-07T10:47:34Z</time>
      </trkpt>
      <trkpt lat="45.56402" lon="4.69873">
        <ele>132</ele>
        <time>2012-10-07T10:47:36Z</time>
      </trkpt>
      <trkpt lat="45.56403" lon="4.69871">
        <ele>132</ele>
        <time>2012-10-07T10:47:38Z</time>
      </trkpt>
      <trkpt lat="45.56404" lon="4.69868">
        <ele>132</ele>
        <time>2012-10-07T10:47:40Z</time>
      </trkpt>
      <trkpt lat="45.56406" lon="4.69865">
        <ele>132</ele>
        <time>2012-10-07T10:47:42Z</time>
      </trkpt>
      <trkpt lat="45.56406" lon="4.69862">
        <ele>132</ele>
        <time>2012-10-07T10:47:44Z</time>
      </trkpt>
      <trkpt lat="45.56407" lon="4.69859">
        <ele>132</ele>
        <time>2012-10-07T10:47:46Z</time>
      </trkpt>
      <trkpt lat="45.56408" lon="4.69857">
        <ele>132</ele>
        <time>2012-10-07T10:47:48Z</time>
      </trkpt>
      <trkpt lat="45.56408" lon="4.69854">
        <ele>132</ele>
        <time>2012-10-07T10:47:51Z</time>
      </trkpt>
      <trkpt lat="45.56409" lon="4.69852">
        <ele>132</ele>
        <time>2012-10-07T10:47:53Z</time>
      </trkpt>
      <trkpt lat="45.56409" lon="4.6985">
        <ele>132</ele>
        <time>2012-10-07T10:47:55Z</time>
      </trkpt>
      <trkpt lat="45.5641" lon="4.69845">
        <ele>132</ele>
        <time>2012-10-07T10:47:57Z</time>
      </trkpt>
      <trkpt lat="45.5641" lon="4.69842">
        <ele>132</ele>
        <time>2012-10-07T10:47:59Z</time>
      </trkpt>
      <trkpt lat="45.56411" lon="4.6984">
        <ele>133</ele>
        <time>2012-10-07T10:48:01Z</time>
      </trkpt>
      <trkpt lat="45.5641" lon="4.69837">
        <ele>133</ele>
        <time>2012-10-07T10:48:03Z</time>
      </trkpt>
      <trkpt lat="45.5641" lon="4.69834">
        <ele>133</ele>
        <time>2012-10-07T10:48:05Z</time>
      </trkpt>
      <trkpt lat="45.56409" lon="4.69833">
        <ele>133</ele>
        <time>2012-10-07T10:48:07Z</time>
      </trkpt>
      <trkpt lat="45.56409" lon="4.69832">
        <ele>133</ele>
        <time>2012-10-07T10:48:10Z</time>
      </trkpt>
      <trkpt lat="45.56408" lon="4.69831">
        <ele>133</ele>
        <time>2012-10-07T10:48:12Z</time>
      </trkpt>
      <trkpt lat="45.56407" lon="4.6983">
        <ele>133</ele>
        <time>2012-10-07T10:48:14Z</time>
      </trkpt>
      <trkpt lat="45.56405" lon="4.69828">
        <ele>133</ele>
        <time>2012-10-07T10:48:16Z</time>
      </trkpt>
      <trkpt lat="45.56404" lon="4.69827">
        <ele>133</ele>
        <time>2012-10-07T10:48:18Z</time>
      </trkpt>
      <trkpt lat="45.56403" lon="4.69825">
        <ele>133</ele>
        <time>2012-10-07T10:48:20Z</time>
      </trkpt>
      <trkpt lat="45.56401" lon="4.69823">
        <ele>133</ele>
        <time>2012-10-07T10:48:22Z</time>
      </trkpt>
      <trkpt lat="45.564" lon="4.69819">
        <ele>132</ele>
        <time>2012-10-07T10:48:24Z</time>
      </trkpt>
      <trkpt lat="45.56399" lon="4.69816">
        <ele>132</ele>
        <time>2012-10-07T10:48:26Z</time>
      </trkpt>
      <trkpt lat="45.56398" lon="4.69813">
        <ele>132</ele>
        <time>2012-10-07T10:48:28Z</time>
      </trkpt>
      <trkpt lat="45.56397" lon="4.69811">
        <ele>132</ele>
        <time>2012-10-07T10:48:30Z</time>
      </trkpt>
      <trkpt lat="45.56397" lon="4.69809">
        <ele>133</ele>
        <time>2012-10-07T10:48:33Z</time>
      </trkpt>
      <trkpt lat="45.56397" lon="4.69807">
        <ele>132</ele>
        <time>2012-10-07T10:48:35Z</time>
      </trkpt>
      <trkpt lat="45.56396" lon="4.69805">
        <ele>133</ele>
        <time>2012-10-07T10:48:37Z</time>
      </trkpt>
      <trkpt lat="45.56396" lon="4.69803">
        <ele>133</ele>
        <time>2012-10-07T10:48:39Z</time>
      </trkpt>
      <trkpt lat="45.56397" lon="4.698">
        <ele>133</ele>
        <time>2012-10-07T10:48:41Z</time>
      </trkpt>
      <trkpt lat="45.56398" lon="4.69798">
        <ele>133</ele>
        <time>2012-10-07T10:48:43Z</time>
      </trkpt>
      <trkpt lat="45.56398" lon="4.69796">
        <ele>134</ele>
        <time>2012-10-07T10:48:45Z</time>
      </trkpt>
      <trkpt lat="45.56398" lon="4.69794">
        <ele>134</ele>
        <time>2012-10-07T10:48:48Z</time>
      </trkpt>
      <trkpt lat="45.56398" lon="4.69792">
        <ele>134</ele>
        <time>2012-10-07T10:48:50Z</time>
      </trkpt>
      <trkpt lat="45.56399" lon="4.6979">
        <ele>134</ele>
        <time>2012-10-07T10:48:52Z</time>
      </trkpt>
      <trkpt lat="45.56399" lon="4.69788">
        <ele>134</ele>
        <time>2012-10-07T10:48:54Z</time>
      </trkpt>
      <trkpt lat="45.56398" lon="4.69786">
        <ele>134</ele>
        <time>2012-10-07T10:48:56Z</time>
      </trkpt>
      <trkpt lat="45.56399" lon="4.69784">
        <ele>134</ele>
        <time>2012-10-07T10:48:58Z</time>
      </trkpt>
      <trkpt lat="45.564" lon="4.69782">
        <ele>135</ele>
        <time>2012-10-07T10:49:00Z</time>
      </trkpt>
      <trkpt lat="45.564" lon="4.69779">
        <ele>135</ele>
        <time>2012-10-07T10:49:03Z</time>
      </trkpt>
      <trkpt lat="45.56401" lon="4.69777">
        <ele>135</ele>
        <time>2012-10-07T10:49:05Z</time>
      </trkpt>
      <trkpt lat="45.56401" lon="4.69774">
        <ele>136</ele>
        <time>2012-10-07T10:49:07Z</time>
      </trkpt>
      <trkpt lat="45.56401" lon="4.69772">
        <ele>136</ele>
        <time>2012-10-07T10:49:09Z</time>
      </trkpt>
      <trkpt lat="45.56401" lon="4.6977">
        <ele>136</ele>
        <time>2012-10-07T10:49:11Z</time>
      </trkpt>
      <trkpt lat="45.56402" lon="4.69768">
        <ele>136</ele>
        <time>2012-10-07T10:49:13Z</time>
      </trkpt>
      <trkpt lat="45.56401" lon="4.69765">
        <ele>136</ele>
        <time>2012-10-07T10:49:15Z</time>
      </trkpt>
      <trkpt lat="45.56402" lon="4.69763">
        <ele>136</ele>
        <time>2012-10-07T10:49:17Z</time>
      </trkpt>
      <trkpt lat="45.56402" lon="4.6976">
        <ele>137</ele>
        <time>2012-10-07T10:49:19Z</time>
      </trkpt>
      <trkpt lat="45.56402" lon="4.69758">
        <ele>137</ele>
        <time>2012-10-07T10:49:21Z</time>
      </trkpt>
      <trkpt lat="45.56402" lon="4.69755">
        <ele>137</ele>
        <time>2012-10-07T10:49:23Z</time>
      </trkpt>
      <trkpt lat="45.56402" lon="4.69753">
        <ele>137</ele>
        <time>2012-10-07T10:49:25Z</time>
      </trkpt>
      <trkpt lat="45.56402" lon="4.6975">
        <ele>137</ele>
        <time>2012-10-07T10:49:28Z</time>
      </trkpt>
      <trkpt lat="45.56401" lon="4.69747">
        <ele>138</ele>
        <time>2012-10-07T10:49:30Z</time>
      </trkpt>
      <trkpt lat="45.56401" lon="4.69745">
        <ele>138</ele>
        <time>2012-10-07T10:49:32Z</time>
      </trkpt>
      <trkpt lat="45.56402" lon="4.69743">
        <ele>138</ele>
        <time>2012-10-07T10:49:34Z</time>
      </trkpt>
      <trkpt lat="45.56402" lon="4.6974">
        <ele>139</ele>
        <time>2012-10-07T10:49:36Z</time>
      </trkpt>
      <trkpt lat="45.56401" lon="4.69738">
        <ele>139</ele>
        <time>2012-10-07T10:49:38Z</time>
      </trkpt>
      <trkpt lat="45.56401" lon="4.69735">
        <ele>139</ele>
        <time>2012-10-07T10:49:40Z</time>
      </trkpt>
      <trkpt lat="45.56401" lon="4.69733">
        <ele>139</ele>
        <time>2012-10-07T10:49:42Z</time>
      </trkpt>
      <trkpt lat="45.56401" lon="4.69732">
        <ele>139</ele>
        <time>2012-10-07T10:49:44Z</time>
      </trkpt>
      <trkpt lat="45.564" lon="4.69729">
        <ele>140</ele>
        <time>2012-10-07T10:49:46Z</time>
      </trkpt>
      <trkpt lat="45.564" lon="4.69726">
        <ele>140</ele>
        <time>2012-10-07T10:49:48Z</time>
      </trkpt>
      <trkpt lat="45.56399" lon="4.69723">
        <ele>140</ele>
        <time>2012-10-07T10:49:50Z</time>
      </trkpt>
      <trkpt lat="45.56399" lon="4.69721">
        <ele>140</ele>
        <time>2012-10-07T10:49:52Z</time>
      </trkpt>
      <trkpt lat="45.56398" lon="4.69718">
        <ele>140</ele>
        <time>2012-10-07T10:49:54Z</time>
      </trkpt>
      <trkpt lat="45.56398" lon="4.69715">
        <ele>140</ele>
        <time>2012-10-07T10:49:56Z</time>
      </trkpt>
      <trkpt lat="45.56397" lon="4.69712">
        <ele>140</ele>
        <time>2012-10-07T10:49:58Z</time>
      </trkpt>
      <trkpt lat="45.56396" lon="4.69709">
        <ele>140</ele>
        <time>2012-10-07T10:50:01Z</time>
      </trkpt>
      <trkpt lat="45.56396" lon="4.69706">
        <ele>140</ele>
        <time>2012-10-07T10:50:03Z</time>
      </trkpt>
      <trkpt lat="45.56395" lon="4.69703">
        <ele>140</ele>
        <time>2012-10-07T10:50:05Z</time>
      </trkpt>
      <trkpt lat="45.56394" lon="4.69701">
        <ele>140</ele>
        <time>2012-10-07T10:50:07Z</time>
      </trkpt>
      <trkpt lat="45.56393" lon="4.69699">
        <ele>140</ele>
        <time>2012-10-07T10:50:09Z</time>
      </trkpt>
      <trkpt lat="45.56393" lon="4.69697">
        <ele>140</ele>
        <time>2012-10-07T10:50:11Z</time>
      </trkpt>
      <trkpt lat="45.56392" lon="4.69695">
        <ele>140</ele>
        <time>2012-10-07T10:50:14Z</time>
      </trkpt>
      <trkpt lat="45.56391" lon="4.69692">
        <ele>140</ele>
        <time>2012-10-07T10:50:16Z</time>
      </trkpt>
      <trkpt lat="45.56389" lon="4.69688">
        <ele>140</ele>
        <time>2012-10-07T10:50:18Z</time>
      </trkpt>
      <trkpt lat="45.56389" lon="4.69686">
        <ele>140</ele>
        <time>2012-10-07T10:50:20Z</time>
      </trkpt>
      <trkpt lat="45.56388" lon="4.69683">
        <ele>140</ele>
        <time>2012-10-07T10:50:22Z</time>
      </trkpt>
      <trkpt lat="45.56387" lon="4.6968">
        <ele>140</ele>
        <time>2012-10-07T10:50:24Z</time>
      </trkpt>
      <trkpt lat="45.56385" lon="4.69677">
        <ele>140</ele>
        <time>2012-10-07T10:50:26Z</time>
      </trkpt>
      <trkpt lat="45.56385" lon="4.69674">
        <ele>140</ele>
        <time>2012-10-07T10:50:28Z</time>
      </trkpt>
      <trkpt lat="45.56385" lon="4.69673">
        <ele>140</ele>
        <time>2012-10-07T10:50:30Z</time>
      </trkpt>
      <trkpt lat="45.56384" lon="4.69673">
        <ele>140</ele>
        <time>2012-10-07T10:50:32Z</time>
      </trkpt>
      <trkpt lat="45.56384" lon="4.69672">
        <ele>140</ele>
        <time>2012-10-07T10:50:34Z</time>
      </trkpt>
      <trkpt lat="45.56383" lon="4.69672">
        <ele>140</ele>
        <time>2012-10-07T10:50:36Z</time>
      </trkpt>
      <trkpt lat="45.56383" lon="4.69672">
        <ele>139</ele>
        <time>2012-10-07T10:50:38Z</time>
      </trkpt>
      <trkpt lat="45.56383" lon="4.69672">
        <ele>139</ele>
        <time>2012-10-07T10:50:41Z</time>
      </trkpt>
      <trkpt lat="45.56382" lon="4.69672">
        <ele>139</ele>
        <time>2012-10-07T10:50:43Z</time>
      </trkpt>
      <trkpt lat="45.56382" lon="4.69671">
        <ele>139</ele>
        <time>2012-10-07T10:50:45Z</time>
      </trkpt>
    </trkseg>
  </trk>
</gpx>